<?xml version='1.0' encoding='UTF-8'?>
<gpx version="1.1" creator="https://www.komoot.de" xmlns="http://www.topografix.com/GPX/1/1" xmlns:xsi="http://www.w3.org/2001/XMLSchema-instance" xsi:schemaLocation="http://www.topografix.com/GPX/1/1 http://www.topografix.com/GPX/1/1/gpx.xsd">
  <metadata>
    <name>Day 3: Lac du Bourget to Voreppe</name>
    <author>
      <link href="https://www.komoot.de">
        <text>komoot</text>
        <type>text/html</type>
      </link>
    </author>
  </metadata>
  <trk>
    <name>Day 3: Lac du Bourget to Voreppe</name>
    <trkseg>
      <trkpt lat="45.701830" lon="5.886613">
        <ele>290.709483</ele>
        <time>2017-06-03T05:33:58.000Z</time>
      </trkpt>
      <trkpt lat="45.701862" lon="5.886427">
        <ele>290.709483</ele>
        <time>2017-06-03T05:34:13.000Z</time>
      </trkpt>
      <trkpt lat="45.701790" lon="5.886355">
        <ele>290.709483</ele>
        <time>2017-06-03T05:34:19.000Z</time>
      </trkpt>
      <trkpt lat="45.701733" lon="5.886249">
        <ele>290.709483</ele>
        <time>2017-06-03T05:34:22.000Z</time>
      </trkpt>
      <trkpt lat="45.701680" lon="5.886121">
        <ele>290.709483</ele>
        <time>2017-06-03T05:34:25.000Z</time>
      </trkpt>
      <trkpt lat="45.701637" lon="5.885970">
        <ele>290.709483</ele>
        <time>2017-06-03T05:34:28.000Z</time>
      </trkpt>
      <trkpt lat="45.701576" lon="5.885819">
        <ele>290.709483</ele>
        <time>2017-06-03T05:34:31.000Z</time>
      </trkpt>
      <trkpt lat="45.701492" lon="5.885722">
        <ele>290.709483</ele>
        <time>2017-06-03T05:34:34.000Z</time>
      </trkpt>
      <trkpt lat="45.701397" lon="5.885661">
        <ele>290.709483</ele>
        <time>2017-06-03T05:34:37.000Z</time>
      </trkpt>
      <trkpt lat="45.701275" lon="5.885639">
        <ele>290.483061</ele>
        <time>2017-06-03T05:34:40.000Z</time>
      </trkpt>
      <trkpt lat="45.701153" lon="5.885628">
        <ele>290.176711</ele>
        <time>2017-06-03T05:34:43.000Z</time>
      </trkpt>
      <trkpt lat="45.701030" lon="5.885615">
        <ele>289.867622</ele>
        <time>2017-06-03T05:34:46.000Z</time>
      </trkpt>
      <trkpt lat="45.700920" lon="5.885582">
        <ele>289.585965</ele>
        <time>2017-06-03T05:34:49.000Z</time>
      </trkpt>
      <trkpt lat="45.700810" lon="5.885596">
        <ele>289.309207</ele>
        <time>2017-06-03T05:34:52.000Z</time>
      </trkpt>
      <trkpt lat="45.700690" lon="5.885627">
        <ele>289.003620</ele>
        <time>2017-06-03T05:34:55.000Z</time>
      </trkpt>
      <trkpt lat="45.700558" lon="5.885652">
        <ele>288.669933</ele>
        <time>2017-06-03T05:34:58.000Z</time>
      </trkpt>
      <trkpt lat="45.700470" lon="5.885669">
        <ele>288.447398</ele>
        <time>2017-06-03T05:35:00.000Z</time>
      </trkpt>
      <trkpt lat="45.700340" lon="5.885726">
        <ele>288.106671</ele>
        <time>2017-06-03T05:35:03.000Z</time>
      </trkpt>
      <trkpt lat="45.700220" lon="5.885791">
        <ele>287.785139</ele>
        <time>2017-06-03T05:35:06.000Z</time>
      </trkpt>
      <trkpt lat="45.700100" lon="5.885873">
        <ele>287.451914</ele>
        <time>2017-06-03T05:35:09.000Z</time>
      </trkpt>
      <trkpt lat="45.699993" lon="5.885943">
        <ele>287.157096</ele>
        <time>2017-06-03T05:35:12.000Z</time>
      </trkpt>
      <trkpt lat="45.699883" lon="5.885980">
        <ele>286.873921</ele>
        <time>2017-06-03T05:35:15.000Z</time>
      </trkpt>
      <trkpt lat="45.699770" lon="5.886037">
        <ele>286.573671</ele>
        <time>2017-06-03T05:35:18.000Z</time>
      </trkpt>
      <trkpt lat="45.699660" lon="5.886121">
        <ele>286.261243</ele>
        <time>2017-06-03T05:35:21.000Z</time>
      </trkpt>
      <trkpt lat="45.699543" lon="5.886209">
        <ele>286.107032</ele>
        <time>2017-06-03T05:35:24.000Z</time>
      </trkpt>
      <trkpt lat="45.699463" lon="5.886275">
        <ele>286.026288</ele>
        <time>2017-06-03T05:35:26.000Z</time>
      </trkpt>
      <trkpt lat="45.699306" lon="5.886395">
        <ele>285.870651</ele>
        <time>2017-06-03T05:35:30.000Z</time>
      </trkpt>
      <trkpt lat="45.699180" lon="5.886460">
        <ele>285.753528</ele>
        <time>2017-06-03T05:35:33.000Z</time>
      </trkpt>
      <trkpt lat="45.699090" lon="5.886512">
        <ele>285.668655</ele>
        <time>2017-06-03T05:35:35.000Z</time>
      </trkpt>
      <trkpt lat="45.699005" lon="5.886569">
        <ele>285.586572</ele>
        <time>2017-06-03T05:35:37.000Z</time>
      </trkpt>
      <trkpt lat="45.698920" lon="5.886624">
        <ele>285.505000</ele>
        <time>2017-06-03T05:35:39.000Z</time>
      </trkpt>
      <trkpt lat="45.698837" lon="5.886678">
        <ele>285.425273</ele>
        <time>2017-06-03T05:35:41.000Z</time>
      </trkpt>
      <trkpt lat="45.698715" lon="5.886749">
        <ele>285.310105</ele>
        <time>2017-06-03T05:35:44.000Z</time>
      </trkpt>
      <trkpt lat="45.698590" lon="5.886814">
        <ele>285.193804</ele>
        <time>2017-06-03T05:35:47.000Z</time>
      </trkpt>
      <trkpt lat="45.698470" lon="5.886886">
        <ele>285.080020</ele>
        <time>2017-06-03T05:35:50.000Z</time>
      </trkpt>
      <trkpt lat="45.698387" lon="5.886950">
        <ele>284.997579</ele>
        <time>2017-06-03T05:35:52.000Z</time>
      </trkpt>
      <trkpt lat="45.698260" lon="5.887020">
        <ele>284.878570</ele>
        <time>2017-06-03T05:35:55.000Z</time>
      </trkpt>
      <trkpt lat="45.698140" lon="5.887106">
        <ele>284.761215</ele>
        <time>2017-06-03T05:35:58.000Z</time>
      </trkpt>
      <trkpt lat="45.698010" lon="5.887129">
        <ele>284.646663</ele>
        <time>2017-06-03T05:36:01.000Z</time>
      </trkpt>
      <trkpt lat="45.697910" lon="5.887105">
        <ele>284.556258</ele>
        <time>2017-06-03T05:36:03.000Z</time>
      </trkpt>
      <trkpt lat="45.697820" lon="5.887109">
        <ele>284.475591</ele>
        <time>2017-06-03T05:36:05.000Z</time>
      </trkpt>
      <trkpt lat="45.697723" lon="5.887222">
        <ele>284.363560</ele>
        <time>2017-06-03T05:36:08.000Z</time>
      </trkpt>
      <trkpt lat="45.697670" lon="5.887332">
        <ele>284.279942</ele>
        <time>2017-06-03T05:36:10.000Z</time>
      </trkpt>
      <trkpt lat="45.697610" lon="5.887439">
        <ele>284.194082</ele>
        <time>2017-06-03T05:36:12.000Z</time>
      </trkpt>
      <trkpt lat="45.697536" lon="5.887515">
        <ele>284.112495</ele>
        <time>2017-06-03T05:36:14.000Z</time>
      </trkpt>
      <trkpt lat="45.697445" lon="5.887574">
        <ele>284.023001</ele>
        <time>2017-06-03T05:36:16.000Z</time>
      </trkpt>
      <trkpt lat="45.697353" lon="5.887614">
        <ele>283.936864</ele>
        <time>2017-06-03T05:36:18.000Z</time>
      </trkpt>
      <trkpt lat="45.697260" lon="5.887666">
        <ele>283.847419</ele>
        <time>2017-06-03T05:36:20.000Z</time>
      </trkpt>
      <trkpt lat="45.697147" lon="5.887754">
        <ele>283.732179</ele>
        <time>2017-06-03T05:36:23.000Z</time>
      </trkpt>
      <trkpt lat="45.697030" lon="5.887820">
        <ele>283.619519</ele>
        <time>2017-06-03T05:36:26.000Z</time>
      </trkpt>
      <trkpt lat="45.696910" lon="5.887890">
        <ele>283.503433</ele>
        <time>2017-06-03T05:36:29.000Z</time>
      </trkpt>
      <trkpt lat="45.696793" lon="5.887971">
        <ele>283.387005</ele>
        <time>2017-06-03T05:36:32.000Z</time>
      </trkpt>
      <trkpt lat="45.696667" lon="5.888046">
        <ele>283.264758</ele>
        <time>2017-06-03T05:36:35.000Z</time>
      </trkpt>
      <trkpt lat="45.696575" lon="5.888098">
        <ele>283.176147</ele>
        <time>2017-06-03T05:36:37.000Z</time>
      </trkpt>
      <trkpt lat="45.696460" lon="5.888164">
        <ele>283.065152</ele>
        <time>2017-06-03T05:36:40.000Z</time>
      </trkpt>
      <trkpt lat="45.696350" lon="5.888230">
        <ele>282.959242</ele>
        <time>2017-06-03T05:36:43.000Z</time>
      </trkpt>
      <trkpt lat="45.696260" lon="5.888288">
        <ele>282.872223</ele>
        <time>2017-06-03T05:36:46.000Z</time>
      </trkpt>
      <trkpt lat="45.696156" lon="5.888354">
        <ele>282.771925</ele>
        <time>2017-06-03T05:36:49.000Z</time>
      </trkpt>
      <trkpt lat="45.696050" lon="5.888439">
        <ele>282.664807</ele>
        <time>2017-06-03T05:36:52.000Z</time>
      </trkpt>
      <trkpt lat="45.695934" lon="5.888511">
        <ele>282.553335</ele>
        <time>2017-06-03T05:36:55.000Z</time>
      </trkpt>
      <trkpt lat="45.695824" lon="5.888579">
        <ele>282.447697</ele>
        <time>2017-06-03T05:36:58.000Z</time>
      </trkpt>
      <trkpt lat="45.695710" lon="5.888654">
        <ele>282.337082</ele>
        <time>2017-06-03T05:37:01.000Z</time>
      </trkpt>
      <trkpt lat="45.695595" lon="5.888724">
        <ele>282.226906</ele>
        <time>2017-06-03T05:37:04.000Z</time>
      </trkpt>
      <trkpt lat="45.695488" lon="5.888788">
        <ele>282.124665</ele>
        <time>2017-06-03T05:37:07.000Z</time>
      </trkpt>
      <trkpt lat="45.695385" lon="5.888866">
        <ele>282.021932</ele>
        <time>2017-06-03T05:37:10.000Z</time>
      </trkpt>
      <trkpt lat="45.695267" lon="5.888930">
        <ele>281.910679</ele>
        <time>2017-06-03T05:37:13.000Z</time>
      </trkpt>
      <trkpt lat="45.695152" lon="5.889007">
        <ele>281.798746</ele>
        <time>2017-06-03T05:37:16.000Z</time>
      </trkpt>
      <trkpt lat="45.695030" lon="5.889080">
        <ele>281.682165</ele>
        <time>2017-06-03T05:37:19.000Z</time>
      </trkpt>
      <trkpt lat="45.694916" lon="5.889149">
        <ele>281.573042</ele>
        <time>2017-06-03T05:37:22.000Z</time>
      </trkpt>
      <trkpt lat="45.694810" lon="5.889218">
        <ele>281.470378</ele>
        <time>2017-06-03T05:37:25.000Z</time>
      </trkpt>
      <trkpt lat="45.694700" lon="5.889302">
        <ele>281.534905</ele>
        <time>2017-06-03T05:37:28.000Z</time>
      </trkpt>
      <trkpt lat="45.694584" lon="5.889369">
        <ele>281.694365</ele>
        <time>2017-06-03T05:37:31.000Z</time>
      </trkpt>
      <trkpt lat="45.694496" lon="5.889423">
        <ele>281.816420</ele>
        <time>2017-06-03T05:37:33.000Z</time>
      </trkpt>
      <trkpt lat="45.694378" lon="5.889500">
        <ele>281.981738</ele>
        <time>2017-06-03T05:37:36.000Z</time>
      </trkpt>
      <trkpt lat="45.694260" lon="5.889574">
        <ele>282.145966</ele>
        <time>2017-06-03T05:37:39.000Z</time>
      </trkpt>
      <trkpt lat="45.694153" lon="5.889649">
        <ele>282.297844</ele>
        <time>2017-06-03T05:37:42.000Z</time>
      </trkpt>
      <trkpt lat="45.694057" lon="5.889708">
        <ele>282.431027</ele>
        <time>2017-06-03T05:37:47.000Z</time>
      </trkpt>
      <trkpt lat="45.693962" lon="5.889758">
        <ele>282.560059</ele>
        <time>2017-06-03T05:37:52.000Z</time>
      </trkpt>
      <trkpt lat="45.693880" lon="5.889801">
        <ele>282.671387</ele>
        <time>2017-06-03T05:37:56.000Z</time>
      </trkpt>
      <trkpt lat="45.693783" lon="5.889872">
        <ele>282.810269</ele>
        <time>2017-06-03T05:38:00.000Z</time>
      </trkpt>
      <trkpt lat="45.693690" lon="5.889933">
        <ele>282.940678</ele>
        <time>2017-06-03T05:38:03.000Z</time>
      </trkpt>
      <trkpt lat="45.693580" lon="5.890002">
        <ele>283.093778</ele>
        <time>2017-06-03T05:38:06.000Z</time>
      </trkpt>
      <trkpt lat="45.693455" lon="5.890073">
        <ele>283.265215</ele>
        <time>2017-06-03T05:38:09.000Z</time>
      </trkpt>
      <trkpt lat="45.693333" lon="5.890151">
        <ele>283.435548</ele>
        <time>2017-06-03T05:38:12.000Z</time>
      </trkpt>
      <trkpt lat="45.693226" lon="5.890230">
        <ele>283.589025</ele>
        <time>2017-06-03T05:38:15.000Z</time>
      </trkpt>
      <trkpt lat="45.693120" lon="5.890296">
        <ele>283.725495</ele>
        <time>2017-06-03T05:38:18.000Z</time>
      </trkpt>
      <trkpt lat="45.693005" lon="5.890307">
        <ele>283.735101</ele>
        <time>2017-06-03T05:38:21.000Z</time>
      </trkpt>
      <trkpt lat="45.692890" lon="5.890272">
        <ele>283.744900</ele>
        <time>2017-06-03T05:38:24.000Z</time>
      </trkpt>
      <trkpt lat="45.692780" lon="5.890233">
        <ele>283.754345</ele>
        <time>2017-06-03T05:38:27.000Z</time>
      </trkpt>
      <trkpt lat="45.692670" lon="5.890222">
        <ele>283.763536</ele>
        <time>2017-06-03T05:38:30.000Z</time>
      </trkpt>
      <trkpt lat="45.692574" lon="5.890251">
        <ele>283.771713</ele>
        <time>2017-06-03T05:38:33.000Z</time>
      </trkpt>
      <trkpt lat="45.692467" lon="5.890237">
        <ele>283.780668</ele>
        <time>2017-06-03T05:38:36.000Z</time>
      </trkpt>
      <trkpt lat="45.692368" lon="5.890233">
        <ele>283.788922</ele>
        <time>2017-06-03T05:38:39.000Z</time>
      </trkpt>
      <trkpt lat="45.692287" lon="5.890307">
        <ele>283.796931</ele>
        <time>2017-06-03T05:38:43.000Z</time>
      </trkpt>
      <trkpt lat="45.692326" lon="5.890441">
        <ele>283.805382</ele>
        <time>2017-06-03T05:38:47.000Z</time>
      </trkpt>
      <trkpt lat="45.692425" lon="5.890483">
        <ele>283.813988</ele>
        <time>2017-06-03T05:38:51.000Z</time>
      </trkpt>
      <trkpt lat="45.692516" lon="5.890440">
        <ele>283.821975</ele>
        <time>2017-06-03T05:38:54.000Z</time>
      </trkpt>
      <trkpt lat="45.692627" lon="5.890402">
        <ele>283.831487</ele>
        <time>2017-06-03T05:38:57.000Z</time>
      </trkpt>
      <trkpt lat="45.692750" lon="5.890444">
        <ele>283.842026</ele>
        <time>2017-06-03T05:39:00.000Z</time>
      </trkpt>
      <trkpt lat="45.692833" lon="5.890525">
        <ele>283.850398</ele>
        <time>2017-06-03T05:39:03.000Z</time>
      </trkpt>
      <trkpt lat="45.692890" lon="5.890672">
        <ele>283.860186</ele>
        <time>2017-06-03T05:39:06.000Z</time>
      </trkpt>
      <trkpt lat="45.692898" lon="5.890842">
        <ele>283.870105</ele>
        <time>2017-06-03T05:39:09.000Z</time>
      </trkpt>
      <trkpt lat="45.692870" lon="5.891032">
        <ele>283.962041</ele>
        <time>2017-06-03T05:39:12.000Z</time>
      </trkpt>
      <trkpt lat="45.692840" lon="5.891213">
        <ele>284.101889</ele>
        <time>2017-06-03T05:39:14.000Z</time>
      </trkpt>
      <trkpt lat="45.692814" lon="5.891336">
        <ele>284.198499</ele>
        <time>2017-06-03T05:39:17.000Z</time>
      </trkpt>
      <trkpt lat="45.692790" lon="5.891466">
        <ele>284.299585</ele>
        <time>2017-06-03T05:39:19.000Z</time>
      </trkpt>
      <trkpt lat="45.692772" lon="5.891594">
        <ele>284.397742</ele>
        <time>2017-06-03T05:39:21.000Z</time>
      </trkpt>
      <trkpt lat="45.692753" lon="5.891724">
        <ele>284.497589</ele>
        <time>2017-06-03T05:39:23.000Z</time>
      </trkpt>
      <trkpt lat="45.692730" lon="5.891909">
        <ele>284.638853</ele>
        <time>2017-06-03T05:39:26.000Z</time>
      </trkpt>
      <trkpt lat="45.692745" lon="5.892103">
        <ele>284.785588</ele>
        <time>2017-06-03T05:39:29.000Z</time>
      </trkpt>
      <trkpt lat="45.692760" lon="5.892298">
        <ele>284.933070</ele>
        <time>2017-06-03T05:39:32.000Z</time>
      </trkpt>
      <trkpt lat="45.692764" lon="5.892428">
        <ele>285.030895</ele>
        <time>2017-06-03T05:39:34.000Z</time>
      </trkpt>
      <trkpt lat="45.692780" lon="5.892557">
        <ele>285.129391</ele>
        <time>2017-06-03T05:39:36.000Z</time>
      </trkpt>
      <trkpt lat="45.692800" lon="5.892693">
        <ele>285.233873</ele>
        <time>2017-06-03T05:39:38.000Z</time>
      </trkpt>
      <trkpt lat="45.692833" lon="5.892823">
        <ele>285.337857</ele>
        <time>2017-06-03T05:39:40.000Z</time>
      </trkpt>
      <trkpt lat="45.692867" lon="5.892947">
        <ele>285.438001</ele>
        <time>2017-06-03T05:39:42.000Z</time>
      </trkpt>
      <trkpt lat="45.692900" lon="5.893072">
        <ele>285.538461</ele>
        <time>2017-06-03T05:39:44.000Z</time>
      </trkpt>
      <trkpt lat="45.692940" lon="5.893203">
        <ele>285.645941</ele>
        <time>2017-06-03T05:39:46.000Z</time>
      </trkpt>
      <trkpt lat="45.692974" lon="5.893389">
        <ele>285.790479</ele>
        <time>2017-06-03T05:39:49.000Z</time>
      </trkpt>
      <trkpt lat="45.693005" lon="5.893531">
        <ele>285.801299</ele>
        <time>2017-06-03T05:39:51.000Z</time>
      </trkpt>
      <trkpt lat="45.693035" lon="5.893665">
        <ele>285.790766</ele>
        <time>2017-06-03T05:39:53.000Z</time>
      </trkpt>
      <trkpt lat="45.693077" lon="5.893838">
        <ele>285.777057</ele>
        <time>2017-06-03T05:39:56.000Z</time>
      </trkpt>
      <trkpt lat="45.693120" lon="5.894013">
        <ele>285.763172</ele>
        <time>2017-06-03T05:39:59.000Z</time>
      </trkpt>
      <trkpt lat="45.693142" lon="5.894167">
        <ele>285.751406</ele>
        <time>2017-06-03T05:40:02.000Z</time>
      </trkpt>
      <trkpt lat="45.693047" lon="5.894229">
        <ele>285.740218</ele>
        <time>2017-06-03T05:40:06.000Z</time>
      </trkpt>
      <trkpt lat="45.692944" lon="5.894304">
        <ele>285.727835</ele>
        <time>2017-06-03T05:40:09.000Z</time>
      </trkpt>
      <trkpt lat="45.692830" lon="5.894384">
        <ele>285.714230</ele>
        <time>2017-06-03T05:40:12.000Z</time>
      </trkpt>
      <trkpt lat="45.692738" lon="5.894417">
        <ele>285.704067</ele>
        <time>2017-06-03T05:40:14.000Z</time>
      </trkpt>
      <trkpt lat="45.692640" lon="5.894452">
        <ele>285.693244</ele>
        <time>2017-06-03T05:40:16.000Z</time>
      </trkpt>
      <trkpt lat="45.692547" lon="5.894496">
        <ele>285.682748</ele>
        <time>2017-06-03T05:40:18.000Z</time>
      </trkpt>
      <trkpt lat="45.692455" lon="5.894521">
        <ele>285.672713</ele>
        <time>2017-06-03T05:40:20.000Z</time>
      </trkpt>
      <trkpt lat="45.692330" lon="5.894531">
        <ele>285.659297</ele>
        <time>2017-06-03T05:40:23.000Z</time>
      </trkpt>
      <trkpt lat="45.692240" lon="5.894513">
        <ele>285.649559</ele>
        <time>2017-06-03T05:40:25.000Z</time>
      </trkpt>
      <trkpt lat="45.692150" lon="5.894499">
        <ele>285.639858</ele>
        <time>2017-06-03T05:40:27.000Z</time>
      </trkpt>
      <trkpt lat="45.692055" lon="5.894502">
        <ele>285.629676</ele>
        <time>2017-06-03T05:40:29.000Z</time>
      </trkpt>
      <trkpt lat="45.691963" lon="5.894509">
        <ele>285.619803</ele>
        <time>2017-06-03T05:40:31.000Z</time>
      </trkpt>
      <trkpt lat="45.691868" lon="5.894535">
        <ele>285.592294</ele>
        <time>2017-06-03T05:40:33.000Z</time>
      </trkpt>
      <trkpt lat="45.691770" lon="5.894561">
        <ele>285.559465</ele>
        <time>2017-06-03T05:40:35.000Z</time>
      </trkpt>
      <trkpt lat="45.691673" lon="5.894598">
        <ele>285.526400</ele>
        <time>2017-06-03T05:40:37.000Z</time>
      </trkpt>
      <trkpt lat="45.691590" lon="5.894685">
        <ele>285.492517</ele>
        <time>2017-06-03T05:40:39.000Z</time>
      </trkpt>
      <trkpt lat="45.691520" lon="5.894790">
        <ele>285.459121</ele>
        <time>2017-06-03T05:40:41.000Z</time>
      </trkpt>
      <trkpt lat="45.691444" lon="5.894888">
        <ele>285.425431</ele>
        <time>2017-06-03T05:40:43.000Z</time>
      </trkpt>
      <trkpt lat="45.691364" lon="5.894976">
        <ele>285.392200</ele>
        <time>2017-06-03T05:40:45.000Z</time>
      </trkpt>
      <trkpt lat="45.691280" lon="5.895070">
        <ele>285.357082</ele>
        <time>2017-06-03T05:40:47.000Z</time>
      </trkpt>
      <trkpt lat="45.691196" lon="5.895158">
        <ele>285.322797</ele>
        <time>2017-06-03T05:40:49.000Z</time>
      </trkpt>
      <trkpt lat="45.691113" lon="5.895246">
        <ele>285.288777</ele>
        <time>2017-06-03T05:40:51.000Z</time>
      </trkpt>
      <trkpt lat="45.691032" lon="5.895332">
        <ele>285.255560</ele>
        <time>2017-06-03T05:40:53.000Z</time>
      </trkpt>
      <trkpt lat="45.690952" lon="5.895413">
        <ele>285.223285</ele>
        <time>2017-06-03T05:40:54.000Z</time>
      </trkpt>
      <trkpt lat="45.690865" lon="5.895480">
        <ele>285.190746</ele>
        <time>2017-06-03T05:40:56.000Z</time>
      </trkpt>
      <trkpt lat="45.690765" lon="5.895537">
        <ele>285.155292</ele>
        <time>2017-06-03T05:40:59.000Z</time>
      </trkpt>
      <trkpt lat="45.690670" lon="5.895576">
        <ele>285.122740</ele>
        <time>2017-06-03T05:41:00.000Z</time>
      </trkpt>
      <trkpt lat="45.690567" lon="5.895590">
        <ele>285.088661</ele>
        <time>2017-06-03T05:41:02.000Z</time>
      </trkpt>
      <trkpt lat="45.690456" lon="5.895587">
        <ele>285.052093</ele>
        <time>2017-06-03T05:41:04.000Z</time>
      </trkpt>
      <trkpt lat="45.690350" lon="5.895577">
        <ele>284.989239</ele>
        <time>2017-06-03T05:41:06.000Z</time>
      </trkpt>
      <trkpt lat="45.690230" lon="5.895568">
        <ele>284.814546</ele>
        <time>2017-06-03T05:41:08.000Z</time>
      </trkpt>
      <trkpt lat="45.690130" lon="5.895564">
        <ele>284.669112</ele>
        <time>2017-06-03T05:41:10.000Z</time>
      </trkpt>
      <trkpt lat="45.690030" lon="5.895560">
        <ele>284.523677</ele>
        <time>2017-06-03T05:41:12.000Z</time>
      </trkpt>
      <trkpt lat="45.689930" lon="5.895550">
        <ele>284.377944</ele>
        <time>2017-06-03T05:41:14.000Z</time>
      </trkpt>
      <trkpt lat="45.689830" lon="5.895545">
        <ele>284.232477</ele>
        <time>2017-06-03T05:41:16.000Z</time>
      </trkpt>
      <trkpt lat="45.689728" lon="5.895551">
        <ele>284.084067</ele>
        <time>2017-06-03T05:41:19.000Z</time>
      </trkpt>
      <trkpt lat="45.689632" lon="5.895551">
        <ele>283.944503</ele>
        <time>2017-06-03T05:41:20.000Z</time>
      </trkpt>
      <trkpt lat="45.689537" lon="5.895551">
        <ele>283.806394</ele>
        <time>2017-06-03T05:41:22.000Z</time>
      </trkpt>
      <trkpt lat="45.689440" lon="5.895555">
        <ele>283.665319</ele>
        <time>2017-06-03T05:41:24.000Z</time>
      </trkpt>
      <trkpt lat="45.689350" lon="5.895553">
        <ele>283.534463</ele>
        <time>2017-06-03T05:41:26.000Z</time>
      </trkpt>
      <trkpt lat="45.689260" lon="5.895547">
        <ele>283.403481</ele>
        <time>2017-06-03T05:41:28.000Z</time>
      </trkpt>
      <trkpt lat="45.689160" lon="5.895542">
        <ele>283.258014</ele>
        <time>2017-06-03T05:41:30.000Z</time>
      </trkpt>
      <trkpt lat="45.689056" lon="5.895526">
        <ele>283.105950</ele>
        <time>2017-06-03T05:41:32.000Z</time>
      </trkpt>
      <trkpt lat="45.688950" lon="5.895501">
        <ele>282.949772</ele>
        <time>2017-06-03T05:41:34.000Z</time>
      </trkpt>
      <trkpt lat="45.688854" lon="5.895481">
        <ele>282.808738</ele>
        <time>2017-06-03T05:41:36.000Z</time>
      </trkpt>
      <trkpt lat="45.688760" lon="5.895467">
        <ele>282.671345</ele>
        <time>2017-06-03T05:41:38.000Z</time>
      </trkpt>
      <trkpt lat="45.688667" lon="5.895464">
        <ele>282.536109</ele>
        <time>2017-06-03T05:41:40.000Z</time>
      </trkpt>
      <trkpt lat="45.688576" lon="5.895451">
        <ele>282.404535</ele>
        <time>2017-06-03T05:41:42.000Z</time>
      </trkpt>
      <trkpt lat="45.688480" lon="5.895434">
        <ele>282.290542</ele>
        <time>2017-06-03T05:41:44.000Z</time>
      </trkpt>
      <trkpt lat="45.688385" lon="5.895411">
        <ele>282.177000</ele>
        <time>2017-06-03T05:41:46.000Z</time>
      </trkpt>
      <trkpt lat="45.688286" lon="5.895387">
        <ele>282.058673</ele>
        <time>2017-06-03T05:41:48.000Z</time>
      </trkpt>
      <trkpt lat="45.688175" lon="5.895385">
        <ele>281.927855</ele>
        <time>2017-06-03T05:41:51.000Z</time>
      </trkpt>
      <trkpt lat="45.688053" lon="5.895379">
        <ele>281.783999</ele>
        <time>2017-06-03T05:41:52.000Z</time>
      </trkpt>
      <trkpt lat="45.687927" lon="5.895355">
        <ele>281.634206</ele>
        <time>2017-06-03T05:41:54.000Z</time>
      </trkpt>
      <trkpt lat="45.687810" lon="5.895338">
        <ele>281.495620</ele>
        <time>2017-06-03T05:41:57.000Z</time>
      </trkpt>
      <trkpt lat="45.687630" lon="5.895302">
        <ele>281.281439</ele>
        <time>2017-06-03T05:41:59.000Z</time>
      </trkpt>
      <trkpt lat="45.687523" lon="5.895277">
        <ele>281.153677</ele>
        <time>2017-06-03T05:42:02.000Z</time>
      </trkpt>
      <trkpt lat="45.687428" lon="5.895254">
        <ele>281.040134</ele>
        <time>2017-06-03T05:42:04.000Z</time>
      </trkpt>
      <trkpt lat="45.687332" lon="5.895232">
        <ele>280.925563</ele>
        <time>2017-06-03T05:42:05.000Z</time>
      </trkpt>
      <trkpt lat="45.687237" lon="5.895215">
        <ele>280.812739</ele>
        <time>2017-06-03T05:42:07.000Z</time>
      </trkpt>
      <trkpt lat="45.687110" lon="5.895188">
        <ele>280.661435</ele>
        <time>2017-06-03T05:42:11.000Z</time>
      </trkpt>
      <trkpt lat="45.687016" lon="5.895189">
        <ele>280.550658</ele>
        <time>2017-06-03T05:42:12.000Z</time>
      </trkpt>
      <trkpt lat="45.686924" lon="5.895178">
        <ele>280.441863</ele>
        <time>2017-06-03T05:42:15.000Z</time>
      </trkpt>
      <trkpt lat="45.686832" lon="5.895163">
        <ele>280.332745</ele>
        <time>2017-06-03T05:42:17.000Z</time>
      </trkpt>
      <trkpt lat="45.686730" lon="5.895143">
        <ele>280.246480</ele>
        <time>2017-06-03T05:42:19.000Z</time>
      </trkpt>
      <trkpt lat="45.686626" lon="5.895120">
        <ele>280.177223</ele>
        <time>2017-06-03T05:42:21.000Z</time>
      </trkpt>
      <trkpt lat="45.686527" lon="5.895080">
        <ele>280.109523</ele>
        <time>2017-06-03T05:42:23.000Z</time>
      </trkpt>
      <trkpt lat="45.686430" lon="5.895028">
        <ele>280.041355</ele>
        <time>2017-06-03T05:42:25.000Z</time>
      </trkpt>
      <trkpt lat="45.686348" lon="5.894985">
        <ele>279.983881</ele>
        <time>2017-06-03T05:42:27.000Z</time>
      </trkpt>
      <trkpt lat="45.686214" lon="5.894961">
        <ele>279.895005</ele>
        <time>2017-06-03T05:42:30.000Z</time>
      </trkpt>
      <trkpt lat="45.686080" lon="5.894977">
        <ele>279.806509</ele>
        <time>2017-06-03T05:42:33.000Z</time>
      </trkpt>
      <trkpt lat="45.685980" lon="5.894997">
        <ele>279.740057</ele>
        <time>2017-06-03T05:42:34.000Z</time>
      </trkpt>
      <trkpt lat="45.685886" lon="5.894987">
        <ele>279.678023</ele>
        <time>2017-06-03T05:42:37.000Z</time>
      </trkpt>
      <trkpt lat="45.685787" lon="5.894966">
        <ele>279.612157</ele>
        <time>2017-06-03T05:42:39.000Z</time>
      </trkpt>
      <trkpt lat="45.685646" lon="5.894939">
        <ele>279.518534</ele>
        <time>2017-06-03T05:42:42.000Z</time>
      </trkpt>
      <trkpt lat="45.685516" lon="5.894916">
        <ele>279.432327</ele>
        <time>2017-06-03T05:42:45.000Z</time>
      </trkpt>
      <trkpt lat="45.685383" lon="5.894895">
        <ele>279.344265</ele>
        <time>2017-06-03T05:42:48.000Z</time>
      </trkpt>
      <trkpt lat="45.685257" lon="5.894869">
        <ele>279.260484</ele>
        <time>2017-06-03T05:42:51.000Z</time>
      </trkpt>
      <trkpt lat="45.685123" lon="5.894853">
        <ele>279.171989</ele>
        <time>2017-06-03T05:42:54.000Z</time>
      </trkpt>
      <trkpt lat="45.685036" lon="5.894843">
        <ele>279.114547</ele>
        <time>2017-06-03T05:42:56.000Z</time>
      </trkpt>
      <trkpt lat="45.684910" lon="5.894823">
        <ele>279.144009</ele>
        <time>2017-06-03T05:42:59.000Z</time>
      </trkpt>
      <trkpt lat="45.684784" lon="5.894796">
        <ele>279.184753</ele>
        <time>2017-06-03T05:43:01.000Z</time>
      </trkpt>
      <trkpt lat="45.684692" lon="5.894798">
        <ele>279.214178</ele>
        <time>2017-06-03T05:43:04.000Z</time>
      </trkpt>
      <trkpt lat="45.684597" lon="5.894785">
        <ele>279.244698</ele>
        <time>2017-06-03T05:43:06.000Z</time>
      </trkpt>
      <trkpt lat="45.684498" lon="5.894772">
        <ele>279.276492</ele>
        <time>2017-06-03T05:43:08.000Z</time>
      </trkpt>
      <trkpt lat="45.684364" lon="5.894747">
        <ele>279.319709</ele>
        <time>2017-06-03T05:43:11.000Z</time>
      </trkpt>
      <trkpt lat="45.684240" lon="5.894757">
        <ele>279.359427</ele>
        <time>2017-06-03T05:43:14.000Z</time>
      </trkpt>
      <trkpt lat="45.684124" lon="5.894730">
        <ele>279.397012</ele>
        <time>2017-06-03T05:43:17.000Z</time>
      </trkpt>
      <trkpt lat="45.684017" lon="5.894708">
        <ele>279.431582</ele>
        <time>2017-06-03T05:43:20.000Z</time>
      </trkpt>
      <trkpt lat="45.683918" lon="5.894699">
        <ele>279.463307</ele>
        <time>2017-06-03T05:43:23.000Z</time>
      </trkpt>
      <trkpt lat="45.683820" lon="5.894635">
        <ele>279.497756</ele>
        <time>2017-06-03T05:43:27.000Z</time>
      </trkpt>
      <trkpt lat="45.683754" lon="5.894537">
        <ele>279.528168</ele>
        <time>2017-06-03T05:43:30.000Z</time>
      </trkpt>
      <trkpt lat="45.683647" lon="5.894505">
        <ele>279.563126</ele>
        <time>2017-06-03T05:43:33.000Z</time>
      </trkpt>
      <trkpt lat="45.683550" lon="5.894517">
        <ele>279.594263</ele>
        <time>2017-06-03T05:43:36.000Z</time>
      </trkpt>
      <trkpt lat="45.683450" lon="5.894555">
        <ele>279.627351</ele>
        <time>2017-06-03T05:43:39.000Z</time>
      </trkpt>
      <trkpt lat="45.683346" lon="5.894554">
        <ele>279.660612</ele>
        <time>2017-06-03T05:43:41.000Z</time>
      </trkpt>
      <trkpt lat="45.683240" lon="5.894530">
        <ele>279.678251</ele>
        <time>2017-06-03T05:43:43.000Z</time>
      </trkpt>
      <trkpt lat="45.683140" lon="5.894508">
        <ele>279.667862</ele>
        <time>2017-06-03T05:43:45.000Z</time>
      </trkpt>
      <trkpt lat="45.683033" lon="5.894495">
        <ele>279.656834</ele>
        <time>2017-06-03T05:43:47.000Z</time>
      </trkpt>
      <trkpt lat="45.682934" lon="5.894474">
        <ele>279.646557</ele>
        <time>2017-06-03T05:43:49.000Z</time>
      </trkpt>
      <trkpt lat="45.682827" lon="5.894455">
        <ele>279.635486</ele>
        <time>2017-06-03T05:43:51.000Z</time>
      </trkpt>
      <trkpt lat="45.682724" lon="5.894441">
        <ele>279.624861</ele>
        <time>2017-06-03T05:43:53.000Z</time>
      </trkpt>
      <trkpt lat="45.682625" lon="5.894428">
        <ele>279.614652</ele>
        <time>2017-06-03T05:43:55.000Z</time>
      </trkpt>
      <trkpt lat="45.682518" lon="5.894405">
        <ele>279.603541</ele>
        <time>2017-06-03T05:43:57.000Z</time>
      </trkpt>
      <trkpt lat="45.682410" lon="5.894388">
        <ele>279.592384</ele>
        <time>2017-06-03T05:43:59.000Z</time>
      </trkpt>
      <trkpt lat="45.682312" lon="5.894362">
        <ele>279.582149</ele>
        <time>2017-06-03T05:44:01.000Z</time>
      </trkpt>
      <trkpt lat="45.682210" lon="5.894327">
        <ele>279.571379</ele>
        <time>2017-06-03T05:44:03.000Z</time>
      </trkpt>
      <trkpt lat="45.682110" lon="5.894278">
        <ele>279.560525</ele>
        <time>2017-06-03T05:44:05.000Z</time>
      </trkpt>
      <trkpt lat="45.682007" lon="5.894245">
        <ele>279.549686</ele>
        <time>2017-06-03T05:44:07.000Z</time>
      </trkpt>
      <trkpt lat="45.681908" lon="5.894227">
        <ele>279.539438</ele>
        <time>2017-06-03T05:44:09.000Z</time>
      </trkpt>
      <trkpt lat="45.681810" lon="5.894220">
        <ele>279.529362</ele>
        <time>2017-06-03T05:44:11.000Z</time>
      </trkpt>
      <trkpt lat="45.681705" lon="5.894212">
        <ele>279.518565</ele>
        <time>2017-06-03T05:44:13.000Z</time>
      </trkpt>
      <trkpt lat="45.681606" lon="5.894211">
        <ele>279.508399</ele>
        <time>2017-06-03T05:44:15.000Z</time>
      </trkpt>
      <trkpt lat="45.681500" lon="5.894231">
        <ele>279.497280</ele>
        <time>2017-06-03T05:44:17.000Z</time>
      </trkpt>
      <trkpt lat="45.681404" lon="5.894229">
        <ele>279.480090</ele>
        <time>2017-06-03T05:44:19.000Z</time>
      </trkpt>
      <trkpt lat="45.681316" lon="5.894204">
        <ele>279.464026</ele>
        <time>2017-06-03T05:44:21.000Z</time>
      </trkpt>
      <trkpt lat="45.681220" lon="5.894179">
        <ele>279.446555</ele>
        <time>2017-06-03T05:44:23.000Z</time>
      </trkpt>
      <trkpt lat="45.681095" lon="5.894143">
        <ele>279.423725</ele>
        <time>2017-06-03T05:44:26.000Z</time>
      </trkpt>
      <trkpt lat="45.680990" lon="5.894119">
        <ele>279.404687</ele>
        <time>2017-06-03T05:44:29.000Z</time>
      </trkpt>
      <trkpt lat="45.680897" lon="5.894093">
        <ele>279.387720</ele>
        <time>2017-06-03T05:44:32.000Z</time>
      </trkpt>
      <trkpt lat="45.680798" lon="5.894073">
        <ele>279.369819</ele>
        <time>2017-06-03T05:44:36.000Z</time>
      </trkpt>
      <trkpt lat="45.680645" lon="5.894039">
        <ele>279.342096</ele>
        <time>2017-06-03T05:47:26.000Z</time>
      </trkpt>
      <trkpt lat="45.680546" lon="5.894003">
        <ele>279.323807</ele>
        <time>2017-06-03T05:47:30.000Z</time>
      </trkpt>
      <trkpt lat="45.680458" lon="5.893981">
        <ele>279.307812</ele>
        <time>2017-06-03T05:47:33.000Z</time>
      </trkpt>
      <trkpt lat="45.680367" lon="5.893966">
        <ele>279.291411</ele>
        <time>2017-06-03T05:47:36.000Z</time>
      </trkpt>
      <trkpt lat="45.680264" lon="5.893940">
        <ele>279.272684</ele>
        <time>2017-06-03T05:47:40.000Z</time>
      </trkpt>
      <trkpt lat="45.680164" lon="5.893894">
        <ele>279.253877</ele>
        <time>2017-06-03T05:47:44.000Z</time>
      </trkpt>
      <trkpt lat="45.680077" lon="5.893828">
        <ele>279.236247</ele>
        <time>2017-06-03T05:47:48.000Z</time>
      </trkpt>
      <trkpt lat="45.679966" lon="5.893812">
        <ele>279.216272</ele>
        <time>2017-06-03T05:47:53.000Z</time>
      </trkpt>
      <trkpt lat="45.679850" lon="5.893848">
        <ele>279.195019</ele>
        <time>2017-06-03T05:47:57.000Z</time>
      </trkpt>
      <trkpt lat="45.679764" lon="5.893890">
        <ele>279.178749</ele>
        <time>2017-06-03T05:48:00.000Z</time>
      </trkpt>
      <trkpt lat="45.679676" lon="5.893938">
        <ele>279.266933</ele>
        <time>2017-06-03T05:48:03.000Z</time>
      </trkpt>
      <trkpt lat="45.679592" lon="5.893976">
        <ele>279.372352</ele>
        <time>2017-06-03T05:48:06.000Z</time>
      </trkpt>
      <trkpt lat="45.679493" lon="5.893981">
        <ele>279.490894</ele>
        <time>2017-06-03T05:48:09.000Z</time>
      </trkpt>
      <trkpt lat="45.679382" lon="5.893980">
        <ele>279.623725</ele>
        <time>2017-06-03T05:48:13.000Z</time>
      </trkpt>
      <trkpt lat="45.679264" lon="5.893990">
        <ele>279.765176</ele>
        <time>2017-06-03T05:48:17.000Z</time>
      </trkpt>
      <trkpt lat="45.679142" lon="5.893985">
        <ele>279.911227</ele>
        <time>2017-06-03T05:48:21.000Z</time>
      </trkpt>
      <trkpt lat="45.679035" lon="5.893955">
        <ele>280.041702</ele>
        <time>2017-06-03T05:48:24.000Z</time>
      </trkpt>
      <trkpt lat="45.678936" lon="5.893966">
        <ele>280.160526</ele>
        <time>2017-06-03T05:48:27.000Z</time>
      </trkpt>
      <trkpt lat="45.678833" lon="5.893973">
        <ele>280.283920</ele>
        <time>2017-06-03T05:48:30.000Z</time>
      </trkpt>
      <trkpt lat="45.678710" lon="5.893972">
        <ele>280.431110</ele>
        <time>2017-06-03T05:48:33.000Z</time>
      </trkpt>
      <trkpt lat="45.678580" lon="5.893968">
        <ele>280.586710</ele>
        <time>2017-06-03T05:48:36.000Z</time>
      </trkpt>
      <trkpt lat="45.678460" lon="5.893974">
        <ele>280.730395</ele>
        <time>2017-06-03T05:48:39.000Z</time>
      </trkpt>
      <trkpt lat="45.678345" lon="5.893977">
        <ele>280.868032</ele>
        <time>2017-06-03T05:48:42.000Z</time>
      </trkpt>
      <trkpt lat="45.678234" lon="5.893971">
        <ele>281.000955</ele>
        <time>2017-06-03T05:48:45.000Z</time>
      </trkpt>
      <trkpt lat="45.678123" lon="5.893982">
        <ele>281.134101</ele>
        <time>2017-06-03T05:48:48.000Z</time>
      </trkpt>
      <trkpt lat="45.678020" lon="5.893977">
        <ele>281.257426</ele>
        <time>2017-06-03T05:48:51.000Z</time>
      </trkpt>
      <trkpt lat="45.677925" lon="5.893985">
        <ele>281.317149</ele>
        <time>2017-06-03T05:48:54.000Z</time>
      </trkpt>
      <trkpt lat="45.677834" lon="5.893960">
        <ele>281.289682</ele>
        <time>2017-06-03T05:48:57.000Z</time>
      </trkpt>
      <trkpt lat="45.677740" lon="5.893925">
        <ele>281.260891</ele>
        <time>2017-06-03T05:49:00.000Z</time>
      </trkpt>
      <trkpt lat="45.677624" lon="5.893891">
        <ele>281.225792</ele>
        <time>2017-06-03T05:49:03.000Z</time>
      </trkpt>
      <trkpt lat="45.677486" lon="5.893884">
        <ele>281.184860</ele>
        <time>2017-06-03T05:49:06.000Z</time>
      </trkpt>
      <trkpt lat="45.677387" lon="5.893873">
        <ele>281.155426</ele>
        <time>2017-06-03T05:49:08.000Z</time>
      </trkpt>
      <trkpt lat="45.677284" lon="5.893864">
        <ele>281.124837</ele>
        <time>2017-06-03T05:49:10.000Z</time>
      </trkpt>
      <trkpt lat="45.677185" lon="5.893857">
        <ele>281.095456</ele>
        <time>2017-06-03T05:49:12.000Z</time>
      </trkpt>
      <trkpt lat="45.677094" lon="5.893863">
        <ele>281.068453</ele>
        <time>2017-06-03T05:49:14.000Z</time>
      </trkpt>
      <trkpt lat="45.677000" lon="5.893857">
        <ele>281.040561</ele>
        <time>2017-06-03T05:49:16.000Z</time>
      </trkpt>
      <trkpt lat="45.676870" lon="5.893838">
        <ele>281.001826</ele>
        <time>2017-06-03T05:49:19.000Z</time>
      </trkpt>
      <trkpt lat="45.676770" lon="5.893839">
        <ele>280.972183</ele>
        <time>2017-06-03T05:49:21.000Z</time>
      </trkpt>
      <trkpt lat="45.676674" lon="5.893828">
        <ele>280.943635</ele>
        <time>2017-06-03T05:49:23.000Z</time>
      </trkpt>
      <trkpt lat="45.676570" lon="5.893821">
        <ele>280.912773</ele>
        <time>2017-06-03T05:49:25.000Z</time>
      </trkpt>
      <trkpt lat="45.676464" lon="5.893813">
        <ele>280.881308</ele>
        <time>2017-06-03T05:49:27.000Z</time>
      </trkpt>
      <trkpt lat="45.676357" lon="5.893810">
        <ele>280.849585</ele>
        <time>2017-06-03T05:49:29.000Z</time>
      </trkpt>
      <trkpt lat="45.676250" lon="5.893799">
        <ele>280.817786</ele>
        <time>2017-06-03T05:49:31.000Z</time>
      </trkpt>
      <trkpt lat="45.676144" lon="5.893789">
        <ele>280.806090</ele>
        <time>2017-06-03T05:49:33.000Z</time>
      </trkpt>
      <trkpt lat="45.676030" lon="5.893776">
        <ele>280.851651</ele>
        <time>2017-06-03T05:49:35.000Z</time>
      </trkpt>
      <trkpt lat="45.675910" lon="5.893759">
        <ele>280.899693</ele>
        <time>2017-06-03T05:49:37.000Z</time>
      </trkpt>
      <trkpt lat="45.675793" lon="5.893748">
        <ele>280.946406</ele>
        <time>2017-06-03T05:49:39.000Z</time>
      </trkpt>
      <trkpt lat="45.675674" lon="5.893732">
        <ele>280.994024</ele>
        <time>2017-06-03T05:49:41.000Z</time>
      </trkpt>
      <trkpt lat="45.675560" lon="5.893716">
        <ele>281.039660</ele>
        <time>2017-06-03T05:49:43.000Z</time>
      </trkpt>
      <trkpt lat="45.675438" lon="5.893709">
        <ele>281.088303</ele>
        <time>2017-06-03T05:49:45.000Z</time>
      </trkpt>
      <trkpt lat="45.675327" lon="5.893704">
        <ele>281.132548</ele>
        <time>2017-06-03T05:49:47.000Z</time>
      </trkpt>
      <trkpt lat="45.675205" lon="5.893688">
        <ele>281.181356</ele>
        <time>2017-06-03T05:49:49.000Z</time>
      </trkpt>
      <trkpt lat="45.675083" lon="5.893681">
        <ele>281.230000</ele>
        <time>2017-06-03T05:49:51.000Z</time>
      </trkpt>
      <trkpt lat="45.674970" lon="5.893665">
        <ele>281.275239</ele>
        <time>2017-06-03T05:49:53.000Z</time>
      </trkpt>
      <trkpt lat="45.674850" lon="5.893660">
        <ele>281.323067</ele>
        <time>2017-06-03T05:49:55.000Z</time>
      </trkpt>
      <trkpt lat="45.674732" lon="5.893646">
        <ele>281.370239</ele>
        <time>2017-06-03T05:49:57.000Z</time>
      </trkpt>
      <trkpt lat="45.674614" lon="5.893635">
        <ele>281.417350</ele>
        <time>2017-06-03T05:49:59.000Z</time>
      </trkpt>
      <trkpt lat="45.674500" lon="5.893617">
        <ele>281.463043</ele>
        <time>2017-06-03T05:50:01.000Z</time>
      </trkpt>
      <trkpt lat="45.674385" lon="5.893602">
        <ele>281.509049</ele>
        <time>2017-06-03T05:50:03.000Z</time>
      </trkpt>
      <trkpt lat="45.674274" lon="5.893588">
        <ele>281.652252</ele>
        <time>2017-06-03T05:50:05.000Z</time>
      </trkpt>
      <trkpt lat="45.674156" lon="5.893579">
        <ele>281.809760</ele>
        <time>2017-06-03T05:50:07.000Z</time>
      </trkpt>
      <trkpt lat="45.674040" lon="5.893561">
        <ele>281.965285</ele>
        <time>2017-06-03T05:50:09.000Z</time>
      </trkpt>
      <trkpt lat="45.673923" lon="5.893540">
        <ele>282.122458</ele>
        <time>2017-06-03T05:50:11.000Z</time>
      </trkpt>
      <trkpt lat="45.673817" lon="5.893526">
        <ele>282.264348</ele>
        <time>2017-06-03T05:50:13.000Z</time>
      </trkpt>
      <trkpt lat="45.673714" lon="5.893520">
        <ele>282.401753</ele>
        <time>2017-06-03T05:50:15.000Z</time>
      </trkpt>
      <trkpt lat="45.673615" lon="5.893516">
        <ele>282.533765</ele>
        <time>2017-06-03T05:50:17.000Z</time>
      </trkpt>
      <trkpt lat="45.673515" lon="5.893519">
        <ele>282.667086</ele>
        <time>2017-06-03T05:50:19.000Z</time>
      </trkpt>
      <trkpt lat="45.673378" lon="5.893534">
        <ele>282.850230</ele>
        <time>2017-06-03T05:50:22.000Z</time>
      </trkpt>
      <trkpt lat="45.673244" lon="5.893546">
        <ele>283.029191</ele>
        <time>2017-06-03T05:50:25.000Z</time>
      </trkpt>
      <trkpt lat="45.673150" lon="5.893549">
        <ele>283.154517</ele>
        <time>2017-06-03T05:50:27.000Z</time>
      </trkpt>
      <trkpt lat="45.673054" lon="5.893541">
        <ele>283.282694</ele>
        <time>2017-06-03T05:50:29.000Z</time>
      </trkpt>
      <trkpt lat="45.672947" lon="5.893536">
        <ele>283.425393</ele>
        <time>2017-06-03T05:50:31.000Z</time>
      </trkpt>
      <trkpt lat="45.672844" lon="5.893521">
        <ele>283.563393</ele>
        <time>2017-06-03T05:50:33.000Z</time>
      </trkpt>
      <trkpt lat="45.672740" lon="5.893513">
        <ele>283.702217</ele>
        <time>2017-06-03T05:50:35.000Z</time>
      </trkpt>
      <trkpt lat="45.672634" lon="5.893503">
        <ele>283.843814</ele>
        <time>2017-06-03T05:50:37.000Z</time>
      </trkpt>
      <trkpt lat="45.672527" lon="5.893489">
        <ele>283.928153</ele>
        <time>2017-06-03T05:50:39.000Z</time>
      </trkpt>
      <trkpt lat="45.672417" lon="5.893476">
        <ele>283.964589</ele>
        <time>2017-06-03T05:50:41.000Z</time>
      </trkpt>
      <trkpt lat="45.672306" lon="5.893462">
        <ele>284.001374</ele>
        <time>2017-06-03T05:50:43.000Z</time>
      </trkpt>
      <trkpt lat="45.672195" lon="5.893456">
        <ele>284.038044</ele>
        <time>2017-06-03T05:50:45.000Z</time>
      </trkpt>
      <trkpt lat="45.672090" lon="5.893446">
        <ele>284.072783</ele>
        <time>2017-06-03T05:50:47.000Z</time>
      </trkpt>
      <trkpt lat="45.671980" lon="5.893427">
        <ele>284.109359</ele>
        <time>2017-06-03T05:50:49.000Z</time>
      </trkpt>
      <trkpt lat="45.671867" lon="5.893417">
        <ele>284.146734</ele>
        <time>2017-06-03T05:50:51.000Z</time>
      </trkpt>
      <trkpt lat="45.671757" lon="5.893405">
        <ele>284.183152</ele>
        <time>2017-06-03T05:50:53.000Z</time>
      </trkpt>
      <trkpt lat="45.671646" lon="5.893390">
        <ele>284.219958</ele>
        <time>2017-06-03T05:50:55.000Z</time>
      </trkpt>
      <trkpt lat="45.671530" lon="5.893382">
        <ele>284.258296</ele>
        <time>2017-06-03T05:50:57.000Z</time>
      </trkpt>
      <trkpt lat="45.671420" lon="5.893374">
        <ele>284.294656</ele>
        <time>2017-06-03T05:50:59.000Z</time>
      </trkpt>
      <trkpt lat="45.671310" lon="5.893362">
        <ele>284.331074</ele>
        <time>2017-06-03T05:51:01.000Z</time>
      </trkpt>
      <trkpt lat="45.671204" lon="5.893343">
        <ele>284.366340</ele>
        <time>2017-06-03T05:51:03.000Z</time>
      </trkpt>
      <trkpt lat="45.671093" lon="5.893334">
        <ele>284.403042</ele>
        <time>2017-06-03T05:51:05.000Z</time>
      </trkpt>
      <trkpt lat="45.670986" lon="5.893327">
        <ele>284.438402</ele>
        <time>2017-06-03T05:51:07.000Z</time>
      </trkpt>
      <trkpt lat="45.670880" lon="5.893321">
        <ele>284.473422</ele>
        <time>2017-06-03T05:51:09.000Z</time>
      </trkpt>
      <trkpt lat="45.670773" lon="5.893315">
        <ele>284.557652</ele>
        <time>2017-06-03T05:51:11.000Z</time>
      </trkpt>
      <trkpt lat="45.670666" lon="5.893311">
        <ele>284.869923</ele>
        <time>2017-06-03T05:51:13.000Z</time>
      </trkpt>
      <trkpt lat="45.670550" lon="5.893306">
        <ele>285.208498</ele>
        <time>2017-06-03T05:51:15.000Z</time>
      </trkpt>
      <trkpt lat="45.670437" lon="5.893309">
        <ele>285.538224</ele>
        <time>2017-06-03T05:51:17.000Z</time>
      </trkpt>
      <trkpt lat="45.670326" lon="5.893336">
        <ele>285.866703</ele>
        <time>2017-06-03T05:51:19.000Z</time>
      </trkpt>
      <trkpt lat="45.670216" lon="5.893368">
        <ele>286.194183</ele>
        <time>2017-06-03T05:51:21.000Z</time>
      </trkpt>
      <trkpt lat="45.670110" lon="5.893400">
        <ele>286.510237</ele>
        <time>2017-06-03T05:51:23.000Z</time>
      </trkpt>
      <trkpt lat="45.670013" lon="5.893435">
        <ele>286.802084</ele>
        <time>2017-06-03T05:51:25.000Z</time>
      </trkpt>
      <trkpt lat="45.669918" lon="5.893481">
        <ele>287.094675</ele>
        <time>2017-06-03T05:51:27.000Z</time>
      </trkpt>
      <trkpt lat="45.669790" lon="5.893519">
        <ele>287.476057</ele>
        <time>2017-06-03T05:51:30.000Z</time>
      </trkpt>
      <trkpt lat="45.669670" lon="5.893507">
        <ele>287.827002</ele>
        <time>2017-06-03T05:51:33.000Z</time>
      </trkpt>
      <trkpt lat="45.669560" lon="5.893532">
        <ele>288.151941</ele>
        <time>2017-06-03T05:51:36.000Z</time>
      </trkpt>
      <trkpt lat="45.669450" lon="5.893580">
        <ele>288.487446</ele>
        <time>2017-06-03T05:51:39.000Z</time>
      </trkpt>
      <trkpt lat="45.669340" lon="5.893625">
        <ele>288.821219</ele>
        <time>2017-06-03T05:51:42.000Z</time>
      </trkpt>
      <trkpt lat="45.669224" lon="5.893647">
        <ele>289.162599</ele>
        <time>2017-06-03T05:51:45.000Z</time>
      </trkpt>
      <trkpt lat="45.669106" lon="5.893683">
        <ele>289.514592</ele>
        <time>2017-06-03T05:51:48.000Z</time>
      </trkpt>
      <trkpt lat="45.668980" lon="5.893699">
        <ele>289.773932</ele>
        <time>2017-06-03T05:51:51.000Z</time>
      </trkpt>
      <trkpt lat="45.668858" lon="5.893729">
        <ele>289.838732</ele>
        <time>2017-06-03T05:51:54.000Z</time>
      </trkpt>
      <trkpt lat="45.668766" lon="5.893769">
        <ele>289.889066</ele>
        <time>2017-06-03T05:51:56.000Z</time>
      </trkpt>
      <trkpt lat="45.668682" lon="5.893822">
        <ele>289.937123</ele>
        <time>2017-06-03T05:51:58.000Z</time>
      </trkpt>
      <trkpt lat="45.668575" lon="5.893921">
        <ele>290.003822</ele>
        <time>2017-06-03T05:52:01.000Z</time>
      </trkpt>
      <trkpt lat="45.668472" lon="5.894031">
        <ele>290.071100</ele>
        <time>2017-06-03T05:52:04.000Z</time>
      </trkpt>
      <trkpt lat="45.668396" lon="5.894108">
        <ele>290.119847</ele>
        <time>2017-06-03T05:52:06.000Z</time>
      </trkpt>
      <trkpt lat="45.668312" lon="5.894203">
        <ele>290.175893</ele>
        <time>2017-06-03T05:52:08.000Z</time>
      </trkpt>
      <trkpt lat="45.668230" lon="5.894269">
        <ele>290.225142</ele>
        <time>2017-06-03T05:52:10.000Z</time>
      </trkpt>
      <trkpt lat="45.668137" lon="5.894313">
        <ele>290.276417</ele>
        <time>2017-06-03T05:52:12.000Z</time>
      </trkpt>
      <trkpt lat="45.668010" lon="5.894367">
        <ele>290.345772</ele>
        <time>2017-06-03T05:52:15.000Z</time>
      </trkpt>
      <trkpt lat="45.667923" lon="5.894410">
        <ele>290.393954</ele>
        <time>2017-06-03T05:52:17.000Z</time>
      </trkpt>
      <trkpt lat="45.667830" lon="5.894448">
        <ele>290.444583</ele>
        <time>2017-06-03T05:52:19.000Z</time>
      </trkpt>
      <trkpt lat="45.667744" lon="5.894486">
        <ele>290.491699</ele>
        <time>2017-06-03T05:52:21.000Z</time>
      </trkpt>
      <trkpt lat="45.667652" lon="5.894544">
        <ele>290.544326</ele>
        <time>2017-06-03T05:52:23.000Z</time>
      </trkpt>
      <trkpt lat="45.667572" lon="5.894608">
        <ele>290.592304</ele>
        <time>2017-06-03T05:52:25.000Z</time>
      </trkpt>
      <trkpt lat="45.667480" lon="5.894685">
        <ele>290.648096</ele>
        <time>2017-06-03T05:52:27.000Z</time>
      </trkpt>
      <trkpt lat="45.667390" lon="5.894763">
        <ele>290.661463</ele>
        <time>2017-06-03T05:52:29.000Z</time>
      </trkpt>
      <trkpt lat="45.667290" lon="5.894838">
        <ele>290.509580</ele>
        <time>2017-06-03T05:52:31.000Z</time>
      </trkpt>
      <trkpt lat="45.667194" lon="5.894900">
        <ele>290.367891</ele>
        <time>2017-06-03T05:52:33.000Z</time>
      </trkpt>
      <trkpt lat="45.667100" lon="5.894951">
        <ele>290.232653</ele>
        <time>2017-06-03T05:52:35.000Z</time>
      </trkpt>
      <trkpt lat="45.667000" lon="5.894996">
        <ele>290.091632</ele>
        <time>2017-06-03T05:52:37.000Z</time>
      </trkpt>
      <trkpt lat="45.666904" lon="5.895047">
        <ele>289.953874</ele>
        <time>2017-06-03T05:52:39.000Z</time>
      </trkpt>
      <trkpt lat="45.666813" lon="5.895110">
        <ele>289.817881</ele>
        <time>2017-06-03T05:52:41.000Z</time>
      </trkpt>
      <trkpt lat="45.666718" lon="5.895178">
        <ele>289.674984</ele>
        <time>2017-06-03T05:52:43.000Z</time>
      </trkpt>
      <trkpt lat="45.666622" lon="5.895240">
        <ele>289.533295</ele>
        <time>2017-06-03T05:52:45.000Z</time>
      </trkpt>
      <trkpt lat="45.666530" lon="5.895299">
        <ele>289.397670</ele>
        <time>2017-06-03T05:52:47.000Z</time>
      </trkpt>
      <trkpt lat="45.666440" lon="5.895361">
        <ele>289.263297</ele>
        <time>2017-06-03T05:52:49.000Z</time>
      </trkpt>
      <trkpt lat="45.666348" lon="5.895425">
        <ele>289.125683</ele>
        <time>2017-06-03T05:52:51.000Z</time>
      </trkpt>
      <trkpt lat="45.666252" lon="5.895484">
        <ele>288.985131</ele>
        <time>2017-06-03T05:52:53.000Z</time>
      </trkpt>
      <trkpt lat="45.666157" lon="5.895534">
        <ele>288.848961</ele>
        <time>2017-06-03T05:52:55.000Z</time>
      </trkpt>
      <trkpt lat="45.666050" lon="5.895580">
        <ele>288.698662</ele>
        <time>2017-06-03T05:52:57.000Z</time>
      </trkpt>
      <trkpt lat="45.665950" lon="5.895632">
        <ele>288.555529</ele>
        <time>2017-06-03T05:52:59.000Z</time>
      </trkpt>
      <trkpt lat="45.665855" lon="5.895669">
        <ele>288.423080</ele>
        <time>2017-06-03T05:53:01.000Z</time>
      </trkpt>
      <trkpt lat="45.665760" lon="5.895712">
        <ele>288.289039</ele>
        <time>2017-06-03T05:53:03.000Z</time>
      </trkpt>
      <trkpt lat="45.665670" lon="5.895758">
        <ele>288.105001</ele>
        <time>2017-06-03T05:53:05.000Z</time>
      </trkpt>
      <trkpt lat="45.665560" lon="5.895794">
        <ele>287.877595</ele>
        <time>2017-06-03T05:53:07.000Z</time>
      </trkpt>
      <trkpt lat="45.665466" lon="5.895826">
        <ele>287.682870</ele>
        <time>2017-06-03T05:53:09.000Z</time>
      </trkpt>
      <trkpt lat="45.665363" lon="5.895859">
        <ele>287.470156</ele>
        <time>2017-06-03T05:53:11.000Z</time>
      </trkpt>
      <trkpt lat="45.665264" lon="5.895887">
        <ele>287.266782</ele>
        <time>2017-06-03T05:53:13.000Z</time>
      </trkpt>
      <trkpt lat="45.665165" lon="5.895911">
        <ele>287.064425</ele>
        <time>2017-06-03T05:53:15.000Z</time>
      </trkpt>
      <trkpt lat="45.665060" lon="5.895935">
        <ele>286.850137</ele>
        <time>2017-06-03T05:53:17.000Z</time>
      </trkpt>
      <trkpt lat="45.664955" lon="5.895953">
        <ele>286.637018</ele>
        <time>2017-06-03T05:53:19.000Z</time>
      </trkpt>
      <trkpt lat="45.664852" lon="5.895968">
        <ele>286.428370</ele>
        <time>2017-06-03T05:53:21.000Z</time>
      </trkpt>
      <trkpt lat="45.664753" lon="5.895987">
        <ele>286.227070</ele>
        <time>2017-06-03T05:53:23.000Z</time>
      </trkpt>
      <trkpt lat="45.664650" lon="5.895999">
        <ele>286.018808</ele>
        <time>2017-06-03T05:53:25.000Z</time>
      </trkpt>
      <trkpt lat="45.664550" lon="5.896014">
        <ele>285.816174</ele>
        <time>2017-06-03T05:53:27.000Z</time>
      </trkpt>
      <trkpt lat="45.664455" lon="5.896017">
        <ele>285.624675</ele>
        <time>2017-06-03T05:53:29.000Z</time>
      </trkpt>
      <trkpt lat="45.664352" lon="5.896021">
        <ele>285.417023</ele>
        <time>2017-06-03T05:53:31.000Z</time>
      </trkpt>
      <trkpt lat="45.664257" lon="5.896020">
        <ele>285.225566</ele>
        <time>2017-06-03T05:53:33.000Z</time>
      </trkpt>
      <trkpt lat="45.664160" lon="5.896020">
        <ele>285.030082</ele>
        <time>2017-06-03T05:53:35.000Z</time>
      </trkpt>
      <trkpt lat="45.664070" lon="5.896014">
        <ele>284.848509</ele>
        <time>2017-06-03T05:53:37.000Z</time>
      </trkpt>
      <trkpt lat="45.663980" lon="5.895994">
        <ele>284.664959</ele>
        <time>2017-06-03T05:53:39.000Z</time>
      </trkpt>
      <trkpt lat="45.663883" lon="5.895974">
        <ele>284.497164</ele>
        <time>2017-06-03T05:53:41.000Z</time>
      </trkpt>
      <trkpt lat="45.663784" lon="5.895961">
        <ele>284.329952</ele>
        <time>2017-06-03T05:53:43.000Z</time>
      </trkpt>
      <trkpt lat="45.663680" lon="5.895950">
        <ele>284.154553</ele>
        <time>2017-06-03T05:53:45.000Z</time>
      </trkpt>
      <trkpt lat="45.663578" lon="5.895937">
        <ele>283.982316</ele>
        <time>2017-06-03T05:53:47.000Z</time>
      </trkpt>
      <trkpt lat="45.663470" lon="5.895923">
        <ele>283.799922</ele>
        <time>2017-06-03T05:53:49.000Z</time>
      </trkpt>
      <trkpt lat="45.663364" lon="5.895907">
        <ele>283.620647</ele>
        <time>2017-06-03T05:53:51.000Z</time>
      </trkpt>
      <trkpt lat="45.663254" lon="5.895880">
        <ele>283.432931</ele>
        <time>2017-06-03T05:53:53.000Z</time>
      </trkpt>
      <trkpt lat="45.663143" lon="5.895849">
        <ele>283.242713</ele>
        <time>2017-06-03T05:53:55.000Z</time>
      </trkpt>
      <trkpt lat="45.663025" lon="5.895810">
        <ele>283.039018</ele>
        <time>2017-06-03T05:53:57.000Z</time>
      </trkpt>
      <trkpt lat="45.662918" lon="5.895765">
        <ele>282.851438</ele>
        <time>2017-06-03T05:53:59.000Z</time>
      </trkpt>
      <trkpt lat="45.662800" lon="5.895721">
        <ele>282.646340</ele>
        <time>2017-06-03T05:54:01.000Z</time>
      </trkpt>
      <trkpt lat="45.662693" lon="5.895688">
        <ele>282.462240</ele>
        <time>2017-06-03T05:54:03.000Z</time>
      </trkpt>
      <trkpt lat="45.662582" lon="5.895664">
        <ele>282.273425</ele>
        <time>2017-06-03T05:54:05.000Z</time>
      </trkpt>
      <trkpt lat="45.662464" lon="5.895643">
        <ele>282.073427</ele>
        <time>2017-06-03T05:54:07.000Z</time>
      </trkpt>
      <trkpt lat="45.662350" lon="5.895614">
        <ele>281.878679</ele>
        <time>2017-06-03T05:54:09.000Z</time>
      </trkpt>
      <trkpt lat="45.662235" lon="5.895571">
        <ele>281.678760</ele>
        <time>2017-06-03T05:54:11.000Z</time>
      </trkpt>
      <trkpt lat="45.662125" lon="5.895525">
        <ele>281.641467</ele>
        <time>2017-06-03T05:54:13.000Z</time>
      </trkpt>
      <trkpt lat="45.662014" lon="5.895475">
        <ele>281.669739</ele>
        <time>2017-06-03T05:54:15.000Z</time>
      </trkpt>
      <trkpt lat="45.661907" lon="5.895424">
        <ele>281.697140</ele>
        <time>2017-06-03T05:54:17.000Z</time>
      </trkpt>
      <trkpt lat="45.661800" lon="5.895373">
        <ele>281.724540</ele>
        <time>2017-06-03T05:54:19.000Z</time>
      </trkpt>
      <trkpt lat="45.661694" lon="5.895330">
        <ele>281.751308</ele>
        <time>2017-06-03T05:54:21.000Z</time>
      </trkpt>
      <trkpt lat="45.661587" lon="5.895285">
        <ele>281.778404</ele>
        <time>2017-06-03T05:54:23.000Z</time>
      </trkpt>
      <trkpt lat="45.661484" lon="5.895236">
        <ele>281.804775</ele>
        <time>2017-06-03T05:54:25.000Z</time>
      </trkpt>
      <trkpt lat="45.661380" lon="5.895195">
        <ele>281.830983</ele>
        <time>2017-06-03T05:54:27.000Z</time>
      </trkpt>
      <trkpt lat="45.661274" lon="5.895156">
        <ele>281.857574</ele>
        <time>2017-06-03T05:54:29.000Z</time>
      </trkpt>
      <trkpt lat="45.661170" lon="5.895117">
        <ele>281.883695</ele>
        <time>2017-06-03T05:54:31.000Z</time>
      </trkpt>
      <trkpt lat="45.661064" lon="5.895079">
        <ele>281.910244</ele>
        <time>2017-06-03T05:54:33.000Z</time>
      </trkpt>
      <trkpt lat="45.660960" lon="5.895035">
        <ele>281.936592</ele>
        <time>2017-06-03T05:54:35.000Z</time>
      </trkpt>
      <trkpt lat="45.660860" lon="5.894990">
        <ele>281.962061</ele>
        <time>2017-06-03T05:54:37.000Z</time>
      </trkpt>
      <trkpt lat="45.660755" lon="5.894940">
        <ele>281.988947</ele>
        <time>2017-06-03T05:54:39.000Z</time>
      </trkpt>
      <trkpt lat="45.660656" lon="5.894901">
        <ele>282.013894</ele>
        <time>2017-06-03T05:54:41.000Z</time>
      </trkpt>
      <trkpt lat="45.660560" lon="5.894860">
        <ele>282.038234</ele>
        <time>2017-06-03T05:54:43.000Z</time>
      </trkpt>
      <trkpt lat="45.660458" lon="5.894822">
        <ele>282.063769</ele>
        <time>2017-06-03T05:54:45.000Z</time>
      </trkpt>
      <trkpt lat="45.660350" lon="5.894782">
        <ele>282.090479</ele>
        <time>2017-06-03T05:54:47.000Z</time>
      </trkpt>
      <trkpt lat="45.660244" lon="5.894740">
        <ele>282.116812</ele>
        <time>2017-06-03T05:54:49.000Z</time>
      </trkpt>
      <trkpt lat="45.660145" lon="5.894697">
        <ele>282.141583</ele>
        <time>2017-06-03T05:54:51.000Z</time>
      </trkpt>
      <trkpt lat="45.660053" lon="5.894646">
        <ele>282.165205</ele>
        <time>2017-06-03T05:54:53.000Z</time>
      </trkpt>
      <trkpt lat="45.659960" lon="5.894588">
        <ele>282.189494</ele>
        <time>2017-06-03T05:54:55.000Z</time>
      </trkpt>
      <trkpt lat="45.659863" lon="5.894544">
        <ele>282.213857</ele>
        <time>2017-06-03T05:54:57.000Z</time>
      </trkpt>
      <trkpt lat="45.659756" lon="5.894534">
        <ele>282.239529</ele>
        <time>2017-06-03T05:54:59.000Z</time>
      </trkpt>
      <trkpt lat="45.659653" lon="5.894546">
        <ele>282.264271</ele>
        <time>2017-06-03T05:55:01.000Z</time>
      </trkpt>
      <trkpt lat="45.659542" lon="5.894546">
        <ele>282.290847</ele>
        <time>2017-06-03T05:55:03.000Z</time>
      </trkpt>
      <trkpt lat="45.659430" lon="5.894532">
        <ele>282.317764</ele>
        <time>2017-06-03T05:55:05.000Z</time>
      </trkpt>
      <trkpt lat="45.659325" lon="5.894507">
        <ele>282.343249</ele>
        <time>2017-06-03T05:55:07.000Z</time>
      </trkpt>
      <trkpt lat="45.659210" lon="5.894484">
        <ele>282.371050</ele>
        <time>2017-06-03T05:55:09.000Z</time>
      </trkpt>
      <trkpt lat="45.659103" lon="5.894465">
        <ele>282.396864</ele>
        <time>2017-06-03T05:55:11.000Z</time>
      </trkpt>
      <trkpt lat="45.659000" lon="5.894449">
        <ele>282.421669</ele>
        <time>2017-06-03T05:55:13.000Z</time>
      </trkpt>
      <trkpt lat="45.658897" lon="5.894431">
        <ele>282.446513</ele>
        <time>2017-06-03T05:55:15.000Z</time>
      </trkpt>
      <trkpt lat="45.658802" lon="5.894422">
        <ele>282.469307</ele>
        <time>2017-06-03T05:55:17.000Z</time>
      </trkpt>
      <trkpt lat="45.658707" lon="5.894418">
        <ele>282.508801</ele>
        <time>2017-06-03T05:55:19.000Z</time>
      </trkpt>
      <trkpt lat="45.658607" lon="5.894408">
        <ele>282.687273</ele>
        <time>2017-06-03T05:55:21.000Z</time>
      </trkpt>
      <trkpt lat="45.658512" lon="5.894394">
        <ele>282.857304</ele>
        <time>2017-06-03T05:55:23.000Z</time>
      </trkpt>
      <trkpt lat="45.658417" lon="5.894369">
        <ele>283.029276</ele>
        <time>2017-06-03T05:55:25.000Z</time>
      </trkpt>
      <trkpt lat="45.658325" lon="5.894341">
        <ele>283.196736</ele>
        <time>2017-06-03T05:55:27.000Z</time>
      </trkpt>
      <trkpt lat="45.658230" lon="5.894311">
        <ele>283.369942</ele>
        <time>2017-06-03T05:55:29.000Z</time>
      </trkpt>
      <trkpt lat="45.658100" lon="5.894279">
        <ele>283.604792</ele>
        <time>2017-06-03T05:55:32.000Z</time>
      </trkpt>
      <trkpt lat="45.657993" lon="5.894230">
        <ele>283.804812</ele>
        <time>2017-06-03T05:55:35.000Z</time>
      </trkpt>
      <trkpt lat="45.657875" lon="5.894199">
        <ele>284.018409</ele>
        <time>2017-06-03T05:55:38.000Z</time>
      </trkpt>
      <trkpt lat="45.657760" lon="5.894159">
        <ele>284.229115</ele>
        <time>2017-06-03T05:55:41.000Z</time>
      </trkpt>
      <trkpt lat="45.657650" lon="5.894117">
        <ele>284.431811</ele>
        <time>2017-06-03T05:55:44.000Z</time>
      </trkpt>
      <trkpt lat="45.657562" lon="5.894025">
        <ele>284.625854</ele>
        <time>2017-06-03T05:55:47.000Z</time>
      </trkpt>
      <trkpt lat="45.657475" lon="5.893915">
        <ele>284.832563</ele>
        <time>2017-06-03T05:55:50.000Z</time>
      </trkpt>
      <trkpt lat="45.657356" lon="5.893845">
        <ele>285.061636</ele>
        <time>2017-06-03T05:55:53.000Z</time>
      </trkpt>
      <trkpt lat="45.657270" lon="5.893883">
        <ele>285.221884</ele>
        <time>2017-06-03T05:55:55.000Z</time>
      </trkpt>
      <trkpt lat="45.657190" lon="5.893967">
        <ele>285.398555</ele>
        <time>2017-06-03T05:55:57.000Z</time>
      </trkpt>
      <trkpt lat="45.657124" lon="5.894121">
        <ele>285.623348</ele>
        <time>2017-06-03T05:56:00.000Z</time>
      </trkpt>
      <trkpt lat="45.657050" lon="5.894258">
        <ele>285.518718</ele>
        <time>2017-06-03T05:56:03.000Z</time>
      </trkpt>
      <trkpt lat="45.656950" lon="5.894351">
        <ele>285.268952</ele>
        <time>2017-06-03T05:56:06.000Z</time>
      </trkpt>
      <trkpt lat="45.656860" lon="5.894402">
        <ele>285.066235</ele>
        <time>2017-06-03T05:56:08.000Z</time>
      </trkpt>
      <trkpt lat="45.656765" lon="5.894446">
        <ele>284.857128</ele>
        <time>2017-06-03T05:56:10.000Z</time>
      </trkpt>
      <trkpt lat="45.656660" lon="5.894487">
        <ele>284.629202</ele>
        <time>2017-06-03T05:56:12.000Z</time>
      </trkpt>
      <trkpt lat="45.656548" lon="5.894498">
        <ele>284.394108</ele>
        <time>2017-06-03T05:56:14.000Z</time>
      </trkpt>
      <trkpt lat="45.656433" lon="5.894468">
        <ele>284.149312</ele>
        <time>2017-06-03T05:56:16.000Z</time>
      </trkpt>
      <trkpt lat="45.656320" lon="5.894458">
        <ele>283.912223</ele>
        <time>2017-06-03T05:56:18.000Z</time>
      </trkpt>
      <trkpt lat="45.656200" lon="5.894445">
        <ele>283.660208</ele>
        <time>2017-06-03T05:56:20.000Z</time>
      </trkpt>
      <trkpt lat="45.656080" lon="5.894428">
        <ele>283.407684</ele>
        <time>2017-06-03T05:56:22.000Z</time>
      </trkpt>
      <trkpt lat="45.655964" lon="5.894392">
        <ele>283.159115</ele>
        <time>2017-06-03T05:56:24.000Z</time>
      </trkpt>
      <trkpt lat="45.655857" lon="5.894349">
        <ele>282.926372</ele>
        <time>2017-06-03T05:56:26.000Z</time>
      </trkpt>
      <trkpt lat="45.655766" lon="5.894285">
        <ele>282.714025</ele>
        <time>2017-06-03T05:56:28.000Z</time>
      </trkpt>
      <trkpt lat="45.655663" lon="5.894212">
        <ele>282.473314</ele>
        <time>2017-06-03T05:56:30.000Z</time>
      </trkpt>
      <trkpt lat="45.655575" lon="5.894124">
        <ele>282.248477</ele>
        <time>2017-06-03T05:56:32.000Z</time>
      </trkpt>
      <trkpt lat="45.655495" lon="5.894025">
        <ele>282.026970</ele>
        <time>2017-06-03T05:56:34.000Z</time>
      </trkpt>
      <trkpt lat="45.655422" lon="5.893929">
        <ele>281.982420</ele>
        <time>2017-06-03T05:56:36.000Z</time>
      </trkpt>
      <trkpt lat="45.655350" lon="5.893830">
        <ele>282.095656</ele>
        <time>2017-06-03T05:56:38.000Z</time>
      </trkpt>
      <trkpt lat="45.655280" lon="5.893735">
        <ele>282.205062</ele>
        <time>2017-06-03T05:56:40.000Z</time>
      </trkpt>
      <trkpt lat="45.655205" lon="5.893652">
        <ele>282.312580</ele>
        <time>2017-06-03T05:56:42.000Z</time>
      </trkpt>
      <trkpt lat="45.655117" lon="5.893566">
        <ele>282.433423</ele>
        <time>2017-06-03T05:56:44.000Z</time>
      </trkpt>
      <trkpt lat="45.655018" lon="5.893507">
        <ele>282.555032</ele>
        <time>2017-06-03T05:56:46.000Z</time>
      </trkpt>
      <trkpt lat="45.654922" lon="5.893462">
        <ele>282.669582</ele>
        <time>2017-06-03T05:56:48.000Z</time>
      </trkpt>
      <trkpt lat="45.654823" lon="5.893422">
        <ele>282.786232</ele>
        <time>2017-06-03T05:56:50.000Z</time>
      </trkpt>
      <trkpt lat="45.654728" lon="5.893387">
        <ele>282.897469</ele>
        <time>2017-06-03T05:56:52.000Z</time>
      </trkpt>
      <trkpt lat="45.654633" lon="5.893351">
        <ele>283.008906</ele>
        <time>2017-06-03T05:56:54.000Z</time>
      </trkpt>
      <trkpt lat="45.654537" lon="5.893314">
        <ele>283.121644</ele>
        <time>2017-06-03T05:56:56.000Z</time>
      </trkpt>
      <trkpt lat="45.654450" lon="5.893261">
        <ele>283.228866</ele>
        <time>2017-06-03T05:56:58.000Z</time>
      </trkpt>
      <trkpt lat="45.654358" lon="5.893186">
        <ele>283.348935</ele>
        <time>2017-06-03T05:57:00.000Z</time>
      </trkpt>
      <trkpt lat="45.654270" lon="5.893112">
        <ele>283.464681</ele>
        <time>2017-06-03T05:57:02.000Z</time>
      </trkpt>
      <trkpt lat="45.654180" lon="5.893043">
        <ele>283.580464</ele>
        <time>2017-06-03T05:57:04.000Z</time>
      </trkpt>
      <trkpt lat="45.654087" lon="5.892971">
        <ele>283.700370</ele>
        <time>2017-06-03T05:57:06.000Z</time>
      </trkpt>
      <trkpt lat="45.653996" lon="5.892901">
        <ele>283.817527</ele>
        <time>2017-06-03T05:57:08.000Z</time>
      </trkpt>
      <trkpt lat="45.653900" lon="5.892848">
        <ele>283.934208</ele>
        <time>2017-06-03T05:57:10.000Z</time>
      </trkpt>
      <trkpt lat="45.653786" lon="5.892771">
        <ele>284.213022</ele>
        <time>2017-06-03T05:57:13.000Z</time>
      </trkpt>
      <trkpt lat="45.653710" lon="5.892701">
        <ele>284.439290</ele>
        <time>2017-06-03T05:57:16.000Z</time>
      </trkpt>
      <trkpt lat="45.653614" lon="5.892657">
        <ele>284.691636</ele>
        <time>2017-06-03T05:57:20.000Z</time>
      </trkpt>
      <trkpt lat="45.653534" lon="5.892742">
        <ele>284.941087</ele>
        <time>2017-06-03T05:57:24.000Z</time>
      </trkpt>
      <trkpt lat="45.653496" lon="5.892868">
        <ele>285.181205</ele>
        <time>2017-06-03T05:57:27.000Z</time>
      </trkpt>
      <trkpt lat="45.653465" lon="5.893022">
        <ele>285.461622</ele>
        <time>2017-06-03T05:57:31.000Z</time>
      </trkpt>
      <trkpt lat="45.653404" lon="5.893119">
        <ele>285.689931</ele>
        <time>2017-06-03T05:57:34.000Z</time>
      </trkpt>
      <trkpt lat="45.653282" lon="5.893124">
        <ele>285.995456</ele>
        <time>2017-06-03T05:57:38.000Z</time>
      </trkpt>
      <trkpt lat="45.653183" lon="5.893062">
        <ele>286.265985</ele>
        <time>2017-06-03T05:57:42.000Z</time>
      </trkpt>
      <trkpt lat="45.653090" lon="5.892989">
        <ele>286.531530</ele>
        <time>2017-06-03T05:57:45.000Z</time>
      </trkpt>
      <trkpt lat="45.652996" lon="5.892923">
        <ele>286.793650</ele>
        <time>2017-06-03T05:57:48.000Z</time>
      </trkpt>
      <trkpt lat="45.652900" lon="5.892899">
        <ele>287.037606</ele>
        <time>2017-06-03T05:57:51.000Z</time>
      </trkpt>
      <trkpt lat="45.652790" lon="5.892891">
        <ele>287.313322</ele>
        <time>2017-06-03T05:57:54.000Z</time>
      </trkpt>
      <trkpt lat="45.652687" lon="5.892847">
        <ele>287.582409</ele>
        <time>2017-06-03T05:57:57.000Z</time>
      </trkpt>
      <trkpt lat="45.652622" lon="5.892727">
        <ele>287.848051</ele>
        <time>2017-06-03T05:58:00.000Z</time>
      </trkpt>
      <trkpt lat="45.652550" lon="5.892572">
        <ele>288.173697</ele>
        <time>2017-06-03T05:58:03.000Z</time>
      </trkpt>
      <trkpt lat="45.652500" lon="5.892449">
        <ele>288.422671</ele>
        <time>2017-06-03T05:58:05.000Z</time>
      </trkpt>
      <trkpt lat="45.652440" lon="5.892327">
        <ele>288.614092</ele>
        <time>2017-06-03T05:58:07.000Z</time>
      </trkpt>
      <trkpt lat="45.652393" lon="5.892198">
        <ele>288.786824</ele>
        <time>2017-06-03T05:58:09.000Z</time>
      </trkpt>
      <trkpt lat="45.652320" lon="5.892037">
        <ele>289.014691</ele>
        <time>2017-06-03T05:58:12.000Z</time>
      </trkpt>
      <trkpt lat="45.652237" lon="5.891954">
        <ele>289.186712</ele>
        <time>2017-06-03T05:58:14.000Z</time>
      </trkpt>
      <trkpt lat="45.652130" lon="5.891890">
        <ele>289.383719</ele>
        <time>2017-06-03T05:58:17.000Z</time>
      </trkpt>
      <trkpt lat="45.652050" lon="5.891953">
        <ele>289.538843</ele>
        <time>2017-06-03T05:58:20.000Z</time>
      </trkpt>
      <trkpt lat="45.651960" lon="5.892082">
        <ele>289.755258</ele>
        <time>2017-06-03T05:58:23.000Z</time>
      </trkpt>
      <trkpt lat="45.651863" lon="5.892197">
        <ele>289.969259</ele>
        <time>2017-06-03T05:58:26.000Z</time>
      </trkpt>
      <trkpt lat="45.651770" lon="5.892322">
        <ele>290.186024</ele>
        <time>2017-06-03T05:58:29.000Z</time>
      </trkpt>
      <trkpt lat="45.651680" lon="5.892438">
        <ele>290.391803</ele>
        <time>2017-06-03T05:58:32.000Z</time>
      </trkpt>
      <trkpt lat="45.651590" lon="5.892557">
        <ele>290.599984</ele>
        <time>2017-06-03T05:58:35.000Z</time>
      </trkpt>
      <trkpt lat="45.651500" lon="5.892662">
        <ele>290.797259</ele>
        <time>2017-06-03T05:58:38.000Z</time>
      </trkpt>
      <trkpt lat="45.651420" lon="5.892769">
        <ele>290.983297</ele>
        <time>2017-06-03T05:58:41.000Z</time>
      </trkpt>
      <trkpt lat="45.651352" lon="5.892857">
        <ele>291.139058</ele>
        <time>2017-06-03T05:58:44.000Z</time>
      </trkpt>
      <trkpt lat="45.651250" lon="5.892855">
        <ele>291.312340</ele>
        <time>2017-06-03T05:58:47.000Z</time>
      </trkpt>
      <trkpt lat="45.651154" lon="5.892807">
        <ele>291.485087</ele>
        <time>2017-06-03T05:58:50.000Z</time>
      </trkpt>
      <trkpt lat="45.651104" lon="5.892696">
        <ele>291.433560</ele>
        <time>2017-06-03T05:58:53.000Z</time>
      </trkpt>
      <trkpt lat="45.651115" lon="5.892555">
        <ele>291.308109</ele>
        <time>2017-06-03T05:58:55.000Z</time>
      </trkpt>
      <trkpt lat="45.651104" lon="5.892409">
        <ele>291.178264</ele>
        <time>2017-06-03T05:58:57.000Z</time>
      </trkpt>
      <trkpt lat="45.651062" lon="5.892287">
        <ele>291.058015</ele>
        <time>2017-06-03T05:58:59.000Z</time>
      </trkpt>
      <trkpt lat="45.650993" lon="5.892158">
        <ele>290.914387</ele>
        <time>2017-06-03T05:59:02.000Z</time>
      </trkpt>
      <trkpt lat="45.650910" lon="5.892077">
        <ele>290.787293</ele>
        <time>2017-06-03T05:59:05.000Z</time>
      </trkpt>
      <trkpt lat="45.650790" lon="5.892085">
        <ele>290.635335</ele>
        <time>2017-06-03T05:59:09.000Z</time>
      </trkpt>
      <trkpt lat="45.650703" lon="5.892155">
        <ele>290.509073</ele>
        <time>2017-06-03T05:59:12.000Z</time>
      </trkpt>
      <trkpt lat="45.650616" lon="5.892222">
        <ele>290.384089</ele>
        <time>2017-06-03T05:59:16.000Z</time>
      </trkpt>
      <trkpt lat="45.650524" lon="5.892264">
        <ele>290.261932</ele>
        <time>2017-06-03T05:59:20.000Z</time>
      </trkpt>
      <trkpt lat="45.650410" lon="5.892281">
        <ele>290.116947</ele>
        <time>2017-06-03T05:59:24.000Z</time>
      </trkpt>
      <trkpt lat="45.650303" lon="5.892262">
        <ele>289.980559</ele>
        <time>2017-06-03T05:59:28.000Z</time>
      </trkpt>
      <trkpt lat="45.650190" lon="5.892209">
        <ele>289.830133</ele>
        <time>2017-06-03T05:59:32.000Z</time>
      </trkpt>
      <trkpt lat="45.650090" lon="5.892157">
        <ele>289.695541</ele>
        <time>2017-06-03T05:59:35.000Z</time>
      </trkpt>
      <trkpt lat="45.649990" lon="5.892112">
        <ele>289.562936</ele>
        <time>2017-06-03T05:59:38.000Z</time>
      </trkpt>
      <trkpt lat="45.649887" lon="5.892081">
        <ele>289.429794</ele>
        <time>2017-06-03T05:59:41.000Z</time>
      </trkpt>
      <trkpt lat="45.649776" lon="5.892059">
        <ele>289.288044</ele>
        <time>2017-06-03T05:59:44.000Z</time>
      </trkpt>
      <trkpt lat="45.649654" lon="5.892087">
        <ele>289.160284</ele>
        <time>2017-06-03T05:59:47.000Z</time>
      </trkpt>
      <trkpt lat="45.649548" lon="5.892139">
        <ele>289.053544</ele>
        <time>2017-06-03T05:59:50.000Z</time>
      </trkpt>
      <trkpt lat="45.649430" lon="5.892203">
        <ele>288.933337</ele>
        <time>2017-06-03T05:59:53.000Z</time>
      </trkpt>
      <trkpt lat="45.649310" lon="5.892263">
        <ele>288.812252</ele>
        <time>2017-06-03T05:59:56.000Z</time>
      </trkpt>
      <trkpt lat="45.649197" lon="5.892312">
        <ele>288.699780</ele>
        <time>2017-06-03T05:59:59.000Z</time>
      </trkpt>
      <trkpt lat="45.649063" lon="5.892331">
        <ele>288.571515</ele>
        <time>2017-06-03T06:00:02.000Z</time>
      </trkpt>
      <trkpt lat="45.648950" lon="5.892327">
        <ele>288.463846</ele>
        <time>2017-06-03T06:00:04.000Z</time>
      </trkpt>
      <trkpt lat="45.648827" lon="5.892318">
        <ele>288.346531</ele>
        <time>2017-06-03T06:00:06.000Z</time>
      </trkpt>
      <trkpt lat="45.648710" lon="5.892305">
        <ele>288.234749</ele>
        <time>2017-06-03T06:00:08.000Z</time>
      </trkpt>
      <trkpt lat="45.648590" lon="5.892281">
        <ele>288.119333</ele>
        <time>2017-06-03T06:00:10.000Z</time>
      </trkpt>
      <trkpt lat="45.648480" lon="5.892259">
        <ele>288.013536</ele>
        <time>2017-06-03T06:00:12.000Z</time>
      </trkpt>
      <trkpt lat="45.648388" lon="5.892166">
        <ele>287.906230</ele>
        <time>2017-06-03T06:00:14.000Z</time>
      </trkpt>
      <trkpt lat="45.648327" lon="5.892033">
        <ele>287.800309</ele>
        <time>2017-06-03T06:00:16.000Z</time>
      </trkpt>
      <trkpt lat="45.648296" lon="5.891880">
        <ele>287.694237</ele>
        <time>2017-06-03T06:00:18.000Z</time>
      </trkpt>
      <trkpt lat="45.648310" lon="5.891737">
        <ele>287.598087</ele>
        <time>2017-06-03T06:00:20.000Z</time>
      </trkpt>
      <trkpt lat="45.648304" lon="5.891561">
        <ele>287.390901</ele>
        <time>2017-06-03T06:00:23.000Z</time>
      </trkpt>
      <trkpt lat="45.648260" lon="5.891407">
        <ele>287.093280</ele>
        <time>2017-06-03T06:00:26.000Z</time>
      </trkpt>
      <trkpt lat="45.648224" lon="5.891226">
        <ele>286.756628</ele>
        <time>2017-06-03T06:00:29.000Z</time>
      </trkpt>
      <trkpt lat="45.648220" lon="5.891093">
        <ele>286.518476</ele>
        <time>2017-06-03T06:00:31.000Z</time>
      </trkpt>
      <trkpt lat="45.648224" lon="5.890957">
        <ele>286.274962</ele>
        <time>2017-06-03T06:00:33.000Z</time>
      </trkpt>
      <trkpt lat="45.648224" lon="5.890781">
        <ele>285.960106</ele>
        <time>2017-06-03T06:00:36.000Z</time>
      </trkpt>
      <trkpt lat="45.648220" lon="5.890596">
        <ele>285.628990</ele>
        <time>2017-06-03T06:00:39.000Z</time>
      </trkpt>
      <trkpt lat="45.648212" lon="5.890468">
        <ele>285.399090</ele>
        <time>2017-06-03T06:00:41.000Z</time>
      </trkpt>
      <trkpt lat="45.648212" lon="5.890332">
        <ele>285.155792</ele>
        <time>2017-06-03T06:00:43.000Z</time>
      </trkpt>
      <trkpt lat="45.648216" lon="5.890148">
        <ele>284.826464</ele>
        <time>2017-06-03T06:00:46.000Z</time>
      </trkpt>
      <trkpt lat="45.648224" lon="5.890008">
        <ele>284.575174</ele>
        <time>2017-06-03T06:00:48.000Z</time>
      </trkpt>
      <trkpt lat="45.648224" lon="5.889862">
        <ele>284.313986</ele>
        <time>2017-06-03T06:00:50.000Z</time>
      </trkpt>
      <trkpt lat="45.648224" lon="5.889678">
        <ele>283.984818</ele>
        <time>2017-06-03T06:00:53.000Z</time>
      </trkpt>
      <trkpt lat="45.648224" lon="5.889543">
        <ele>283.743309</ele>
        <time>2017-06-03T06:00:55.000Z</time>
      </trkpt>
      <trkpt lat="45.648228" lon="5.889409">
        <ele>283.503370</ele>
        <time>2017-06-03T06:00:57.000Z</time>
      </trkpt>
      <trkpt lat="45.648230" lon="5.889268">
        <ele>283.251075</ele>
        <time>2017-06-03T06:00:59.000Z</time>
      </trkpt>
      <trkpt lat="45.648224" lon="5.889132">
        <ele>283.007292</ele>
        <time>2017-06-03T06:01:01.000Z</time>
      </trkpt>
      <trkpt lat="45.648224" lon="5.888998">
        <ele>282.894084</ele>
        <time>2017-06-03T06:01:03.000Z</time>
      </trkpt>
      <trkpt lat="45.648224" lon="5.888852">
        <ele>282.834906</ele>
        <time>2017-06-03T06:01:05.000Z</time>
      </trkpt>
      <trkpt lat="45.648228" lon="5.888705">
        <ele>282.775278</ele>
        <time>2017-06-03T06:01:07.000Z</time>
      </trkpt>
      <trkpt lat="45.648230" lon="5.888570">
        <ele>282.720547</ele>
        <time>2017-06-03T06:01:09.000Z</time>
      </trkpt>
      <trkpt lat="45.648235" lon="5.888441">
        <ele>282.668179</ele>
        <time>2017-06-03T06:01:11.000Z</time>
      </trkpt>
      <trkpt lat="45.648230" lon="5.888249">
        <ele>282.590303</ele>
        <time>2017-06-03T06:01:14.000Z</time>
      </trkpt>
      <trkpt lat="45.648235" lon="5.888112">
        <ele>282.534697</ele>
        <time>2017-06-03T06:01:16.000Z</time>
      </trkpt>
      <trkpt lat="45.648235" lon="5.887976">
        <ele>282.479573</ele>
        <time>2017-06-03T06:01:18.000Z</time>
      </trkpt>
      <trkpt lat="45.648235" lon="5.887837">
        <ele>282.423233</ele>
        <time>2017-06-03T06:01:20.000Z</time>
      </trkpt>
      <trkpt lat="45.648235" lon="5.887697">
        <ele>282.366487</ele>
        <time>2017-06-03T06:01:22.000Z</time>
      </trkpt>
      <trkpt lat="45.648240" lon="5.887559">
        <ele>282.310477</ele>
        <time>2017-06-03T06:01:24.000Z</time>
      </trkpt>
      <trkpt lat="45.648240" lon="5.887427">
        <ele>282.256974</ele>
        <time>2017-06-03T06:01:26.000Z</time>
      </trkpt>
      <trkpt lat="45.648240" lon="5.887296">
        <ele>282.203876</ele>
        <time>2017-06-03T06:01:28.000Z</time>
      </trkpt>
      <trkpt lat="45.648247" lon="5.887159">
        <ele>282.148198</ele>
        <time>2017-06-03T06:01:30.000Z</time>
      </trkpt>
      <trkpt lat="45.648262" lon="5.887025">
        <ele>282.093193</ele>
        <time>2017-06-03T06:01:32.000Z</time>
      </trkpt>
      <trkpt lat="45.648240" lon="5.886880">
        <ele>282.033052</ele>
        <time>2017-06-03T06:01:35.000Z</time>
      </trkpt>
      <trkpt lat="45.648230" lon="5.886726">
        <ele>281.970363</ele>
        <time>2017-06-03T06:01:39.000Z</time>
      </trkpt>
      <trkpt lat="45.648243" lon="5.886556">
        <ele>281.901047</ele>
        <time>2017-06-03T06:01:43.000Z</time>
      </trkpt>
      <trkpt lat="45.648235" lon="5.886425">
        <ele>281.933577</ele>
        <time>2017-06-03T06:01:46.000Z</time>
      </trkpt>
      <trkpt lat="45.648228" lon="5.886582">
        <ele>282.004887</ele>
        <time>2017-06-03T06:02:07.000Z</time>
      </trkpt>
      <trkpt lat="45.648228" lon="5.886726">
        <ele>282.070159</ele>
        <time>2017-06-03T06:02:10.000Z</time>
      </trkpt>
      <trkpt lat="45.648224" lon="5.886884">
        <ele>282.141825</ele>
        <time>2017-06-03T06:02:13.000Z</time>
      </trkpt>
      <trkpt lat="45.648247" lon="5.887070">
        <ele>282.227444</ele>
        <time>2017-06-03T06:02:16.000Z</time>
      </trkpt>
      <trkpt lat="45.648243" lon="5.887216">
        <ele>282.293674</ele>
        <time>2017-06-03T06:02:17.000Z</time>
      </trkpt>
      <trkpt lat="45.648250" lon="5.887354">
        <ele>282.356391</ele>
        <time>2017-06-03T06:02:19.000Z</time>
      </trkpt>
      <trkpt lat="45.648250" lon="5.887486">
        <ele>282.416224</ele>
        <time>2017-06-03T06:02:22.000Z</time>
      </trkpt>
      <trkpt lat="45.648254" lon="5.887614">
        <ele>282.474302</ele>
        <time>2017-06-03T06:02:24.000Z</time>
      </trkpt>
      <trkpt lat="45.648254" lon="5.887784">
        <ele>282.551360</ele>
        <time>2017-06-03T06:02:27.000Z</time>
      </trkpt>
      <trkpt lat="45.648243" lon="5.887976">
        <ele>282.638682</ele>
        <time>2017-06-03T06:02:29.000Z</time>
      </trkpt>
      <trkpt lat="45.648235" lon="5.888113">
        <ele>282.700997</ele>
        <time>2017-06-03T06:02:32.000Z</time>
      </trkpt>
      <trkpt lat="45.648235" lon="5.888253">
        <ele>282.764457</ele>
        <time>2017-06-03T06:02:34.000Z</time>
      </trkpt>
      <trkpt lat="45.648230" lon="5.888404">
        <ele>282.832979</ele>
        <time>2017-06-03T06:02:36.000Z</time>
      </trkpt>
      <trkpt lat="45.648228" lon="5.888560">
        <ele>282.903703</ele>
        <time>2017-06-03T06:02:38.000Z</time>
      </trkpt>
      <trkpt lat="45.648224" lon="5.888702">
        <ele>282.968121</ele>
        <time>2017-06-03T06:02:40.000Z</time>
      </trkpt>
      <trkpt lat="45.648216" lon="5.888856">
        <ele>283.038119</ele>
        <time>2017-06-03T06:02:42.000Z</time>
      </trkpt>
      <trkpt lat="45.648220" lon="5.889006">
        <ele>283.067545</ele>
        <time>2017-06-03T06:02:44.000Z</time>
      </trkpt>
      <trkpt lat="45.648224" lon="5.889146">
        <ele>283.083554</ele>
        <time>2017-06-03T06:02:46.000Z</time>
      </trkpt>
      <trkpt lat="45.648220" lon="5.889278">
        <ele>283.098650</ele>
        <time>2017-06-03T06:02:47.000Z</time>
      </trkpt>
      <trkpt lat="45.648216" lon="5.889464">
        <ele>283.119912</ele>
        <time>2017-06-03T06:02:51.000Z</time>
      </trkpt>
      <trkpt lat="45.648210" lon="5.889638">
        <ele>283.139816</ele>
        <time>2017-06-03T06:02:54.000Z</time>
      </trkpt>
      <trkpt lat="45.648200" lon="5.889809">
        <ele>283.159423</ele>
        <time>2017-06-03T06:02:57.000Z</time>
      </trkpt>
      <trkpt lat="45.648216" lon="5.889959">
        <ele>283.176759</ele>
        <time>2017-06-03T06:02:59.000Z</time>
      </trkpt>
      <trkpt lat="45.648212" lon="5.890115">
        <ele>283.194595</ele>
        <time>2017-06-03T06:03:03.000Z</time>
      </trkpt>
      <trkpt lat="45.648212" lon="5.890273">
        <ele>283.212648</ele>
        <time>2017-06-03T06:03:06.000Z</time>
      </trkpt>
      <trkpt lat="45.648212" lon="5.890441">
        <ele>283.231843</ele>
        <time>2017-06-03T06:03:09.000Z</time>
      </trkpt>
      <trkpt lat="45.648212" lon="5.890571">
        <ele>283.246696</ele>
        <time>2017-06-03T06:03:11.000Z</time>
      </trkpt>
      <trkpt lat="45.648216" lon="5.890759">
        <ele>283.268187</ele>
        <time>2017-06-03T06:03:14.000Z</time>
      </trkpt>
      <trkpt lat="45.648220" lon="5.890950">
        <ele>283.290019</ele>
        <time>2017-06-03T06:03:17.000Z</time>
      </trkpt>
      <trkpt lat="45.648224" lon="5.891079">
        <ele>283.304773</ele>
        <time>2017-06-03T06:03:19.000Z</time>
      </trkpt>
      <trkpt lat="45.648220" lon="5.891273">
        <ele>283.326948</ele>
        <time>2017-06-03T06:03:22.000Z</time>
      </trkpt>
      <trkpt lat="45.648243" lon="5.891434">
        <ele>283.345724</ele>
        <time>2017-06-03T06:03:25.000Z</time>
      </trkpt>
      <trkpt lat="45.648273" lon="5.891593">
        <ele>283.497334</ele>
        <time>2017-06-03T06:03:28.000Z</time>
      </trkpt>
      <trkpt lat="45.648254" lon="5.891737">
        <ele>283.652735</ele>
        <time>2017-06-03T06:03:31.000Z</time>
      </trkpt>
      <trkpt lat="45.648174" lon="5.891819">
        <ele>283.802031</ele>
        <time>2017-06-03T06:03:34.000Z</time>
      </trkpt>
      <trkpt lat="45.648067" lon="5.891810">
        <ele>283.964626</ele>
        <time>2017-06-03T06:03:38.000Z</time>
      </trkpt>
      <trkpt lat="45.647976" lon="5.891843">
        <ele>284.107037</ele>
        <time>2017-06-03T06:03:44.000Z</time>
      </trkpt>
      <trkpt lat="45.647926" lon="5.891957">
        <ele>284.249753</ele>
        <time>2017-06-03T06:03:47.000Z</time>
      </trkpt>
      <trkpt lat="45.647877" lon="5.892122">
        <ele>284.439863</ele>
        <time>2017-06-03T06:03:50.000Z</time>
      </trkpt>
      <trkpt lat="45.647827" lon="5.892296">
        <ele>284.639364</ele>
        <time>2017-06-03T06:03:53.000Z</time>
      </trkpt>
      <trkpt lat="45.647810" lon="5.892429">
        <ele>284.782743</ele>
        <time>2017-06-03T06:03:55.000Z</time>
      </trkpt>
      <trkpt lat="45.647800" lon="5.892570">
        <ele>284.933036</ele>
        <time>2017-06-03T06:03:57.000Z</time>
      </trkpt>
      <trkpt lat="45.647755" lon="5.892681">
        <ele>285.069109</ele>
        <time>2017-06-03T06:03:59.000Z</time>
      </trkpt>
      <trkpt lat="45.647640" lon="5.892774">
        <ele>285.269508</ele>
        <time>2017-06-03T06:04:02.000Z</time>
      </trkpt>
      <trkpt lat="45.647545" lon="5.892817">
        <ele>285.420662</ele>
        <time>2017-06-03T06:04:04.000Z</time>
      </trkpt>
      <trkpt lat="45.647440" lon="5.892838">
        <ele>285.581492</ele>
        <time>2017-06-03T06:04:06.000Z</time>
      </trkpt>
      <trkpt lat="45.647346" lon="5.892836">
        <ele>285.724103</ele>
        <time>2017-06-03T06:04:08.000Z</time>
      </trkpt>
      <trkpt lat="45.647240" lon="5.892828">
        <ele>285.885125</ele>
        <time>2017-06-03T06:04:09.000Z</time>
      </trkpt>
      <trkpt lat="45.647125" lon="5.892825">
        <ele>286.059605</ele>
        <time>2017-06-03T06:04:11.000Z</time>
      </trkpt>
      <trkpt lat="45.647020" lon="5.892825">
        <ele>286.110813</ele>
        <time>2017-06-03T06:04:13.000Z</time>
      </trkpt>
      <trkpt lat="45.646923" lon="5.892819">
        <ele>286.145923</ele>
        <time>2017-06-03T06:04:15.000Z</time>
      </trkpt>
      <trkpt lat="45.646824" lon="5.892814">
        <ele>286.181745</ele>
        <time>2017-06-03T06:04:17.000Z</time>
      </trkpt>
      <trkpt lat="45.646725" lon="5.892804">
        <ele>286.217634</ele>
        <time>2017-06-03T06:04:20.000Z</time>
      </trkpt>
      <trkpt lat="45.646626" lon="5.892805">
        <ele>286.253435</ele>
        <time>2017-06-03T06:04:22.000Z</time>
      </trkpt>
      <trkpt lat="45.646534" lon="5.892799">
        <ele>286.286738</ele>
        <time>2017-06-03T06:04:24.000Z</time>
      </trkpt>
      <trkpt lat="45.646435" lon="5.892794">
        <ele>286.322560</ele>
        <time>2017-06-03T06:04:26.000Z</time>
      </trkpt>
      <trkpt lat="45.646340" lon="5.892799">
        <ele>286.356937</ele>
        <time>2017-06-03T06:04:28.000Z</time>
      </trkpt>
      <trkpt lat="45.646233" lon="5.892805">
        <ele>286.395659</ele>
        <time>2017-06-03T06:04:29.000Z</time>
      </trkpt>
      <trkpt lat="45.646130" lon="5.892787">
        <ele>286.433183</ele>
        <time>2017-06-03T06:04:32.000Z</time>
      </trkpt>
      <trkpt lat="45.646027" lon="5.892781">
        <ele>286.470460</ele>
        <time>2017-06-03T06:04:33.000Z</time>
      </trkpt>
      <trkpt lat="45.645916" lon="5.892785">
        <ele>286.510612</ele>
        <time>2017-06-03T06:04:35.000Z</time>
      </trkpt>
      <trkpt lat="45.645800" lon="5.892777">
        <ele>286.552608</ele>
        <time>2017-06-03T06:04:37.000Z</time>
      </trkpt>
      <trkpt lat="45.645700" lon="5.892780">
        <ele>286.588777</ele>
        <time>2017-06-03T06:04:39.000Z</time>
      </trkpt>
      <trkpt lat="45.645580" lon="5.892769">
        <ele>286.632260</ele>
        <time>2017-06-03T06:04:41.000Z</time>
      </trkpt>
      <trkpt lat="45.645460" lon="5.892756">
        <ele>286.675778</ele>
        <time>2017-06-03T06:04:43.000Z</time>
      </trkpt>
      <trkpt lat="45.645340" lon="5.892750">
        <ele>286.719199</ele>
        <time>2017-06-03T06:04:46.000Z</time>
      </trkpt>
      <trkpt lat="45.645233" lon="5.892749">
        <ele>286.752144</ele>
        <time>2017-06-03T06:04:47.000Z</time>
      </trkpt>
      <trkpt lat="45.645130" lon="5.892748">
        <ele>286.782368</ele>
        <time>2017-06-03T06:04:49.000Z</time>
      </trkpt>
      <trkpt lat="45.645023" lon="5.892735">
        <ele>286.813879</ele>
        <time>2017-06-03T06:04:52.000Z</time>
      </trkpt>
      <trkpt lat="45.644913" lon="5.892716">
        <ele>286.846391</ele>
        <time>2017-06-03T06:04:53.000Z</time>
      </trkpt>
      <trkpt lat="45.644814" lon="5.892712">
        <ele>286.875452</ele>
        <time>2017-06-03T06:04:56.000Z</time>
      </trkpt>
      <trkpt lat="45.644707" lon="5.892705">
        <ele>286.906883</ele>
        <time>2017-06-03T06:04:57.000Z</time>
      </trkpt>
      <trkpt lat="45.644596" lon="5.892706">
        <ele>286.939454</ele>
        <time>2017-06-03T06:04:59.000Z</time>
      </trkpt>
      <trkpt lat="45.644485" lon="5.892698">
        <ele>286.972067</ele>
        <time>2017-06-03T06:05:01.000Z</time>
      </trkpt>
      <trkpt lat="45.644380" lon="5.892689">
        <ele>287.002933</ele>
        <time>2017-06-03T06:05:03.000Z</time>
      </trkpt>
      <trkpt lat="45.644270" lon="5.892680">
        <ele>287.035263</ele>
        <time>2017-06-03T06:05:05.000Z</time>
      </trkpt>
      <trkpt lat="45.644157" lon="5.892672">
        <ele>287.068462</ele>
        <time>2017-06-03T06:05:07.000Z</time>
      </trkpt>
      <trkpt lat="45.644060" lon="5.892657">
        <ele>287.097091</ele>
        <time>2017-06-03T06:05:09.000Z</time>
      </trkpt>
      <trkpt lat="45.643955" lon="5.892650">
        <ele>287.127935</ele>
        <time>2017-06-03T06:05:11.000Z</time>
      </trkpt>
      <trkpt lat="45.643856" lon="5.892642">
        <ele>287.157031</ele>
        <time>2017-06-03T06:05:13.000Z</time>
      </trkpt>
      <trkpt lat="45.643734" lon="5.892629">
        <ele>287.192929</ele>
        <time>2017-06-03T06:05:15.000Z</time>
      </trkpt>
      <trkpt lat="45.643610" lon="5.892628">
        <ele>287.229315</ele>
        <time>2017-06-03T06:05:17.000Z</time>
      </trkpt>
      <trkpt lat="45.643494" lon="5.892615">
        <ele>287.253966</ele>
        <time>2017-06-03T06:05:19.000Z</time>
      </trkpt>
      <trkpt lat="45.643383" lon="5.892602">
        <ele>287.249143</ele>
        <time>2017-06-03T06:05:21.000Z</time>
      </trkpt>
      <trkpt lat="45.643276" lon="5.892606">
        <ele>287.244508</ele>
        <time>2017-06-03T06:05:23.000Z</time>
      </trkpt>
      <trkpt lat="45.643158" lon="5.892598">
        <ele>287.239393</ele>
        <time>2017-06-03T06:05:25.000Z</time>
      </trkpt>
      <trkpt lat="45.643050" lon="5.892586">
        <ele>287.234703</ele>
        <time>2017-06-03T06:05:27.000Z</time>
      </trkpt>
      <trkpt lat="45.642933" lon="5.892583">
        <ele>287.229635</ele>
        <time>2017-06-03T06:05:29.000Z</time>
      </trkpt>
      <trkpt lat="45.642834" lon="5.892566">
        <ele>287.225318</ele>
        <time>2017-06-03T06:05:31.000Z</time>
      </trkpt>
      <trkpt lat="45.642704" lon="5.892563">
        <ele>287.219688</ele>
        <time>2017-06-03T06:05:33.000Z</time>
      </trkpt>
      <trkpt lat="45.642570" lon="5.892555">
        <ele>287.213880</ele>
        <time>2017-06-03T06:05:35.000Z</time>
      </trkpt>
      <trkpt lat="45.642452" lon="5.892538">
        <ele>287.208745</ele>
        <time>2017-06-03T06:05:37.000Z</time>
      </trkpt>
      <trkpt lat="45.642330" lon="5.892530">
        <ele>287.203457</ele>
        <time>2017-06-03T06:05:39.000Z</time>
      </trkpt>
      <trkpt lat="45.642223" lon="5.892521">
        <ele>287.198816</ele>
        <time>2017-06-03T06:05:41.000Z</time>
      </trkpt>
      <trkpt lat="45.642105" lon="5.892512">
        <ele>287.193699</ele>
        <time>2017-06-03T06:05:43.000Z</time>
      </trkpt>
      <trkpt lat="45.641990" lon="5.892515">
        <ele>287.188718</ele>
        <time>2017-06-03T06:05:45.000Z</time>
      </trkpt>
      <trkpt lat="45.641880" lon="5.892510">
        <ele>287.183953</ele>
        <time>2017-06-03T06:05:47.000Z</time>
      </trkpt>
      <trkpt lat="45.641760" lon="5.892498">
        <ele>287.178744</ele>
        <time>2017-06-03T06:05:49.000Z</time>
      </trkpt>
      <trkpt lat="45.641647" lon="5.892482">
        <ele>287.251101</ele>
        <time>2017-06-03T06:05:51.000Z</time>
      </trkpt>
      <trkpt lat="45.641540" lon="5.892472">
        <ele>287.349680</ele>
        <time>2017-06-03T06:05:53.000Z</time>
      </trkpt>
      <trkpt lat="45.641430" lon="5.892470">
        <ele>287.450816</ele>
        <time>2017-06-03T06:05:55.000Z</time>
      </trkpt>
      <trkpt lat="45.641315" lon="5.892468">
        <ele>287.556548</ele>
        <time>2017-06-03T06:05:57.000Z</time>
      </trkpt>
      <trkpt lat="45.641200" lon="5.892463">
        <ele>287.662322</ele>
        <time>2017-06-03T06:05:59.000Z</time>
      </trkpt>
      <trkpt lat="45.641098" lon="5.892463">
        <ele>287.756095</ele>
        <time>2017-06-03T06:06:01.000Z</time>
      </trkpt>
      <trkpt lat="45.641000" lon="5.892458">
        <ele>287.846247</ele>
        <time>2017-06-03T06:06:03.000Z</time>
      </trkpt>
      <trkpt lat="45.640903" lon="5.892457">
        <ele>287.935426</ele>
        <time>2017-06-03T06:06:05.000Z</time>
      </trkpt>
      <trkpt lat="45.640800" lon="5.892451">
        <ele>288.030197</ele>
        <time>2017-06-03T06:06:07.000Z</time>
      </trkpt>
      <trkpt lat="45.640700" lon="5.892435">
        <ele>288.122704</ele>
        <time>2017-06-03T06:06:09.000Z</time>
      </trkpt>
      <trkpt lat="45.640587" lon="5.892430">
        <ele>288.226640</ele>
        <time>2017-06-03T06:06:11.000Z</time>
      </trkpt>
      <trkpt lat="45.640484" lon="5.892419">
        <ele>288.321596</ele>
        <time>2017-06-03T06:06:13.000Z</time>
      </trkpt>
      <trkpt lat="45.640377" lon="5.892409">
        <ele>288.420175</ele>
        <time>2017-06-03T06:06:15.000Z</time>
      </trkpt>
      <trkpt lat="45.640250" lon="5.892406">
        <ele>288.536948</ele>
        <time>2017-06-03T06:06:17.000Z</time>
      </trkpt>
      <trkpt lat="45.640118" lon="5.892397">
        <ele>288.658439</ele>
        <time>2017-06-03T06:06:19.000Z</time>
      </trkpt>
      <trkpt lat="45.640003" lon="5.892395">
        <ele>288.764171</ele>
        <time>2017-06-03T06:06:21.000Z</time>
      </trkpt>
      <trkpt lat="45.639880" lon="5.892391">
        <ele>288.753549</ele>
        <time>2017-06-03T06:06:23.000Z</time>
      </trkpt>
      <trkpt lat="45.639755" lon="5.892383">
        <ele>288.561882</ele>
        <time>2017-06-03T06:06:25.000Z</time>
      </trkpt>
      <trkpt lat="45.639645" lon="5.892379">
        <ele>288.393330</ele>
        <time>2017-06-03T06:06:27.000Z</time>
      </trkpt>
      <trkpt lat="45.639534" lon="5.892378">
        <ele>288.223297</ele>
        <time>2017-06-03T06:06:29.000Z</time>
      </trkpt>
      <trkpt lat="45.639420" lon="5.892347">
        <ele>288.045544</ele>
        <time>2017-06-03T06:06:31.000Z</time>
      </trkpt>
      <trkpt lat="45.639305" lon="5.892337">
        <ele>287.869062</ele>
        <time>2017-06-03T06:06:33.000Z</time>
      </trkpt>
      <trkpt lat="45.639200" lon="5.892330">
        <ele>287.708048</ele>
        <time>2017-06-03T06:06:35.000Z</time>
      </trkpt>
      <trkpt lat="45.639095" lon="5.892318">
        <ele>287.546696</ele>
        <time>2017-06-03T06:06:37.000Z</time>
      </trkpt>
      <trkpt lat="45.638992" lon="5.892311">
        <ele>287.388743</ele>
        <time>2017-06-03T06:06:39.000Z</time>
      </trkpt>
      <trkpt lat="45.638890" lon="5.892309">
        <ele>287.232485</ele>
        <time>2017-06-03T06:06:41.000Z</time>
      </trkpt>
      <trkpt lat="45.638786" lon="5.892302">
        <ele>287.073001</ele>
        <time>2017-06-03T06:06:43.000Z</time>
      </trkpt>
      <trkpt lat="45.638683" lon="5.892295">
        <ele>286.915048</ele>
        <time>2017-06-03T06:06:45.000Z</time>
      </trkpt>
      <trkpt lat="45.638584" lon="5.892287">
        <ele>286.763158</ele>
        <time>2017-06-03T06:06:47.000Z</time>
      </trkpt>
      <trkpt lat="45.638485" lon="5.892284">
        <ele>286.611476</ele>
        <time>2017-06-03T06:06:49.000Z</time>
      </trkpt>
      <trkpt lat="45.638386" lon="5.892278">
        <ele>286.459692</ele>
        <time>2017-06-03T06:06:51.000Z</time>
      </trkpt>
      <trkpt lat="45.638290" lon="5.892264">
        <ele>286.311877</ele>
        <time>2017-06-03T06:06:53.000Z</time>
      </trkpt>
      <trkpt lat="45.638187" lon="5.892238">
        <ele>286.151663</ele>
        <time>2017-06-03T06:06:55.000Z</time>
      </trkpt>
      <trkpt lat="45.638077" lon="5.892200">
        <ele>286.084050</ele>
        <time>2017-06-03T06:06:57.000Z</time>
      </trkpt>
      <trkpt lat="45.637985" lon="5.892152">
        <ele>286.096894</ele>
        <time>2017-06-03T06:06:59.000Z</time>
      </trkpt>
      <trkpt lat="45.637905" lon="5.892083">
        <ele>286.109146</ele>
        <time>2017-06-03T06:07:01.000Z</time>
      </trkpt>
      <trkpt lat="45.637810" lon="5.891950">
        <ele>286.126581</ele>
        <time>2017-06-03T06:07:04.000Z</time>
      </trkpt>
      <trkpt lat="45.637770" lon="5.891769">
        <ele>286.143989</ele>
        <time>2017-06-03T06:07:07.000Z</time>
      </trkpt>
      <trkpt lat="45.637783" lon="5.891594">
        <ele>286.160126</ele>
        <time>2017-06-03T06:07:10.000Z</time>
      </trkpt>
      <trkpt lat="45.637750" lon="5.891457">
        <ele>286.173414</ele>
        <time>2017-06-03T06:07:14.000Z</time>
      </trkpt>
      <trkpt lat="45.637646" lon="5.891443">
        <ele>286.187114</ele>
        <time>2017-06-03T06:07:17.000Z</time>
      </trkpt>
      <trkpt lat="45.637566" lon="5.891568">
        <ele>286.202653</ele>
        <time>2017-06-03T06:07:20.000Z</time>
      </trkpt>
      <trkpt lat="45.637520" lon="5.891690">
        <ele>286.215364</ele>
        <time>2017-06-03T06:07:23.000Z</time>
      </trkpt>
      <trkpt lat="45.637460" lon="5.891809">
        <ele>286.228818</ele>
        <time>2017-06-03T06:07:27.000Z</time>
      </trkpt>
      <trkpt lat="45.637320" lon="5.891963">
        <ele>286.251981</ele>
        <time>2017-06-03T06:07:57.000Z</time>
      </trkpt>
      <trkpt lat="45.637230" lon="5.892031">
        <ele>286.265331</ele>
        <time>2017-06-03T06:08:00.000Z</time>
      </trkpt>
      <trkpt lat="45.637127" lon="5.892091">
        <ele>286.279917</ele>
        <time>2017-06-03T06:08:03.000Z</time>
      </trkpt>
      <trkpt lat="45.637040" lon="5.892117">
        <ele>286.291574</ele>
        <time>2017-06-03T06:08:05.000Z</time>
      </trkpt>
      <trkpt lat="45.636917" lon="5.892129">
        <ele>286.307743</ele>
        <time>2017-06-03T06:08:08.000Z</time>
      </trkpt>
      <trkpt lat="45.636800" lon="5.892119">
        <ele>286.435414</ele>
        <time>2017-06-03T06:08:11.000Z</time>
      </trkpt>
      <trkpt lat="45.636696" lon="5.892114">
        <ele>286.582234</ele>
        <time>2017-06-03T06:08:14.000Z</time>
      </trkpt>
      <trkpt lat="45.636578" lon="5.892095">
        <ele>286.749776</ele>
        <time>2017-06-03T06:08:17.000Z</time>
      </trkpt>
      <trkpt lat="45.636450" lon="5.892085">
        <ele>286.930645</ele>
        <time>2017-06-03T06:08:20.000Z</time>
      </trkpt>
      <trkpt lat="45.636356" lon="5.892077">
        <ele>287.063508</ele>
        <time>2017-06-03T06:08:22.000Z</time>
      </trkpt>
      <trkpt lat="45.636257" lon="5.892073">
        <ele>287.203246</ele>
        <time>2017-06-03T06:08:24.000Z</time>
      </trkpt>
      <trkpt lat="45.636154" lon="5.892065">
        <ele>287.348786</ele>
        <time>2017-06-03T06:08:26.000Z</time>
      </trkpt>
      <trkpt lat="45.636063" lon="5.892057">
        <ele>287.477424</ele>
        <time>2017-06-03T06:08:28.000Z</time>
      </trkpt>
      <trkpt lat="45.635933" lon="5.892049">
        <ele>287.661015</ele>
        <time>2017-06-03T06:08:31.000Z</time>
      </trkpt>
      <trkpt lat="45.635803" lon="5.892033">
        <ele>287.845114</ele>
        <time>2017-06-03T06:08:34.000Z</time>
      </trkpt>
      <trkpt lat="45.635710" lon="5.892005">
        <ele>287.979207</ele>
        <time>2017-06-03T06:08:36.000Z</time>
      </trkpt>
      <trkpt lat="45.635620" lon="5.891985">
        <ele>288.107715</ele>
        <time>2017-06-03T06:08:38.000Z</time>
      </trkpt>
      <trkpt lat="45.635525" lon="5.891965">
        <ele>288.243199</ele>
        <time>2017-06-03T06:08:40.000Z</time>
      </trkpt>
      <trkpt lat="45.635420" lon="5.891948">
        <ele>288.392293</ele>
        <time>2017-06-03T06:08:42.000Z</time>
      </trkpt>
      <trkpt lat="45.635315" lon="5.891933">
        <ele>288.541178</ele>
        <time>2017-06-03T06:08:44.000Z</time>
      </trkpt>
      <trkpt lat="45.635212" lon="5.891924">
        <ele>288.686776</ele>
        <time>2017-06-03T06:08:46.000Z</time>
      </trkpt>
      <trkpt lat="45.635113" lon="5.891918">
        <ele>288.826584</ele>
        <time>2017-06-03T06:08:48.000Z</time>
      </trkpt>
      <trkpt lat="45.635010" lon="5.891915">
        <ele>288.878061</ele>
        <time>2017-06-03T06:08:50.000Z</time>
      </trkpt>
      <trkpt lat="45.634907" lon="5.891906">
        <ele>288.912137</ele>
        <time>2017-06-03T06:08:52.000Z</time>
      </trkpt>
      <trkpt lat="45.634804" lon="5.891907">
        <ele>288.946151</ele>
        <time>2017-06-03T06:08:54.000Z</time>
      </trkpt>
      <trkpt lat="45.634693" lon="5.891904">
        <ele>288.982813</ele>
        <time>2017-06-03T06:08:56.000Z</time>
      </trkpt>
      <trkpt lat="45.634594" lon="5.891892">
        <ele>289.015623</ele>
        <time>2017-06-03T06:08:58.000Z</time>
      </trkpt>
      <trkpt lat="45.634487" lon="5.891882">
        <ele>289.051032</ele>
        <time>2017-06-03T06:09:00.000Z</time>
      </trkpt>
      <trkpt lat="45.634388" lon="5.891877">
        <ele>289.083745</ele>
        <time>2017-06-03T06:09:02.000Z</time>
      </trkpt>
      <trkpt lat="45.634290" lon="5.891871">
        <ele>289.116136</ele>
        <time>2017-06-03T06:09:04.000Z</time>
      </trkpt>
      <trkpt lat="45.634190" lon="5.891859">
        <ele>289.149275</ele>
        <time>2017-06-03T06:09:06.000Z</time>
      </trkpt>
      <trkpt lat="45.634087" lon="5.891850">
        <ele>289.183352</ele>
        <time>2017-06-03T06:09:08.000Z</time>
      </trkpt>
      <trkpt lat="45.633980" lon="5.891842">
        <ele>289.218734</ele>
        <time>2017-06-03T06:09:10.000Z</time>
      </trkpt>
      <trkpt lat="45.633880" lon="5.891835">
        <ele>289.251796</ele>
        <time>2017-06-03T06:09:12.000Z</time>
      </trkpt>
      <trkpt lat="45.633778" lon="5.891832">
        <ele>289.285486</ele>
        <time>2017-06-03T06:09:14.000Z</time>
      </trkpt>
      <trkpt lat="45.633675" lon="5.891824">
        <ele>289.319549</ele>
        <time>2017-06-03T06:09:16.000Z</time>
      </trkpt>
      <trkpt lat="45.633568" lon="5.891829">
        <ele>289.354902</ele>
        <time>2017-06-03T06:09:18.000Z</time>
      </trkpt>
      <trkpt lat="45.633457" lon="5.891823">
        <ele>289.391584</ele>
        <time>2017-06-03T06:09:20.000Z</time>
      </trkpt>
      <trkpt lat="45.633358" lon="5.891812">
        <ele>289.424374</ele>
        <time>2017-06-03T06:09:22.000Z</time>
      </trkpt>
      <trkpt lat="45.633247" lon="5.891806">
        <ele>289.417056</ele>
        <time>2017-06-03T06:09:24.000Z</time>
      </trkpt>
      <trkpt lat="45.633150" lon="5.891787">
        <ele>289.369124</ele>
        <time>2017-06-03T06:09:26.000Z</time>
      </trkpt>
      <trkpt lat="45.633057" lon="5.891750">
        <ele>289.321864</ele>
        <time>2017-06-03T06:09:28.000Z</time>
      </trkpt>
      <trkpt lat="45.632965" lon="5.891696">
        <ele>289.273177</ele>
        <time>2017-06-03T06:09:30.000Z</time>
      </trkpt>
      <trkpt lat="45.632870" lon="5.891657">
        <ele>289.224789</ele>
        <time>2017-06-03T06:09:32.000Z</time>
      </trkpt>
      <trkpt lat="45.632770" lon="5.891634">
        <ele>289.175202</ele>
        <time>2017-06-03T06:09:34.000Z</time>
      </trkpt>
      <trkpt lat="45.632670" lon="5.891626">
        <ele>289.126167</ele>
        <time>2017-06-03T06:09:36.000Z</time>
      </trkpt>
      <trkpt lat="45.632576" lon="5.891616">
        <ele>289.080020</ele>
        <time>2017-06-03T06:09:38.000Z</time>
      </trkpt>
      <trkpt lat="45.632484" lon="5.891606">
        <ele>289.034849</ele>
        <time>2017-06-03T06:09:40.000Z</time>
      </trkpt>
      <trkpt lat="45.632390" lon="5.891598">
        <ele>288.988747</ele>
        <time>2017-06-03T06:09:42.000Z</time>
      </trkpt>
      <trkpt lat="45.632286" lon="5.891575">
        <ele>288.937226</ele>
        <time>2017-06-03T06:09:44.000Z</time>
      </trkpt>
      <trkpt lat="45.632183" lon="5.891557">
        <ele>288.886424</ele>
        <time>2017-06-03T06:09:46.000Z</time>
      </trkpt>
      <trkpt lat="45.632088" lon="5.891545">
        <ele>288.839733</ele>
        <time>2017-06-03T06:09:48.000Z</time>
      </trkpt>
      <trkpt lat="45.631990" lon="5.891543">
        <ele>288.791750</ele>
        <time>2017-06-03T06:09:50.000Z</time>
      </trkpt>
      <trkpt lat="45.631897" lon="5.891540">
        <ele>288.746207</ele>
        <time>2017-06-03T06:09:52.000Z</time>
      </trkpt>
      <trkpt lat="45.631800" lon="5.891531">
        <ele>288.698618</ele>
        <time>2017-06-03T06:09:54.000Z</time>
      </trkpt>
      <trkpt lat="45.631714" lon="5.891524">
        <ele>288.656446</ele>
        <time>2017-06-03T06:09:57.000Z</time>
      </trkpt>
      <trkpt lat="45.631620" lon="5.891510">
        <ele>288.610177</ele>
        <time>2017-06-03T06:09:58.000Z</time>
      </trkpt>
      <trkpt lat="45.631527" lon="5.891487">
        <ele>288.563971</ele>
        <time>2017-06-03T06:10:00.000Z</time>
      </trkpt>
      <trkpt lat="45.631424" lon="5.891482">
        <ele>288.532783</ele>
        <time>2017-06-03T06:10:02.000Z</time>
      </trkpt>
      <trkpt lat="45.631330" lon="5.891466">
        <ele>288.504573</ele>
        <time>2017-06-03T06:10:04.000Z</time>
      </trkpt>
      <trkpt lat="45.631226" lon="5.891450">
        <ele>288.473402</ele>
        <time>2017-06-03T06:10:06.000Z</time>
      </trkpt>
      <trkpt lat="45.631120" lon="5.891447">
        <ele>288.441807</ele>
        <time>2017-06-03T06:10:08.000Z</time>
      </trkpt>
      <trkpt lat="45.631016" lon="5.891451">
        <ele>288.410803</ele>
        <time>2017-06-03T06:10:10.000Z</time>
      </trkpt>
      <trkpt lat="45.630913" lon="5.891446">
        <ele>288.380091</ele>
        <time>2017-06-03T06:10:12.000Z</time>
      </trkpt>
      <trkpt lat="45.630810" lon="5.891437">
        <ele>288.349339</ele>
        <time>2017-06-03T06:10:14.000Z</time>
      </trkpt>
      <trkpt lat="45.630707" lon="5.891433">
        <ele>288.318633</ele>
        <time>2017-06-03T06:10:16.000Z</time>
      </trkpt>
      <trkpt lat="45.630600" lon="5.891425">
        <ele>288.286703</ele>
        <time>2017-06-03T06:10:18.000Z</time>
      </trkpt>
      <trkpt lat="45.630500" lon="5.891417">
        <ele>288.256856</ele>
        <time>2017-06-03T06:10:20.000Z</time>
      </trkpt>
      <trkpt lat="45.630400" lon="5.891415">
        <ele>288.227052</ele>
        <time>2017-06-03T06:10:22.000Z</time>
      </trkpt>
      <trkpt lat="45.630300" lon="5.891406">
        <ele>288.197193</ele>
        <time>2017-06-03T06:10:24.000Z</time>
      </trkpt>
      <trkpt lat="45.630190" lon="5.891399">
        <ele>288.164380</ele>
        <time>2017-06-03T06:10:26.000Z</time>
      </trkpt>
      <trkpt lat="45.630096" lon="5.891393">
        <ele>288.136339</ele>
        <time>2017-06-03T06:10:28.000Z</time>
      </trkpt>
      <trkpt lat="45.629993" lon="5.891384">
        <ele>288.105587</ele>
        <time>2017-06-03T06:10:30.000Z</time>
      </trkpt>
      <trkpt lat="45.629894" lon="5.891374">
        <ele>288.076011</ele>
        <time>2017-06-03T06:10:32.000Z</time>
      </trkpt>
      <trkpt lat="45.629787" lon="5.891378">
        <ele>288.044114</ele>
        <time>2017-06-03T06:10:34.000Z</time>
      </trkpt>
      <trkpt lat="45.629684" lon="5.891374">
        <ele>288.079843</ele>
        <time>2017-06-03T06:10:36.000Z</time>
      </trkpt>
      <trkpt lat="45.629585" lon="5.891364">
        <ele>288.197530</ele>
        <time>2017-06-03T06:10:38.000Z</time>
      </trkpt>
      <trkpt lat="45.629490" lon="5.891350">
        <ele>288.310779</ele>
        <time>2017-06-03T06:10:40.000Z</time>
      </trkpt>
      <trkpt lat="45.629387" lon="5.891334">
        <ele>288.433636</ele>
        <time>2017-06-03T06:10:42.000Z</time>
      </trkpt>
      <trkpt lat="45.629284" lon="5.891316">
        <ele>288.556683</ele>
        <time>2017-06-03T06:10:44.000Z</time>
      </trkpt>
      <trkpt lat="45.629180" lon="5.891305">
        <ele>288.680344</ele>
        <time>2017-06-03T06:10:46.000Z</time>
      </trkpt>
      <trkpt lat="45.629078" lon="5.891299">
        <ele>288.801399</ele>
        <time>2017-06-03T06:10:48.000Z</time>
      </trkpt>
      <trkpt lat="45.628980" lon="5.891288">
        <ele>288.917966</ele>
        <time>2017-06-03T06:10:50.000Z</time>
      </trkpt>
      <trkpt lat="45.628876" lon="5.891280">
        <ele>289.041468</ele>
        <time>2017-06-03T06:10:52.000Z</time>
      </trkpt>
      <trkpt lat="45.628773" lon="5.891273">
        <ele>289.163745</ele>
        <time>2017-06-03T06:10:54.000Z</time>
      </trkpt>
      <trkpt lat="45.628666" lon="5.891266">
        <ele>289.290759</ele>
        <time>2017-06-03T06:10:56.000Z</time>
      </trkpt>
      <trkpt lat="45.628563" lon="5.891256">
        <ele>289.413179</ele>
        <time>2017-06-03T06:10:58.000Z</time>
      </trkpt>
      <trkpt lat="45.628460" lon="5.891256">
        <ele>289.535317</ele>
        <time>2017-06-03T06:11:00.000Z</time>
      </trkpt>
      <trkpt lat="45.628360" lon="5.891255">
        <ele>289.653901</ele>
        <time>2017-06-03T06:11:02.000Z</time>
      </trkpt>
      <trkpt lat="45.628258" lon="5.891247">
        <ele>289.775035</ele>
        <time>2017-06-03T06:11:04.000Z</time>
      </trkpt>
      <trkpt lat="45.628155" lon="5.891241">
        <ele>289.897275</ele>
        <time>2017-06-03T06:11:06.000Z</time>
      </trkpt>
      <trkpt lat="45.628050" lon="5.891238">
        <ele>290.021810</ele>
        <time>2017-06-03T06:11:08.000Z</time>
      </trkpt>
      <trkpt lat="45.627950" lon="5.891234">
        <ele>290.140437</ele>
        <time>2017-06-03T06:11:10.000Z</time>
      </trkpt>
      <trkpt lat="45.627850" lon="5.891223">
        <ele>290.178238</ele>
        <time>2017-06-03T06:11:12.000Z</time>
      </trkpt>
      <trkpt lat="45.627750" lon="5.891212">
        <ele>290.200457</ele>
        <time>2017-06-03T06:11:14.000Z</time>
      </trkpt>
      <trkpt lat="45.627650" lon="5.891204">
        <ele>290.222644</ele>
        <time>2017-06-03T06:11:16.000Z</time>
      </trkpt>
      <trkpt lat="45.627550" lon="5.891200">
        <ele>290.244806</ele>
        <time>2017-06-03T06:11:18.000Z</time>
      </trkpt>
      <trkpt lat="45.627450" lon="5.891190">
        <ele>290.267013</ele>
        <time>2017-06-03T06:11:20.000Z</time>
      </trkpt>
      <trkpt lat="45.627354" lon="5.891172">
        <ele>290.288462</ele>
        <time>2017-06-03T06:11:22.000Z</time>
      </trkpt>
      <trkpt lat="45.627262" lon="5.891144">
        <ele>290.309299</ele>
        <time>2017-06-03T06:11:24.000Z</time>
      </trkpt>
      <trkpt lat="45.627132" lon="5.891130">
        <ele>290.338180</ele>
        <time>2017-06-03T06:11:27.000Z</time>
      </trkpt>
      <trkpt lat="45.627007" lon="5.891102">
        <ele>290.366209</ele>
        <time>2017-06-03T06:11:30.000Z</time>
      </trkpt>
      <trkpt lat="45.626880" lon="5.891079">
        <ele>290.394568</ele>
        <time>2017-06-03T06:11:33.000Z</time>
      </trkpt>
      <trkpt lat="45.626790" lon="5.891062">
        <ele>290.414679</ele>
        <time>2017-06-03T06:11:35.000Z</time>
      </trkpt>
      <trkpt lat="45.626698" lon="5.891037">
        <ele>290.435424</ele>
        <time>2017-06-03T06:11:38.000Z</time>
      </trkpt>
      <trkpt lat="45.626610" lon="5.891007">
        <ele>290.455465</ele>
        <time>2017-06-03T06:11:39.000Z</time>
      </trkpt>
      <trkpt lat="45.626514" lon="5.890977">
        <ele>290.477234</ele>
        <time>2017-06-03T06:11:41.000Z</time>
      </trkpt>
      <trkpt lat="45.626420" lon="5.890946">
        <ele>290.498604</ele>
        <time>2017-06-03T06:11:44.000Z</time>
      </trkpt>
      <trkpt lat="45.626324" lon="5.890907">
        <ele>290.520713</ele>
        <time>2017-06-03T06:11:46.000Z</time>
      </trkpt>
      <trkpt lat="45.626230" lon="5.890875">
        <ele>290.542119</ele>
        <time>2017-06-03T06:11:47.000Z</time>
      </trkpt>
      <trkpt lat="45.626133" lon="5.890829">
        <ele>290.593352</ele>
        <time>2017-06-03T06:11:50.000Z</time>
      </trkpt>
      <trkpt lat="45.626045" lon="5.890766">
        <ele>290.708127</ele>
        <time>2017-06-03T06:11:52.000Z</time>
      </trkpt>
      <trkpt lat="45.625965" lon="5.890691">
        <ele>290.819693</ele>
        <time>2017-06-03T06:11:54.000Z</time>
      </trkpt>
      <trkpt lat="45.625900" lon="5.890596">
        <ele>290.928092</ele>
        <time>2017-06-03T06:11:55.000Z</time>
      </trkpt>
      <trkpt lat="45.625824" lon="5.890464">
        <ele>291.067545</ele>
        <time>2017-06-03T06:11:59.000Z</time>
      </trkpt>
      <trkpt lat="45.625755" lon="5.890326">
        <ele>291.205908</ele>
        <time>2017-06-03T06:12:01.000Z</time>
      </trkpt>
      <trkpt lat="45.625717" lon="5.890174">
        <ele>291.337564</ele>
        <time>2017-06-03T06:12:05.000Z</time>
      </trkpt>
      <trkpt lat="45.625680" lon="5.890034">
        <ele>291.459632</ele>
        <time>2017-06-03T06:12:08.000Z</time>
      </trkpt>
      <trkpt lat="45.625633" lon="5.889891">
        <ele>291.588504</ele>
        <time>2017-06-03T06:12:11.000Z</time>
      </trkpt>
      <trkpt lat="45.625584" lon="5.889780">
        <ele>291.695565</ele>
        <time>2017-06-03T06:12:14.000Z</time>
      </trkpt>
      <trkpt lat="45.625523" lon="5.889679">
        <ele>291.804409</ele>
        <time>2017-06-03T06:12:18.000Z</time>
      </trkpt>
      <trkpt lat="45.625440" lon="5.889609">
        <ele>291.916792</ele>
        <time>2017-06-03T06:12:24.000Z</time>
      </trkpt>
      <trkpt lat="45.625347" lon="5.889509">
        <ele>292.052499</ele>
        <time>2017-06-03T06:13:20.000Z</time>
      </trkpt>
      <trkpt lat="45.625298" lon="5.889399">
        <ele>292.158871</ele>
        <time>2017-06-03T06:13:30.000Z</time>
      </trkpt>
      <trkpt lat="45.625225" lon="5.889262">
        <ele>292.299350</ele>
        <time>2017-06-03T06:13:35.000Z</time>
      </trkpt>
      <trkpt lat="45.625164" lon="5.889140">
        <ele>292.421671</ele>
        <time>2017-06-03T06:13:38.000Z</time>
      </trkpt>
      <trkpt lat="45.625060" lon="5.889030">
        <ele>292.572539</ele>
        <time>2017-06-03T06:13:41.000Z</time>
      </trkpt>
      <trkpt lat="45.624954" lon="5.888962">
        <ele>292.667612</ele>
        <time>2017-06-03T06:13:44.000Z</time>
      </trkpt>
      <trkpt lat="45.624832" lon="5.888915">
        <ele>292.701070</ele>
        <time>2017-06-03T06:13:47.000Z</time>
      </trkpt>
      <trkpt lat="45.624710" lon="5.888879">
        <ele>292.734057</ele>
        <time>2017-06-03T06:13:50.000Z</time>
      </trkpt>
      <trkpt lat="45.624596" lon="5.888850">
        <ele>292.764718</ele>
        <time>2017-06-03T06:13:53.000Z</time>
      </trkpt>
      <trkpt lat="45.624504" lon="5.888837">
        <ele>292.789199</ele>
        <time>2017-06-03T06:13:55.000Z</time>
      </trkpt>
      <trkpt lat="45.624416" lon="5.888822">
        <ele>292.812666</ele>
        <time>2017-06-03T06:13:57.000Z</time>
      </trkpt>
      <trkpt lat="45.624313" lon="5.888796">
        <ele>292.840363</ele>
        <time>2017-06-03T06:13:59.000Z</time>
      </trkpt>
      <trkpt lat="45.624220" lon="5.888776">
        <ele>292.865267</ele>
        <time>2017-06-03T06:14:01.000Z</time>
      </trkpt>
      <trkpt lat="45.624126" lon="5.888754">
        <ele>292.890489</ele>
        <time>2017-06-03T06:14:03.000Z</time>
      </trkpt>
      <trkpt lat="45.624023" lon="5.888732">
        <ele>292.918067</ele>
        <time>2017-06-03T06:14:05.000Z</time>
      </trkpt>
      <trkpt lat="45.623924" lon="5.888697">
        <ele>292.945072</ele>
        <time>2017-06-03T06:14:07.000Z</time>
      </trkpt>
      <trkpt lat="45.623833" lon="5.888669">
        <ele>292.969720</ele>
        <time>2017-06-03T06:14:09.000Z</time>
      </trkpt>
      <trkpt lat="45.623740" lon="5.888642">
        <ele>292.994849</ele>
        <time>2017-06-03T06:14:11.000Z</time>
      </trkpt>
      <trkpt lat="45.623650" lon="5.888618">
        <ele>293.019093</ele>
        <time>2017-06-03T06:14:13.000Z</time>
      </trkpt>
      <trkpt lat="45.623543" lon="5.888592">
        <ele>293.047833</ele>
        <time>2017-06-03T06:14:15.000Z</time>
      </trkpt>
      <trkpt lat="45.623436" lon="5.888565">
        <ele>293.076605</ele>
        <time>2017-06-03T06:14:17.000Z</time>
      </trkpt>
      <trkpt lat="45.623325" lon="5.888535">
        <ele>293.106518</ele>
        <time>2017-06-03T06:14:19.000Z</time>
      </trkpt>
      <trkpt lat="45.623220" lon="5.888504">
        <ele>293.133945</ele>
        <time>2017-06-03T06:14:21.000Z</time>
      </trkpt>
      <trkpt lat="45.623116" lon="5.888471">
        <ele>293.152732</ele>
        <time>2017-06-03T06:14:23.000Z</time>
      </trkpt>
      <trkpt lat="45.623020" lon="5.888423">
        <ele>293.170666</ele>
        <time>2017-06-03T06:14:25.000Z</time>
      </trkpt>
      <trkpt lat="45.622920" lon="5.888373">
        <ele>293.189347</ele>
        <time>2017-06-03T06:14:27.000Z</time>
      </trkpt>
      <trkpt lat="45.622833" lon="5.888316">
        <ele>293.206223</ele>
        <time>2017-06-03T06:14:29.000Z</time>
      </trkpt>
      <trkpt lat="45.622740" lon="5.888249">
        <ele>293.224588</ele>
        <time>2017-06-03T06:14:31.000Z</time>
      </trkpt>
      <trkpt lat="45.622650" lon="5.888184">
        <ele>293.242368</ele>
        <time>2017-06-03T06:14:33.000Z</time>
      </trkpt>
      <trkpt lat="45.622550" lon="5.888098">
        <ele>293.262947</ele>
        <time>2017-06-03T06:14:36.000Z</time>
      </trkpt>
      <trkpt lat="45.622417" lon="5.887989">
        <ele>293.289980</ele>
        <time>2017-06-03T06:18:20.000Z</time>
      </trkpt>
      <trkpt lat="45.622320" lon="5.887901">
        <ele>293.310238</ele>
        <time>2017-06-03T06:18:24.000Z</time>
      </trkpt>
      <trkpt lat="45.622227" lon="5.887808">
        <ele>293.330251</ele>
        <time>2017-06-03T06:18:27.000Z</time>
      </trkpt>
      <trkpt lat="45.622143" lon="5.887751">
        <ele>293.346648</ele>
        <time>2017-06-03T06:18:29.000Z</time>
      </trkpt>
      <trkpt lat="45.622040" lon="5.887669">
        <ele>293.367437</ele>
        <time>2017-06-03T06:18:32.000Z</time>
      </trkpt>
      <trkpt lat="45.621920" lon="5.887580">
        <ele>293.391276</ele>
        <time>2017-06-03T06:18:35.000Z</time>
      </trkpt>
      <trkpt lat="45.621838" lon="5.887538">
        <ele>293.406636</ele>
        <time>2017-06-03T06:18:37.000Z</time>
      </trkpt>
      <trkpt lat="45.621746" lon="5.887481">
        <ele>293.424318</ele>
        <time>2017-06-03T06:18:39.000Z</time>
      </trkpt>
      <trkpt lat="45.621660" lon="5.887434">
        <ele>293.440553</ele>
        <time>2017-06-03T06:18:41.000Z</time>
      </trkpt>
      <trkpt lat="45.621560" lon="5.887376">
        <ele>293.494863</ele>
        <time>2017-06-03T06:18:43.000Z</time>
      </trkpt>
      <trkpt lat="45.621460" lon="5.887326">
        <ele>293.577057</ele>
        <time>2017-06-03T06:18:45.000Z</time>
      </trkpt>
      <trkpt lat="45.621376" lon="5.887265">
        <ele>293.650154</ele>
        <time>2017-06-03T06:18:47.000Z</time>
      </trkpt>
      <trkpt lat="45.621296" lon="5.887204">
        <ele>293.720498</ele>
        <time>2017-06-03T06:18:49.000Z</time>
      </trkpt>
      <trkpt lat="45.621216" lon="5.887126">
        <ele>293.795625</ele>
        <time>2017-06-03T06:18:51.000Z</time>
      </trkpt>
      <trkpt lat="45.621100" lon="5.887029">
        <ele>293.899888</ele>
        <time>2017-06-03T06:18:54.000Z</time>
      </trkpt>
      <trkpt lat="45.620990" lon="5.886931">
        <ele>294.000446</ele>
        <time>2017-06-03T06:18:57.000Z</time>
      </trkpt>
      <trkpt lat="45.620884" lon="5.886833">
        <ele>294.098383</ele>
        <time>2017-06-03T06:19:00.000Z</time>
      </trkpt>
      <trkpt lat="45.620770" lon="5.886734">
        <ele>294.201868</ele>
        <time>2017-06-03T06:19:03.000Z</time>
      </trkpt>
      <trkpt lat="45.620655" lon="5.886629">
        <ele>294.307734</ele>
        <time>2017-06-03T06:19:06.000Z</time>
      </trkpt>
      <trkpt lat="45.620537" lon="5.886536">
        <ele>294.412274</ele>
        <time>2017-06-03T06:19:09.000Z</time>
      </trkpt>
      <trkpt lat="45.620464" lon="5.886453">
        <ele>294.484637</ele>
        <time>2017-06-03T06:19:11.000Z</time>
      </trkpt>
      <trkpt lat="45.620400" lon="5.886360">
        <ele>294.555437</ele>
        <time>2017-06-03T06:19:13.000Z</time>
      </trkpt>
      <trkpt lat="45.620320" lon="5.886234">
        <ele>294.647781</ele>
        <time>2017-06-03T06:19:16.000Z</time>
      </trkpt>
      <trkpt lat="45.620240" lon="5.886173">
        <ele>294.718126</ele>
        <time>2017-06-03T06:19:19.000Z</time>
      </trkpt>
      <trkpt lat="45.620136" lon="5.886144">
        <ele>294.800336</ele>
        <time>2017-06-03T06:19:23.000Z</time>
      </trkpt>
      <trkpt lat="45.620014" lon="5.886124">
        <ele>294.858363</ele>
        <time>2017-06-03T06:19:26.000Z</time>
      </trkpt>
      <trkpt lat="45.619904" lon="5.886088">
        <ele>294.881841</ele>
        <time>2017-06-03T06:19:29.000Z</time>
      </trkpt>
      <trkpt lat="45.619810" lon="5.886002">
        <ele>294.905060</ele>
        <time>2017-06-03T06:19:32.000Z</time>
      </trkpt>
      <trkpt lat="45.619705" lon="5.885902">
        <ele>294.931310</ele>
        <time>2017-06-03T06:19:35.000Z</time>
      </trkpt>
      <trkpt lat="45.619625" lon="5.885830">
        <ele>294.950977</ele>
        <time>2017-06-03T06:19:37.000Z</time>
      </trkpt>
      <trkpt lat="45.619545" lon="5.885760">
        <ele>294.970492</ele>
        <time>2017-06-03T06:19:39.000Z</time>
      </trkpt>
      <trkpt lat="45.619430" lon="5.885670">
        <ele>294.997769</ele>
        <time>2017-06-03T06:19:42.000Z</time>
      </trkpt>
      <trkpt lat="45.619316" lon="5.885570">
        <ele>295.025596</ele>
        <time>2017-06-03T06:19:45.000Z</time>
      </trkpt>
      <trkpt lat="45.619236" lon="5.885501">
        <ele>295.045035</ele>
        <time>2017-06-03T06:19:47.000Z</time>
      </trkpt>
      <trkpt lat="45.619156" lon="5.885429">
        <ele>295.064703</ele>
        <time>2017-06-03T06:19:49.000Z</time>
      </trkpt>
      <trkpt lat="45.619076" lon="5.885371">
        <ele>295.083365</ele>
        <time>2017-06-03T06:19:51.000Z</time>
      </trkpt>
      <trkpt lat="45.618996" lon="5.885291">
        <ele>295.103677</ele>
        <time>2017-06-03T06:19:53.000Z</time>
      </trkpt>
      <trkpt lat="45.618910" lon="5.885211">
        <ele>295.125024</ele>
        <time>2017-06-03T06:19:55.000Z</time>
      </trkpt>
      <trkpt lat="45.618828" lon="5.885142">
        <ele>295.144821</ele>
        <time>2017-06-03T06:19:57.000Z</time>
      </trkpt>
      <trkpt lat="45.618744" lon="5.885066">
        <ele>295.165503</ele>
        <time>2017-06-03T06:19:59.000Z</time>
      </trkpt>
      <trkpt lat="45.618660" lon="5.884985">
        <ele>295.186584</ele>
        <time>2017-06-03T06:20:01.000Z</time>
      </trkpt>
      <trkpt lat="45.618572" lon="5.884918">
        <ele>295.207327</ele>
        <time>2017-06-03T06:20:03.000Z</time>
      </trkpt>
      <trkpt lat="45.618492" lon="5.884838">
        <ele>295.284584</ele>
        <time>2017-06-03T06:20:05.000Z</time>
      </trkpt>
      <trkpt lat="45.618412" lon="5.884769">
        <ele>295.431255</ele>
        <time>2017-06-03T06:20:07.000Z</time>
      </trkpt>
      <trkpt lat="45.618330" lon="5.884702">
        <ele>295.579522</ele>
        <time>2017-06-03T06:20:09.000Z</time>
      </trkpt>
      <trkpt lat="45.618210" lon="5.884609">
        <ele>295.793802</ele>
        <time>2017-06-03T06:20:12.000Z</time>
      </trkpt>
      <trkpt lat="45.618100" lon="5.884516">
        <ele>295.994420</ele>
        <time>2017-06-03T06:20:15.000Z</time>
      </trkpt>
      <trkpt lat="45.617992" lon="5.884436">
        <ele>296.185369</ele>
        <time>2017-06-03T06:20:18.000Z</time>
      </trkpt>
      <trkpt lat="45.617886" lon="5.884352">
        <ele>296.375626</ele>
        <time>2017-06-03T06:20:21.000Z</time>
      </trkpt>
      <trkpt lat="45.617783" lon="5.884261">
        <ele>296.565704</ele>
        <time>2017-06-03T06:20:24.000Z</time>
      </trkpt>
      <trkpt lat="45.617680" lon="5.884163">
        <ele>296.759932</ele>
        <time>2017-06-03T06:20:27.000Z</time>
      </trkpt>
      <trkpt lat="45.617565" lon="5.884062">
        <ele>296.971808</ele>
        <time>2017-06-03T06:20:30.000Z</time>
      </trkpt>
      <trkpt lat="45.617466" lon="5.883954">
        <ele>297.167300</ele>
        <time>2017-06-03T06:20:33.000Z</time>
      </trkpt>
      <trkpt lat="45.617380" lon="5.883821">
        <ele>297.366183</ele>
        <time>2017-06-03T06:20:36.000Z</time>
      </trkpt>
      <trkpt lat="45.617313" lon="5.883703">
        <ele>297.533068</ele>
        <time>2017-06-03T06:20:39.000Z</time>
      </trkpt>
      <trkpt lat="45.617195" lon="5.883678">
        <ele>297.720335</ele>
        <time>2017-06-03T06:20:43.000Z</time>
      </trkpt>
      <trkpt lat="45.617092" lon="5.883662">
        <ele>297.882982</ele>
        <time>2017-06-03T06:20:46.000Z</time>
      </trkpt>
      <trkpt lat="45.616993" lon="5.883618">
        <ele>298.040351</ele>
        <time>2017-06-03T06:20:49.000Z</time>
      </trkpt>
      <trkpt lat="45.616875" lon="5.883567">
        <ele>297.906075</ele>
        <time>2017-06-03T06:20:52.000Z</time>
      </trkpt>
      <trkpt lat="45.616780" lon="5.883488">
        <ele>297.786364</ele>
        <time>2017-06-03T06:20:55.000Z</time>
      </trkpt>
      <trkpt lat="45.616680" lon="5.883430">
        <ele>297.668817</ele>
        <time>2017-06-03T06:20:58.000Z</time>
      </trkpt>
      <trkpt lat="45.616573" lon="5.883392">
        <ele>297.548724</ele>
        <time>2017-06-03T06:21:01.000Z</time>
      </trkpt>
      <trkpt lat="45.616486" lon="5.883310">
        <ele>297.435219</ele>
        <time>2017-06-03T06:21:08.000Z</time>
      </trkpt>
      <trkpt lat="45.616425" lon="5.883215">
        <ele>297.336966</ele>
        <time>2017-06-03T06:21:16.000Z</time>
      </trkpt>
      <trkpt lat="45.616276" lon="5.883241">
        <ele>297.173463</ele>
        <time>2017-06-03T06:22:06.000Z</time>
      </trkpt>
      <trkpt lat="45.616170" lon="5.883293">
        <ele>297.051394</ele>
        <time>2017-06-03T06:22:10.000Z</time>
      </trkpt>
      <trkpt lat="45.616077" lon="5.883324">
        <ele>296.947376</ele>
        <time>2017-06-03T06:22:13.000Z</time>
      </trkpt>
      <trkpt lat="45.615980" lon="5.883361">
        <ele>296.838023</ele>
        <time>2017-06-03T06:22:17.000Z</time>
      </trkpt>
      <trkpt lat="45.615880" lon="5.883333">
        <ele>296.727028</ele>
        <time>2017-06-03T06:22:21.000Z</time>
      </trkpt>
      <trkpt lat="45.615776" lon="5.883324">
        <ele>296.613538</ele>
        <time>2017-06-03T06:22:24.000Z</time>
      </trkpt>
      <trkpt lat="45.615670" lon="5.883325">
        <ele>296.498075</ele>
        <time>2017-06-03T06:22:28.000Z</time>
      </trkpt>
      <trkpt lat="45.615578" lon="5.883326">
        <ele>296.397861</ele>
        <time>2017-06-03T06:22:31.000Z</time>
      </trkpt>
      <trkpt lat="45.615475" lon="5.883342">
        <ele>296.285007</ele>
        <time>2017-06-03T06:22:35.000Z</time>
      </trkpt>
      <trkpt lat="45.615380" lon="5.883338">
        <ele>296.181483</ele>
        <time>2017-06-03T06:22:38.000Z</time>
      </trkpt>
      <trkpt lat="45.615284" lon="5.883337">
        <ele>296.094822</ele>
        <time>2017-06-03T06:22:42.000Z</time>
      </trkpt>
      <trkpt lat="45.615185" lon="5.883340">
        <ele>296.285746</ele>
        <time>2017-06-03T06:22:44.000Z</time>
      </trkpt>
      <trkpt lat="45.615078" lon="5.883339">
        <ele>296.492055</ele>
        <time>2017-06-03T06:22:47.000Z</time>
      </trkpt>
      <trkpt lat="45.614970" lon="5.883337">
        <ele>296.700306</ele>
        <time>2017-06-03T06:22:50.000Z</time>
      </trkpt>
      <trkpt lat="45.614857" lon="5.883334">
        <ele>296.918217</ele>
        <time>2017-06-03T06:22:53.000Z</time>
      </trkpt>
      <trkpt lat="45.614758" lon="5.883348">
        <ele>297.110029</ele>
        <time>2017-06-03T06:22:56.000Z</time>
      </trkpt>
      <trkpt lat="45.614666" lon="5.883342">
        <ele>297.287598</ele>
        <time>2017-06-03T06:22:59.000Z</time>
      </trkpt>
      <trkpt lat="45.614563" lon="5.883338">
        <ele>297.486264</ele>
        <time>2017-06-03T06:23:03.000Z</time>
      </trkpt>
      <trkpt lat="45.614418" lon="5.883351">
        <ele>297.766386</ele>
        <time>2017-06-03T06:23:23.000Z</time>
      </trkpt>
      <trkpt lat="45.614326" lon="5.883351">
        <ele>297.943770</ele>
        <time>2017-06-03T06:23:28.000Z</time>
      </trkpt>
      <trkpt lat="45.614235" lon="5.883359">
        <ele>298.119557</ele>
        <time>2017-06-03T06:23:32.000Z</time>
      </trkpt>
      <trkpt lat="45.614117" lon="5.883352">
        <ele>298.347267</ele>
        <time>2017-06-03T06:23:36.000Z</time>
      </trkpt>
      <trkpt lat="45.614017" lon="5.883346">
        <ele>298.540245</ele>
        <time>2017-06-03T06:23:39.000Z</time>
      </trkpt>
      <trkpt lat="45.613910" lon="5.883361">
        <ele>298.747540</ele>
        <time>2017-06-03T06:23:43.000Z</time>
      </trkpt>
      <trkpt lat="45.613800" lon="5.883362">
        <ele>298.959634</ele>
        <time>2017-06-03T06:23:47.000Z</time>
      </trkpt>
      <trkpt lat="45.613710" lon="5.883361">
        <ele>299.133166</ele>
        <time>2017-06-03T06:23:50.000Z</time>
      </trkpt>
      <trkpt lat="45.613610" lon="5.883353">
        <ele>299.326277</ele>
        <time>2017-06-03T06:23:53.000Z</time>
      </trkpt>
      <trkpt lat="45.613483" lon="5.883356">
        <ele>299.567689</ele>
        <time>2017-06-03T06:23:56.000Z</time>
      </trkpt>
      <trkpt lat="45.613388" lon="5.883344">
        <ele>299.719278</ele>
        <time>2017-06-03T06:23:58.000Z</time>
      </trkpt>
      <trkpt lat="45.613285" lon="5.883336">
        <ele>299.883237</ele>
        <time>2017-06-03T06:24:01.000Z</time>
      </trkpt>
      <trkpt lat="45.613190" lon="5.883339">
        <ele>300.034275</ele>
        <time>2017-06-03T06:24:03.000Z</time>
      </trkpt>
      <trkpt lat="45.613090" lon="5.883339">
        <ele>300.193223</ele>
        <time>2017-06-03T06:24:05.000Z</time>
      </trkpt>
      <trkpt lat="45.612972" lon="5.883332">
        <ele>300.380944</ele>
        <time>2017-06-03T06:24:08.000Z</time>
      </trkpt>
      <trkpt lat="45.612877" lon="5.883345">
        <ele>300.532635</ele>
        <time>2017-06-03T06:24:10.000Z</time>
      </trkpt>
      <trkpt lat="45.612755" lon="5.883352">
        <ele>300.726708</ele>
        <time>2017-06-03T06:24:13.000Z</time>
      </trkpt>
      <trkpt lat="45.612663" lon="5.883358">
        <ele>300.873093</ele>
        <time>2017-06-03T06:24:15.000Z</time>
      </trkpt>
      <trkpt lat="45.612564" lon="5.883371">
        <ele>301.031114</ele>
        <time>2017-06-03T06:24:17.000Z</time>
      </trkpt>
      <trkpt lat="45.612460" lon="5.883388">
        <ele>301.197497</ele>
        <time>2017-06-03T06:24:19.000Z</time>
      </trkpt>
      <trkpt lat="45.612360" lon="5.883401">
        <ele>301.357102</ele>
        <time>2017-06-03T06:24:21.000Z</time>
      </trkpt>
      <trkpt lat="45.612267" lon="5.883409">
        <ele>301.505191</ele>
        <time>2017-06-03T06:24:23.000Z</time>
      </trkpt>
      <trkpt lat="45.612144" lon="5.883428">
        <ele>301.701836</ele>
        <time>2017-06-03T06:24:26.000Z</time>
      </trkpt>
      <trkpt lat="45.612050" lon="5.883450">
        <ele>301.853236</ele>
        <time>2017-06-03T06:24:28.000Z</time>
      </trkpt>
      <trkpt lat="45.611910" lon="5.883474">
        <ele>302.077358</ele>
        <time>2017-06-03T06:24:31.000Z</time>
      </trkpt>
      <trkpt lat="45.611810" lon="5.883494">
        <ele>302.237855</ele>
        <time>2017-06-03T06:24:33.000Z</time>
      </trkpt>
      <trkpt lat="45.611710" lon="5.883509">
        <ele>302.397676</ele>
        <time>2017-06-03T06:24:35.000Z</time>
      </trkpt>
      <trkpt lat="45.611618" lon="5.883526">
        <ele>302.405958</ele>
        <time>2017-06-03T06:24:37.000Z</time>
      </trkpt>
      <trkpt lat="45.611523" lon="5.883544">
        <ele>302.401133</ele>
        <time>2017-06-03T06:24:39.000Z</time>
      </trkpt>
      <trkpt lat="45.611427" lon="5.883561">
        <ele>302.396262</ele>
        <time>2017-06-03T06:24:41.000Z</time>
      </trkpt>
      <trkpt lat="45.611332" lon="5.883581">
        <ele>302.391427</ele>
        <time>2017-06-03T06:24:43.000Z</time>
      </trkpt>
      <trkpt lat="45.611244" lon="5.883609">
        <ele>302.386888</ele>
        <time>2017-06-03T06:24:45.000Z</time>
      </trkpt>
      <trkpt lat="45.611150" lon="5.883630">
        <ele>302.382098</ele>
        <time>2017-06-03T06:24:47.000Z</time>
      </trkpt>
      <trkpt lat="45.611060" lon="5.883658">
        <ele>302.377460</ele>
        <time>2017-06-03T06:24:49.000Z</time>
      </trkpt>
      <trkpt lat="45.610928" lon="5.883696">
        <ele>302.370680</ele>
        <time>2017-06-03T06:24:52.000Z</time>
      </trkpt>
      <trkpt lat="45.610800" lon="5.883729">
        <ele>302.364131</ele>
        <time>2017-06-03T06:24:55.000Z</time>
      </trkpt>
      <trkpt lat="45.610672" lon="5.883774">
        <ele>302.357494</ele>
        <time>2017-06-03T06:24:58.000Z</time>
      </trkpt>
      <trkpt lat="45.610546" lon="5.883815">
        <ele>302.350988</ele>
        <time>2017-06-03T06:25:01.000Z</time>
      </trkpt>
      <trkpt lat="45.610447" lon="5.883846">
        <ele>302.345885</ele>
        <time>2017-06-03T06:25:03.000Z</time>
      </trkpt>
      <trkpt lat="45.610355" lon="5.883881">
        <ele>302.341091</ele>
        <time>2017-06-03T06:25:05.000Z</time>
      </trkpt>
      <trkpt lat="45.610264" lon="5.883925">
        <ele>302.336254</ele>
        <time>2017-06-03T06:25:07.000Z</time>
      </trkpt>
      <trkpt lat="45.610160" lon="5.883965">
        <ele>302.330832</ele>
        <time>2017-06-03T06:25:09.000Z</time>
      </trkpt>
      <trkpt lat="45.610073" lon="5.884003">
        <ele>302.326251</ele>
        <time>2017-06-03T06:25:11.000Z</time>
      </trkpt>
      <trkpt lat="45.609978" lon="5.884045">
        <ele>302.321244</ele>
        <time>2017-06-03T06:25:13.000Z</time>
      </trkpt>
      <trkpt lat="45.609882" lon="5.884092">
        <ele>302.372050</ele>
        <time>2017-06-03T06:25:15.000Z</time>
      </trkpt>
      <trkpt lat="45.609800" lon="5.884140">
        <ele>302.438204</ele>
        <time>2017-06-03T06:25:17.000Z</time>
      </trkpt>
      <trkpt lat="45.609707" lon="5.884182">
        <ele>302.511019</ele>
        <time>2017-06-03T06:25:19.000Z</time>
      </trkpt>
      <trkpt lat="45.609615" lon="5.884223">
        <ele>302.582966</ele>
        <time>2017-06-03T06:25:21.000Z</time>
      </trkpt>
      <trkpt lat="45.609520" lon="5.884274">
        <ele>302.658729</ele>
        <time>2017-06-03T06:25:23.000Z</time>
      </trkpt>
      <trkpt lat="45.609394" lon="5.884340">
        <ele>302.758916</ele>
        <time>2017-06-03T06:25:26.000Z</time>
      </trkpt>
      <trkpt lat="45.609264" lon="5.884397">
        <ele>302.860435</ele>
        <time>2017-06-03T06:25:29.000Z</time>
      </trkpt>
      <trkpt lat="45.609130" lon="5.884442">
        <ele>302.963202</ele>
        <time>2017-06-03T06:25:32.000Z</time>
      </trkpt>
      <trkpt lat="45.609030" lon="5.884492">
        <ele>303.042296</ele>
        <time>2017-06-03T06:25:34.000Z</time>
      </trkpt>
      <trkpt lat="45.608940" lon="5.884548">
        <ele>303.115579</ele>
        <time>2017-06-03T06:25:36.000Z</time>
      </trkpt>
      <trkpt lat="45.608840" lon="5.884593">
        <ele>303.193850</ele>
        <time>2017-06-03T06:25:38.000Z</time>
      </trkpt>
      <trkpt lat="45.608734" lon="5.884629">
        <ele>303.275191</ele>
        <time>2017-06-03T06:25:40.000Z</time>
      </trkpt>
      <trkpt lat="45.608643" lon="5.884663">
        <ele>303.345413</ele>
        <time>2017-06-03T06:25:42.000Z</time>
      </trkpt>
      <trkpt lat="45.608550" lon="5.884702">
        <ele>303.417772</ele>
        <time>2017-06-03T06:25:44.000Z</time>
      </trkpt>
      <trkpt lat="45.608463" lon="5.884735">
        <ele>303.484973</ele>
        <time>2017-06-03T06:25:47.000Z</time>
      </trkpt>
      <trkpt lat="45.608326" lon="5.884801">
        <ele>303.592908</ele>
        <time>2017-06-03T06:25:49.000Z</time>
      </trkpt>
      <trkpt lat="45.608242" lon="5.884838">
        <ele>303.658532</ele>
        <time>2017-06-03T06:25:51.000Z</time>
      </trkpt>
      <trkpt lat="45.608105" lon="5.884895">
        <ele>303.646773</ele>
        <time>2017-06-03T06:25:55.000Z</time>
      </trkpt>
      <trkpt lat="45.608017" lon="5.884944">
        <ele>303.635947</ele>
        <time>2017-06-03T06:25:56.000Z</time>
      </trkpt>
      <trkpt lat="45.607920" lon="5.884997">
        <ele>303.624043</ele>
        <time>2017-06-03T06:26:00.000Z</time>
      </trkpt>
      <trkpt lat="45.607830" lon="5.885047">
        <ele>303.612975</ele>
        <time>2017-06-03T06:26:02.000Z</time>
      </trkpt>
      <trkpt lat="45.607740" lon="5.885092">
        <ele>303.602045</ele>
        <time>2017-06-03T06:26:04.000Z</time>
      </trkpt>
      <trkpt lat="45.607635" lon="5.885145">
        <ele>303.589280</ele>
        <time>2017-06-03T06:26:06.000Z</time>
      </trkpt>
      <trkpt lat="45.607540" lon="5.885178">
        <ele>303.578073</ele>
        <time>2017-06-03T06:26:08.000Z</time>
      </trkpt>
      <trkpt lat="45.607452" lon="5.885213">
        <ele>303.567603</ele>
        <time>2017-06-03T06:26:10.000Z</time>
      </trkpt>
      <trkpt lat="45.607330" lon="5.885271">
        <ele>303.552865</ele>
        <time>2017-06-03T06:26:13.000Z</time>
      </trkpt>
      <trkpt lat="45.607240" lon="5.885310">
        <ele>303.542084</ele>
        <time>2017-06-03T06:26:15.000Z</time>
      </trkpt>
      <trkpt lat="45.607113" lon="5.885366">
        <ele>303.526849</ele>
        <time>2017-06-03T06:26:18.000Z</time>
      </trkpt>
      <trkpt lat="45.606970" lon="5.885429">
        <ele>303.509696</ele>
        <time>2017-06-03T06:26:21.000Z</time>
      </trkpt>
      <trkpt lat="45.606834" lon="5.885473">
        <ele>303.493712</ele>
        <time>2017-06-03T06:26:24.000Z</time>
      </trkpt>
      <trkpt lat="45.606730" lon="5.885517">
        <ele>303.481279</ele>
        <time>2017-06-03T06:26:26.000Z</time>
      </trkpt>
      <trkpt lat="45.606636" lon="5.885557">
        <ele>303.470037</ele>
        <time>2017-06-03T06:26:28.000Z</time>
      </trkpt>
      <trkpt lat="45.606520" lon="5.885614">
        <ele>303.454030</ele>
        <time>2017-06-03T06:26:31.000Z</time>
      </trkpt>
      <trkpt lat="45.606430" lon="5.885665">
        <ele>303.383164</ele>
        <time>2017-06-03T06:26:33.000Z</time>
      </trkpt>
      <trkpt lat="45.606330" lon="5.885713">
        <ele>303.305950</ele>
        <time>2017-06-03T06:26:35.000Z</time>
      </trkpt>
      <trkpt lat="45.606216" lon="5.885764">
        <ele>303.218514</ele>
        <time>2017-06-03T06:26:38.000Z</time>
      </trkpt>
      <trkpt lat="45.606110" lon="5.885847">
        <ele>303.130047</ele>
        <time>2017-06-03T06:26:41.000Z</time>
      </trkpt>
      <trkpt lat="45.605940" lon="5.885956">
        <ele>302.993666</ele>
        <time>2017-06-03T06:27:13.000Z</time>
      </trkpt>
      <trkpt lat="45.605840" lon="5.886007">
        <ele>302.915949</ele>
        <time>2017-06-03T06:27:16.000Z</time>
      </trkpt>
      <trkpt lat="45.605730" lon="5.886089">
        <ele>302.825141</ele>
        <time>2017-06-03T06:27:19.000Z</time>
      </trkpt>
      <trkpt lat="45.605610" lon="5.886104">
        <ele>302.736969</ele>
        <time>2017-06-03T06:27:22.000Z</time>
      </trkpt>
      <trkpt lat="45.605520" lon="5.886142">
        <ele>302.668277</ele>
        <time>2017-06-03T06:27:24.000Z</time>
      </trkpt>
      <trkpt lat="45.605430" lon="5.886191">
        <ele>302.597783</ele>
        <time>2017-06-03T06:27:26.000Z</time>
      </trkpt>
      <trkpt lat="45.605305" lon="5.886252">
        <ele>302.501101</ele>
        <time>2017-06-03T06:27:29.000Z</time>
      </trkpt>
      <trkpt lat="45.605210" lon="5.886284">
        <ele>302.429659</ele>
        <time>2017-06-03T06:27:31.000Z</time>
      </trkpt>
      <trkpt lat="45.605090" lon="5.886354">
        <ele>302.334789</ele>
        <time>2017-06-03T06:27:34.000Z</time>
      </trkpt>
      <trkpt lat="45.604977" lon="5.886436">
        <ele>302.242028</ele>
        <time>2017-06-03T06:27:37.000Z</time>
      </trkpt>
      <trkpt lat="45.604897" lon="5.886500">
        <ele>302.174922</ele>
        <time>2017-06-03T06:27:39.000Z</time>
      </trkpt>
      <trkpt lat="45.604786" lon="5.886582">
        <ele>302.244877</ele>
        <time>2017-06-03T06:27:42.000Z</time>
      </trkpt>
      <trkpt lat="45.604664" lon="5.886677">
        <ele>302.434657</ele>
        <time>2017-06-03T06:27:45.000Z</time>
      </trkpt>
      <trkpt lat="45.604576" lon="5.886739">
        <ele>302.568677</ele>
        <time>2017-06-03T06:27:47.000Z</time>
      </trkpt>
      <trkpt lat="45.604500" lon="5.886814">
        <ele>302.694834</ele>
        <time>2017-06-03T06:27:49.000Z</time>
      </trkpt>
      <trkpt lat="45.604416" lon="5.886898">
        <ele>302.834873</ele>
        <time>2017-06-03T06:27:51.000Z</time>
      </trkpt>
      <trkpt lat="45.604336" lon="5.886981">
        <ele>302.969908</ele>
        <time>2017-06-03T06:27:53.000Z</time>
      </trkpt>
      <trkpt lat="45.604260" lon="5.887053">
        <ele>303.094458</ele>
        <time>2017-06-03T06:27:55.000Z</time>
      </trkpt>
      <trkpt lat="45.604183" lon="5.887132">
        <ele>303.223933</ele>
        <time>2017-06-03T06:27:57.000Z</time>
      </trkpt>
      <trkpt lat="45.604107" lon="5.887212">
        <ele>303.352865</ele>
        <time>2017-06-03T06:27:59.000Z</time>
      </trkpt>
      <trkpt lat="45.604040" lon="5.887299">
        <ele>303.476516</ele>
        <time>2017-06-03T06:28:01.000Z</time>
      </trkpt>
      <trkpt lat="45.603970" lon="5.887382">
        <ele>303.600756</ele>
        <time>2017-06-03T06:28:03.000Z</time>
      </trkpt>
      <trkpt lat="45.603886" lon="5.887471">
        <ele>303.743589</ele>
        <time>2017-06-03T06:28:05.000Z</time>
      </trkpt>
      <trkpt lat="45.603813" lon="5.887560">
        <ele>303.874656</ele>
        <time>2017-06-03T06:28:07.000Z</time>
      </trkpt>
      <trkpt lat="45.603740" lon="5.887645">
        <ele>304.003275</ele>
        <time>2017-06-03T06:28:09.000Z</time>
      </trkpt>
      <trkpt lat="45.603670" lon="5.887730">
        <ele>304.128744</ele>
        <time>2017-06-03T06:28:11.000Z</time>
      </trkpt>
      <trkpt lat="45.603592" lon="5.887814">
        <ele>304.262151</ele>
        <time>2017-06-03T06:28:13.000Z</time>
      </trkpt>
      <trkpt lat="45.603508" lon="5.887900">
        <ele>304.403296</ele>
        <time>2017-06-03T06:28:15.000Z</time>
      </trkpt>
      <trkpt lat="45.603436" lon="5.887979">
        <ele>304.527286</ele>
        <time>2017-06-03T06:28:17.000Z</time>
      </trkpt>
      <trkpt lat="45.603367" lon="5.888070">
        <ele>304.545302</ele>
        <time>2017-06-03T06:28:19.000Z</time>
      </trkpt>
      <trkpt lat="45.603302" lon="5.888162">
        <ele>304.435872</ele>
        <time>2017-06-03T06:28:21.000Z</time>
      </trkpt>
      <trkpt lat="45.603226" lon="5.888252">
        <ele>304.317806</ele>
        <time>2017-06-03T06:28:23.000Z</time>
      </trkpt>
      <trkpt lat="45.603150" lon="5.888345">
        <ele>304.198123</ele>
        <time>2017-06-03T06:28:25.000Z</time>
      </trkpt>
      <trkpt lat="45.603070" lon="5.888423">
        <ele>304.082277</ele>
        <time>2017-06-03T06:28:27.000Z</time>
      </trkpt>
      <trkpt lat="45.602980" lon="5.888501">
        <ele>303.956368</ele>
        <time>2017-06-03T06:28:29.000Z</time>
      </trkpt>
      <trkpt lat="45.602898" lon="5.888576">
        <ele>303.839909</ele>
        <time>2017-06-03T06:28:31.000Z</time>
      </trkpt>
      <trkpt lat="45.602810" lon="5.888704">
        <ele>303.689714</ele>
        <time>2017-06-03T06:28:34.000Z</time>
      </trkpt>
      <trkpt lat="45.602703" lon="5.888831">
        <ele>303.523335</ele>
        <time>2017-06-03T06:28:37.000Z</time>
      </trkpt>
      <trkpt lat="45.602623" lon="5.888902">
        <ele>303.410685</ele>
        <time>2017-06-03T06:28:39.000Z</time>
      </trkpt>
      <trkpt lat="45.602528" lon="5.889008">
        <ele>303.266512</ele>
        <time>2017-06-03T06:28:42.000Z</time>
      </trkpt>
      <trkpt lat="45.602432" lon="5.889097">
        <ele>303.129629</ele>
        <time>2017-06-03T06:28:46.000Z</time>
      </trkpt>
      <trkpt lat="45.602337" lon="5.889028">
        <ele>303.002152</ele>
        <time>2017-06-03T06:28:52.000Z</time>
      </trkpt>
      <trkpt lat="45.602270" lon="5.888907">
        <ele>302.873002</ele>
        <time>2017-06-03T06:28:57.000Z</time>
      </trkpt>
      <trkpt lat="45.602170" lon="5.888843">
        <ele>302.741931</ele>
        <time>2017-06-03T06:29:03.000Z</time>
      </trkpt>
      <trkpt lat="45.602090" lon="5.888945">
        <ele>302.613686</ele>
        <time>2017-06-03T06:29:06.000Z</time>
      </trkpt>
      <trkpt lat="45.602013" lon="5.889058">
        <ele>302.481666</ele>
        <time>2017-06-03T06:29:08.000Z</time>
      </trkpt>
      <trkpt lat="45.601950" lon="5.889161">
        <ele>302.474588</ele>
        <time>2017-06-03T06:29:10.000Z</time>
      </trkpt>
      <trkpt lat="45.601880" lon="5.889258">
        <ele>302.518695</ele>
        <time>2017-06-03T06:29:12.000Z</time>
      </trkpt>
      <trkpt lat="45.601788" lon="5.889351">
        <ele>302.569674</ele>
        <time>2017-06-03T06:29:14.000Z</time>
      </trkpt>
      <trkpt lat="45.601710" lon="5.889432">
        <ele>302.613291</ele>
        <time>2017-06-03T06:29:16.000Z</time>
      </trkpt>
      <trkpt lat="45.601635" lon="5.889530">
        <ele>302.659263</ele>
        <time>2017-06-03T06:29:18.000Z</time>
      </trkpt>
      <trkpt lat="45.601543" lon="5.889654">
        <ele>302.716470</ele>
        <time>2017-06-03T06:29:21.000Z</time>
      </trkpt>
      <trkpt lat="45.601463" lon="5.889733">
        <ele>302.760460</ele>
        <time>2017-06-03T06:29:23.000Z</time>
      </trkpt>
      <trkpt lat="45.601383" lon="5.889824">
        <ele>302.806715</ele>
        <time>2017-06-03T06:29:25.000Z</time>
      </trkpt>
      <trkpt lat="45.601310" lon="5.889921">
        <ele>302.851807</ele>
        <time>2017-06-03T06:29:27.000Z</time>
      </trkpt>
      <trkpt lat="45.601242" lon="5.890021">
        <ele>302.895946</ele>
        <time>2017-06-03T06:29:29.000Z</time>
      </trkpt>
      <trkpt lat="45.601180" lon="5.890125">
        <ele>302.939193</ele>
        <time>2017-06-03T06:29:31.000Z</time>
      </trkpt>
      <trkpt lat="45.601120" lon="5.890229">
        <ele>302.981859</ele>
        <time>2017-06-03T06:29:33.000Z</time>
      </trkpt>
      <trkpt lat="45.601055" lon="5.890333">
        <ele>303.025999</ele>
        <time>2017-06-03T06:29:35.000Z</time>
      </trkpt>
      <trkpt lat="45.600986" lon="5.890433">
        <ele>303.070454</ele>
        <time>2017-06-03T06:29:37.000Z</time>
      </trkpt>
      <trkpt lat="45.600918" lon="5.890537">
        <ele>303.115510</ele>
        <time>2017-06-03T06:29:39.000Z</time>
      </trkpt>
      <trkpt lat="45.600840" lon="5.890621">
        <ele>303.159692</ele>
        <time>2017-06-03T06:29:41.000Z</time>
      </trkpt>
      <trkpt lat="45.600754" lon="5.890685">
        <ele>303.203557</ele>
        <time>2017-06-03T06:29:43.000Z</time>
      </trkpt>
      <trkpt lat="45.600670" lon="5.890755">
        <ele>303.247546</ele>
        <time>2017-06-03T06:29:45.000Z</time>
      </trkpt>
      <trkpt lat="45.600582" lon="5.890823">
        <ele>303.293184</ele>
        <time>2017-06-03T06:29:47.000Z</time>
      </trkpt>
      <trkpt lat="45.600494" lon="5.890872">
        <ele>303.336390</ele>
        <time>2017-06-03T06:29:49.000Z</time>
      </trkpt>
      <trkpt lat="45.600403" lon="5.890922">
        <ele>303.380990</ele>
        <time>2017-06-03T06:29:51.000Z</time>
      </trkpt>
      <trkpt lat="45.600310" lon="5.890953">
        <ele>303.424678</ele>
        <time>2017-06-03T06:29:53.000Z</time>
      </trkpt>
      <trkpt lat="45.600220" lon="5.890987">
        <ele>303.467265</ele>
        <time>2017-06-03T06:29:55.000Z</time>
      </trkpt>
      <trkpt lat="45.600124" lon="5.891023">
        <ele>303.512669</ele>
        <time>2017-06-03T06:29:57.000Z</time>
      </trkpt>
      <trkpt lat="45.600030" lon="5.891058">
        <ele>303.557107</ele>
        <time>2017-06-03T06:29:59.000Z</time>
      </trkpt>
      <trkpt lat="45.599937" lon="5.891094">
        <ele>303.601186</ele>
        <time>2017-06-03T06:30:01.000Z</time>
      </trkpt>
      <trkpt lat="45.599808" lon="5.891144">
        <ele>303.662332</ele>
        <time>2017-06-03T06:30:04.000Z</time>
      </trkpt>
      <trkpt lat="45.599705" lon="5.891164">
        <ele>303.709885</ele>
        <time>2017-06-03T06:30:06.000Z</time>
      </trkpt>
      <trkpt lat="45.599600" lon="5.891190">
        <ele>303.758636</ele>
        <time>2017-06-03T06:30:08.000Z</time>
      </trkpt>
      <trkpt lat="45.599500" lon="5.891229">
        <ele>303.806057</ele>
        <time>2017-06-03T06:30:10.000Z</time>
      </trkpt>
      <trkpt lat="45.599400" lon="5.891259">
        <ele>303.852801</ele>
        <time>2017-06-03T06:30:12.000Z</time>
      </trkpt>
      <trkpt lat="45.599300" lon="5.891284">
        <ele>303.899244</ele>
        <time>2017-06-03T06:30:14.000Z</time>
      </trkpt>
      <trkpt lat="45.599213" lon="5.891316">
        <ele>303.940341</ele>
        <time>2017-06-03T06:30:16.000Z</time>
      </trkpt>
      <trkpt lat="45.599120" lon="5.891346">
        <ele>303.983957</ele>
        <time>2017-06-03T06:30:18.000Z</time>
      </trkpt>
      <trkpt lat="45.598990" lon="5.891397">
        <ele>304.045629</ele>
        <time>2017-06-03T06:30:21.000Z</time>
      </trkpt>
      <trkpt lat="45.598858" lon="5.891444">
        <ele>304.122216</ele>
        <time>2017-06-03T06:30:24.000Z</time>
      </trkpt>
      <trkpt lat="45.598770" lon="5.891474">
        <ele>304.186272</ele>
        <time>2017-06-03T06:30:26.000Z</time>
      </trkpt>
      <trkpt lat="45.598648" lon="5.891531">
        <ele>304.277153</ele>
        <time>2017-06-03T06:30:29.000Z</time>
      </trkpt>
      <trkpt lat="45.598522" lon="5.891555">
        <ele>304.367156</ele>
        <time>2017-06-03T06:30:32.000Z</time>
      </trkpt>
      <trkpt lat="45.598400" lon="5.891574">
        <ele>304.454050</ele>
        <time>2017-06-03T06:30:35.000Z</time>
      </trkpt>
      <trkpt lat="45.598286" lon="5.891614">
        <ele>304.537165</ele>
        <time>2017-06-03T06:30:38.000Z</time>
      </trkpt>
      <trkpt lat="45.598170" lon="5.891684">
        <ele>304.626320</ele>
        <time>2017-06-03T06:30:41.000Z</time>
      </trkpt>
      <trkpt lat="45.598050" lon="5.891743">
        <ele>304.716173</ele>
        <time>2017-06-03T06:30:44.000Z</time>
      </trkpt>
      <trkpt lat="45.597930" lon="5.891796">
        <ele>304.805104</ele>
        <time>2017-06-03T06:30:47.000Z</time>
      </trkpt>
      <trkpt lat="45.597824" lon="5.891865">
        <ele>304.887576</ele>
        <time>2017-06-03T06:30:50.000Z</time>
      </trkpt>
      <trkpt lat="45.597720" lon="5.891925">
        <ele>304.966986</ele>
        <time>2017-06-03T06:30:53.000Z</time>
      </trkpt>
      <trkpt lat="45.597620" lon="5.891992">
        <ele>305.045186</ele>
        <time>2017-06-03T06:30:56.000Z</time>
      </trkpt>
      <trkpt lat="45.597507" lon="5.892044">
        <ele>305.129241</ele>
        <time>2017-06-03T06:30:59.000Z</time>
      </trkpt>
      <trkpt lat="45.597385" lon="5.892102">
        <ele>305.220277</ele>
        <time>2017-06-03T06:31:02.000Z</time>
      </trkpt>
      <trkpt lat="45.597263" lon="5.892135">
        <ele>305.308193</ele>
        <time>2017-06-03T06:31:05.000Z</time>
      </trkpt>
      <trkpt lat="45.597140" lon="5.892160">
        <ele>305.355294</ele>
        <time>2017-06-03T06:31:08.000Z</time>
      </trkpt>
      <trkpt lat="45.597034" lon="5.892246">
        <ele>305.355516</ele>
        <time>2017-06-03T06:31:11.000Z</time>
      </trkpt>
      <trkpt lat="45.596912" lon="5.892318">
        <ele>305.355756</ele>
        <time>2017-06-03T06:31:14.000Z</time>
      </trkpt>
      <trkpt lat="45.596820" lon="5.892352">
        <ele>305.355929</ele>
        <time>2017-06-03T06:31:16.000Z</time>
      </trkpt>
      <trkpt lat="45.596733" lon="5.892379">
        <ele>305.356091</ele>
        <time>2017-06-03T06:31:18.000Z</time>
      </trkpt>
      <trkpt lat="45.596645" lon="5.892416">
        <ele>305.356258</ele>
        <time>2017-06-03T06:31:20.000Z</time>
      </trkpt>
      <trkpt lat="45.596508" lon="5.892452">
        <ele>305.356512</ele>
        <time>2017-06-03T06:31:23.000Z</time>
      </trkpt>
      <trkpt lat="45.596413" lon="5.892480">
        <ele>305.356688</ele>
        <time>2017-06-03T06:31:25.000Z</time>
      </trkpt>
      <trkpt lat="45.596287" lon="5.892494">
        <ele>305.356918</ele>
        <time>2017-06-03T06:31:28.000Z</time>
      </trkpt>
      <trkpt lat="45.596160" lon="5.892499">
        <ele>305.357149</ele>
        <time>2017-06-03T06:31:31.000Z</time>
      </trkpt>
      <trkpt lat="45.596035" lon="5.892533">
        <ele>305.357381</ele>
        <time>2017-06-03T06:31:34.000Z</time>
      </trkpt>
      <trkpt lat="45.595940" lon="5.892541">
        <ele>305.357554</ele>
        <time>2017-06-03T06:31:36.000Z</time>
      </trkpt>
      <trkpt lat="45.595844" lon="5.892551">
        <ele>305.357729</ele>
        <time>2017-06-03T06:31:38.000Z</time>
      </trkpt>
      <trkpt lat="45.595734" lon="5.892559">
        <ele>305.357930</ele>
        <time>2017-06-03T06:31:40.000Z</time>
      </trkpt>
      <trkpt lat="45.595627" lon="5.892584">
        <ele>305.358127</ele>
        <time>2017-06-03T06:31:42.000Z</time>
      </trkpt>
      <trkpt lat="45.595530" lon="5.892608">
        <ele>305.358306</ele>
        <time>2017-06-03T06:31:44.000Z</time>
      </trkpt>
      <trkpt lat="45.595436" lon="5.892636">
        <ele>305.346292</ele>
        <time>2017-06-03T06:31:46.000Z</time>
      </trkpt>
      <trkpt lat="45.595340" lon="5.892659">
        <ele>305.231251</ele>
        <time>2017-06-03T06:31:48.000Z</time>
      </trkpt>
      <trkpt lat="45.595250" lon="5.892683">
        <ele>305.123049</ele>
        <time>2017-06-03T06:31:50.000Z</time>
      </trkpt>
      <trkpt lat="45.595130" lon="5.892721">
        <ele>304.977787</ele>
        <time>2017-06-03T06:31:53.000Z</time>
      </trkpt>
      <trkpt lat="45.595024" lon="5.892787">
        <ele>304.841138</ele>
        <time>2017-06-03T06:31:56.000Z</time>
      </trkpt>
      <trkpt lat="45.594917" lon="5.892856">
        <ele>304.702402</ele>
        <time>2017-06-03T06:31:59.000Z</time>
      </trkpt>
      <trkpt lat="45.594830" lon="5.892910">
        <ele>304.590303</ele>
        <time>2017-06-03T06:32:03.000Z</time>
      </trkpt>
      <trkpt lat="45.594734" lon="5.892941">
        <ele>304.473985</ele>
        <time>2017-06-03T06:32:07.000Z</time>
      </trkpt>
      <trkpt lat="45.594612" lon="5.892931">
        <ele>304.329562</ele>
        <time>2017-06-03T06:32:10.000Z</time>
      </trkpt>
      <trkpt lat="45.594540" lon="5.892849">
        <ele>304.220753</ele>
        <time>2017-06-03T06:32:12.000Z</time>
      </trkpt>
      <trkpt lat="45.594486" lon="5.892744">
        <ele>304.112990</ele>
        <time>2017-06-03T06:32:14.000Z</time>
      </trkpt>
      <trkpt lat="45.594440" lon="5.892629">
        <ele>304.003446</ele>
        <time>2017-06-03T06:32:16.000Z</time>
      </trkpt>
      <trkpt lat="45.594380" lon="5.892508">
        <ele>303.880803</ele>
        <time>2017-06-03T06:32:18.000Z</time>
      </trkpt>
      <trkpt lat="45.594330" lon="5.892355">
        <ele>303.741156</ele>
        <time>2017-06-03T06:32:20.000Z</time>
      </trkpt>
      <trkpt lat="45.594300" lon="5.892229">
        <ele>303.631089</ele>
        <time>2017-06-03T06:32:22.000Z</time>
      </trkpt>
      <trkpt lat="45.594257" lon="5.892090">
        <ele>303.505406</ele>
        <time>2017-06-03T06:32:24.000Z</time>
      </trkpt>
      <trkpt lat="45.594185" lon="5.891929">
        <ele>303.347393</ele>
        <time>2017-06-03T06:32:27.000Z</time>
      </trkpt>
      <trkpt lat="45.594150" lon="5.891781">
        <ele>303.214706</ele>
        <time>2017-06-03T06:32:29.000Z</time>
      </trkpt>
      <trkpt lat="45.594128" lon="5.891620">
        <ele>303.046452</ele>
        <time>2017-06-03T06:32:31.000Z</time>
      </trkpt>
      <trkpt lat="45.594110" lon="5.891459">
        <ele>302.879223</ele>
        <time>2017-06-03T06:32:33.000Z</time>
      </trkpt>
      <trkpt lat="45.594086" lon="5.891293">
        <ele>302.705364</ele>
        <time>2017-06-03T06:32:35.000Z</time>
      </trkpt>
      <trkpt lat="45.594050" lon="5.891124">
        <ele>302.524170</ele>
        <time>2017-06-03T06:32:37.000Z</time>
      </trkpt>
      <trkpt lat="45.594020" lon="5.890958">
        <ele>302.348320</ele>
        <time>2017-06-03T06:32:39.000Z</time>
      </trkpt>
      <trkpt lat="45.594006" lon="5.890787">
        <ele>302.171732</ele>
        <time>2017-06-03T06:32:41.000Z</time>
      </trkpt>
      <trkpt lat="45.593987" lon="5.890617">
        <ele>301.995156</ele>
        <time>2017-06-03T06:32:43.000Z</time>
      </trkpt>
      <trkpt lat="45.593960" lon="5.890460">
        <ele>301.829332</ele>
        <time>2017-06-03T06:32:45.000Z</time>
      </trkpt>
      <trkpt lat="45.593930" lon="5.890308">
        <ele>301.667345</ele>
        <time>2017-06-03T06:32:47.000Z</time>
      </trkpt>
      <trkpt lat="45.593910" lon="5.890150">
        <ele>301.502657</ele>
        <time>2017-06-03T06:32:49.000Z</time>
      </trkpt>
      <trkpt lat="45.593890" lon="5.890014">
        <ele>301.360117</ele>
        <time>2017-06-03T06:32:51.000Z</time>
      </trkpt>
      <trkpt lat="45.593870" lon="5.889846">
        <ele>301.185326</ele>
        <time>2017-06-03T06:32:54.000Z</time>
      </trkpt>
      <trkpt lat="45.593845" lon="5.889686">
        <ele>301.017175</ele>
        <time>2017-06-03T06:32:57.000Z</time>
      </trkpt>
      <trkpt lat="45.593826" lon="5.889512">
        <ele>300.836546</ele>
        <time>2017-06-03T06:33:00.000Z</time>
      </trkpt>
      <trkpt lat="45.593796" lon="5.889325">
        <ele>300.639767</ele>
        <time>2017-06-03T06:33:03.000Z</time>
      </trkpt>
      <trkpt lat="45.593750" lon="5.889149">
        <ele>300.798785</ele>
        <time>2017-06-03T06:33:06.000Z</time>
      </trkpt>
      <trkpt lat="45.593800" lon="5.889039">
        <ele>300.981391</ele>
        <time>2017-06-03T06:33:10.000Z</time>
      </trkpt>
      <trkpt lat="45.593857" lon="5.888876">
        <ele>301.235064</ele>
        <time>2017-06-03T06:34:58.000Z</time>
      </trkpt>
      <trkpt lat="45.593790" lon="5.888738">
        <ele>301.468890</ele>
        <time>2017-06-03T06:35:04.000Z</time>
      </trkpt>
      <trkpt lat="45.593740" lon="5.888622">
        <ele>301.658554</ele>
        <time>2017-06-03T06:35:07.000Z</time>
      </trkpt>
      <trkpt lat="45.593708" lon="5.888464">
        <ele>301.887537</ele>
        <time>2017-06-03T06:35:10.000Z</time>
      </trkpt>
      <trkpt lat="45.593685" lon="5.888282">
        <ele>302.145002</ele>
        <time>2017-06-03T06:35:13.000Z</time>
      </trkpt>
      <trkpt lat="45.593666" lon="5.888146">
        <ele>302.338066</ele>
        <time>2017-06-03T06:35:15.000Z</time>
      </trkpt>
      <trkpt lat="45.593630" lon="5.888008">
        <ele>302.543095</ele>
        <time>2017-06-03T06:35:17.000Z</time>
      </trkpt>
      <trkpt lat="45.593594" lon="5.887881">
        <ele>302.733851</ele>
        <time>2017-06-03T06:35:19.000Z</time>
      </trkpt>
      <trkpt lat="45.593580" lon="5.887744">
        <ele>302.926595</ele>
        <time>2017-06-03T06:35:21.000Z</time>
      </trkpt>
      <trkpt lat="45.593560" lon="5.887602">
        <ele>303.128241</ele>
        <time>2017-06-03T06:35:23.000Z</time>
      </trkpt>
      <trkpt lat="45.593536" lon="5.887478">
        <ele>303.307346</ele>
        <time>2017-06-03T06:35:25.000Z</time>
      </trkpt>
      <trkpt lat="45.593483" lon="5.887342">
        <ele>303.524056</ele>
        <time>2017-06-03T06:35:28.000Z</time>
      </trkpt>
      <trkpt lat="45.593426" lon="5.887233">
        <ele>303.713490</ele>
        <time>2017-06-03T06:35:31.000Z</time>
      </trkpt>
      <trkpt lat="45.593380" lon="5.887103">
        <ele>303.916290</ele>
        <time>2017-06-03T06:35:36.000Z</time>
      </trkpt>
      <trkpt lat="45.593414" lon="5.886975">
        <ele>304.106888</ele>
        <time>2017-06-03T06:35:42.000Z</time>
      </trkpt>
      <trkpt lat="45.593388" lon="5.886826">
        <ele>304.255969</ele>
        <time>2017-06-03T06:35:47.000Z</time>
      </trkpt>
      <trkpt lat="45.593346" lon="5.886666">
        <ele>304.388471</ele>
        <time>2017-06-03T06:35:51.000Z</time>
      </trkpt>
      <trkpt lat="45.593395" lon="5.886513">
        <ele>304.518939</ele>
        <time>2017-06-03T06:35:55.000Z</time>
      </trkpt>
      <trkpt lat="45.593445" lon="5.886385">
        <ele>304.632604</ele>
        <time>2017-06-03T06:35:58.000Z</time>
      </trkpt>
      <trkpt lat="45.593450" lon="5.886232">
        <ele>304.751366</ele>
        <time>2017-06-03T06:36:01.000Z</time>
      </trkpt>
      <trkpt lat="45.593420" lon="5.886066">
        <ele>304.884302</ele>
        <time>2017-06-03T06:36:04.000Z</time>
      </trkpt>
      <trkpt lat="45.593384" lon="5.885898">
        <ele>305.020536</ele>
        <time>2017-06-03T06:36:07.000Z</time>
      </trkpt>
      <trkpt lat="45.593350" lon="5.885737">
        <ele>305.150933</ele>
        <time>2017-06-03T06:36:10.000Z</time>
      </trkpt>
      <trkpt lat="45.593310" lon="5.885581">
        <ele>305.279757</ele>
        <time>2017-06-03T06:36:13.000Z</time>
      </trkpt>
      <trkpt lat="45.593266" lon="5.885435">
        <ele>305.403015</ele>
        <time>2017-06-03T06:36:16.000Z</time>
      </trkpt>
      <trkpt lat="45.593216" lon="5.885285">
        <ele>305.531844</ele>
        <time>2017-06-03T06:36:19.000Z</time>
      </trkpt>
      <trkpt lat="45.593160" lon="5.885140">
        <ele>305.660261</ele>
        <time>2017-06-03T06:36:22.000Z</time>
      </trkpt>
      <trkpt lat="45.593094" lon="5.884995">
        <ele>305.794385</ele>
        <time>2017-06-03T06:36:25.000Z</time>
      </trkpt>
      <trkpt lat="45.593030" lon="5.884847">
        <ele>305.929286</ele>
        <time>2017-06-03T06:36:28.000Z</time>
      </trkpt>
      <trkpt lat="45.592968" lon="5.884681">
        <ele>306.075186</ele>
        <time>2017-06-03T06:36:31.000Z</time>
      </trkpt>
      <trkpt lat="45.592910" lon="5.884530">
        <ele>306.210956</ele>
        <time>2017-06-03T06:36:34.000Z</time>
      </trkpt>
      <trkpt lat="45.592860" lon="5.884383">
        <ele>306.344499</ele>
        <time>2017-06-03T06:36:37.000Z</time>
      </trkpt>
      <trkpt lat="45.592785" lon="5.884266">
        <ele>306.474142</ele>
        <time>2017-06-03T06:36:40.000Z</time>
      </trkpt>
      <trkpt lat="45.592686" lon="5.884284">
        <ele>306.590669</ele>
        <time>2017-06-03T06:36:43.000Z</time>
      </trkpt>
      <trkpt lat="45.592570" lon="5.884316">
        <ele>306.728614</ele>
        <time>2017-06-03T06:36:46.000Z</time>
      </trkpt>
      <trkpt lat="45.592520" lon="5.884206">
        <ele>306.835787</ele>
        <time>2017-06-03T06:36:49.000Z</time>
      </trkpt>
      <trkpt lat="45.592510" lon="5.884040">
        <ele>306.971920</ele>
        <time>2017-06-03T06:36:52.000Z</time>
      </trkpt>
      <trkpt lat="45.592480" lon="5.883870">
        <ele>307.115168</ele>
        <time>2017-06-03T06:36:55.000Z</time>
      </trkpt>
      <trkpt lat="45.592450" lon="5.883700">
        <ele>307.258416</ele>
        <time>2017-06-03T06:36:58.000Z</time>
      </trkpt>
      <trkpt lat="45.592426" lon="5.883531">
        <ele>307.399314</ele>
        <time>2017-06-03T06:37:01.000Z</time>
      </trkpt>
      <trkpt lat="45.592434" lon="5.883360">
        <ele>307.539342</ele>
        <time>2017-06-03T06:37:04.000Z</time>
      </trkpt>
      <trkpt lat="45.592420" lon="5.883195">
        <ele>307.675144</ele>
        <time>2017-06-03T06:37:07.000Z</time>
      </trkpt>
      <trkpt lat="45.592390" lon="5.883021">
        <ele>307.821563</ele>
        <time>2017-06-03T06:37:10.000Z</time>
      </trkpt>
      <trkpt lat="45.592350" lon="5.882841">
        <ele>307.975872</ele>
        <time>2017-06-03T06:37:13.000Z</time>
      </trkpt>
      <trkpt lat="45.592310" lon="5.882674">
        <ele>308.120092</ele>
        <time>2017-06-03T06:37:16.000Z</time>
      </trkpt>
      <trkpt lat="45.592280" lon="5.882492">
        <ele>308.272596</ele>
        <time>2017-06-03T06:37:19.000Z</time>
      </trkpt>
      <trkpt lat="45.592247" lon="5.882324">
        <ele>308.407522</ele>
        <time>2017-06-03T06:37:22.000Z</time>
      </trkpt>
      <trkpt lat="45.592210" lon="5.882160">
        <ele>308.540763</ele>
        <time>2017-06-03T06:37:25.000Z</time>
      </trkpt>
      <trkpt lat="45.592175" lon="5.881992">
        <ele>308.676303</ele>
        <time>2017-06-03T06:37:28.000Z</time>
      </trkpt>
      <trkpt lat="45.592133" lon="5.881823">
        <ele>308.814978</ele>
        <time>2017-06-03T06:37:31.000Z</time>
      </trkpt>
      <trkpt lat="45.592106" lon="5.881652">
        <ele>308.950528</ele>
        <time>2017-06-03T06:37:34.000Z</time>
      </trkpt>
      <trkpt lat="45.592075" lon="5.881481">
        <ele>309.087118</ele>
        <time>2017-06-03T06:37:37.000Z</time>
      </trkpt>
      <trkpt lat="45.592056" lon="5.881301">
        <ele>309.227878</ele>
        <time>2017-06-03T06:37:40.000Z</time>
      </trkpt>
      <trkpt lat="45.592037" lon="5.881157">
        <ele>309.341187</ele>
        <time>2017-06-03T06:37:43.000Z</time>
      </trkpt>
      <trkpt lat="45.592010" lon="5.881026">
        <ele>309.446785</ele>
        <time>2017-06-03T06:37:46.000Z</time>
      </trkpt>
      <trkpt lat="45.591972" lon="5.880869">
        <ele>309.575242</ele>
        <time>2017-06-03T06:37:50.000Z</time>
      </trkpt>
      <trkpt lat="45.591934" lon="5.880747">
        <ele>309.678502</ele>
        <time>2017-06-03T06:37:53.000Z</time>
      </trkpt>
      <trkpt lat="45.591835" lon="5.880668">
        <ele>309.803798</ele>
        <time>2017-06-03T06:37:57.000Z</time>
      </trkpt>
      <trkpt lat="45.591763" lon="5.880580">
        <ele>309.908489</ele>
        <time>2017-06-03T06:38:07.000Z</time>
      </trkpt>
      <trkpt lat="45.591700" lon="5.880435">
        <ele>310.040465</ele>
        <time>2017-06-03T06:38:12.000Z</time>
      </trkpt>
      <trkpt lat="45.591590" lon="5.880481">
        <ele>310.167114</ele>
        <time>2017-06-03T06:38:16.000Z</time>
      </trkpt>
      <trkpt lat="45.591496" lon="5.880585">
        <ele>310.219072</ele>
        <time>2017-06-03T06:38:19.000Z</time>
      </trkpt>
      <trkpt lat="45.591393" lon="5.880681">
        <ele>310.104784</ele>
        <time>2017-06-03T06:38:22.000Z</time>
      </trkpt>
      <trkpt lat="45.591286" lon="5.880789">
        <ele>309.983036</ele>
        <time>2017-06-03T06:38:25.000Z</time>
      </trkpt>
      <trkpt lat="45.591167" lon="5.880882">
        <ele>309.856980</ele>
        <time>2017-06-03T06:38:28.000Z</time>
      </trkpt>
      <trkpt lat="45.591087" lon="5.880947">
        <ele>309.771452</ele>
        <time>2017-06-03T06:38:30.000Z</time>
      </trkpt>
      <trkpt lat="45.591007" lon="5.881012">
        <ele>309.685923</ele>
        <time>2017-06-03T06:38:32.000Z</time>
      </trkpt>
      <trkpt lat="45.590920" lon="5.881078">
        <ele>309.594379</ele>
        <time>2017-06-03T06:38:34.000Z</time>
      </trkpt>
      <trkpt lat="45.590840" lon="5.881132">
        <ele>309.512151</ele>
        <time>2017-06-03T06:38:36.000Z</time>
      </trkpt>
      <trkpt lat="45.590750" lon="5.881188">
        <ele>309.420921</ele>
        <time>2017-06-03T06:38:38.000Z</time>
      </trkpt>
      <trkpt lat="45.590668" lon="5.881262">
        <ele>309.330787</ele>
        <time>2017-06-03T06:38:40.000Z</time>
      </trkpt>
      <trkpt lat="45.590580" lon="5.881319">
        <ele>309.240991</ele>
        <time>2017-06-03T06:38:42.000Z</time>
      </trkpt>
      <trkpt lat="45.590454" lon="5.881382">
        <ele>309.116927</ele>
        <time>2017-06-03T06:38:45.000Z</time>
      </trkpt>
      <trkpt lat="45.590350" lon="5.881387">
        <ele>309.020216</ele>
        <time>2017-06-03T06:38:47.000Z</time>
      </trkpt>
      <trkpt lat="45.590270" lon="5.881475">
        <ele>308.926389</ele>
        <time>2017-06-03T06:38:50.000Z</time>
      </trkpt>
      <trkpt lat="45.590160" lon="5.881560">
        <ele>308.810166</ele>
        <time>2017-06-03T06:38:53.000Z</time>
      </trkpt>
      <trkpt lat="45.590076" lon="5.881612">
        <ele>308.725087</ele>
        <time>2017-06-03T06:38:55.000Z</time>
      </trkpt>
      <trkpt lat="45.589980" lon="5.881664">
        <ele>308.629671</ele>
        <time>2017-06-03T06:38:57.000Z</time>
      </trkpt>
      <trkpt lat="45.589893" lon="5.881705">
        <ele>308.567312</ele>
        <time>2017-06-03T06:38:59.000Z</time>
      </trkpt>
      <trkpt lat="45.589798" lon="5.881750">
        <ele>308.528381</ele>
        <time>2017-06-03T06:39:01.000Z</time>
      </trkpt>
      <trkpt lat="45.589706" lon="5.881803">
        <ele>308.489795</ele>
        <time>2017-06-03T06:39:03.000Z</time>
      </trkpt>
      <trkpt lat="45.589607" lon="5.881843">
        <ele>308.449775</ele>
        <time>2017-06-03T06:39:05.000Z</time>
      </trkpt>
      <trkpt lat="45.589504" lon="5.881877">
        <ele>308.408654</ele>
        <time>2017-06-03T06:39:07.000Z</time>
      </trkpt>
      <trkpt lat="45.589400" lon="5.881925">
        <ele>308.366142</ele>
        <time>2017-06-03T06:39:09.000Z</time>
      </trkpt>
      <trkpt lat="45.589302" lon="5.881980">
        <ele>308.325186</ele>
        <time>2017-06-03T06:39:11.000Z</time>
      </trkpt>
      <trkpt lat="45.589203" lon="5.882031">
        <ele>308.284251</ele>
        <time>2017-06-03T06:39:13.000Z</time>
      </trkpt>
      <trkpt lat="45.589110" lon="5.882081">
        <ele>308.245599</ele>
        <time>2017-06-03T06:39:15.000Z</time>
      </trkpt>
      <trkpt lat="45.589016" lon="5.882134">
        <ele>308.206291</ele>
        <time>2017-06-03T06:39:17.000Z</time>
      </trkpt>
      <trkpt lat="45.588920" lon="5.882194">
        <ele>308.165532</ele>
        <time>2017-06-03T06:39:19.000Z</time>
      </trkpt>
      <trkpt lat="45.588825" lon="5.882258">
        <ele>308.124677</ele>
        <time>2017-06-03T06:39:21.000Z</time>
      </trkpt>
      <trkpt lat="45.588734" lon="5.882326">
        <ele>308.084732</ele>
        <time>2017-06-03T06:39:23.000Z</time>
      </trkpt>
      <trkpt lat="45.588640" lon="5.882373">
        <ele>308.045993</ele>
        <time>2017-06-03T06:39:25.000Z</time>
      </trkpt>
      <trkpt lat="45.588535" lon="5.882482">
        <ele>307.995509</ele>
        <time>2017-06-03T06:39:28.000Z</time>
      </trkpt>
      <trkpt lat="45.588430" lon="5.882595">
        <ele>307.944377</ele>
        <time>2017-06-03T06:39:31.000Z</time>
      </trkpt>
      <trkpt lat="45.588340" lon="5.882648">
        <ele>307.906512</ele>
        <time>2017-06-03T06:39:33.000Z</time>
      </trkpt>
      <trkpt lat="45.588257" lon="5.882708">
        <ele>307.875122</ele>
        <time>2017-06-03T06:39:35.000Z</time>
      </trkpt>
      <trkpt lat="45.588173" lon="5.882764">
        <ele>307.851652</ele>
        <time>2017-06-03T06:39:37.000Z</time>
      </trkpt>
      <trkpt lat="45.588093" lon="5.882830">
        <ele>307.828261</ele>
        <time>2017-06-03T06:39:39.000Z</time>
      </trkpt>
      <trkpt lat="45.588010" lon="5.882895">
        <ele>307.804296</ele>
        <time>2017-06-03T06:39:41.000Z</time>
      </trkpt>
      <trkpt lat="45.587920" lon="5.882951">
        <ele>307.779441</ele>
        <time>2017-06-03T06:39:43.000Z</time>
      </trkpt>
      <trkpt lat="45.587830" lon="5.883010">
        <ele>307.754368</ele>
        <time>2017-06-03T06:39:45.000Z</time>
      </trkpt>
      <trkpt lat="45.587740" lon="5.883077">
        <ele>307.728673</ele>
        <time>2017-06-03T06:39:47.000Z</time>
      </trkpt>
      <trkpt lat="45.587654" lon="5.883141">
        <ele>307.704121</ele>
        <time>2017-06-03T06:39:49.000Z</time>
      </trkpt>
      <trkpt lat="45.587566" lon="5.883202">
        <ele>307.679355</ele>
        <time>2017-06-03T06:39:51.000Z</time>
      </trkpt>
      <trkpt lat="45.587475" lon="5.883255">
        <ele>307.654473</ele>
        <time>2017-06-03T06:39:53.000Z</time>
      </trkpt>
      <trkpt lat="45.587383" lon="5.883313">
        <ele>307.629011</ele>
        <time>2017-06-03T06:39:55.000Z</time>
      </trkpt>
      <trkpt lat="45.587296" lon="5.883373">
        <ele>307.604551</ele>
        <time>2017-06-03T06:39:57.000Z</time>
      </trkpt>
      <trkpt lat="45.587208" lon="5.883434">
        <ele>307.579785</ele>
        <time>2017-06-03T06:39:59.000Z</time>
      </trkpt>
      <trkpt lat="45.587120" lon="5.883498">
        <ele>307.554783</ele>
        <time>2017-06-03T06:40:01.000Z</time>
      </trkpt>
      <trkpt lat="45.587032" lon="5.883562">
        <ele>307.529781</ele>
        <time>2017-06-03T06:40:03.000Z</time>
      </trkpt>
      <trkpt lat="45.586930" lon="5.883634">
        <ele>307.500974</ele>
        <time>2017-06-03T06:40:06.000Z</time>
      </trkpt>
      <trkpt lat="45.586850" lon="5.883691">
        <ele>307.478339</ele>
        <time>2017-06-03T06:40:10.000Z</time>
      </trkpt>
      <trkpt lat="45.586746" lon="5.883761">
        <ele>307.449231</ele>
        <time>2017-06-03T06:40:15.000Z</time>
      </trkpt>
      <trkpt lat="45.586666" lon="5.883818">
        <ele>307.454685</ele>
        <time>2017-06-03T06:40:19.000Z</time>
      </trkpt>
      <trkpt lat="45.586594" lon="5.883904">
        <ele>307.759126</ele>
        <time>2017-06-03T06:41:39.000Z</time>
      </trkpt>
      <trkpt lat="45.586624" lon="5.884034">
        <ele>308.069909</ele>
        <time>2017-06-03T06:41:45.000Z</time>
      </trkpt>
      <trkpt lat="45.586716" lon="5.884063">
        <ele>308.375551</ele>
        <time>2017-06-03T06:41:48.000Z</time>
      </trkpt>
      <trkpt lat="45.586810" lon="5.884059">
        <ele>308.680641</ele>
        <time>2017-06-03T06:41:51.000Z</time>
      </trkpt>
      <trkpt lat="45.586926" lon="5.884069">
        <ele>309.057652</ele>
        <time>2017-06-03T06:41:55.000Z</time>
      </trkpt>
      <trkpt lat="45.587013" lon="5.884006">
        <ele>309.374071</ele>
        <time>2017-06-03T06:41:59.000Z</time>
      </trkpt>
      <trkpt lat="45.587097" lon="5.883946">
        <ele>309.678734</ele>
        <time>2017-06-03T06:42:04.000Z</time>
      </trkpt>
      <trkpt lat="45.587196" lon="5.883889">
        <ele>310.025001</ele>
        <time>2017-06-03T06:43:44.000Z</time>
      </trkpt>
      <trkpt lat="45.587060" lon="5.883946">
        <ele>310.484798</ele>
        <time>2017-06-03T07:23:23.000Z</time>
      </trkpt>
      <trkpt lat="45.586967" lon="5.883970">
        <ele>310.791390</ele>
        <time>2017-06-03T07:25:59.000Z</time>
      </trkpt>
      <trkpt lat="45.586876" lon="5.883991">
        <ele>311.090437</ele>
        <time>2017-06-03T07:26:03.000Z</time>
      </trkpt>
      <trkpt lat="45.586773" lon="5.884029">
        <ele>311.435547</ele>
        <time>2017-06-03T07:26:09.000Z</time>
      </trkpt>
      <trkpt lat="45.586680" lon="5.884029">
        <ele>311.737257</ele>
        <time>2017-06-03T07:26:14.000Z</time>
      </trkpt>
      <trkpt lat="45.586597" lon="5.884116">
        <ele>312.071204</ele>
        <time>2017-06-03T07:26:20.000Z</time>
      </trkpt>
      <trkpt lat="45.586506" lon="5.884052">
        <ele>312.400248</ele>
        <time>2017-06-03T07:26:26.000Z</time>
      </trkpt>
      <trkpt lat="45.586414" lon="5.884017">
        <ele>312.709111</ele>
        <time>2017-06-03T07:26:32.000Z</time>
      </trkpt>
      <trkpt lat="45.586310" lon="5.884051">
        <ele>313.055225</ele>
        <time>2017-06-03T07:26:37.000Z</time>
      </trkpt>
      <trkpt lat="45.586224" lon="5.884120">
        <ele>313.440500</ele>
        <time>2017-06-03T07:26:40.000Z</time>
      </trkpt>
      <trkpt lat="45.586132" lon="5.884183">
        <ele>313.965447</ele>
        <time>2017-06-03T07:26:43.000Z</time>
      </trkpt>
      <trkpt lat="45.586030" lon="5.884262">
        <ele>314.562438</ele>
        <time>2017-06-03T07:26:46.000Z</time>
      </trkpt>
      <trkpt lat="45.585926" lon="5.884345">
        <ele>315.175389</ele>
        <time>2017-06-03T07:26:49.000Z</time>
      </trkpt>
      <trkpt lat="45.585827" lon="5.884421">
        <ele>315.753665</ele>
        <time>2017-06-03T07:26:52.000Z</time>
      </trkpt>
      <trkpt lat="45.585724" lon="5.884492">
        <ele>316.342108</ele>
        <time>2017-06-03T07:26:55.000Z</time>
      </trkpt>
      <trkpt lat="45.585613" lon="5.884573">
        <ele>316.983439</ele>
        <time>2017-06-03T07:26:58.000Z</time>
      </trkpt>
      <trkpt lat="45.585530" lon="5.884626">
        <ele>317.451228</ele>
        <time>2017-06-03T07:27:00.000Z</time>
      </trkpt>
      <trkpt lat="45.585415" lon="5.884685">
        <ele>318.079957</ele>
        <time>2017-06-03T07:27:03.000Z</time>
      </trkpt>
      <trkpt lat="45.585316" lon="5.884760">
        <ele>318.656538</ele>
        <time>2017-06-03T07:27:06.000Z</time>
      </trkpt>
      <trkpt lat="45.585205" lon="5.884838">
        <ele>319.293029</ele>
        <time>2017-06-03T07:27:09.000Z</time>
      </trkpt>
      <trkpt lat="45.585102" lon="5.884919">
        <ele>319.897990</ele>
        <time>2017-06-03T07:27:12.000Z</time>
      </trkpt>
      <trkpt lat="45.584988" lon="5.884993">
        <ele>320.542279</ele>
        <time>2017-06-03T07:27:15.000Z</time>
      </trkpt>
      <trkpt lat="45.584877" lon="5.885084">
        <ele>321.200772</ele>
        <time>2017-06-03T07:27:18.000Z</time>
      </trkpt>
      <trkpt lat="45.584780" lon="5.885179">
        <ele>321.805884</ele>
        <time>2017-06-03T07:27:21.000Z</time>
      </trkpt>
      <trkpt lat="45.584670" lon="5.885266">
        <ele>322.452822</ele>
        <time>2017-06-03T07:27:24.000Z</time>
      </trkpt>
      <trkpt lat="45.584553" lon="5.885349">
        <ele>322.977966</ele>
        <time>2017-06-03T07:27:27.000Z</time>
      </trkpt>
      <trkpt lat="45.584440" lon="5.885434">
        <ele>323.475700</ele>
        <time>2017-06-03T07:27:30.000Z</time>
      </trkpt>
      <trkpt lat="45.584343" lon="5.885535">
        <ele>323.943504</ele>
        <time>2017-06-03T07:27:33.000Z</time>
      </trkpt>
      <trkpt lat="45.584230" lon="5.885610">
        <ele>324.429132</ele>
        <time>2017-06-03T07:27:36.000Z</time>
      </trkpt>
      <trkpt lat="45.584126" lon="5.885686">
        <ele>324.884423</ele>
        <time>2017-06-03T07:27:39.000Z</time>
      </trkpt>
      <trkpt lat="45.584026" lon="5.885768">
        <ele>325.333808</ele>
        <time>2017-06-03T07:27:42.000Z</time>
      </trkpt>
      <trkpt lat="45.583946" lon="5.885827">
        <ele>325.684703</ele>
        <time>2017-06-03T07:27:44.000Z</time>
      </trkpt>
      <trkpt lat="45.583830" lon="5.885918">
        <ele>326.200489</ele>
        <time>2017-06-03T07:27:47.000Z</time>
      </trkpt>
      <trkpt lat="45.583750" lon="5.885978">
        <ele>326.552644</ele>
        <time>2017-06-03T07:27:49.000Z</time>
      </trkpt>
      <trkpt lat="45.583640" lon="5.886053">
        <ele>327.027694</ele>
        <time>2017-06-03T07:27:52.000Z</time>
      </trkpt>
      <trkpt lat="45.583530" lon="5.886124">
        <ele>327.498148</ele>
        <time>2017-06-03T07:27:55.000Z</time>
      </trkpt>
      <trkpt lat="45.583416" lon="5.886182">
        <ele>327.969805</ele>
        <time>2017-06-03T07:27:58.000Z</time>
      </trkpt>
      <trkpt lat="45.583305" lon="5.886231">
        <ele>328.422619</ele>
        <time>2017-06-03T07:28:01.000Z</time>
      </trkpt>
      <trkpt lat="45.583195" lon="5.886261">
        <ele>328.859098</ele>
        <time>2017-06-03T07:28:04.000Z</time>
      </trkpt>
      <trkpt lat="45.583088" lon="5.886303">
        <ele>329.291595</ele>
        <time>2017-06-03T07:28:07.000Z</time>
      </trkpt>
      <trkpt lat="45.583000" lon="5.886371">
        <ele>329.376559</ele>
        <time>2017-06-03T07:28:10.000Z</time>
      </trkpt>
      <trkpt lat="45.582897" lon="5.886407">
        <ele>328.961995</ele>
        <time>2017-06-03T07:28:13.000Z</time>
      </trkpt>
      <trkpt lat="45.582806" lon="5.886468">
        <ele>328.569012</ele>
        <time>2017-06-03T07:28:16.000Z</time>
      </trkpt>
      <trkpt lat="45.582714" lon="5.886547">
        <ele>328.149369</ele>
        <time>2017-06-03T07:28:19.000Z</time>
      </trkpt>
      <trkpt lat="45.582623" lon="5.886631">
        <ele>327.725806</ele>
        <time>2017-06-03T07:28:22.000Z</time>
      </trkpt>
      <trkpt lat="45.582535" lon="5.886704">
        <ele>327.327978</ele>
        <time>2017-06-03T07:28:25.000Z</time>
      </trkpt>
      <trkpt lat="45.582447" lon="5.886774">
        <ele>326.934207</ele>
        <time>2017-06-03T07:28:28.000Z</time>
      </trkpt>
      <trkpt lat="45.582355" lon="5.886843">
        <ele>326.527981</ele>
        <time>2017-06-03T07:28:31.000Z</time>
      </trkpt>
      <trkpt lat="45.582260" lon="5.886921">
        <ele>326.099611</ele>
        <time>2017-06-03T07:28:34.000Z</time>
      </trkpt>
      <trkpt lat="45.582176" lon="5.887013">
        <ele>325.685819</ele>
        <time>2017-06-03T07:28:37.000Z</time>
      </trkpt>
      <trkpt lat="45.582096" lon="5.887102">
        <ele>325.289420</ele>
        <time>2017-06-03T07:28:40.000Z</time>
      </trkpt>
      <trkpt lat="45.582012" lon="5.887181">
        <ele>324.896254</ele>
        <time>2017-06-03T07:28:43.000Z</time>
      </trkpt>
      <trkpt lat="45.581910" lon="5.887228">
        <ele>324.477248</ele>
        <time>2017-06-03T07:28:46.000Z</time>
      </trkpt>
      <trkpt lat="45.581818" lon="5.887256">
        <ele>324.109493</ele>
        <time>2017-06-03T07:28:49.000Z</time>
      </trkpt>
      <trkpt lat="45.581730" lon="5.887299">
        <ele>323.745883</ele>
        <time>2017-06-03T07:28:52.000Z</time>
      </trkpt>
      <trkpt lat="45.581646" lon="5.887365">
        <ele>323.371094</ele>
        <time>2017-06-03T07:28:55.000Z</time>
      </trkpt>
      <trkpt lat="45.581562" lon="5.887483">
        <ele>322.910543</ele>
        <time>2017-06-03T07:28:59.000Z</time>
      </trkpt>
      <trkpt lat="45.581470" lon="5.887549">
        <ele>322.508065</ele>
        <time>2017-06-03T07:29:02.000Z</time>
      </trkpt>
      <trkpt lat="45.581356" lon="5.887583">
        <ele>322.525611</ele>
        <time>2017-06-03T07:29:05.000Z</time>
      </trkpt>
      <trkpt lat="45.581240" lon="5.887575">
        <ele>322.554563</ele>
        <time>2017-06-03T07:29:08.000Z</time>
      </trkpt>
      <trkpt lat="45.581120" lon="5.887568">
        <ele>322.584504</ele>
        <time>2017-06-03T07:29:11.000Z</time>
      </trkpt>
      <trkpt lat="45.581000" lon="5.887556">
        <ele>322.614493</ele>
        <time>2017-06-03T07:29:14.000Z</time>
      </trkpt>
      <trkpt lat="45.580883" lon="5.887552">
        <ele>322.643670</ele>
        <time>2017-06-03T07:29:17.000Z</time>
      </trkpt>
      <trkpt lat="45.580750" lon="5.887540">
        <ele>322.676893</ele>
        <time>2017-06-03T07:29:20.000Z</time>
      </trkpt>
      <trkpt lat="45.580620" lon="5.887530">
        <ele>322.709349</ele>
        <time>2017-06-03T07:29:23.000Z</time>
      </trkpt>
      <trkpt lat="45.580530" lon="5.887521">
        <ele>322.731840</ele>
        <time>2017-06-03T07:29:25.000Z</time>
      </trkpt>
      <trkpt lat="45.580433" lon="5.887509">
        <ele>322.756113</ele>
        <time>2017-06-03T07:29:27.000Z</time>
      </trkpt>
      <trkpt lat="45.580334" lon="5.887509">
        <ele>322.780794</ele>
        <time>2017-06-03T07:29:29.000Z</time>
      </trkpt>
      <trkpt lat="45.580240" lon="5.887510">
        <ele>322.804228</ele>
        <time>2017-06-03T07:29:31.000Z</time>
      </trkpt>
      <trkpt lat="45.580143" lon="5.887503">
        <ele>322.828441</ele>
        <time>2017-06-03T07:29:33.000Z</time>
      </trkpt>
      <trkpt lat="45.580050" lon="5.887493">
        <ele>322.851692</ele>
        <time>2017-06-03T07:29:35.000Z</time>
      </trkpt>
      <trkpt lat="45.579926" lon="5.887479">
        <ele>322.882701</ele>
        <time>2017-06-03T07:29:38.000Z</time>
      </trkpt>
      <trkpt lat="45.579820" lon="5.887468">
        <ele>322.909197</ele>
        <time>2017-06-03T07:29:41.000Z</time>
      </trkpt>
      <trkpt lat="45.579704" lon="5.887466">
        <ele>322.938118</ele>
        <time>2017-06-03T07:29:44.000Z</time>
      </trkpt>
      <trkpt lat="45.579580" lon="5.887471">
        <ele>322.991364</ele>
        <time>2017-06-03T07:29:47.000Z</time>
      </trkpt>
      <trkpt lat="45.579445" lon="5.887461">
        <ele>323.057245</ele>
        <time>2017-06-03T07:29:50.000Z</time>
      </trkpt>
      <trkpt lat="45.579315" lon="5.887460">
        <ele>323.120602</ele>
        <time>2017-06-03T07:29:53.000Z</time>
      </trkpt>
      <trkpt lat="45.579224" lon="5.887448">
        <ele>323.165140</ele>
        <time>2017-06-03T07:29:55.000Z</time>
      </trkpt>
      <trkpt lat="45.579130" lon="5.887432">
        <ele>323.211275</ele>
        <time>2017-06-03T07:29:57.000Z</time>
      </trkpt>
      <trkpt lat="45.579037" lon="5.887433">
        <ele>323.256600</ele>
        <time>2017-06-03T07:29:59.000Z</time>
      </trkpt>
      <trkpt lat="45.578910" lon="5.887435">
        <ele>323.318498</ele>
        <time>2017-06-03T07:30:02.000Z</time>
      </trkpt>
      <trkpt lat="45.578777" lon="5.887421">
        <ele>323.383492</ele>
        <time>2017-06-03T07:30:05.000Z</time>
      </trkpt>
      <trkpt lat="45.578650" lon="5.887403">
        <ele>323.445690</ele>
        <time>2017-06-03T07:30:08.000Z</time>
      </trkpt>
      <trkpt lat="45.578526" lon="5.887391">
        <ele>323.506260</ele>
        <time>2017-06-03T07:30:11.000Z</time>
      </trkpt>
      <trkpt lat="45.578392" lon="5.887373">
        <ele>323.571853</ele>
        <time>2017-06-03T07:30:14.000Z</time>
      </trkpt>
      <trkpt lat="45.578300" lon="5.887361">
        <ele>323.616876</ele>
        <time>2017-06-03T07:30:16.000Z</time>
      </trkpt>
      <trkpt lat="45.578190" lon="5.887353">
        <ele>323.670555</ele>
        <time>2017-06-03T07:30:19.000Z</time>
      </trkpt>
      <trkpt lat="45.578087" lon="5.887343">
        <ele>323.720868</ele>
        <time>2017-06-03T07:30:22.000Z</time>
      </trkpt>
      <trkpt lat="45.577980" lon="5.887341">
        <ele>323.773019</ele>
        <time>2017-06-03T07:30:25.000Z</time>
      </trkpt>
      <trkpt lat="45.577860" lon="5.887322">
        <ele>323.836912</ele>
        <time>2017-06-03T07:30:28.000Z</time>
      </trkpt>
      <trkpt lat="45.577747" lon="5.887312">
        <ele>323.921075</ele>
        <time>2017-06-03T07:30:31.000Z</time>
      </trkpt>
      <trkpt lat="45.577633" lon="5.887346">
        <ele>324.007648</ele>
        <time>2017-06-03T07:30:34.000Z</time>
      </trkpt>
      <trkpt lat="45.577507" lon="5.887368">
        <ele>324.102012</ele>
        <time>2017-06-03T07:30:37.000Z</time>
      </trkpt>
      <trkpt lat="45.577377" lon="5.887411">
        <ele>324.201209</ele>
        <time>2017-06-03T07:30:40.000Z</time>
      </trkpt>
      <trkpt lat="45.577274" lon="5.887476">
        <ele>324.284915</ele>
        <time>2017-06-03T07:30:43.000Z</time>
      </trkpt>
      <trkpt lat="45.577168" lon="5.887555">
        <ele>324.373791</ele>
        <time>2017-06-03T07:30:46.000Z</time>
      </trkpt>
      <trkpt lat="45.577050" lon="5.887624">
        <ele>324.468574</ele>
        <time>2017-06-03T07:30:49.000Z</time>
      </trkpt>
      <trkpt lat="45.576930" lon="5.887708">
        <ele>324.567913</ele>
        <time>2017-06-03T07:30:52.000Z</time>
      </trkpt>
      <trkpt lat="45.576810" lon="5.887770">
        <ele>324.662773</ele>
        <time>2017-06-03T07:30:55.000Z</time>
      </trkpt>
      <trkpt lat="45.576687" lon="5.887832">
        <ele>324.759734</ele>
        <time>2017-06-03T07:30:58.000Z</time>
      </trkpt>
      <trkpt lat="45.576603" lon="5.887874">
        <ele>324.825892</ele>
        <time>2017-06-03T07:31:00.000Z</time>
      </trkpt>
      <trkpt lat="45.576510" lon="5.887900">
        <ele>324.896339</ele>
        <time>2017-06-03T07:31:02.000Z</time>
      </trkpt>
      <trkpt lat="45.576378" lon="5.887929">
        <ele>324.995619</ele>
        <time>2017-06-03T07:31:05.000Z</time>
      </trkpt>
      <trkpt lat="45.576252" lon="5.887956">
        <ele>325.090334</ele>
        <time>2017-06-03T07:31:08.000Z</time>
      </trkpt>
      <trkpt lat="45.576138" lon="5.887969">
        <ele>325.194964</ele>
        <time>2017-06-03T07:31:11.000Z</time>
      </trkpt>
      <trkpt lat="45.576015" lon="5.887964">
        <ele>325.398459</ele>
        <time>2017-06-03T07:31:14.000Z</time>
      </trkpt>
      <trkpt lat="45.575890" lon="5.887961">
        <ele>325.605209</ele>
        <time>2017-06-03T07:31:17.000Z</time>
      </trkpt>
      <trkpt lat="45.575780" lon="5.887946">
        <ele>325.787949</ele>
        <time>2017-06-03T07:31:20.000Z</time>
      </trkpt>
      <trkpt lat="45.575670" lon="5.887943">
        <ele>325.969896</ele>
        <time>2017-06-03T07:31:23.000Z</time>
      </trkpt>
      <trkpt lat="45.575550" lon="5.887979">
        <ele>326.172675</ele>
        <time>2017-06-03T07:31:26.000Z</time>
      </trkpt>
      <trkpt lat="45.575430" lon="5.888013">
        <ele>326.374992</ele>
        <time>2017-06-03T07:31:29.000Z</time>
      </trkpt>
      <trkpt lat="45.575320" lon="5.888054">
        <ele>326.562995</ele>
        <time>2017-06-03T07:31:32.000Z</time>
      </trkpt>
      <trkpt lat="45.575233" lon="5.888111">
        <ele>326.721281</ele>
        <time>2017-06-03T07:31:35.000Z</time>
      </trkpt>
      <trkpt lat="45.575130" lon="5.888174">
        <ele>326.906573</ele>
        <time>2017-06-03T07:31:38.000Z</time>
      </trkpt>
      <trkpt lat="45.575027" lon="5.888243">
        <ele>327.094708</ele>
        <time>2017-06-03T07:31:41.000Z</time>
      </trkpt>
      <trkpt lat="45.574920" lon="5.888310">
        <ele>327.287911</ele>
        <time>2017-06-03T07:31:44.000Z</time>
      </trkpt>
      <trkpt lat="45.574818" lon="5.888368">
        <ele>327.469465</ele>
        <time>2017-06-03T07:31:47.000Z</time>
      </trkpt>
      <trkpt lat="45.574710" lon="5.888434">
        <ele>327.663726</ele>
        <time>2017-06-03T07:31:50.000Z</time>
      </trkpt>
      <trkpt lat="45.574610" lon="5.888500">
        <ele>327.845898</ele>
        <time>2017-06-03T07:31:53.000Z</time>
      </trkpt>
      <trkpt lat="45.574510" lon="5.888567">
        <ele>328.028558</ele>
        <time>2017-06-03T07:31:56.000Z</time>
      </trkpt>
      <trkpt lat="45.574410" lon="5.888634">
        <ele>328.347518</ele>
        <time>2017-06-03T07:31:59.000Z</time>
      </trkpt>
      <trkpt lat="45.574306" lon="5.888715">
        <ele>328.888548</ele>
        <time>2017-06-03T07:32:02.000Z</time>
      </trkpt>
      <trkpt lat="45.574196" lon="5.888771">
        <ele>329.421925</ele>
        <time>2017-06-03T07:32:05.000Z</time>
      </trkpt>
      <trkpt lat="45.574080" lon="5.888835">
        <ele>329.989898</ele>
        <time>2017-06-03T07:32:08.000Z</time>
      </trkpt>
      <trkpt lat="45.573975" lon="5.888906">
        <ele>330.520499</ele>
        <time>2017-06-03T07:32:11.000Z</time>
      </trkpt>
      <trkpt lat="45.573864" lon="5.888972">
        <ele>331.069655</ele>
        <time>2017-06-03T07:32:14.000Z</time>
      </trkpt>
      <trkpt lat="45.573753" lon="5.889053">
        <ele>331.638964</ele>
        <time>2017-06-03T07:32:17.000Z</time>
      </trkpt>
      <trkpt lat="45.573643" lon="5.889128">
        <ele>332.195682</ele>
        <time>2017-06-03T07:32:20.000Z</time>
      </trkpt>
      <trkpt lat="45.573532" lon="5.889198">
        <ele>332.749879</ele>
        <time>2017-06-03T07:32:23.000Z</time>
      </trkpt>
      <trkpt lat="45.573425" lon="5.889272">
        <ele>333.292862</ele>
        <time>2017-06-03T07:32:26.000Z</time>
      </trkpt>
      <trkpt lat="45.573307" lon="5.889344">
        <ele>333.878934</ele>
        <time>2017-06-03T07:32:29.000Z</time>
      </trkpt>
      <trkpt lat="45.573193" lon="5.889389">
        <ele>334.419144</ele>
        <time>2017-06-03T07:32:32.000Z</time>
      </trkpt>
      <trkpt lat="45.573082" lon="5.889433">
        <ele>334.945296</ele>
        <time>2017-06-03T07:32:35.000Z</time>
      </trkpt>
      <trkpt lat="45.572975" lon="5.889505">
        <ele>335.485524</ele>
        <time>2017-06-03T07:32:38.000Z</time>
      </trkpt>
      <trkpt lat="45.572865" lon="5.889571">
        <ele>336.030468</ele>
        <time>2017-06-03T07:32:41.000Z</time>
      </trkpt>
      <trkpt lat="45.572760" lon="5.889677">
        <ele>336.322605</ele>
        <time>2017-06-03T07:32:44.000Z</time>
      </trkpt>
      <trkpt lat="45.572666" lon="5.889789">
        <ele>336.267194</ele>
        <time>2017-06-03T07:32:47.000Z</time>
      </trkpt>
      <trkpt lat="45.572563" lon="5.889877">
        <ele>336.212865</ele>
        <time>2017-06-03T07:32:50.000Z</time>
      </trkpt>
      <trkpt lat="45.572456" lon="5.889961">
        <ele>336.157595</ele>
        <time>2017-06-03T07:32:53.000Z</time>
      </trkpt>
      <trkpt lat="45.572370" lon="5.890050">
        <ele>336.109522</ele>
        <time>2017-06-03T07:32:56.000Z</time>
      </trkpt>
      <trkpt lat="45.572277" lon="5.890109">
        <ele>336.063458</ele>
        <time>2017-06-03T07:32:59.000Z</time>
      </trkpt>
      <trkpt lat="45.572170" lon="5.890115">
        <ele>336.014983</ele>
        <time>2017-06-03T07:33:03.000Z</time>
      </trkpt>
      <trkpt lat="45.572070" lon="5.890043">
        <ele>335.964289</ele>
        <time>2017-06-03T07:33:07.000Z</time>
      </trkpt>
      <trkpt lat="45.571970" lon="5.890021">
        <ele>335.918487</ele>
        <time>2017-06-03T07:33:11.000Z</time>
      </trkpt>
      <trkpt lat="45.571884" lon="5.890067">
        <ele>335.876916</ele>
        <time>2017-06-03T07:33:15.000Z</time>
      </trkpt>
      <trkpt lat="45.571820" lon="5.890222">
        <ele>335.819891</ele>
        <time>2017-06-03T07:33:19.000Z</time>
      </trkpt>
      <trkpt lat="45.571804" lon="5.890383">
        <ele>335.768360</ele>
        <time>2017-06-03T07:33:22.000Z</time>
      </trkpt>
      <trkpt lat="45.571716" lon="5.890533">
        <ele>335.706341</ele>
        <time>2017-06-03T07:33:25.000Z</time>
      </trkpt>
      <trkpt lat="45.571648" lon="5.890625">
        <ele>335.663944</ele>
        <time>2017-06-03T07:33:27.000Z</time>
      </trkpt>
      <trkpt lat="45.571545" lon="5.890755">
        <ele>335.601726</ele>
        <time>2017-06-03T07:33:30.000Z</time>
      </trkpt>
      <trkpt lat="45.571476" lon="5.890837">
        <ele>335.561095</ele>
        <time>2017-06-03T07:33:32.000Z</time>
      </trkpt>
      <trkpt lat="45.571373" lon="5.890931">
        <ele>335.582237</ele>
        <time>2017-06-03T07:33:35.000Z</time>
      </trkpt>
      <trkpt lat="45.571262" lon="5.891010">
        <ele>335.672979</ele>
        <time>2017-06-03T07:33:38.000Z</time>
      </trkpt>
      <trkpt lat="45.571140" lon="5.891082">
        <ele>335.769567</ele>
        <time>2017-06-03T07:33:41.000Z</time>
      </trkpt>
      <trkpt lat="45.571022" lon="5.891163">
        <ele>335.865360</ele>
        <time>2017-06-03T07:33:44.000Z</time>
      </trkpt>
      <trkpt lat="45.570904" lon="5.891235">
        <ele>335.959249</ele>
        <time>2017-06-03T07:33:47.000Z</time>
      </trkpt>
      <trkpt lat="45.570786" lon="5.891311">
        <ele>336.053961</ele>
        <time>2017-06-03T07:33:50.000Z</time>
      </trkpt>
      <trkpt lat="45.570667" lon="5.891393">
        <ele>336.150636</ele>
        <time>2017-06-03T07:33:53.000Z</time>
      </trkpt>
      <trkpt lat="45.570557" lon="5.891470">
        <ele>336.240269</ele>
        <time>2017-06-03T07:33:56.000Z</time>
      </trkpt>
      <trkpt lat="45.570440" lon="5.891549">
        <ele>336.334961</ele>
        <time>2017-06-03T07:33:59.000Z</time>
      </trkpt>
      <trkpt lat="45.570350" lon="5.891599">
        <ele>336.405620</ele>
        <time>2017-06-03T07:34:01.000Z</time>
      </trkpt>
      <trkpt lat="45.570232" lon="5.891672">
        <ele>336.499711</ele>
        <time>2017-06-03T07:34:04.000Z</time>
      </trkpt>
      <trkpt lat="45.570107" lon="5.891734">
        <ele>336.596532</ele>
        <time>2017-06-03T07:34:07.000Z</time>
      </trkpt>
      <trkpt lat="45.569984" lon="5.891785">
        <ele>336.690248</ele>
        <time>2017-06-03T07:34:10.000Z</time>
      </trkpt>
      <trkpt lat="45.569866" lon="5.891825">
        <ele>336.778988</ele>
        <time>2017-06-03T07:34:13.000Z</time>
      </trkpt>
      <trkpt lat="45.569744" lon="5.891872">
        <ele>336.899985</ele>
        <time>2017-06-03T07:34:16.000Z</time>
      </trkpt>
      <trkpt lat="45.569626" lon="5.891928">
        <ele>337.118495</ele>
        <time>2017-06-03T07:34:19.000Z</time>
      </trkpt>
      <trkpt lat="45.569508" lon="5.891967">
        <ele>337.331340</ele>
        <time>2017-06-03T07:34:22.000Z</time>
      </trkpt>
      <trkpt lat="45.569380" lon="5.892011">
        <ele>337.562701</ele>
        <time>2017-06-03T07:34:25.000Z</time>
      </trkpt>
      <trkpt lat="45.569267" lon="5.892056">
        <ele>337.768853</ele>
        <time>2017-06-03T07:34:28.000Z</time>
      </trkpt>
      <trkpt lat="45.569150" lon="5.892088">
        <ele>337.978197</ele>
        <time>2017-06-03T07:34:31.000Z</time>
      </trkpt>
      <trkpt lat="45.569020" lon="5.892077">
        <ele>338.207052</ele>
        <time>2017-06-03T07:34:34.000Z</time>
      </trkpt>
      <trkpt lat="45.568905" lon="5.892076">
        <ele>338.409150</ele>
        <time>2017-06-03T07:34:37.000Z</time>
      </trkpt>
      <trkpt lat="45.568790" lon="5.892069">
        <ele>338.611428</ele>
        <time>2017-06-03T07:34:40.000Z</time>
      </trkpt>
      <trkpt lat="45.568687" lon="5.892084">
        <ele>338.793373</ele>
        <time>2017-06-03T07:34:43.000Z</time>
      </trkpt>
      <trkpt lat="45.568584" lon="5.892151">
        <ele>338.992263</ele>
        <time>2017-06-03T07:34:46.000Z</time>
      </trkpt>
      <trkpt lat="45.568504" lon="5.892289">
        <ele>339.212689</ele>
        <time>2017-06-03T07:34:49.000Z</time>
      </trkpt>
      <trkpt lat="45.568394" lon="5.892361">
        <ele>339.425324</ele>
        <time>2017-06-03T07:34:52.000Z</time>
      </trkpt>
      <trkpt lat="45.568287" lon="5.892410">
        <ele>339.622786</ele>
        <time>2017-06-03T07:34:55.000Z</time>
      </trkpt>
      <trkpt lat="45.568165" lon="5.892451">
        <ele>339.843036</ele>
        <time>2017-06-03T07:34:58.000Z</time>
      </trkpt>
      <trkpt lat="45.568050" lon="5.892494">
        <ele>340.064581</ele>
        <time>2017-06-03T07:35:01.000Z</time>
      </trkpt>
      <trkpt lat="45.567936" lon="5.892535">
        <ele>340.336428</ele>
        <time>2017-06-03T07:35:04.000Z</time>
      </trkpt>
      <trkpt lat="45.567830" lon="5.892582">
        <ele>340.593085</ele>
        <time>2017-06-03T07:35:07.000Z</time>
      </trkpt>
      <trkpt lat="45.567720" lon="5.892622">
        <ele>340.855568</ele>
        <time>2017-06-03T07:35:10.000Z</time>
      </trkpt>
      <trkpt lat="45.567604" lon="5.892682">
        <ele>341.140857</ele>
        <time>2017-06-03T07:35:13.000Z</time>
      </trkpt>
      <trkpt lat="45.567493" lon="5.892725">
        <ele>341.406811</ele>
        <time>2017-06-03T07:35:16.000Z</time>
      </trkpt>
      <trkpt lat="45.567383" lon="5.892774">
        <ele>341.673263</ele>
        <time>2017-06-03T07:35:19.000Z</time>
      </trkpt>
      <trkpt lat="45.567272" lon="5.892811">
        <ele>341.936841</ele>
        <time>2017-06-03T07:35:22.000Z</time>
      </trkpt>
      <trkpt lat="45.567170" lon="5.892849">
        <ele>342.180602</ele>
        <time>2017-06-03T07:35:25.000Z</time>
      </trkpt>
      <trkpt lat="45.567066" lon="5.892897">
        <ele>342.433339</ele>
        <time>2017-06-03T07:35:28.000Z</time>
      </trkpt>
      <trkpt lat="45.566950" lon="5.892952">
        <ele>342.715975</ele>
        <time>2017-06-03T07:35:31.000Z</time>
      </trkpt>
      <trkpt lat="45.566830" lon="5.893007">
        <ele>343.007405</ele>
        <time>2017-06-03T07:35:34.000Z</time>
      </trkpt>
      <trkpt lat="45.566708" lon="5.893060">
        <ele>343.302283</ele>
        <time>2017-06-03T07:35:37.000Z</time>
      </trkpt>
      <trkpt lat="45.566586" lon="5.893112">
        <ele>343.596695</ele>
        <time>2017-06-03T07:35:40.000Z</time>
      </trkpt>
      <trkpt lat="45.566498" lon="5.893144">
        <ele>343.806681</ele>
        <time>2017-06-03T07:35:42.000Z</time>
      </trkpt>
      <trkpt lat="45.566376" lon="5.893188">
        <ele>344.097654</ele>
        <time>2017-06-03T07:35:45.000Z</time>
      </trkpt>
      <trkpt lat="45.566254" lon="5.893240">
        <ele>344.222797</ele>
        <time>2017-06-03T07:35:48.000Z</time>
      </trkpt>
      <trkpt lat="45.566140" lon="5.893297">
        <ele>344.288047</ele>
        <time>2017-06-03T07:35:51.000Z</time>
      </trkpt>
      <trkpt lat="45.566025" lon="5.893338">
        <ele>344.352079</ele>
        <time>2017-06-03T07:35:54.000Z</time>
      </trkpt>
      <trkpt lat="45.565903" lon="5.893348">
        <ele>344.418095</ele>
        <time>2017-06-03T07:35:57.000Z</time>
      </trkpt>
      <trkpt lat="45.565784" lon="5.893295">
        <ele>344.485435</ele>
        <time>2017-06-03T07:36:00.000Z</time>
      </trkpt>
      <trkpt lat="45.565693" lon="5.893360">
        <ele>344.540400</ele>
        <time>2017-06-03T07:36:03.000Z</time>
      </trkpt>
      <trkpt lat="45.565582" lon="5.893384">
        <ele>344.601048</ele>
        <time>2017-06-03T07:36:06.000Z</time>
      </trkpt>
      <trkpt lat="45.565464" lon="5.893397">
        <ele>344.664985</ele>
        <time>2017-06-03T07:36:09.000Z</time>
      </trkpt>
      <trkpt lat="45.565353" lon="5.893359">
        <ele>344.726648</ele>
        <time>2017-06-03T07:36:12.000Z</time>
      </trkpt>
      <trkpt lat="45.565250" lon="5.893329">
        <ele>344.783437</ele>
        <time>2017-06-03T07:36:15.000Z</time>
      </trkpt>
      <trkpt lat="45.565144" lon="5.893336">
        <ele>344.840762</ele>
        <time>2017-06-03T07:36:18.000Z</time>
      </trkpt>
      <trkpt lat="45.565014" lon="5.893384">
        <ele>344.913300</ele>
        <time>2017-06-03T07:36:21.000Z</time>
      </trkpt>
      <trkpt lat="45.564907" lon="5.893396">
        <ele>344.971283</ele>
        <time>2017-06-03T07:36:24.000Z</time>
      </trkpt>
      <trkpt lat="45.564800" lon="5.893382">
        <ele>345.029329</ele>
        <time>2017-06-03T07:36:27.000Z</time>
      </trkpt>
      <trkpt lat="45.564686" lon="5.893386">
        <ele>345.090934</ele>
        <time>2017-06-03T07:36:30.000Z</time>
      </trkpt>
      <trkpt lat="45.564568" lon="5.893392">
        <ele>345.188407</ele>
        <time>2017-06-03T07:36:33.000Z</time>
      </trkpt>
      <trkpt lat="45.564450" lon="5.893394">
        <ele>345.433466</ele>
        <time>2017-06-03T07:36:36.000Z</time>
      </trkpt>
      <trkpt lat="45.564323" lon="5.893390">
        <ele>345.697260</ele>
        <time>2017-06-03T07:36:39.000Z</time>
      </trkpt>
      <trkpt lat="45.564200" lon="5.893401">
        <ele>345.953185</ele>
        <time>2017-06-03T07:36:42.000Z</time>
      </trkpt>
      <trkpt lat="45.564087" lon="5.893395">
        <ele>346.188005</ele>
        <time>2017-06-03T07:36:45.000Z</time>
      </trkpt>
      <trkpt lat="45.563965" lon="5.893396">
        <ele>346.441357</ele>
        <time>2017-06-03T07:36:48.000Z</time>
      </trkpt>
      <trkpt lat="45.563847" lon="5.893401">
        <ele>346.686506</ele>
        <time>2017-06-03T07:36:51.000Z</time>
      </trkpt>
      <trkpt lat="45.563732" lon="5.893404">
        <ele>346.925357</ele>
        <time>2017-06-03T07:36:54.000Z</time>
      </trkpt>
      <trkpt lat="45.563630" lon="5.893403">
        <ele>347.137177</ele>
        <time>2017-06-03T07:36:57.000Z</time>
      </trkpt>
      <trkpt lat="45.563503" lon="5.893400">
        <ele>347.400944</ele>
        <time>2017-06-03T07:37:00.000Z</time>
      </trkpt>
      <trkpt lat="45.563380" lon="5.893412">
        <ele>347.656964</ele>
        <time>2017-06-03T07:37:03.000Z</time>
      </trkpt>
      <trkpt lat="45.563290" lon="5.893415">
        <ele>347.843910</ele>
        <time>2017-06-03T07:37:05.000Z</time>
      </trkpt>
      <trkpt lat="45.563198" lon="5.893418">
        <ele>348.035009</ele>
        <time>2017-06-03T07:37:07.000Z</time>
      </trkpt>
      <trkpt lat="45.563072" lon="5.893443">
        <ele>348.299176</ele>
        <time>2017-06-03T07:37:10.000Z</time>
      </trkpt>
      <trkpt lat="45.562950" lon="5.893483">
        <ele>348.559113</ele>
        <time>2017-06-03T07:37:13.000Z</time>
      </trkpt>
      <trkpt lat="45.562836" lon="5.893513">
        <ele>348.799832</ele>
        <time>2017-06-03T07:37:16.000Z</time>
      </trkpt>
      <trkpt lat="45.562740" lon="5.893529">
        <ele>348.921401</ele>
        <time>2017-06-03T07:37:19.000Z</time>
      </trkpt>
      <trkpt lat="45.562626" lon="5.893539">
        <ele>349.005435</ele>
        <time>2017-06-03T07:37:22.000Z</time>
      </trkpt>
      <trkpt lat="45.562515" lon="5.893576">
        <ele>349.089298</ele>
        <time>2017-06-03T07:37:25.000Z</time>
      </trkpt>
      <trkpt lat="45.562420" lon="5.893560">
        <ele>349.159679</ele>
        <time>2017-06-03T07:37:28.000Z</time>
      </trkpt>
      <trkpt lat="45.562317" lon="5.893520">
        <ele>349.238213</ele>
        <time>2017-06-03T07:37:31.000Z</time>
      </trkpt>
      <trkpt lat="45.562200" lon="5.893558">
        <ele>349.326494</ele>
        <time>2017-06-03T07:37:34.000Z</time>
      </trkpt>
      <trkpt lat="45.562126" lon="5.893686">
        <ele>349.412004</ele>
        <time>2017-06-03T07:37:37.000Z</time>
      </trkpt>
      <trkpt lat="45.562060" lon="5.893823">
        <ele>349.497669</ele>
        <time>2017-06-03T07:37:40.000Z</time>
      </trkpt>
      <trkpt lat="45.561974" lon="5.893926">
        <ele>349.580246</ele>
        <time>2017-06-03T07:37:43.000Z</time>
      </trkpt>
      <trkpt lat="45.561850" lon="5.894012">
        <ele>349.681667</ele>
        <time>2017-06-03T07:37:46.000Z</time>
      </trkpt>
      <trkpt lat="45.561764" lon="5.894064">
        <ele>349.750378</ele>
        <time>2017-06-03T07:37:48.000Z</time>
      </trkpt>
      <trkpt lat="45.561653" lon="5.894124">
        <ele>349.837700</ele>
        <time>2017-06-03T07:37:51.000Z</time>
      </trkpt>
      <trkpt lat="45.561540" lon="5.894189">
        <ele>349.927329</ele>
        <time>2017-06-03T07:37:54.000Z</time>
      </trkpt>
      <trkpt lat="45.561430" lon="5.894256">
        <ele>350.015314</ele>
        <time>2017-06-03T07:37:57.000Z</time>
      </trkpt>
      <trkpt lat="45.561325" lon="5.894324">
        <ele>350.100139</ele>
        <time>2017-06-03T07:38:00.000Z</time>
      </trkpt>
      <trkpt lat="45.561230" lon="5.894395">
        <ele>350.179027</ele>
        <time>2017-06-03T07:38:03.000Z</time>
      </trkpt>
      <trkpt lat="45.561120" lon="5.894452">
        <ele>350.474357</ele>
        <time>2017-06-03T07:38:06.000Z</time>
      </trkpt>
      <trkpt lat="45.561024" lon="5.894521">
        <ele>350.812806</ele>
        <time>2017-06-03T07:38:09.000Z</time>
      </trkpt>
      <trkpt lat="45.560930" lon="5.894590">
        <ele>351.145642</ele>
        <time>2017-06-03T07:38:12.000Z</time>
      </trkpt>
      <trkpt lat="45.560833" lon="5.894659">
        <ele>351.486908</ele>
        <time>2017-06-03T07:38:15.000Z</time>
      </trkpt>
      <trkpt lat="45.560734" lon="5.894697">
        <ele>351.809745</ele>
        <time>2017-06-03T07:38:18.000Z</time>
      </trkpt>
      <trkpt lat="45.560623" lon="5.894721">
        <ele>352.163293</ele>
        <time>2017-06-03T07:38:21.000Z</time>
      </trkpt>
      <trkpt lat="45.560540" lon="5.894822">
        <ele>352.506686</ele>
        <time>2017-06-03T07:38:24.000Z</time>
      </trkpt>
      <trkpt lat="45.560436" lon="5.894896">
        <ele>352.872600</ele>
        <time>2017-06-03T07:38:27.000Z</time>
      </trkpt>
      <trkpt lat="45.560320" lon="5.894961">
        <ele>353.265021</ele>
        <time>2017-06-03T07:38:30.000Z</time>
      </trkpt>
      <trkpt lat="45.560223" lon="5.895028">
        <ele>353.604344</ele>
        <time>2017-06-03T07:38:33.000Z</time>
      </trkpt>
      <trkpt lat="45.560120" lon="5.895090">
        <ele>353.956347</ele>
        <time>2017-06-03T07:38:36.000Z</time>
      </trkpt>
      <trkpt lat="45.560020" lon="5.895141">
        <ele>354.290746</ele>
        <time>2017-06-03T07:38:39.000Z</time>
      </trkpt>
      <trkpt lat="45.559925" lon="5.895178">
        <ele>354.600848</ele>
        <time>2017-06-03T07:38:42.000Z</time>
      </trkpt>
      <trkpt lat="45.559820" lon="5.895231">
        <ele>354.951561</ele>
        <time>2017-06-03T07:38:45.000Z</time>
      </trkpt>
      <trkpt lat="45.559730" lon="5.895312">
        <ele>355.286573</ele>
        <time>2017-06-03T07:38:48.000Z</time>
      </trkpt>
      <trkpt lat="45.559643" lon="5.895401">
        <ele>355.623587</ele>
        <time>2017-06-03T07:38:51.000Z</time>
      </trkpt>
      <trkpt lat="45.559563" lon="5.895483">
        <ele>355.852692</ele>
        <time>2017-06-03T07:38:54.000Z</time>
      </trkpt>
      <trkpt lat="45.559486" lon="5.895563">
        <ele>355.795374</ele>
        <time>2017-06-03T07:38:58.000Z</time>
      </trkpt>
      <trkpt lat="45.559418" lon="5.895688">
        <ele>355.728656</ele>
        <time>2017-06-03T07:39:03.000Z</time>
      </trkpt>
      <trkpt lat="45.559307" lon="5.895747">
        <ele>355.657360</ele>
        <time>2017-06-03T07:39:07.000Z</time>
      </trkpt>
      <trkpt lat="45.559208" lon="5.895795">
        <ele>355.594425</ele>
        <time>2017-06-03T07:39:10.000Z</time>
      </trkpt>
      <trkpt lat="45.559116" lon="5.895865">
        <ele>355.531675</ele>
        <time>2017-06-03T07:39:13.000Z</time>
      </trkpt>
      <trkpt lat="45.559030" lon="5.895944">
        <ele>355.470122</ele>
        <time>2017-06-03T07:39:16.000Z</time>
      </trkpt>
      <trkpt lat="45.558926" lon="5.895908">
        <ele>355.405704</ele>
        <time>2017-06-03T07:39:19.000Z</time>
      </trkpt>
      <trkpt lat="45.558823" lon="5.895815">
        <ele>355.332350</ele>
        <time>2017-06-03T07:39:22.000Z</time>
      </trkpt>
      <trkpt lat="45.558730" lon="5.895745">
        <ele>355.269068</ele>
        <time>2017-06-03T07:39:25.000Z</time>
      </trkpt>
      <trkpt lat="45.558636" lon="5.895669">
        <ele>355.204045</ele>
        <time>2017-06-03T07:39:28.000Z</time>
      </trkpt>
      <trkpt lat="45.558540" lon="5.895569">
        <ele>355.132518</ele>
        <time>2017-06-03T07:39:31.000Z</time>
      </trkpt>
      <trkpt lat="45.558437" lon="5.895491">
        <ele>355.062339</ele>
        <time>2017-06-03T07:39:34.000Z</time>
      </trkpt>
      <trkpt lat="45.558346" lon="5.895407">
        <ele>354.997114</ele>
        <time>2017-06-03T07:39:37.000Z</time>
      </trkpt>
      <trkpt lat="45.558250" lon="5.895326">
        <ele>354.929993</ele>
        <time>2017-06-03T07:39:40.000Z</time>
      </trkpt>
      <trkpt lat="45.558147" lon="5.895244">
        <ele>354.859008</ele>
        <time>2017-06-03T07:39:43.000Z</time>
      </trkpt>
      <trkpt lat="45.558044" lon="5.895163">
        <ele>354.788227</ele>
        <time>2017-06-03T07:39:46.000Z</time>
      </trkpt>
      <trkpt lat="45.557953" lon="5.895067">
        <ele>355.011349</ele>
        <time>2017-06-03T07:39:49.000Z</time>
      </trkpt>
      <trkpt lat="45.557870" lon="5.894978">
        <ele>355.238428</ele>
        <time>2017-06-03T07:39:52.000Z</time>
      </trkpt>
      <trkpt lat="45.557785" lon="5.894890">
        <ele>355.468119</ele>
        <time>2017-06-03T07:39:55.000Z</time>
      </trkpt>
      <trkpt lat="45.557697" lon="5.894796">
        <ele>355.708546</ele>
        <time>2017-06-03T07:39:58.000Z</time>
      </trkpt>
      <trkpt lat="45.557600" lon="5.894712">
        <ele>355.956736</ele>
        <time>2017-06-03T07:40:01.000Z</time>
      </trkpt>
      <trkpt lat="45.557510" lon="5.894615">
        <ele>356.203422</ele>
        <time>2017-06-03T07:40:04.000Z</time>
      </trkpt>
      <trkpt lat="45.557420" lon="5.894536">
        <ele>356.434548</ele>
        <time>2017-06-03T07:40:07.000Z</time>
      </trkpt>
      <trkpt lat="45.557340" lon="5.894458">
        <ele>356.646476</ele>
        <time>2017-06-03T07:40:10.000Z</time>
      </trkpt>
      <trkpt lat="45.557260" lon="5.894375">
        <ele>356.862815</ele>
        <time>2017-06-03T07:40:13.000Z</time>
      </trkpt>
      <trkpt lat="45.557175" lon="5.894286">
        <ele>357.093410</ele>
        <time>2017-06-03T07:40:16.000Z</time>
      </trkpt>
      <trkpt lat="45.557090" lon="5.894204">
        <ele>357.317831</ele>
        <time>2017-06-03T07:40:19.000Z</time>
      </trkpt>
      <trkpt lat="45.557003" lon="5.894118">
        <ele>357.549323</ele>
        <time>2017-06-03T07:40:22.000Z</time>
      </trkpt>
      <trkpt lat="45.556915" lon="5.894033">
        <ele>357.781755</ele>
        <time>2017-06-03T07:40:25.000Z</time>
      </trkpt>
      <trkpt lat="45.556830" lon="5.893948">
        <ele>358.008781</ele>
        <time>2017-06-03T07:40:28.000Z</time>
      </trkpt>
      <trkpt lat="45.556744" lon="5.893862">
        <ele>358.238477</ele>
        <time>2017-06-03T07:40:31.000Z</time>
      </trkpt>
      <trkpt lat="45.556656" lon="5.893771">
        <ele>358.476182</ele>
        <time>2017-06-03T07:40:34.000Z</time>
      </trkpt>
      <trkpt lat="45.556564" lon="5.893687">
        <ele>358.715085</ele>
        <time>2017-06-03T07:40:37.000Z</time>
      </trkpt>
      <trkpt lat="45.556477" lon="5.893601">
        <ele>359.095392</ele>
        <time>2017-06-03T07:40:40.000Z</time>
      </trkpt>
      <trkpt lat="45.556393" lon="5.893509">
        <ele>359.477884</ele>
        <time>2017-06-03T07:40:43.000Z</time>
      </trkpt>
      <trkpt lat="45.556313" lon="5.893407">
        <ele>359.865381</ele>
        <time>2017-06-03T07:40:46.000Z</time>
      </trkpt>
      <trkpt lat="45.556225" lon="5.893325">
        <ele>360.245045</ele>
        <time>2017-06-03T07:40:49.000Z</time>
      </trkpt>
      <trkpt lat="45.556118" lon="5.893252">
        <ele>360.673516</ele>
        <time>2017-06-03T07:40:52.000Z</time>
      </trkpt>
      <trkpt lat="45.556026" lon="5.893166">
        <ele>361.070815</ele>
        <time>2017-06-03T07:40:55.000Z</time>
      </trkpt>
      <trkpt lat="45.555943" lon="5.893070">
        <ele>361.456736</ele>
        <time>2017-06-03T07:40:58.000Z</time>
      </trkpt>
      <trkpt lat="45.555850" lon="5.892971">
        <ele>361.875851</ele>
        <time>2017-06-03T07:41:01.000Z</time>
      </trkpt>
      <trkpt lat="45.555767" lon="5.892890">
        <ele>362.239086</ele>
        <time>2017-06-03T07:41:04.000Z</time>
      </trkpt>
      <trkpt lat="45.555676" lon="5.892811">
        <ele>362.623878</ele>
        <time>2017-06-03T07:41:07.000Z</time>
      </trkpt>
      <trkpt lat="45.555590" lon="5.892717">
        <ele>363.015186</ele>
        <time>2017-06-03T07:41:10.000Z</time>
      </trkpt>
      <trkpt lat="45.555490" lon="5.892618">
        <ele>363.454841</ele>
        <time>2017-06-03T07:41:13.000Z</time>
      </trkpt>
      <trkpt lat="45.555390" lon="5.892519">
        <ele>363.894496</ele>
        <time>2017-06-03T07:41:16.000Z</time>
      </trkpt>
      <trkpt lat="45.555283" lon="5.892420">
        <ele>364.355164</ele>
        <time>2017-06-03T07:41:19.000Z</time>
      </trkpt>
      <trkpt lat="45.555180" lon="5.892330">
        <ele>364.791466</ele>
        <time>2017-06-03T07:41:22.000Z</time>
      </trkpt>
      <trkpt lat="45.555073" lon="5.892243">
        <ele>365.230266</ele>
        <time>2017-06-03T07:41:25.000Z</time>
      </trkpt>
      <trkpt lat="45.554977" lon="5.892153">
        <ele>365.513609</ele>
        <time>2017-06-03T07:41:28.000Z</time>
      </trkpt>
      <trkpt lat="45.554874" lon="5.892061">
        <ele>365.813360</ele>
        <time>2017-06-03T07:41:31.000Z</time>
      </trkpt>
      <trkpt lat="45.554790" lon="5.891987">
        <ele>366.056878</ele>
        <time>2017-06-03T07:41:34.000Z</time>
      </trkpt>
      <trkpt lat="45.554684" lon="5.891894">
        <ele>366.363831</ele>
        <time>2017-06-03T07:41:37.000Z</time>
      </trkpt>
      <trkpt lat="45.554577" lon="5.891820">
        <ele>366.657165</ele>
        <time>2017-06-03T07:41:40.000Z</time>
      </trkpt>
      <trkpt lat="45.554462" lon="5.891770">
        <ele>366.953769</ele>
        <time>2017-06-03T07:41:43.000Z</time>
      </trkpt>
      <trkpt lat="45.554360" lon="5.891723">
        <ele>367.218215</ele>
        <time>2017-06-03T07:41:46.000Z</time>
      </trkpt>
      <trkpt lat="45.554245" lon="5.891686">
        <ele>367.509072</ele>
        <time>2017-06-03T07:41:49.000Z</time>
      </trkpt>
      <trkpt lat="45.554160" lon="5.891613">
        <ele>367.753800</ele>
        <time>2017-06-03T07:41:52.000Z</time>
      </trkpt>
      <trkpt lat="45.554054" lon="5.891529">
        <ele>368.052907</ele>
        <time>2017-06-03T07:41:55.000Z</time>
      </trkpt>
      <trkpt lat="45.553960" lon="5.891512">
        <ele>368.286691</ele>
        <time>2017-06-03T07:41:58.000Z</time>
      </trkpt>
      <trkpt lat="45.553852" lon="5.891523">
        <ele>368.553841</ele>
        <time>2017-06-03T07:42:01.000Z</time>
      </trkpt>
      <trkpt lat="45.553738" lon="5.891483">
        <ele>368.843485</ele>
        <time>2017-06-03T07:42:04.000Z</time>
      </trkpt>
      <trkpt lat="45.553620" lon="5.891458">
        <ele>369.137819</ele>
        <time>2017-06-03T07:42:07.000Z</time>
      </trkpt>
      <trkpt lat="45.553500" lon="5.891392">
        <ele>369.455101</ele>
        <time>2017-06-03T07:42:10.000Z</time>
      </trkpt>
      <trkpt lat="45.553390" lon="5.891337">
        <ele>369.779047</ele>
        <time>2017-06-03T07:42:13.000Z</time>
      </trkpt>
      <trkpt lat="45.553280" lon="5.891283">
        <ele>370.185205</ele>
        <time>2017-06-03T07:42:16.000Z</time>
      </trkpt>
      <trkpt lat="45.553165" lon="5.891230">
        <ele>370.607155</ele>
        <time>2017-06-03T07:42:19.000Z</time>
      </trkpt>
      <trkpt lat="45.553050" lon="5.891192">
        <ele>371.019321</ele>
        <time>2017-06-03T07:42:22.000Z</time>
      </trkpt>
      <trkpt lat="45.552937" lon="5.891157">
        <ele>371.423068</ele>
        <time>2017-06-03T07:42:25.000Z</time>
      </trkpt>
      <trkpt lat="45.552822" lon="5.891123">
        <ele>371.833140</ele>
        <time>2017-06-03T07:42:28.000Z</time>
      </trkpt>
      <trkpt lat="45.552720" lon="5.891087">
        <ele>372.200019</ele>
        <time>2017-06-03T07:42:31.000Z</time>
      </trkpt>
      <trkpt lat="45.552612" lon="5.891041">
        <ele>372.593549</ele>
        <time>2017-06-03T07:42:34.000Z</time>
      </trkpt>
      <trkpt lat="45.552500" lon="5.891006">
        <ele>372.993885</ele>
        <time>2017-06-03T07:42:37.000Z</time>
      </trkpt>
      <trkpt lat="45.552390" lon="5.890973">
        <ele>373.386366</ele>
        <time>2017-06-03T07:42:40.000Z</time>
      </trkpt>
      <trkpt lat="45.552284" lon="5.890914">
        <ele>373.783618</ele>
        <time>2017-06-03T07:42:43.000Z</time>
      </trkpt>
      <trkpt lat="45.552174" lon="5.890860">
        <ele>374.189777</ele>
        <time>2017-06-03T07:42:46.000Z</time>
      </trkpt>
      <trkpt lat="45.552070" lon="5.890821">
        <ele>374.565236</ele>
        <time>2017-06-03T07:42:49.000Z</time>
      </trkpt>
      <trkpt lat="45.551960" lon="5.890778">
        <ele>374.963464</ele>
        <time>2017-06-03T07:42:52.000Z</time>
      </trkpt>
      <trkpt lat="45.551853" lon="5.890745">
        <ele>375.345701</ele>
        <time>2017-06-03T07:42:55.000Z</time>
      </trkpt>
      <trkpt lat="45.551743" lon="5.890708">
        <ele>375.740309</ele>
        <time>2017-06-03T07:42:58.000Z</time>
      </trkpt>
      <trkpt lat="45.551636" lon="5.890662">
        <ele>376.108037</ele>
        <time>2017-06-03T07:43:01.000Z</time>
      </trkpt>
      <trkpt lat="45.551520" lon="5.890590">
        <ele>376.498817</ele>
        <time>2017-06-03T07:43:04.000Z</time>
      </trkpt>
      <trkpt lat="45.551422" lon="5.890532">
        <ele>376.826568</ele>
        <time>2017-06-03T07:43:07.000Z</time>
      </trkpt>
      <trkpt lat="45.551296" lon="5.890503">
        <ele>377.220877</ele>
        <time>2017-06-03T07:43:11.000Z</time>
      </trkpt>
      <trkpt lat="45.551167" lon="5.890482">
        <ele>377.622013</ele>
        <time>2017-06-03T07:43:14.000Z</time>
      </trkpt>
      <trkpt lat="45.551052" lon="5.890406">
        <ele>378.013517</ele>
        <time>2017-06-03T07:43:17.000Z</time>
      </trkpt>
      <trkpt lat="45.550976" lon="5.890316">
        <ele>378.318558</ele>
        <time>2017-06-03T07:43:20.000Z</time>
      </trkpt>
      <trkpt lat="45.550873" lon="5.890245">
        <ele>378.671919</ele>
        <time>2017-06-03T07:43:23.000Z</time>
      </trkpt>
      <trkpt lat="45.550762" lon="5.890221">
        <ele>379.018770</ele>
        <time>2017-06-03T07:43:26.000Z</time>
      </trkpt>
      <trkpt lat="45.550660" lon="5.890203">
        <ele>379.336304</ele>
        <time>2017-06-03T07:43:29.000Z</time>
      </trkpt>
      <trkpt lat="45.550560" lon="5.890192">
        <ele>379.646176</ele>
        <time>2017-06-03T07:43:32.000Z</time>
      </trkpt>
      <trkpt lat="45.550453" lon="5.890179">
        <ele>379.977954</ele>
        <time>2017-06-03T07:43:35.000Z</time>
      </trkpt>
      <trkpt lat="45.550350" lon="5.890140">
        <ele>380.307177</ele>
        <time>2017-06-03T07:43:38.000Z</time>
      </trkpt>
      <trkpt lat="45.550250" lon="5.890098">
        <ele>380.629220</ele>
        <time>2017-06-03T07:43:41.000Z</time>
      </trkpt>
      <trkpt lat="45.550140" lon="5.890059">
        <ele>380.979391</ele>
        <time>2017-06-03T07:43:44.000Z</time>
      </trkpt>
      <trkpt lat="45.550030" lon="5.889994">
        <ele>381.347192</ele>
        <time>2017-06-03T07:43:47.000Z</time>
      </trkpt>
      <trkpt lat="45.549927" lon="5.889933">
        <ele>381.552240</ele>
        <time>2017-06-03T07:43:50.000Z</time>
      </trkpt>
      <trkpt lat="45.549816" lon="5.889897">
        <ele>381.657625</ele>
        <time>2017-06-03T07:43:53.000Z</time>
      </trkpt>
      <trkpt lat="45.549690" lon="5.889858">
        <ele>381.776990</ele>
        <time>2017-06-03T07:43:56.000Z</time>
      </trkpt>
      <trkpt lat="45.549580" lon="5.889802">
        <ele>381.885112</ele>
        <time>2017-06-03T07:43:59.000Z</time>
      </trkpt>
      <trkpt lat="45.549473" lon="5.889751">
        <ele>381.989550</ele>
        <time>2017-06-03T07:44:02.000Z</time>
      </trkpt>
      <trkpt lat="45.549366" lon="5.889715">
        <ele>382.091327</ele>
        <time>2017-06-03T07:44:05.000Z</time>
      </trkpt>
      <trkpt lat="45.549250" lon="5.889666">
        <ele>382.203326</ele>
        <time>2017-06-03T07:44:08.000Z</time>
      </trkpt>
      <trkpt lat="45.549145" lon="5.889605">
        <ele>382.308276</ele>
        <time>2017-06-03T07:44:11.000Z</time>
      </trkpt>
      <trkpt lat="45.549034" lon="5.889547">
        <ele>382.417709</ele>
        <time>2017-06-03T07:44:14.000Z</time>
      </trkpt>
      <trkpt lat="45.548935" lon="5.889505">
        <ele>382.513327</ele>
        <time>2017-06-03T07:44:17.000Z</time>
      </trkpt>
      <trkpt lat="45.548817" lon="5.889440">
        <ele>382.630423</ele>
        <time>2017-06-03T07:44:20.000Z</time>
      </trkpt>
      <trkpt lat="45.548717" lon="5.889383">
        <ele>382.730111</ele>
        <time>2017-06-03T07:44:23.000Z</time>
      </trkpt>
      <trkpt lat="45.548610" lon="5.889306">
        <ele>382.841045</ele>
        <time>2017-06-03T07:44:26.000Z</time>
      </trkpt>
      <trkpt lat="45.548504" lon="5.889233">
        <ele>382.950002</ele>
        <time>2017-06-03T07:44:29.000Z</time>
      </trkpt>
      <trkpt lat="45.548397" lon="5.889159">
        <ele>383.060074</ele>
        <time>2017-06-03T07:44:32.000Z</time>
      </trkpt>
      <trkpt lat="45.548280" lon="5.889095">
        <ele>383.169738</ele>
        <time>2017-06-03T07:44:35.000Z</time>
      </trkpt>
      <trkpt lat="45.548180" lon="5.889020">
        <ele>383.238007</ele>
        <time>2017-06-03T07:44:38.000Z</time>
      </trkpt>
      <trkpt lat="45.548070" lon="5.888942">
        <ele>383.312236</ele>
        <time>2017-06-03T07:44:41.000Z</time>
      </trkpt>
      <trkpt lat="45.547966" lon="5.888864">
        <ele>383.383236</ele>
        <time>2017-06-03T07:44:44.000Z</time>
      </trkpt>
      <trkpt lat="45.547870" lon="5.888772">
        <ele>383.453114</ele>
        <time>2017-06-03T07:44:47.000Z</time>
      </trkpt>
      <trkpt lat="45.547783" lon="5.888668">
        <ele>383.521689</ele>
        <time>2017-06-03T07:44:50.000Z</time>
      </trkpt>
      <trkpt lat="45.547670" lon="5.888526">
        <ele>383.612666</ele>
        <time>2017-06-03T07:44:54.000Z</time>
      </trkpt>
      <trkpt lat="45.547590" lon="5.888422">
        <ele>383.678054</ele>
        <time>2017-06-03T07:44:57.000Z</time>
      </trkpt>
      <trkpt lat="45.547512" lon="5.888317">
        <ele>383.742843</ele>
        <time>2017-06-03T07:45:00.000Z</time>
      </trkpt>
      <trkpt lat="45.547436" lon="5.888218">
        <ele>383.805019</ele>
        <time>2017-06-03T07:45:03.000Z</time>
      </trkpt>
      <trkpt lat="45.547370" lon="5.888100">
        <ele>383.868939</ele>
        <time>2017-06-03T07:45:06.000Z</time>
      </trkpt>
      <trkpt lat="45.547287" lon="5.887940">
        <ele>383.953218</ele>
        <time>2017-06-03T07:45:10.000Z</time>
      </trkpt>
      <trkpt lat="45.547220" lon="5.887818">
        <ele>384.018841</ele>
        <time>2017-06-03T07:45:13.000Z</time>
      </trkpt>
      <trkpt lat="45.547165" lon="5.887678">
        <ele>384.086786</ele>
        <time>2017-06-03T07:45:16.000Z</time>
      </trkpt>
      <trkpt lat="45.547115" lon="5.887541">
        <ele>384.152175</ele>
        <time>2017-06-03T07:45:19.000Z</time>
      </trkpt>
      <trkpt lat="45.547062" lon="5.887415">
        <ele>384.214388</ele>
        <time>2017-06-03T07:45:22.000Z</time>
      </trkpt>
      <trkpt lat="45.547010" lon="5.887286">
        <ele>384.397964</ele>
        <time>2017-06-03T07:45:25.000Z</time>
      </trkpt>
      <trkpt lat="45.546950" lon="5.887154">
        <ele>384.711879</ele>
        <time>2017-06-03T07:45:28.000Z</time>
      </trkpt>
      <trkpt lat="45.546894" lon="5.887039">
        <ele>384.991288</ele>
        <time>2017-06-03T07:45:31.000Z</time>
      </trkpt>
      <trkpt lat="45.546837" lon="5.886910">
        <ele>385.295556</ele>
        <time>2017-06-03T07:45:34.000Z</time>
      </trkpt>
      <trkpt lat="45.546770" lon="5.886744">
        <ele>385.677752</ele>
        <time>2017-06-03T07:45:38.000Z</time>
      </trkpt>
      <trkpt lat="45.546710" lon="5.886626">
        <ele>385.968639</ele>
        <time>2017-06-03T07:45:41.000Z</time>
      </trkpt>
      <trkpt lat="45.546660" lon="5.886511">
        <ele>386.238657</ele>
        <time>2017-06-03T07:45:44.000Z</time>
      </trkpt>
      <trkpt lat="45.546604" lon="5.886397">
        <ele>386.516431</ele>
        <time>2017-06-03T07:45:47.000Z</time>
      </trkpt>
      <trkpt lat="45.546543" lon="5.886283">
        <ele>386.802621</ele>
        <time>2017-06-03T07:45:50.000Z</time>
      </trkpt>
      <trkpt lat="45.546486" lon="5.886171">
        <ele>387.078803</ele>
        <time>2017-06-03T07:45:53.000Z</time>
      </trkpt>
      <trkpt lat="45.546402" lon="5.886022">
        <ele>387.460369</ele>
        <time>2017-06-03T07:45:57.000Z</time>
      </trkpt>
      <trkpt lat="45.546337" lon="5.885906">
        <ele>387.756722</ele>
        <time>2017-06-03T07:46:00.000Z</time>
      </trkpt>
      <trkpt lat="45.546276" lon="5.885795">
        <ele>388.038181</ele>
        <time>2017-06-03T07:46:03.000Z</time>
      </trkpt>
      <trkpt lat="45.546220" lon="5.885670">
        <ele>388.334189</ele>
        <time>2017-06-03T07:46:06.000Z</time>
      </trkpt>
      <trkpt lat="45.546160" lon="5.885553">
        <ele>388.623467</ele>
        <time>2017-06-03T07:46:09.000Z</time>
      </trkpt>
      <trkpt lat="45.546074" lon="5.885366">
        <ele>389.069741</ele>
        <time>2017-06-03T07:46:13.000Z</time>
      </trkpt>
      <trkpt lat="45.546020" lon="5.885235">
        <ele>389.374383</ele>
        <time>2017-06-03T07:46:16.000Z</time>
      </trkpt>
      <trkpt lat="45.545933" lon="5.885047">
        <ele>389.955960</ele>
        <time>2017-06-03T07:46:20.000Z</time>
      </trkpt>
      <trkpt lat="45.545876" lon="5.884903">
        <ele>390.382872</ele>
        <time>2017-06-03T07:46:23.000Z</time>
      </trkpt>
      <trkpt lat="45.545795" lon="5.884738">
        <ele>390.902930</ele>
        <time>2017-06-03T07:46:27.000Z</time>
      </trkpt>
      <trkpt lat="45.545734" lon="5.884616">
        <ele>391.289818</ele>
        <time>2017-06-03T07:46:30.000Z</time>
      </trkpt>
      <trkpt lat="45.545662" lon="5.884460">
        <ele>391.772017</ele>
        <time>2017-06-03T07:46:34.000Z</time>
      </trkpt>
      <trkpt lat="45.545600" lon="5.884342">
        <ele>392.152751</ele>
        <time>2017-06-03T07:46:37.000Z</time>
      </trkpt>
      <trkpt lat="45.545530" lon="5.884186">
        <ele>392.630934</ele>
        <time>2017-06-03T07:46:41.000Z</time>
      </trkpt>
      <trkpt lat="45.545470" lon="5.884070">
        <ele>393.003128</ele>
        <time>2017-06-03T07:46:44.000Z</time>
      </trkpt>
      <trkpt lat="45.545400" lon="5.883912">
        <ele>393.485666</ele>
        <time>2017-06-03T07:46:48.000Z</time>
      </trkpt>
      <trkpt lat="45.545345" lon="5.883792">
        <ele>393.855811</ele>
        <time>2017-06-03T07:46:51.000Z</time>
      </trkpt>
      <trkpt lat="45.545288" lon="5.883656">
        <ele>394.264877</ele>
        <time>2017-06-03T07:46:54.000Z</time>
      </trkpt>
      <trkpt lat="45.545230" lon="5.883522">
        <ele>394.671448</ele>
        <time>2017-06-03T07:46:57.000Z</time>
      </trkpt>
      <trkpt lat="45.545160" lon="5.883365">
        <ele>395.151808</ele>
        <time>2017-06-03T07:47:00.000Z</time>
      </trkpt>
      <trkpt lat="45.545090" lon="5.883241">
        <ele>395.562874</ele>
        <time>2017-06-03T07:47:03.000Z</time>
      </trkpt>
      <trkpt lat="45.545036" lon="5.883121">
        <ele>395.931015</ele>
        <time>2017-06-03T07:47:06.000Z</time>
      </trkpt>
      <trkpt lat="45.544980" lon="5.883006">
        <ele>396.449454</ele>
        <time>2017-06-03T07:47:09.000Z</time>
      </trkpt>
      <trkpt lat="45.544930" lon="5.882882">
        <ele>397.014641</ele>
        <time>2017-06-03T07:47:12.000Z</time>
      </trkpt>
      <trkpt lat="45.544884" lon="5.882748">
        <ele>397.604113</ele>
        <time>2017-06-03T07:47:15.000Z</time>
      </trkpt>
      <trkpt lat="45.544840" lon="5.882610">
        <ele>398.203052</ele>
        <time>2017-06-03T07:47:18.000Z</time>
      </trkpt>
      <trkpt lat="45.544810" lon="5.882491">
        <ele>398.702634</ele>
        <time>2017-06-03T07:47:21.000Z</time>
      </trkpt>
      <trkpt lat="45.544780" lon="5.882369">
        <ele>399.213383</ele>
        <time>2017-06-03T07:47:25.000Z</time>
      </trkpt>
      <trkpt lat="45.544716" lon="5.882161">
        <ele>400.110792</ele>
        <time>2017-06-03T07:50:41.000Z</time>
      </trkpt>
      <trkpt lat="45.544650" lon="5.882043">
        <ele>400.707302</ele>
        <time>2017-06-03T07:50:45.000Z</time>
      </trkpt>
      <trkpt lat="45.544590" lon="5.881923">
        <ele>401.289714</ele>
        <time>2017-06-03T07:50:48.000Z</time>
      </trkpt>
      <trkpt lat="45.544530" lon="5.881801">
        <ele>401.878573</ele>
        <time>2017-06-03T07:50:51.000Z</time>
      </trkpt>
      <trkpt lat="45.544456" lon="5.881667">
        <ele>402.552639</ele>
        <time>2017-06-03T07:50:54.000Z</time>
      </trkpt>
      <trkpt lat="45.544390" lon="5.881541">
        <ele>403.174156</ele>
        <time>2017-06-03T07:50:57.000Z</time>
      </trkpt>
      <trkpt lat="45.544330" lon="5.881397">
        <ele>403.836022</ele>
        <time>2017-06-03T07:51:00.000Z</time>
      </trkpt>
      <trkpt lat="45.544273" lon="5.881244">
        <ele>404.520573</ele>
        <time>2017-06-03T07:51:03.000Z</time>
      </trkpt>
      <trkpt lat="45.544210" lon="5.881103">
        <ele>405.181228</ele>
        <time>2017-06-03T07:51:06.000Z</time>
      </trkpt>
      <trkpt lat="45.544147" lon="5.880955">
        <ele>405.865356</ele>
        <time>2017-06-03T07:51:09.000Z</time>
      </trkpt>
      <trkpt lat="45.544090" lon="5.880817">
        <ele>406.140266</ele>
        <time>2017-06-03T07:51:12.000Z</time>
      </trkpt>
      <trkpt lat="45.544014" lon="5.880705">
        <ele>406.138625</ele>
        <time>2017-06-03T07:51:15.000Z</time>
      </trkpt>
      <trkpt lat="45.543960" lon="5.880559">
        <ele>406.136888</ele>
        <time>2017-06-03T07:51:18.000Z</time>
      </trkpt>
      <trkpt lat="45.543907" lon="5.880406">
        <ele>406.135093</ele>
        <time>2017-06-03T07:51:21.000Z</time>
      </trkpt>
      <trkpt lat="45.543846" lon="5.880265">
        <ele>406.133349</ele>
        <time>2017-06-03T07:51:24.000Z</time>
      </trkpt>
      <trkpt lat="45.543790" lon="5.880125">
        <ele>406.131653</ele>
        <time>2017-06-03T07:51:27.000Z</time>
      </trkpt>
      <trkpt lat="45.543730" lon="5.879978">
        <ele>406.129863</ele>
        <time>2017-06-03T07:51:30.000Z</time>
      </trkpt>
      <trkpt lat="45.543674" lon="5.879829">
        <ele>406.128084</ele>
        <time>2017-06-03T07:51:33.000Z</time>
      </trkpt>
      <trkpt lat="45.543613" lon="5.879697">
        <ele>406.126420</ele>
        <time>2017-06-03T07:51:36.000Z</time>
      </trkpt>
      <trkpt lat="45.543560" lon="5.879550">
        <ele>406.124681</ele>
        <time>2017-06-03T07:51:39.000Z</time>
      </trkpt>
      <trkpt lat="45.543490" lon="5.879415">
        <ele>406.122914</ele>
        <time>2017-06-03T07:51:42.000Z</time>
      </trkpt>
      <trkpt lat="45.543410" lon="5.879278">
        <ele>406.121037</ele>
        <time>2017-06-03T07:51:45.000Z</time>
      </trkpt>
      <trkpt lat="45.543320" lon="5.879171">
        <ele>406.119278</ele>
        <time>2017-06-03T07:51:48.000Z</time>
      </trkpt>
      <trkpt lat="45.543213" lon="5.879085">
        <ele>406.117434</ele>
        <time>2017-06-03T07:51:51.000Z</time>
      </trkpt>
      <trkpt lat="45.543106" lon="5.878997">
        <ele>406.115579</ele>
        <time>2017-06-03T07:51:54.000Z</time>
      </trkpt>
      <trkpt lat="45.542988" lon="5.878935">
        <ele>406.067625</ele>
        <time>2017-06-03T07:51:57.000Z</time>
      </trkpt>
      <trkpt lat="45.542866" lon="5.878870">
        <ele>405.888601</ele>
        <time>2017-06-03T07:52:00.000Z</time>
      </trkpt>
      <trkpt lat="45.542760" lon="5.878772">
        <ele>405.714987</ele>
        <time>2017-06-03T07:52:03.000Z</time>
      </trkpt>
      <trkpt lat="45.542683" lon="5.878699">
        <ele>405.587915</ele>
        <time>2017-06-03T07:52:05.000Z</time>
      </trkpt>
      <trkpt lat="45.542576" lon="5.878601">
        <ele>405.413146</ele>
        <time>2017-06-03T07:52:08.000Z</time>
      </trkpt>
      <trkpt lat="45.542470" lon="5.878501">
        <ele>405.238478</ele>
        <time>2017-06-03T07:52:11.000Z</time>
      </trkpt>
      <trkpt lat="45.542370" lon="5.878395">
        <ele>405.067250</ele>
        <time>2017-06-03T07:52:14.000Z</time>
      </trkpt>
      <trkpt lat="45.542267" lon="5.878280">
        <ele>404.887489</ele>
        <time>2017-06-03T07:52:17.000Z</time>
      </trkpt>
      <trkpt lat="45.542164" lon="5.878172">
        <ele>404.711800</ele>
        <time>2017-06-03T07:52:20.000Z</time>
      </trkpt>
      <trkpt lat="45.542057" lon="5.878054">
        <ele>404.525924</ele>
        <time>2017-06-03T07:52:23.000Z</time>
      </trkpt>
      <trkpt lat="45.541958" lon="5.877932">
        <ele>404.346132</ele>
        <time>2017-06-03T07:52:26.000Z</time>
      </trkpt>
      <trkpt lat="45.541874" lon="5.877810">
        <ele>404.181399</ele>
        <time>2017-06-03T07:52:29.000Z</time>
      </trkpt>
      <trkpt lat="45.541800" lon="5.877667">
        <ele>404.010197</ele>
        <time>2017-06-03T07:52:32.000Z</time>
      </trkpt>
      <trkpt lat="45.541737" lon="5.877518">
        <ele>403.842607</ele>
        <time>2017-06-03T07:52:35.000Z</time>
      </trkpt>
      <trkpt lat="45.541676" lon="5.877383">
        <ele>403.687910</ele>
        <time>2017-06-03T07:52:38.000Z</time>
      </trkpt>
      <trkpt lat="45.541607" lon="5.877241">
        <ele>403.900059</ele>
        <time>2017-06-03T07:52:41.000Z</time>
      </trkpt>
      <trkpt lat="45.541546" lon="5.877097">
        <ele>404.249632</ele>
        <time>2017-06-03T07:52:44.000Z</time>
      </trkpt>
      <trkpt lat="45.541480" lon="5.876959">
        <ele>404.596742</ele>
        <time>2017-06-03T07:52:47.000Z</time>
      </trkpt>
      <trkpt lat="45.541420" lon="5.876824">
        <ele>404.928860</ele>
        <time>2017-06-03T07:52:50.000Z</time>
      </trkpt>
      <trkpt lat="45.541350" lon="5.876689">
        <ele>405.277769</ele>
        <time>2017-06-03T07:52:53.000Z</time>
      </trkpt>
      <trkpt lat="45.541286" lon="5.876546">
        <ele>405.630277</ele>
        <time>2017-06-03T07:52:56.000Z</time>
      </trkpt>
      <trkpt lat="45.541220" lon="5.876402">
        <ele>405.987750</ele>
        <time>2017-06-03T07:52:59.000Z</time>
      </trkpt>
      <trkpt lat="45.541153" lon="5.876267">
        <ele>406.331440</ele>
        <time>2017-06-03T07:53:02.000Z</time>
      </trkpt>
      <trkpt lat="45.541084" lon="5.876128">
        <ele>406.685339</ele>
        <time>2017-06-03T07:53:05.000Z</time>
      </trkpt>
      <trkpt lat="45.541027" lon="5.875999">
        <ele>407.002169</ele>
        <time>2017-06-03T07:53:08.000Z</time>
      </trkpt>
      <trkpt lat="45.540966" lon="5.875875">
        <ele>407.316931</ele>
        <time>2017-06-03T07:53:11.000Z</time>
      </trkpt>
      <trkpt lat="45.540913" lon="5.875756">
        <ele>407.609865</ele>
        <time>2017-06-03T07:53:14.000Z</time>
      </trkpt>
      <trkpt lat="45.540860" lon="5.875638">
        <ele>407.901049</ele>
        <time>2017-06-03T07:53:17.000Z</time>
      </trkpt>
      <trkpt lat="45.540802" lon="5.875480">
        <ele>408.271598</ele>
        <time>2017-06-03T07:53:21.000Z</time>
      </trkpt>
      <trkpt lat="45.540760" lon="5.875343">
        <ele>408.582246</ele>
        <time>2017-06-03T07:53:24.000Z</time>
      </trkpt>
      <trkpt lat="45.540733" lon="5.875217">
        <ele>408.855954</ele>
        <time>2017-06-03T07:53:27.000Z</time>
      </trkpt>
      <trkpt lat="45.540714" lon="5.875075">
        <ele>409.244165</ele>
        <time>2017-06-03T07:53:30.000Z</time>
      </trkpt>
      <trkpt lat="45.540710" lon="5.874927">
        <ele>409.701682</ele>
        <time>2017-06-03T07:53:33.000Z</time>
      </trkpt>
      <trkpt lat="45.540710" lon="5.874776">
        <ele>410.168126</ele>
        <time>2017-06-03T07:53:36.000Z</time>
      </trkpt>
      <trkpt lat="45.540707" lon="5.874639">
        <ele>410.591531</ele>
        <time>2017-06-03T07:53:39.000Z</time>
      </trkpt>
      <trkpt lat="45.540703" lon="5.874505">
        <ele>411.005837</ele>
        <time>2017-06-03T07:53:42.000Z</time>
      </trkpt>
      <trkpt lat="45.540703" lon="5.874373">
        <ele>411.413590</ele>
        <time>2017-06-03T07:53:45.000Z</time>
      </trkpt>
      <trkpt lat="45.540695" lon="5.874203">
        <ele>411.939910</ele>
        <time>2017-06-03T07:53:49.000Z</time>
      </trkpt>
      <trkpt lat="45.540670" lon="5.874035">
        <ele>412.470451</ele>
        <time>2017-06-03T07:53:53.000Z</time>
      </trkpt>
      <trkpt lat="45.540634" lon="5.873908">
        <ele>412.893670</ele>
        <time>2017-06-03T07:53:56.000Z</time>
      </trkpt>
      <trkpt lat="45.540585" lon="5.873780">
        <ele>413.344272</ele>
        <time>2017-06-03T07:53:59.000Z</time>
      </trkpt>
      <trkpt lat="45.540524" lon="5.873661">
        <ele>413.799799</ele>
        <time>2017-06-03T07:54:02.000Z</time>
      </trkpt>
      <trkpt lat="45.540462" lon="5.873549">
        <ele>414.240785</ele>
        <time>2017-06-03T07:54:05.000Z</time>
      </trkpt>
      <trkpt lat="45.540413" lon="5.873432">
        <ele>414.661887</ele>
        <time>2017-06-03T07:54:08.000Z</time>
      </trkpt>
      <trkpt lat="45.540360" lon="5.873312">
        <ele>415.100118</ele>
        <time>2017-06-03T07:54:11.000Z</time>
      </trkpt>
      <trkpt lat="45.540306" lon="5.873194">
        <ele>415.535534</ele>
        <time>2017-06-03T07:54:14.000Z</time>
      </trkpt>
      <trkpt lat="45.540253" lon="5.873086">
        <ele>415.942891</ele>
        <time>2017-06-03T07:54:17.000Z</time>
      </trkpt>
      <trkpt lat="45.540190" lon="5.872945">
        <ele>416.459527</ele>
        <time>2017-06-03T07:54:21.000Z</time>
      </trkpt>
      <trkpt lat="45.540142" lon="5.872827">
        <ele>416.881052</ele>
        <time>2017-06-03T07:54:24.000Z</time>
      </trkpt>
      <trkpt lat="45.540090" lon="5.872709">
        <ele>417.160752</ele>
        <time>2017-06-03T07:54:27.000Z</time>
      </trkpt>
      <trkpt lat="45.540035" lon="5.872597">
        <ele>417.425114</ele>
        <time>2017-06-03T07:54:30.000Z</time>
      </trkpt>
      <trkpt lat="45.539978" lon="5.872480">
        <ele>417.700558</ele>
        <time>2017-06-03T07:54:33.000Z</time>
      </trkpt>
      <trkpt lat="45.539917" lon="5.872367">
        <ele>417.976288</ele>
        <time>2017-06-03T07:54:36.000Z</time>
      </trkpt>
      <trkpt lat="45.539864" lon="5.872246">
        <ele>418.252106</ele>
        <time>2017-06-03T07:54:39.000Z</time>
      </trkpt>
      <trkpt lat="45.539803" lon="5.872125">
        <ele>418.540237</ele>
        <time>2017-06-03T07:54:42.000Z</time>
      </trkpt>
      <trkpt lat="45.539745" lon="5.871990">
        <ele>418.846324</ele>
        <time>2017-06-03T07:54:45.000Z</time>
      </trkpt>
      <trkpt lat="45.539684" lon="5.871870">
        <ele>419.132889</ele>
        <time>2017-06-03T07:54:48.000Z</time>
      </trkpt>
      <trkpt lat="45.539620" lon="5.871749">
        <ele>419.425934</ele>
        <time>2017-06-03T07:54:51.000Z</time>
      </trkpt>
      <trkpt lat="45.539562" lon="5.871632">
        <ele>419.702964</ele>
        <time>2017-06-03T07:54:54.000Z</time>
      </trkpt>
      <trkpt lat="45.539505" lon="5.871507">
        <ele>419.991238</ele>
        <time>2017-06-03T07:54:57.000Z</time>
      </trkpt>
      <trkpt lat="45.539450" lon="5.871389">
        <ele>420.265178</ele>
        <time>2017-06-03T07:55:00.000Z</time>
      </trkpt>
      <trkpt lat="45.539387" lon="5.871278">
        <ele>420.541299</ele>
        <time>2017-06-03T07:55:03.000Z</time>
      </trkpt>
      <trkpt lat="45.539326" lon="5.871174">
        <ele>420.803469</ele>
        <time>2017-06-03T07:55:06.000Z</time>
      </trkpt>
      <trkpt lat="45.539260" lon="5.871070">
        <ele>421.074703</ele>
        <time>2017-06-03T07:55:09.000Z</time>
      </trkpt>
      <trkpt lat="45.539196" lon="5.870970">
        <ele>421.336505</ele>
        <time>2017-06-03T07:55:12.000Z</time>
      </trkpt>
      <trkpt lat="45.539130" lon="5.870863">
        <ele>421.612063</ele>
        <time>2017-06-03T07:55:15.000Z</time>
      </trkpt>
      <trkpt lat="45.539066" lon="5.870749">
        <ele>421.892122</ele>
        <time>2017-06-03T07:55:18.000Z</time>
      </trkpt>
      <trkpt lat="45.539005" lon="5.870639">
        <ele>422.135926</ele>
        <time>2017-06-03T07:55:21.000Z</time>
      </trkpt>
      <trkpt lat="45.538940" lon="5.870528">
        <ele>422.387342</ele>
        <time>2017-06-03T07:55:24.000Z</time>
      </trkpt>
      <trkpt lat="45.538876" lon="5.870417">
        <ele>422.637175</ele>
        <time>2017-06-03T07:55:27.000Z</time>
      </trkpt>
      <trkpt lat="45.538815" lon="5.870301">
        <ele>422.889237</ele>
        <time>2017-06-03T07:55:30.000Z</time>
      </trkpt>
      <trkpt lat="45.538742" lon="5.870183">
        <ele>423.162817</ele>
        <time>2017-06-03T07:55:33.000Z</time>
      </trkpt>
      <trkpt lat="45.538673" lon="5.870070">
        <ele>423.423321</ele>
        <time>2017-06-03T07:55:36.000Z</time>
      </trkpt>
      <trkpt lat="45.538600" lon="5.869940">
        <ele>423.712860</ele>
        <time>2017-06-03T07:55:39.000Z</time>
      </trkpt>
      <trkpt lat="45.538532" lon="5.869831">
        <ele>423.966509</ele>
        <time>2017-06-03T07:55:42.000Z</time>
      </trkpt>
      <trkpt lat="45.538467" lon="5.869726">
        <ele>424.210019</ele>
        <time>2017-06-03T07:55:45.000Z</time>
      </trkpt>
      <trkpt lat="45.538406" lon="5.869624">
        <ele>424.443086</ele>
        <time>2017-06-03T07:55:48.000Z</time>
      </trkpt>
      <trkpt lat="45.538330" lon="5.869499">
        <ele>424.730722</ele>
        <time>2017-06-03T07:55:52.000Z</time>
      </trkpt>
      <trkpt lat="45.538258" lon="5.869400">
        <ele>424.978722</ele>
        <time>2017-06-03T07:55:55.000Z</time>
      </trkpt>
      <trkpt lat="45.538193" lon="5.869296">
        <ele>425.220933</ele>
        <time>2017-06-03T07:55:58.000Z</time>
      </trkpt>
      <trkpt lat="45.538130" lon="5.869191">
        <ele>425.461187</ele>
        <time>2017-06-03T07:56:01.000Z</time>
      </trkpt>
      <trkpt lat="45.538070" lon="5.869087">
        <ele>425.695323</ele>
        <time>2017-06-03T07:56:04.000Z</time>
      </trkpt>
      <trkpt lat="45.538013" lon="5.868977">
        <ele>425.933097</ele>
        <time>2017-06-03T07:56:07.000Z</time>
      </trkpt>
      <trkpt lat="45.537950" lon="5.868861">
        <ele>426.188172</ele>
        <time>2017-06-03T07:56:10.000Z</time>
      </trkpt>
      <trkpt lat="45.537876" lon="5.868745">
        <ele>426.521789</ele>
        <time>2017-06-03T07:56:13.000Z</time>
      </trkpt>
      <trkpt lat="45.537804" lon="5.868624">
        <ele>426.930176</ele>
        <time>2017-06-03T07:56:16.000Z</time>
      </trkpt>
      <trkpt lat="45.537740" lon="5.868510">
        <ele>427.305974</ele>
        <time>2017-06-03T07:56:19.000Z</time>
      </trkpt>
      <trkpt lat="45.537670" lon="5.868402">
        <ele>427.684463</ele>
        <time>2017-06-03T07:56:22.000Z</time>
      </trkpt>
      <trkpt lat="45.537605" lon="5.868291">
        <ele>428.056617</ele>
        <time>2017-06-03T07:56:25.000Z</time>
      </trkpt>
      <trkpt lat="45.537537" lon="5.868200">
        <ele>428.398887</ele>
        <time>2017-06-03T07:56:28.000Z</time>
      </trkpt>
      <trkpt lat="45.537468" lon="5.868097">
        <ele>428.765493</ele>
        <time>2017-06-03T07:56:31.000Z</time>
      </trkpt>
      <trkpt lat="45.537395" lon="5.868001">
        <ele>429.129969</ele>
        <time>2017-06-03T07:56:34.000Z</time>
      </trkpt>
      <trkpt lat="45.537320" lon="5.867905">
        <ele>429.499881</ele>
        <time>2017-06-03T07:56:37.000Z</time>
      </trkpt>
      <trkpt lat="45.537235" lon="5.867814">
        <ele>429.890043</ele>
        <time>2017-06-03T07:56:40.000Z</time>
      </trkpt>
      <trkpt lat="45.537140" lon="5.867727">
        <ele>430.304519</ele>
        <time>2017-06-03T07:56:43.000Z</time>
      </trkpt>
      <trkpt lat="45.537040" lon="5.867646">
        <ele>430.726738</ele>
        <time>2017-06-03T07:56:46.000Z</time>
      </trkpt>
      <trkpt lat="45.536957" lon="5.867575">
        <ele>431.082066</ele>
        <time>2017-06-03T07:56:49.000Z</time>
      </trkpt>
      <trkpt lat="45.536870" lon="5.867506">
        <ele>431.447546</ele>
        <time>2017-06-03T07:56:52.000Z</time>
      </trkpt>
      <trkpt lat="45.536785" lon="5.867419">
        <ele>431.831625</ele>
        <time>2017-06-03T07:56:55.000Z</time>
      </trkpt>
      <trkpt lat="45.536710" lon="5.867337">
        <ele>432.178537</ele>
        <time>2017-06-03T07:56:58.000Z</time>
      </trkpt>
      <trkpt lat="45.536630" lon="5.867261">
        <ele>432.531420</ele>
        <time>2017-06-03T07:57:01.000Z</time>
      </trkpt>
      <trkpt lat="45.536545" lon="5.867185">
        <ele>432.899731</ele>
        <time>2017-06-03T07:57:04.000Z</time>
      </trkpt>
      <trkpt lat="45.536460" lon="5.867108">
        <ele>433.167180</ele>
        <time>2017-06-03T07:57:07.000Z</time>
      </trkpt>
      <trkpt lat="45.536377" lon="5.867034">
        <ele>433.415333</ele>
        <time>2017-06-03T07:57:10.000Z</time>
      </trkpt>
      <trkpt lat="45.536290" lon="5.866953">
        <ele>433.678727</ele>
        <time>2017-06-03T07:57:13.000Z</time>
      </trkpt>
      <trkpt lat="45.536200" lon="5.866880">
        <ele>433.941223</ele>
        <time>2017-06-03T07:57:16.000Z</time>
      </trkpt>
      <trkpt lat="45.536114" lon="5.866804">
        <ele>434.197714</ele>
        <time>2017-06-03T07:57:19.000Z</time>
      </trkpt>
      <trkpt lat="45.536026" lon="5.866717">
        <ele>434.469159</ele>
        <time>2017-06-03T07:57:22.000Z</time>
      </trkpt>
      <trkpt lat="45.535942" lon="5.866646">
        <ele>434.716711</ele>
        <time>2017-06-03T07:57:25.000Z</time>
      </trkpt>
      <trkpt lat="45.535843" lon="5.866560">
        <ele>435.010591</ele>
        <time>2017-06-03T07:57:29.000Z</time>
      </trkpt>
      <trkpt lat="45.535763" lon="5.866487">
        <ele>435.251364</ele>
        <time>2017-06-03T07:57:32.000Z</time>
      </trkpt>
      <trkpt lat="45.535690" lon="5.866411">
        <ele>435.480482</ele>
        <time>2017-06-03T07:57:35.000Z</time>
      </trkpt>
      <trkpt lat="45.535610" lon="5.866345">
        <ele>435.714794</ele>
        <time>2017-06-03T07:57:38.000Z</time>
      </trkpt>
      <trkpt lat="45.535526" lon="5.866275">
        <ele>435.961446</ele>
        <time>2017-06-03T07:57:41.000Z</time>
      </trkpt>
      <trkpt lat="45.535450" lon="5.866199">
        <ele>436.196754</ele>
        <time>2017-06-03T07:57:44.000Z</time>
      </trkpt>
      <trkpt lat="45.535366" lon="5.866123">
        <ele>436.448947</ele>
        <time>2017-06-03T07:57:47.000Z</time>
      </trkpt>
      <trkpt lat="45.535282" lon="5.866060">
        <ele>436.689570</ele>
        <time>2017-06-03T07:57:50.000Z</time>
      </trkpt>
      <trkpt lat="45.535175" lon="5.865981">
        <ele>436.995052</ele>
        <time>2017-06-03T07:57:54.000Z</time>
      </trkpt>
      <trkpt lat="45.535072" lon="5.865906">
        <ele>437.288265</ele>
        <time>2017-06-03T07:57:58.000Z</time>
      </trkpt>
      <trkpt lat="45.534992" lon="5.865854">
        <ele>437.513679</ele>
        <time>2017-06-03T07:58:01.000Z</time>
      </trkpt>
      <trkpt lat="45.534910" lon="5.865784">
        <ele>437.811398</ele>
        <time>2017-06-03T07:58:04.000Z</time>
      </trkpt>
      <trkpt lat="45.534820" lon="5.865726">
        <ele>438.119099</ele>
        <time>2017-06-03T07:58:07.000Z</time>
      </trkpt>
      <trkpt lat="45.534710" lon="5.865676">
        <ele>438.478827</ele>
        <time>2017-06-03T07:58:11.000Z</time>
      </trkpt>
      <trkpt lat="45.534600" lon="5.865643">
        <ele>438.829086</ele>
        <time>2017-06-03T07:58:15.000Z</time>
      </trkpt>
      <trkpt lat="45.534490" lon="5.865600">
        <ele>439.184476</ele>
        <time>2017-06-03T07:58:19.000Z</time>
      </trkpt>
      <trkpt lat="45.534386" lon="5.865554">
        <ele>439.523750</ele>
        <time>2017-06-03T07:58:23.000Z</time>
      </trkpt>
      <trkpt lat="45.534286" lon="5.865498">
        <ele>439.858479</ele>
        <time>2017-06-03T07:58:27.000Z</time>
      </trkpt>
      <trkpt lat="45.534187" lon="5.865424">
        <ele>440.206702</ele>
        <time>2017-06-03T07:58:31.000Z</time>
      </trkpt>
      <trkpt lat="45.534107" lon="5.865352">
        <ele>440.501396</ele>
        <time>2017-06-03T07:58:35.000Z</time>
      </trkpt>
      <trkpt lat="45.534035" lon="5.865268">
        <ele>440.791148</ele>
        <time>2017-06-03T07:58:39.000Z</time>
      </trkpt>
      <trkpt lat="45.533955" lon="5.865164">
        <ele>441.128311</ele>
        <time>2017-06-03T07:58:44.000Z</time>
      </trkpt>
      <trkpt lat="45.533886" lon="5.865071">
        <ele>441.424012</ele>
        <time>2017-06-03T07:58:48.000Z</time>
      </trkpt>
      <trkpt lat="45.533825" lon="5.864973">
        <ele>441.710178</ele>
        <time>2017-06-03T07:58:52.000Z</time>
      </trkpt>
      <trkpt lat="45.533764" lon="5.864867">
        <ele>442.009622</ele>
        <time>2017-06-03T07:58:56.000Z</time>
      </trkpt>
      <trkpt lat="45.533688" lon="5.864781">
        <ele>442.311822</ele>
        <time>2017-06-03T07:59:00.000Z</time>
      </trkpt>
      <trkpt lat="45.533607" lon="5.864675">
        <ele>442.654231</ele>
        <time>2017-06-03T07:59:05.000Z</time>
      </trkpt>
      <trkpt lat="45.533516" lon="5.864588">
        <ele>442.995513</ele>
        <time>2017-06-03T07:59:10.000Z</time>
      </trkpt>
      <trkpt lat="45.533417" lon="5.864534">
        <ele>443.482172</ele>
        <time>2017-06-03T07:59:14.000Z</time>
      </trkpt>
      <trkpt lat="45.533310" lon="5.864505">
        <ele>444.062024</ele>
        <time>2017-06-03T07:59:19.000Z</time>
      </trkpt>
      <trkpt lat="45.533220" lon="5.864469">
        <ele>444.559646</ele>
        <time>2017-06-03T07:59:23.000Z</time>
      </trkpt>
      <trkpt lat="45.533160" lon="5.864359">
        <ele>445.079594</ele>
        <time>2017-06-03T07:59:27.000Z</time>
      </trkpt>
      <trkpt lat="45.533110" lon="5.864243">
        <ele>445.587557</ele>
        <time>2017-06-03T07:59:31.000Z</time>
      </trkpt>
      <trkpt lat="45.533062" lon="5.864116">
        <ele>446.125748</ele>
        <time>2017-06-03T07:59:35.000Z</time>
      </trkpt>
      <trkpt lat="45.533010" lon="5.863998">
        <ele>446.645670</ele>
        <time>2017-06-03T07:59:39.000Z</time>
      </trkpt>
      <trkpt lat="45.532955" lon="5.863857">
        <ele>447.247564</ele>
        <time>2017-06-03T07:59:44.000Z</time>
      </trkpt>
      <trkpt lat="45.532898" lon="5.863740">
        <ele>447.779071</ele>
        <time>2017-06-03T07:59:48.000Z</time>
      </trkpt>
      <trkpt lat="45.532845" lon="5.863636">
        <ele>448.258723</ele>
        <time>2017-06-03T07:59:52.000Z</time>
      </trkpt>
      <trkpt lat="45.532787" lon="5.863504">
        <ele>448.839852</ele>
        <time>2017-06-03T07:59:57.000Z</time>
      </trkpt>
      <trkpt lat="45.532720" lon="5.863395">
        <ele>449.380686</ele>
        <time>2017-06-03T08:00:01.000Z</time>
      </trkpt>
      <trkpt lat="45.532660" lon="5.863289">
        <ele>449.888949</ele>
        <time>2017-06-03T08:00:05.000Z</time>
      </trkpt>
      <trkpt lat="45.532604" lon="5.863186">
        <ele>450.375218</ele>
        <time>2017-06-03T08:00:09.000Z</time>
      </trkpt>
      <trkpt lat="45.532528" lon="5.863073">
        <ele>450.959457</ele>
        <time>2017-06-03T08:00:14.000Z</time>
      </trkpt>
      <trkpt lat="45.532448" lon="5.862977">
        <ele>451.515876</ele>
        <time>2017-06-03T08:00:19.000Z</time>
      </trkpt>
      <trkpt lat="45.532360" lon="5.862917">
        <ele>452.035092</ele>
        <time>2017-06-03T08:00:23.000Z</time>
      </trkpt>
      <trkpt lat="45.532280" lon="5.862842">
        <ele>452.544655</ele>
        <time>2017-06-03T08:00:27.000Z</time>
      </trkpt>
      <trkpt lat="45.532190" lon="5.862756">
        <ele>453.840578</ele>
        <time>2017-06-03T08:00:32.000Z</time>
      </trkpt>
      <trkpt lat="45.532104" lon="5.862702">
        <ele>455.158284</ele>
        <time>2017-06-03T08:00:36.000Z</time>
      </trkpt>
      <trkpt lat="45.532024" lon="5.862633">
        <ele>456.469209</ele>
        <time>2017-06-03T08:00:40.000Z</time>
      </trkpt>
      <trkpt lat="45.531940" lon="5.862561">
        <ele>457.843399</ele>
        <time>2017-06-03T08:00:45.000Z</time>
      </trkpt>
      <trkpt lat="45.531853" lon="5.862494">
        <ele>459.229842</ele>
        <time>2017-06-03T08:00:50.000Z</time>
      </trkpt>
      <trkpt lat="45.531773" lon="5.862434">
        <ele>460.497302</ele>
        <time>2017-06-03T08:00:54.000Z</time>
      </trkpt>
      <trkpt lat="45.531677" lon="5.862360">
        <ele>462.027493</ele>
        <time>2017-06-03T08:00:59.000Z</time>
      </trkpt>
      <trkpt lat="45.531574" lon="5.862333">
        <ele>463.496260</ele>
        <time>2017-06-03T08:01:04.000Z</time>
      </trkpt>
      <trkpt lat="45.531470" lon="5.862315">
        <ele>464.965580</ele>
        <time>2017-06-03T08:01:09.000Z</time>
      </trkpt>
      <trkpt lat="45.531384" lon="5.862290">
        <ele>466.196516</ele>
        <time>2017-06-03T08:01:14.000Z</time>
      </trkpt>
      <trkpt lat="45.531277" lon="5.862266">
        <ele>467.715642</ele>
        <time>2017-06-03T08:01:19.000Z</time>
      </trkpt>
      <trkpt lat="45.531166" lon="5.862243">
        <ele>469.288773</ele>
        <time>2017-06-03T08:01:24.000Z</time>
      </trkpt>
      <trkpt lat="45.531063" lon="5.862200">
        <ele>470.793895</ele>
        <time>2017-06-03T08:01:29.000Z</time>
      </trkpt>
      <trkpt lat="45.530952" lon="5.862183">
        <ele>472.359644</ele>
        <time>2017-06-03T08:01:34.000Z</time>
      </trkpt>
      <trkpt lat="45.530853" lon="5.862156">
        <ele>473.773269</ele>
        <time>2017-06-03T08:01:39.000Z</time>
      </trkpt>
      <trkpt lat="45.530758" lon="5.862110">
        <ele>475.180244</ele>
        <time>2017-06-03T08:03:41.000Z</time>
      </trkpt>
      <trkpt lat="45.530643" lon="5.862083">
        <ele>476.814831</ele>
        <time>2017-06-03T08:03:45.000Z</time>
      </trkpt>
      <trkpt lat="45.530550" lon="5.862054">
        <ele>477.954724</ele>
        <time>2017-06-03T08:03:49.000Z</time>
      </trkpt>
      <trkpt lat="45.530445" lon="5.862033">
        <ele>478.243106</ele>
        <time>2017-06-03T08:03:53.000Z</time>
      </trkpt>
      <trkpt lat="45.530340" lon="5.861995">
        <ele>478.537733</ele>
        <time>2017-06-03T08:03:57.000Z</time>
      </trkpt>
      <trkpt lat="45.530240" lon="5.861948">
        <ele>478.824088</ele>
        <time>2017-06-03T08:04:01.000Z</time>
      </trkpt>
      <trkpt lat="45.530136" lon="5.861894">
        <ele>479.125092</ele>
        <time>2017-06-03T08:04:05.000Z</time>
      </trkpt>
      <trkpt lat="45.530033" lon="5.861839">
        <ele>479.424203</ele>
        <time>2017-06-03T08:04:09.000Z</time>
      </trkpt>
      <trkpt lat="45.529934" lon="5.861794">
        <ele>479.706797</ele>
        <time>2017-06-03T08:04:13.000Z</time>
      </trkpt>
      <trkpt lat="45.529840" lon="5.861717">
        <ele>480.001575</ele>
        <time>2017-06-03T08:04:17.000Z</time>
      </trkpt>
      <trkpt lat="45.529747" lon="5.861640">
        <ele>480.293997</ele>
        <time>2017-06-03T08:04:21.000Z</time>
      </trkpt>
      <trkpt lat="45.529655" lon="5.861574">
        <ele>480.574053</ele>
        <time>2017-06-03T08:04:25.000Z</time>
      </trkpt>
      <trkpt lat="45.529568" lon="5.861501">
        <ele>480.848540</ele>
        <time>2017-06-03T08:04:29.000Z</time>
      </trkpt>
      <trkpt lat="45.529480" lon="5.861433">
        <ele>481.120712</ele>
        <time>2017-06-03T08:04:32.000Z</time>
      </trkpt>
      <trkpt lat="45.529408" lon="5.861336">
        <ele>481.389992</ele>
        <time>2017-06-03T08:04:36.000Z</time>
      </trkpt>
      <trkpt lat="45.529297" lon="5.861257">
        <ele>481.727348</ele>
        <time>2017-06-03T08:04:40.000Z</time>
      </trkpt>
      <trkpt lat="45.529217" lon="5.861183">
        <ele>481.986633</ele>
        <time>2017-06-03T08:04:44.000Z</time>
      </trkpt>
      <trkpt lat="45.529137" lon="5.861108">
        <ele>482.246959</ele>
        <time>2017-06-03T08:04:48.000Z</time>
      </trkpt>
      <trkpt lat="45.529060" lon="5.861025">
        <ele>482.509398</ele>
        <time>2017-06-03T08:04:51.000Z</time>
      </trkpt>
      <trkpt lat="45.528990" lon="5.860939">
        <ele>482.760600</ele>
        <time>2017-06-03T08:04:54.000Z</time>
      </trkpt>
      <trkpt lat="45.528915" lon="5.860843">
        <ele>482.784827</ele>
        <time>2017-06-03T08:04:58.000Z</time>
      </trkpt>
      <trkpt lat="45.528843" lon="5.860767">
        <ele>482.769157</ele>
        <time>2017-06-03T08:05:02.000Z</time>
      </trkpt>
      <trkpt lat="45.528755" lon="5.860671">
        <ele>482.749775</ele>
        <time>2017-06-03T08:05:06.000Z</time>
      </trkpt>
      <trkpt lat="45.528667" lon="5.860572">
        <ele>482.730168</ele>
        <time>2017-06-03T08:05:10.000Z</time>
      </trkpt>
      <trkpt lat="45.528587" lon="5.860478">
        <ele>482.712036</ele>
        <time>2017-06-03T08:05:14.000Z</time>
      </trkpt>
      <trkpt lat="45.528503" lon="5.860379">
        <ele>482.692974</ele>
        <time>2017-06-03T08:05:18.000Z</time>
      </trkpt>
      <trkpt lat="45.528420" lon="5.860295">
        <ele>482.675169</ele>
        <time>2017-06-03T08:05:22.000Z</time>
      </trkpt>
      <trkpt lat="45.528347" lon="5.860199">
        <ele>482.657800</ele>
        <time>2017-06-03T08:05:26.000Z</time>
      </trkpt>
      <trkpt lat="45.528263" lon="5.860089">
        <ele>482.637852</ele>
        <time>2017-06-03T08:05:30.000Z</time>
      </trkpt>
      <trkpt lat="45.528180" lon="5.859998">
        <ele>482.619538</ele>
        <time>2017-06-03T08:05:34.000Z</time>
      </trkpt>
      <trkpt lat="45.528114" lon="5.859904">
        <ele>482.603223</ele>
        <time>2017-06-03T08:05:37.000Z</time>
      </trkpt>
      <trkpt lat="45.528038" lon="5.859796">
        <ele>482.584457</ele>
        <time>2017-06-03T08:05:41.000Z</time>
      </trkpt>
      <trkpt lat="45.527958" lon="5.859679">
        <ele>482.564414</ele>
        <time>2017-06-03T08:05:45.000Z</time>
      </trkpt>
      <trkpt lat="45.527880" lon="5.859566">
        <ele>482.544966</ele>
        <time>2017-06-03T08:05:49.000Z</time>
      </trkpt>
      <trkpt lat="45.527800" lon="5.859462">
        <ele>482.526031</ele>
        <time>2017-06-03T08:05:53.000Z</time>
      </trkpt>
      <trkpt lat="45.527730" lon="5.859352">
        <ele>482.507813</ele>
        <time>2017-06-03T08:05:57.000Z</time>
      </trkpt>
      <trkpt lat="45.527653" lon="5.859240">
        <ele>482.488575</ele>
        <time>2017-06-03T08:06:01.000Z</time>
      </trkpt>
      <trkpt lat="45.527576" lon="5.859117">
        <ele>482.920578</ele>
        <time>2017-06-03T08:06:05.000Z</time>
      </trkpt>
      <trkpt lat="45.527515" lon="5.858989">
        <ele>483.411762</ele>
        <time>2017-06-03T08:06:09.000Z</time>
      </trkpt>
      <trkpt lat="45.527460" lon="5.858865">
        <ele>483.877421</ele>
        <time>2017-06-03T08:06:13.000Z</time>
      </trkpt>
      <trkpt lat="45.527420" lon="5.858740">
        <ele>484.313444</ele>
        <time>2017-06-03T08:06:17.000Z</time>
      </trkpt>
      <trkpt lat="45.527390" lon="5.858610">
        <ele>484.747718</ele>
        <time>2017-06-03T08:06:21.000Z</time>
      </trkpt>
      <trkpt lat="45.527344" lon="5.858477">
        <ele>485.218334</ele>
        <time>2017-06-03T08:06:25.000Z</time>
      </trkpt>
      <trkpt lat="45.527298" lon="5.858351">
        <ele>485.669142</ele>
        <time>2017-06-03T08:06:29.000Z</time>
      </trkpt>
      <trkpt lat="45.527237" lon="5.858226">
        <ele>486.152487</ele>
        <time>2017-06-03T08:06:33.000Z</time>
      </trkpt>
      <trkpt lat="45.527172" lon="5.858116">
        <ele>486.609077</ele>
        <time>2017-06-03T08:06:37.000Z</time>
      </trkpt>
      <trkpt lat="45.527084" lon="5.858033">
        <ele>487.086775</ele>
        <time>2017-06-03T08:06:41.000Z</time>
      </trkpt>
      <trkpt lat="45.527004" lon="5.857958">
        <ele>487.520252</ele>
        <time>2017-06-03T08:06:45.000Z</time>
      </trkpt>
      <trkpt lat="45.526920" lon="5.857892">
        <ele>487.954514</ele>
        <time>2017-06-03T08:06:49.000Z</time>
      </trkpt>
      <trkpt lat="45.526836" lon="5.857832">
        <ele>488.379923</ele>
        <time>2017-06-03T08:06:53.000Z</time>
      </trkpt>
      <trkpt lat="45.526737" lon="5.857766">
        <ele>488.874785</ele>
        <time>2017-06-03T08:06:58.000Z</time>
      </trkpt>
      <trkpt lat="45.526646" lon="5.857711">
        <ele>489.322346</ele>
        <time>2017-06-03T08:07:02.000Z</time>
      </trkpt>
      <trkpt lat="45.526550" lon="5.857659">
        <ele>489.787382</ele>
        <time>2017-06-03T08:07:06.000Z</time>
      </trkpt>
      <trkpt lat="45.526450" lon="5.857604">
        <ele>490.272738</ele>
        <time>2017-06-03T08:07:10.000Z</time>
      </trkpt>
      <trkpt lat="45.526350" lon="5.857545">
        <ele>490.676780</ele>
        <time>2017-06-03T08:07:14.000Z</time>
      </trkpt>
      <trkpt lat="45.526240" lon="5.857487">
        <ele>490.860712</ele>
        <time>2017-06-03T08:07:18.000Z</time>
      </trkpt>
      <trkpt lat="45.526154" lon="5.857422">
        <ele>491.013348</ele>
        <time>2017-06-03T08:07:22.000Z</time>
      </trkpt>
      <trkpt lat="45.526066" lon="5.857338">
        <ele>491.179398</ele>
        <time>2017-06-03T08:07:26.000Z</time>
      </trkpt>
      <trkpt lat="45.525993" lon="5.857252">
        <ele>491.327862</ele>
        <time>2017-06-03T08:07:30.000Z</time>
      </trkpt>
      <trkpt lat="45.525917" lon="5.857148">
        <ele>491.493002</ele>
        <time>2017-06-03T08:07:35.000Z</time>
      </trkpt>
      <trkpt lat="45.525850" lon="5.857051">
        <ele>491.642687</ele>
        <time>2017-06-03T08:07:39.000Z</time>
      </trkpt>
      <trkpt lat="45.525784" lon="5.856953">
        <ele>491.792066</ele>
        <time>2017-06-03T08:07:43.000Z</time>
      </trkpt>
      <trkpt lat="45.525723" lon="5.856847">
        <ele>491.942806</ele>
        <time>2017-06-03T08:07:47.000Z</time>
      </trkpt>
      <trkpt lat="45.525658" lon="5.856737">
        <ele>492.100939</ele>
        <time>2017-06-03T08:07:51.000Z</time>
      </trkpt>
      <trkpt lat="45.525590" lon="5.856631">
        <ele>492.258876</ele>
        <time>2017-06-03T08:07:55.000Z</time>
      </trkpt>
      <trkpt lat="45.525524" lon="5.856532">
        <ele>492.409049</ele>
        <time>2017-06-03T08:07:59.000Z</time>
      </trkpt>
      <trkpt lat="45.525460" lon="5.856433">
        <ele>492.557078</ele>
        <time>2017-06-03T08:08:03.000Z</time>
      </trkpt>
      <trkpt lat="45.525383" lon="5.856330">
        <ele>492.722601</ele>
        <time>2017-06-03T08:08:08.000Z</time>
      </trkpt>
      <trkpt lat="45.525307" lon="5.856230">
        <ele>492.884730</ele>
        <time>2017-06-03T08:08:12.000Z</time>
      </trkpt>
      <trkpt lat="45.525253" lon="5.856114">
        <ele>493.037776</ele>
        <time>2017-06-03T08:08:16.000Z</time>
      </trkpt>
      <trkpt lat="45.525196" lon="5.856002">
        <ele>493.189898</ele>
        <time>2017-06-03T08:08:20.000Z</time>
      </trkpt>
      <trkpt lat="45.525135" lon="5.855894">
        <ele>493.342344</ele>
        <time>2017-06-03T08:08:24.000Z</time>
      </trkpt>
      <trkpt lat="45.525066" lon="5.855788">
        <ele>493.741223</ele>
        <time>2017-06-03T08:08:28.000Z</time>
      </trkpt>
      <trkpt lat="45.525000" lon="5.855691">
        <ele>494.618113</ele>
        <time>2017-06-03T08:08:32.000Z</time>
      </trkpt>
      <trkpt lat="45.524925" lon="5.855612">
        <ele>495.480919</ele>
        <time>2017-06-03T08:08:36.000Z</time>
      </trkpt>
      <trkpt lat="45.524857" lon="5.855511">
        <ele>496.389329</ele>
        <time>2017-06-03T08:08:40.000Z</time>
      </trkpt>
      <trkpt lat="45.524796" lon="5.855402">
        <ele>497.294036</ele>
        <time>2017-06-03T08:08:44.000Z</time>
      </trkpt>
      <trkpt lat="45.524715" lon="5.855315">
        <ele>498.232378</ele>
        <time>2017-06-03T08:08:48.000Z</time>
      </trkpt>
      <trkpt lat="45.524628" lon="5.855233">
        <ele>499.197425</ele>
        <time>2017-06-03T08:08:52.000Z</time>
      </trkpt>
      <trkpt lat="45.524536" lon="5.855188">
        <ele>500.097635</ele>
        <time>2017-06-03T08:08:56.000Z</time>
      </trkpt>
      <trkpt lat="45.524433" lon="5.855172">
        <ele>501.056681</ele>
        <time>2017-06-03T08:09:00.000Z</time>
      </trkpt>
      <trkpt lat="45.524340" lon="5.855170">
        <ele>501.917630</ele>
        <time>2017-06-03T08:09:03.000Z</time>
      </trkpt>
      <trkpt lat="45.524242" lon="5.855163">
        <ele>502.825899</ele>
        <time>2017-06-03T08:09:07.000Z</time>
      </trkpt>
      <trkpt lat="45.524136" lon="5.855126">
        <ele>503.835998</ele>
        <time>2017-06-03T08:09:11.000Z</time>
      </trkpt>
      <trkpt lat="45.524044" lon="5.855087">
        <ele>504.724358</ele>
        <time>2017-06-03T08:09:15.000Z</time>
      </trkpt>
      <trkpt lat="45.523930" lon="5.855063">
        <ele>505.791012</ele>
        <time>2017-06-03T08:09:19.000Z</time>
      </trkpt>
      <trkpt lat="45.523827" lon="5.855042">
        <ele>506.754105</ele>
        <time>2017-06-03T08:09:22.000Z</time>
      </trkpt>
      <trkpt lat="45.523724" lon="5.855030">
        <ele>507.710692</ele>
        <time>2017-06-03T08:09:26.000Z</time>
      </trkpt>
      <trkpt lat="45.523613" lon="5.855004">
        <ele>508.751903</ele>
        <time>2017-06-03T08:09:30.000Z</time>
      </trkpt>
      <trkpt lat="45.523502" lon="5.854978">
        <ele>509.793115</ele>
        <time>2017-06-03T08:09:34.000Z</time>
      </trkpt>
      <trkpt lat="45.523415" lon="5.854925">
        <ele>510.670604</ele>
        <time>2017-06-03T08:09:39.000Z</time>
      </trkpt>
      <trkpt lat="45.523308" lon="5.854938">
        <ele>511.667943</ele>
        <time>2017-06-03T08:09:44.000Z</time>
      </trkpt>
      <trkpt lat="45.523200" lon="5.854932">
        <ele>512.671735</ele>
        <time>2017-06-03T08:09:50.000Z</time>
      </trkpt>
      <trkpt lat="45.523098" lon="5.854968">
        <ele>513.647577</ele>
        <time>2017-06-03T08:09:55.000Z</time>
      </trkpt>
      <trkpt lat="45.523000" lon="5.854985">
        <ele>514.564433</ele>
        <time>2017-06-03T08:09:59.000Z</time>
      </trkpt>
      <trkpt lat="45.522896" lon="5.855017">
        <ele>515.552506</ele>
        <time>2017-06-03T08:10:04.000Z</time>
      </trkpt>
      <trkpt lat="45.522808" lon="5.855074">
        <ele>516.450013</ele>
        <time>2017-06-03T08:10:08.000Z</time>
      </trkpt>
      <trkpt lat="45.522705" lon="5.855114">
        <ele>517.441386</ele>
        <time>2017-06-03T08:10:12.000Z</time>
      </trkpt>
      <trkpt lat="45.522610" lon="5.855143">
        <ele>518.343637</ele>
        <time>2017-06-03T08:10:16.000Z</time>
      </trkpt>
      <trkpt lat="45.522520" lon="5.855175">
        <ele>519.205043</ele>
        <time>2017-06-03T08:10:20.000Z</time>
      </trkpt>
      <trkpt lat="45.522427" lon="5.855183">
        <ele>520.070333</ele>
        <time>2017-06-03T08:10:24.000Z</time>
      </trkpt>
      <trkpt lat="45.522330" lon="5.855195">
        <ele>520.974583</ele>
        <time>2017-06-03T08:10:29.000Z</time>
      </trkpt>
      <trkpt lat="45.522236" lon="5.855171">
        <ele>521.861451</ele>
        <time>2017-06-03T08:10:34.000Z</time>
      </trkpt>
      <trkpt lat="45.522137" lon="5.855138">
        <ele>522.805639</ele>
        <time>2017-06-03T08:10:38.000Z</time>
      </trkpt>
      <trkpt lat="45.522045" lon="5.855126">
        <ele>523.663635</ele>
        <time>2017-06-03T08:10:42.000Z</time>
      </trkpt>
      <trkpt lat="45.521954" lon="5.855110">
        <ele>524.515172</ele>
        <time>2017-06-03T08:10:46.000Z</time>
      </trkpt>
      <trkpt lat="45.521860" lon="5.855087">
        <ele>525.400917</ele>
        <time>2017-06-03T08:10:50.000Z</time>
      </trkpt>
      <trkpt lat="45.521755" lon="5.855080">
        <ele>526.377151</ele>
        <time>2017-06-03T08:10:55.000Z</time>
      </trkpt>
      <trkpt lat="45.521664" lon="5.855067">
        <ele>526.665763</ele>
        <time>2017-06-03T08:10:59.000Z</time>
      </trkpt>
      <trkpt lat="45.521570" lon="5.855068">
        <ele>526.374356</ele>
        <time>2017-06-03T08:11:03.000Z</time>
      </trkpt>
      <trkpt lat="45.521458" lon="5.855038">
        <ele>526.021096</ele>
        <time>2017-06-03T08:11:08.000Z</time>
      </trkpt>
      <trkpt lat="45.521370" lon="5.854977">
        <ele>525.717825</ele>
        <time>2017-06-03T08:11:12.000Z</time>
      </trkpt>
      <trkpt lat="45.521282" lon="5.854923">
        <ele>525.420882</ele>
        <time>2017-06-03T08:11:16.000Z</time>
      </trkpt>
      <trkpt lat="45.521183" lon="5.854867">
        <ele>525.090759</ele>
        <time>2017-06-03T08:11:21.000Z</time>
      </trkpt>
      <trkpt lat="45.521072" lon="5.854827">
        <ele>524.735862</ele>
        <time>2017-06-03T08:11:26.000Z</time>
      </trkpt>
      <trkpt lat="45.520980" lon="5.854754">
        <ele>524.409551</ele>
        <time>2017-06-03T08:11:30.000Z</time>
      </trkpt>
      <trkpt lat="45.520893" lon="5.854720">
        <ele>524.129925</ele>
        <time>2017-06-03T08:11:34.000Z</time>
      </trkpt>
      <trkpt lat="45.520790" lon="5.854633">
        <ele>523.758900</ele>
        <time>2017-06-03T08:11:38.000Z</time>
      </trkpt>
      <trkpt lat="45.520710" lon="5.854557">
        <ele>523.460986</ele>
        <time>2017-06-03T08:11:42.000Z</time>
      </trkpt>
      <trkpt lat="45.520626" lon="5.854479">
        <ele>523.150326</ele>
        <time>2017-06-03T08:11:46.000Z</time>
      </trkpt>
      <trkpt lat="45.520540" lon="5.854395">
        <ele>522.827274</ele>
        <time>2017-06-03T08:11:50.000Z</time>
      </trkpt>
      <trkpt lat="45.520447" lon="5.854315">
        <ele>522.490659</ele>
        <time>2017-06-03T08:11:54.000Z</time>
      </trkpt>
      <trkpt lat="45.520350" lon="5.854238">
        <ele>522.146579</ele>
        <time>2017-06-03T08:11:58.000Z</time>
      </trkpt>
      <trkpt lat="45.520252" lon="5.854180">
        <ele>521.817696</ele>
        <time>2017-06-03T08:12:02.000Z</time>
      </trkpt>
      <trkpt lat="45.520164" lon="5.854139">
        <ele>521.530730</ele>
        <time>2017-06-03T08:12:05.000Z</time>
      </trkpt>
      <trkpt lat="45.520054" lon="5.854091">
        <ele>521.226126</ele>
        <time>2017-06-03T08:12:09.000Z</time>
      </trkpt>
      <trkpt lat="45.519947" lon="5.854035">
        <ele>521.199730</ele>
        <time>2017-06-03T08:12:13.000Z</time>
      </trkpt>
      <trkpt lat="45.519836" lon="5.853992">
        <ele>521.173092</ele>
        <time>2017-06-03T08:12:17.000Z</time>
      </trkpt>
      <trkpt lat="45.519750" lon="5.853956">
        <ele>521.152335</ele>
        <time>2017-06-03T08:12:20.000Z</time>
      </trkpt>
      <trkpt lat="45.519653" lon="5.853913">
        <ele>521.128811</ele>
        <time>2017-06-03T08:12:23.000Z</time>
      </trkpt>
      <trkpt lat="45.519547" lon="5.853876">
        <ele>521.103537</ele>
        <time>2017-06-03T08:12:26.000Z</time>
      </trkpt>
      <trkpt lat="45.519447" lon="5.853822">
        <ele>521.078774</ele>
        <time>2017-06-03T08:12:29.000Z</time>
      </trkpt>
      <trkpt lat="45.519360" lon="5.853783">
        <ele>521.057654</ele>
        <time>2017-06-03T08:12:32.000Z</time>
      </trkpt>
      <trkpt lat="45.519245" lon="5.853733">
        <ele>521.029811</ele>
        <time>2017-06-03T08:12:35.000Z</time>
      </trkpt>
      <trkpt lat="45.519140" lon="5.853684">
        <ele>521.004225</ele>
        <time>2017-06-03T08:12:38.000Z</time>
      </trkpt>
      <trkpt lat="45.519016" lon="5.853643">
        <ele>520.974746</ele>
        <time>2017-06-03T08:12:41.000Z</time>
      </trkpt>
      <trkpt lat="45.518900" lon="5.853599">
        <ele>520.946947</ele>
        <time>2017-06-03T08:12:44.000Z</time>
      </trkpt>
      <trkpt lat="45.518787" lon="5.853549">
        <ele>520.919547</ele>
        <time>2017-06-03T08:12:47.000Z</time>
      </trkpt>
      <trkpt lat="45.518677" lon="5.853502">
        <ele>520.892953</ele>
        <time>2017-06-03T08:12:50.000Z</time>
      </trkpt>
      <trkpt lat="45.518555" lon="5.853456">
        <ele>520.863728</ele>
        <time>2017-06-03T08:12:53.000Z</time>
      </trkpt>
      <trkpt lat="45.518433" lon="5.853408">
        <ele>520.834418</ele>
        <time>2017-06-03T08:12:56.000Z</time>
      </trkpt>
      <trkpt lat="45.518310" lon="5.853365">
        <ele>520.862647</ele>
        <time>2017-06-03T08:12:59.000Z</time>
      </trkpt>
      <trkpt lat="45.518190" lon="5.853316">
        <ele>521.025875</ele>
        <time>2017-06-03T08:13:02.000Z</time>
      </trkpt>
      <trkpt lat="45.518066" lon="5.853270">
        <ele>521.193427</ele>
        <time>2017-06-03T08:13:05.000Z</time>
      </trkpt>
      <trkpt lat="45.517950" lon="5.853226">
        <ele>521.350394</ele>
        <time>2017-06-03T08:13:08.000Z</time>
      </trkpt>
      <trkpt lat="45.517830" lon="5.853177">
        <ele>521.513622</ele>
        <time>2017-06-03T08:13:11.000Z</time>
      </trkpt>
      <trkpt lat="45.517700" lon="5.853127">
        <ele>521.689697</ele>
        <time>2017-06-03T08:13:14.000Z</time>
      </trkpt>
      <trkpt lat="45.517582" lon="5.853065">
        <ele>521.854139</ele>
        <time>2017-06-03T08:13:17.000Z</time>
      </trkpt>
      <trkpt lat="45.517494" lon="5.853020">
        <ele>521.976387</ele>
        <time>2017-06-03T08:13:19.000Z</time>
      </trkpt>
      <trkpt lat="45.517406" lon="5.852983">
        <ele>522.096361</ele>
        <time>2017-06-03T08:13:21.000Z</time>
      </trkpt>
      <trkpt lat="45.517310" lon="5.852944">
        <ele>522.226894</ele>
        <time>2017-06-03T08:13:23.000Z</time>
      </trkpt>
      <trkpt lat="45.517216" lon="5.852911">
        <ele>522.353488</ele>
        <time>2017-06-03T08:13:25.000Z</time>
      </trkpt>
      <trkpt lat="45.517124" lon="5.852872">
        <ele>522.478998</ele>
        <time>2017-06-03T08:13:27.000Z</time>
      </trkpt>
      <trkpt lat="45.517030" lon="5.852829">
        <ele>522.608088</ele>
        <time>2017-06-03T08:13:29.000Z</time>
      </trkpt>
      <trkpt lat="45.516940" lon="5.852790">
        <ele>522.731093</ele>
        <time>2017-06-03T08:13:31.000Z</time>
      </trkpt>
      <trkpt lat="45.516846" lon="5.852757">
        <ele>522.857688</ele>
        <time>2017-06-03T08:13:33.000Z</time>
      </trkpt>
      <trkpt lat="45.516758" lon="5.852718">
        <ele>522.978192</ele>
        <time>2017-06-03T08:13:35.000Z</time>
      </trkpt>
      <trkpt lat="45.516670" lon="5.852677">
        <ele>523.099253</ele>
        <time>2017-06-03T08:13:37.000Z</time>
      </trkpt>
      <trkpt lat="45.516580" lon="5.852643">
        <ele>523.159679</ele>
        <time>2017-06-03T08:13:39.000Z</time>
      </trkpt>
      <trkpt lat="45.516487" lon="5.852613">
        <ele>523.145476</ele>
        <time>2017-06-03T08:13:41.000Z</time>
      </trkpt>
      <trkpt lat="45.516396" lon="5.852576">
        <ele>523.131382</ele>
        <time>2017-06-03T08:13:43.000Z</time>
      </trkpt>
      <trkpt lat="45.516270" lon="5.852515">
        <ele>523.111563</ele>
        <time>2017-06-03T08:13:46.000Z</time>
      </trkpt>
      <trkpt lat="45.516182" lon="5.852475">
        <ele>523.097806</ele>
        <time>2017-06-03T08:13:48.000Z</time>
      </trkpt>
      <trkpt lat="45.516056" lon="5.852422">
        <ele>523.078239</ele>
        <time>2017-06-03T08:13:51.000Z</time>
      </trkpt>
      <trkpt lat="45.515926" lon="5.852370">
        <ele>523.058128</ele>
        <time>2017-06-03T08:13:54.000Z</time>
      </trkpt>
      <trkpt lat="45.515830" lon="5.852333">
        <ele>523.043316</ele>
        <time>2017-06-03T08:13:56.000Z</time>
      </trkpt>
      <trkpt lat="45.515736" lon="5.852300">
        <ele>523.028897</ele>
        <time>2017-06-03T08:13:58.000Z</time>
      </trkpt>
      <trkpt lat="45.515636" lon="5.852269">
        <ele>523.013654</ele>
        <time>2017-06-03T08:14:00.000Z</time>
      </trkpt>
      <trkpt lat="45.515507" lon="5.852215">
        <ele>522.993629</ele>
        <time>2017-06-03T08:14:03.000Z</time>
      </trkpt>
      <trkpt lat="45.515408" lon="5.852173">
        <ele>522.978244</ele>
        <time>2017-06-03T08:14:05.000Z</time>
      </trkpt>
      <trkpt lat="45.515316" lon="5.852136">
        <ele>522.964006</ele>
        <time>2017-06-03T08:14:07.000Z</time>
      </trkpt>
      <trkpt lat="45.515224" lon="5.852097">
        <ele>522.949711</ele>
        <time>2017-06-03T08:14:09.000Z</time>
      </trkpt>
      <trkpt lat="45.515137" lon="5.852056">
        <ele>522.936063</ele>
        <time>2017-06-03T08:14:11.000Z</time>
      </trkpt>
      <trkpt lat="45.515050" lon="5.852010">
        <ele>522.922243</ele>
        <time>2017-06-03T08:14:13.000Z</time>
      </trkpt>
      <trkpt lat="45.514910" lon="5.851969">
        <ele>522.900954</ele>
        <time>2017-06-03T08:14:16.000Z</time>
      </trkpt>
      <trkpt lat="45.514820" lon="5.851938">
        <ele>523.081677</ele>
        <time>2017-06-03T08:14:18.000Z</time>
      </trkpt>
      <trkpt lat="45.514730" lon="5.851900">
        <ele>523.317958</ele>
        <time>2017-06-03T08:14:20.000Z</time>
      </trkpt>
      <trkpt lat="45.514633" lon="5.851862">
        <ele>523.571187</ele>
        <time>2017-06-03T08:14:22.000Z</time>
      </trkpt>
      <trkpt lat="45.514540" lon="5.851822">
        <ele>523.815714</ele>
        <time>2017-06-03T08:14:24.000Z</time>
      </trkpt>
      <trkpt lat="45.514440" lon="5.851792">
        <ele>524.072964</ele>
        <time>2017-06-03T08:14:26.000Z</time>
      </trkpt>
      <trkpt lat="45.514343" lon="5.851758">
        <ele>524.324417</ele>
        <time>2017-06-03T08:14:28.000Z</time>
      </trkpt>
      <trkpt lat="45.514248" lon="5.851727">
        <ele>524.569749</ele>
        <time>2017-06-03T08:14:30.000Z</time>
      </trkpt>
      <trkpt lat="45.514153" lon="5.851695">
        <ele>524.815481</ele>
        <time>2017-06-03T08:14:32.000Z</time>
      </trkpt>
      <trkpt lat="45.514060" lon="5.851657">
        <ele>525.059014</ele>
        <time>2017-06-03T08:14:34.000Z</time>
      </trkpt>
      <trkpt lat="45.513943" lon="5.851602">
        <ele>525.369127</ele>
        <time>2017-06-03T08:14:37.000Z</time>
      </trkpt>
      <trkpt lat="45.513850" lon="5.851568">
        <ele>525.610813</ele>
        <time>2017-06-03T08:14:39.000Z</time>
      </trkpt>
      <trkpt lat="45.513760" lon="5.851528">
        <ele>525.848119</ele>
        <time>2017-06-03T08:14:41.000Z</time>
      </trkpt>
      <trkpt lat="45.513630" lon="5.851484">
        <ele>526.184469</ele>
        <time>2017-06-03T08:14:44.000Z</time>
      </trkpt>
      <trkpt lat="45.513540" lon="5.851448">
        <ele>526.419774</ele>
        <time>2017-06-03T08:14:46.000Z</time>
      </trkpt>
      <trkpt lat="45.513450" lon="5.851397">
        <ele>526.663556</ele>
        <time>2017-06-03T08:14:48.000Z</time>
      </trkpt>
      <trkpt lat="45.513360" lon="5.851369">
        <ele>526.895450</ele>
        <time>2017-06-03T08:14:50.000Z</time>
      </trkpt>
      <trkpt lat="45.513270" lon="5.851341">
        <ele>527.127345</ele>
        <time>2017-06-03T08:14:52.000Z</time>
      </trkpt>
      <trkpt lat="45.513180" lon="5.851302">
        <ele>527.364133</ele>
        <time>2017-06-03T08:14:54.000Z</time>
      </trkpt>
      <trkpt lat="45.513090" lon="5.851264">
        <ele>527.546600</ele>
        <time>2017-06-03T08:14:56.000Z</time>
      </trkpt>
      <trkpt lat="45.512993" lon="5.851219">
        <ele>527.724120</ele>
        <time>2017-06-03T08:14:58.000Z</time>
      </trkpt>
      <trkpt lat="45.512897" lon="5.851183">
        <ele>527.896874</ele>
        <time>2017-06-03T08:15:00.000Z</time>
      </trkpt>
      <trkpt lat="45.512768" lon="5.851130">
        <ele>528.130511</ele>
        <time>2017-06-03T08:15:03.000Z</time>
      </trkpt>
      <trkpt lat="45.512676" lon="5.851100">
        <ele>528.294758</ele>
        <time>2017-06-03T08:15:05.000Z</time>
      </trkpt>
      <trkpt lat="45.512580" lon="5.851076">
        <ele>528.464385</ele>
        <time>2017-06-03T08:15:07.000Z</time>
      </trkpt>
      <trkpt lat="45.512480" lon="5.851040">
        <ele>528.643881</ele>
        <time>2017-06-03T08:15:09.000Z</time>
      </trkpt>
      <trkpt lat="45.512390" lon="5.851003">
        <ele>528.806891</ele>
        <time>2017-06-03T08:15:11.000Z</time>
      </trkpt>
      <trkpt lat="45.512295" lon="5.850963">
        <ele>528.979280</ele>
        <time>2017-06-03T08:15:13.000Z</time>
      </trkpt>
      <trkpt lat="45.512196" lon="5.850928">
        <ele>529.156792</ele>
        <time>2017-06-03T08:15:15.000Z</time>
      </trkpt>
      <trkpt lat="45.512104" lon="5.850881">
        <ele>529.326864</ele>
        <time>2017-06-03T08:15:17.000Z</time>
      </trkpt>
      <trkpt lat="45.512005" lon="5.850839">
        <ele>529.506620</ele>
        <time>2017-06-03T08:15:19.000Z</time>
      </trkpt>
      <trkpt lat="45.511913" lon="5.850793">
        <ele>529.676285</ele>
        <time>2017-06-03T08:15:21.000Z</time>
      </trkpt>
      <trkpt lat="45.511820" lon="5.850749">
        <ele>529.846809</ele>
        <time>2017-06-03T08:15:23.000Z</time>
      </trkpt>
      <trkpt lat="45.511730" lon="5.850700">
        <ele>530.014462</ele>
        <time>2017-06-03T08:15:25.000Z</time>
      </trkpt>
      <trkpt lat="45.511640" lon="5.850650">
        <ele>530.182553</ele>
        <time>2017-06-03T08:15:27.000Z</time>
      </trkpt>
      <trkpt lat="45.511543" lon="5.850615">
        <ele>530.356689</ele>
        <time>2017-06-03T08:15:29.000Z</time>
      </trkpt>
      <trkpt lat="45.511450" lon="5.850575">
        <ele>530.525742</ele>
        <time>2017-06-03T08:15:31.000Z</time>
      </trkpt>
      <trkpt lat="45.511353" lon="5.850540">
        <ele>530.582648</ele>
        <time>2017-06-03T08:15:33.000Z</time>
      </trkpt>
      <trkpt lat="45.511270" lon="5.850488">
        <ele>530.611426</ele>
        <time>2017-06-03T08:15:35.000Z</time>
      </trkpt>
      <trkpt lat="45.511177" lon="5.850454">
        <ele>530.641905</ele>
        <time>2017-06-03T08:15:37.000Z</time>
      </trkpt>
      <trkpt lat="45.511080" lon="5.850422">
        <ele>530.673513</ele>
        <time>2017-06-03T08:15:39.000Z</time>
      </trkpt>
      <trkpt lat="45.510986" lon="5.850391">
        <ele>530.704142</ele>
        <time>2017-06-03T08:15:41.000Z</time>
      </trkpt>
      <trkpt lat="45.510890" lon="5.850361">
        <ele>530.735342</ele>
        <time>2017-06-03T08:15:43.000Z</time>
      </trkpt>
      <trkpt lat="45.510800" lon="5.850329">
        <ele>530.764788</ele>
        <time>2017-06-03T08:15:45.000Z</time>
      </trkpt>
      <trkpt lat="45.510704" lon="5.850298">
        <ele>530.796037</ele>
        <time>2017-06-03T08:15:47.000Z</time>
      </trkpt>
      <trkpt lat="45.510610" lon="5.850274">
        <ele>530.826353</ele>
        <time>2017-06-03T08:15:49.000Z</time>
      </trkpt>
      <trkpt lat="45.510510" lon="5.850249">
        <ele>530.858585</ele>
        <time>2017-06-03T08:15:51.000Z</time>
      </trkpt>
      <trkpt lat="45.510414" lon="5.850226">
        <ele>530.889489</ele>
        <time>2017-06-03T08:15:53.000Z</time>
      </trkpt>
      <trkpt lat="45.510320" lon="5.850192">
        <ele>530.920275</ele>
        <time>2017-06-03T08:15:55.000Z</time>
      </trkpt>
      <trkpt lat="45.510190" lon="5.850150">
        <ele>530.962592</ele>
        <time>2017-06-03T08:15:58.000Z</time>
      </trkpt>
      <trkpt lat="45.510060" lon="5.850129">
        <ele>531.004128</ele>
        <time>2017-06-03T08:16:01.000Z</time>
      </trkpt>
      <trkpt lat="45.509926" lon="5.850084">
        <ele>531.047832</ele>
        <time>2017-06-03T08:16:04.000Z</time>
      </trkpt>
      <trkpt lat="45.509834" lon="5.850054">
        <ele>531.077792</ele>
        <time>2017-06-03T08:16:06.000Z</time>
      </trkpt>
      <trkpt lat="45.509740" lon="5.850028">
        <ele>531.108191</ele>
        <time>2017-06-03T08:16:08.000Z</time>
      </trkpt>
      <trkpt lat="45.509644" lon="5.850010">
        <ele>531.116282</ele>
        <time>2017-06-03T08:16:10.000Z</time>
      </trkpt>
      <trkpt lat="45.509540" lon="5.849995">
        <ele>531.083598</ele>
        <time>2017-06-03T08:16:12.000Z</time>
      </trkpt>
      <trkpt lat="45.509438" lon="5.850003">
        <ele>531.051657</ele>
        <time>2017-06-03T08:16:14.000Z</time>
      </trkpt>
      <trkpt lat="45.509335" lon="5.849986">
        <ele>531.019237</ele>
        <time>2017-06-03T08:16:16.000Z</time>
      </trkpt>
      <trkpt lat="45.509228" lon="5.849967">
        <ele>530.985523</ele>
        <time>2017-06-03T08:16:18.000Z</time>
      </trkpt>
      <trkpt lat="45.509130" lon="5.849948">
        <ele>530.954600</ele>
        <time>2017-06-03T08:16:20.000Z</time>
      </trkpt>
      <trkpt lat="45.509030" lon="5.849920">
        <ele>530.922736</ele>
        <time>2017-06-03T08:16:22.000Z</time>
      </trkpt>
      <trkpt lat="45.508930" lon="5.849892">
        <ele>530.890872</ele>
        <time>2017-06-03T08:16:24.000Z</time>
      </trkpt>
      <trkpt lat="45.508842" lon="5.849856">
        <ele>530.862249</ele>
        <time>2017-06-03T08:16:26.000Z</time>
      </trkpt>
      <trkpt lat="45.508747" lon="5.849821">
        <ele>530.831571</ele>
        <time>2017-06-03T08:16:28.000Z</time>
      </trkpt>
      <trkpt lat="45.508656" lon="5.849793">
        <ele>530.802463</ele>
        <time>2017-06-03T08:16:30.000Z</time>
      </trkpt>
      <trkpt lat="45.508568" lon="5.849754">
        <ele>530.773652</ele>
        <time>2017-06-03T08:16:32.000Z</time>
      </trkpt>
      <trkpt lat="45.508476" lon="5.849723">
        <ele>530.744094</ele>
        <time>2017-06-03T08:16:34.000Z</time>
      </trkpt>
      <trkpt lat="45.508377" lon="5.849690">
        <ele>530.712306</ele>
        <time>2017-06-03T08:16:36.000Z</time>
      </trkpt>
      <trkpt lat="45.508286" lon="5.849651">
        <ele>530.682598</ele>
        <time>2017-06-03T08:16:38.000Z</time>
      </trkpt>
      <trkpt lat="45.508200" lon="5.849605">
        <ele>530.653881</ele>
        <time>2017-06-03T08:16:40.000Z</time>
      </trkpt>
      <trkpt lat="45.508118" lon="5.849555">
        <ele>530.625998</ele>
        <time>2017-06-03T08:16:42.000Z</time>
      </trkpt>
      <trkpt lat="45.507996" lon="5.849501">
        <ele>530.586059</ele>
        <time>2017-06-03T08:16:45.000Z</time>
      </trkpt>
      <trkpt lat="45.507866" lon="5.849433">
        <ele>530.565255</ele>
        <time>2017-06-03T08:16:48.000Z</time>
      </trkpt>
      <trkpt lat="45.507750" lon="5.849367">
        <ele>530.565469</ele>
        <time>2017-06-03T08:16:51.000Z</time>
      </trkpt>
      <trkpt lat="45.507637" lon="5.849300">
        <ele>530.565679</ele>
        <time>2017-06-03T08:16:54.000Z</time>
      </trkpt>
      <trkpt lat="45.507520" lon="5.849253">
        <ele>530.565888</ele>
        <time>2017-06-03T08:16:57.000Z</time>
      </trkpt>
      <trkpt lat="45.507410" lon="5.849191">
        <ele>530.566091</ele>
        <time>2017-06-03T08:17:00.000Z</time>
      </trkpt>
      <trkpt lat="45.507286" lon="5.849134">
        <ele>530.566314</ele>
        <time>2017-06-03T08:17:03.000Z</time>
      </trkpt>
      <trkpt lat="45.507168" lon="5.849073">
        <ele>530.566530</ele>
        <time>2017-06-03T08:17:06.000Z</time>
      </trkpt>
      <trkpt lat="45.507042" lon="5.849019">
        <ele>530.566756</ele>
        <time>2017-06-03T08:17:09.000Z</time>
      </trkpt>
      <trkpt lat="45.506924" lon="5.848952">
        <ele>530.566973</ele>
        <time>2017-06-03T08:17:12.000Z</time>
      </trkpt>
      <trkpt lat="45.506800" lon="5.848901">
        <ele>530.567195</ele>
        <time>2017-06-03T08:17:15.000Z</time>
      </trkpt>
      <trkpt lat="45.506714" lon="5.848865">
        <ele>530.567349</ele>
        <time>2017-06-03T08:17:17.000Z</time>
      </trkpt>
      <trkpt lat="45.506600" lon="5.848801">
        <ele>530.567559</ele>
        <time>2017-06-03T08:17:20.000Z</time>
      </trkpt>
      <trkpt lat="45.506485" lon="5.848740">
        <ele>530.567770</ele>
        <time>2017-06-03T08:17:23.000Z</time>
      </trkpt>
      <trkpt lat="45.506370" lon="5.848674">
        <ele>530.567982</ele>
        <time>2017-06-03T08:17:26.000Z</time>
      </trkpt>
      <trkpt lat="45.506252" lon="5.848624">
        <ele>530.568194</ele>
        <time>2017-06-03T08:17:29.000Z</time>
      </trkpt>
      <trkpt lat="45.506153" lon="5.848562">
        <ele>530.690883</ele>
        <time>2017-06-03T08:17:32.000Z</time>
      </trkpt>
      <trkpt lat="45.506035" lon="5.848507">
        <ele>530.854045</ele>
        <time>2017-06-03T08:17:35.000Z</time>
      </trkpt>
      <trkpt lat="45.505924" lon="5.848436">
        <ele>531.013930</ele>
        <time>2017-06-03T08:17:38.000Z</time>
      </trkpt>
      <trkpt lat="45.505810" lon="5.848377">
        <ele>531.173322</ele>
        <time>2017-06-03T08:17:41.000Z</time>
      </trkpt>
      <trkpt lat="45.505695" lon="5.848316">
        <ele>531.334582</ele>
        <time>2017-06-03T08:17:44.000Z</time>
      </trkpt>
      <trkpt lat="45.505580" lon="5.848260">
        <ele>531.494296</ele>
        <time>2017-06-03T08:17:47.000Z</time>
      </trkpt>
      <trkpt lat="45.505470" lon="5.848220">
        <ele>531.643499</ele>
        <time>2017-06-03T08:17:50.000Z</time>
      </trkpt>
      <trkpt lat="45.505363" lon="5.848180">
        <ele>531.788885</ele>
        <time>2017-06-03T08:17:53.000Z</time>
      </trkpt>
      <trkpt lat="45.505257" lon="5.848140">
        <ele>531.932999</ele>
        <time>2017-06-03T08:17:56.000Z</time>
      </trkpt>
      <trkpt lat="45.505146" lon="5.848080">
        <ele>532.089014</ele>
        <time>2017-06-03T08:17:59.000Z</time>
      </trkpt>
      <trkpt lat="45.505047" lon="5.848028">
        <ele>532.227674</ele>
        <time>2017-06-03T08:18:02.000Z</time>
      </trkpt>
      <trkpt lat="45.504948" lon="5.847982">
        <ele>532.364523</ele>
        <time>2017-06-03T08:18:05.000Z</time>
      </trkpt>
      <trkpt lat="45.504856" lon="5.847942">
        <ele>532.490936</ele>
        <time>2017-06-03T08:18:08.000Z</time>
      </trkpt>
      <trkpt lat="45.504770" lon="5.847894">
        <ele>532.612313</ele>
        <time>2017-06-03T08:18:11.000Z</time>
      </trkpt>
      <trkpt lat="45.504677" lon="5.847848">
        <ele>532.741687</ele>
        <time>2017-06-03T08:18:14.000Z</time>
      </trkpt>
      <trkpt lat="45.504580" lon="5.847808">
        <ele>532.874399</ele>
        <time>2017-06-03T08:18:17.000Z</time>
      </trkpt>
      <trkpt lat="45.504498" lon="5.847750">
        <ele>533.121145</ele>
        <time>2017-06-03T08:18:20.000Z</time>
      </trkpt>
      <trkpt lat="45.504417" lon="5.847688">
        <ele>533.486890</ele>
        <time>2017-06-03T08:18:23.000Z</time>
      </trkpt>
      <trkpt lat="45.504337" lon="5.847626">
        <ele>533.849134</ele>
        <time>2017-06-03T08:18:26.000Z</time>
      </trkpt>
      <trkpt lat="45.504257" lon="5.847554">
        <ele>534.225487</ele>
        <time>2017-06-03T08:18:29.000Z</time>
      </trkpt>
      <trkpt lat="45.504173" lon="5.847483">
        <ele>534.613965</ele>
        <time>2017-06-03T08:18:32.000Z</time>
      </trkpt>
      <trkpt lat="45.504093" lon="5.847420">
        <ele>534.977549</ele>
        <time>2017-06-03T08:18:35.000Z</time>
      </trkpt>
      <trkpt lat="45.504025" lon="5.847314">
        <ele>535.378285</ele>
        <time>2017-06-03T08:18:39.000Z</time>
      </trkpt>
      <trkpt lat="45.503940" lon="5.847211">
        <ele>535.822011</ele>
        <time>2017-06-03T08:18:43.000Z</time>
      </trkpt>
      <trkpt lat="45.503860" lon="5.847108">
        <ele>536.250767</ele>
        <time>2017-06-03T08:18:47.000Z</time>
      </trkpt>
      <trkpt lat="45.503770" lon="5.847001">
        <ele>536.716900</ele>
        <time>2017-06-03T08:18:51.000Z</time>
      </trkpt>
      <trkpt lat="45.503696" lon="5.846908">
        <ele>537.109278</ele>
        <time>2017-06-03T08:18:54.000Z</time>
      </trkpt>
      <trkpt lat="45.503630" lon="5.846814">
        <ele>537.480334</ele>
        <time>2017-06-03T08:18:57.000Z</time>
      </trkpt>
      <trkpt lat="45.503560" lon="5.846739">
        <ele>537.828650</ele>
        <time>2017-06-03T08:19:00.000Z</time>
      </trkpt>
      <trkpt lat="45.503475" lon="5.846623">
        <ele>538.296663</ele>
        <time>2017-06-03T08:19:04.000Z</time>
      </trkpt>
      <trkpt lat="45.503414" lon="5.846527">
        <ele>538.658028</ele>
        <time>2017-06-03T08:19:07.000Z</time>
      </trkpt>
      <trkpt lat="45.503326" lon="5.846410">
        <ele>539.136636</ele>
        <time>2017-06-03T08:19:11.000Z</time>
      </trkpt>
      <trkpt lat="45.503254" lon="5.846331">
        <ele>539.498038</ele>
        <time>2017-06-03T08:19:14.000Z</time>
      </trkpt>
      <trkpt lat="45.503185" lon="5.846250">
        <ele>539.853570</ele>
        <time>2017-06-03T08:19:17.000Z</time>
      </trkpt>
      <trkpt lat="45.503113" lon="5.846155">
        <ele>540.289365</ele>
        <time>2017-06-03T08:19:20.000Z</time>
      </trkpt>
      <trkpt lat="45.503036" lon="5.846062">
        <ele>540.809071</ele>
        <time>2017-06-03T08:19:23.000Z</time>
      </trkpt>
      <trkpt lat="45.502960" lon="5.845969">
        <ele>541.324857</ele>
        <time>2017-06-03T08:19:26.000Z</time>
      </trkpt>
      <trkpt lat="45.502888" lon="5.845869">
        <ele>541.842483</ele>
        <time>2017-06-03T08:19:29.000Z</time>
      </trkpt>
      <trkpt lat="45.502820" lon="5.845769">
        <ele>542.345549</ele>
        <time>2017-06-03T08:19:32.000Z</time>
      </trkpt>
      <trkpt lat="45.502743" lon="5.845669">
        <ele>542.881933</ele>
        <time>2017-06-03T08:19:35.000Z</time>
      </trkpt>
      <trkpt lat="45.502674" lon="5.845565">
        <ele>543.398992</ele>
        <time>2017-06-03T08:19:38.000Z</time>
      </trkpt>
      <trkpt lat="45.502594" lon="5.845468">
        <ele>543.939828</ele>
        <time>2017-06-03T08:19:41.000Z</time>
      </trkpt>
      <trkpt lat="45.502518" lon="5.845360">
        <ele>544.492405</ele>
        <time>2017-06-03T08:19:44.000Z</time>
      </trkpt>
      <trkpt lat="45.502438" lon="5.845248">
        <ele>545.069790</ele>
        <time>2017-06-03T08:19:47.000Z</time>
      </trkpt>
      <trkpt lat="45.502396" lon="5.845095">
        <ele>545.663072</ele>
        <time>2017-06-03T08:19:50.000Z</time>
      </trkpt>
      <trkpt lat="45.502342" lon="5.844949">
        <ele>546.259118</ele>
        <time>2017-06-03T08:19:53.000Z</time>
      </trkpt>
      <trkpt lat="45.502235" lon="5.844879">
        <ele>546.865514</ele>
        <time>2017-06-03T08:19:56.000Z</time>
      </trkpt>
      <trkpt lat="45.502155" lon="5.844804">
        <ele>547.358642</ele>
        <time>2017-06-03T08:19:59.000Z</time>
      </trkpt>
      <trkpt lat="45.502083" lon="5.844716">
        <ele>547.847037</ele>
        <time>2017-06-03T08:20:02.000Z</time>
      </trkpt>
      <trkpt lat="45.502018" lon="5.844609">
        <ele>548.358291</ele>
        <time>2017-06-03T08:20:06.000Z</time>
      </trkpt>
      <trkpt lat="45.501965" lon="5.844502">
        <ele>548.831369</ele>
        <time>2017-06-03T08:26:32.000Z</time>
      </trkpt>
      <trkpt lat="45.501873" lon="5.844435">
        <ele>549.358491</ele>
        <time>2017-06-03T08:26:36.000Z</time>
      </trkpt>
      <trkpt lat="45.501780" lon="5.844347">
        <ele>549.600888</ele>
        <time>2017-06-03T08:26:40.000Z</time>
      </trkpt>
      <trkpt lat="45.501690" lon="5.844252">
        <ele>549.844065</ele>
        <time>2017-06-03T08:26:44.000Z</time>
      </trkpt>
      <trkpt lat="45.501600" lon="5.844160">
        <ele>550.084554</ele>
        <time>2017-06-03T08:26:48.000Z</time>
      </trkpt>
      <trkpt lat="45.501522" lon="5.844056">
        <ele>550.316448</ele>
        <time>2017-06-03T08:26:52.000Z</time>
      </trkpt>
      <trkpt lat="45.501410" lon="5.844006">
        <ele>550.571358</ele>
        <time>2017-06-03T08:26:56.000Z</time>
      </trkpt>
      <trkpt lat="45.501328" lon="5.843922">
        <ele>550.790629</ele>
        <time>2017-06-03T08:26:59.000Z</time>
      </trkpt>
      <trkpt lat="45.501250" lon="5.843839">
        <ele>551.001988</ele>
        <time>2017-06-03T08:27:02.000Z</time>
      </trkpt>
      <trkpt lat="45.501175" lon="5.843754">
        <ele>551.210041</ele>
        <time>2017-06-03T08:27:05.000Z</time>
      </trkpt>
      <trkpt lat="45.501080" lon="5.843686">
        <ele>551.440907</ele>
        <time>2017-06-03T08:27:08.000Z</time>
      </trkpt>
      <trkpt lat="45.501000" lon="5.843610">
        <ele>551.649675</ele>
        <time>2017-06-03T08:27:11.000Z</time>
      </trkpt>
      <trkpt lat="45.500920" lon="5.843530">
        <ele>551.861879</ele>
        <time>2017-06-03T08:27:14.000Z</time>
      </trkpt>
      <trkpt lat="45.500847" lon="5.843442">
        <ele>552.069467</ele>
        <time>2017-06-03T08:27:17.000Z</time>
      </trkpt>
      <trkpt lat="45.500774" lon="5.843366">
        <ele>552.265760</ele>
        <time>2017-06-03T08:27:20.000Z</time>
      </trkpt>
      <trkpt lat="45.500687" lon="5.843312">
        <ele>552.471844</ele>
        <time>2017-06-03T08:27:23.000Z</time>
      </trkpt>
      <trkpt lat="45.500618" lon="5.843210">
        <ele>552.687664</ele>
        <time>2017-06-03T08:27:26.000Z</time>
      </trkpt>
      <trkpt lat="45.500515" lon="5.843111">
        <ele>552.957428</ele>
        <time>2017-06-03T08:27:29.000Z</time>
      </trkpt>
      <trkpt lat="45.500430" lon="5.843043">
        <ele>553.169104</ele>
        <time>2017-06-03T08:27:31.000Z</time>
      </trkpt>
      <trkpt lat="45.500355" lon="5.842963">
        <ele>553.463302</ele>
        <time>2017-06-03T08:27:33.000Z</time>
      </trkpt>
      <trkpt lat="45.500250" lon="5.842900">
        <ele>553.913542</ele>
        <time>2017-06-03T08:27:36.000Z</time>
      </trkpt>
      <trkpt lat="45.500156" lon="5.842875">
        <ele>554.291496</ele>
        <time>2017-06-03T08:27:40.000Z</time>
      </trkpt>
      <trkpt lat="45.500057" lon="5.842806">
        <ele>554.727010</ele>
        <time>2017-06-03T08:27:44.000Z</time>
      </trkpt>
      <trkpt lat="45.499960" lon="5.842708">
        <ele>555.196819</ele>
        <time>2017-06-03T08:27:48.000Z</time>
      </trkpt>
      <trkpt lat="45.499886" lon="5.842630">
        <ele>555.560487</ele>
        <time>2017-06-03T08:27:51.000Z</time>
      </trkpt>
      <trkpt lat="45.499813" lon="5.842533">
        <ele>555.954796</ele>
        <time>2017-06-03T08:27:54.000Z</time>
      </trkpt>
      <trkpt lat="45.499750" lon="5.842440">
        <ele>556.313122</ele>
        <time>2017-06-03T08:27:57.000Z</time>
      </trkpt>
      <trkpt lat="45.499683" lon="5.842348">
        <ele>556.680684</ele>
        <time>2017-06-03T08:28:00.000Z</time>
      </trkpt>
      <trkpt lat="45.499630" lon="5.842242">
        <ele>557.041421</ele>
        <time>2017-06-03T08:28:03.000Z</time>
      </trkpt>
      <trkpt lat="45.499584" lon="5.842085">
        <ele>557.512863</ele>
        <time>2017-06-03T08:28:07.000Z</time>
      </trkpt>
      <trkpt lat="45.499554" lon="5.841930">
        <ele>557.958363</ele>
        <time>2017-06-03T08:28:11.000Z</time>
      </trkpt>
      <trkpt lat="45.499535" lon="5.841773">
        <ele>558.399768</ele>
        <time>2017-06-03T08:28:15.000Z</time>
      </trkpt>
      <trkpt lat="45.499516" lon="5.841618">
        <ele>558.835714</ele>
        <time>2017-06-03T08:28:19.000Z</time>
      </trkpt>
      <trkpt lat="45.499496" lon="5.841482">
        <ele>559.220707</ele>
        <time>2017-06-03T08:28:22.000Z</time>
      </trkpt>
      <trkpt lat="45.499466" lon="5.841320">
        <ele>559.684930</ele>
        <time>2017-06-03T08:28:26.000Z</time>
      </trkpt>
      <trkpt lat="45.499435" lon="5.841190">
        <ele>560.065369</ele>
        <time>2017-06-03T08:28:29.000Z</time>
      </trkpt>
      <trkpt lat="45.499397" lon="5.841029">
        <ele>560.549507</ele>
        <time>2017-06-03T08:28:33.000Z</time>
      </trkpt>
      <trkpt lat="45.499355" lon="5.840881">
        <ele>561.028051</ele>
        <time>2017-06-03T08:28:37.000Z</time>
      </trkpt>
      <trkpt lat="45.499300" lon="5.840737">
        <ele>561.519546</ele>
        <time>2017-06-03T08:28:41.000Z</time>
      </trkpt>
      <trkpt lat="45.499237" lon="5.840601">
        <ele>562.008123</ele>
        <time>2017-06-03T08:28:45.000Z</time>
      </trkpt>
      <trkpt lat="45.499153" lon="5.840487">
        <ele>562.503850</ele>
        <time>2017-06-03T08:28:49.000Z</time>
      </trkpt>
      <trkpt lat="45.499084" lon="5.840403">
        <ele>562.891701</ele>
        <time>2017-06-03T08:28:52.000Z</time>
      </trkpt>
      <trkpt lat="45.499010" lon="5.840312">
        <ele>563.309439</ele>
        <time>2017-06-03T08:28:55.000Z</time>
      </trkpt>
      <trkpt lat="45.498928" lon="5.840231">
        <ele>563.735906</ele>
        <time>2017-06-03T08:28:58.000Z</time>
      </trkpt>
      <trkpt lat="45.498850" lon="5.840143">
        <ele>564.161109</ele>
        <time>2017-06-03T08:29:01.000Z</time>
      </trkpt>
      <trkpt lat="45.498770" lon="5.840048">
        <ele>564.606175</ele>
        <time>2017-06-03T08:29:04.000Z</time>
      </trkpt>
      <trkpt lat="45.498690" lon="5.839960">
        <ele>565.038119</ele>
        <time>2017-06-03T08:29:07.000Z</time>
      </trkpt>
      <trkpt lat="45.498620" lon="5.839883">
        <ele>565.416071</ele>
        <time>2017-06-03T08:29:10.000Z</time>
      </trkpt>
      <trkpt lat="45.498520" lon="5.839788">
        <ele>565.929788</ele>
        <time>2017-06-03T08:29:14.000Z</time>
      </trkpt>
      <trkpt lat="45.498430" lon="5.839704">
        <ele>566.389656</ele>
        <time>2017-06-03T08:29:18.000Z</time>
      </trkpt>
      <trkpt lat="45.498337" lon="5.839615">
        <ele>566.868495</ele>
        <time>2017-06-03T08:29:22.000Z</time>
      </trkpt>
      <trkpt lat="45.498240" lon="5.839530">
        <ele>567.355251</ele>
        <time>2017-06-03T08:29:26.000Z</time>
      </trkpt>
      <trkpt lat="45.498140" lon="5.839467">
        <ele>567.822678</ele>
        <time>2017-06-03T08:29:30.000Z</time>
      </trkpt>
      <trkpt lat="45.498050" lon="5.839421">
        <ele>568.180800</ele>
        <time>2017-06-03T08:29:33.000Z</time>
      </trkpt>
      <trkpt lat="45.497940" lon="5.839373">
        <ele>568.525512</ele>
        <time>2017-06-03T08:29:37.000Z</time>
      </trkpt>
      <trkpt lat="45.497840" lon="5.839323">
        <ele>568.843054</ele>
        <time>2017-06-03T08:29:41.000Z</time>
      </trkpt>
      <trkpt lat="45.497740" lon="5.839316">
        <ele>569.143085</ele>
        <time>2017-06-03T08:40:35.000Z</time>
      </trkpt>
      <trkpt lat="45.497643" lon="5.839282">
        <ele>569.442410</ele>
        <time>2017-06-03T08:40:39.000Z</time>
      </trkpt>
      <trkpt lat="45.497540" lon="5.839237">
        <ele>569.765220</ele>
        <time>2017-06-03T08:40:43.000Z</time>
      </trkpt>
      <trkpt lat="45.497425" lon="5.839199">
        <ele>570.118964</ele>
        <time>2017-06-03T08:40:47.000Z</time>
      </trkpt>
      <trkpt lat="45.497314" lon="5.839168">
        <ele>570.457913</ele>
        <time>2017-06-03T08:40:51.000Z</time>
      </trkpt>
      <trkpt lat="45.497200" lon="5.839122">
        <ele>570.812939</ele>
        <time>2017-06-03T08:40:55.000Z</time>
      </trkpt>
      <trkpt lat="45.497105" lon="5.839098">
        <ele>571.102055</ele>
        <time>2017-06-03T08:40:58.000Z</time>
      </trkpt>
      <trkpt lat="45.497017" lon="5.839067">
        <ele>571.373686</ele>
        <time>2017-06-03T08:41:01.000Z</time>
      </trkpt>
      <trkpt lat="45.496918" lon="5.839021">
        <ele>571.685698</ele>
        <time>2017-06-03T08:41:05.000Z</time>
      </trkpt>
      <trkpt lat="45.496820" lon="5.838988">
        <ele>571.987446</ele>
        <time>2017-06-03T08:41:09.000Z</time>
      </trkpt>
      <trkpt lat="45.496723" lon="5.838953">
        <ele>572.287279</ele>
        <time>2017-06-03T08:41:13.000Z</time>
      </trkpt>
      <trkpt lat="45.496640" lon="5.838861">
        <ele>572.602257</ele>
        <time>2017-06-03T08:41:18.000Z</time>
      </trkpt>
      <trkpt lat="45.496590" lon="5.838756">
        <ele>572.868895</ele>
        <time>2017-06-03T08:41:23.000Z</time>
      </trkpt>
      <trkpt lat="45.496506" lon="5.838663">
        <ele>573.187528</ele>
        <time>2017-06-03T08:41:28.000Z</time>
      </trkpt>
      <trkpt lat="45.496430" lon="5.838563">
        <ele>573.554878</ele>
        <time>2017-06-03T08:41:32.000Z</time>
      </trkpt>
      <trkpt lat="45.496384" lon="5.838439">
        <ele>574.224364</ele>
        <time>2017-06-03T08:41:36.000Z</time>
      </trkpt>
      <trkpt lat="45.496323" lon="5.838319">
        <ele>574.931735</ele>
        <time>2017-06-03T08:41:41.000Z</time>
      </trkpt>
      <trkpt lat="45.496254" lon="5.838197">
        <ele>575.679797</ele>
        <time>2017-06-03T08:41:46.000Z</time>
      </trkpt>
      <trkpt lat="45.496162" lon="5.838106">
        <ele>576.441937</ele>
        <time>2017-06-03T08:41:50.000Z</time>
      </trkpt>
      <trkpt lat="45.496075" lon="5.838035">
        <ele>577.124281</ele>
        <time>2017-06-03T08:41:55.000Z</time>
      </trkpt>
      <trkpt lat="45.495995" lon="5.837947">
        <ele>577.812009</ele>
        <time>2017-06-03T08:42:00.000Z</time>
      </trkpt>
      <trkpt lat="45.495907" lon="5.837883">
        <ele>578.484456</ele>
        <time>2017-06-03T08:42:04.000Z</time>
      </trkpt>
      <trkpt lat="45.495810" lon="5.837842">
        <ele>579.173193</ele>
        <time>2017-06-03T08:42:07.000Z</time>
      </trkpt>
      <trkpt lat="45.495710" lon="5.837786">
        <ele>579.904551</ele>
        <time>2017-06-03T08:42:11.000Z</time>
      </trkpt>
      <trkpt lat="45.495605" lon="5.837740">
        <ele>580.652322</ele>
        <time>2017-06-03T08:42:15.000Z</time>
      </trkpt>
      <trkpt lat="45.495495" lon="5.837667">
        <ele>581.478248</ele>
        <time>2017-06-03T08:42:19.000Z</time>
      </trkpt>
      <trkpt lat="45.495415" lon="5.837613">
        <ele>582.080764</ele>
        <time>2017-06-03T08:42:22.000Z</time>
      </trkpt>
      <trkpt lat="45.495320" lon="5.837550">
        <ele>582.793973</ele>
        <time>2017-06-03T08:42:26.000Z</time>
      </trkpt>
      <trkpt lat="45.495235" lon="5.837495">
        <ele>583.429381</ele>
        <time>2017-06-03T08:42:29.000Z</time>
      </trkpt>
      <trkpt lat="45.495136" lon="5.837435">
        <ele>584.161658</ele>
        <time>2017-06-03T08:42:33.000Z</time>
      </trkpt>
      <trkpt lat="45.495033" lon="5.837377">
        <ele>584.915517</ele>
        <time>2017-06-03T08:42:37.000Z</time>
      </trkpt>
      <trkpt lat="45.494938" lon="5.837306">
        <ele>585.645640</ele>
        <time>2017-06-03T08:42:41.000Z</time>
      </trkpt>
      <trkpt lat="45.494835" lon="5.837229">
        <ele>586.176419</ele>
        <time>2017-06-03T08:42:45.000Z</time>
      </trkpt>
      <trkpt lat="45.494730" lon="5.837150">
        <ele>586.699767</ele>
        <time>2017-06-03T08:42:49.000Z</time>
      </trkpt>
      <trkpt lat="45.494630" lon="5.837081">
        <ele>587.189498</ele>
        <time>2017-06-03T08:42:53.000Z</time>
      </trkpt>
      <trkpt lat="45.494545" lon="5.837026">
        <ele>587.600983</ele>
        <time>2017-06-03T08:42:56.000Z</time>
      </trkpt>
      <trkpt lat="45.494460" lon="5.836976">
        <ele>588.006329</ele>
        <time>2017-06-03T08:42:59.000Z</time>
      </trkpt>
      <trkpt lat="45.494377" lon="5.836929">
        <ele>588.400025</ele>
        <time>2017-06-03T08:43:02.000Z</time>
      </trkpt>
      <trkpt lat="45.494290" lon="5.836878">
        <ele>588.814702</ele>
        <time>2017-06-03T08:43:05.000Z</time>
      </trkpt>
      <trkpt lat="45.494200" lon="5.836830">
        <ele>589.238307</ele>
        <time>2017-06-03T08:43:08.000Z</time>
      </trkpt>
      <trkpt lat="45.494110" lon="5.836773">
        <ele>589.672434</ele>
        <time>2017-06-03T08:43:11.000Z</time>
      </trkpt>
      <trkpt lat="45.494015" lon="5.836722">
        <ele>590.119935</ele>
        <time>2017-06-03T08:43:14.000Z</time>
      </trkpt>
      <trkpt lat="45.493920" lon="5.836661">
        <ele>590.579232</ele>
        <time>2017-06-03T08:43:17.000Z</time>
      </trkpt>
      <trkpt lat="45.493816" lon="5.836599">
        <ele>591.076162</ele>
        <time>2017-06-03T08:43:20.000Z</time>
      </trkpt>
      <trkpt lat="45.493720" lon="5.836544">
        <ele>591.532253</ele>
        <time>2017-06-03T08:43:23.000Z</time>
      </trkpt>
      <trkpt lat="45.493637" lon="5.836486">
        <ele>591.939719</ele>
        <time>2017-06-03T08:43:26.000Z</time>
      </trkpt>
      <trkpt lat="45.493538" lon="5.836434">
        <ele>592.404825</ele>
        <time>2017-06-03T08:43:29.000Z</time>
      </trkpt>
      <trkpt lat="45.493443" lon="5.836374">
        <ele>592.862863</ele>
        <time>2017-06-03T08:43:32.000Z</time>
      </trkpt>
      <trkpt lat="45.493347" lon="5.836320">
        <ele>593.317812</ele>
        <time>2017-06-03T08:43:35.000Z</time>
      </trkpt>
      <trkpt lat="45.493244" lon="5.836268">
        <ele>593.734279</ele>
        <time>2017-06-03T08:43:38.000Z</time>
      </trkpt>
      <trkpt lat="45.493140" lon="5.836216">
        <ele>594.036733</ele>
        <time>2017-06-03T08:43:41.000Z</time>
      </trkpt>
      <trkpt lat="45.493046" lon="5.836156">
        <ele>594.319366</ele>
        <time>2017-06-03T08:43:44.000Z</time>
      </trkpt>
      <trkpt lat="45.492928" lon="5.836117">
        <ele>594.651798</ele>
        <time>2017-06-03T08:43:47.000Z</time>
      </trkpt>
      <trkpt lat="45.492820" lon="5.836046">
        <ele>594.978167</ele>
        <time>2017-06-03T08:43:50.000Z</time>
      </trkpt>
      <trkpt lat="45.492725" lon="5.835967">
        <ele>595.279962</ele>
        <time>2017-06-03T08:43:53.000Z</time>
      </trkpt>
      <trkpt lat="45.492607" lon="5.835893">
        <ele>595.633727</ele>
        <time>2017-06-03T08:43:56.000Z</time>
      </trkpt>
      <trkpt lat="45.492500" lon="5.835824">
        <ele>595.956002</ele>
        <time>2017-06-03T08:43:59.000Z</time>
      </trkpt>
      <trkpt lat="45.492400" lon="5.835752">
        <ele>596.263431</ele>
        <time>2017-06-03T08:44:02.000Z</time>
      </trkpt>
      <trkpt lat="45.492268" lon="5.835711">
        <ele>596.634196</ele>
        <time>2017-06-03T08:44:05.000Z</time>
      </trkpt>
      <trkpt lat="45.492157" lon="5.835657">
        <ele>596.956065</ele>
        <time>2017-06-03T08:44:08.000Z</time>
      </trkpt>
      <trkpt lat="45.492054" lon="5.835604">
        <ele>597.256579</ele>
        <time>2017-06-03T08:44:11.000Z</time>
      </trkpt>
      <trkpt lat="45.491955" lon="5.835547">
        <ele>597.549583</ele>
        <time>2017-06-03T08:44:14.000Z</time>
      </trkpt>
      <trkpt lat="45.491844" lon="5.835482">
        <ele>597.878894</ele>
        <time>2017-06-03T08:44:17.000Z</time>
      </trkpt>
      <trkpt lat="45.491726" lon="5.835445">
        <ele>598.210479</ele>
        <time>2017-06-03T08:44:20.000Z</time>
      </trkpt>
      <trkpt lat="45.491610" lon="5.835407">
        <ele>598.537130</ele>
        <time>2017-06-03T08:44:23.000Z</time>
      </trkpt>
      <trkpt lat="45.491490" lon="5.835390">
        <ele>598.648455</ele>
        <time>2017-06-03T08:44:26.000Z</time>
      </trkpt>
      <trkpt lat="45.491367" lon="5.835365">
        <ele>598.743865</ele>
        <time>2017-06-03T08:44:29.000Z</time>
      </trkpt>
      <trkpt lat="45.491238" lon="5.835355">
        <ele>598.843075</ele>
        <time>2017-06-03T08:44:32.000Z</time>
      </trkpt>
      <trkpt lat="45.491116" lon="5.835363">
        <ele>598.936863</ele>
        <time>2017-06-03T08:44:35.000Z</time>
      </trkpt>
      <trkpt lat="45.490990" lon="5.835352">
        <ele>599.033804</ele>
        <time>2017-06-03T08:44:38.000Z</time>
      </trkpt>
      <trkpt lat="45.490900" lon="5.835352">
        <ele>599.102918</ele>
        <time>2017-06-03T08:44:40.000Z</time>
      </trkpt>
      <trkpt lat="45.490765" lon="5.835347">
        <ele>599.206625</ele>
        <time>2017-06-03T08:44:43.000Z</time>
      </trkpt>
      <trkpt lat="45.490673" lon="5.835345">
        <ele>599.277283</ele>
        <time>2017-06-03T08:44:45.000Z</time>
      </trkpt>
      <trkpt lat="45.490547" lon="5.835346">
        <ele>599.374045</ele>
        <time>2017-06-03T08:44:48.000Z</time>
      </trkpt>
      <trkpt lat="45.490430" lon="5.835352">
        <ele>599.463951</ele>
        <time>2017-06-03T08:44:51.000Z</time>
      </trkpt>
      <trkpt lat="45.490300" lon="5.835372">
        <ele>599.564362</ele>
        <time>2017-06-03T08:44:54.000Z</time>
      </trkpt>
      <trkpt lat="45.490210" lon="5.835383">
        <ele>599.633730</ele>
        <time>2017-06-03T08:44:56.000Z</time>
      </trkpt>
      <trkpt lat="45.490078" lon="5.835416">
        <ele>599.736642</ele>
        <time>2017-06-03T08:44:59.000Z</time>
      </trkpt>
      <trkpt lat="45.489986" lon="5.835432">
        <ele>599.807816</ele>
        <time>2017-06-03T08:45:01.000Z</time>
      </trkpt>
      <trkpt lat="45.489860" lon="5.835430">
        <ele>599.904582</ele>
        <time>2017-06-03T08:45:04.000Z</time>
      </trkpt>
      <trkpt lat="45.489742" lon="5.835443">
        <ele>600.042762</ele>
        <time>2017-06-03T08:45:07.000Z</time>
      </trkpt>
      <trkpt lat="45.489630" lon="5.835442">
        <ele>600.208374</ele>
        <time>2017-06-03T08:45:10.000Z</time>
      </trkpt>
      <trkpt lat="45.489532" lon="5.835444">
        <ele>600.353297</ele>
        <time>2017-06-03T08:45:13.000Z</time>
      </trkpt>
      <trkpt lat="45.489430" lon="5.835446">
        <ele>600.504134</ele>
        <time>2017-06-03T08:45:16.000Z</time>
      </trkpt>
      <trkpt lat="45.489326" lon="5.835449">
        <ele>600.657945</ele>
        <time>2017-06-03T08:45:19.000Z</time>
      </trkpt>
      <trkpt lat="45.489223" lon="5.835453">
        <ele>600.810303</ele>
        <time>2017-06-03T08:45:22.000Z</time>
      </trkpt>
      <trkpt lat="45.489105" lon="5.835474">
        <ele>600.986137</ele>
        <time>2017-06-03T08:45:25.000Z</time>
      </trkpt>
      <trkpt lat="45.488990" lon="5.835468">
        <ele>601.156295</ele>
        <time>2017-06-03T08:45:28.000Z</time>
      </trkpt>
      <trkpt lat="45.488888" lon="5.835451">
        <ele>601.308144</ele>
        <time>2017-06-03T08:45:31.000Z</time>
      </trkpt>
      <trkpt lat="45.488773" lon="5.835443">
        <ele>601.478391</ele>
        <time>2017-06-03T08:45:34.000Z</time>
      </trkpt>
      <trkpt lat="45.488674" lon="5.835460">
        <ele>601.625835</ele>
        <time>2017-06-03T08:45:37.000Z</time>
      </trkpt>
      <trkpt lat="45.488570" lon="5.835468">
        <ele>601.779838</ele>
        <time>2017-06-03T08:45:40.000Z</time>
      </trkpt>
      <trkpt lat="45.488476" lon="5.835457">
        <ele>601.919298</ele>
        <time>2017-06-03T08:45:43.000Z</time>
      </trkpt>
      <trkpt lat="45.488384" lon="5.835452">
        <ele>602.055433</ele>
        <time>2017-06-03T08:45:46.000Z</time>
      </trkpt>
      <trkpt lat="45.488262" lon="5.835460">
        <ele>602.236019</ele>
        <time>2017-06-03T08:45:50.000Z</time>
      </trkpt>
      <trkpt lat="45.488167" lon="5.835462">
        <ele>602.376507</ele>
        <time>2017-06-03T08:45:53.000Z</time>
      </trkpt>
      <trkpt lat="45.488075" lon="5.835448">
        <ele>602.513315</ele>
        <time>2017-06-03T08:45:56.000Z</time>
      </trkpt>
      <trkpt lat="45.487984" lon="5.835450">
        <ele>602.685774</ele>
        <time>2017-06-03T08:45:59.000Z</time>
      </trkpt>
      <trkpt lat="45.487890" lon="5.835452">
        <ele>602.944607</ele>
        <time>2017-06-03T08:46:02.000Z</time>
      </trkpt>
      <trkpt lat="45.487793" lon="5.835454">
        <ele>603.211700</ele>
        <time>2017-06-03T08:46:05.000Z</time>
      </trkpt>
      <trkpt lat="45.487694" lon="5.835448">
        <ele>603.484516</ele>
        <time>2017-06-03T08:46:08.000Z</time>
      </trkpt>
      <trkpt lat="45.487576" lon="5.835456">
        <ele>603.809765</ele>
        <time>2017-06-03T08:46:12.000Z</time>
      </trkpt>
      <trkpt lat="45.487484" lon="5.835459">
        <ele>604.063130</ele>
        <time>2017-06-03T08:46:15.000Z</time>
      </trkpt>
      <trkpt lat="45.487380" lon="5.835452">
        <ele>604.349785</ele>
        <time>2017-06-03T08:46:18.000Z</time>
      </trkpt>
      <trkpt lat="45.487286" lon="5.835447">
        <ele>604.608769</ele>
        <time>2017-06-03T08:46:21.000Z</time>
      </trkpt>
      <trkpt lat="45.487194" lon="5.835414">
        <ele>604.869954</ele>
        <time>2017-06-03T08:46:24.000Z</time>
      </trkpt>
      <trkpt lat="45.487106" lon="5.835383">
        <ele>605.119518</ele>
        <time>2017-06-03T08:46:27.000Z</time>
      </trkpt>
      <trkpt lat="45.487020" lon="5.835346">
        <ele>605.366833</ele>
        <time>2017-06-03T08:46:30.000Z</time>
      </trkpt>
      <trkpt lat="45.486927" lon="5.835304">
        <ele>605.635412</ele>
        <time>2017-06-03T08:46:33.000Z</time>
      </trkpt>
      <trkpt lat="45.486835" lon="5.835270">
        <ele>605.897074</ele>
        <time>2017-06-03T08:46:36.000Z</time>
      </trkpt>
      <trkpt lat="45.486748" lon="5.835220">
        <ele>606.155317</ele>
        <time>2017-06-03T08:46:39.000Z</time>
      </trkpt>
      <trkpt lat="45.486668" lon="5.835167">
        <ele>606.398175</ele>
        <time>2017-06-03T08:46:42.000Z</time>
      </trkpt>
      <trkpt lat="45.486580" lon="5.835118">
        <ele>606.658267</ele>
        <time>2017-06-03T08:46:45.000Z</time>
      </trkpt>
      <trkpt lat="45.486496" lon="5.835064">
        <ele>606.911942</ele>
        <time>2017-06-03T08:46:48.000Z</time>
      </trkpt>
      <trkpt lat="45.486400" lon="5.835018">
        <ele>607.190769</ele>
        <time>2017-06-03T08:46:51.000Z</time>
      </trkpt>
      <trkpt lat="45.486305" lon="5.834951">
        <ele>607.482552</ele>
        <time>2017-06-03T08:46:54.000Z</time>
      </trkpt>
      <trkpt lat="45.486210" lon="5.834883">
        <ele>607.915799</ele>
        <time>2017-06-03T08:46:57.000Z</time>
      </trkpt>
      <trkpt lat="45.486115" lon="5.834791">
        <ele>608.434765</ele>
        <time>2017-06-03T08:47:00.000Z</time>
      </trkpt>
      <trkpt lat="45.486015" lon="5.834730">
        <ele>608.926315</ele>
        <time>2017-06-03T08:47:03.000Z</time>
      </trkpt>
      <trkpt lat="45.485928" lon="5.834667">
        <ele>609.367286</ele>
        <time>2017-06-03T08:47:06.000Z</time>
      </trkpt>
      <trkpt lat="45.485832" lon="5.834602">
        <ele>609.847565</ele>
        <time>2017-06-03T08:47:09.000Z</time>
      </trkpt>
      <trkpt lat="45.485744" lon="5.834534">
        <ele>610.299900</ele>
        <time>2017-06-03T08:47:12.000Z</time>
      </trkpt>
      <trkpt lat="45.485653" lon="5.834481">
        <ele>610.744144</ele>
        <time>2017-06-03T08:47:15.000Z</time>
      </trkpt>
      <trkpt lat="45.485570" lon="5.834423">
        <ele>611.161867</ele>
        <time>2017-06-03T08:47:18.000Z</time>
      </trkpt>
      <trkpt lat="45.485480" lon="5.834358">
        <ele>611.617797</ele>
        <time>2017-06-03T08:47:21.000Z</time>
      </trkpt>
      <trkpt lat="45.485390" lon="5.834301">
        <ele>612.062852</ele>
        <time>2017-06-03T08:47:24.000Z</time>
      </trkpt>
      <trkpt lat="45.485300" lon="5.834245">
        <ele>612.506631</ele>
        <time>2017-06-03T08:47:27.000Z</time>
      </trkpt>
      <trkpt lat="45.485214" lon="5.834184">
        <ele>612.940719</ele>
        <time>2017-06-03T08:47:30.000Z</time>
      </trkpt>
      <trkpt lat="45.485134" lon="5.834118">
        <ele>613.358408</ele>
        <time>2017-06-03T08:47:33.000Z</time>
      </trkpt>
      <trkpt lat="45.485046" lon="5.834056">
        <ele>613.802002</ele>
        <time>2017-06-03T08:47:36.000Z</time>
      </trkpt>
      <trkpt lat="45.484960" lon="5.833999">
        <ele>614.230598</ele>
        <time>2017-06-03T08:47:39.000Z</time>
      </trkpt>
      <trkpt lat="45.484870" lon="5.833943">
        <ele>614.674377</ele>
        <time>2017-06-03T08:47:42.000Z</time>
      </trkpt>
      <trkpt lat="45.484790" lon="5.833882">
        <ele>615.084363</ele>
        <time>2017-06-03T08:47:45.000Z</time>
      </trkpt>
      <trkpt lat="45.484715" lon="5.833810">
        <ele>615.492955</ele>
        <time>2017-06-03T08:47:48.000Z</time>
      </trkpt>
      <trkpt lat="45.484627" lon="5.833761">
        <ele>615.926303</ele>
        <time>2017-06-03T08:47:51.000Z</time>
      </trkpt>
      <trkpt lat="45.484543" lon="5.833708">
        <ele>616.352737</ele>
        <time>2017-06-03T08:47:54.000Z</time>
      </trkpt>
      <trkpt lat="45.484432" lon="5.833638">
        <ele>616.916193</ele>
        <time>2017-06-03T08:47:58.000Z</time>
      </trkpt>
      <trkpt lat="45.484330" lon="5.833565">
        <ele>617.446012</ele>
        <time>2017-06-03T08:48:02.000Z</time>
      </trkpt>
      <trkpt lat="45.484226" lon="5.833492">
        <ele>617.984147</ele>
        <time>2017-06-03T08:48:06.000Z</time>
      </trkpt>
      <trkpt lat="45.484120" lon="5.833421">
        <ele>618.527830</ele>
        <time>2017-06-03T08:48:10.000Z</time>
      </trkpt>
      <trkpt lat="45.484035" lon="5.833373">
        <ele>618.952257</ele>
        <time>2017-06-03T08:48:13.000Z</time>
      </trkpt>
      <trkpt lat="45.483932" lon="5.833309">
        <ele>619.473855</ele>
        <time>2017-06-03T08:48:17.000Z</time>
      </trkpt>
      <trkpt lat="45.483826" lon="5.833235">
        <ele>620.021760</ele>
        <time>2017-06-03T08:48:21.000Z</time>
      </trkpt>
      <trkpt lat="45.483723" lon="5.833164">
        <ele>620.552869</ele>
        <time>2017-06-03T08:48:25.000Z</time>
      </trkpt>
      <trkpt lat="45.483620" lon="5.833089">
        <ele>621.089772</ele>
        <time>2017-06-03T08:48:29.000Z</time>
      </trkpt>
      <trkpt lat="45.483520" lon="5.833029">
        <ele>621.593442</ele>
        <time>2017-06-03T08:48:33.000Z</time>
      </trkpt>
      <trkpt lat="45.483418" lon="5.832957">
        <ele>622.121811</ele>
        <time>2017-06-03T08:48:37.000Z</time>
      </trkpt>
      <trkpt lat="45.483310" lon="5.832882">
        <ele>622.679490</ele>
        <time>2017-06-03T08:48:41.000Z</time>
      </trkpt>
      <trkpt lat="45.483208" lon="5.832809">
        <ele>623.209311</ele>
        <time>2017-06-03T08:48:45.000Z</time>
      </trkpt>
      <trkpt lat="45.483097" lon="5.832755">
        <ele>623.753796</ele>
        <time>2017-06-03T08:48:49.000Z</time>
      </trkpt>
      <trkpt lat="45.482990" lon="5.832690">
        <ele>624.220305</ele>
        <time>2017-06-03T08:48:53.000Z</time>
      </trkpt>
      <trkpt lat="45.482906" lon="5.832619">
        <ele>624.544694</ele>
        <time>2017-06-03T08:48:56.000Z</time>
      </trkpt>
      <trkpt lat="45.482803" lon="5.832552">
        <ele>624.920791</ele>
        <time>2017-06-03T08:49:00.000Z</time>
      </trkpt>
      <trkpt lat="45.482700" lon="5.832486">
        <ele>625.295927</ele>
        <time>2017-06-03T08:49:04.000Z</time>
      </trkpt>
      <trkpt lat="45.482613" lon="5.832405">
        <ele>625.641091</ele>
        <time>2017-06-03T08:49:08.000Z</time>
      </trkpt>
      <trkpt lat="45.482513" lon="5.832360">
        <ele>625.989456</ele>
        <time>2017-06-03T08:49:12.000Z</time>
      </trkpt>
      <trkpt lat="45.482414" lon="5.832278">
        <ele>626.369795</ele>
        <time>2017-06-03T08:49:16.000Z</time>
      </trkpt>
      <trkpt lat="45.482330" lon="5.832224">
        <ele>626.675899</ele>
        <time>2017-06-03T08:49:19.000Z</time>
      </trkpt>
      <trkpt lat="45.482246" lon="5.832167">
        <ele>626.984940</ele>
        <time>2017-06-03T08:49:22.000Z</time>
      </trkpt>
      <trkpt lat="45.482150" lon="5.832089">
        <ele>627.351994</ele>
        <time>2017-06-03T08:49:26.000Z</time>
      </trkpt>
      <trkpt lat="45.482044" lon="5.832021">
        <ele>627.738132</ele>
        <time>2017-06-03T08:49:30.000Z</time>
      </trkpt>
      <trkpt lat="45.481964" lon="5.831963">
        <ele>628.036276</ele>
        <time>2017-06-03T08:49:33.000Z</time>
      </trkpt>
      <trkpt lat="45.481860" lon="5.831890">
        <ele>628.421363</ele>
        <time>2017-06-03T08:49:37.000Z</time>
      </trkpt>
      <trkpt lat="45.481773" lon="5.831833">
        <ele>628.739433</ele>
        <time>2017-06-03T08:49:40.000Z</time>
      </trkpt>
      <trkpt lat="45.481680" lon="5.831780">
        <ele>629.072152</ele>
        <time>2017-06-03T08:49:43.000Z</time>
      </trkpt>
      <trkpt lat="45.481590" lon="5.831721">
        <ele>629.401224</ele>
        <time>2017-06-03T08:49:46.000Z</time>
      </trkpt>
      <trkpt lat="45.481503" lon="5.831659">
        <ele>629.724329</ele>
        <time>2017-06-03T08:49:49.000Z</time>
      </trkpt>
      <trkpt lat="45.481407" lon="5.831598">
        <ele>630.032206</ele>
        <time>2017-06-03T08:49:52.000Z</time>
      </trkpt>
      <trkpt lat="45.481304" lon="5.831535">
        <ele>630.158420</ele>
        <time>2017-06-03T08:49:55.000Z</time>
      </trkpt>
      <trkpt lat="45.481210" lon="5.831468">
        <ele>630.276766</ele>
        <time>2017-06-03T08:49:58.000Z</time>
      </trkpt>
      <trkpt lat="45.481102" lon="5.831402">
        <ele>630.409089</ele>
        <time>2017-06-03T08:50:01.000Z</time>
      </trkpt>
      <trkpt lat="45.481007" lon="5.831319">
        <ele>630.534555</ele>
        <time>2017-06-03T08:50:04.000Z</time>
      </trkpt>
      <trkpt lat="45.480892" lon="5.831238">
        <ele>630.679000</ele>
        <time>2017-06-03T08:50:07.000Z</time>
      </trkpt>
      <trkpt lat="45.480770" lon="5.831166">
        <ele>630.827693</ele>
        <time>2017-06-03T08:50:10.000Z</time>
      </trkpt>
      <trkpt lat="45.480648" lon="5.831094">
        <ele>630.976386</ele>
        <time>2017-06-03T08:50:13.000Z</time>
      </trkpt>
      <trkpt lat="45.480526" lon="5.831019">
        <ele>631.126002</ele>
        <time>2017-06-03T08:50:16.000Z</time>
      </trkpt>
      <trkpt lat="45.480404" lon="5.830939">
        <ele>631.277223</ele>
        <time>2017-06-03T08:50:19.000Z</time>
      </trkpt>
      <trkpt lat="45.480290" lon="5.830860">
        <ele>631.419962</ele>
        <time>2017-06-03T08:50:22.000Z</time>
      </trkpt>
      <trkpt lat="45.480170" lon="5.830784">
        <ele>631.567830</ele>
        <time>2017-06-03T08:50:25.000Z</time>
      </trkpt>
      <trkpt lat="45.480076" lon="5.830730">
        <ele>631.681957</ele>
        <time>2017-06-03T08:50:27.000Z</time>
      </trkpt>
      <trkpt lat="45.479992" lon="5.830674">
        <ele>631.786381</ele>
        <time>2017-06-03T08:50:29.000Z</time>
      </trkpt>
      <trkpt lat="45.479910" lon="5.830609">
        <ele>631.892034</ele>
        <time>2017-06-03T08:50:31.000Z</time>
      </trkpt>
      <trkpt lat="45.479824" lon="5.830546">
        <ele>632.000916</ele>
        <time>2017-06-03T08:50:33.000Z</time>
      </trkpt>
      <trkpt lat="45.479740" lon="5.830483">
        <ele>632.217477</ele>
        <time>2017-06-03T08:50:35.000Z</time>
      </trkpt>
      <trkpt lat="45.479652" lon="5.830422">
        <ele>632.497537</ele>
        <time>2017-06-03T08:50:37.000Z</time>
      </trkpt>
      <trkpt lat="45.479534" lon="5.830333">
        <ele>632.879613</ele>
        <time>2017-06-03T08:50:40.000Z</time>
      </trkpt>
      <trkpt lat="45.479454" lon="5.830268">
        <ele>633.143150</ele>
        <time>2017-06-03T08:50:42.000Z</time>
      </trkpt>
      <trkpt lat="45.479370" lon="5.830204">
        <ele>633.415743</ele>
        <time>2017-06-03T08:50:44.000Z</time>
      </trkpt>
      <trkpt lat="45.479248" lon="5.830135">
        <ele>633.791402</ele>
        <time>2017-06-03T08:50:47.000Z</time>
      </trkpt>
      <trkpt lat="45.479130" lon="5.830063">
        <ele>634.158769</ele>
        <time>2017-06-03T08:50:50.000Z</time>
      </trkpt>
      <trkpt lat="45.479046" lon="5.829990">
        <ele>634.440325</ele>
        <time>2017-06-03T08:50:53.000Z</time>
      </trkpt>
      <trkpt lat="45.478940" lon="5.829912">
        <ele>634.781735</ele>
        <time>2017-06-03T08:50:57.000Z</time>
      </trkpt>
      <trkpt lat="45.478850" lon="5.829845">
        <ele>635.072327</ele>
        <time>2017-06-03T08:51:02.000Z</time>
      </trkpt>
      <trkpt lat="45.478750" lon="5.829862">
        <ele>635.360585</ele>
        <time>2017-06-03T08:55:19.000Z</time>
      </trkpt>
      <trkpt lat="45.478720" lon="5.830000">
        <ele>635.650555</ele>
        <time>2017-06-03T08:55:24.000Z</time>
      </trkpt>
      <trkpt lat="45.478620" lon="5.830033">
        <ele>635.944349</ele>
        <time>2017-06-03T08:55:29.000Z</time>
      </trkpt>
      <trkpt lat="45.478546" lon="5.829929">
        <ele>636.241723</ele>
        <time>2017-06-03T08:55:35.000Z</time>
      </trkpt>
      <trkpt lat="45.478474" lon="5.829821">
        <ele>636.540812</ele>
        <time>2017-06-03T08:55:41.000Z</time>
      </trkpt>
      <trkpt lat="45.478413" lon="5.829710">
        <ele>636.823858</ele>
        <time>2017-06-03T08:55:46.000Z</time>
      </trkpt>
      <trkpt lat="45.478344" lon="5.829610">
        <ele>637.105437</ele>
        <time>2017-06-03T08:55:51.000Z</time>
      </trkpt>
      <trkpt lat="45.478290" lon="5.829501">
        <ele>637.610889</ele>
        <time>2017-06-03T08:55:56.000Z</time>
      </trkpt>
      <trkpt lat="45.478226" lon="5.829381">
        <ele>638.295182</ele>
        <time>2017-06-03T08:56:01.000Z</time>
      </trkpt>
      <trkpt lat="45.478160" lon="5.829280">
        <ele>638.921801</ele>
        <time>2017-06-03T08:56:06.000Z</time>
      </trkpt>
      <trkpt lat="45.478085" lon="5.829171">
        <ele>639.614932</ele>
        <time>2017-06-03T08:56:11.000Z</time>
      </trkpt>
      <trkpt lat="45.478010" lon="5.829096">
        <ele>640.207855</ele>
        <time>2017-06-03T08:56:16.000Z</time>
      </trkpt>
      <trkpt lat="45.477920" lon="5.829022">
        <ele>640.880305</ele>
        <time>2017-06-03T08:56:21.000Z</time>
      </trkpt>
      <trkpt lat="45.477837" lon="5.828934">
        <ele>641.549760</ele>
        <time>2017-06-03T08:56:26.000Z</time>
      </trkpt>
      <trkpt lat="45.477753" lon="5.828844">
        <ele>642.229835</ele>
        <time>2017-06-03T08:56:31.000Z</time>
      </trkpt>
      <trkpt lat="45.477676" lon="5.828748">
        <ele>642.891856</ele>
        <time>2017-06-03T08:56:36.000Z</time>
      </trkpt>
      <trkpt lat="45.477600" lon="5.828645">
        <ele>643.570500</ele>
        <time>2017-06-03T08:56:41.000Z</time>
      </trkpt>
      <trkpt lat="45.477505" lon="5.828545">
        <ele>644.334793</ele>
        <time>2017-06-03T08:56:47.000Z</time>
      </trkpt>
      <trkpt lat="45.477432" lon="5.828462">
        <ele>644.939108</ele>
        <time>2017-06-03T08:56:52.000Z</time>
      </trkpt>
      <trkpt lat="45.477352" lon="5.828386">
        <ele>645.561316</ele>
        <time>2017-06-03T08:56:58.000Z</time>
      </trkpt>
      <trkpt lat="45.477260" lon="5.828310">
        <ele>646.249519</ele>
        <time>2017-06-03T08:57:03.000Z</time>
      </trkpt>
      <trkpt lat="45.477177" lon="5.828237">
        <ele>646.880727</ele>
        <time>2017-06-03T08:57:07.000Z</time>
      </trkpt>
      <trkpt lat="45.477100" lon="5.828159">
        <ele>647.492081</ele>
        <time>2017-06-03T08:57:11.000Z</time>
      </trkpt>
      <trkpt lat="45.477020" lon="5.828075">
        <ele>648.135131</ele>
        <time>2017-06-03T08:57:15.000Z</time>
      </trkpt>
      <trkpt lat="45.476944" lon="5.828013">
        <ele>648.701875</ele>
        <time>2017-06-03T08:57:19.000Z</time>
      </trkpt>
      <trkpt lat="45.476850" lon="5.827942">
        <ele>649.280538</ele>
        <time>2017-06-03T08:57:24.000Z</time>
      </trkpt>
      <trkpt lat="45.476770" lon="5.827866">
        <ele>649.781313</ele>
        <time>2017-06-03T08:57:29.000Z</time>
      </trkpt>
      <trkpt lat="45.476700" lon="5.827780">
        <ele>650.262648</ele>
        <time>2017-06-03T08:57:35.000Z</time>
      </trkpt>
      <trkpt lat="45.476612" lon="5.827718">
        <ele>650.773991</ele>
        <time>2017-06-03T08:57:40.000Z</time>
      </trkpt>
      <trkpt lat="45.476530" lon="5.827627">
        <ele>651.315284</ele>
        <time>2017-06-03T08:57:45.000Z</time>
      </trkpt>
      <trkpt lat="45.476444" lon="5.827540">
        <ele>651.864588</ele>
        <time>2017-06-03T08:57:50.000Z</time>
      </trkpt>
      <trkpt lat="45.476364" lon="5.827473">
        <ele>652.347913</ele>
        <time>2017-06-03T08:57:54.000Z</time>
      </trkpt>
      <trkpt lat="45.476273" lon="5.827402">
        <ele>652.888301</ele>
        <time>2017-06-03T08:57:59.000Z</time>
      </trkpt>
      <trkpt lat="45.476185" lon="5.827363">
        <ele>653.368377</ele>
        <time>2017-06-03T08:58:03.000Z</time>
      </trkpt>
      <trkpt lat="45.476078" lon="5.827336">
        <ele>653.934468</ele>
        <time>2017-06-03T08:58:08.000Z</time>
      </trkpt>
      <trkpt lat="45.475970" lon="5.827309">
        <ele>654.505690</ele>
        <time>2017-06-03T08:58:13.000Z</time>
      </trkpt>
      <trkpt lat="45.475883" lon="5.827280">
        <ele>654.971146</ele>
        <time>2017-06-03T08:58:17.000Z</time>
      </trkpt>
      <trkpt lat="45.475780" lon="5.827225">
        <ele>655.544122</ele>
        <time>2017-06-03T08:58:22.000Z</time>
      </trkpt>
      <trkpt lat="45.475685" lon="5.827187">
        <ele>656.058138</ele>
        <time>2017-06-03T08:58:26.000Z</time>
      </trkpt>
      <trkpt lat="45.475597" lon="5.827145">
        <ele>656.541579</ele>
        <time>2017-06-03T08:58:30.000Z</time>
      </trkpt>
      <trkpt lat="45.475502" lon="5.827088">
        <ele>657.078515</ele>
        <time>2017-06-03T08:58:34.000Z</time>
      </trkpt>
      <trkpt lat="45.475407" lon="5.827043">
        <ele>657.600019</ele>
        <time>2017-06-03T08:58:38.000Z</time>
      </trkpt>
      <trkpt lat="45.475315" lon="5.826985">
        <ele>658.124051</ele>
        <time>2017-06-03T08:58:42.000Z</time>
      </trkpt>
      <trkpt lat="45.475224" lon="5.826942">
        <ele>658.227958</ele>
        <time>2017-06-03T08:58:46.000Z</time>
      </trkpt>
      <trkpt lat="45.475132" lon="5.826916">
        <ele>658.262601</ele>
        <time>2017-06-03T08:58:50.000Z</time>
      </trkpt>
      <trkpt lat="45.475025" lon="5.826899">
        <ele>658.302368</ele>
        <time>2017-06-03T08:58:55.000Z</time>
      </trkpt>
      <trkpt lat="45.474922" lon="5.826870">
        <ele>658.341148</ele>
        <time>2017-06-03T08:59:00.000Z</time>
      </trkpt>
      <trkpt lat="45.474827" lon="5.826845">
        <ele>658.376831</ele>
        <time>2017-06-03T08:59:04.000Z</time>
      </trkpt>
      <trkpt lat="45.474720" lon="5.826813">
        <ele>658.417214</ele>
        <time>2017-06-03T08:59:09.000Z</time>
      </trkpt>
      <trkpt lat="45.474632" lon="5.826762">
        <ele>658.452300</ele>
        <time>2017-06-03T08:59:13.000Z</time>
      </trkpt>
      <trkpt lat="45.474552" lon="5.826699">
        <ele>658.486056</ele>
        <time>2017-06-03T08:59:16.000Z</time>
      </trkpt>
      <trkpt lat="45.474438" lon="5.826617">
        <ele>658.533218</ele>
        <time>2017-06-03T08:59:19.000Z</time>
      </trkpt>
      <trkpt lat="45.474354" lon="5.826556">
        <ele>658.568036</ele>
        <time>2017-06-03T08:59:21.000Z</time>
      </trkpt>
      <trkpt lat="45.474262" lon="5.826451">
        <ele>658.611562</ele>
        <time>2017-06-03T08:59:23.000Z</time>
      </trkpt>
      <trkpt lat="45.474174" lon="5.826333">
        <ele>658.656179</ele>
        <time>2017-06-03T08:59:25.000Z</time>
      </trkpt>
      <trkpt lat="45.474087" lon="5.826199">
        <ele>658.703480</ele>
        <time>2017-06-03T08:59:27.000Z</time>
      </trkpt>
      <trkpt lat="45.474010" lon="5.826058">
        <ele>658.749769</ele>
        <time>2017-06-03T08:59:29.000Z</time>
      </trkpt>
      <trkpt lat="45.473938" lon="5.825898">
        <ele>658.799011</ele>
        <time>2017-06-03T08:59:31.000Z</time>
      </trkpt>
      <trkpt lat="45.473854" lon="5.825737">
        <ele>658.850990</ele>
        <time>2017-06-03T08:59:33.000Z</time>
      </trkpt>
      <trkpt lat="45.473747" lon="5.825597">
        <ele>659.875947</ele>
        <time>2017-06-03T08:59:35.000Z</time>
      </trkpt>
      <trkpt lat="45.473648" lon="5.825503">
        <ele>660.924342</ele>
        <time>2017-06-03T08:59:37.000Z</time>
      </trkpt>
      <trkpt lat="45.473560" lon="5.825420">
        <ele>661.854351</ele>
        <time>2017-06-03T08:59:40.000Z</time>
      </trkpt>
      <trkpt lat="45.473484" lon="5.825322">
        <ele>662.757533</ele>
        <time>2017-06-03T08:59:44.000Z</time>
      </trkpt>
      <trkpt lat="45.473410" lon="5.825240">
        <ele>663.583602</ele>
        <time>2017-06-03T08:59:48.000Z</time>
      </trkpt>
      <trkpt lat="45.473335" lon="5.825127">
        <ele>664.545338</ele>
        <time>2017-06-03T08:59:53.000Z</time>
      </trkpt>
      <trkpt lat="45.473274" lon="5.825023">
        <ele>665.383417</ele>
        <time>2017-06-03T08:59:58.000Z</time>
      </trkpt>
      <trkpt lat="45.473230" lon="5.824892">
        <ele>666.281255</ele>
        <time>2017-06-03T09:00:04.000Z</time>
      </trkpt>
      <trkpt lat="45.473186" lon="5.824752">
        <ele>667.229571</ele>
        <time>2017-06-03T09:00:10.000Z</time>
      </trkpt>
      <trkpt lat="45.473145" lon="5.824635">
        <ele>668.038053</ele>
        <time>2017-06-03T09:00:15.000Z</time>
      </trkpt>
      <trkpt lat="45.473095" lon="5.824517">
        <ele>668.890261</ele>
        <time>2017-06-03T09:00:20.000Z</time>
      </trkpt>
      <trkpt lat="45.473076" lon="5.824391">
        <ele>669.686906</ele>
        <time>2017-06-03T09:00:25.000Z</time>
      </trkpt>
      <trkpt lat="45.473053" lon="5.824263">
        <ele>670.503672</ele>
        <time>2017-06-03T09:00:30.000Z</time>
      </trkpt>
      <trkpt lat="45.473034" lon="5.824126">
        <ele>671.366910</ele>
        <time>2017-06-03T09:00:36.000Z</time>
      </trkpt>
      <trkpt lat="45.473003" lon="5.824002">
        <ele>672.180643</ele>
        <time>2017-06-03T09:00:41.000Z</time>
      </trkpt>
      <trkpt lat="45.472973" lon="5.823881">
        <ele>672.973951</ele>
        <time>2017-06-03T09:00:46.000Z</time>
      </trkpt>
      <trkpt lat="45.472950" lon="5.823694">
        <ele>674.147497</ele>
        <time>2017-06-03T09:38:20.000Z</time>
      </trkpt>
      <trkpt lat="45.472927" lon="5.823562">
        <ele>674.880059</ele>
        <time>2017-06-03T09:38:28.000Z</time>
      </trkpt>
      <trkpt lat="45.472904" lon="5.823439">
        <ele>675.353441</ele>
        <time>2017-06-03T09:38:36.000Z</time>
      </trkpt>
      <trkpt lat="45.472885" lon="5.823312">
        <ele>675.836345</ele>
        <time>2017-06-03T09:38:44.000Z</time>
      </trkpt>
      <trkpt lat="45.472840" lon="5.823196">
        <ele>676.329322</ele>
        <time>2017-06-03T09:38:54.000Z</time>
      </trkpt>
      <trkpt lat="45.472760" lon="5.823077">
        <ele>676.942354</ele>
        <time>2017-06-03T09:43:01.000Z</time>
      </trkpt>
      <trkpt lat="45.472675" lon="5.822978">
        <ele>677.524347</ele>
        <time>2017-06-03T09:43:05.000Z</time>
      </trkpt>
      <trkpt lat="45.472607" lon="5.822877">
        <ele>678.045022</ele>
        <time>2017-06-03T09:43:09.000Z</time>
      </trkpt>
      <trkpt lat="45.472540" lon="5.822781">
        <ele>678.548694</ele>
        <time>2017-06-03T09:43:13.000Z</time>
      </trkpt>
      <trkpt lat="45.472466" lon="5.822679">
        <ele>679.094470</ele>
        <time>2017-06-03T09:43:17.000Z</time>
      </trkpt>
      <trkpt lat="45.472397" lon="5.822562">
        <ele>679.662970</ele>
        <time>2017-06-03T09:43:21.000Z</time>
      </trkpt>
      <trkpt lat="45.472336" lon="5.822460">
        <ele>680.161485</ele>
        <time>2017-06-03T09:43:25.000Z</time>
      </trkpt>
      <trkpt lat="45.472267" lon="5.822333">
        <ele>680.758926</ele>
        <time>2017-06-03T09:43:30.000Z</time>
      </trkpt>
      <trkpt lat="45.472195" lon="5.822221">
        <ele>681.323953</ele>
        <time>2017-06-03T09:43:35.000Z</time>
      </trkpt>
      <trkpt lat="45.472120" lon="5.822125">
        <ele>681.858400</ele>
        <time>2017-06-03T09:43:40.000Z</time>
      </trkpt>
      <trkpt lat="45.472054" lon="5.822025">
        <ele>682.369075</ele>
        <time>2017-06-03T09:43:43.000Z</time>
      </trkpt>
      <trkpt lat="45.471960" lon="5.821904">
        <ele>683.040608</ele>
        <time>2017-06-03T09:43:46.000Z</time>
      </trkpt>
      <trkpt lat="45.471863" lon="5.821823">
        <ele>683.636704</ele>
        <time>2017-06-03T09:43:48.000Z</time>
      </trkpt>
      <trkpt lat="45.471764" lon="5.821738">
        <ele>684.249515</ele>
        <time>2017-06-03T09:43:50.000Z</time>
      </trkpt>
      <trkpt lat="45.471640" lon="5.821653">
        <ele>684.026099</ele>
        <time>2017-06-03T09:43:52.000Z</time>
      </trkpt>
      <trkpt lat="45.471500" lon="5.821577">
        <ele>683.775150</ele>
        <time>2017-06-03T09:43:54.000Z</time>
      </trkpt>
      <trkpt lat="45.471380" lon="5.821485">
        <ele>683.546914</ele>
        <time>2017-06-03T09:43:56.000Z</time>
      </trkpt>
      <trkpt lat="45.471287" lon="5.821426">
        <ele>683.376397</ele>
        <time>2017-06-03T09:43:58.000Z</time>
      </trkpt>
      <trkpt lat="45.471200" lon="5.821354">
        <ele>683.207888</ele>
        <time>2017-06-03T09:44:01.000Z</time>
      </trkpt>
      <trkpt lat="45.471115" lon="5.821264">
        <ele>683.030534</ele>
        <time>2017-06-03T09:44:05.000Z</time>
      </trkpt>
      <trkpt lat="45.471000" lon="5.821196">
        <ele>682.821979</ele>
        <time>2017-06-03T09:44:09.000Z</time>
      </trkpt>
      <trkpt lat="45.470917" lon="5.821097">
        <ele>682.640709</ele>
        <time>2017-06-03T09:44:12.000Z</time>
      </trkpt>
      <trkpt lat="45.470820" lon="5.821018">
        <ele>682.453578</ele>
        <time>2017-06-03T09:44:15.000Z</time>
      </trkpt>
      <trkpt lat="45.470720" lon="5.820947">
        <ele>682.266441</ele>
        <time>2017-06-03T09:44:18.000Z</time>
      </trkpt>
      <trkpt lat="45.470634" lon="5.820874">
        <ele>682.098780</ele>
        <time>2017-06-03T09:44:21.000Z</time>
      </trkpt>
      <trkpt lat="45.470547" lon="5.820800">
        <ele>681.929079</ele>
        <time>2017-06-03T09:44:24.000Z</time>
      </trkpt>
      <trkpt lat="45.470474" lon="5.820717">
        <ele>681.772674</ele>
        <time>2017-06-03T09:44:27.000Z</time>
      </trkpt>
      <trkpt lat="45.470398" lon="5.820619">
        <ele>681.601023</ele>
        <time>2017-06-03T09:44:30.000Z</time>
      </trkpt>
      <trkpt lat="45.470330" lon="5.820536">
        <ele>681.451076</ele>
        <time>2017-06-03T09:44:33.000Z</time>
      </trkpt>
      <trkpt lat="45.470264" lon="5.820437">
        <ele>681.290605</ele>
        <time>2017-06-03T09:44:36.000Z</time>
      </trkpt>
      <trkpt lat="45.470200" lon="5.820332">
        <ele>681.389804</ele>
        <time>2017-06-03T09:44:39.000Z</time>
      </trkpt>
      <trkpt lat="45.470135" lon="5.820223">
        <ele>681.606894</ele>
        <time>2017-06-03T09:44:42.000Z</time>
      </trkpt>
      <trkpt lat="45.470078" lon="5.820122">
        <ele>681.803597</ele>
        <time>2017-06-03T09:44:45.000Z</time>
      </trkpt>
      <trkpt lat="45.469982" lon="5.820025">
        <ele>682.058156</ele>
        <time>2017-06-03T09:44:49.000Z</time>
      </trkpt>
      <trkpt lat="45.469887" lon="5.819937">
        <ele>682.303254</ele>
        <time>2017-06-03T09:44:53.000Z</time>
      </trkpt>
      <trkpt lat="45.469776" lon="5.819877">
        <ele>682.560084</ele>
        <time>2017-06-03T09:44:57.000Z</time>
      </trkpt>
      <trkpt lat="45.469673" lon="5.819825">
        <ele>682.796485</ele>
        <time>2017-06-03T09:45:01.000Z</time>
      </trkpt>
      <trkpt lat="45.469566" lon="5.819768">
        <ele>683.043613</ele>
        <time>2017-06-03T09:45:05.000Z</time>
      </trkpt>
      <trkpt lat="45.469463" lon="5.819715">
        <ele>683.280525</ele>
        <time>2017-06-03T09:45:09.000Z</time>
      </trkpt>
      <trkpt lat="45.469353" lon="5.819677">
        <ele>683.525401</ele>
        <time>2017-06-03T09:45:13.000Z</time>
      </trkpt>
      <trkpt lat="45.469246" lon="5.819629">
        <ele>683.768087</ele>
        <time>2017-06-03T09:45:17.000Z</time>
      </trkpt>
      <trkpt lat="45.469154" lon="5.819601">
        <ele>683.971618</ele>
        <time>2017-06-03T09:45:21.000Z</time>
      </trkpt>
      <trkpt lat="45.469063" lon="5.819542">
        <ele>684.187897</ele>
        <time>2017-06-03T09:45:26.000Z</time>
      </trkpt>
      <trkpt lat="45.468967" lon="5.819494">
        <ele>684.407998</ele>
        <time>2017-06-03T09:45:31.000Z</time>
      </trkpt>
      <trkpt lat="45.468884" lon="5.819426">
        <ele>684.615103</ele>
        <time>2017-06-03T09:45:35.000Z</time>
      </trkpt>
      <trkpt lat="45.468796" lon="5.819371">
        <ele>684.822982</ele>
        <time>2017-06-03T09:45:39.000Z</time>
      </trkpt>
      <trkpt lat="45.468704" lon="5.819314">
        <ele>685.040006</ele>
        <time>2017-06-03T09:45:43.000Z</time>
      </trkpt>
      <trkpt lat="45.468613" lon="5.819251">
        <ele>685.201822</ele>
        <time>2017-06-03T09:45:47.000Z</time>
      </trkpt>
      <trkpt lat="45.468520" lon="5.819184">
        <ele>685.324883</ele>
        <time>2017-06-03T09:45:51.000Z</time>
      </trkpt>
      <trkpt lat="45.468430" lon="5.819122">
        <ele>685.442932</ele>
        <time>2017-06-03T09:45:55.000Z</time>
      </trkpt>
      <trkpt lat="45.468338" lon="5.819067">
        <ele>685.560752</ele>
        <time>2017-06-03T09:45:59.000Z</time>
      </trkpt>
      <trkpt lat="45.468250" lon="5.819022">
        <ele>685.671165</ele>
        <time>2017-06-03T09:46:03.000Z</time>
      </trkpt>
      <trkpt lat="45.468160" lon="5.818940">
        <ele>685.797306</ele>
        <time>2017-06-03T09:46:08.000Z</time>
      </trkpt>
      <trkpt lat="45.468082" lon="5.818870">
        <ele>685.906155</ele>
        <time>2017-06-03T09:46:12.000Z</time>
      </trkpt>
      <trkpt lat="45.468000" lon="5.818795">
        <ele>686.021212</ele>
        <time>2017-06-03T09:46:16.000Z</time>
      </trkpt>
      <trkpt lat="45.467915" lon="5.818681">
        <ele>686.159030</ele>
        <time>2017-06-03T09:46:21.000Z</time>
      </trkpt>
      <trkpt lat="45.467854" lon="5.818579">
        <ele>686.270062</ele>
        <time>2017-06-03T09:46:25.000Z</time>
      </trkpt>
      <trkpt lat="45.467810" lon="5.818433">
        <ele>686.401684</ele>
        <time>2017-06-03T09:46:30.000Z</time>
      </trkpt>
      <trkpt lat="45.467770" lon="5.818307">
        <ele>686.516242</ele>
        <time>2017-06-03T09:46:34.000Z</time>
      </trkpt>
      <trkpt lat="45.467710" lon="5.818198">
        <ele>686.631014</ele>
        <time>2017-06-03T09:46:38.000Z</time>
      </trkpt>
      <trkpt lat="45.467648" lon="5.818085">
        <ele>686.749850</ele>
        <time>2017-06-03T09:46:42.000Z</time>
      </trkpt>
      <trkpt lat="45.467570" lon="5.817991">
        <ele>686.870467</ele>
        <time>2017-06-03T09:46:46.000Z</time>
      </trkpt>
      <trkpt lat="45.467480" lon="5.817921">
        <ele>686.991546</ele>
        <time>2017-06-03T09:46:51.000Z</time>
      </trkpt>
      <trkpt lat="45.467392" lon="5.817837">
        <ele>687.116617</ele>
        <time>2017-06-03T09:46:57.000Z</time>
      </trkpt>
      <trkpt lat="45.467308" lon="5.817760">
        <ele>687.234558</ele>
        <time>2017-06-03T09:47:02.000Z</time>
      </trkpt>
      <trkpt lat="45.467228" lon="5.817695">
        <ele>687.406222</ele>
        <time>2017-06-03T09:47:06.000Z</time>
      </trkpt>
      <trkpt lat="45.467144" lon="5.817649">
        <ele>687.590455</ele>
        <time>2017-06-03T09:47:10.000Z</time>
      </trkpt>
      <trkpt lat="45.467052" lon="5.817602">
        <ele>687.790544</ele>
        <time>2017-06-03T09:47:16.000Z</time>
      </trkpt>
      <trkpt lat="45.467014" lon="5.817483">
        <ele>687.978296</ele>
        <time>2017-06-03T09:47:21.000Z</time>
      </trkpt>
      <trkpt lat="45.466953" lon="5.817384">
        <ele>688.167522</ele>
        <time>2017-06-03T09:47:27.000Z</time>
      </trkpt>
      <trkpt lat="45.466880" lon="5.817291">
        <ele>688.367952</ele>
        <time>2017-06-03T09:47:34.000Z</time>
      </trkpt>
      <trkpt lat="45.466790" lon="5.817239">
        <ele>688.566774</ele>
        <time>2017-06-03T09:47:43.000Z</time>
      </trkpt>
      <trkpt lat="45.466705" lon="5.817173">
        <ele>688.764937</ele>
        <time>2017-06-03T09:47:51.000Z</time>
      </trkpt>
      <trkpt lat="45.466652" lon="5.817051">
        <ele>688.971005</ele>
        <time>2017-06-03T09:48:00.000Z</time>
      </trkpt>
      <trkpt lat="45.466667" lon="5.816908">
        <ele>689.178626</ele>
        <time>2017-06-03T09:48:08.000Z</time>
      </trkpt>
      <trkpt lat="45.466583" lon="5.816857">
        <ele>689.365553</ele>
        <time>2017-06-03T10:12:48.000Z</time>
      </trkpt>
      <trkpt lat="45.466510" lon="5.816775">
        <ele>689.555824</ele>
        <time>2017-06-03T10:12:56.000Z</time>
      </trkpt>
      <trkpt lat="45.466564" lon="5.816886">
        <ele>689.749804</ele>
        <time>2017-06-03T10:13:35.000Z</time>
      </trkpt>
      <trkpt lat="45.466663" lon="5.816905">
        <ele>689.954328</ele>
        <time>2017-06-03T10:21:11.000Z</time>
      </trkpt>
      <trkpt lat="45.466660" lon="5.817032">
        <ele>690.136793</ele>
        <time>2017-06-03T10:21:21.000Z</time>
      </trkpt>
      <trkpt lat="45.466564" lon="5.817011">
        <ele>690.335646</ele>
        <time>2017-06-03T10:21:28.000Z</time>
      </trkpt>
      <trkpt lat="45.466484" lon="5.816933">
        <ele>690.534073</ele>
        <time>2017-06-03T10:21:33.000Z</time>
      </trkpt>
      <trkpt lat="45.466390" lon="5.816872">
        <ele>690.745527</ele>
        <time>2017-06-03T10:21:42.000Z</time>
      </trkpt>
      <trkpt lat="45.466290" lon="5.816868">
        <ele>690.918474</ele>
        <time>2017-06-03T10:21:46.000Z</time>
      </trkpt>
      <trkpt lat="45.466194" lon="5.816882">
        <ele>690.498929</ele>
        <time>2017-06-03T10:21:49.000Z</time>
      </trkpt>
      <trkpt lat="45.466090" lon="5.816897">
        <ele>690.044474</ele>
        <time>2017-06-03T10:21:53.000Z</time>
      </trkpt>
      <trkpt lat="45.466003" lon="5.816939">
        <ele>689.645144</ele>
        <time>2017-06-03T10:21:56.000Z</time>
      </trkpt>
      <trkpt lat="45.465920" lon="5.816988">
        <ele>689.254588</ele>
        <time>2017-06-03T10:21:59.000Z</time>
      </trkpt>
      <trkpt lat="45.465813" lon="5.817015">
        <ele>688.782169</ele>
        <time>2017-06-03T10:22:03.000Z</time>
      </trkpt>
      <trkpt lat="45.465687" lon="5.817001">
        <ele>688.232713</ele>
        <time>2017-06-03T10:22:07.000Z</time>
      </trkpt>
      <trkpt lat="45.465590" lon="5.816958">
        <ele>687.791087</ele>
        <time>2017-06-03T10:22:10.000Z</time>
      </trkpt>
      <trkpt lat="45.465510" lon="5.816891">
        <ele>687.387721</ele>
        <time>2017-06-03T10:22:13.000Z</time>
      </trkpt>
      <trkpt lat="45.465443" lon="5.816802">
        <ele>686.989612</ele>
        <time>2017-06-03T10:22:17.000Z</time>
      </trkpt>
      <trkpt lat="45.465330" lon="5.816721">
        <ele>686.439747</ele>
        <time>2017-06-03T10:22:21.000Z</time>
      </trkpt>
      <trkpt lat="45.465250" lon="5.816648">
        <ele>686.026814</ele>
        <time>2017-06-03T10:22:24.000Z</time>
      </trkpt>
      <trkpt lat="45.465160" lon="5.816616">
        <ele>685.623550</ele>
        <time>2017-06-03T10:22:27.000Z</time>
      </trkpt>
      <trkpt lat="45.465073" lon="5.816552">
        <ele>685.197937</ele>
        <time>2017-06-03T10:22:31.000Z</time>
      </trkpt>
      <trkpt lat="45.464996" lon="5.816470">
        <ele>684.780107</ele>
        <time>2017-06-03T10:22:35.000Z</time>
      </trkpt>
      <trkpt lat="45.464912" lon="5.816399">
        <ele>684.355565</ele>
        <time>2017-06-03T10:22:38.000Z</time>
      </trkpt>
      <trkpt lat="45.464820" lon="5.816309">
        <ele>683.870497</ele>
        <time>2017-06-03T10:22:42.000Z</time>
      </trkpt>
      <trkpt lat="45.464737" lon="5.816225">
        <ele>683.427988</ele>
        <time>2017-06-03T10:22:45.000Z</time>
      </trkpt>
      <trkpt lat="45.464592" lon="5.816099">
        <ele>682.596208</ele>
        <time>2017-06-03T10:22:49.000Z</time>
      </trkpt>
      <trkpt lat="45.464485" lon="5.816010">
        <ele>681.940681</ele>
        <time>2017-06-03T10:22:51.000Z</time>
      </trkpt>
      <trkpt lat="45.464375" lon="5.815939">
        <ele>681.301717</ele>
        <time>2017-06-03T10:22:54.000Z</time>
      </trkpt>
      <trkpt lat="45.464275" lon="5.815872">
        <ele>680.717024</ele>
        <time>2017-06-03T10:22:57.000Z</time>
      </trkpt>
      <trkpt lat="45.464180" lon="5.815804">
        <ele>680.154509</ele>
        <time>2017-06-03T10:23:00.000Z</time>
      </trkpt>
      <trkpt lat="45.464108" lon="5.815703">
        <ele>679.620015</ele>
        <time>2017-06-03T10:23:03.000Z</time>
      </trkpt>
      <trkpt lat="45.464024" lon="5.815627">
        <ele>679.093562</ele>
        <time>2017-06-03T10:23:06.000Z</time>
      </trkpt>
      <trkpt lat="45.463882" lon="5.815545">
        <ele>678.282836</ele>
        <time>2017-06-03T10:23:09.000Z</time>
      </trkpt>
      <trkpt lat="45.463776" lon="5.815472">
        <ele>677.659899</ele>
        <time>2017-06-03T10:23:11.000Z</time>
      </trkpt>
      <trkpt lat="45.463696" lon="5.815402">
        <ele>677.163193</ele>
        <time>2017-06-03T10:23:13.000Z</time>
      </trkpt>
      <trkpt lat="45.463585" lon="5.815322">
        <ele>676.505024</ele>
        <time>2017-06-03T10:23:16.000Z</time>
      </trkpt>
      <trkpt lat="45.463493" lon="5.815318">
        <ele>676.017953</ele>
        <time>2017-06-03T10:23:18.000Z</time>
      </trkpt>
      <trkpt lat="45.463383" lon="5.815312">
        <ele>675.435429</ele>
        <time>2017-06-03T10:23:20.000Z</time>
      </trkpt>
      <trkpt lat="45.463264" lon="5.815347">
        <ele>674.792446</ele>
        <time>2017-06-03T10:23:22.000Z</time>
      </trkpt>
      <trkpt lat="45.463142" lon="5.815373">
        <ele>674.139675</ele>
        <time>2017-06-03T10:23:24.000Z</time>
      </trkpt>
      <trkpt lat="45.463020" lon="5.815374">
        <ele>673.480751</ele>
        <time>2017-06-03T10:23:26.000Z</time>
      </trkpt>
      <trkpt lat="45.462900" lon="5.815334">
        <ele>672.748428</ele>
        <time>2017-06-03T10:23:28.000Z</time>
      </trkpt>
      <trkpt lat="45.462772" lon="5.815260">
        <ele>671.927644</ele>
        <time>2017-06-03T10:23:30.000Z</time>
      </trkpt>
      <trkpt lat="45.462635" lon="5.815150">
        <ele>670.993313</ele>
        <time>2017-06-03T10:23:32.000Z</time>
      </trkpt>
      <trkpt lat="45.462486" lon="5.815034">
        <ele>669.984490</ele>
        <time>2017-06-03T10:23:34.000Z</time>
      </trkpt>
      <trkpt lat="45.462334" lon="5.814916">
        <ele>668.956024</ele>
        <time>2017-06-03T10:23:36.000Z</time>
      </trkpt>
      <trkpt lat="45.462204" lon="5.814792">
        <ele>668.026569</ele>
        <time>2017-06-03T10:23:38.000Z</time>
      </trkpt>
      <trkpt lat="45.462063" lon="5.814652">
        <ele>667.005524</ele>
        <time>2017-06-03T10:23:40.000Z</time>
      </trkpt>
      <trkpt lat="45.461930" lon="5.814520">
        <ele>666.042545</ele>
        <time>2017-06-03T10:23:42.000Z</time>
      </trkpt>
      <trkpt lat="45.461796" lon="5.814395">
        <ele>665.090964</ele>
        <time>2017-06-03T10:23:44.000Z</time>
      </trkpt>
      <trkpt lat="45.461674" lon="5.814258">
        <ele>664.168118</ele>
        <time>2017-06-03T10:23:46.000Z</time>
      </trkpt>
      <trkpt lat="45.461555" lon="5.814127">
        <ele>663.274709</ele>
        <time>2017-06-03T10:23:48.000Z</time>
      </trkpt>
      <trkpt lat="45.461422" lon="5.814003">
        <ele>662.579440</ele>
        <time>2017-06-03T10:23:50.000Z</time>
      </trkpt>
      <trkpt lat="45.461285" lon="5.813908">
        <ele>662.060469</ele>
        <time>2017-06-03T10:23:52.000Z</time>
      </trkpt>
      <trkpt lat="45.461143" lon="5.813821">
        <ele>661.533964</ele>
        <time>2017-06-03T10:23:54.000Z</time>
      </trkpt>
      <trkpt lat="45.461006" lon="5.813739">
        <ele>661.027807</ele>
        <time>2017-06-03T10:23:56.000Z</time>
      </trkpt>
      <trkpt lat="45.460890" lon="5.813667">
        <ele>660.596823</ele>
        <time>2017-06-03T10:23:58.000Z</time>
      </trkpt>
      <trkpt lat="45.460773" lon="5.813606">
        <ele>660.172442</ele>
        <time>2017-06-03T10:24:00.000Z</time>
      </trkpt>
      <trkpt lat="45.460655" lon="5.813537">
        <ele>659.737972</ele>
        <time>2017-06-03T10:24:02.000Z</time>
      </trkpt>
      <trkpt lat="45.460540" lon="5.813478">
        <ele>659.321625</ele>
        <time>2017-06-03T10:24:04.000Z</time>
      </trkpt>
      <trkpt lat="45.460430" lon="5.813414">
        <ele>658.916902</ele>
        <time>2017-06-03T10:24:06.000Z</time>
      </trkpt>
      <trkpt lat="45.460327" lon="5.813353">
        <ele>658.536958</ele>
        <time>2017-06-03T10:24:08.000Z</time>
      </trkpt>
      <trkpt lat="45.460230" lon="5.813288">
        <ele>658.171843</ele>
        <time>2017-06-03T10:24:10.000Z</time>
      </trkpt>
      <trkpt lat="45.460150" lon="5.813226">
        <ele>657.861656</ele>
        <time>2017-06-03T10:24:12.000Z</time>
      </trkpt>
      <trkpt lat="45.460045" lon="5.813120">
        <ele>657.423376</ele>
        <time>2017-06-03T10:24:15.000Z</time>
      </trkpt>
      <trkpt lat="45.459938" lon="5.813026">
        <ele>656.995232</ele>
        <time>2017-06-03T10:24:18.000Z</time>
      </trkpt>
      <trkpt lat="45.459824" lon="5.812928">
        <ele>656.704238</ele>
        <time>2017-06-03T10:24:21.000Z</time>
      </trkpt>
      <trkpt lat="45.459720" lon="5.812830">
        <ele>656.561131</ele>
        <time>2017-06-03T10:24:24.000Z</time>
      </trkpt>
      <trkpt lat="45.459633" lon="5.812736">
        <ele>656.435819</ele>
        <time>2017-06-03T10:24:27.000Z</time>
      </trkpt>
      <trkpt lat="45.459570" lon="5.812627">
        <ele>656.322095</ele>
        <time>2017-06-03T10:24:31.000Z</time>
      </trkpt>
      <trkpt lat="45.459602" lon="5.812497">
        <ele>656.211162</ele>
        <time>2017-06-03T10:24:34.000Z</time>
      </trkpt>
      <trkpt lat="45.459633" lon="5.812363">
        <ele>656.097550</ele>
        <time>2017-06-03T10:24:37.000Z</time>
      </trkpt>
      <trkpt lat="45.459652" lon="5.812225">
        <ele>655.984314</ele>
        <time>2017-06-03T10:24:40.000Z</time>
      </trkpt>
      <trkpt lat="45.459675" lon="5.812094">
        <ele>655.875580</ele>
        <time>2017-06-03T10:24:43.000Z</time>
      </trkpt>
      <trkpt lat="45.459690" lon="5.811968">
        <ele>655.772676</ele>
        <time>2017-06-03T10:24:46.000Z</time>
      </trkpt>
      <trkpt lat="45.459710" lon="5.811814">
        <ele>655.646570</ele>
        <time>2017-06-03T10:24:50.000Z</time>
      </trkpt>
      <trkpt lat="45.459724" lon="5.811675">
        <ele>655.533501</ele>
        <time>2017-06-03T10:24:57.000Z</time>
      </trkpt>
      <trkpt lat="45.459766" lon="5.811394">
        <ele>655.302164</ele>
        <time>2017-06-03T10:25:50.000Z</time>
      </trkpt>
      <trkpt lat="45.459785" lon="5.811231">
        <ele>655.169118</ele>
        <time>2017-06-03T10:25:54.000Z</time>
      </trkpt>
      <trkpt lat="45.459797" lon="5.811097">
        <ele>655.060348</ele>
        <time>2017-06-03T10:25:57.000Z</time>
      </trkpt>
      <trkpt lat="45.459812" lon="5.810967">
        <ele>654.954267</ele>
        <time>2017-06-03T10:26:00.000Z</time>
      </trkpt>
      <trkpt lat="45.459816" lon="5.810796">
        <ele>654.816504</ele>
        <time>2017-06-03T10:26:04.000Z</time>
      </trkpt>
      <trkpt lat="45.459824" lon="5.810633">
        <ele>654.726054</ele>
        <time>2017-06-03T10:26:08.000Z</time>
      </trkpt>
      <trkpt lat="45.459816" lon="5.810502">
        <ele>654.737423</ele>
        <time>2017-06-03T10:26:12.000Z</time>
      </trkpt>
      <trkpt lat="45.459800" lon="5.810366">
        <ele>654.749345</ele>
        <time>2017-06-03T10:26:16.000Z</time>
      </trkpt>
      <trkpt lat="45.459766" lon="5.810242">
        <ele>654.760856</ele>
        <time>2017-06-03T10:26:20.000Z</time>
      </trkpt>
      <trkpt lat="45.459736" lon="5.810099">
        <ele>654.773761</ele>
        <time>2017-06-03T10:26:27.000Z</time>
      </trkpt>
      <trkpt lat="45.459675" lon="5.809977">
        <ele>654.786714</ele>
        <time>2017-06-03T10:26:32.000Z</time>
      </trkpt>
      <trkpt lat="45.459644" lon="5.809822">
        <ele>654.800649</ele>
        <time>2017-06-03T10:26:36.000Z</time>
      </trkpt>
      <trkpt lat="45.459595" lon="5.809691">
        <ele>654.813485</ele>
        <time>2017-06-03T10:26:39.000Z</time>
      </trkpt>
      <trkpt lat="45.459534" lon="5.809568">
        <ele>654.826509</ele>
        <time>2017-06-03T10:26:42.000Z</time>
      </trkpt>
      <trkpt lat="45.459457" lon="5.809448">
        <ele>654.840570</ele>
        <time>2017-06-03T10:26:45.000Z</time>
      </trkpt>
      <trkpt lat="45.459385" lon="5.809307">
        <ele>654.855649</ele>
        <time>2017-06-03T10:26:48.000Z</time>
      </trkpt>
      <trkpt lat="45.459310" lon="5.809173">
        <ele>654.870471</ele>
        <time>2017-06-03T10:26:51.000Z</time>
      </trkpt>
      <trkpt lat="45.459232" lon="5.809049">
        <ele>654.884871</ele>
        <time>2017-06-03T10:26:54.000Z</time>
      </trkpt>
      <trkpt lat="45.459156" lon="5.808909">
        <ele>654.900177</ele>
        <time>2017-06-03T10:26:57.000Z</time>
      </trkpt>
      <trkpt lat="45.459080" lon="5.808773">
        <ele>654.915211</ele>
        <time>2017-06-03T10:27:00.000Z</time>
      </trkpt>
      <trkpt lat="45.458992" lon="5.808638">
        <ele>654.931145</ele>
        <time>2017-06-03T10:27:03.000Z</time>
      </trkpt>
      <trkpt lat="45.458904" lon="5.808493">
        <ele>654.835202</ele>
        <time>2017-06-03T10:27:06.000Z</time>
      </trkpt>
      <trkpt lat="45.458855" lon="5.808373">
        <ele>654.505290</ele>
        <time>2017-06-03T10:27:08.000Z</time>
      </trkpt>
      <trkpt lat="45.458817" lon="5.808231">
        <ele>654.144179</ele>
        <time>2017-06-03T10:27:10.000Z</time>
      </trkpt>
      <trkpt lat="45.458790" lon="5.808056">
        <ele>653.718442</ele>
        <time>2017-06-03T10:27:12.000Z</time>
      </trkpt>
      <trkpt lat="45.458780" lon="5.807881">
        <ele>653.301267</ele>
        <time>2017-06-03T10:27:14.000Z</time>
      </trkpt>
      <trkpt lat="45.458790" lon="5.807696">
        <ele>652.860406</ele>
        <time>2017-06-03T10:27:16.000Z</time>
      </trkpt>
      <trkpt lat="45.458813" lon="5.807512">
        <ele>652.416336</ele>
        <time>2017-06-03T10:27:18.000Z</time>
      </trkpt>
      <trkpt lat="45.458862" lon="5.807315">
        <ele>651.919709</ele>
        <time>2017-06-03T10:27:20.000Z</time>
      </trkpt>
      <trkpt lat="45.458910" lon="5.807105">
        <ele>651.394929</ele>
        <time>2017-06-03T10:27:22.000Z</time>
      </trkpt>
      <trkpt lat="45.458954" lon="5.806895">
        <ele>650.874188</ele>
        <time>2017-06-03T10:27:24.000Z</time>
      </trkpt>
      <trkpt lat="45.458977" lon="5.806693">
        <ele>650.387958</ele>
        <time>2017-06-03T10:27:26.000Z</time>
      </trkpt>
      <trkpt lat="45.458980" lon="5.806490">
        <ele>649.905527</ele>
        <time>2017-06-03T10:27:28.000Z</time>
      </trkpt>
      <trkpt lat="45.458954" lon="5.806312">
        <ele>649.473530</ele>
        <time>2017-06-03T10:27:30.000Z</time>
      </trkpt>
      <trkpt lat="45.458920" lon="5.806126">
        <ele>649.016837</ele>
        <time>2017-06-03T10:27:32.000Z</time>
      </trkpt>
      <trkpt lat="45.458878" lon="5.805955">
        <ele>648.538148</ele>
        <time>2017-06-03T10:27:34.000Z</time>
      </trkpt>
      <trkpt lat="45.458810" lon="5.805793">
        <ele>648.007895</ele>
        <time>2017-06-03T10:27:36.000Z</time>
      </trkpt>
      <trkpt lat="45.458725" lon="5.805620">
        <ele>647.414648</ele>
        <time>2017-06-03T10:27:38.000Z</time>
      </trkpt>
      <trkpt lat="45.458633" lon="5.805442">
        <ele>646.793637</ele>
        <time>2017-06-03T10:27:40.000Z</time>
      </trkpt>
      <trkpt lat="45.458546" lon="5.805270">
        <ele>646.198038</ele>
        <time>2017-06-03T10:27:42.000Z</time>
      </trkpt>
      <trkpt lat="45.458458" lon="5.805090">
        <ele>645.581792</ele>
        <time>2017-06-03T10:27:44.000Z</time>
      </trkpt>
      <trkpt lat="45.458355" lon="5.804910">
        <ele>644.929337</ele>
        <time>2017-06-03T10:27:46.000Z</time>
      </trkpt>
      <trkpt lat="45.458256" lon="5.804719">
        <ele>644.262301</ele>
        <time>2017-06-03T10:27:48.000Z</time>
      </trkpt>
      <trkpt lat="45.458160" lon="5.804533">
        <ele>643.613697</ele>
        <time>2017-06-03T10:27:50.000Z</time>
      </trkpt>
      <trkpt lat="45.458065" lon="5.804349">
        <ele>642.971989</ele>
        <time>2017-06-03T10:27:52.000Z</time>
      </trkpt>
      <trkpt lat="45.457962" lon="5.804174">
        <ele>642.330352</ele>
        <time>2017-06-03T10:27:54.000Z</time>
      </trkpt>
      <trkpt lat="45.457863" lon="5.803999">
        <ele>641.698890</ele>
        <time>2017-06-03T10:27:56.000Z</time>
      </trkpt>
      <trkpt lat="45.457775" lon="5.803824">
        <ele>641.208745</ele>
        <time>2017-06-03T10:27:58.000Z</time>
      </trkpt>
      <trkpt lat="45.457672" lon="5.803674">
        <ele>640.740998</ele>
        <time>2017-06-03T10:28:00.000Z</time>
      </trkpt>
      <trkpt lat="45.457596" lon="5.803513">
        <ele>640.308562</ele>
        <time>2017-06-03T10:28:02.000Z</time>
      </trkpt>
      <trkpt lat="45.457504" lon="5.803382">
        <ele>639.895487</ele>
        <time>2017-06-03T10:28:04.000Z</time>
      </trkpt>
      <trkpt lat="45.457420" lon="5.803249">
        <ele>639.496685</ele>
        <time>2017-06-03T10:28:06.000Z</time>
      </trkpt>
      <trkpt lat="45.457333" lon="5.803114">
        <ele>639.088173</ele>
        <time>2017-06-03T10:28:08.000Z</time>
      </trkpt>
      <trkpt lat="45.457245" lon="5.802971">
        <ele>638.664272</ele>
        <time>2017-06-03T10:28:10.000Z</time>
      </trkpt>
      <trkpt lat="45.457165" lon="5.802834">
        <ele>638.267048</ele>
        <time>2017-06-03T10:28:12.000Z</time>
      </trkpt>
      <trkpt lat="45.457090" lon="5.802704">
        <ele>637.891969</ele>
        <time>2017-06-03T10:28:14.000Z</time>
      </trkpt>
      <trkpt lat="45.457012" lon="5.802581">
        <ele>637.522478</ele>
        <time>2017-06-03T10:28:16.000Z</time>
      </trkpt>
      <trkpt lat="45.456917" lon="5.802458">
        <ele>637.114796</ele>
        <time>2017-06-03T10:28:18.000Z</time>
      </trkpt>
      <trkpt lat="45.456814" lon="5.802337">
        <ele>636.690807</ele>
        <time>2017-06-03T10:28:20.000Z</time>
      </trkpt>
      <trkpt lat="45.456710" lon="5.802233">
        <ele>636.287243</ele>
        <time>2017-06-03T10:28:22.000Z</time>
      </trkpt>
      <trkpt lat="45.456600" lon="5.802145">
        <ele>635.894179</ele>
        <time>2017-06-03T10:28:24.000Z</time>
      </trkpt>
      <trkpt lat="45.456497" lon="5.802082">
        <ele>635.594339</ele>
        <time>2017-06-03T10:28:26.000Z</time>
      </trkpt>
      <trkpt lat="45.456380" lon="5.802044">
        <ele>635.273317</ele>
        <time>2017-06-03T10:28:28.000Z</time>
      </trkpt>
      <trkpt lat="45.456250" lon="5.802022">
        <ele>634.923095</ele>
        <time>2017-06-03T10:28:30.000Z</time>
      </trkpt>
      <trkpt lat="45.456135" lon="5.802020">
        <ele>634.615420</ele>
        <time>2017-06-03T10:28:32.000Z</time>
      </trkpt>
      <trkpt lat="45.456005" lon="5.802039">
        <ele>634.265817</ele>
        <time>2017-06-03T10:28:35.000Z</time>
      </trkpt>
      <trkpt lat="45.455900" lon="5.802052">
        <ele>633.983860</ele>
        <time>2017-06-03T10:28:39.000Z</time>
      </trkpt>
      <trkpt lat="45.455790" lon="5.802064">
        <ele>633.688724</ele>
        <time>2017-06-03T10:28:52.000Z</time>
      </trkpt>
      <trkpt lat="45.455680" lon="5.802088">
        <ele>633.391022</ele>
        <time>2017-06-03T10:28:56.000Z</time>
      </trkpt>
      <trkpt lat="45.455555" lon="5.802115">
        <ele>633.052801</ele>
        <time>2017-06-03T10:28:59.000Z</time>
      </trkpt>
      <trkpt lat="45.455460" lon="5.802152">
        <ele>632.789339</ele>
        <time>2017-06-03T10:29:01.000Z</time>
      </trkpt>
      <trkpt lat="45.455340" lon="5.802169">
        <ele>632.466730</ele>
        <time>2017-06-03T10:29:03.000Z</time>
      </trkpt>
      <trkpt lat="45.455210" lon="5.802175">
        <ele>632.118767</ele>
        <time>2017-06-03T10:29:05.000Z</time>
      </trkpt>
      <trkpt lat="45.455074" lon="5.802182">
        <ele>631.754699</ele>
        <time>2017-06-03T10:29:07.000Z</time>
      </trkpt>
      <trkpt lat="45.454914" lon="5.802172">
        <ele>631.326250</ele>
        <time>2017-06-03T10:29:09.000Z</time>
      </trkpt>
      <trkpt lat="45.454758" lon="5.802169">
        <ele>630.628654</ele>
        <time>2017-06-03T10:29:11.000Z</time>
      </trkpt>
      <trkpt lat="45.454605" lon="5.802159">
        <ele>629.683092</ele>
        <time>2017-06-03T10:29:13.000Z</time>
      </trkpt>
      <trkpt lat="45.454475" lon="5.802146">
        <ele>628.878544</ele>
        <time>2017-06-03T10:29:15.000Z</time>
      </trkpt>
      <trkpt lat="45.454327" lon="5.802104">
        <ele>627.946914</ele>
        <time>2017-06-03T10:29:17.000Z</time>
      </trkpt>
      <trkpt lat="45.454166" lon="5.802035">
        <ele>626.909009</ele>
        <time>2017-06-03T10:29:19.000Z</time>
      </trkpt>
      <trkpt lat="45.454014" lon="5.801950">
        <ele>625.900995</ele>
        <time>2017-06-03T10:29:21.000Z</time>
      </trkpt>
      <trkpt lat="45.453873" lon="5.801850">
        <ele>624.928731</ele>
        <time>2017-06-03T10:29:23.000Z</time>
      </trkpt>
      <trkpt lat="45.453735" lon="5.801721">
        <ele>623.909933</ele>
        <time>2017-06-03T10:29:25.000Z</time>
      </trkpt>
      <trkpt lat="45.453606" lon="5.801574">
        <ele>622.890355</ele>
        <time>2017-06-03T10:29:27.000Z</time>
      </trkpt>
      <trkpt lat="45.453487" lon="5.801420">
        <ele>621.898118</ele>
        <time>2017-06-03T10:29:29.000Z</time>
      </trkpt>
      <trkpt lat="45.453384" lon="5.801246">
        <ele>620.912120</ele>
        <time>2017-06-03T10:29:31.000Z</time>
      </trkpt>
      <trkpt lat="45.453280" lon="5.801059">
        <ele>619.950495</ele>
        <time>2017-06-03T10:29:33.000Z</time>
      </trkpt>
      <trkpt lat="45.453205" lon="5.800859">
        <ele>619.471366</ele>
        <time>2017-06-03T10:29:35.000Z</time>
      </trkpt>
      <trkpt lat="45.453150" lon="5.800685">
        <ele>619.068156</ele>
        <time>2017-06-03T10:29:37.000Z</time>
      </trkpt>
      <trkpt lat="45.453120" lon="5.800561">
        <ele>618.791035</ele>
        <time>2017-06-03T10:29:39.000Z</time>
      </trkpt>
      <trkpt lat="45.453094" lon="5.800424">
        <ele>618.491187</ele>
        <time>2017-06-03T10:29:42.000Z</time>
      </trkpt>
      <trkpt lat="45.453045" lon="5.800278">
        <ele>618.149244</ele>
        <time>2017-06-03T10:29:46.000Z</time>
      </trkpt>
      <trkpt lat="45.452953" lon="5.800256">
        <ele>617.868291</ele>
        <time>2017-06-03T10:29:51.000Z</time>
      </trkpt>
      <trkpt lat="45.452866" lon="5.800304">
        <ele>617.587329</ele>
        <time>2017-06-03T10:29:58.000Z</time>
      </trkpt>
      <trkpt lat="45.452950" lon="5.800198">
        <ele>617.249459</ele>
        <time>2017-06-03T10:30:21.000Z</time>
      </trkpt>
      <trkpt lat="45.453026" lon="5.800074">
        <ele>616.901573</ele>
        <time>2017-06-03T10:30:26.000Z</time>
      </trkpt>
      <trkpt lat="45.453026" lon="5.799930">
        <ele>616.597340</ele>
        <time>2017-06-03T10:30:29.000Z</time>
      </trkpt>
      <trkpt lat="45.453014" lon="5.799751">
        <ele>616.217439</ele>
        <time>2017-06-03T10:30:32.000Z</time>
      </trkpt>
      <trkpt lat="45.453020" lon="5.799578">
        <ele>615.851491</ele>
        <time>2017-06-03T10:30:35.000Z</time>
      </trkpt>
      <trkpt lat="45.453020" lon="5.799397">
        <ele>615.469088</ele>
        <time>2017-06-03T10:30:38.000Z</time>
      </trkpt>
      <trkpt lat="45.453033" lon="5.799215">
        <ele>615.082584</ele>
        <time>2017-06-03T10:30:41.000Z</time>
      </trkpt>
      <trkpt lat="45.453060" lon="5.799032">
        <ele>614.687496</ele>
        <time>2017-06-03T10:30:44.000Z</time>
      </trkpt>
      <trkpt lat="45.453094" lon="5.798909">
        <ele>614.403421</ele>
        <time>2017-06-03T10:30:46.000Z</time>
      </trkpt>
      <trkpt lat="45.453125" lon="5.798788">
        <ele>614.124574</ele>
        <time>2017-06-03T10:30:48.000Z</time>
      </trkpt>
      <trkpt lat="45.453156" lon="5.798663">
        <ele>613.837578</ele>
        <time>2017-06-03T10:30:50.000Z</time>
      </trkpt>
      <trkpt lat="45.453197" lon="5.798533">
        <ele>613.529038</ele>
        <time>2017-06-03T10:30:52.000Z</time>
      </trkpt>
      <trkpt lat="45.453250" lon="5.798384">
        <ele>613.167407</ele>
        <time>2017-06-03T10:30:54.000Z</time>
      </trkpt>
      <trkpt lat="45.453323" lon="5.798239">
        <ele>612.781063</ele>
        <time>2017-06-03T10:30:56.000Z</time>
      </trkpt>
      <trkpt lat="45.453407" lon="5.798088">
        <ele>612.363895</ele>
        <time>2017-06-03T10:30:58.000Z</time>
      </trkpt>
      <trkpt lat="45.453495" lon="5.797937">
        <ele>611.938949</ele>
        <time>2017-06-03T10:31:00.000Z</time>
      </trkpt>
      <trkpt lat="45.453583" lon="5.797782">
        <ele>611.507307</ele>
        <time>2017-06-03T10:31:02.000Z</time>
      </trkpt>
      <trkpt lat="45.453674" lon="5.797635">
        <ele>611.082917</ele>
        <time>2017-06-03T10:31:04.000Z</time>
      </trkpt>
      <trkpt lat="45.453754" lon="5.797493">
        <ele>610.688677</ele>
        <time>2017-06-03T10:31:06.000Z</time>
      </trkpt>
      <trkpt lat="45.453850" lon="5.797375">
        <ele>610.297525</ele>
        <time>2017-06-03T10:31:08.000Z</time>
      </trkpt>
      <trkpt lat="45.453945" lon="5.797268">
        <ele>609.923915</ele>
        <time>2017-06-03T10:31:10.000Z</time>
      </trkpt>
      <trkpt lat="45.454020" lon="5.797152">
        <ele>609.582429</ele>
        <time>2017-06-03T10:31:12.000Z</time>
      </trkpt>
      <trkpt lat="45.454110" lon="5.797039">
        <ele>609.212347</ele>
        <time>2017-06-03T10:31:14.000Z</time>
      </trkpt>
      <trkpt lat="45.454170" lon="5.796909">
        <ele>608.835698</ele>
        <time>2017-06-03T10:31:16.000Z</time>
      </trkpt>
      <trkpt lat="45.454240" lon="5.796766">
        <ele>608.372937</ele>
        <time>2017-06-03T10:31:18.000Z</time>
      </trkpt>
      <trkpt lat="45.454290" lon="5.796609">
        <ele>607.915360</ele>
        <time>2017-06-03T10:31:20.000Z</time>
      </trkpt>
      <trkpt lat="45.454346" lon="5.796445">
        <ele>607.431310</ele>
        <time>2017-06-03T10:31:22.000Z</time>
      </trkpt>
      <trkpt lat="45.454388" lon="5.796267">
        <ele>606.932925</ele>
        <time>2017-06-03T10:31:24.000Z</time>
      </trkpt>
      <trkpt lat="45.454414" lon="5.796102">
        <ele>606.484135</ele>
        <time>2017-06-03T10:31:26.000Z</time>
      </trkpt>
      <trkpt lat="45.454430" lon="5.795921">
        <ele>605.999997</ele>
        <time>2017-06-03T10:31:28.000Z</time>
      </trkpt>
      <trkpt lat="45.454440" lon="5.795734">
        <ele>605.502296</ele>
        <time>2017-06-03T10:31:30.000Z</time>
      </trkpt>
      <trkpt lat="45.454437" lon="5.795537">
        <ele>604.979373</ele>
        <time>2017-06-03T10:31:32.000Z</time>
      </trkpt>
      <trkpt lat="45.454422" lon="5.795340">
        <ele>604.453503</ele>
        <time>2017-06-03T10:31:34.000Z</time>
      </trkpt>
      <trkpt lat="45.454380" lon="5.795157">
        <ele>603.942524</ele>
        <time>2017-06-03T10:31:36.000Z</time>
      </trkpt>
      <trkpt lat="45.454334" lon="5.794976">
        <ele>603.431632</ele>
        <time>2017-06-03T10:31:38.000Z</time>
      </trkpt>
      <trkpt lat="45.454270" lon="5.794827">
        <ele>602.967974</ele>
        <time>2017-06-03T10:31:40.000Z</time>
      </trkpt>
      <trkpt lat="45.454200" lon="5.794645">
        <ele>602.417144</ele>
        <time>2017-06-03T10:31:42.000Z</time>
      </trkpt>
      <trkpt lat="45.454132" lon="5.794463">
        <ele>602.000240</ele>
        <time>2017-06-03T10:31:44.000Z</time>
      </trkpt>
      <trkpt lat="45.454063" lon="5.794276">
        <ele>601.633288</ele>
        <time>2017-06-03T10:31:46.000Z</time>
      </trkpt>
      <trkpt lat="45.453983" lon="5.794118">
        <ele>601.294875</ele>
        <time>2017-06-03T10:31:48.000Z</time>
      </trkpt>
      <trkpt lat="45.453907" lon="5.793956">
        <ele>600.956409</ele>
        <time>2017-06-03T10:31:50.000Z</time>
      </trkpt>
      <trkpt lat="45.453835" lon="5.793778">
        <ele>600.599563</ele>
        <time>2017-06-03T10:31:52.000Z</time>
      </trkpt>
      <trkpt lat="45.453777" lon="5.793576">
        <ele>600.220497</ele>
        <time>2017-06-03T10:31:54.000Z</time>
      </trkpt>
      <trkpt lat="45.453743" lon="5.793362">
        <ele>599.839427</ele>
        <time>2017-06-03T10:31:56.000Z</time>
      </trkpt>
      <trkpt lat="45.453710" lon="5.793194">
        <ele>599.536436</ele>
        <time>2017-06-03T10:31:58.000Z</time>
      </trkpt>
      <trkpt lat="45.453690" lon="5.793056">
        <ele>599.291708</ele>
        <time>2017-06-03T10:32:00.000Z</time>
      </trkpt>
      <trkpt lat="45.453682" lon="5.792878">
        <ele>598.981939</ele>
        <time>2017-06-03T10:32:03.000Z</time>
      </trkpt>
      <trkpt lat="45.453632" lon="5.792558">
        <ele>598.412570</ele>
        <time>2017-06-03T10:32:25.000Z</time>
      </trkpt>
      <trkpt lat="45.453600" lon="5.792399">
        <ele>598.125292</ele>
        <time>2017-06-03T10:32:28.000Z</time>
      </trkpt>
      <trkpt lat="45.453590" lon="5.792245">
        <ele>597.856694</ele>
        <time>2017-06-03T10:32:32.000Z</time>
      </trkpt>
      <trkpt lat="45.453570" lon="5.792086">
        <ele>597.323573</ele>
        <time>2017-06-03T10:32:37.000Z</time>
      </trkpt>
      <trkpt lat="45.453540" lon="5.791946">
        <ele>596.774600</ele>
        <time>2017-06-03T10:32:40.000Z</time>
      </trkpt>
      <trkpt lat="45.453487" lon="5.791829">
        <ele>596.252298</ele>
        <time>2017-06-03T10:32:45.000Z</time>
      </trkpt>
      <trkpt lat="45.453420" lon="5.791705">
        <ele>595.665322</ele>
        <time>2017-06-03T10:32:49.000Z</time>
      </trkpt>
      <trkpt lat="45.453823" lon="5.787931">
        <ele>581.574919</ele>
        <time>2017-06-03T10:33:31.000Z</time>
      </trkpt>
      <trkpt lat="45.453934" lon="5.787922">
        <ele>581.000199</ele>
        <time>2017-06-03T10:33:33.000Z</time>
      </trkpt>
      <trkpt lat="45.454052" lon="5.787895">
        <ele>580.382413</ele>
        <time>2017-06-03T10:33:35.000Z</time>
      </trkpt>
      <trkpt lat="45.454150" lon="5.787860">
        <ele>579.860165</ele>
        <time>2017-06-03T10:33:39.000Z</time>
      </trkpt>
      <trkpt lat="45.454320" lon="5.787927">
        <ele>578.948417</ele>
        <time>2017-06-03T10:34:15.000Z</time>
      </trkpt>
      <trkpt lat="45.454422" lon="5.787932">
        <ele>578.832263</ele>
        <time>2017-06-03T10:34:18.000Z</time>
      </trkpt>
      <trkpt lat="45.454530" lon="5.787913">
        <ele>578.773019</ele>
        <time>2017-06-03T10:34:21.000Z</time>
      </trkpt>
      <trkpt lat="45.454647" lon="5.787854">
        <ele>578.705453</ele>
        <time>2017-06-03T10:34:24.000Z</time>
      </trkpt>
      <trkpt lat="45.454765" lon="5.787793">
        <ele>578.637117</ele>
        <time>2017-06-03T10:34:27.000Z</time>
      </trkpt>
      <trkpt lat="45.454930" lon="5.787685">
        <ele>578.538270</ele>
        <time>2017-06-03T10:34:31.000Z</time>
      </trkpt>
      <trkpt lat="45.455032" lon="5.787607">
        <ele>578.475253</ele>
        <time>2017-06-03T10:34:33.000Z</time>
      </trkpt>
      <trkpt lat="45.455128" lon="5.787526">
        <ele>578.414519</ele>
        <time>2017-06-03T10:34:35.000Z</time>
      </trkpt>
      <trkpt lat="45.455240" lon="5.787464">
        <ele>578.349108</ele>
        <time>2017-06-03T10:34:37.000Z</time>
      </trkpt>
      <trkpt lat="45.455326" lon="5.787388">
        <ele>578.294020</ele>
        <time>2017-06-03T10:34:39.000Z</time>
      </trkpt>
      <trkpt lat="45.455420" lon="5.787306">
        <ele>578.234023</ele>
        <time>2017-06-03T10:34:41.000Z</time>
      </trkpt>
      <trkpt lat="45.455532" lon="5.787220">
        <ele>578.164764</ele>
        <time>2017-06-03T10:34:43.000Z</time>
      </trkpt>
      <trkpt lat="45.455670" lon="5.787121">
        <ele>578.080657</ele>
        <time>2017-06-03T10:34:45.000Z</time>
      </trkpt>
      <trkpt lat="45.455807" lon="5.787036">
        <ele>577.999312</ele>
        <time>2017-06-03T10:34:47.000Z</time>
      </trkpt>
      <trkpt lat="45.455925" lon="5.786958">
        <ele>577.928500</ele>
        <time>2017-06-03T10:34:49.000Z</time>
      </trkpt>
      <trkpt lat="45.456060" lon="5.786880">
        <ele>577.083384</ele>
        <time>2017-06-03T10:34:51.000Z</time>
      </trkpt>
      <trkpt lat="45.456184" lon="5.786787">
        <ele>575.889433</ele>
        <time>2017-06-03T10:34:53.000Z</time>
      </trkpt>
      <trkpt lat="45.456340" lon="5.786752">
        <ele>574.543741</ele>
        <time>2017-06-03T10:34:55.000Z</time>
      </trkpt>
      <trkpt lat="45.456490" lon="5.786709">
        <ele>573.239954</ele>
        <time>2017-06-03T10:34:57.000Z</time>
      </trkpt>
      <trkpt lat="45.456627" lon="5.786628">
        <ele>571.976113</ele>
        <time>2017-06-03T10:34:59.000Z</time>
      </trkpt>
      <trkpt lat="45.456740" lon="5.786498">
        <ele>570.738777</ele>
        <time>2017-06-03T10:35:01.000Z</time>
      </trkpt>
      <trkpt lat="45.456833" lon="5.786353">
        <ele>569.564379</ele>
        <time>2017-06-03T10:35:03.000Z</time>
      </trkpt>
      <trkpt lat="45.456900" lon="5.786195">
        <ele>568.460809</ele>
        <time>2017-06-03T10:35:05.000Z</time>
      </trkpt>
      <trkpt lat="45.456944" lon="5.786015">
        <ele>567.321443</ele>
        <time>2017-06-03T10:35:07.000Z</time>
      </trkpt>
      <trkpt lat="45.456963" lon="5.785833">
        <ele>566.221601</ele>
        <time>2017-06-03T10:35:09.000Z</time>
      </trkpt>
      <trkpt lat="45.456947" lon="5.785644">
        <ele>565.083702</ele>
        <time>2017-06-03T10:35:11.000Z</time>
      </trkpt>
      <trkpt lat="45.456900" lon="5.785467">
        <ele>563.952458</ele>
        <time>2017-06-03T10:35:13.000Z</time>
      </trkpt>
      <trkpt lat="45.456860" lon="5.785314">
        <ele>562.976481</ele>
        <time>2017-06-03T10:35:15.000Z</time>
      </trkpt>
      <trkpt lat="45.456825" lon="5.785193">
        <ele>562.111216</ele>
        <time>2017-06-03T10:35:17.000Z</time>
      </trkpt>
      <trkpt lat="45.456776" lon="5.785068">
        <ele>561.068718</ele>
        <time>2017-06-03T10:35:21.000Z</time>
      </trkpt>
      <trkpt lat="45.456684" lon="5.785036">
        <ele>560.085848</ele>
        <time>2017-06-03T10:35:48.000Z</time>
      </trkpt>
      <trkpt lat="45.456670" lon="5.784874">
        <ele>558.897525</ele>
        <time>2017-06-03T10:37:10.000Z</time>
      </trkpt>
      <trkpt lat="45.456623" lon="5.784717">
        <ele>557.654779</ele>
        <time>2017-06-03T10:37:14.000Z</time>
      </trkpt>
      <trkpt lat="45.456566" lon="5.784566">
        <ele>556.406379</ele>
        <time>2017-06-03T10:37:17.000Z</time>
      </trkpt>
      <trkpt lat="45.456520" lon="5.784441">
        <ele>555.378708</ele>
        <time>2017-06-03T10:37:19.000Z</time>
      </trkpt>
      <trkpt lat="45.456470" lon="5.784304">
        <ele>554.254379</ele>
        <time>2017-06-03T10:37:21.000Z</time>
      </trkpt>
      <trkpt lat="45.456430" lon="5.784148">
        <ele>553.045150</ele>
        <time>2017-06-03T10:37:23.000Z</time>
      </trkpt>
      <trkpt lat="45.456383" lon="5.783973">
        <ele>551.680901</ele>
        <time>2017-06-03T10:37:25.000Z</time>
      </trkpt>
      <trkpt lat="45.456345" lon="5.783793">
        <ele>550.312380</ele>
        <time>2017-06-03T10:37:27.000Z</time>
      </trkpt>
      <trkpt lat="45.456300" lon="5.783608">
        <ele>548.886838</ele>
        <time>2017-06-03T10:37:29.000Z</time>
      </trkpt>
      <trkpt lat="45.456257" lon="5.783414">
        <ele>547.405620</ele>
        <time>2017-06-03T10:37:31.000Z</time>
      </trkpt>
      <trkpt lat="45.456215" lon="5.783219">
        <ele>545.920536</ele>
        <time>2017-06-03T10:37:33.000Z</time>
      </trkpt>
      <trkpt lat="45.456177" lon="5.783019">
        <ele>544.411998</ele>
        <time>2017-06-03T10:37:35.000Z</time>
      </trkpt>
      <trkpt lat="45.456130" lon="5.782825">
        <ele>543.384170</ele>
        <time>2017-06-03T10:37:37.000Z</time>
      </trkpt>
      <trkpt lat="45.456085" lon="5.782640">
        <ele>542.631019</ele>
        <time>2017-06-03T10:37:39.000Z</time>
      </trkpt>
      <trkpt lat="45.456047" lon="5.782457">
        <ele>541.896935</ele>
        <time>2017-06-03T10:37:41.000Z</time>
      </trkpt>
      <trkpt lat="45.456000" lon="5.782287">
        <ele>541.194092</ele>
        <time>2017-06-03T10:37:43.000Z</time>
      </trkpt>
      <trkpt lat="45.455963" lon="5.782121">
        <ele>540.524131</ele>
        <time>2017-06-03T10:37:45.000Z</time>
      </trkpt>
      <trkpt lat="45.455925" lon="5.781960">
        <ele>539.870745</ele>
        <time>2017-06-03T10:37:47.000Z</time>
      </trkpt>
      <trkpt lat="45.455887" lon="5.781806">
        <ele>539.242818</ele>
        <time>2017-06-03T10:37:49.000Z</time>
      </trkpt>
      <trkpt lat="45.455856" lon="5.781668">
        <ele>538.685460</ele>
        <time>2017-06-03T10:37:51.000Z</time>
      </trkpt>
      <trkpt lat="45.455830" lon="5.781545">
        <ele>538.191337</ele>
        <time>2017-06-03T10:37:53.000Z</time>
      </trkpt>
      <trkpt lat="45.455795" lon="5.781402">
        <ele>537.608779</ele>
        <time>2017-06-03T10:37:56.000Z</time>
      </trkpt>
      <trkpt lat="45.455734" lon="5.781288">
        <ele>537.057274</ele>
        <time>2017-06-03T10:37:59.000Z</time>
      </trkpt>
      <trkpt lat="45.455685" lon="5.781176">
        <ele>536.549553</ele>
        <time>2017-06-03T10:38:02.000Z</time>
      </trkpt>
      <trkpt lat="45.455643" lon="5.781037">
        <ele>535.967408</ele>
        <time>2017-06-03T10:38:06.000Z</time>
      </trkpt>
      <trkpt lat="45.455666" lon="5.780907">
        <ele>535.451714</ele>
        <time>2017-06-03T10:38:12.000Z</time>
      </trkpt>
      <trkpt lat="45.455658" lon="5.780762">
        <ele>534.892261</ele>
        <time>2017-06-03T10:38:18.000Z</time>
      </trkpt>
      <trkpt lat="45.455624" lon="5.780619">
        <ele>534.311485</ele>
        <time>2017-06-03T10:38:23.000Z</time>
      </trkpt>
      <trkpt lat="45.455610" lon="5.780469">
        <ele>533.818372</ele>
        <time>2017-06-03T10:38:28.000Z</time>
      </trkpt>
      <trkpt lat="45.455578" lon="5.780332">
        <ele>533.420062</ele>
        <time>2017-06-03T10:38:33.000Z</time>
      </trkpt>
      <trkpt lat="45.455498" lon="5.780247">
        <ele>533.027701</ele>
        <time>2017-06-03T10:38:38.000Z</time>
      </trkpt>
      <trkpt lat="45.455475" lon="5.780387">
        <ele>532.631065</ele>
        <time>2017-06-03T10:38:42.000Z</time>
      </trkpt>
      <trkpt lat="45.455513" lon="5.780526">
        <ele>532.219547</ele>
        <time>2017-06-03T10:38:45.000Z</time>
      </trkpt>
      <trkpt lat="45.455544" lon="5.780668">
        <ele>531.809313</ele>
        <time>2017-06-03T10:38:48.000Z</time>
      </trkpt>
      <trkpt lat="45.455578" lon="5.780808">
        <ele>531.400637</ele>
        <time>2017-06-03T10:38:51.000Z</time>
      </trkpt>
      <trkpt lat="45.455600" lon="5.780942">
        <ele>531.021013</ele>
        <time>2017-06-03T10:38:54.000Z</time>
      </trkpt>
      <trkpt lat="45.455597" lon="5.781076">
        <ele>530.651190</ele>
        <time>2017-06-03T10:38:58.000Z</time>
      </trkpt>
      <trkpt lat="45.455550" lon="5.781186">
        <ele>530.295900</ele>
        <time>2017-06-03T10:39:04.000Z</time>
      </trkpt>
      <trkpt lat="45.455452" lon="5.781203">
        <ele>529.907677</ele>
        <time>2017-06-03T10:39:07.000Z</time>
      </trkpt>
      <trkpt lat="45.455330" lon="5.781262">
        <ele>529.401064</ele>
        <time>2017-06-03T10:39:10.000Z</time>
      </trkpt>
      <trkpt lat="45.455215" lon="5.781284">
        <ele>528.944778</ele>
        <time>2017-06-03T10:39:13.000Z</time>
      </trkpt>
      <trkpt lat="45.455128" lon="5.781219">
        <ele>528.558517</ele>
        <time>2017-06-03T10:39:19.000Z</time>
      </trkpt>
      <trkpt lat="45.455190" lon="5.781333">
        <ele>528.160605</ele>
        <time>2017-06-03T10:39:32.000Z</time>
      </trkpt>
      <trkpt lat="45.455208" lon="5.781469">
        <ele>527.778831</ele>
        <time>2017-06-03T10:39:36.000Z</time>
      </trkpt>
      <trkpt lat="45.455180" lon="5.781601">
        <ele>527.398427</ele>
        <time>2017-06-03T10:39:39.000Z</time>
      </trkpt>
      <trkpt lat="45.455177" lon="5.781762">
        <ele>526.945374</ele>
        <time>2017-06-03T10:39:42.000Z</time>
      </trkpt>
      <trkpt lat="45.455190" lon="5.781931">
        <ele>526.228772</ele>
        <time>2017-06-03T10:39:45.000Z</time>
      </trkpt>
      <trkpt lat="45.455204" lon="5.782119">
        <ele>525.431903</ele>
        <time>2017-06-03T10:39:48.000Z</time>
      </trkpt>
      <trkpt lat="45.455220" lon="5.782256">
        <ele>524.846502</ele>
        <time>2017-06-03T10:39:50.000Z</time>
      </trkpt>
      <trkpt lat="45.455240" lon="5.782413">
        <ele>524.173927</ele>
        <time>2017-06-03T10:39:52.000Z</time>
      </trkpt>
      <trkpt lat="45.455273" lon="5.782564">
        <ele>523.507292</ele>
        <time>2017-06-03T10:39:54.000Z</time>
      </trkpt>
      <trkpt lat="45.455307" lon="5.782700">
        <ele>522.898737</ele>
        <time>2017-06-03T10:39:56.000Z</time>
      </trkpt>
      <trkpt lat="45.455322" lon="5.782828">
        <ele>522.351744</ele>
        <time>2017-06-03T10:39:58.000Z</time>
      </trkpt>
      <trkpt lat="45.455353" lon="5.782991">
        <ele>521.639900</ele>
        <time>2017-06-03T10:40:01.000Z</time>
      </trkpt>
      <trkpt lat="45.455383" lon="5.783116">
        <ele>521.083044</ele>
        <time>2017-06-03T10:40:04.000Z</time>
      </trkpt>
      <trkpt lat="45.455350" lon="5.783248">
        <ele>520.492389</ele>
        <time>2017-06-03T10:40:09.000Z</time>
      </trkpt>
      <trkpt lat="45.455220" lon="5.783288">
        <ele>519.693256</ele>
        <time>2017-06-03T10:40:59.000Z</time>
      </trkpt>
      <trkpt lat="45.455128" lon="5.783280">
        <ele>519.139418</ele>
        <time>2017-06-03T10:41:03.000Z</time>
      </trkpt>
      <trkpt lat="45.455030" lon="5.783294">
        <ele>518.547606</ele>
        <time>2017-06-03T10:41:07.000Z</time>
      </trkpt>
      <trkpt lat="45.454930" lon="5.783328">
        <ele>517.929871</ele>
        <time>2017-06-03T10:41:11.000Z</time>
      </trkpt>
      <trkpt lat="45.454834" lon="5.783352">
        <ele>517.344223</ele>
        <time>2017-06-03T10:41:15.000Z</time>
      </trkpt>
      <trkpt lat="45.454720" lon="5.783399">
        <ele>516.631147</ele>
        <time>2017-06-03T10:41:19.000Z</time>
      </trkpt>
      <trkpt lat="45.454594" lon="5.783442">
        <ele>515.760412</ele>
        <time>2017-06-03T10:41:22.000Z</time>
      </trkpt>
      <trkpt lat="45.454464" lon="5.783487">
        <ele>514.717736</ele>
        <time>2017-06-03T10:41:25.000Z</time>
      </trkpt>
      <trkpt lat="45.454370" lon="5.783521">
        <ele>513.961876</ele>
        <time>2017-06-03T10:41:27.000Z</time>
      </trkpt>
      <trkpt lat="45.454266" lon="5.783563">
        <ele>513.119392</ele>
        <time>2017-06-03T10:41:29.000Z</time>
      </trkpt>
      <trkpt lat="45.454170" lon="5.783601">
        <ele>512.342850</ele>
        <time>2017-06-03T10:41:31.000Z</time>
      </trkpt>
      <trkpt lat="45.454067" lon="5.783633">
        <ele>511.521214</ele>
        <time>2017-06-03T10:41:33.000Z</time>
      </trkpt>
      <trkpt lat="45.453960" lon="5.783664">
        <ele>510.670197</ele>
        <time>2017-06-03T10:41:35.000Z</time>
      </trkpt>
      <trkpt lat="45.453842" lon="5.783696">
        <ele>509.734000</ele>
        <time>2017-06-03T10:41:37.000Z</time>
      </trkpt>
      <trkpt lat="45.453710" lon="5.783727">
        <ele>508.691312</ele>
        <time>2017-06-03T10:41:39.000Z</time>
      </trkpt>
      <trkpt lat="45.453564" lon="5.783759">
        <ele>507.540002</ele>
        <time>2017-06-03T10:41:41.000Z</time>
      </trkpt>
      <trkpt lat="45.453410" lon="5.783819">
        <ele>506.295689</ele>
        <time>2017-06-03T10:41:43.000Z</time>
      </trkpt>
      <trkpt lat="45.453260" lon="5.783866">
        <ele>505.098667</ele>
        <time>2017-06-03T10:41:45.000Z</time>
      </trkpt>
      <trkpt lat="45.453102" lon="5.783886">
        <ele>503.862354</ele>
        <time>2017-06-03T10:41:47.000Z</time>
      </trkpt>
      <trkpt lat="45.452938" lon="5.783887">
        <ele>502.584110</ele>
        <time>2017-06-03T10:41:49.000Z</time>
      </trkpt>
      <trkpt lat="45.452766" lon="5.783876">
        <ele>501.433311</ele>
        <time>2017-06-03T10:41:51.000Z</time>
      </trkpt>
      <trkpt lat="45.452602" lon="5.783867">
        <ele>500.425160</ele>
        <time>2017-06-03T10:41:53.000Z</time>
      </trkpt>
      <trkpt lat="45.452427" lon="5.783877">
        <ele>499.349322</ele>
        <time>2017-06-03T10:41:55.000Z</time>
      </trkpt>
      <trkpt lat="45.452260" lon="5.783906">
        <ele>498.315906</ele>
        <time>2017-06-03T10:41:57.000Z</time>
      </trkpt>
      <trkpt lat="45.452095" lon="5.783956">
        <ele>497.279711</ele>
        <time>2017-06-03T10:41:59.000Z</time>
      </trkpt>
      <trkpt lat="45.451940" lon="5.784003">
        <ele>496.306288</ele>
        <time>2017-06-03T10:42:01.000Z</time>
      </trkpt>
      <trkpt lat="45.451794" lon="5.784077">
        <ele>495.354449</ele>
        <time>2017-06-03T10:42:03.000Z</time>
      </trkpt>
      <trkpt lat="45.451668" lon="5.784173">
        <ele>494.476850</ele>
        <time>2017-06-03T10:42:05.000Z</time>
      </trkpt>
      <trkpt lat="45.451540" lon="5.784263">
        <ele>493.600138</ele>
        <time>2017-06-03T10:42:07.000Z</time>
      </trkpt>
      <trkpt lat="45.451412" lon="5.784355">
        <ele>492.719578</ele>
        <time>2017-06-03T10:42:09.000Z</time>
      </trkpt>
      <trkpt lat="45.451290" lon="5.784460">
        <ele>491.844168</ele>
        <time>2017-06-03T10:42:11.000Z</time>
      </trkpt>
      <trkpt lat="45.451168" lon="5.784572">
        <ele>490.968524</ele>
        <time>2017-06-03T10:42:13.000Z</time>
      </trkpt>
      <trkpt lat="45.451046" lon="5.784698">
        <ele>490.144941</ele>
        <time>2017-06-03T10:42:15.000Z</time>
      </trkpt>
      <trkpt lat="45.450943" lon="5.784837">
        <ele>489.369571</ele>
        <time>2017-06-03T10:42:17.000Z</time>
      </trkpt>
      <trkpt lat="45.450840" lon="5.784987">
        <ele>488.564615</ele>
        <time>2017-06-03T10:42:19.000Z</time>
      </trkpt>
      <trkpt lat="45.450750" lon="5.785134">
        <ele>487.816370</ele>
        <time>2017-06-03T10:42:21.000Z</time>
      </trkpt>
      <trkpt lat="45.450657" lon="5.785267">
        <ele>487.096213</ele>
        <time>2017-06-03T10:42:23.000Z</time>
      </trkpt>
      <trkpt lat="45.450565" lon="5.785382">
        <ele>486.427300</ele>
        <time>2017-06-03T10:42:25.000Z</time>
      </trkpt>
      <trkpt lat="45.450460" lon="5.785448">
        <ele>485.799971</ele>
        <time>2017-06-03T10:42:27.000Z</time>
      </trkpt>
      <trkpt lat="45.450350" lon="5.785454">
        <ele>485.198197</ele>
        <time>2017-06-03T10:42:29.000Z</time>
      </trkpt>
      <trkpt lat="45.450253" lon="5.785391">
        <ele>484.615482</ele>
        <time>2017-06-03T10:42:31.000Z</time>
      </trkpt>
      <trkpt lat="45.450153" lon="5.785288">
        <ele>483.941037</ele>
        <time>2017-06-03T10:42:33.000Z</time>
      </trkpt>
      <trkpt lat="45.450054" lon="5.785194">
        <ele>483.290765</ele>
        <time>2017-06-03T10:42:35.000Z</time>
      </trkpt>
      <trkpt lat="45.449963" lon="5.785099">
        <ele>482.674155</ele>
        <time>2017-06-03T10:42:37.000Z</time>
      </trkpt>
      <trkpt lat="45.449852" lon="5.785029">
        <ele>482.010623</ele>
        <time>2017-06-03T10:42:39.000Z</time>
      </trkpt>
      <trkpt lat="45.449740" lon="5.784984">
        <ele>481.374499</ele>
        <time>2017-06-03T10:42:41.000Z</time>
      </trkpt>
      <trkpt lat="45.449627" lon="5.784934">
        <ele>480.954056</ele>
        <time>2017-06-03T10:42:43.000Z</time>
      </trkpt>
      <trkpt lat="45.449512" lon="5.784893">
        <ele>480.579985</ele>
        <time>2017-06-03T10:42:45.000Z</time>
      </trkpt>
      <trkpt lat="45.449390" lon="5.784835">
        <ele>480.174157</ele>
        <time>2017-06-03T10:42:47.000Z</time>
      </trkpt>
      <trkpt lat="45.449272" lon="5.784774">
        <ele>479.778068</ele>
        <time>2017-06-03T10:42:49.000Z</time>
      </trkpt>
      <trkpt lat="45.449158" lon="5.784763">
        <ele>479.417508</ele>
        <time>2017-06-03T10:42:51.000Z</time>
      </trkpt>
      <trkpt lat="45.449036" lon="5.784728">
        <ele>479.024807</ele>
        <time>2017-06-03T10:42:53.000Z</time>
      </trkpt>
      <trkpt lat="45.448950" lon="5.784654">
        <ele>478.707815</ele>
        <time>2017-06-03T10:42:55.000Z</time>
      </trkpt>
      <trkpt lat="45.448870" lon="5.784524">
        <ele>478.324992</ele>
        <time>2017-06-03T10:42:58.000Z</time>
      </trkpt>
      <trkpt lat="45.448826" lon="5.784378">
        <ele>477.973219</ele>
        <time>2017-06-03T10:43:00.000Z</time>
      </trkpt>
      <trkpt lat="45.448776" lon="5.784238">
        <ele>477.625439</ele>
        <time>2017-06-03T10:43:02.000Z</time>
      </trkpt>
      <trkpt lat="45.448720" lon="5.784128">
        <ele>477.324560</ele>
        <time>2017-06-03T10:43:04.000Z</time>
      </trkpt>
      <trkpt lat="45.448630" lon="5.784038">
        <ele>476.977639</ele>
        <time>2017-06-03T10:43:07.000Z</time>
      </trkpt>
      <trkpt lat="45.448586" lon="5.783919">
        <ele>476.679848</ele>
        <time>2017-06-03T10:43:16.000Z</time>
      </trkpt>
      <trkpt lat="45.448563" lon="5.783793">
        <ele>476.391622</ele>
        <time>2017-06-03T10:43:23.000Z</time>
      </trkpt>
      <trkpt lat="45.448517" lon="5.783670">
        <ele>476.083050</ele>
        <time>2017-06-03T10:43:29.000Z</time>
      </trkpt>
      <trkpt lat="45.448460" lon="5.783553">
        <ele>475.767708</ele>
        <time>2017-06-03T10:43:35.000Z</time>
      </trkpt>
      <trkpt lat="45.448425" lon="5.783421">
        <ele>475.512443</ele>
        <time>2017-06-03T10:43:41.000Z</time>
      </trkpt>
      <trkpt lat="45.448460" lon="5.783543">
        <ele>475.346883</ele>
        <time>2017-06-03T10:43:51.000Z</time>
      </trkpt>
      <trkpt lat="45.448440" lon="5.783406">
        <ele>475.171114</ele>
        <time>2017-06-03T10:44:00.000Z</time>
      </trkpt>
      <trkpt lat="45.448500" lon="5.783289">
        <ele>474.989076</ele>
        <time>2017-06-03T10:44:04.000Z</time>
      </trkpt>
      <trkpt lat="45.448590" lon="5.783392">
        <ele>474.782427</ele>
        <time>2017-06-03T10:44:08.000Z</time>
      </trkpt>
      <trkpt lat="45.448670" lon="5.783495">
        <ele>474.589413</ele>
        <time>2017-06-03T10:44:12.000Z</time>
      </trkpt>
      <trkpt lat="45.448578" lon="5.783391">
        <ele>474.379182</ele>
        <time>2017-06-03T10:52:16.000Z</time>
      </trkpt>
      <trkpt lat="45.448490" lon="5.783292">
        <ele>474.178463</ele>
        <time>2017-06-03T10:52:20.000Z</time>
      </trkpt>
      <trkpt lat="45.448406" lon="5.783369">
        <ele>473.999652</ele>
        <time>2017-06-03T10:52:24.000Z</time>
      </trkpt>
      <trkpt lat="45.448330" lon="5.783511">
        <ele>473.775310</ele>
        <time>2017-06-03T10:52:28.000Z</time>
      </trkpt>
      <trkpt lat="45.448257" lon="5.783620">
        <ele>473.586027</ele>
        <time>2017-06-03T10:52:31.000Z</time>
      </trkpt>
      <trkpt lat="45.448174" lon="5.783721">
        <ele>473.390634</ele>
        <time>2017-06-03T10:52:34.000Z</time>
      </trkpt>
      <trkpt lat="45.448086" lon="5.783797">
        <ele>473.206412</ele>
        <time>2017-06-03T10:52:37.000Z</time>
      </trkpt>
      <trkpt lat="45.447990" lon="5.783850">
        <ele>473.022089</ele>
        <time>2017-06-03T10:52:40.000Z</time>
      </trkpt>
      <trkpt lat="45.447887" lon="5.783861">
        <ele>472.837157</ele>
        <time>2017-06-03T10:52:43.000Z</time>
      </trkpt>
      <trkpt lat="45.447760" lon="5.783847">
        <ele>472.609093</ele>
        <time>2017-06-03T10:52:46.000Z</time>
      </trkpt>
      <trkpt lat="45.447670" lon="5.783839">
        <ele>472.447641</ele>
        <time>2017-06-03T10:52:48.000Z</time>
      </trkpt>
      <trkpt lat="45.447567" lon="5.783777">
        <ele>472.222187</ele>
        <time>2017-06-03T10:52:51.000Z</time>
      </trkpt>
      <trkpt lat="45.447475" lon="5.783715">
        <ele>472.001478</ele>
        <time>2017-06-03T10:52:54.000Z</time>
      </trkpt>
      <trkpt lat="45.447360" lon="5.783652">
        <ele>471.734276</ele>
        <time>2017-06-03T10:52:57.000Z</time>
      </trkpt>
      <trkpt lat="45.447247" lon="5.783582">
        <ele>471.467054</ele>
        <time>2017-06-03T10:53:00.000Z</time>
      </trkpt>
      <trkpt lat="45.447130" lon="5.783531">
        <ele>471.201700</ele>
        <time>2017-06-03T10:53:03.000Z</time>
      </trkpt>
      <trkpt lat="45.447025" lon="5.783495">
        <ele>470.967478</ele>
        <time>2017-06-03T10:53:06.000Z</time>
      </trkpt>
      <trkpt lat="45.446930" lon="5.783450">
        <ele>470.750360</ele>
        <time>2017-06-03T10:53:09.000Z</time>
      </trkpt>
      <trkpt lat="45.446827" lon="5.783400">
        <ele>470.514370</ele>
        <time>2017-06-03T10:53:13.000Z</time>
      </trkpt>
      <trkpt lat="45.446730" lon="5.783383">
        <ele>470.302410</ele>
        <time>2017-06-03T10:53:17.000Z</time>
      </trkpt>
      <trkpt lat="45.446613" lon="5.783339">
        <ele>470.039973</ele>
        <time>2017-06-03T10:53:21.000Z</time>
      </trkpt>
      <trkpt lat="45.446514" lon="5.783316">
        <ele>469.822426</ele>
        <time>2017-06-03T10:53:24.000Z</time>
      </trkpt>
      <trkpt lat="45.446415" lon="5.783289">
        <ele>469.603816</ele>
        <time>2017-06-03T10:53:27.000Z</time>
      </trkpt>
      <trkpt lat="45.446312" lon="5.783250">
        <ele>469.372679</ele>
        <time>2017-06-03T10:53:31.000Z</time>
      </trkpt>
      <trkpt lat="45.446217" lon="5.783204">
        <ele>469.155076</ele>
        <time>2017-06-03T10:53:35.000Z</time>
      </trkpt>
      <trkpt lat="45.446130" lon="5.783168">
        <ele>468.958597</ele>
        <time>2017-06-03T10:53:39.000Z</time>
      </trkpt>
      <trkpt lat="45.446026" lon="5.783122">
        <ele>468.722429</ele>
        <time>2017-06-03T10:53:44.000Z</time>
      </trkpt>
      <trkpt lat="45.445934" lon="5.783086">
        <ele>468.515514</ele>
        <time>2017-06-03T10:53:48.000Z</time>
      </trkpt>
      <trkpt lat="45.445816" lon="5.783048">
        <ele>468.471317</ele>
        <time>2017-06-03T10:53:52.000Z</time>
      </trkpt>
      <trkpt lat="45.445724" lon="5.783028">
        <ele>468.476289</ele>
        <time>2017-06-03T10:53:55.000Z</time>
      </trkpt>
      <trkpt lat="45.445620" lon="5.783016">
        <ele>468.481863</ele>
        <time>2017-06-03T10:53:58.000Z</time>
      </trkpt>
      <trkpt lat="45.445522" lon="5.783011">
        <ele>468.487101</ele>
        <time>2017-06-03T10:54:01.000Z</time>
      </trkpt>
      <trkpt lat="45.445430" lon="5.782992">
        <ele>468.492068</ele>
        <time>2017-06-03T10:54:04.000Z</time>
      </trkpt>
      <trkpt lat="45.445340" lon="5.782954">
        <ele>468.497082</ele>
        <time>2017-06-03T10:54:07.000Z</time>
      </trkpt>
      <trkpt lat="45.445236" lon="5.782915">
        <ele>468.502827</ele>
        <time>2017-06-03T10:54:11.000Z</time>
      </trkpt>
      <trkpt lat="45.445137" lon="5.782850">
        <ele>468.508650</ele>
        <time>2017-06-03T10:54:18.000Z</time>
      </trkpt>
      <trkpt lat="45.445045" lon="5.782787">
        <ele>468.514102</ele>
        <time>2017-06-03T10:54:23.000Z</time>
      </trkpt>
      <trkpt lat="45.444935" lon="5.782714">
        <ele>468.520584</ele>
        <time>2017-06-03T10:54:27.000Z</time>
      </trkpt>
      <trkpt lat="45.444828" lon="5.782672">
        <ele>468.526513</ele>
        <time>2017-06-03T10:54:30.000Z</time>
      </trkpt>
      <trkpt lat="45.444733" lon="5.782618">
        <ele>468.531977</ele>
        <time>2017-06-03T10:54:33.000Z</time>
      </trkpt>
      <trkpt lat="45.444626" lon="5.782558">
        <ele>468.538120</ele>
        <time>2017-06-03T10:54:37.000Z</time>
      </trkpt>
      <trkpt lat="45.444527" lon="5.782518">
        <ele>468.543617</ele>
        <time>2017-06-03T10:54:42.000Z</time>
      </trkpt>
      <trkpt lat="45.444435" lon="5.782517">
        <ele>468.548532</ele>
        <time>2017-06-03T10:54:47.000Z</time>
      </trkpt>
      <trkpt lat="45.444324" lon="5.782507">
        <ele>468.554473</ele>
        <time>2017-06-03T10:54:52.000Z</time>
      </trkpt>
      <trkpt lat="45.444218" lon="5.782538">
        <ele>468.560254</ele>
        <time>2017-06-03T10:54:56.000Z</time>
      </trkpt>
      <trkpt lat="45.444110" lon="5.782564">
        <ele>468.602928</ele>
        <time>2017-06-03T10:55:00.000Z</time>
      </trkpt>
      <trkpt lat="45.444004" lon="5.782551">
        <ele>468.661642</ele>
        <time>2017-06-03T10:55:04.000Z</time>
      </trkpt>
      <trkpt lat="45.443897" lon="5.782499">
        <ele>468.724029</ele>
        <time>2017-06-03T10:55:08.000Z</time>
      </trkpt>
      <trkpt lat="45.443810" lon="5.782445">
        <ele>468.776396</ele>
        <time>2017-06-03T10:55:11.000Z</time>
      </trkpt>
      <trkpt lat="45.443714" lon="5.782411">
        <ele>468.830986</ele>
        <time>2017-06-03T10:55:14.000Z</time>
      </trkpt>
      <trkpt lat="45.443620" lon="5.782395">
        <ele>468.883229</ele>
        <time>2017-06-03T10:55:17.000Z</time>
      </trkpt>
      <trkpt lat="45.443504" lon="5.782395">
        <ele>468.947245</ele>
        <time>2017-06-03T10:55:21.000Z</time>
      </trkpt>
      <trkpt lat="45.443400" lon="5.782372">
        <ele>469.005326</ele>
        <time>2017-06-03T10:55:26.000Z</time>
      </trkpt>
      <trkpt lat="45.443306" lon="5.782355">
        <ele>469.057617</ele>
        <time>2017-06-03T10:55:30.000Z</time>
      </trkpt>
      <trkpt lat="45.443203" lon="5.782348">
        <ele>469.114523</ele>
        <time>2017-06-03T10:55:34.000Z</time>
      </trkpt>
      <trkpt lat="45.443110" lon="5.782361">
        <ele>469.166092</ele>
        <time>2017-06-03T10:55:37.000Z</time>
      </trkpt>
      <trkpt lat="45.442993" lon="5.782394">
        <ele>469.231912</ele>
        <time>2017-06-03T10:55:42.000Z</time>
      </trkpt>
      <trkpt lat="45.442910" lon="5.782473">
        <ele>469.286991</ele>
        <time>2017-06-03T10:55:44.000Z</time>
      </trkpt>
      <trkpt lat="45.442814" lon="5.782583">
        <ele>469.354968</ele>
        <time>2017-06-03T10:55:47.000Z</time>
      </trkpt>
      <trkpt lat="45.442745" lon="5.782677">
        <ele>469.407643</ele>
        <time>2017-06-03T10:55:49.000Z</time>
      </trkpt>
      <trkpt lat="45.442657" lon="5.782756">
        <ele>469.465037</ele>
        <time>2017-06-03T10:55:52.000Z</time>
      </trkpt>
      <trkpt lat="45.442566" lon="5.782753">
        <ele>469.515270</ele>
        <time>2017-06-03T10:55:57.000Z</time>
      </trkpt>
      <trkpt lat="45.442455" lon="5.782747">
        <ele>469.528470</ele>
        <time>2017-06-03T10:56:01.000Z</time>
      </trkpt>
      <trkpt lat="45.442368" lon="5.782720">
        <ele>469.469241</ele>
        <time>2017-06-03T10:56:05.000Z</time>
      </trkpt>
      <trkpt lat="45.442455" lon="5.782763">
        <ele>469.407987</ele>
        <time>2017-06-03T10:57:05.000Z</time>
      </trkpt>
      <trkpt lat="45.442326" lon="5.782875">
        <ele>469.307508</ele>
        <time>2017-06-03T10:57:41.000Z</time>
      </trkpt>
      <trkpt lat="45.442196" lon="5.782824">
        <ele>469.217815</ele>
        <time>2017-06-03T10:58:27.000Z</time>
      </trkpt>
      <trkpt lat="45.442303" lon="5.782702">
        <ele>469.126665</ele>
        <time>2017-06-03T11:03:18.000Z</time>
      </trkpt>
      <trkpt lat="45.442400" lon="5.782708">
        <ele>469.062079</ele>
        <time>2017-06-03T11:03:29.000Z</time>
      </trkpt>
      <trkpt lat="45.442307" lon="5.782694">
        <ele>468.999871</ele>
        <time>2017-06-03T11:04:08.000Z</time>
      </trkpt>
      <trkpt lat="45.442215" lon="5.782656">
        <ele>468.936154</ele>
        <time>2017-06-03T11:04:19.000Z</time>
      </trkpt>
      <trkpt lat="45.442047" lon="5.782491">
        <ele>468.800435</ele>
        <time>2017-06-03T11:04:54.000Z</time>
      </trkpt>
      <trkpt lat="45.441980" lon="5.782397">
        <ele>468.737896</ele>
        <time>2017-06-03T11:04:58.000Z</time>
      </trkpt>
      <trkpt lat="45.441895" lon="5.782297">
        <ele>468.664579</ele>
        <time>2017-06-03T11:05:02.000Z</time>
      </trkpt>
      <trkpt lat="45.441803" lon="5.782205">
        <ele>468.589819</ele>
        <time>2017-06-03T11:05:07.000Z</time>
      </trkpt>
      <trkpt lat="45.441730" lon="5.782115">
        <ele>468.525612</ele>
        <time>2017-06-03T11:05:11.000Z</time>
      </trkpt>
      <trkpt lat="45.441654" lon="5.782008">
        <ele>468.454549</ele>
        <time>2017-06-03T11:05:15.000Z</time>
      </trkpt>
      <trkpt lat="45.441586" lon="5.781914">
        <ele>468.391534</ele>
        <time>2017-06-03T11:05:20.000Z</time>
      </trkpt>
      <trkpt lat="45.441560" lon="5.781786">
        <ele>468.272254</ele>
        <time>2017-06-03T11:05:34.000Z</time>
      </trkpt>
      <trkpt lat="45.441578" lon="5.781658">
        <ele>468.091199</ele>
        <time>2017-06-03T11:06:02.000Z</time>
      </trkpt>
      <trkpt lat="45.441505" lon="5.781547">
        <ele>467.880198</ele>
        <time>2017-06-03T11:24:12.000Z</time>
      </trkpt>
      <trkpt lat="45.441470" lon="5.781417">
        <ele>467.687081</ele>
        <time>2017-06-03T11:24:16.000Z</time>
      </trkpt>
      <trkpt lat="45.441420" lon="5.781258">
        <ele>467.445427</ele>
        <time>2017-06-03T11:24:20.000Z</time>
      </trkpt>
      <trkpt lat="45.441387" lon="5.781135">
        <ele>467.262790</ele>
        <time>2017-06-03T11:24:23.000Z</time>
      </trkpt>
      <trkpt lat="45.441353" lon="5.781001">
        <ele>467.065165</ele>
        <time>2017-06-03T11:24:26.000Z</time>
      </trkpt>
      <trkpt lat="45.441326" lon="5.780863">
        <ele>466.866469</ele>
        <time>2017-06-03T11:24:29.000Z</time>
      </trkpt>
      <trkpt lat="45.441296" lon="5.780697">
        <ele>466.628727</ele>
        <time>2017-06-03T11:24:32.000Z</time>
      </trkpt>
      <trkpt lat="45.441257" lon="5.780535">
        <ele>466.391189</ele>
        <time>2017-06-03T11:24:35.000Z</time>
      </trkpt>
      <trkpt lat="45.441227" lon="5.780389">
        <ele>466.180194</ele>
        <time>2017-06-03T11:24:38.000Z</time>
      </trkpt>
      <trkpt lat="45.441196" lon="5.780253">
        <ele>465.981869</ele>
        <time>2017-06-03T11:24:41.000Z</time>
      </trkpt>
      <trkpt lat="45.441162" lon="5.780125">
        <ele>465.792048</ele>
        <time>2017-06-03T11:24:44.000Z</time>
      </trkpt>
      <trkpt lat="45.441140" lon="5.779998">
        <ele>465.610620</ele>
        <time>2017-06-03T11:24:47.000Z</time>
      </trkpt>
      <trkpt lat="45.441105" lon="5.779873">
        <ele>465.423961</ele>
        <time>2017-06-03T11:24:50.000Z</time>
      </trkpt>
      <trkpt lat="45.441067" lon="5.779710">
        <ele>465.185741</ele>
        <time>2017-06-03T11:24:54.000Z</time>
      </trkpt>
      <trkpt lat="45.441032" lon="5.779572">
        <ele>464.982225</ele>
        <time>2017-06-03T11:24:57.000Z</time>
      </trkpt>
      <trkpt lat="45.440994" lon="5.779422">
        <ele>464.757234</ele>
        <time>2017-06-03T11:25:00.000Z</time>
      </trkpt>
      <trkpt lat="45.440930" lon="5.779268">
        <ele>464.486444</ele>
        <time>2017-06-03T11:25:03.000Z</time>
      </trkpt>
      <trkpt lat="45.440876" lon="5.779116">
        <ele>464.228684</ele>
        <time>2017-06-03T11:25:06.000Z</time>
      </trkpt>
      <trkpt lat="45.440834" lon="5.778952">
        <ele>463.964555</ele>
        <time>2017-06-03T11:25:09.000Z</time>
      </trkpt>
      <trkpt lat="45.440790" lon="5.778791">
        <ele>463.703152</ele>
        <time>2017-06-03T11:25:12.000Z</time>
      </trkpt>
      <trkpt lat="45.440735" lon="5.778616">
        <ele>463.413044</ele>
        <time>2017-06-03T11:25:15.000Z</time>
      </trkpt>
      <trkpt lat="45.440704" lon="5.778490">
        <ele>463.211037</ele>
        <time>2017-06-03T11:25:17.000Z</time>
      </trkpt>
      <trkpt lat="45.440662" lon="5.778370">
        <ele>463.008153</ele>
        <time>2017-06-03T11:25:19.000Z</time>
      </trkpt>
      <trkpt lat="45.440628" lon="5.778241">
        <ele>462.799671</ele>
        <time>2017-06-03T11:25:21.000Z</time>
      </trkpt>
      <trkpt lat="45.440590" lon="5.778112">
        <ele>462.588002</ele>
        <time>2017-06-03T11:25:23.000Z</time>
      </trkpt>
      <trkpt lat="45.440533" lon="5.777939">
        <ele>462.298846</ele>
        <time>2017-06-03T11:25:26.000Z</time>
      </trkpt>
      <trkpt lat="45.440480" lon="5.777764">
        <ele>462.010474</ele>
        <time>2017-06-03T11:25:29.000Z</time>
      </trkpt>
      <trkpt lat="45.440434" lon="5.777649">
        <ele>461.810201</ele>
        <time>2017-06-03T11:25:31.000Z</time>
      </trkpt>
      <trkpt lat="45.440380" lon="5.777482">
        <ele>461.532003</ele>
        <time>2017-06-03T11:25:34.000Z</time>
      </trkpt>
      <trkpt lat="45.440330" lon="5.777371">
        <ele>461.332440</ele>
        <time>2017-06-03T11:25:36.000Z</time>
      </trkpt>
      <trkpt lat="45.440260" lon="5.777211">
        <ele>461.047170</ele>
        <time>2017-06-03T11:25:39.000Z</time>
      </trkpt>
      <trkpt lat="45.440193" lon="5.777055">
        <ele>460.869363</ele>
        <time>2017-06-03T11:25:42.000Z</time>
      </trkpt>
      <trkpt lat="45.440144" lon="5.776937">
        <ele>460.794983</ele>
        <time>2017-06-03T11:25:44.000Z</time>
      </trkpt>
      <trkpt lat="45.440090" lon="5.776829">
        <ele>460.723045</ele>
        <time>2017-06-03T11:25:46.000Z</time>
      </trkpt>
      <trkpt lat="45.440033" lon="5.776719">
        <ele>460.648867</ele>
        <time>2017-06-03T11:25:48.000Z</time>
      </trkpt>
      <trkpt lat="45.439976" lon="5.776617">
        <ele>460.578132</ele>
        <time>2017-06-03T11:25:50.000Z</time>
      </trkpt>
      <trkpt lat="45.439903" lon="5.776488">
        <ele>460.488232</ele>
        <time>2017-06-03T11:25:53.000Z</time>
      </trkpt>
      <trkpt lat="45.439830" lon="5.776361">
        <ele>460.399175</ele>
        <time>2017-06-03T11:25:56.000Z</time>
      </trkpt>
      <trkpt lat="45.439750" lon="5.776234">
        <ele>460.306593</ele>
        <time>2017-06-03T11:25:59.000Z</time>
      </trkpt>
      <trkpt lat="45.439667" lon="5.776098">
        <ele>460.208817</ele>
        <time>2017-06-03T11:26:02.000Z</time>
      </trkpt>
      <trkpt lat="45.439583" lon="5.775970">
        <ele>460.113745</ele>
        <time>2017-06-03T11:26:05.000Z</time>
      </trkpt>
      <trkpt lat="45.439495" lon="5.775850">
        <ele>460.019586</ele>
        <time>2017-06-03T11:26:08.000Z</time>
      </trkpt>
      <trkpt lat="45.439400" lon="5.775750">
        <ele>459.928279</ele>
        <time>2017-06-03T11:26:11.000Z</time>
      </trkpt>
      <trkpt lat="45.439304" lon="5.775621">
        <ele>459.826273</ele>
        <time>2017-06-03T11:26:14.000Z</time>
      </trkpt>
      <trkpt lat="45.439210" lon="5.775501">
        <ele>459.728709</ele>
        <time>2017-06-03T11:26:17.000Z</time>
      </trkpt>
      <trkpt lat="45.439110" lon="5.775399">
        <ele>459.633638</ele>
        <time>2017-06-03T11:26:20.000Z</time>
      </trkpt>
      <trkpt lat="45.439014" lon="5.775313">
        <ele>459.545975</ele>
        <time>2017-06-03T11:26:23.000Z</time>
      </trkpt>
      <trkpt lat="45.438934" lon="5.775218">
        <ele>459.665301</ele>
        <time>2017-06-03T11:26:26.000Z</time>
      </trkpt>
      <trkpt lat="45.438843" lon="5.775130">
        <ele>459.827820</ele>
        <time>2017-06-03T11:26:29.000Z</time>
      </trkpt>
      <trkpt lat="45.438760" lon="5.775053">
        <ele>459.974178</ele>
        <time>2017-06-03T11:26:32.000Z</time>
      </trkpt>
      <trkpt lat="45.438667" lon="5.774963">
        <ele>460.140307</ele>
        <time>2017-06-03T11:26:36.000Z</time>
      </trkpt>
      <trkpt lat="45.438576" lon="5.774870">
        <ele>460.305793</ele>
        <time>2017-06-03T11:26:40.000Z</time>
      </trkpt>
      <trkpt lat="45.438503" lon="5.774770">
        <ele>460.455430</ele>
        <time>2017-06-03T11:26:44.000Z</time>
      </trkpt>
      <trkpt lat="45.438520" lon="5.774642">
        <ele>460.590517</ele>
        <time>2017-06-03T11:26:47.000Z</time>
      </trkpt>
      <trkpt lat="45.438550" lon="5.774516">
        <ele>460.728490</ele>
        <time>2017-06-03T11:26:50.000Z</time>
      </trkpt>
      <trkpt lat="45.438583" lon="5.774386">
        <ele>460.871845</ele>
        <time>2017-06-03T11:26:53.000Z</time>
      </trkpt>
      <trkpt lat="45.438614" lon="5.774263">
        <ele>461.007368</ele>
        <time>2017-06-03T11:26:56.000Z</time>
      </trkpt>
      <trkpt lat="45.438644" lon="5.774115">
        <ele>461.167112</ele>
        <time>2017-06-03T11:27:00.000Z</time>
      </trkpt>
      <trkpt lat="45.438683" lon="5.773986">
        <ele>461.312768</ele>
        <time>2017-06-03T11:27:03.000Z</time>
      </trkpt>
      <trkpt lat="45.438732" lon="5.773848">
        <ele>461.473146</ele>
        <time>2017-06-03T11:27:06.000Z</time>
      </trkpt>
      <trkpt lat="45.438786" lon="5.773681">
        <ele>461.663820</ele>
        <time>2017-06-03T11:27:09.000Z</time>
      </trkpt>
      <trkpt lat="45.438847" lon="5.773530">
        <ele>461.844495</ele>
        <time>2017-06-03T11:27:12.000Z</time>
      </trkpt>
      <trkpt lat="45.438877" lon="5.773384">
        <ele>462.002248</ele>
        <time>2017-06-03T11:27:14.000Z</time>
      </trkpt>
      <trkpt lat="45.438854" lon="5.773245">
        <ele>462.150337</ele>
        <time>2017-06-03T11:27:16.000Z</time>
      </trkpt>
      <trkpt lat="45.438797" lon="5.773139">
        <ele>462.093915</ele>
        <time>2017-06-03T11:27:18.000Z</time>
      </trkpt>
      <trkpt lat="45.438713" lon="5.773081">
        <ele>461.953623</ele>
        <time>2017-06-03T11:27:20.000Z</time>
      </trkpt>
      <trkpt lat="45.438610" lon="5.772986">
        <ele>461.769217</ele>
        <time>2017-06-03T11:27:23.000Z</time>
      </trkpt>
      <trkpt lat="45.438510" lon="5.772925">
        <ele>461.605724</ele>
        <time>2017-06-03T11:27:26.000Z</time>
      </trkpt>
      <trkpt lat="45.438410" lon="5.772872">
        <ele>461.445363</ele>
        <time>2017-06-03T11:27:30.000Z</time>
      </trkpt>
      <trkpt lat="45.438320" lon="5.772896">
        <ele>461.307742</ele>
        <time>2017-06-03T11:27:35.000Z</time>
      </trkpt>
      <trkpt lat="45.438232" lon="5.772864">
        <ele>461.171237</ele>
        <time>2017-06-03T11:27:39.000Z</time>
      </trkpt>
      <trkpt lat="45.438114" lon="5.772826">
        <ele>460.989407</ele>
        <time>2017-06-03T11:27:43.000Z</time>
      </trkpt>
      <trkpt lat="45.438004" lon="5.772808">
        <ele>460.822986</ele>
        <time>2017-06-03T11:27:46.000Z</time>
      </trkpt>
      <trkpt lat="45.437878" lon="5.772771">
        <ele>460.629625</ele>
        <time>2017-06-03T11:27:49.000Z</time>
      </trkpt>
      <trkpt lat="45.437756" lon="5.772772">
        <ele>460.446251</ele>
        <time>2017-06-03T11:27:52.000Z</time>
      </trkpt>
      <trkpt lat="45.437660" lon="5.772785">
        <ele>460.301309</ele>
        <time>2017-06-03T11:27:54.000Z</time>
      </trkpt>
      <trkpt lat="45.437520" lon="5.772793">
        <ele>460.090715</ele>
        <time>2017-06-03T11:27:57.000Z</time>
      </trkpt>
      <trkpt lat="45.437430" lon="5.772811">
        <ele>459.954115</ele>
        <time>2017-06-03T11:27:59.000Z</time>
      </trkpt>
      <trkpt lat="45.437305" lon="5.772809">
        <ele>459.766224</ele>
        <time>2017-06-03T11:28:02.000Z</time>
      </trkpt>
      <trkpt lat="45.437214" lon="5.772805">
        <ele>459.629382</ele>
        <time>2017-06-03T11:28:04.000Z</time>
      </trkpt>
      <trkpt lat="45.437120" lon="5.772803">
        <ele>459.487949</ele>
        <time>2017-06-03T11:28:06.000Z</time>
      </trkpt>
      <trkpt lat="45.437027" lon="5.772800">
        <ele>459.321134</ele>
        <time>2017-06-03T11:28:08.000Z</time>
      </trkpt>
      <trkpt lat="45.436900" lon="5.772783">
        <ele>459.092387</ele>
        <time>2017-06-03T11:28:11.000Z</time>
      </trkpt>
      <trkpt lat="45.436787" lon="5.772742">
        <ele>458.883284</ele>
        <time>2017-06-03T11:28:14.000Z</time>
      </trkpt>
      <trkpt lat="45.436680" lon="5.772663">
        <ele>458.667184</ele>
        <time>2017-06-03T11:28:17.000Z</time>
      </trkpt>
      <trkpt lat="45.436570" lon="5.772548">
        <ele>458.422539</ele>
        <time>2017-06-03T11:28:20.000Z</time>
      </trkpt>
      <trkpt lat="45.436504" lon="5.772438">
        <ele>458.240421</ele>
        <time>2017-06-03T11:28:22.000Z</time>
      </trkpt>
      <trkpt lat="45.436443" lon="5.772328">
        <ele>458.063998</ele>
        <time>2017-06-03T11:28:24.000Z</time>
      </trkpt>
      <trkpt lat="45.436382" lon="5.772230">
        <ele>457.899156</ele>
        <time>2017-06-03T11:28:26.000Z</time>
      </trkpt>
      <trkpt lat="45.436290" lon="5.772087">
        <ele>457.655030</ele>
        <time>2017-06-03T11:28:29.000Z</time>
      </trkpt>
      <trkpt lat="45.436222" lon="5.771991">
        <ele>457.483384</ele>
        <time>2017-06-03T11:28:31.000Z</time>
      </trkpt>
      <trkpt lat="45.436153" lon="5.771896">
        <ele>457.311336</ele>
        <time>2017-06-03T11:28:33.000Z</time>
      </trkpt>
      <trkpt lat="45.436092" lon="5.771795">
        <ele>457.143650</ele>
        <time>2017-06-03T11:28:35.000Z</time>
      </trkpt>
      <trkpt lat="45.436040" lon="5.771690">
        <ele>456.981933</ele>
        <time>2017-06-03T11:28:37.000Z</time>
      </trkpt>
      <trkpt lat="45.435947" lon="5.771544">
        <ele>456.733809</ele>
        <time>2017-06-03T11:28:40.000Z</time>
      </trkpt>
      <trkpt lat="45.435883" lon="5.771442">
        <ele>456.561629</ele>
        <time>2017-06-03T11:28:42.000Z</time>
      </trkpt>
      <trkpt lat="45.435814" lon="5.771344">
        <ele>456.386936</ele>
        <time>2017-06-03T11:28:44.000Z</time>
      </trkpt>
      <trkpt lat="45.435740" lon="5.771247">
        <ele>456.243196</ele>
        <time>2017-06-03T11:28:46.000Z</time>
      </trkpt>
      <trkpt lat="45.435673" lon="5.771154">
        <ele>456.183642</ele>
        <time>2017-06-03T11:28:48.000Z</time>
      </trkpt>
      <trkpt lat="45.435604" lon="5.771072">
        <ele>456.126434</ele>
        <time>2017-06-03T11:28:50.000Z</time>
      </trkpt>
      <trkpt lat="45.435500" lon="5.770948">
        <ele>456.040091</ele>
        <time>2017-06-03T11:28:53.000Z</time>
      </trkpt>
      <trkpt lat="45.435400" lon="5.770824">
        <ele>455.955686</ele>
        <time>2017-06-03T11:28:56.000Z</time>
      </trkpt>
      <trkpt lat="45.435320" lon="5.770741">
        <ele>455.892677</ele>
        <time>2017-06-03T11:28:58.000Z</time>
      </trkpt>
      <trkpt lat="45.435246" lon="5.770652">
        <ele>455.831019</ele>
        <time>2017-06-03T11:29:00.000Z</time>
      </trkpt>
      <trkpt lat="45.435165" lon="5.770562">
        <ele>455.765618</ele>
        <time>2017-06-03T11:29:02.000Z</time>
      </trkpt>
      <trkpt lat="45.435085" lon="5.770481">
        <ele>455.703130</ele>
        <time>2017-06-03T11:29:04.000Z</time>
      </trkpt>
      <trkpt lat="45.435013" lon="5.770399">
        <ele>455.644443</ele>
        <time>2017-06-03T11:29:06.000Z</time>
      </trkpt>
      <trkpt lat="45.434940" lon="5.770307">
        <ele>455.582391</ele>
        <time>2017-06-03T11:29:08.000Z</time>
      </trkpt>
      <trkpt lat="45.434875" lon="5.770211">
        <ele>455.522784</ele>
        <time>2017-06-03T11:29:10.000Z</time>
      </trkpt>
      <trkpt lat="45.434807" lon="5.770124">
        <ele>455.464595</ele>
        <time>2017-06-03T11:29:12.000Z</time>
      </trkpt>
      <trkpt lat="45.434742" lon="5.770021">
        <ele>455.402699</ele>
        <time>2017-06-03T11:29:14.000Z</time>
      </trkpt>
      <trkpt lat="45.434677" lon="5.769923">
        <ele>455.342446</ele>
        <time>2017-06-03T11:29:16.000Z</time>
      </trkpt>
      <trkpt lat="45.434610" lon="5.769824">
        <ele>455.280990</ele>
        <time>2017-06-03T11:29:18.000Z</time>
      </trkpt>
      <trkpt lat="45.434540" lon="5.769721">
        <ele>455.216922</ele>
        <time>2017-06-03T11:29:20.000Z</time>
      </trkpt>
      <trkpt lat="45.434470" lon="5.769612">
        <ele>455.150901</ele>
        <time>2017-06-03T11:29:22.000Z</time>
      </trkpt>
      <trkpt lat="45.434390" lon="5.769502">
        <ele>455.070966</ele>
        <time>2017-06-03T11:29:24.000Z</time>
      </trkpt>
      <trkpt lat="45.434307" lon="5.769389">
        <ele>454.980243</ele>
        <time>2017-06-03T11:29:26.000Z</time>
      </trkpt>
      <trkpt lat="45.434230" lon="5.769272">
        <ele>454.891281</ele>
        <time>2017-06-03T11:29:28.000Z</time>
      </trkpt>
      <trkpt lat="45.434155" lon="5.769155">
        <ele>454.803393</ele>
        <time>2017-06-03T11:29:30.000Z</time>
      </trkpt>
      <trkpt lat="45.434082" lon="5.769062">
        <ele>454.726004</ele>
        <time>2017-06-03T11:29:32.000Z</time>
      </trkpt>
      <trkpt lat="45.434006" lon="5.768968">
        <ele>454.646469</ele>
        <time>2017-06-03T11:29:34.000Z</time>
      </trkpt>
      <trkpt lat="45.433933" lon="5.768862">
        <ele>454.564099</ele>
        <time>2017-06-03T11:29:36.000Z</time>
      </trkpt>
      <trkpt lat="45.433870" lon="5.768751">
        <ele>454.484921</ele>
        <time>2017-06-03T11:29:38.000Z</time>
      </trkpt>
      <trkpt lat="45.433804" lon="5.768645">
        <ele>454.406326</ele>
        <time>2017-06-03T11:29:40.000Z</time>
      </trkpt>
      <trkpt lat="45.433710" lon="5.768512">
        <ele>454.301634</ele>
        <time>2017-06-03T11:29:43.000Z</time>
      </trkpt>
      <trkpt lat="45.433620" lon="5.768370">
        <ele>454.195512</ele>
        <time>2017-06-03T11:29:46.000Z</time>
      </trkpt>
      <trkpt lat="45.433530" lon="5.768250">
        <ele>454.098100</ele>
        <time>2017-06-03T11:29:49.000Z</time>
      </trkpt>
      <trkpt lat="45.433430" lon="5.768117">
        <ele>453.989991</ele>
        <time>2017-06-03T11:29:52.000Z</time>
      </trkpt>
      <trkpt lat="45.433357" lon="5.768035">
        <ele>453.916526</ele>
        <time>2017-06-03T11:29:54.000Z</time>
      </trkpt>
      <trkpt lat="45.433280" lon="5.767955">
        <ele>453.841212</ele>
        <time>2017-06-03T11:29:56.000Z</time>
      </trkpt>
      <trkpt lat="45.433197" lon="5.767885">
        <ele>453.764986</ele>
        <time>2017-06-03T11:29:58.000Z</time>
      </trkpt>
      <trkpt lat="45.433105" lon="5.767815">
        <ele>453.685769</ele>
        <time>2017-06-03T11:30:00.000Z</time>
      </trkpt>
      <trkpt lat="45.433020" lon="5.767741">
        <ele>453.625190</ele>
        <time>2017-06-03T11:30:02.000Z</time>
      </trkpt>
      <trkpt lat="45.432938" lon="5.767665">
        <ele>453.565698</ele>
        <time>2017-06-03T11:30:04.000Z</time>
      </trkpt>
      <trkpt lat="45.432858" lon="5.767584">
        <ele>453.506012</ele>
        <time>2017-06-03T11:30:06.000Z</time>
      </trkpt>
      <trkpt lat="45.432770" lon="5.767498">
        <ele>453.441115</ele>
        <time>2017-06-03T11:30:08.000Z</time>
      </trkpt>
      <trkpt lat="45.432680" lon="5.767402">
        <ele>453.372742</ele>
        <time>2017-06-03T11:30:10.000Z</time>
      </trkpt>
      <trkpt lat="45.432600" lon="5.767316">
        <ele>453.311795</ele>
        <time>2017-06-03T11:30:12.000Z</time>
      </trkpt>
      <trkpt lat="45.432487" lon="5.767221">
        <ele>453.232002</ele>
        <time>2017-06-03T11:30:15.000Z</time>
      </trkpt>
      <trkpt lat="45.432392" lon="5.767147">
        <ele>453.166155</ele>
        <time>2017-06-03T11:30:18.000Z</time>
      </trkpt>
      <trkpt lat="45.432290" lon="5.767105">
        <ele>453.101582</ele>
        <time>2017-06-03T11:30:21.000Z</time>
      </trkpt>
      <trkpt lat="45.432186" lon="5.767175">
        <ele>453.031630</ele>
        <time>2017-06-03T11:30:24.000Z</time>
      </trkpt>
      <trkpt lat="45.432144" lon="5.767293">
        <ele>452.975160</ele>
        <time>2017-06-03T11:30:26.000Z</time>
      </trkpt>
      <trkpt lat="45.432110" lon="5.767427">
        <ele>452.914346</ele>
        <time>2017-06-03T11:30:28.000Z</time>
      </trkpt>
      <trkpt lat="45.432080" lon="5.767558">
        <ele>452.855534</ele>
        <time>2017-06-03T11:30:30.000Z</time>
      </trkpt>
      <trkpt lat="45.432037" lon="5.767695">
        <ele>452.791480</ele>
        <time>2017-06-03T11:30:32.000Z</time>
      </trkpt>
      <trkpt lat="45.432000" lon="5.767833">
        <ele>452.728430</ele>
        <time>2017-06-03T11:30:34.000Z</time>
      </trkpt>
      <trkpt lat="45.431953" lon="5.767974">
        <ele>452.661807</ele>
        <time>2017-06-03T11:30:36.000Z</time>
      </trkpt>
      <trkpt lat="45.431910" lon="5.768111">
        <ele>452.605573</ele>
        <time>2017-06-03T11:30:38.000Z</time>
      </trkpt>
      <trkpt lat="45.431873" lon="5.768249">
        <ele>452.644713</ele>
        <time>2017-06-03T11:30:40.000Z</time>
      </trkpt>
      <trkpt lat="45.431830" lon="5.768383">
        <ele>452.683752</ele>
        <time>2017-06-03T11:30:42.000Z</time>
      </trkpt>
      <trkpt lat="45.431797" lon="5.768516">
        <ele>452.721127</ele>
        <time>2017-06-03T11:30:44.000Z</time>
      </trkpt>
      <trkpt lat="45.431763" lon="5.768648">
        <ele>452.758381</ele>
        <time>2017-06-03T11:30:46.000Z</time>
      </trkpt>
      <trkpt lat="45.431725" lon="5.768776">
        <ele>452.795204</ele>
        <time>2017-06-03T11:30:48.000Z</time>
      </trkpt>
      <trkpt lat="45.431625" lon="5.768889">
        <ele>452.843388</ele>
        <time>2017-06-03T11:30:51.000Z</time>
      </trkpt>
      <trkpt lat="45.431488" lon="5.768863">
        <ele>452.895569</ele>
        <time>2017-06-03T11:30:54.000Z</time>
      </trkpt>
      <trkpt lat="45.431393" lon="5.768792">
        <ele>452.936069</ele>
        <time>2017-06-03T11:30:56.000Z</time>
      </trkpt>
      <trkpt lat="45.431297" lon="5.768722">
        <ele>452.976783</ele>
        <time>2017-06-03T11:30:58.000Z</time>
      </trkpt>
      <trkpt lat="45.431202" lon="5.768654">
        <ele>453.016920</ele>
        <time>2017-06-03T11:31:00.000Z</time>
      </trkpt>
      <trkpt lat="45.431103" lon="5.768603">
        <ele>453.056665</ele>
        <time>2017-06-03T11:31:02.000Z</time>
      </trkpt>
      <trkpt lat="45.431007" lon="5.768560">
        <ele>453.094658</ele>
        <time>2017-06-03T11:31:04.000Z</time>
      </trkpt>
      <trkpt lat="45.430912" lon="5.768522">
        <ele>453.131911</ele>
        <time>2017-06-03T11:31:06.000Z</time>
      </trkpt>
      <trkpt lat="45.430817" lon="5.768488">
        <ele>453.168891</ele>
        <time>2017-06-03T11:31:08.000Z</time>
      </trkpt>
      <trkpt lat="45.430725" lon="5.768438">
        <ele>453.206066</ele>
        <time>2017-06-03T11:31:10.000Z</time>
      </trkpt>
      <trkpt lat="45.430645" lon="5.768382">
        <ele>453.239717</ele>
        <time>2017-06-03T11:31:12.000Z</time>
      </trkpt>
      <trkpt lat="45.430530" lon="5.768304">
        <ele>453.258392</ele>
        <time>2017-06-03T11:31:15.000Z</time>
      </trkpt>
      <trkpt lat="45.430416" lon="5.768234">
        <ele>453.081331</ele>
        <time>2017-06-03T11:31:18.000Z</time>
      </trkpt>
      <trkpt lat="45.430305" lon="5.768155">
        <ele>452.904354</ele>
        <time>2017-06-03T11:31:21.000Z</time>
      </trkpt>
      <trkpt lat="45.430183" lon="5.768085">
        <ele>452.716760</ele>
        <time>2017-06-03T11:31:24.000Z</time>
      </trkpt>
      <trkpt lat="45.430096" lon="5.768035">
        <ele>452.582952</ele>
        <time>2017-06-03T11:31:26.000Z</time>
      </trkpt>
      <trkpt lat="45.430000" lon="5.767990">
        <ele>452.438802</ele>
        <time>2017-06-03T11:31:28.000Z</time>
      </trkpt>
      <trkpt lat="45.429905" lon="5.767945">
        <ele>452.296006</ele>
        <time>2017-06-03T11:31:30.000Z</time>
      </trkpt>
      <trkpt lat="45.429810" lon="5.767898">
        <ele>452.152566</ele>
        <time>2017-06-03T11:31:32.000Z</time>
      </trkpt>
      <trkpt lat="45.429726" lon="5.767854">
        <ele>452.024912</ele>
        <time>2017-06-03T11:31:34.000Z</time>
      </trkpt>
      <trkpt lat="45.429596" lon="5.767803">
        <ele>451.832585</ele>
        <time>2017-06-03T11:31:37.000Z</time>
      </trkpt>
      <trkpt lat="45.429510" lon="5.767760">
        <ele>451.702585</ele>
        <time>2017-06-03T11:31:39.000Z</time>
      </trkpt>
      <trkpt lat="45.429417" lon="5.767720">
        <ele>451.564021</ele>
        <time>2017-06-03T11:31:41.000Z</time>
      </trkpt>
      <trkpt lat="45.429317" lon="5.767680">
        <ele>451.415871</ele>
        <time>2017-06-03T11:31:43.000Z</time>
      </trkpt>
      <trkpt lat="45.429214" lon="5.767637">
        <ele>451.262779</ele>
        <time>2017-06-03T11:31:45.000Z</time>
      </trkpt>
      <trkpt lat="45.429120" lon="5.767595">
        <ele>451.122263</ele>
        <time>2017-06-03T11:31:47.000Z</time>
      </trkpt>
      <trkpt lat="45.429020" lon="5.767553">
        <ele>450.973559</ele>
        <time>2017-06-03T11:31:49.000Z</time>
      </trkpt>
      <trkpt lat="45.428930" lon="5.767519">
        <ele>450.840751</ele>
        <time>2017-06-03T11:31:51.000Z</time>
      </trkpt>
      <trkpt lat="45.428837" lon="5.767484">
        <ele>450.708979</ele>
        <time>2017-06-03T11:31:53.000Z</time>
      </trkpt>
      <trkpt lat="45.428740" lon="5.767449">
        <ele>450.627916</ele>
        <time>2017-06-03T11:31:55.000Z</time>
      </trkpt>
      <trkpt lat="45.428642" lon="5.767407">
        <ele>450.545010</ele>
        <time>2017-06-03T11:31:57.000Z</time>
      </trkpt>
      <trkpt lat="45.428547" lon="5.767371">
        <ele>450.465373</ele>
        <time>2017-06-03T11:31:59.000Z</time>
      </trkpt>
      <trkpt lat="45.428444" lon="5.767341">
        <ele>450.380204</ele>
        <time>2017-06-03T11:32:01.000Z</time>
      </trkpt>
      <trkpt lat="45.428350" lon="5.767305">
        <ele>450.301349</ele>
        <time>2017-06-03T11:32:03.000Z</time>
      </trkpt>
      <trkpt lat="45.428257" lon="5.767271">
        <ele>450.223566</ele>
        <time>2017-06-03T11:32:05.000Z</time>
      </trkpt>
      <trkpt lat="45.428170" lon="5.767227">
        <ele>450.148777</ele>
        <time>2017-06-03T11:32:07.000Z</time>
      </trkpt>
      <trkpt lat="45.428074" lon="5.767191">
        <ele>450.068357</ele>
        <time>2017-06-03T11:32:09.000Z</time>
      </trkpt>
      <trkpt lat="45.427975" lon="5.767153">
        <ele>449.985295</ele>
        <time>2017-06-03T11:32:11.000Z</time>
      </trkpt>
      <trkpt lat="45.427880" lon="5.767117">
        <ele>449.905657</ele>
        <time>2017-06-03T11:32:13.000Z</time>
      </trkpt>
      <trkpt lat="45.427784" lon="5.767082">
        <ele>449.825379</ele>
        <time>2017-06-03T11:32:15.000Z</time>
      </trkpt>
      <trkpt lat="45.427690" lon="5.767044">
        <ele>449.746221</ele>
        <time>2017-06-03T11:32:17.000Z</time>
      </trkpt>
      <trkpt lat="45.427593" lon="5.767005">
        <ele>449.664570</ele>
        <time>2017-06-03T11:32:19.000Z</time>
      </trkpt>
      <trkpt lat="45.427500" lon="5.766957">
        <ele>449.584438</ele>
        <time>2017-06-03T11:32:21.000Z</time>
      </trkpt>
      <trkpt lat="45.427410" lon="5.766918">
        <ele>449.508229</ele>
        <time>2017-06-03T11:32:23.000Z</time>
      </trkpt>
      <trkpt lat="45.427326" lon="5.766873">
        <ele>449.435527</ele>
        <time>2017-06-03T11:32:25.000Z</time>
      </trkpt>
      <trkpt lat="45.427240" lon="5.766824">
        <ele>449.360493</ele>
        <time>2017-06-03T11:32:27.000Z</time>
      </trkpt>
      <trkpt lat="45.427150" lon="5.766776">
        <ele>449.282641</ele>
        <time>2017-06-03T11:32:29.000Z</time>
      </trkpt>
      <trkpt lat="45.427050" lon="5.766731">
        <ele>449.194175</ele>
        <time>2017-06-03T11:32:31.000Z</time>
      </trkpt>
      <trkpt lat="45.426960" lon="5.766685">
        <ele>449.112282</ele>
        <time>2017-06-03T11:32:33.000Z</time>
      </trkpt>
      <trkpt lat="45.426870" lon="5.766630">
        <ele>449.028407</ele>
        <time>2017-06-03T11:32:35.000Z</time>
      </trkpt>
      <trkpt lat="45.426785" lon="5.766583">
        <ele>448.950315</ele>
        <time>2017-06-03T11:32:37.000Z</time>
      </trkpt>
      <trkpt lat="45.426690" lon="5.766535">
        <ele>448.863984</ele>
        <time>2017-06-03T11:32:39.000Z</time>
      </trkpt>
      <trkpt lat="45.426594" lon="5.766477">
        <ele>448.774674</ele>
        <time>2017-06-03T11:32:41.000Z</time>
      </trkpt>
      <trkpt lat="45.426464" lon="5.766378">
        <ele>448.648424</ele>
        <time>2017-06-03T11:32:44.000Z</time>
      </trkpt>
      <trkpt lat="45.426380" lon="5.766302">
        <ele>448.563200</ele>
        <time>2017-06-03T11:32:46.000Z</time>
      </trkpt>
      <trkpt lat="45.426296" lon="5.766229">
        <ele>448.478928</ele>
        <time>2017-06-03T11:32:48.000Z</time>
      </trkpt>
      <trkpt lat="45.426178" lon="5.766120">
        <ele>448.358481</ele>
        <time>2017-06-03T11:32:51.000Z</time>
      </trkpt>
      <trkpt lat="45.426100" lon="5.766039">
        <ele>448.275814</ele>
        <time>2017-06-03T11:32:53.000Z</time>
      </trkpt>
      <trkpt lat="45.426020" lon="5.765976">
        <ele>448.197526</ele>
        <time>2017-06-03T11:32:55.000Z</time>
      </trkpt>
      <trkpt lat="45.425938" lon="5.765910">
        <ele>448.116862</ele>
        <time>2017-06-03T11:32:57.000Z</time>
      </trkpt>
      <trkpt lat="45.425854" lon="5.765835">
        <ele>448.031958</ele>
        <time>2017-06-03T11:32:59.000Z</time>
      </trkpt>
      <trkpt lat="45.425762" lon="5.765760">
        <ele>447.941175</ele>
        <time>2017-06-03T11:33:01.000Z</time>
      </trkpt>
      <trkpt lat="45.425674" lon="5.765700">
        <ele>447.857618</ele>
        <time>2017-06-03T11:33:03.000Z</time>
      </trkpt>
      <trkpt lat="45.425594" lon="5.765630">
        <ele>447.777210</ele>
        <time>2017-06-03T11:33:05.000Z</time>
      </trkpt>
      <trkpt lat="45.425514" lon="5.765552">
        <ele>447.707229</ele>
        <time>2017-06-03T11:33:07.000Z</time>
      </trkpt>
      <trkpt lat="45.425420" lon="5.765436">
        <ele>447.657971</ele>
        <time>2017-06-03T11:33:10.000Z</time>
      </trkpt>
      <trkpt lat="45.425323" lon="5.765319">
        <ele>447.607629</ele>
        <time>2017-06-03T11:33:13.000Z</time>
      </trkpt>
      <trkpt lat="45.425243" lon="5.765197">
        <ele>447.561211</ele>
        <time>2017-06-03T11:33:16.000Z</time>
      </trkpt>
      <trkpt lat="45.425150" lon="5.765090">
        <ele>447.513862</ele>
        <time>2017-06-03T11:33:19.000Z</time>
      </trkpt>
      <trkpt lat="45.425070" lon="5.765007">
        <ele>447.474662</ele>
        <time>2017-06-03T11:33:23.000Z</time>
      </trkpt>
      <trkpt lat="45.425000" lon="5.764894">
        <ele>447.432761</ele>
        <time>2017-06-03T11:33:27.000Z</time>
      </trkpt>
      <trkpt lat="45.424910" lon="5.764790">
        <ele>447.386860</ele>
        <time>2017-06-03T11:33:30.000Z</time>
      </trkpt>
      <trkpt lat="45.424840" lon="5.764714">
        <ele>447.351999</ele>
        <time>2017-06-03T11:33:32.000Z</time>
      </trkpt>
      <trkpt lat="45.424763" lon="5.764639">
        <ele>447.315052</ele>
        <time>2017-06-03T11:33:34.000Z</time>
      </trkpt>
      <trkpt lat="45.424670" lon="5.764556">
        <ele>447.271584</ele>
        <time>2017-06-03T11:33:36.000Z</time>
      </trkpt>
      <trkpt lat="45.424587" lon="5.764479">
        <ele>447.232351</ele>
        <time>2017-06-03T11:33:38.000Z</time>
      </trkpt>
      <trkpt lat="45.424507" lon="5.764410">
        <ele>447.195309</ele>
        <time>2017-06-03T11:33:40.000Z</time>
      </trkpt>
      <trkpt lat="45.424427" lon="5.764347">
        <ele>447.159101</ele>
        <time>2017-06-03T11:33:42.000Z</time>
      </trkpt>
      <trkpt lat="45.424300" lon="5.764264">
        <ele>447.103755</ele>
        <time>2017-06-03T11:33:45.000Z</time>
      </trkpt>
      <trkpt lat="45.424213" lon="5.764220">
        <ele>447.067187</ele>
        <time>2017-06-03T11:33:47.000Z</time>
      </trkpt>
      <trkpt lat="45.424118" lon="5.764175">
        <ele>447.027531</ele>
        <time>2017-06-03T11:33:49.000Z</time>
      </trkpt>
      <trkpt lat="45.424020" lon="5.764137">
        <ele>446.934691</ele>
        <time>2017-06-03T11:33:51.000Z</time>
      </trkpt>
      <trkpt lat="45.423912" lon="5.764105">
        <ele>446.767980</ele>
        <time>2017-06-03T11:33:53.000Z</time>
      </trkpt>
      <trkpt lat="45.423813" lon="5.764075">
        <ele>446.615016</ele>
        <time>2017-06-03T11:33:55.000Z</time>
      </trkpt>
      <trkpt lat="45.423717" lon="5.764051">
        <ele>446.467717</ele>
        <time>2017-06-03T11:33:57.000Z</time>
      </trkpt>
      <trkpt lat="45.423626" lon="5.764026">
        <ele>446.327657</ele>
        <time>2017-06-03T11:33:59.000Z</time>
      </trkpt>
      <trkpt lat="45.423530" lon="5.764001">
        <ele>446.180170</ele>
        <time>2017-06-03T11:34:01.000Z</time>
      </trkpt>
      <trkpt lat="45.423430" lon="5.763978">
        <ele>446.027085</ele>
        <time>2017-06-03T11:34:03.000Z</time>
      </trkpt>
      <trkpt lat="45.423330" lon="5.763959">
        <ele>445.874619</ele>
        <time>2017-06-03T11:34:05.000Z</time>
      </trkpt>
      <trkpt lat="45.423225" lon="5.763938">
        <ele>445.714378</ele>
        <time>2017-06-03T11:34:07.000Z</time>
      </trkpt>
      <trkpt lat="45.423122" lon="5.763909">
        <ele>445.555706</ele>
        <time>2017-06-03T11:34:09.000Z</time>
      </trkpt>
      <trkpt lat="45.423020" lon="5.763860">
        <ele>445.393028</ele>
        <time>2017-06-03T11:34:11.000Z</time>
      </trkpt>
      <trkpt lat="45.422924" lon="5.763801">
        <ele>445.235023</ele>
        <time>2017-06-03T11:34:13.000Z</time>
      </trkpt>
      <trkpt lat="45.422844" lon="5.763720">
        <ele>445.086700</ele>
        <time>2017-06-03T11:34:15.000Z</time>
      </trkpt>
      <trkpt lat="45.422768" lon="5.763626">
        <ele>444.934602</ele>
        <time>2017-06-03T11:34:17.000Z</time>
      </trkpt>
      <trkpt lat="45.422688" lon="5.763533">
        <ele>444.778561</ele>
        <time>2017-06-03T11:34:19.000Z</time>
      </trkpt>
      <trkpt lat="45.422607" lon="5.763443">
        <ele>444.623323</ele>
        <time>2017-06-03T11:34:21.000Z</time>
      </trkpt>
      <trkpt lat="45.422520" lon="5.763371">
        <ele>444.471269</ele>
        <time>2017-06-03T11:34:23.000Z</time>
      </trkpt>
      <trkpt lat="45.422440" lon="5.763297">
        <ele>444.327121</ele>
        <time>2017-06-03T11:34:25.000Z</time>
      </trkpt>
      <trkpt lat="45.422363" lon="5.763209">
        <ele>444.089215</ele>
        <time>2017-06-03T11:34:27.000Z</time>
      </trkpt>
      <trkpt lat="45.422290" lon="5.763126">
        <ele>443.833997</ele>
        <time>2017-06-03T11:34:29.000Z</time>
      </trkpt>
      <trkpt lat="45.422220" lon="5.763048">
        <ele>443.591157</ele>
        <time>2017-06-03T11:34:31.000Z</time>
      </trkpt>
      <trkpt lat="45.422142" lon="5.762970">
        <ele>443.330748</ele>
        <time>2017-06-03T11:34:33.000Z</time>
      </trkpt>
      <trkpt lat="45.422066" lon="5.762893">
        <ele>443.075909</ele>
        <time>2017-06-03T11:34:35.000Z</time>
      </trkpt>
      <trkpt lat="45.421993" lon="5.762809">
        <ele>442.819490</ele>
        <time>2017-06-03T11:34:37.000Z</time>
      </trkpt>
      <trkpt lat="45.421925" lon="5.762730">
        <ele>442.579723</ele>
        <time>2017-06-03T11:34:39.000Z</time>
      </trkpt>
      <trkpt lat="45.421818" lon="5.762637">
        <ele>442.237215</ele>
        <time>2017-06-03T11:34:42.000Z</time>
      </trkpt>
      <trkpt lat="45.421740" lon="5.762562">
        <ele>441.980068</ele>
        <time>2017-06-03T11:34:45.000Z</time>
      </trkpt>
      <trkpt lat="45.421665" lon="5.762490">
        <ele>441.732935</ele>
        <time>2017-06-03T11:34:49.000Z</time>
      </trkpt>
      <trkpt lat="45.421627" lon="5.762372">
        <ele>441.483925</ele>
        <time>2017-06-03T11:38:00.000Z</time>
      </trkpt>
      <trkpt lat="45.421520" lon="5.762278">
        <ele>441.140414</ele>
        <time>2017-06-03T11:38:04.000Z</time>
      </trkpt>
      <trkpt lat="45.421425" lon="5.762183">
        <ele>440.823248</ele>
        <time>2017-06-03T11:38:07.000Z</time>
      </trkpt>
      <trkpt lat="45.421326" lon="5.762082">
        <ele>440.490509</ele>
        <time>2017-06-03T11:38:10.000Z</time>
      </trkpt>
      <trkpt lat="45.421223" lon="5.761972">
        <ele>440.138749</ele>
        <time>2017-06-03T11:38:13.000Z</time>
      </trkpt>
      <trkpt lat="45.421116" lon="5.761864">
        <ele>439.780413</ele>
        <time>2017-06-03T11:38:16.000Z</time>
      </trkpt>
      <trkpt lat="45.421043" lon="5.761783">
        <ele>439.527568</ele>
        <time>2017-06-03T11:38:18.000Z</time>
      </trkpt>
      <trkpt lat="45.420960" lon="5.761706">
        <ele>439.390423</ele>
        <time>2017-06-03T11:38:20.000Z</time>
      </trkpt>
      <trkpt lat="45.420887" lon="5.761628">
        <ele>439.428709</ele>
        <time>2017-06-03T11:38:22.000Z</time>
      </trkpt>
      <trkpt lat="45.420815" lon="5.761552">
        <ele>439.466307</ele>
        <time>2017-06-03T11:38:24.000Z</time>
      </trkpt>
      <trkpt lat="45.420734" lon="5.761476">
        <ele>439.507001</ele>
        <time>2017-06-03T11:38:26.000Z</time>
      </trkpt>
      <trkpt lat="45.420654" lon="5.761395">
        <ele>439.548180</ele>
        <time>2017-06-03T11:38:28.000Z</time>
      </trkpt>
      <trkpt lat="45.420574" lon="5.761309">
        <ele>439.590230</ele>
        <time>2017-06-03T11:38:30.000Z</time>
      </trkpt>
      <trkpt lat="45.420498" lon="5.761229">
        <ele>439.629877</ele>
        <time>2017-06-03T11:38:32.000Z</time>
      </trkpt>
      <trkpt lat="45.420420" lon="5.761147">
        <ele>439.670550</ele>
        <time>2017-06-03T11:38:34.000Z</time>
      </trkpt>
      <trkpt lat="45.420340" lon="5.761062">
        <ele>439.712423</ele>
        <time>2017-06-03T11:38:36.000Z</time>
      </trkpt>
      <trkpt lat="45.420260" lon="5.760979">
        <ele>439.753946</ele>
        <time>2017-06-03T11:38:38.000Z</time>
      </trkpt>
      <trkpt lat="45.420185" lon="5.760895">
        <ele>439.793974</ele>
        <time>2017-06-03T11:38:40.000Z</time>
      </trkpt>
      <trkpt lat="45.420105" lon="5.760811">
        <ele>439.835672</ele>
        <time>2017-06-03T11:38:42.000Z</time>
      </trkpt>
      <trkpt lat="45.420030" lon="5.760731">
        <ele>439.874983</ele>
        <time>2017-06-03T11:38:44.000Z</time>
      </trkpt>
      <trkpt lat="45.419950" lon="5.760653">
        <ele>439.915657</ele>
        <time>2017-06-03T11:38:46.000Z</time>
      </trkpt>
      <trkpt lat="45.419865" lon="5.760564">
        <ele>439.959917</ele>
        <time>2017-06-03T11:38:48.000Z</time>
      </trkpt>
      <trkpt lat="45.419790" lon="5.760490">
        <ele>439.998195</ele>
        <time>2017-06-03T11:38:50.000Z</time>
      </trkpt>
      <trkpt lat="45.419712" lon="5.760412">
        <ele>440.038180</ele>
        <time>2017-06-03T11:38:52.000Z</time>
      </trkpt>
      <trkpt lat="45.419636" lon="5.760337">
        <ele>440.076970</ele>
        <time>2017-06-03T11:38:54.000Z</time>
      </trkpt>
      <trkpt lat="45.419567" lon="5.760257">
        <ele>440.114297</ele>
        <time>2017-06-03T11:38:56.000Z</time>
      </trkpt>
      <trkpt lat="45.419490" lon="5.760175">
        <ele>440.012338</ele>
        <time>2017-06-03T11:38:58.000Z</time>
      </trkpt>
      <trkpt lat="45.419420" lon="5.760097">
        <ele>439.855324</ele>
        <time>2017-06-03T11:39:00.000Z</time>
      </trkpt>
      <trkpt lat="45.419342" lon="5.760016">
        <ele>439.684785</ele>
        <time>2017-06-03T11:39:02.000Z</time>
      </trkpt>
      <trkpt lat="45.419266" lon="5.759940">
        <ele>439.520729</ele>
        <time>2017-06-03T11:39:04.000Z</time>
      </trkpt>
      <trkpt lat="45.419190" lon="5.759860">
        <ele>439.353773</ele>
        <time>2017-06-03T11:39:06.000Z</time>
      </trkpt>
      <trkpt lat="45.419110" lon="5.759775">
        <ele>439.177447</ele>
        <time>2017-06-03T11:39:08.000Z</time>
      </trkpt>
      <trkpt lat="45.419033" lon="5.759697">
        <ele>439.010516</ele>
        <time>2017-06-03T11:39:10.000Z</time>
      </trkpt>
      <trkpt lat="45.418957" lon="5.759605">
        <ele>438.834309</ele>
        <time>2017-06-03T11:39:12.000Z</time>
      </trkpt>
      <trkpt lat="45.418877" lon="5.759530">
        <ele>438.665104</ele>
        <time>2017-06-03T11:39:14.000Z</time>
      </trkpt>
      <trkpt lat="45.418804" lon="5.759446">
        <ele>438.499309</ele>
        <time>2017-06-03T11:39:16.000Z</time>
      </trkpt>
      <trkpt lat="45.418724" lon="5.759362">
        <ele>438.323721</ele>
        <time>2017-06-03T11:39:18.000Z</time>
      </trkpt>
      <trkpt lat="45.418648" lon="5.759281">
        <ele>438.156024</ele>
        <time>2017-06-03T11:39:20.000Z</time>
      </trkpt>
      <trkpt lat="45.418570" lon="5.759202">
        <ele>437.986934</ele>
        <time>2017-06-03T11:39:22.000Z</time>
      </trkpt>
      <trkpt lat="45.418490" lon="5.759118">
        <ele>437.811346</ele>
        <time>2017-06-03T11:39:24.000Z</time>
      </trkpt>
      <trkpt lat="45.418410" lon="5.759040">
        <ele>437.640067</ele>
        <time>2017-06-03T11:39:26.000Z</time>
      </trkpt>
      <trkpt lat="45.418330" lon="5.758956">
        <ele>437.464478</ele>
        <time>2017-06-03T11:39:28.000Z</time>
      </trkpt>
      <trkpt lat="45.418255" lon="5.758875">
        <ele>437.298192</ele>
        <time>2017-06-03T11:39:30.000Z</time>
      </trkpt>
      <trkpt lat="45.418180" lon="5.758791">
        <ele>437.129633</ele>
        <time>2017-06-03T11:39:32.000Z</time>
      </trkpt>
      <trkpt lat="45.418102" lon="5.758712">
        <ele>436.960543</ele>
        <time>2017-06-03T11:39:34.000Z</time>
      </trkpt>
      <trkpt lat="45.418022" lon="5.758635">
        <ele>437.038996</ele>
        <time>2017-06-03T11:39:36.000Z</time>
      </trkpt>
      <trkpt lat="45.417946" lon="5.758552">
        <ele>437.134041</ele>
        <time>2017-06-03T11:39:38.000Z</time>
      </trkpt>
      <trkpt lat="45.417866" lon="5.758472">
        <ele>437.231050</ele>
        <time>2017-06-03T11:39:40.000Z</time>
      </trkpt>
      <trkpt lat="45.417790" lon="5.758382">
        <ele>437.329138</ele>
        <time>2017-06-03T11:39:42.000Z</time>
      </trkpt>
      <trkpt lat="45.417710" lon="5.758297">
        <ele>437.428190</ele>
        <time>2017-06-03T11:39:44.000Z</time>
      </trkpt>
      <trkpt lat="45.417630" lon="5.758215">
        <ele>437.526007</ele>
        <time>2017-06-03T11:39:46.000Z</time>
      </trkpt>
      <trkpt lat="45.417545" lon="5.758133">
        <ele>437.627893</ele>
        <time>2017-06-03T11:39:48.000Z</time>
      </trkpt>
      <trkpt lat="45.417460" lon="5.758053">
        <ele>437.729005</ele>
        <time>2017-06-03T11:39:50.000Z</time>
      </trkpt>
      <trkpt lat="45.417380" lon="5.757983">
        <ele>437.822186</ele>
        <time>2017-06-03T11:39:52.000Z</time>
      </trkpt>
      <trkpt lat="45.417297" lon="5.757907">
        <ele>437.920114</ele>
        <time>2017-06-03T11:39:54.000Z</time>
      </trkpt>
      <trkpt lat="45.417225" lon="5.757811">
        <ele>438.017990</ele>
        <time>2017-06-03T11:39:56.000Z</time>
      </trkpt>
      <trkpt lat="45.417118" lon="5.757690">
        <ele>438.153580</ele>
        <time>2017-06-03T11:39:59.000Z</time>
      </trkpt>
      <trkpt lat="45.417034" lon="5.757616">
        <ele>438.251604</ele>
        <time>2017-06-03T11:40:01.000Z</time>
      </trkpt>
      <trkpt lat="45.416954" lon="5.757533">
        <ele>438.349829</ele>
        <time>2017-06-03T11:40:03.000Z</time>
      </trkpt>
      <trkpt lat="45.416840" lon="5.757402">
        <ele>438.495197</ele>
        <time>2017-06-03T11:40:06.000Z</time>
      </trkpt>
      <trkpt lat="45.416770" lon="5.757318">
        <ele>438.586036</ele>
        <time>2017-06-03T11:40:08.000Z</time>
      </trkpt>
      <trkpt lat="45.416676" lon="5.757202">
        <ele>438.709468</ele>
        <time>2017-06-03T11:40:11.000Z</time>
      </trkpt>
      <trkpt lat="45.416573" lon="5.757087">
        <ele>438.712780</ele>
        <time>2017-06-03T11:40:14.000Z</time>
      </trkpt>
      <trkpt lat="45.416466" lon="5.756961">
        <ele>438.684079</ele>
        <time>2017-06-03T11:40:17.000Z</time>
      </trkpt>
      <trkpt lat="45.416397" lon="5.756862">
        <ele>438.663833</ele>
        <time>2017-06-03T11:40:19.000Z</time>
      </trkpt>
      <trkpt lat="45.416332" lon="5.756773">
        <ele>438.645194</ele>
        <time>2017-06-03T11:40:21.000Z</time>
      </trkpt>
      <trkpt lat="45.416267" lon="5.756677">
        <ele>438.625837</ele>
        <time>2017-06-03T11:40:23.000Z</time>
      </trkpt>
      <trkpt lat="45.416176" lon="5.756545">
        <ele>438.598987</ele>
        <time>2017-06-03T11:40:26.000Z</time>
      </trkpt>
      <trkpt lat="45.416100" lon="5.756443">
        <ele>438.577400</ele>
        <time>2017-06-03T11:40:29.000Z</time>
      </trkpt>
      <trkpt lat="45.416030" lon="5.756317">
        <ele>438.554081</ele>
        <time>2017-06-03T11:40:33.000Z</time>
      </trkpt>
      <trkpt lat="45.415955" lon="5.756206">
        <ele>438.531722</ele>
        <time>2017-06-03T11:40:37.000Z</time>
      </trkpt>
      <trkpt lat="45.415890" lon="5.756105">
        <ele>438.511836</ele>
        <time>2017-06-03T11:40:44.000Z</time>
      </trkpt>
      <trkpt lat="45.415977" lon="5.756191">
        <ele>438.489944</ele>
        <time>2017-06-03T11:40:59.000Z</time>
      </trkpt>
      <trkpt lat="45.416030" lon="5.756305">
        <ele>438.470100</ele>
        <time>2017-06-03T11:41:06.000Z</time>
      </trkpt>
      <trkpt lat="45.415966" lon="5.756213">
        <ele>438.451303</ele>
        <time>2017-06-03T11:44:44.000Z</time>
      </trkpt>
      <trkpt lat="45.415897" lon="5.756121">
        <ele>438.431764</ele>
        <time>2017-06-03T11:44:47.000Z</time>
      </trkpt>
      <trkpt lat="45.415806" lon="5.756030">
        <ele>438.408778</ele>
        <time>2017-06-03T11:44:50.000Z</time>
      </trkpt>
      <trkpt lat="45.415690" lon="5.755926">
        <ele>438.380442</ele>
        <time>2017-06-03T11:44:53.000Z</time>
      </trkpt>
      <trkpt lat="45.415577" lon="5.755828">
        <ele>438.407339</ele>
        <time>2017-06-03T11:44:56.000Z</time>
      </trkpt>
      <trkpt lat="45.415460" lon="5.755740">
        <ele>438.533727</ele>
        <time>2017-06-03T11:44:59.000Z</time>
      </trkpt>
      <trkpt lat="45.415340" lon="5.755675">
        <ele>438.656366</ele>
        <time>2017-06-03T11:45:02.000Z</time>
      </trkpt>
      <trkpt lat="45.415240" lon="5.755605">
        <ele>438.762803</ele>
        <time>2017-06-03T11:45:05.000Z</time>
      </trkpt>
      <trkpt lat="45.415123" lon="5.755552">
        <ele>438.880084</ele>
        <time>2017-06-03T11:45:08.000Z</time>
      </trkpt>
      <trkpt lat="45.414997" lon="5.755514">
        <ele>439.003116</ele>
        <time>2017-06-03T11:45:11.000Z</time>
      </trkpt>
      <trkpt lat="45.414898" lon="5.755496">
        <ele>439.098455</ele>
        <time>2017-06-03T11:45:13.000Z</time>
      </trkpt>
      <trkpt lat="45.414803" lon="5.755470">
        <ele>439.190865</ele>
        <time>2017-06-03T11:45:15.000Z</time>
      </trkpt>
      <trkpt lat="45.414703" lon="5.755456">
        <ele>439.286853</ele>
        <time>2017-06-03T11:45:17.000Z</time>
      </trkpt>
      <trkpt lat="45.414604" lon="5.755439">
        <ele>439.382109</ele>
        <time>2017-06-03T11:45:19.000Z</time>
      </trkpt>
      <trkpt lat="45.414497" lon="5.755422">
        <ele>439.484957</ele>
        <time>2017-06-03T11:45:21.000Z</time>
      </trkpt>
      <trkpt lat="45.414400" lon="5.755404">
        <ele>439.578401</ele>
        <time>2017-06-03T11:45:23.000Z</time>
      </trkpt>
      <trkpt lat="45.414265" lon="5.755385">
        <ele>439.707990</ele>
        <time>2017-06-03T11:45:26.000Z</time>
      </trkpt>
      <trkpt lat="45.414130" lon="5.755377">
        <ele>439.837063</ele>
        <time>2017-06-03T11:45:29.000Z</time>
      </trkpt>
      <trkpt lat="45.414000" lon="5.755401">
        <ele>439.962287</ele>
        <time>2017-06-03T11:45:32.000Z</time>
      </trkpt>
      <trkpt lat="45.413876" lon="5.755443">
        <ele>440.087820</ele>
        <time>2017-06-03T11:45:35.000Z</time>
      </trkpt>
      <trkpt lat="45.413773" lon="5.755526">
        <ele>440.338200</ele>
        <time>2017-06-03T11:45:38.000Z</time>
      </trkpt>
      <trkpt lat="45.413690" lon="5.755588">
        <ele>440.536492</ele>
        <time>2017-06-03T11:45:41.000Z</time>
      </trkpt>
      <trkpt lat="45.413616" lon="5.755671">
        <ele>440.735770</ele>
        <time>2017-06-03T11:45:45.000Z</time>
      </trkpt>
      <trkpt lat="45.413548" lon="5.755758">
        <ele>440.929155</ele>
        <time>2017-06-03T11:45:50.000Z</time>
      </trkpt>
      <trkpt lat="45.413467" lon="5.755845">
        <ele>441.143792</ele>
        <time>2017-06-03T11:45:55.000Z</time>
      </trkpt>
      <trkpt lat="45.413387" lon="5.755913">
        <ele>441.340899</ele>
        <time>2017-06-03T11:45:58.000Z</time>
      </trkpt>
      <trkpt lat="45.413277" lon="5.755992">
        <ele>441.601545</ele>
        <time>2017-06-03T11:46:01.000Z</time>
      </trkpt>
      <trkpt lat="45.413162" lon="5.756054">
        <ele>441.861707</ele>
        <time>2017-06-03T11:46:04.000Z</time>
      </trkpt>
      <trkpt lat="45.413033" lon="5.756099">
        <ele>442.142712</ele>
        <time>2017-06-03T11:46:07.000Z</time>
      </trkpt>
      <trkpt lat="45.412937" lon="5.756112">
        <ele>442.346746</ele>
        <time>2017-06-03T11:46:09.000Z</time>
      </trkpt>
      <trkpt lat="45.412838" lon="5.756119">
        <ele>442.556470</ele>
        <time>2017-06-03T11:46:11.000Z</time>
      </trkpt>
      <trkpt lat="45.412740" lon="5.756129">
        <ele>442.764351</ele>
        <time>2017-06-03T11:46:13.000Z</time>
      </trkpt>
      <trkpt lat="45.412636" lon="5.756136">
        <ele>442.984642</ele>
        <time>2017-06-03T11:46:15.000Z</time>
      </trkpt>
      <trkpt lat="45.412533" lon="5.756142">
        <ele>443.202753</ele>
        <time>2017-06-03T11:46:17.000Z</time>
      </trkpt>
      <trkpt lat="45.412430" lon="5.756143">
        <ele>443.420687</ele>
        <time>2017-06-03T11:46:19.000Z</time>
      </trkpt>
      <trkpt lat="45.412327" lon="5.756156">
        <ele>443.639470</ele>
        <time>2017-06-03T11:46:21.000Z</time>
      </trkpt>
      <trkpt lat="45.412230" lon="5.756170">
        <ele>443.845755</ele>
        <time>2017-06-03T11:46:23.000Z</time>
      </trkpt>
      <trkpt lat="45.412140" lon="5.756198">
        <ele>443.903160</ele>
        <time>2017-06-03T11:46:25.000Z</time>
      </trkpt>
      <trkpt lat="45.412050" lon="5.756227">
        <ele>443.924217</ele>
        <time>2017-06-03T11:46:27.000Z</time>
      </trkpt>
      <trkpt lat="45.411957" lon="5.756250">
        <ele>443.945758</ele>
        <time>2017-06-03T11:46:29.000Z</time>
      </trkpt>
      <trkpt lat="45.411846" lon="5.756318">
        <ele>443.973332</ele>
        <time>2017-06-03T11:46:32.000Z</time>
      </trkpt>
      <trkpt lat="45.411760" lon="5.756373">
        <ele>443.994844</ele>
        <time>2017-06-03T11:46:34.000Z</time>
      </trkpt>
      <trkpt lat="45.411667" lon="5.756423">
        <ele>444.017529</ele>
        <time>2017-06-03T11:46:36.000Z</time>
      </trkpt>
      <trkpt lat="45.411583" lon="5.756472">
        <ele>444.038243</ele>
        <time>2017-06-03T11:46:38.000Z</time>
      </trkpt>
      <trkpt lat="45.411495" lon="5.756520">
        <ele>444.059747</ele>
        <time>2017-06-03T11:46:40.000Z</time>
      </trkpt>
      <trkpt lat="45.411407" lon="5.756582">
        <ele>444.082151</ele>
        <time>2017-06-03T11:46:42.000Z</time>
      </trkpt>
      <trkpt lat="45.411327" lon="5.756650">
        <ele>444.103410</ele>
        <time>2017-06-03T11:46:44.000Z</time>
      </trkpt>
      <trkpt lat="45.411243" lon="5.756714">
        <ele>444.125149</ele>
        <time>2017-06-03T11:46:46.000Z</time>
      </trkpt>
      <trkpt lat="45.411160" lon="5.756791">
        <ele>444.147753</ele>
        <time>2017-06-03T11:46:48.000Z</time>
      </trkpt>
      <trkpt lat="45.411080" lon="5.756873">
        <ele>444.170244</ele>
        <time>2017-06-03T11:46:50.000Z</time>
      </trkpt>
      <trkpt lat="45.411000" lon="5.756951">
        <ele>444.192367</ele>
        <time>2017-06-03T11:46:52.000Z</time>
      </trkpt>
      <trkpt lat="45.410910" lon="5.757035">
        <ele>444.216922</ele>
        <time>2017-06-03T11:46:54.000Z</time>
      </trkpt>
      <trkpt lat="45.410830" lon="5.757121">
        <ele>444.239793</ele>
        <time>2017-06-03T11:46:56.000Z</time>
      </trkpt>
      <trkpt lat="45.410767" lon="5.757237">
        <ele>444.263289</ele>
        <time>2017-06-03T11:46:58.000Z</time>
      </trkpt>
      <trkpt lat="45.410720" lon="5.757363">
        <ele>444.286147</ele>
        <time>2017-06-03T11:47:00.000Z</time>
      </trkpt>
      <trkpt lat="45.410694" lon="5.757497">
        <ele>444.342831</ele>
        <time>2017-06-03T11:47:02.000Z</time>
      </trkpt>
      <trkpt lat="45.410670" lon="5.757636">
        <ele>444.434829</ele>
        <time>2017-06-03T11:47:04.000Z</time>
      </trkpt>
      <trkpt lat="45.410652" lon="5.757768">
        <ele>444.521251</ele>
        <time>2017-06-03T11:47:06.000Z</time>
      </trkpt>
      <trkpt lat="45.410618" lon="5.757950">
        <ele>444.642294</ele>
        <time>2017-06-03T11:47:09.000Z</time>
      </trkpt>
      <trkpt lat="45.410606" lon="5.758089">
        <ele>444.732303</ele>
        <time>2017-06-03T11:47:12.000Z</time>
      </trkpt>
      <trkpt lat="45.410572" lon="5.758219">
        <ele>444.821464</ele>
        <time>2017-06-03T11:47:15.000Z</time>
      </trkpt>
      <trkpt lat="45.410492" lon="5.758345">
        <ele>444.930652</ele>
        <time>2017-06-03T11:47:19.000Z</time>
      </trkpt>
      <trkpt lat="45.410420" lon="5.758468">
        <ele>445.033580</ele>
        <time>2017-06-03T11:47:22.000Z</time>
      </trkpt>
      <trkpt lat="45.410336" lon="5.758586">
        <ele>445.141588</ele>
        <time>2017-06-03T11:47:25.000Z</time>
      </trkpt>
      <trkpt lat="45.410260" lon="5.758709">
        <ele>445.246899</ele>
        <time>2017-06-03T11:47:28.000Z</time>
      </trkpt>
      <trkpt lat="45.410160" lon="5.758802">
        <ele>445.356234</ele>
        <time>2017-06-03T11:47:31.000Z</time>
      </trkpt>
      <trkpt lat="45.410046" lon="5.758846">
        <ele>445.464365</ele>
        <time>2017-06-03T11:47:34.000Z</time>
      </trkpt>
      <trkpt lat="45.409924" lon="5.758852">
        <ele>445.576123</ele>
        <time>2017-06-03T11:47:37.000Z</time>
      </trkpt>
      <trkpt lat="45.409790" lon="5.758832">
        <ele>445.699472</ele>
        <time>2017-06-03T11:47:40.000Z</time>
      </trkpt>
      <trkpt lat="45.409668" lon="5.758822">
        <ele>445.811348</ele>
        <time>2017-06-03T11:47:43.000Z</time>
      </trkpt>
      <trkpt lat="45.409540" lon="5.758828">
        <ele>445.928596</ele>
        <time>2017-06-03T11:47:46.000Z</time>
      </trkpt>
      <trkpt lat="45.409440" lon="5.758829">
        <ele>446.054279</ele>
        <time>2017-06-03T11:47:48.000Z</time>
      </trkpt>
      <trkpt lat="45.409348" lon="5.758834">
        <ele>446.176177</ele>
        <time>2017-06-03T11:47:50.000Z</time>
      </trkpt>
      <trkpt lat="45.409214" lon="5.758833">
        <ele>446.353596</ele>
        <time>2017-06-03T11:47:53.000Z</time>
      </trkpt>
      <trkpt lat="45.409092" lon="5.758826">
        <ele>446.515257</ele>
        <time>2017-06-03T11:47:56.000Z</time>
      </trkpt>
      <trkpt lat="45.408966" lon="5.758827">
        <ele>446.682084</ele>
        <time>2017-06-03T11:47:59.000Z</time>
      </trkpt>
      <trkpt lat="45.408836" lon="5.758833">
        <ele>446.854296</ele>
        <time>2017-06-03T11:48:02.000Z</time>
      </trkpt>
      <trkpt lat="45.408707" lon="5.758839">
        <ele>447.025184</ele>
        <time>2017-06-03T11:48:05.000Z</time>
      </trkpt>
      <trkpt lat="45.408573" lon="5.758849">
        <ele>447.202845</ele>
        <time>2017-06-03T11:48:08.000Z</time>
      </trkpt>
      <trkpt lat="45.408478" lon="5.758859">
        <ele>447.328969</ele>
        <time>2017-06-03T11:48:10.000Z</time>
      </trkpt>
      <trkpt lat="45.408382" lon="5.758859">
        <ele>447.456074</ele>
        <time>2017-06-03T11:48:12.000Z</time>
      </trkpt>
      <trkpt lat="45.408264" lon="5.758843">
        <ele>447.613013</ele>
        <time>2017-06-03T11:48:15.000Z</time>
      </trkpt>
      <trkpt lat="45.408134" lon="5.758843">
        <ele>447.785134</ele>
        <time>2017-06-03T11:48:18.000Z</time>
      </trkpt>
      <trkpt lat="45.408016" lon="5.758840">
        <ele>447.941393</ele>
        <time>2017-06-03T11:48:21.000Z</time>
      </trkpt>
      <trkpt lat="45.407900" lon="5.758848">
        <ele>448.095158</ele>
        <time>2017-06-03T11:48:24.000Z</time>
      </trkpt>
      <trkpt lat="45.407795" lon="5.758863">
        <ele>448.234876</ele>
        <time>2017-06-03T11:48:27.000Z</time>
      </trkpt>
      <trkpt lat="45.407680" lon="5.758852">
        <ele>448.421236</ele>
        <time>2017-06-03T11:48:30.000Z</time>
      </trkpt>
      <trkpt lat="45.407562" lon="5.758846">
        <ele>448.662137</ele>
        <time>2017-06-03T11:48:33.000Z</time>
      </trkpt>
      <trkpt lat="45.407444" lon="5.758857">
        <ele>448.903399</ele>
        <time>2017-06-03T11:48:36.000Z</time>
      </trkpt>
      <trkpt lat="45.407326" lon="5.758874">
        <ele>449.145375</ele>
        <time>2017-06-03T11:48:39.000Z</time>
      </trkpt>
      <trkpt lat="45.407230" lon="5.758866">
        <ele>449.341572</ele>
        <time>2017-06-03T11:48:44.000Z</time>
      </trkpt>
      <trkpt lat="45.407170" lon="5.758736">
        <ele>449.564415</ele>
        <time>2017-06-03T11:48:48.000Z</time>
      </trkpt>
      <trkpt lat="45.407112" lon="5.758608">
        <ele>449.782630</ele>
        <time>2017-06-03T11:48:51.000Z</time>
      </trkpt>
      <trkpt lat="45.407050" lon="5.758481">
        <ele>450.004199</ele>
        <time>2017-06-03T11:48:54.000Z</time>
      </trkpt>
      <trkpt lat="45.406986" lon="5.758339">
        <ele>450.245902</ele>
        <time>2017-06-03T11:48:57.000Z</time>
      </trkpt>
      <trkpt lat="45.406918" lon="5.758214">
        <ele>450.472409</ele>
        <time>2017-06-03T11:49:00.000Z</time>
      </trkpt>
      <trkpt lat="45.406830" lon="5.758089">
        <ele>450.725970</ele>
        <time>2017-06-03T11:49:03.000Z</time>
      </trkpt>
      <trkpt lat="45.406742" lon="5.757980">
        <ele>450.963901</ele>
        <time>2017-06-03T11:49:06.000Z</time>
      </trkpt>
      <trkpt lat="45.406666" lon="5.757859">
        <ele>451.196457</ele>
        <time>2017-06-03T11:49:09.000Z</time>
      </trkpt>
      <trkpt lat="45.406597" lon="5.757743">
        <ele>451.414232</ele>
        <time>2017-06-03T11:49:12.000Z</time>
      </trkpt>
      <trkpt lat="45.406525" lon="5.757627">
        <ele>451.636013</ele>
        <time>2017-06-03T11:49:15.000Z</time>
      </trkpt>
      <trkpt lat="45.406450" lon="5.757502">
        <ele>451.871540</ele>
        <time>2017-06-03T11:49:18.000Z</time>
      </trkpt>
      <trkpt lat="45.406372" lon="5.757390">
        <ele>452.137780</ele>
        <time>2017-06-03T11:49:21.000Z</time>
      </trkpt>
      <trkpt lat="45.406300" lon="5.757283">
        <ele>452.433255</ele>
        <time>2017-06-03T11:49:24.000Z</time>
      </trkpt>
      <trkpt lat="45.406223" lon="5.757195">
        <ele>452.713589</ele>
        <time>2017-06-03T11:49:27.000Z</time>
      </trkpt>
      <trkpt lat="45.406143" lon="5.757095">
        <ele>453.015834</ele>
        <time>2017-06-03T11:49:30.000Z</time>
      </trkpt>
      <trkpt lat="45.406063" lon="5.757006">
        <ele>453.304085</ele>
        <time>2017-06-03T11:49:33.000Z</time>
      </trkpt>
      <trkpt lat="45.405970" lon="5.756939">
        <ele>453.600029</ele>
        <time>2017-06-03T11:49:36.000Z</time>
      </trkpt>
      <trkpt lat="45.405888" lon="5.756868">
        <ele>453.872527</ele>
        <time>2017-06-03T11:49:39.000Z</time>
      </trkpt>
      <trkpt lat="45.405800" lon="5.756805">
        <ele>454.152203</ele>
        <time>2017-06-03T11:49:42.000Z</time>
      </trkpt>
      <trkpt lat="45.405716" lon="5.756745">
        <ele>454.419045</ele>
        <time>2017-06-03T11:49:45.000Z</time>
      </trkpt>
      <trkpt lat="45.405613" lon="5.756661">
        <ele>454.756076</ele>
        <time>2017-06-03T11:49:49.000Z</time>
      </trkpt>
      <trkpt lat="45.405530" lon="5.756586">
        <ele>455.035194</ele>
        <time>2017-06-03T11:49:52.000Z</time>
      </trkpt>
      <trkpt lat="45.405453" lon="5.756502">
        <ele>455.310609</ele>
        <time>2017-06-03T11:49:55.000Z</time>
      </trkpt>
      <trkpt lat="45.405354" lon="5.756394">
        <ele>455.664715</ele>
        <time>2017-06-03T11:49:58.000Z</time>
      </trkpt>
      <trkpt lat="45.405262" lon="5.756294">
        <ele>455.993343</ele>
        <time>2017-06-03T11:50:01.000Z</time>
      </trkpt>
      <trkpt lat="45.405190" lon="5.756210">
        <ele>456.257628</ele>
        <time>2017-06-03T11:50:03.000Z</time>
      </trkpt>
      <trkpt lat="45.405130" lon="5.756098">
        <ele>456.538497</ele>
        <time>2017-06-03T11:50:05.000Z</time>
      </trkpt>
      <trkpt lat="45.405075" lon="5.755995">
        <ele>456.796488</ele>
        <time>2017-06-03T11:50:07.000Z</time>
      </trkpt>
      <trkpt lat="45.405003" lon="5.755846">
        <ele>457.150245</ele>
        <time>2017-06-03T11:50:10.000Z</time>
      </trkpt>
      <trkpt lat="45.404926" lon="5.755695">
        <ele>457.475830</ele>
        <time>2017-06-03T11:50:13.000Z</time>
      </trkpt>
      <trkpt lat="45.404858" lon="5.755534">
        <ele>457.803616</ele>
        <time>2017-06-03T11:50:16.000Z</time>
      </trkpt>
      <trkpt lat="45.404808" lon="5.755427">
        <ele>458.027853</ele>
        <time>2017-06-03T11:50:18.000Z</time>
      </trkpt>
      <trkpt lat="45.404755" lon="5.755320">
        <ele>458.256305</ele>
        <time>2017-06-03T11:50:20.000Z</time>
      </trkpt>
      <trkpt lat="45.404680" lon="5.755177">
        <ele>458.567705</ele>
        <time>2017-06-03T11:50:23.000Z</time>
      </trkpt>
      <trkpt lat="45.404630" lon="5.755052">
        <ele>458.818689</ele>
        <time>2017-06-03T11:50:26.000Z</time>
      </trkpt>
      <trkpt lat="45.404540" lon="5.754963">
        <ele>459.090942</ele>
        <time>2017-06-03T11:50:30.000Z</time>
      </trkpt>
      <trkpt lat="45.404460" lon="5.755037">
        <ele>459.327972</ele>
        <time>2017-06-03T11:50:33.000Z</time>
      </trkpt>
      <trkpt lat="45.404380" lon="5.755163">
        <ele>459.624346</ele>
        <time>2017-06-03T11:50:37.000Z</time>
      </trkpt>
      <trkpt lat="45.404316" lon="5.755263">
        <ele>459.860412</ele>
        <time>2017-06-03T11:50:40.000Z</time>
      </trkpt>
      <trkpt lat="45.404247" lon="5.755377">
        <ele>460.122999</ele>
        <time>2017-06-03T11:50:45.000Z</time>
      </trkpt>
      <trkpt lat="45.404182" lon="5.755486">
        <ele>460.372497</ele>
        <time>2017-06-03T11:50:52.000Z</time>
      </trkpt>
      <trkpt lat="45.404118" lon="5.755583">
        <ele>460.604722</ele>
        <time>2017-06-03T11:50:58.000Z</time>
      </trkpt>
      <trkpt lat="45.404050" lon="5.755700">
        <ele>460.869704</ele>
        <time>2017-06-03T11:51:04.000Z</time>
      </trkpt>
      <trkpt lat="45.404000" lon="5.755824">
        <ele>461.119175</ele>
        <time>2017-06-03T11:51:10.000Z</time>
      </trkpt>
      <trkpt lat="45.403934" lon="5.755942">
        <ele>461.382379</ele>
        <time>2017-06-03T11:51:16.000Z</time>
      </trkpt>
      <trkpt lat="45.403866" lon="5.756061">
        <ele>461.857884</ele>
        <time>2017-06-03T11:51:22.000Z</time>
      </trkpt>
      <trkpt lat="45.403812" lon="5.756171">
        <ele>462.711934</ele>
        <time>2017-06-03T11:51:27.000Z</time>
      </trkpt>
      <trkpt lat="45.403767" lon="5.756305">
        <ele>463.657088</ele>
        <time>2017-06-03T11:51:32.000Z</time>
      </trkpt>
      <trkpt lat="45.403732" lon="5.756439">
        <ele>464.566820</ele>
        <time>2017-06-03T11:51:37.000Z</time>
      </trkpt>
      <trkpt lat="45.403700" lon="5.756562">
        <ele>465.401472</ele>
        <time>2017-06-03T11:51:42.000Z</time>
      </trkpt>
      <trkpt lat="45.403680" lon="5.756713">
        <ele>466.379233</ele>
        <time>2017-06-03T11:51:47.000Z</time>
      </trkpt>
      <trkpt lat="45.403667" lon="5.756867">
        <ele>467.366193</ele>
        <time>2017-06-03T11:51:52.000Z</time>
      </trkpt>
      <trkpt lat="45.403664" lon="5.756998">
        <ele>468.200191</ele>
        <time>2017-06-03T11:51:57.000Z</time>
      </trkpt>
      <trkpt lat="45.403645" lon="5.757143">
        <ele>469.138758</ele>
        <time>2017-06-03T11:52:02.000Z</time>
      </trkpt>
      <trkpt lat="45.403618" lon="5.757275">
        <ele>470.013593</ele>
        <time>2017-06-03T11:52:07.000Z</time>
      </trkpt>
      <trkpt lat="45.403584" lon="5.757401">
        <ele>470.872507</ele>
        <time>2017-06-03T11:52:12.000Z</time>
      </trkpt>
      <trkpt lat="45.403534" lon="5.757524">
        <ele>471.776872</ele>
        <time>2017-06-03T11:52:17.000Z</time>
      </trkpt>
      <trkpt lat="45.403458" lon="5.757623">
        <ele>472.710266</ele>
        <time>2017-06-03T11:52:22.000Z</time>
      </trkpt>
      <trkpt lat="45.403378" lon="5.757705">
        <ele>473.603516</ele>
        <time>2017-06-03T11:52:28.000Z</time>
      </trkpt>
      <trkpt lat="45.403305" lon="5.757793">
        <ele>474.470250</ele>
        <time>2017-06-03T11:52:33.000Z</time>
      </trkpt>
      <trkpt lat="45.403236" lon="5.757891">
        <ele>475.353362</ele>
        <time>2017-06-03T11:52:38.000Z</time>
      </trkpt>
      <trkpt lat="45.403180" lon="5.758015">
        <ele>476.291510</ele>
        <time>2017-06-03T11:52:43.000Z</time>
      </trkpt>
      <trkpt lat="45.403120" lon="5.758138">
        <ele>477.244521</ele>
        <time>2017-06-03T11:52:48.000Z</time>
      </trkpt>
      <trkpt lat="45.403027" lon="5.758180">
        <ele>478.255627</ele>
        <time>2017-06-03T11:52:53.000Z</time>
      </trkpt>
      <trkpt lat="45.402924" lon="5.758179">
        <ele>479.650916</ele>
        <time>2017-06-03T11:52:58.000Z</time>
      </trkpt>
      <trkpt lat="45.402840" lon="5.758098">
        <ele>481.025061</ele>
        <time>2017-06-03T11:53:03.000Z</time>
      </trkpt>
      <trkpt lat="45.402770" lon="5.757981">
        <ele>482.487061</ele>
        <time>2017-06-03T11:53:09.000Z</time>
      </trkpt>
      <trkpt lat="45.402730" lon="5.757855">
        <ele>483.802256</ele>
        <time>2017-06-03T11:53:15.000Z</time>
      </trkpt>
      <trkpt lat="45.402676" lon="5.757649">
        <ele>485.893628</ele>
        <time>2017-06-03T11:55:02.000Z</time>
      </trkpt>
      <trkpt lat="45.402650" lon="5.757512">
        <ele>487.243402</ele>
        <time>2017-06-03T11:55:07.000Z</time>
      </trkpt>
      <trkpt lat="45.402615" lon="5.757387">
        <ele>488.523334</ele>
        <time>2017-06-03T11:55:12.000Z</time>
      </trkpt>
      <trkpt lat="45.402560" lon="5.757268">
        <ele>489.878359</ele>
        <time>2017-06-03T11:55:16.000Z</time>
      </trkpt>
      <trkpt lat="45.402508" lon="5.757165">
        <ele>491.084955</ele>
        <time>2017-06-03T11:55:20.000Z</time>
      </trkpt>
      <trkpt lat="45.402454" lon="5.757048">
        <ele>492.416645</ele>
        <time>2017-06-03T11:55:27.000Z</time>
      </trkpt>
      <trkpt lat="45.402390" lon="5.756947">
        <ele>493.710633</ele>
        <time>2017-06-03T11:55:36.000Z</time>
      </trkpt>
      <trkpt lat="45.402313" lon="5.756875">
        <ele>494.958397</ele>
        <time>2017-06-03T11:55:44.000Z</time>
      </trkpt>
      <trkpt lat="45.402230" lon="5.756793">
        <ele>496.326749</ele>
        <time>2017-06-03T11:55:52.000Z</time>
      </trkpt>
      <trkpt lat="45.402130" lon="5.756738">
        <ele>497.778863</ele>
        <time>2017-06-03T11:56:14.000Z</time>
      </trkpt>
      <trkpt lat="45.402042" lon="5.756695">
        <ele>499.039134</ele>
        <time>2017-06-03T11:56:25.000Z</time>
      </trkpt>
      <trkpt lat="45.401950" lon="5.756662">
        <ele>500.324299</ele>
        <time>2017-06-03T11:56:36.000Z</time>
      </trkpt>
      <trkpt lat="45.401860" lon="5.756624">
        <ele>501.595900</ele>
        <time>2017-06-03T11:56:47.000Z</time>
      </trkpt>
      <trkpt lat="45.401770" lon="5.756589">
        <ele>502.966803</ele>
        <time>2017-06-03T11:56:56.000Z</time>
      </trkpt>
      <trkpt lat="45.401676" lon="5.756548">
        <ele>504.527572</ele>
        <time>2017-06-03T11:57:06.000Z</time>
      </trkpt>
      <trkpt lat="45.401592" lon="5.756487">
        <ele>506.024514</ele>
        <time>2017-06-03T11:57:18.000Z</time>
      </trkpt>
      <trkpt lat="45.401505" lon="5.756431">
        <ele>507.540247</ele>
        <time>2017-06-03T11:57:30.000Z</time>
      </trkpt>
      <trkpt lat="45.401420" lon="5.756380">
        <ele>509.004578</ele>
        <time>2017-06-03T11:57:38.000Z</time>
      </trkpt>
      <trkpt lat="45.401337" lon="5.756345">
        <ele>510.378840</ele>
        <time>2017-06-03T11:57:47.000Z</time>
      </trkpt>
      <trkpt lat="45.401264" lon="5.756268">
        <ele>511.821031</ele>
        <time>2017-06-03T11:58:00.000Z</time>
      </trkpt>
      <trkpt lat="45.401176" lon="5.756219">
        <ele>513.321108</ele>
        <time>2017-06-03T11:58:09.000Z</time>
      </trkpt>
      <trkpt lat="45.401080" lon="5.756167">
        <ele>514.951721</ele>
        <time>2017-06-03T11:58:36.000Z</time>
      </trkpt>
      <trkpt lat="45.401005" lon="5.756093">
        <ele>516.400251</ele>
        <time>2017-06-03T11:58:47.000Z</time>
      </trkpt>
      <trkpt lat="45.400925" lon="5.756024">
        <ele>517.885086</ele>
        <time>2017-06-03T11:59:00.000Z</time>
      </trkpt>
      <trkpt lat="45.400852" lon="5.755948">
        <ele>519.320674</ele>
        <time>2017-06-03T11:59:11.000Z</time>
      </trkpt>
      <trkpt lat="45.400776" lon="5.755873">
        <ele>520.788605</ele>
        <time>2017-06-03T11:59:24.000Z</time>
      </trkpt>
      <trkpt lat="45.400690" lon="5.755803">
        <ele>522.361199</ele>
        <time>2017-06-03T11:59:39.000Z</time>
      </trkpt>
      <trkpt lat="45.400604" lon="5.755720">
        <ele>524.010506</ele>
        <time>2017-06-03T12:00:21.000Z</time>
      </trkpt>
      <trkpt lat="45.400517" lon="5.755649">
        <ele>525.602418</ele>
        <time>2017-06-03T12:00:29.000Z</time>
      </trkpt>
      <trkpt lat="45.400433" lon="5.755600">
        <ele>527.043538</ele>
        <time>2017-06-03T12:00:41.000Z</time>
      </trkpt>
      <trkpt lat="45.400340" lon="5.755553">
        <ele>528.610218</ele>
        <time>2017-06-03T12:00:51.000Z</time>
      </trkpt>
      <trkpt lat="45.400250" lon="5.755551">
        <ele>530.039241</ele>
        <time>2017-06-03T12:01:02.000Z</time>
      </trkpt>
      <trkpt lat="45.400154" lon="5.755549">
        <ele>531.330139</ele>
        <time>2017-06-03T12:01:12.000Z</time>
      </trkpt>
      <trkpt lat="45.400063" lon="5.755535">
        <ele>532.343511</ele>
        <time>2017-06-03T12:01:23.000Z</time>
      </trkpt>
      <trkpt lat="45.399980" lon="5.755497">
        <ele>533.308764</ele>
        <time>2017-06-03T12:01:45.000Z</time>
      </trkpt>
      <trkpt lat="45.399890" lon="5.755440">
        <ele>534.399286</ele>
        <time>2017-06-03T12:01:58.000Z</time>
      </trkpt>
      <trkpt lat="45.399807" lon="5.755376">
        <ele>535.444267</ele>
        <time>2017-06-03T12:02:08.000Z</time>
      </trkpt>
      <trkpt lat="45.399723" lon="5.755314">
        <ele>536.491753</ele>
        <time>2017-06-03T12:02:19.000Z</time>
      </trkpt>
      <trkpt lat="45.399643" lon="5.755255">
        <ele>537.489188</ele>
        <time>2017-06-03T12:02:29.000Z</time>
      </trkpt>
      <trkpt lat="45.399550" lon="5.755220">
        <ele>538.554185</ele>
        <time>2017-06-03T12:02:41.000Z</time>
      </trkpt>
      <trkpt lat="45.399464" lon="5.755174">
        <ele>539.571276</ele>
        <time>2017-06-03T12:02:54.000Z</time>
      </trkpt>
      <trkpt lat="45.399376" lon="5.755134">
        <ele>540.593992</ele>
        <time>2017-06-03T12:03:03.000Z</time>
      </trkpt>
      <trkpt lat="45.399307" lon="5.755044">
        <ele>541.629908</ele>
        <time>2017-06-03T12:03:13.000Z</time>
      </trkpt>
      <trkpt lat="45.399227" lon="5.754962">
        <ele>542.721179</ele>
        <time>2017-06-03T12:03:20.000Z</time>
      </trkpt>
      <trkpt lat="45.399143" lon="5.754889">
        <ele>543.810665</ele>
        <time>2017-06-03T12:03:29.000Z</time>
      </trkpt>
      <trkpt lat="45.399050" lon="5.754834">
        <ele>544.925565</ele>
        <time>2017-06-03T12:03:39.000Z</time>
      </trkpt>
      <trkpt lat="45.398956" lon="5.754788">
        <ele>546.026015</ele>
        <time>2017-06-03T12:03:49.000Z</time>
      </trkpt>
      <trkpt lat="45.398860" lon="5.754755">
        <ele>547.119406</ele>
        <time>2017-06-03T12:03:59.000Z</time>
      </trkpt>
      <trkpt lat="45.398770" lon="5.754723">
        <ele>548.146429</ele>
        <time>2017-06-03T12:04:09.000Z</time>
      </trkpt>
      <trkpt lat="45.398680" lon="5.754680">
        <ele>549.197446</ele>
        <time>2017-06-03T12:04:17.000Z</time>
      </trkpt>
      <trkpt lat="45.398594" lon="5.754616">
        <ele>550.271756</ele>
        <time>2017-06-03T12:04:30.000Z</time>
      </trkpt>
      <trkpt lat="45.398500" lon="5.754575">
        <ele>550.533969</ele>
        <time>2017-06-03T12:04:41.000Z</time>
      </trkpt>
      <trkpt lat="45.398407" lon="5.754528">
        <ele>550.246424</ele>
        <time>2017-06-03T12:04:48.000Z</time>
      </trkpt>
      <trkpt lat="45.398342" lon="5.754427">
        <ele>549.966109</ele>
        <time>2017-06-03T12:05:01.000Z</time>
      </trkpt>
      <trkpt lat="45.398407" lon="5.754282">
        <ele>549.614131</ele>
        <time>2017-06-03T12:05:05.000Z</time>
      </trkpt>
      <trkpt lat="45.398464" lon="5.754153">
        <ele>549.302284</ele>
        <time>2017-06-03T12:05:07.000Z</time>
      </trkpt>
      <trkpt lat="45.398520" lon="5.754032">
        <ele>549.005776</ele>
        <time>2017-06-03T12:05:09.000Z</time>
      </trkpt>
      <trkpt lat="45.398556" lon="5.753897">
        <ele>548.710314</ele>
        <time>2017-06-03T12:05:11.000Z</time>
      </trkpt>
      <trkpt lat="45.398552" lon="5.753736">
        <ele>548.380698</ele>
        <time>2017-06-03T12:05:13.000Z</time>
      </trkpt>
      <trkpt lat="45.398480" lon="5.753578">
        <ele>547.995315</ele>
        <time>2017-06-03T12:05:15.000Z</time>
      </trkpt>
      <trkpt lat="45.398380" lon="5.753461">
        <ele>547.618207</ele>
        <time>2017-06-03T12:05:17.000Z</time>
      </trkpt>
      <trkpt lat="45.398285" lon="5.753357">
        <ele>547.269057</ele>
        <time>2017-06-03T12:05:19.000Z</time>
      </trkpt>
      <trkpt lat="45.398186" lon="5.753256">
        <ele>546.914205</ele>
        <time>2017-06-03T12:05:21.000Z</time>
      </trkpt>
      <trkpt lat="45.398090" lon="5.753156">
        <ele>546.567633</ele>
        <time>2017-06-03T12:05:23.000Z</time>
      </trkpt>
      <trkpt lat="45.397995" lon="5.753040">
        <ele>546.202999</ele>
        <time>2017-06-03T12:05:25.000Z</time>
      </trkpt>
      <trkpt lat="45.397910" lon="5.752926">
        <ele>545.862780</ele>
        <time>2017-06-03T12:05:27.000Z</time>
      </trkpt>
      <trkpt lat="45.397816" lon="5.752818">
        <ele>545.510854</ele>
        <time>2017-06-03T12:05:29.000Z</time>
      </trkpt>
      <trkpt lat="45.397713" lon="5.752709">
        <ele>544.904588</ele>
        <time>2017-06-03T12:05:31.000Z</time>
      </trkpt>
      <trkpt lat="45.397610" lon="5.752605">
        <ele>544.276214</ele>
        <time>2017-06-03T12:05:33.000Z</time>
      </trkpt>
      <trkpt lat="45.397510" lon="5.752464">
        <ele>543.575876</ele>
        <time>2017-06-03T12:05:35.000Z</time>
      </trkpt>
      <trkpt lat="45.397415" lon="5.752312">
        <ele>542.864759</ele>
        <time>2017-06-03T12:05:37.000Z</time>
      </trkpt>
      <trkpt lat="45.397320" lon="5.752160">
        <ele>542.153642</ele>
        <time>2017-06-03T12:05:39.000Z</time>
      </trkpt>
      <trkpt lat="45.397210" lon="5.752012">
        <ele>541.400518</ele>
        <time>2017-06-03T12:05:41.000Z</time>
      </trkpt>
      <trkpt lat="45.397110" lon="5.751872">
        <ele>540.702631</ele>
        <time>2017-06-03T12:05:43.000Z</time>
      </trkpt>
      <trkpt lat="45.397038" lon="5.751737">
        <ele>540.110203</ele>
        <time>2017-06-03T12:05:45.000Z</time>
      </trkpt>
      <trkpt lat="45.396946" lon="5.751612">
        <ele>539.477385</ele>
        <time>2017-06-03T12:05:47.000Z</time>
      </trkpt>
      <trkpt lat="45.396847" lon="5.751441">
        <ele>538.702878</ele>
        <time>2017-06-03T12:05:49.000Z</time>
      </trkpt>
      <trkpt lat="45.396755" lon="5.751294">
        <ele>538.014736</ele>
        <time>2017-06-03T12:05:51.000Z</time>
      </trkpt>
      <trkpt lat="45.396667" lon="5.751174">
        <ele>537.408380</ele>
        <time>2017-06-03T12:05:53.000Z</time>
      </trkpt>
      <trkpt lat="45.396580" lon="5.751051">
        <ele>536.798268</ele>
        <time>2017-06-03T12:05:55.000Z</time>
      </trkpt>
      <trkpt lat="45.396507" lon="5.750918">
        <ele>536.084937</ele>
        <time>2017-06-03T12:05:57.000Z</time>
      </trkpt>
      <trkpt lat="45.396458" lon="5.750776">
        <ele>535.308569</ele>
        <time>2017-06-03T12:05:59.000Z</time>
      </trkpt>
      <trkpt lat="45.396408" lon="5.750620">
        <ele>534.467121</ele>
        <time>2017-06-03T12:06:01.000Z</time>
      </trkpt>
      <trkpt lat="45.396340" lon="5.750426">
        <ele>533.403171</ele>
        <time>2017-06-03T12:06:03.000Z</time>
      </trkpt>
      <trkpt lat="45.396240" lon="5.750254">
        <ele>532.307437</ele>
        <time>2017-06-03T12:06:05.000Z</time>
      </trkpt>
      <trkpt lat="45.396126" lon="5.750081">
        <ele>531.143289</ele>
        <time>2017-06-03T12:06:07.000Z</time>
      </trkpt>
      <trkpt lat="45.396004" lon="5.749908">
        <ele>529.940194</ele>
        <time>2017-06-03T12:06:09.000Z</time>
      </trkpt>
      <trkpt lat="45.395885" lon="5.749730">
        <ele>528.734211</ele>
        <time>2017-06-03T12:06:11.000Z</time>
      </trkpt>
      <trkpt lat="45.395752" lon="5.749583">
        <ele>527.557740</ele>
        <time>2017-06-03T12:06:13.000Z</time>
      </trkpt>
      <trkpt lat="45.395634" lon="5.749438">
        <ele>526.468624</ele>
        <time>2017-06-03T12:06:15.000Z</time>
      </trkpt>
      <trkpt lat="45.395535" lon="5.749311">
        <ele>525.537518</ele>
        <time>2017-06-03T12:06:17.000Z</time>
      </trkpt>
      <trkpt lat="45.395440" lon="5.749188">
        <ele>524.640308</ele>
        <time>2017-06-03T12:06:19.000Z</time>
      </trkpt>
      <trkpt lat="45.395350" lon="5.749074">
        <ele>523.823291</ele>
        <time>2017-06-03T12:06:21.000Z</time>
      </trkpt>
      <trkpt lat="45.395270" lon="5.748959">
        <ele>523.162997</ele>
        <time>2017-06-03T12:06:23.000Z</time>
      </trkpt>
      <trkpt lat="45.395190" lon="5.748838">
        <ele>522.485097</ele>
        <time>2017-06-03T12:06:25.000Z</time>
      </trkpt>
      <trkpt lat="45.395100" lon="5.748747">
        <ele>521.843934</ele>
        <time>2017-06-03T12:06:27.000Z</time>
      </trkpt>
      <trkpt lat="45.395000" lon="5.748691">
        <ele>521.219757</ele>
        <time>2017-06-03T12:06:29.000Z</time>
      </trkpt>
      <trkpt lat="45.394882" lon="5.748642">
        <ele>520.505774</ele>
        <time>2017-06-03T12:06:31.000Z</time>
      </trkpt>
      <trkpt lat="45.394760" lon="5.748562">
        <ele>519.725581</ele>
        <time>2017-06-03T12:06:33.000Z</time>
      </trkpt>
      <trkpt lat="45.394640" lon="5.748443">
        <ele>518.876169</ele>
        <time>2017-06-03T12:06:35.000Z</time>
      </trkpt>
      <trkpt lat="45.394550" lon="5.748310">
        <ele>518.122757</ele>
        <time>2017-06-03T12:06:37.000Z</time>
      </trkpt>
      <trkpt lat="45.394490" lon="5.748119">
        <ele>517.269255</ele>
        <time>2017-06-03T12:06:39.000Z</time>
      </trkpt>
      <trkpt lat="45.394413" lon="5.747935">
        <ele>516.395542</ele>
        <time>2017-06-03T12:06:41.000Z</time>
      </trkpt>
      <trkpt lat="45.394310" lon="5.747783">
        <ele>515.533922</ele>
        <time>2017-06-03T12:06:43.000Z</time>
      </trkpt>
      <trkpt lat="45.394210" lon="5.747662">
        <ele>514.771671</ele>
        <time>2017-06-03T12:06:45.000Z</time>
      </trkpt>
      <trkpt lat="45.394090" lon="5.747553">
        <ele>513.944888</ele>
        <time>2017-06-03T12:06:47.000Z</time>
      </trkpt>
      <trkpt lat="45.393974" lon="5.747449">
        <ele>512.860879</ele>
        <time>2017-06-03T12:06:49.000Z</time>
      </trkpt>
      <trkpt lat="45.393870" lon="5.747338">
        <ele>511.482202</ele>
        <time>2017-06-03T12:06:51.000Z</time>
      </trkpt>
      <trkpt lat="45.393770" lon="5.747210">
        <ele>510.055883</ele>
        <time>2017-06-03T12:06:53.000Z</time>
      </trkpt>
      <trkpt lat="45.393673" lon="5.747051">
        <ele>508.486942</ele>
        <time>2017-06-03T12:06:55.000Z</time>
      </trkpt>
      <trkpt lat="45.393593" lon="5.746905">
        <ele>507.107458</ele>
        <time>2017-06-03T12:06:57.000Z</time>
      </trkpt>
      <trkpt lat="45.393480" lon="5.746770">
        <ele>505.542807</ele>
        <time>2017-06-03T12:06:59.000Z</time>
      </trkpt>
      <trkpt lat="45.393360" lon="5.746632">
        <ele>503.906619</ele>
        <time>2017-06-03T12:07:01.000Z</time>
      </trkpt>
      <trkpt lat="45.393257" lon="5.746510">
        <ele>502.485459</ele>
        <time>2017-06-03T12:07:03.000Z</time>
      </trkpt>
      <trkpt lat="45.393158" lon="5.746415">
        <ele>501.219102</ele>
        <time>2017-06-03T12:07:05.000Z</time>
      </trkpt>
      <trkpt lat="45.393060" lon="5.746320">
        <ele>499.961528</ele>
        <time>2017-06-03T12:07:07.000Z</time>
      </trkpt>
      <trkpt lat="45.392975" lon="5.746236">
        <ele>498.864014</ele>
        <time>2017-06-03T12:07:09.000Z</time>
      </trkpt>
      <trkpt lat="45.392902" lon="5.746137">
        <ele>497.794662</ele>
        <time>2017-06-03T12:07:11.000Z</time>
      </trkpt>
      <trkpt lat="45.392838" lon="5.746045">
        <ele>496.829997</ele>
        <time>2017-06-03T12:07:13.000Z</time>
      </trkpt>
      <trkpt lat="45.392780" lon="5.745945">
        <ele>495.863847</ele>
        <time>2017-06-03T12:07:15.000Z</time>
      </trkpt>
      <trkpt lat="45.392742" lon="5.745822">
        <ele>494.862841</ele>
        <time>2017-06-03T12:07:17.000Z</time>
      </trkpt>
      <trkpt lat="45.392715" lon="5.745684">
        <ele>494.242048</ele>
        <time>2017-06-03T12:07:19.000Z</time>
      </trkpt>
      <trkpt lat="45.392690" lon="5.745541">
        <ele>493.932497</ele>
        <time>2017-06-03T12:07:21.000Z</time>
      </trkpt>
      <trkpt lat="45.392662" lon="5.745392">
        <ele>493.608498</ele>
        <time>2017-06-03T12:07:24.000Z</time>
      </trkpt>
      <trkpt lat="45.392540" lon="5.745286">
        <ele>493.181002</ele>
        <time>2017-06-03T12:08:18.000Z</time>
      </trkpt>
      <trkpt lat="45.392433" lon="5.745270">
        <ele>492.859179</ele>
        <time>2017-06-03T12:08:24.000Z</time>
      </trkpt>
      <trkpt lat="45.392340" lon="5.745218">
        <ele>492.560317</ele>
        <time>2017-06-03T12:08:28.000Z</time>
      </trkpt>
      <trkpt lat="45.392235" lon="5.745171">
        <ele>492.231086</ele>
        <time>2017-06-03T12:08:32.000Z</time>
      </trkpt>
      <trkpt lat="45.392120" lon="5.745126">
        <ele>491.874342</ele>
        <time>2017-06-03T12:08:36.000Z</time>
      </trkpt>
      <trkpt lat="45.392010" lon="5.745066">
        <ele>491.521993</ele>
        <time>2017-06-03T12:08:40.000Z</time>
      </trkpt>
      <trkpt lat="45.391920" lon="5.745024">
        <ele>491.238693</ele>
        <time>2017-06-03T12:08:43.000Z</time>
      </trkpt>
      <trkpt lat="45.391810" lon="5.744988">
        <ele>490.901079</ele>
        <time>2017-06-03T12:08:47.000Z</time>
      </trkpt>
      <trkpt lat="45.391710" lon="5.744955">
        <ele>490.594027</ele>
        <time>2017-06-03T12:08:51.000Z</time>
      </trkpt>
      <trkpt lat="45.391600" lon="5.744899">
        <ele>490.244595</ele>
        <time>2017-06-03T12:08:55.000Z</time>
      </trkpt>
      <trkpt lat="45.391514" lon="5.744858">
        <ele>489.973314</ele>
        <time>2017-06-03T12:08:58.000Z</time>
      </trkpt>
      <trkpt lat="45.391422" lon="5.744815">
        <ele>489.683675</ele>
        <time>2017-06-03T12:09:01.000Z</time>
      </trkpt>
      <trkpt lat="45.391346" lon="5.744746">
        <ele>489.414066</ele>
        <time>2017-06-03T12:09:04.000Z</time>
      </trkpt>
      <trkpt lat="45.391270" lon="5.744652">
        <ele>489.112950</ele>
        <time>2017-06-03T12:09:07.000Z</time>
      </trkpt>
      <trkpt lat="45.391197" lon="5.744559">
        <ele>489.265169</ele>
        <time>2017-06-03T12:09:10.000Z</time>
      </trkpt>
      <trkpt lat="45.391125" lon="5.744468">
        <ele>489.567424</ele>
        <time>2017-06-03T12:09:13.000Z</time>
      </trkpt>
      <trkpt lat="45.391064" lon="5.744361">
        <ele>489.871294</ele>
        <time>2017-06-03T12:09:16.000Z</time>
      </trkpt>
      <trkpt lat="45.391000" lon="5.744258">
        <ele>490.174528</ele>
        <time>2017-06-03T12:09:19.000Z</time>
      </trkpt>
      <trkpt lat="45.390920" lon="5.744139">
        <ele>490.537749</ele>
        <time>2017-06-03T12:09:23.000Z</time>
      </trkpt>
      <trkpt lat="45.390842" lon="5.744021">
        <ele>490.895048</ele>
        <time>2017-06-03T12:09:27.000Z</time>
      </trkpt>
      <trkpt lat="45.390766" lon="5.743894">
        <ele>491.262943</ele>
        <time>2017-06-03T12:09:31.000Z</time>
      </trkpt>
      <trkpt lat="45.390694" lon="5.743803">
        <ele>491.565199</ele>
        <time>2017-06-03T12:09:34.000Z</time>
      </trkpt>
      <trkpt lat="45.390617" lon="5.743673">
        <ele>491.940169</ele>
        <time>2017-06-03T12:09:38.000Z</time>
      </trkpt>
      <trkpt lat="45.390553" lon="5.743578">
        <ele>492.230429</ele>
        <time>2017-06-03T12:09:41.000Z</time>
      </trkpt>
      <trkpt lat="45.390484" lon="5.743476">
        <ele>492.542695</ele>
        <time>2017-06-03T12:09:44.000Z</time>
      </trkpt>
      <trkpt lat="45.390410" lon="5.743342">
        <ele>492.918557</ele>
        <time>2017-06-03T12:09:48.000Z</time>
      </trkpt>
      <trkpt lat="45.390358" lon="5.743227">
        <ele>493.220133</ele>
        <time>2017-06-03T12:09:51.000Z</time>
      </trkpt>
      <trkpt lat="45.390300" lon="5.743128">
        <ele>493.504400</ele>
        <time>2017-06-03T12:09:54.000Z</time>
      </trkpt>
      <trkpt lat="45.390236" lon="5.743011">
        <ele>493.831395</ele>
        <time>2017-06-03T12:09:58.000Z</time>
      </trkpt>
      <trkpt lat="45.390186" lon="5.742874">
        <ele>494.171821</ele>
        <time>2017-06-03T12:10:02.000Z</time>
      </trkpt>
      <trkpt lat="45.390156" lon="5.742715">
        <ele>494.534831</ele>
        <time>2017-06-03T12:10:06.000Z</time>
      </trkpt>
      <trkpt lat="45.390137" lon="5.742590">
        <ele>494.674961</ele>
        <time>2017-06-03T12:10:09.000Z</time>
      </trkpt>
      <trkpt lat="45.390125" lon="5.742456">
        <ele>494.654038</ele>
        <time>2017-06-03T12:10:12.000Z</time>
      </trkpt>
      <trkpt lat="45.390120" lon="5.742328">
        <ele>494.634182</ele>
        <time>2017-06-03T12:10:15.000Z</time>
      </trkpt>
      <trkpt lat="45.390106" lon="5.742190">
        <ele>494.612586</ele>
        <time>2017-06-03T12:10:18.000Z</time>
      </trkpt>
      <trkpt lat="45.390102" lon="5.742051">
        <ele>494.591038</ele>
        <time>2017-06-03T12:10:21.000Z</time>
      </trkpt>
      <trkpt lat="45.390100" lon="5.741900">
        <ele>494.567646</ele>
        <time>2017-06-03T12:10:24.000Z</time>
      </trkpt>
      <trkpt lat="45.390100" lon="5.741742">
        <ele>494.543174</ele>
        <time>2017-06-03T12:10:27.000Z</time>
      </trkpt>
      <trkpt lat="45.390095" lon="5.741572">
        <ele>494.516820</ele>
        <time>2017-06-03T12:10:30.000Z</time>
      </trkpt>
      <trkpt lat="45.390087" lon="5.741420">
        <ele>494.493211</ele>
        <time>2017-06-03T12:10:33.000Z</time>
      </trkpt>
      <trkpt lat="45.390087" lon="5.741266">
        <ele>494.469358</ele>
        <time>2017-06-03T12:10:36.000Z</time>
      </trkpt>
      <trkpt lat="45.390076" lon="5.741097">
        <ele>494.443070</ele>
        <time>2017-06-03T12:10:39.000Z</time>
      </trkpt>
      <trkpt lat="45.390060" lon="5.740923">
        <ele>494.415890</ele>
        <time>2017-06-03T12:10:42.000Z</time>
      </trkpt>
      <trkpt lat="45.390050" lon="5.740758">
        <ele>494.390238</ele>
        <time>2017-06-03T12:10:45.000Z</time>
      </trkpt>
      <trkpt lat="45.390003" lon="5.740594">
        <ele>494.362803</ele>
        <time>2017-06-03T12:10:48.000Z</time>
      </trkpt>
      <trkpt lat="45.389942" lon="5.740449">
        <ele>494.336623</ele>
        <time>2017-06-03T12:10:51.000Z</time>
      </trkpt>
      <trkpt lat="45.389866" lon="5.740309">
        <ele>494.309216</ele>
        <time>2017-06-03T12:10:54.000Z</time>
      </trkpt>
      <trkpt lat="45.389780" lon="5.740189">
        <ele>494.240289</ele>
        <time>2017-06-03T12:10:57.000Z</time>
      </trkpt>
      <trkpt lat="45.389694" lon="5.740079">
        <ele>493.995277</ele>
        <time>2017-06-03T12:11:00.000Z</time>
      </trkpt>
      <trkpt lat="45.389614" lon="5.739982">
        <ele>493.772577</ele>
        <time>2017-06-03T12:11:03.000Z</time>
      </trkpt>
      <trkpt lat="45.389526" lon="5.739885">
        <ele>493.536711</ele>
        <time>2017-06-03T12:11:06.000Z</time>
      </trkpt>
      <trkpt lat="45.389442" lon="5.739800">
        <ele>493.318300</ele>
        <time>2017-06-03T12:11:09.000Z</time>
      </trkpt>
      <trkpt lat="45.389360" lon="5.739719">
        <ele>493.106779</ele>
        <time>2017-06-03T12:11:12.000Z</time>
      </trkpt>
      <trkpt lat="45.389282" lon="5.739648">
        <ele>492.910569</ele>
        <time>2017-06-03T12:11:15.000Z</time>
      </trkpt>
      <trkpt lat="45.389210" lon="5.739570">
        <ele>492.718823</ele>
        <time>2017-06-03T12:11:18.000Z</time>
      </trkpt>
      <trkpt lat="45.389140" lon="5.739472">
        <ele>492.510762</ele>
        <time>2017-06-03T12:11:21.000Z</time>
      </trkpt>
      <trkpt lat="45.389072" lon="5.739360">
        <ele>492.290391</ele>
        <time>2017-06-03T12:11:24.000Z</time>
      </trkpt>
      <trkpt lat="45.388996" lon="5.739226">
        <ele>492.034014</ele>
        <time>2017-06-03T12:11:27.000Z</time>
      </trkpt>
      <trkpt lat="45.388927" lon="5.739121">
        <ele>491.819973</ele>
        <time>2017-06-03T12:11:29.000Z</time>
      </trkpt>
      <trkpt lat="45.388870" lon="5.738994">
        <ele>491.595631</ele>
        <time>2017-06-03T12:11:31.000Z</time>
      </trkpt>
      <trkpt lat="45.388817" lon="5.738874">
        <ele>491.384627</ele>
        <time>2017-06-03T12:11:33.000Z</time>
      </trkpt>
      <trkpt lat="45.388725" lon="5.738743">
        <ele>491.108868</ele>
        <time>2017-06-03T12:11:35.000Z</time>
      </trkpt>
      <trkpt lat="45.388638" lon="5.738623">
        <ele>490.852148</ele>
        <time>2017-06-03T12:11:37.000Z</time>
      </trkpt>
      <trkpt lat="45.388557" lon="5.738509">
        <ele>490.610764</ele>
        <time>2017-06-03T12:11:39.000Z</time>
      </trkpt>
      <trkpt lat="45.388480" lon="5.738390">
        <ele>490.181159</ele>
        <time>2017-06-03T12:11:41.000Z</time>
      </trkpt>
      <trkpt lat="45.388416" lon="5.738277">
        <ele>489.578536</ele>
        <time>2017-06-03T12:11:43.000Z</time>
      </trkpt>
      <trkpt lat="45.388348" lon="5.738158">
        <ele>488.941675</ele>
        <time>2017-06-03T12:11:45.000Z</time>
      </trkpt>
      <trkpt lat="45.388260" lon="5.738046">
        <ele>488.244010</ele>
        <time>2017-06-03T12:11:47.000Z</time>
      </trkpt>
      <trkpt lat="45.388165" lon="5.737937">
        <ele>487.522852</ele>
        <time>2017-06-03T12:11:49.000Z</time>
      </trkpt>
      <trkpt lat="45.388065" lon="5.737836">
        <ele>486.798156</ele>
        <time>2017-06-03T12:11:51.000Z</time>
      </trkpt>
      <trkpt lat="45.387955" lon="5.737776">
        <ele>486.101879</ele>
        <time>2017-06-03T12:11:53.000Z</time>
      </trkpt>
      <trkpt lat="45.387863" lon="5.737725">
        <ele>485.518314</ele>
        <time>2017-06-03T12:11:55.000Z</time>
      </trkpt>
      <trkpt lat="45.387745" lon="5.737710">
        <ele>484.818050</ele>
        <time>2017-06-03T12:11:58.000Z</time>
      </trkpt>
      <trkpt lat="45.387646" lon="5.737690">
        <ele>484.227007</ele>
        <time>2017-06-03T12:12:00.000Z</time>
      </trkpt>
      <trkpt lat="45.387547" lon="5.737685">
        <ele>483.641456</ele>
        <time>2017-06-03T12:12:02.000Z</time>
      </trkpt>
      <trkpt lat="45.387432" lon="5.737697">
        <ele>482.959876</ele>
        <time>2017-06-03T12:12:04.000Z</time>
      </trkpt>
      <trkpt lat="45.387333" lon="5.737683">
        <ele>482.371815</ele>
        <time>2017-06-03T12:12:06.000Z</time>
      </trkpt>
      <trkpt lat="45.387230" lon="5.737669">
        <ele>481.760221</ele>
        <time>2017-06-03T12:12:08.000Z</time>
      </trkpt>
      <trkpt lat="45.387130" lon="5.737657">
        <ele>481.167032</ele>
        <time>2017-06-03T12:12:10.000Z</time>
      </trkpt>
      <trkpt lat="45.387030" lon="5.737660">
        <ele>480.575808</ele>
        <time>2017-06-03T12:12:12.000Z</time>
      </trkpt>
      <trkpt lat="45.386910" lon="5.737639">
        <ele>479.861159</ele>
        <time>2017-06-03T12:12:15.000Z</time>
      </trkpt>
      <trkpt lat="45.386890" lon="5.737504">
        <ele>479.215508</ele>
        <time>2017-06-03T12:12:18.000Z</time>
      </trkpt>
      <trkpt lat="45.387028" lon="5.737429">
        <ele>478.227812</ele>
        <time>2017-06-03T12:12:21.000Z</time>
      </trkpt>
      <trkpt lat="45.387123" lon="5.737396">
        <ele>477.573948</ele>
        <time>2017-06-03T12:12:23.000Z</time>
      </trkpt>
      <trkpt lat="45.387215" lon="5.737362">
        <ele>476.938390</ele>
        <time>2017-06-03T12:12:25.000Z</time>
      </trkpt>
      <trkpt lat="45.387320" lon="5.737303">
        <ele>476.183595</ele>
        <time>2017-06-03T12:12:28.000Z</time>
      </trkpt>
      <trkpt lat="45.387386" lon="5.737194">
        <ele>475.507739</ele>
        <time>2017-06-03T12:12:33.000Z</time>
      </trkpt>
      <trkpt lat="45.387370" lon="5.737048">
        <ele>474.813808</ele>
        <time>2017-06-03T12:12:37.000Z</time>
      </trkpt>
      <trkpt lat="45.387330" lon="5.736921">
        <ele>474.160172</ele>
        <time>2017-06-03T12:12:40.000Z</time>
      </trkpt>
      <trkpt lat="45.387260" lon="5.736762">
        <ele>473.278909</ele>
        <time>2017-06-03T12:12:43.000Z</time>
      </trkpt>
      <trkpt lat="45.387210" lon="5.736652">
        <ele>472.663581</ele>
        <time>2017-06-03T12:12:45.000Z</time>
      </trkpt>
      <trkpt lat="45.387135" lon="5.736486">
        <ele>471.736642</ele>
        <time>2017-06-03T12:12:48.000Z</time>
      </trkpt>
      <trkpt lat="45.387062" lon="5.736328">
        <ele>470.848488</ele>
        <time>2017-06-03T12:12:51.000Z</time>
      </trkpt>
      <trkpt lat="45.387060" lon="5.736160">
        <ele>470.059422</ele>
        <time>2017-06-03T12:12:53.000Z</time>
      </trkpt>
      <trkpt lat="45.387047" lon="5.736009">
        <ele>469.344995</ele>
        <time>2017-06-03T12:12:55.000Z</time>
      </trkpt>
      <trkpt lat="45.387060" lon="5.735876">
        <ele>468.714388</ele>
        <time>2017-06-03T12:12:57.000Z</time>
      </trkpt>
      <trkpt lat="45.387074" lon="5.735738">
        <ele>468.059593</ele>
        <time>2017-06-03T12:13:00.000Z</time>
      </trkpt>
      <trkpt lat="45.387077" lon="5.735609">
        <ele>467.852556</ele>
        <time>2017-06-03T12:13:04.000Z</time>
      </trkpt>
      <trkpt lat="45.387085" lon="5.735467">
        <ele>467.918348</ele>
        <time>2017-06-03T12:13:07.000Z</time>
      </trkpt>
      <trkpt lat="45.387085" lon="5.735285">
        <ele>468.002403</ele>
        <time>2017-06-03T12:13:10.000Z</time>
      </trkpt>
      <trkpt lat="45.387074" lon="5.735125">
        <ele>468.076651</ele>
        <time>2017-06-03T12:13:13.000Z</time>
      </trkpt>
      <trkpt lat="45.387077" lon="5.734968">
        <ele>468.149187</ele>
        <time>2017-06-03T12:13:16.000Z</time>
      </trkpt>
      <trkpt lat="45.387077" lon="5.734811">
        <ele>468.221697</ele>
        <time>2017-06-03T12:13:19.000Z</time>
      </trkpt>
      <trkpt lat="45.387093" lon="5.734660">
        <ele>468.292224</ele>
        <time>2017-06-03T12:13:22.000Z</time>
      </trkpt>
      <trkpt lat="45.387108" lon="5.734521">
        <ele>468.357174</ele>
        <time>2017-06-03T12:13:25.000Z</time>
      </trkpt>
      <trkpt lat="45.387115" lon="5.734388">
        <ele>468.418771</ele>
        <time>2017-06-03T12:13:28.000Z</time>
      </trkpt>
      <trkpt lat="45.387140" lon="5.734223">
        <ele>468.496728</ele>
        <time>2017-06-03T12:13:32.000Z</time>
      </trkpt>
      <trkpt lat="45.387173" lon="5.734070">
        <ele>468.570647</ele>
        <time>2017-06-03T12:13:36.000Z</time>
      </trkpt>
      <trkpt lat="45.387210" lon="5.733948">
        <ele>468.632021</ele>
        <time>2017-06-03T12:13:39.000Z</time>
      </trkpt>
      <trkpt lat="45.387264" lon="5.733822">
        <ele>468.700192</ele>
        <time>2017-06-03T12:13:42.000Z</time>
      </trkpt>
      <trkpt lat="45.387330" lon="5.733688">
        <ele>468.775781</ele>
        <time>2017-06-03T12:13:46.000Z</time>
      </trkpt>
      <trkpt lat="45.387380" lon="5.733548">
        <ele>468.848318</ele>
        <time>2017-06-03T12:13:50.000Z</time>
      </trkpt>
      <trkpt lat="45.387320" lon="5.733425">
        <ele>468.917483</ele>
        <time>2017-06-03T12:14:46.000Z</time>
      </trkpt>
      <trkpt lat="45.387287" lon="5.733275">
        <ele>468.990079</ele>
        <time>2017-06-03T12:14:52.000Z</time>
      </trkpt>
      <trkpt lat="45.387264" lon="5.733129">
        <ele>468.987198</ele>
        <time>2017-06-03T12:14:56.000Z</time>
      </trkpt>
      <trkpt lat="45.387250" lon="5.732981">
        <ele>468.972825</ele>
        <time>2017-06-03T12:15:00.000Z</time>
      </trkpt>
      <trkpt lat="45.387230" lon="5.732848">
        <ele>468.959735</ele>
        <time>2017-06-03T12:15:05.000Z</time>
      </trkpt>
      <trkpt lat="45.387220" lon="5.732721">
        <ele>468.947436</ele>
        <time>2017-06-03T12:15:10.000Z</time>
      </trkpt>
      <trkpt lat="45.387203" lon="5.732594">
        <ele>468.934993</ele>
        <time>2017-06-03T12:15:14.000Z</time>
      </trkpt>
      <trkpt lat="45.387173" lon="5.732469">
        <ele>468.922280</ele>
        <time>2017-06-03T12:15:18.000Z</time>
      </trkpt>
      <trkpt lat="45.387127" lon="5.732324">
        <ele>468.906967</ele>
        <time>2017-06-03T12:15:22.000Z</time>
      </trkpt>
      <trkpt lat="45.387100" lon="5.732183">
        <ele>468.892902</ele>
        <time>2017-06-03T12:15:25.000Z</time>
      </trkpt>
      <trkpt lat="45.387074" lon="5.732047">
        <ele>468.879337</ele>
        <time>2017-06-03T12:15:28.000Z</time>
      </trkpt>
      <trkpt lat="45.387030" lon="5.731896">
        <ele>468.863603</ele>
        <time>2017-06-03T12:15:31.000Z</time>
      </trkpt>
      <trkpt lat="45.386993" lon="5.731726">
        <ele>468.846474</ele>
        <time>2017-06-03T12:15:34.000Z</time>
      </trkpt>
      <trkpt lat="45.386980" lon="5.731587">
        <ele>468.832978</ele>
        <time>2017-06-03T12:15:37.000Z</time>
      </trkpt>
      <trkpt lat="45.386955" lon="5.731439">
        <ele>468.818328</ele>
        <time>2017-06-03T12:15:40.000Z</time>
      </trkpt>
      <trkpt lat="45.386930" lon="5.731277">
        <ele>468.802365</ele>
        <time>2017-06-03T12:15:43.000Z</time>
      </trkpt>
      <trkpt lat="45.386910" lon="5.731093">
        <ele>468.784446</ele>
        <time>2017-06-03T12:15:46.000Z</time>
      </trkpt>
      <trkpt lat="45.386868" lon="5.730915">
        <ele>468.766374</ele>
        <time>2017-06-03T12:15:49.000Z</time>
      </trkpt>
      <trkpt lat="45.386837" lon="5.730786">
        <ele>468.753252</ele>
        <time>2017-06-03T12:15:51.000Z</time>
      </trkpt>
      <trkpt lat="45.386814" lon="5.730659">
        <ele>468.736743</ele>
        <time>2017-06-03T12:15:53.000Z</time>
      </trkpt>
      <trkpt lat="45.386776" lon="5.730482">
        <ele>468.713394</ele>
        <time>2017-06-03T12:15:56.000Z</time>
      </trkpt>
      <trkpt lat="45.386745" lon="5.730341">
        <ele>468.694755</ele>
        <time>2017-06-03T12:15:58.000Z</time>
      </trkpt>
      <trkpt lat="45.386723" lon="5.730210">
        <ele>468.677764</ele>
        <time>2017-06-03T12:16:00.000Z</time>
      </trkpt>
      <trkpt lat="45.386692" lon="5.730027">
        <ele>468.654016</ele>
        <time>2017-06-03T12:16:03.000Z</time>
      </trkpt>
      <trkpt lat="45.386665" lon="5.729848">
        <ele>468.630919</ele>
        <time>2017-06-03T12:16:06.000Z</time>
      </trkpt>
      <trkpt lat="45.386640" lon="5.729682">
        <ele>468.609502</ele>
        <time>2017-06-03T12:16:09.000Z</time>
      </trkpt>
      <trkpt lat="45.386612" lon="5.729528">
        <ele>468.589434</ele>
        <time>2017-06-03T12:16:12.000Z</time>
      </trkpt>
      <trkpt lat="45.386580" lon="5.729364">
        <ele>468.567961</ele>
        <time>2017-06-03T12:16:15.000Z</time>
      </trkpt>
      <trkpt lat="45.386555" lon="5.729193">
        <ele>468.545926</ele>
        <time>2017-06-03T12:16:18.000Z</time>
      </trkpt>
      <trkpt lat="45.386543" lon="5.729009">
        <ele>468.522614</ele>
        <time>2017-06-03T12:16:21.000Z</time>
      </trkpt>
      <trkpt lat="45.386536" lon="5.728879">
        <ele>468.506166</ele>
        <time>2017-06-03T12:16:23.000Z</time>
      </trkpt>
      <trkpt lat="45.386550" lon="5.728694">
        <ele>468.482693</ele>
        <time>2017-06-03T12:16:26.000Z</time>
      </trkpt>
      <trkpt lat="45.386578" lon="5.728528">
        <ele>468.461156</ele>
        <time>2017-06-03T12:16:29.000Z</time>
      </trkpt>
      <trkpt lat="45.386612" lon="5.728368">
        <ele>468.440068</ele>
        <time>2017-06-03T12:16:32.000Z</time>
      </trkpt>
      <trkpt lat="45.386650" lon="5.728228">
        <ele>468.432230</ele>
        <time>2017-06-03T12:16:35.000Z</time>
      </trkpt>
      <trkpt lat="45.386703" lon="5.728102">
        <ele>468.436747</ele>
        <time>2017-06-03T12:16:38.000Z</time>
      </trkpt>
      <trkpt lat="45.386765" lon="5.727952">
        <ele>468.442100</ele>
        <time>2017-06-03T12:16:41.000Z</time>
      </trkpt>
      <trkpt lat="45.386840" lon="5.727815">
        <ele>468.447442</ele>
        <time>2017-06-03T12:16:44.000Z</time>
      </trkpt>
      <trkpt lat="45.386920" lon="5.727663">
        <ele>468.453283</ele>
        <time>2017-06-03T12:16:47.000Z</time>
      </trkpt>
      <trkpt lat="45.386960" lon="5.727546">
        <ele>468.457285</ele>
        <time>2017-06-03T12:16:49.000Z</time>
      </trkpt>
      <trkpt lat="45.386993" lon="5.727374">
        <ele>468.462768</ele>
        <time>2017-06-03T12:16:52.000Z</time>
      </trkpt>
      <trkpt lat="45.387012" lon="5.727200">
        <ele>468.468184</ele>
        <time>2017-06-03T12:16:55.000Z</time>
      </trkpt>
      <trkpt lat="45.387000" lon="5.727028">
        <ele>468.473499</ele>
        <time>2017-06-03T12:16:58.000Z</time>
      </trkpt>
      <trkpt lat="45.386980" lon="5.726882">
        <ele>468.478074</ele>
        <time>2017-06-03T12:17:01.000Z</time>
      </trkpt>
      <trkpt lat="45.386950" lon="5.726747">
        <ele>468.482428</ele>
        <time>2017-06-03T12:17:04.000Z</time>
      </trkpt>
      <trkpt lat="45.386932" lon="5.726605">
        <ele>468.486866</ele>
        <time>2017-06-03T12:17:07.000Z</time>
      </trkpt>
      <trkpt lat="45.386930" lon="5.726468">
        <ele>468.491080</ele>
        <time>2017-06-03T12:17:10.000Z</time>
      </trkpt>
      <trkpt lat="45.386940" lon="5.726295">
        <ele>468.496418</ele>
        <time>2017-06-03T12:17:13.000Z</time>
      </trkpt>
      <trkpt lat="45.386955" lon="5.726168">
        <ele>468.500379</ele>
        <time>2017-06-03T12:17:15.000Z</time>
      </trkpt>
      <trkpt lat="45.386982" lon="5.726041">
        <ele>468.504460</ele>
        <time>2017-06-03T12:17:17.000Z</time>
      </trkpt>
      <trkpt lat="45.387005" lon="5.725891">
        <ele>468.490934</ele>
        <time>2017-06-03T12:17:19.000Z</time>
      </trkpt>
      <trkpt lat="45.387012" lon="5.725755">
        <ele>468.286153</ele>
        <time>2017-06-03T12:17:21.000Z</time>
      </trkpt>
      <trkpt lat="45.387012" lon="5.725609">
        <ele>468.066903</ele>
        <time>2017-06-03T12:17:23.000Z</time>
      </trkpt>
      <trkpt lat="45.386990" lon="5.725477">
        <ele>467.863172</ele>
        <time>2017-06-03T12:17:25.000Z</time>
      </trkpt>
      <trkpt lat="45.386955" lon="5.725359">
        <ele>467.670814</ele>
        <time>2017-06-03T12:17:27.000Z</time>
      </trkpt>
      <trkpt lat="45.386930" lon="5.725198">
        <ele>467.423199</ele>
        <time>2017-06-03T12:17:30.000Z</time>
      </trkpt>
      <trkpt lat="45.386898" lon="5.725041">
        <ele>467.177701</ele>
        <time>2017-06-03T12:17:33.000Z</time>
      </trkpt>
      <trkpt lat="45.386883" lon="5.724865">
        <ele>466.911460</ele>
        <time>2017-06-03T12:17:36.000Z</time>
      </trkpt>
      <trkpt lat="45.386870" lon="5.724677">
        <ele>466.627772</ele>
        <time>2017-06-03T12:17:39.000Z</time>
      </trkpt>
      <trkpt lat="45.386868" lon="5.724542">
        <ele>466.424995</ele>
        <time>2017-06-03T12:17:41.000Z</time>
      </trkpt>
      <trkpt lat="45.386864" lon="5.724373">
        <ele>466.171061</ele>
        <time>2017-06-03T12:17:44.000Z</time>
      </trkpt>
      <trkpt lat="45.386860" lon="5.724230">
        <ele>465.956145</ele>
        <time>2017-06-03T12:17:47.000Z</time>
      </trkpt>
      <trkpt lat="45.386875" lon="5.724065">
        <ele>465.706294</ele>
        <time>2017-06-03T12:17:50.000Z</time>
      </trkpt>
      <trkpt lat="45.386890" lon="5.723922">
        <ele>465.489166</ele>
        <time>2017-06-03T12:17:54.000Z</time>
      </trkpt>
      <trkpt lat="45.386856" lon="5.724049">
        <ele>465.285062</ele>
        <time>2017-06-03T12:18:02.000Z</time>
      </trkpt>
      <trkpt lat="45.386870" lon="5.724196">
        <ele>465.062289</ele>
        <time>2017-06-03T12:18:07.000Z</time>
      </trkpt>
      <trkpt lat="45.386880" lon="5.724335">
        <ele>464.852458</ele>
        <time>2017-06-03T12:18:12.000Z</time>
      </trkpt>
      <trkpt lat="45.386883" lon="5.724206">
        <ele>464.662804</ele>
        <time>2017-06-03T12:19:34.000Z</time>
      </trkpt>
      <trkpt lat="45.386887" lon="5.724053">
        <ele>464.658089</ele>
        <time>2017-06-03T12:19:37.000Z</time>
      </trkpt>
      <trkpt lat="45.386868" lon="5.723865">
        <ele>464.652241</ele>
        <time>2017-06-03T12:19:40.000Z</time>
      </trkpt>
      <trkpt lat="45.386868" lon="5.723684">
        <ele>464.646668</ele>
        <time>2017-06-03T12:19:43.000Z</time>
      </trkpt>
      <trkpt lat="45.386852" lon="5.723514">
        <ele>464.641386</ele>
        <time>2017-06-03T12:19:46.000Z</time>
      </trkpt>
      <trkpt lat="45.386814" lon="5.723345">
        <ele>464.635922</ele>
        <time>2017-06-03T12:19:49.000Z</time>
      </trkpt>
      <trkpt lat="45.386784" lon="5.723221">
        <ele>464.631884</ele>
        <time>2017-06-03T12:19:51.000Z</time>
      </trkpt>
      <trkpt lat="45.386765" lon="5.723094">
        <ele>464.627886</ele>
        <time>2017-06-03T12:19:53.000Z</time>
      </trkpt>
      <trkpt lat="45.386734" lon="5.722973">
        <ele>464.623920</ele>
        <time>2017-06-03T12:19:55.000Z</time>
      </trkpt>
      <trkpt lat="45.386670" lon="5.722816">
        <ele>464.618330</ele>
        <time>2017-06-03T12:19:58.000Z</time>
      </trkpt>
      <trkpt lat="45.386610" lon="5.722662">
        <ele>464.612907</ele>
        <time>2017-06-03T12:20:01.000Z</time>
      </trkpt>
      <trkpt lat="45.386540" lon="5.722509">
        <ele>464.607285</ele>
        <time>2017-06-03T12:20:04.000Z</time>
      </trkpt>
      <trkpt lat="45.386467" lon="5.722359">
        <ele>464.601665</ele>
        <time>2017-06-03T12:20:07.000Z</time>
      </trkpt>
      <trkpt lat="45.386387" lon="5.722219">
        <ele>464.596108</ele>
        <time>2017-06-03T12:20:10.000Z</time>
      </trkpt>
      <trkpt lat="45.386314" lon="5.722089">
        <ele>464.590983</ele>
        <time>2017-06-03T12:20:13.000Z</time>
      </trkpt>
      <trkpt lat="45.386250" lon="5.721967">
        <ele>464.586294</ele>
        <time>2017-06-03T12:20:16.000Z</time>
      </trkpt>
      <trkpt lat="45.386192" lon="5.721855">
        <ele>464.438643</ele>
        <time>2017-06-03T12:20:19.000Z</time>
      </trkpt>
      <trkpt lat="45.386143" lon="5.721732">
        <ele>464.125885</ele>
        <time>2017-06-03T12:20:22.000Z</time>
      </trkpt>
      <trkpt lat="45.386093" lon="5.721608">
        <ele>463.809646</ele>
        <time>2017-06-03T12:20:25.000Z</time>
      </trkpt>
      <trkpt lat="45.386055" lon="5.721456">
        <ele>463.452801</ele>
        <time>2017-06-03T12:20:29.000Z</time>
      </trkpt>
      <trkpt lat="45.386020" lon="5.721306">
        <ele>463.103212</ele>
        <time>2017-06-03T12:20:32.000Z</time>
      </trkpt>
      <trkpt lat="45.385983" lon="5.721172">
        <ele>462.784759</ele>
        <time>2017-06-03T12:20:34.000Z</time>
      </trkpt>
      <trkpt lat="45.385933" lon="5.721036">
        <ele>462.445245</ele>
        <time>2017-06-03T12:20:36.000Z</time>
      </trkpt>
      <trkpt lat="45.385876" lon="5.720905">
        <ele>462.104411</ele>
        <time>2017-06-03T12:20:38.000Z</time>
      </trkpt>
      <trkpt lat="45.385840" lon="5.720761">
        <ele>461.766346</ele>
        <time>2017-06-03T12:20:40.000Z</time>
      </trkpt>
      <trkpt lat="45.385803" lon="5.720627">
        <ele>461.447892</ele>
        <time>2017-06-03T12:20:42.000Z</time>
      </trkpt>
      <trkpt lat="45.385754" lon="5.720455">
        <ele>461.037370</ele>
        <time>2017-06-03T12:20:45.000Z</time>
      </trkpt>
      <trkpt lat="45.385700" lon="5.720271">
        <ele>460.596310</ele>
        <time>2017-06-03T12:20:48.000Z</time>
      </trkpt>
      <trkpt lat="45.385662" lon="5.720117">
        <ele>460.235292</ele>
        <time>2017-06-03T12:20:50.000Z</time>
      </trkpt>
      <trkpt lat="45.385630" lon="5.719951">
        <ele>459.854565</ele>
        <time>2017-06-03T12:20:52.000Z</time>
      </trkpt>
      <trkpt lat="45.385597" lon="5.719808">
        <ele>459.521651</ele>
        <time>2017-06-03T12:20:54.000Z</time>
      </trkpt>
      <trkpt lat="45.385574" lon="5.719680">
        <ele>459.229429</ele>
        <time>2017-06-03T12:20:56.000Z</time>
      </trkpt>
      <trkpt lat="45.385560" lon="5.719500">
        <ele>458.835295</ele>
        <time>2017-06-03T12:20:59.000Z</time>
      </trkpt>
      <trkpt lat="45.385548" lon="5.719323">
        <ele>458.469719</ele>
        <time>2017-06-03T12:21:02.000Z</time>
      </trkpt>
      <trkpt lat="45.385532" lon="5.719191">
        <ele>458.194336</ele>
        <time>2017-06-03T12:21:04.000Z</time>
      </trkpt>
      <trkpt lat="45.385513" lon="5.719061">
        <ele>457.921351</ele>
        <time>2017-06-03T12:21:06.000Z</time>
      </trkpt>
      <trkpt lat="45.385475" lon="5.718921">
        <ele>457.612786</ele>
        <time>2017-06-03T12:21:08.000Z</time>
      </trkpt>
      <trkpt lat="45.385445" lon="5.718783">
        <ele>457.315800</ele>
        <time>2017-06-03T12:21:10.000Z</time>
      </trkpt>
      <trkpt lat="45.385418" lon="5.718656">
        <ele>457.043007</ele>
        <time>2017-06-03T12:21:12.000Z</time>
      </trkpt>
      <trkpt lat="45.385360" lon="5.718484">
        <ele>456.650756</ele>
        <time>2017-06-03T12:21:15.000Z</time>
      </trkpt>
      <trkpt lat="45.385320" lon="5.718366">
        <ele>456.381388</ele>
        <time>2017-06-03T12:21:17.000Z</time>
      </trkpt>
      <trkpt lat="45.385273" lon="5.718247">
        <ele>456.100711</ele>
        <time>2017-06-03T12:21:19.000Z</time>
      </trkpt>
      <trkpt lat="45.385220" lon="5.718115">
        <ele>455.788123</ele>
        <time>2017-06-03T12:21:21.000Z</time>
      </trkpt>
      <trkpt lat="45.385162" lon="5.717985">
        <ele>455.471496</ele>
        <time>2017-06-03T12:21:23.000Z</time>
      </trkpt>
      <trkpt lat="45.385105" lon="5.717868">
        <ele>455.178758</ele>
        <time>2017-06-03T12:21:25.000Z</time>
      </trkpt>
      <trkpt lat="45.385050" lon="5.717755">
        <ele>454.896113</ele>
        <time>2017-06-03T12:21:27.000Z</time>
      </trkpt>
      <trkpt lat="45.384995" lon="5.717653">
        <ele>454.631741</ele>
        <time>2017-06-03T12:21:29.000Z</time>
      </trkpt>
      <trkpt lat="45.384922" lon="5.717508">
        <ele>454.264966</ele>
        <time>2017-06-03T12:21:32.000Z</time>
      </trkpt>
      <trkpt lat="45.384857" lon="5.717382">
        <ele>453.943559</ele>
        <time>2017-06-03T12:21:35.000Z</time>
      </trkpt>
      <trkpt lat="45.384796" lon="5.717242">
        <ele>453.688273</ele>
        <time>2017-06-03T12:21:38.000Z</time>
      </trkpt>
      <trkpt lat="45.384724" lon="5.717106">
        <ele>453.921351</ele>
        <time>2017-06-03T12:21:41.000Z</time>
      </trkpt>
      <trkpt lat="45.384660" lon="5.716976">
        <ele>454.138619</ele>
        <time>2017-06-03T12:21:44.000Z</time>
      </trkpt>
      <trkpt lat="45.384586" lon="5.716866">
        <ele>454.347077</ele>
        <time>2017-06-03T12:21:47.000Z</time>
      </trkpt>
      <trkpt lat="45.384537" lon="5.716750">
        <ele>454.532331</ele>
        <time>2017-06-03T12:21:50.000Z</time>
      </trkpt>
      <trkpt lat="45.384495" lon="5.716609">
        <ele>454.741936</ele>
        <time>2017-06-03T12:21:53.000Z</time>
      </trkpt>
      <trkpt lat="45.384426" lon="5.716487">
        <ele>454.956306</ele>
        <time>2017-06-03T12:21:56.000Z</time>
      </trkpt>
      <trkpt lat="45.384365" lon="5.716365">
        <ele>455.161259</ele>
        <time>2017-06-03T12:21:59.000Z</time>
      </trkpt>
      <trkpt lat="45.384296" lon="5.716249">
        <ele>455.369298</ele>
        <time>2017-06-03T12:22:02.000Z</time>
      </trkpt>
      <trkpt lat="45.384240" lon="5.716130">
        <ele>455.565335</ele>
        <time>2017-06-03T12:22:05.000Z</time>
      </trkpt>
      <trkpt lat="45.384182" lon="5.716009">
        <ele>455.765822</ele>
        <time>2017-06-03T12:22:08.000Z</time>
      </trkpt>
      <trkpt lat="45.384130" lon="5.715865">
        <ele>455.987420</ele>
        <time>2017-06-03T12:22:11.000Z</time>
      </trkpt>
      <trkpt lat="45.384075" lon="5.715759">
        <ele>456.167782</ele>
        <time>2017-06-03T12:22:14.000Z</time>
      </trkpt>
      <trkpt lat="45.384014" lon="5.715618">
        <ele>456.394422</ele>
        <time>2017-06-03T12:22:18.000Z</time>
      </trkpt>
      <trkpt lat="45.383970" lon="5.715468">
        <ele>456.616893</ele>
        <time>2017-06-03T12:22:22.000Z</time>
      </trkpt>
      <trkpt lat="45.383920" lon="5.715352">
        <ele>456.803161</ele>
        <time>2017-06-03T12:22:26.000Z</time>
      </trkpt>
      <trkpt lat="45.383860" lon="5.715218">
        <ele>457.020648</ele>
        <time>2017-06-03T12:22:30.000Z</time>
      </trkpt>
      <trkpt lat="45.383804" lon="5.715080">
        <ele>457.273241</ele>
        <time>2017-06-03T12:22:34.000Z</time>
      </trkpt>
      <trkpt lat="45.383762" lon="5.714941">
        <ele>457.570624</ele>
        <time>2017-06-03T12:22:38.000Z</time>
      </trkpt>
      <trkpt lat="45.383720" lon="5.714811">
        <ele>457.851847</ele>
        <time>2017-06-03T12:22:42.000Z</time>
      </trkpt>
      <trkpt lat="45.383675" lon="5.714689">
        <ele>458.122667</ele>
        <time>2017-06-03T12:22:46.000Z</time>
      </trkpt>
      <trkpt lat="45.383633" lon="5.714565">
        <ele>458.393222</ele>
        <time>2017-06-03T12:22:50.000Z</time>
      </trkpt>
      <trkpt lat="45.383614" lon="5.714437">
        <ele>458.650338</ele>
        <time>2017-06-03T12:22:54.000Z</time>
      </trkpt>
      <trkpt lat="45.383587" lon="5.714311">
        <ele>458.909236</ele>
        <time>2017-06-03T12:22:58.000Z</time>
      </trkpt>
      <trkpt lat="45.383533" lon="5.714143">
        <ele>459.272340</ele>
        <time>2017-06-03T12:25:23.000Z</time>
      </trkpt>
      <trkpt lat="45.383522" lon="5.713998">
        <ele>459.558967</ele>
        <time>2017-06-03T12:25:27.000Z</time>
      </trkpt>
      <trkpt lat="45.383507" lon="5.713846">
        <ele>459.860628</ele>
        <time>2017-06-03T12:25:31.000Z</time>
      </trkpt>
      <trkpt lat="45.383484" lon="5.713710">
        <ele>460.135550</ele>
        <time>2017-06-03T12:25:35.000Z</time>
      </trkpt>
      <trkpt lat="45.383453" lon="5.713561">
        <ele>460.440958</ele>
        <time>2017-06-03T12:25:40.000Z</time>
      </trkpt>
      <trkpt lat="45.383453" lon="5.713429">
        <ele>460.700380</ele>
        <time>2017-06-03T12:25:44.000Z</time>
      </trkpt>
      <trkpt lat="45.383430" lon="5.713291">
        <ele>460.979124</ele>
        <time>2017-06-03T12:25:48.000Z</time>
      </trkpt>
      <trkpt lat="45.383423" lon="5.713155">
        <ele>461.247123</ele>
        <time>2017-06-03T12:25:51.000Z</time>
      </trkpt>
      <trkpt lat="45.383440" lon="5.713018">
        <ele>461.520541</ele>
        <time>2017-06-03T12:25:54.000Z</time>
      </trkpt>
      <trkpt lat="45.383423" lon="5.712888">
        <ele>461.780422</ele>
        <time>2017-06-03T12:25:57.000Z</time>
      </trkpt>
      <trkpt lat="45.383380" lon="5.712769">
        <ele>462.043430</ele>
        <time>2017-06-03T12:26:01.000Z</time>
      </trkpt>
      <trkpt lat="45.383358" lon="5.712634">
        <ele>462.100563</ele>
        <time>2017-06-03T12:26:05.000Z</time>
      </trkpt>
      <trkpt lat="45.383340" lon="5.712473">
        <ele>461.861201</ele>
        <time>2017-06-03T12:26:09.000Z</time>
      </trkpt>
      <trkpt lat="45.383293" lon="5.712321">
        <ele>461.617360</ele>
        <time>2017-06-03T12:26:13.000Z</time>
      </trkpt>
      <trkpt lat="45.383250" lon="5.712199">
        <ele>461.416947</ele>
        <time>2017-06-03T12:26:16.000Z</time>
      </trkpt>
      <trkpt lat="45.383217" lon="5.712068">
        <ele>461.212612</ele>
        <time>2017-06-03T12:26:19.000Z</time>
      </trkpt>
      <trkpt lat="45.383194" lon="5.711929">
        <ele>461.002940</ele>
        <time>2017-06-03T12:26:22.000Z</time>
      </trkpt>
      <trkpt lat="45.383180" lon="5.711772">
        <ele>460.770576</ele>
        <time>2017-06-03T12:26:25.000Z</time>
      </trkpt>
      <trkpt lat="45.383144" lon="5.711633">
        <ele>460.553059</ele>
        <time>2017-06-03T12:26:28.000Z</time>
      </trkpt>
      <trkpt lat="45.383110" lon="5.711494">
        <ele>460.336952</ele>
        <time>2017-06-03T12:26:31.000Z</time>
      </trkpt>
      <trkpt lat="45.383080" lon="5.711354">
        <ele>460.122045</ele>
        <time>2017-06-03T12:26:34.000Z</time>
      </trkpt>
      <trkpt lat="45.383057" lon="5.711210">
        <ele>459.905220</ele>
        <time>2017-06-03T12:26:37.000Z</time>
      </trkpt>
      <trkpt lat="45.383020" lon="5.711093">
        <ele>459.716827</ele>
        <time>2017-06-03T12:26:40.000Z</time>
      </trkpt>
      <trkpt lat="45.382970" lon="5.710936">
        <ele>459.463723</ele>
        <time>2017-06-03T12:26:43.000Z</time>
      </trkpt>
      <trkpt lat="45.382904" lon="5.710818">
        <ele>459.242247</ele>
        <time>2017-06-03T12:26:46.000Z</time>
      </trkpt>
      <trkpt lat="45.382828" lon="5.710679">
        <ele>458.983613</ele>
        <time>2017-06-03T12:26:49.000Z</time>
      </trkpt>
      <trkpt lat="45.382760" lon="5.710515">
        <ele>458.703994</ele>
        <time>2017-06-03T12:26:52.000Z</time>
      </trkpt>
      <trkpt lat="45.382706" lon="5.710381">
        <ele>458.477165</ele>
        <time>2017-06-03T12:26:54.000Z</time>
      </trkpt>
      <trkpt lat="45.382656" lon="5.710262">
        <ele>458.230767</ele>
        <time>2017-06-03T12:26:56.000Z</time>
      </trkpt>
      <trkpt lat="45.382572" lon="5.710148">
        <ele>457.922918</ele>
        <time>2017-06-03T12:26:58.000Z</time>
      </trkpt>
      <trkpt lat="45.382538" lon="5.710006">
        <ele>457.643390</ele>
        <time>2017-06-03T12:27:00.000Z</time>
      </trkpt>
      <trkpt lat="45.382510" lon="5.709852">
        <ele>457.346995</ele>
        <time>2017-06-03T12:27:02.000Z</time>
      </trkpt>
      <trkpt lat="45.382470" lon="5.709733">
        <ele>457.101189</ele>
        <time>2017-06-03T12:27:04.000Z</time>
      </trkpt>
      <trkpt lat="45.382435" lon="5.709556">
        <ele>456.758578</ele>
        <time>2017-06-03T12:27:07.000Z</time>
      </trkpt>
      <trkpt lat="45.382404" lon="5.709431">
        <ele>456.511582</ele>
        <time>2017-06-03T12:27:09.000Z</time>
      </trkpt>
      <trkpt lat="45.382378" lon="5.709253">
        <ele>456.172832</ele>
        <time>2017-06-03T12:27:12.000Z</time>
      </trkpt>
      <trkpt lat="45.382360" lon="5.709082">
        <ele>455.850662</ele>
        <time>2017-06-03T12:27:15.000Z</time>
      </trkpt>
      <trkpt lat="45.382330" lon="5.708924">
        <ele>455.545705</ele>
        <time>2017-06-03T12:27:18.000Z</time>
      </trkpt>
      <trkpt lat="45.382310" lon="5.708754">
        <ele>455.224543</ele>
        <time>2017-06-03T12:27:21.000Z</time>
      </trkpt>
      <trkpt lat="45.382294" lon="5.708588">
        <ele>454.912348</ele>
        <time>2017-06-03T12:27:24.000Z</time>
      </trkpt>
      <trkpt lat="45.382267" lon="5.708417">
        <ele>454.585784</ele>
        <time>2017-06-03T12:27:27.000Z</time>
      </trkpt>
      <trkpt lat="45.382220" lon="5.708260">
        <ele>454.267795</ele>
        <time>2017-06-03T12:27:30.000Z</time>
      </trkpt>
      <trkpt lat="45.382164" lon="5.708113">
        <ele>453.956207</ele>
        <time>2017-06-03T12:27:33.000Z</time>
      </trkpt>
      <trkpt lat="45.382120" lon="5.707988">
        <ele>453.695691</ele>
        <time>2017-06-03T12:27:36.000Z</time>
      </trkpt>
      <trkpt lat="45.382072" lon="5.707873">
        <ele>453.620034</ele>
        <time>2017-06-03T12:27:39.000Z</time>
      </trkpt>
      <trkpt lat="45.382010" lon="5.707742">
        <ele>453.563514</ele>
        <time>2017-06-03T12:27:43.000Z</time>
      </trkpt>
      <trkpt lat="45.381950" lon="5.707628">
        <ele>453.512543</ele>
        <time>2017-06-03T12:27:47.000Z</time>
      </trkpt>
      <trkpt lat="45.381878" lon="5.707531">
        <ele>453.462047</ele>
        <time>2017-06-03T12:27:50.000Z</time>
      </trkpt>
      <trkpt lat="45.381800" lon="5.707445">
        <ele>453.411790</ele>
        <time>2017-06-03T12:27:53.000Z</time>
      </trkpt>
      <trkpt lat="45.381714" lon="5.707359">
        <ele>453.358254</ele>
        <time>2017-06-03T12:27:56.000Z</time>
      </trkpt>
      <trkpt lat="45.381638" lon="5.707270">
        <ele>453.308124</ele>
        <time>2017-06-03T12:27:59.000Z</time>
      </trkpt>
      <trkpt lat="45.381550" lon="5.707188">
        <ele>453.254547</ele>
        <time>2017-06-03T12:28:02.000Z</time>
      </trkpt>
      <trkpt lat="45.381462" lon="5.707105">
        <ele>453.200774</ele>
        <time>2017-06-03T12:28:05.000Z</time>
      </trkpt>
      <trkpt lat="45.381374" lon="5.706913">
        <ele>453.118742</ele>
        <time>2017-06-03T12:28:09.000Z</time>
      </trkpt>
      <trkpt lat="45.381325" lon="5.706801">
        <ele>453.071530</ele>
        <time>2017-06-03T12:28:11.000Z</time>
      </trkpt>
      <trkpt lat="45.381268" lon="5.706699">
        <ele>453.024892</ele>
        <time>2017-06-03T12:28:13.000Z</time>
      </trkpt>
      <trkpt lat="45.381184" lon="5.706547">
        <ele>452.955689</ele>
        <time>2017-06-03T12:28:16.000Z</time>
      </trkpt>
      <trkpt lat="45.381130" lon="5.706441">
        <ele>452.908836</ele>
        <time>2017-06-03T12:28:18.000Z</time>
      </trkpt>
      <trkpt lat="45.381073" lon="5.706327">
        <ele>452.858766</ele>
        <time>2017-06-03T12:28:20.000Z</time>
      </trkpt>
      <trkpt lat="45.380985" lon="5.706156">
        <ele>452.782916</ele>
        <time>2017-06-03T12:28:23.000Z</time>
      </trkpt>
      <trkpt lat="45.380930" lon="5.706043">
        <ele>452.718201</ele>
        <time>2017-06-03T12:28:25.000Z</time>
      </trkpt>
      <trkpt lat="45.380870" lon="5.705916">
        <ele>452.588256</ele>
        <time>2017-06-03T12:28:27.000Z</time>
      </trkpt>
      <trkpt lat="45.380780" lon="5.705732">
        <ele>452.397893</ele>
        <time>2017-06-03T12:28:30.000Z</time>
      </trkpt>
      <trkpt lat="45.380714" lon="5.705619">
        <ele>452.273120</ele>
        <time>2017-06-03T12:28:32.000Z</time>
      </trkpt>
      <trkpt lat="45.380653" lon="5.705498">
        <ele>452.146669</ele>
        <time>2017-06-03T12:28:34.000Z</time>
      </trkpt>
      <trkpt lat="45.380592" lon="5.705403">
        <ele>452.037390</ele>
        <time>2017-06-03T12:28:36.000Z</time>
      </trkpt>
      <trkpt lat="45.380527" lon="5.705289">
        <ele>451.912728</ele>
        <time>2017-06-03T12:28:38.000Z</time>
      </trkpt>
      <trkpt lat="45.380470" lon="5.705175">
        <ele>451.793923</ele>
        <time>2017-06-03T12:28:40.000Z</time>
      </trkpt>
      <trkpt lat="45.380413" lon="5.705071">
        <ele>451.681926</ele>
        <time>2017-06-03T12:28:42.000Z</time>
      </trkpt>
      <trkpt lat="45.380360" lon="5.704965">
        <ele>451.571458</ele>
        <time>2017-06-03T12:28:44.000Z</time>
      </trkpt>
      <trkpt lat="45.380300" lon="5.704860">
        <ele>451.456537</ele>
        <time>2017-06-03T12:28:46.000Z</time>
      </trkpt>
      <trkpt lat="45.380245" lon="5.704738">
        <ele>451.333458</ele>
        <time>2017-06-03T12:28:48.000Z</time>
      </trkpt>
      <trkpt lat="45.380190" lon="5.704625">
        <ele>451.216737</ele>
        <time>2017-06-03T12:28:50.000Z</time>
      </trkpt>
      <trkpt lat="45.380142" lon="5.704503">
        <ele>451.098014</ele>
        <time>2017-06-03T12:28:52.000Z</time>
      </trkpt>
      <trkpt lat="45.380093" lon="5.704388">
        <ele>450.983818</ele>
        <time>2017-06-03T12:28:54.000Z</time>
      </trkpt>
      <trkpt lat="45.380020" lon="5.704230">
        <ele>450.823254</ele>
        <time>2017-06-03T12:28:57.000Z</time>
      </trkpt>
      <trkpt lat="45.379967" lon="5.704115">
        <ele>450.706476</ele>
        <time>2017-06-03T12:28:59.000Z</time>
      </trkpt>
      <trkpt lat="45.379917" lon="5.703996">
        <ele>450.588746</ele>
        <time>2017-06-03T12:29:01.000Z</time>
      </trkpt>
      <trkpt lat="45.379880" lon="5.703877">
        <ele>450.651370</ele>
        <time>2017-06-03T12:29:03.000Z</time>
      </trkpt>
      <trkpt lat="45.379818" lon="5.703755">
        <ele>450.762294</ele>
        <time>2017-06-03T12:29:05.000Z</time>
      </trkpt>
      <trkpt lat="45.379765" lon="5.703627">
        <ele>450.871746</ele>
        <time>2017-06-03T12:29:07.000Z</time>
      </trkpt>
      <trkpt lat="45.379720" lon="5.703503">
        <ele>450.974558</ele>
        <time>2017-06-03T12:29:09.000Z</time>
      </trkpt>
      <trkpt lat="45.379690" lon="5.703376">
        <ele>451.073259</ele>
        <time>2017-06-03T12:29:11.000Z</time>
      </trkpt>
      <trkpt lat="45.379660" lon="5.703251">
        <ele>451.170564</ele>
        <time>2017-06-03T12:29:13.000Z</time>
      </trkpt>
      <trkpt lat="45.379635" lon="5.703128">
        <ele>451.264886</ele>
        <time>2017-06-03T12:29:15.000Z</time>
      </trkpt>
      <trkpt lat="45.379600" lon="5.702996">
        <ele>451.368819</ele>
        <time>2017-06-03T12:29:17.000Z</time>
      </trkpt>
      <trkpt lat="45.379570" lon="5.702870">
        <ele>451.466822</ele>
        <time>2017-06-03T12:29:19.000Z</time>
      </trkpt>
      <trkpt lat="45.379536" lon="5.702740">
        <ele>451.569006</ele>
        <time>2017-06-03T12:29:21.000Z</time>
      </trkpt>
      <trkpt lat="45.379500" lon="5.702616">
        <ele>451.667844</ele>
        <time>2017-06-03T12:29:23.000Z</time>
      </trkpt>
      <trkpt lat="45.379467" lon="5.702496">
        <ele>451.762773</ele>
        <time>2017-06-03T12:29:25.000Z</time>
      </trkpt>
      <trkpt lat="45.379425" lon="5.702319">
        <ele>451.900395</ele>
        <time>2017-06-03T12:29:28.000Z</time>
      </trkpt>
      <trkpt lat="45.379390" lon="5.702153">
        <ele>452.028066</ele>
        <time>2017-06-03T12:29:31.000Z</time>
      </trkpt>
      <trkpt lat="45.379360" lon="5.702004">
        <ele>452.142245</ele>
        <time>2017-06-03T12:29:34.000Z</time>
      </trkpt>
      <trkpt lat="45.379300" lon="5.701849">
        <ele>452.272614</ele>
        <time>2017-06-03T12:29:37.000Z</time>
      </trkpt>
      <trkpt lat="45.379240" lon="5.701689">
        <ele>452.406220</ele>
        <time>2017-06-03T12:29:40.000Z</time>
      </trkpt>
      <trkpt lat="45.379173" lon="5.701550">
        <ele>452.770983</ele>
        <time>2017-06-03T12:29:43.000Z</time>
      </trkpt>
      <trkpt lat="45.379100" lon="5.701419">
        <ele>453.299143</ele>
        <time>2017-06-03T12:29:46.000Z</time>
      </trkpt>
      <trkpt lat="45.379032" lon="5.701285">
        <ele>453.821281</ele>
        <time>2017-06-03T12:29:49.000Z</time>
      </trkpt>
      <trkpt lat="45.378956" lon="5.701147">
        <ele>454.375156</ele>
        <time>2017-06-03T12:29:52.000Z</time>
      </trkpt>
      <trkpt lat="45.378876" lon="5.701004">
        <ele>454.952573</ele>
        <time>2017-06-03T12:29:55.000Z</time>
      </trkpt>
      <trkpt lat="45.378796" lon="5.700877">
        <ele>455.491382</ele>
        <time>2017-06-03T12:29:58.000Z</time>
      </trkpt>
      <trkpt lat="45.378710" lon="5.700750">
        <ele>456.048565</ele>
        <time>2017-06-03T12:30:01.000Z</time>
      </trkpt>
      <trkpt lat="45.378640" lon="5.700627">
        <ele>456.548574</ele>
        <time>2017-06-03T12:30:04.000Z</time>
      </trkpt>
      <trkpt lat="45.378597" lon="5.700511">
        <ele>456.962855</ele>
        <time>2017-06-03T12:30:07.000Z</time>
      </trkpt>
      <trkpt lat="45.378532" lon="5.700374">
        <ele>457.485038</ele>
        <time>2017-06-03T12:30:11.000Z</time>
      </trkpt>
      <trkpt lat="45.378480" lon="5.700269">
        <ele>457.890826</ele>
        <time>2017-06-03T12:30:14.000Z</time>
      </trkpt>
      <trkpt lat="45.378426" lon="5.700164">
        <ele>458.301862</ele>
        <time>2017-06-03T12:30:17.000Z</time>
      </trkpt>
      <trkpt lat="45.378372" lon="5.700037">
        <ele>458.770766</ele>
        <time>2017-06-03T12:30:20.000Z</time>
      </trkpt>
      <trkpt lat="45.378304" lon="5.699927">
        <ele>459.233596</ele>
        <time>2017-06-03T12:30:23.000Z</time>
      </trkpt>
      <trkpt lat="45.378230" lon="5.699829">
        <ele>459.688060</ele>
        <time>2017-06-03T12:30:26.000Z</time>
      </trkpt>
      <trkpt lat="45.378166" lon="5.699714">
        <ele>460.151482</ele>
        <time>2017-06-03T12:30:29.000Z</time>
      </trkpt>
      <trkpt lat="45.378098" lon="5.699594">
        <ele>460.604604</ele>
        <time>2017-06-03T12:30:32.000Z</time>
      </trkpt>
      <trkpt lat="45.378040" lon="5.699440">
        <ele>460.956335</ele>
        <time>2017-06-03T12:30:35.000Z</time>
      </trkpt>
      <trkpt lat="45.377970" lon="5.699315">
        <ele>461.278121</ele>
        <time>2017-06-03T12:30:38.000Z</time>
      </trkpt>
      <trkpt lat="45.377903" lon="5.699189">
        <ele>461.596222</ele>
        <time>2017-06-03T12:30:42.000Z</time>
      </trkpt>
      <trkpt lat="45.377840" lon="5.699065">
        <ele>461.904268</ele>
        <time>2017-06-03T12:30:44.000Z</time>
      </trkpt>
      <trkpt lat="45.377766" lon="5.698967">
        <ele>462.193890</ele>
        <time>2017-06-03T12:30:47.000Z</time>
      </trkpt>
      <trkpt lat="45.377697" lon="5.698856">
        <ele>462.492249</ele>
        <time>2017-06-03T12:30:50.000Z</time>
      </trkpt>
      <trkpt lat="45.377632" lon="5.698744">
        <ele>462.784687</ele>
        <time>2017-06-03T12:30:53.000Z</time>
      </trkpt>
      <trkpt lat="45.377560" lon="5.698636">
        <ele>463.084404</ele>
        <time>2017-06-03T12:30:56.000Z</time>
      </trkpt>
      <trkpt lat="45.377480" lon="5.698531">
        <ele>463.396216</ele>
        <time>2017-06-03T12:30:59.000Z</time>
      </trkpt>
      <trkpt lat="45.377396" lon="5.698427">
        <ele>463.715225</ele>
        <time>2017-06-03T12:31:02.000Z</time>
      </trkpt>
      <trkpt lat="45.377304" lon="5.698321">
        <ele>464.054387</ele>
        <time>2017-06-03T12:31:05.000Z</time>
      </trkpt>
      <trkpt lat="45.377216" lon="5.698232">
        <ele>464.363720</ele>
        <time>2017-06-03T12:31:08.000Z</time>
      </trkpt>
      <trkpt lat="45.377120" lon="5.698151">
        <ele>464.683507</ele>
        <time>2017-06-03T12:31:11.000Z</time>
      </trkpt>
      <trkpt lat="45.377026" lon="5.698070">
        <ele>464.998378</ele>
        <time>2017-06-03T12:31:14.000Z</time>
      </trkpt>
      <trkpt lat="45.376930" lon="5.697997">
        <ele>465.310264</ele>
        <time>2017-06-03T12:31:17.000Z</time>
      </trkpt>
      <trkpt lat="45.376840" lon="5.697926">
        <ele>465.605121</ele>
        <time>2017-06-03T12:31:20.000Z</time>
      </trkpt>
      <trkpt lat="45.376740" lon="5.697870">
        <ele>465.976216</ele>
        <time>2017-06-03T12:31:23.000Z</time>
      </trkpt>
      <trkpt lat="45.376633" lon="5.697814">
        <ele>466.399443</ele>
        <time>2017-06-03T12:31:26.000Z</time>
      </trkpt>
      <trkpt lat="45.376522" lon="5.697764">
        <ele>466.831663</ele>
        <time>2017-06-03T12:31:29.000Z</time>
      </trkpt>
      <trkpt lat="45.376400" lon="5.697713">
        <ele>467.303708</ele>
        <time>2017-06-03T12:31:32.000Z</time>
      </trkpt>
      <trkpt lat="45.376286" lon="5.697665">
        <ele>467.745052</ele>
        <time>2017-06-03T12:31:35.000Z</time>
      </trkpt>
      <trkpt lat="45.376194" lon="5.697608">
        <ele>468.117543</ele>
        <time>2017-06-03T12:31:38.000Z</time>
      </trkpt>
      <trkpt lat="45.376100" lon="5.697559">
        <ele>468.489174</ele>
        <time>2017-06-03T12:31:41.000Z</time>
      </trkpt>
      <trkpt lat="45.376010" lon="5.697496">
        <ele>468.861504</ele>
        <time>2017-06-03T12:31:44.000Z</time>
      </trkpt>
      <trkpt lat="45.375908" lon="5.697455">
        <ele>469.254981</ele>
        <time>2017-06-03T12:31:48.000Z</time>
      </trkpt>
      <trkpt lat="45.375813" lon="5.697396">
        <ele>469.639766</ele>
        <time>2017-06-03T12:31:52.000Z</time>
      </trkpt>
      <trkpt lat="45.375720" lon="5.697314">
        <ele>470.045885</ele>
        <time>2017-06-03T12:31:57.000Z</time>
      </trkpt>
      <trkpt lat="45.375630" lon="5.697290">
        <ele>470.385818</ele>
        <time>2017-06-03T12:32:03.000Z</time>
      </trkpt>
      <trkpt lat="45.375540" lon="5.697245">
        <ele>470.739950</ele>
        <time>2017-06-03T12:32:09.000Z</time>
      </trkpt>
      <trkpt lat="45.375460" lon="5.697186">
        <ele>471.074436</ele>
        <time>2017-06-03T12:32:13.000Z</time>
      </trkpt>
      <trkpt lat="45.375350" lon="5.697161">
        <ele>471.487979</ele>
        <time>2017-06-03T12:32:18.000Z</time>
      </trkpt>
      <trkpt lat="45.375435" lon="5.697223">
        <ele>471.842550</ele>
        <time>2017-06-03T12:32:27.000Z</time>
      </trkpt>
      <trkpt lat="45.375530" lon="5.697241">
        <ele>472.198344</ele>
        <time>2017-06-03T12:32:31.000Z</time>
      </trkpt>
      <trkpt lat="45.375626" lon="5.697279">
        <ele>472.204907</ele>
        <time>2017-06-03T12:32:37.000Z</time>
      </trkpt>
      <trkpt lat="45.375534" lon="5.697196">
        <ele>471.842134</ele>
        <time>2017-06-03T12:36:05.000Z</time>
      </trkpt>
      <trkpt lat="45.375440" lon="5.697105">
        <ele>471.463517</ele>
        <time>2017-06-03T12:36:10.000Z</time>
      </trkpt>
      <trkpt lat="45.375324" lon="5.697095">
        <ele>471.076452</ele>
        <time>2017-06-03T12:36:14.000Z</time>
      </trkpt>
      <trkpt lat="45.375217" lon="5.697062">
        <ele>470.711803</ele>
        <time>2017-06-03T12:36:17.000Z</time>
      </trkpt>
      <trkpt lat="45.375080" lon="5.697004">
        <ele>470.235751</ele>
        <time>2017-06-03T12:36:20.000Z</time>
      </trkpt>
      <trkpt lat="45.374990" lon="5.696981">
        <ele>469.931199</ele>
        <time>2017-06-03T12:36:22.000Z</time>
      </trkpt>
      <trkpt lat="45.374897" lon="5.696969">
        <ele>469.620177</ele>
        <time>2017-06-03T12:36:27.000Z</time>
      </trkpt>
      <trkpt lat="45.374810" lon="5.696939">
        <ele>469.322029</ele>
        <time>2017-06-03T12:36:30.000Z</time>
      </trkpt>
      <trkpt lat="45.374720" lon="5.696899">
        <ele>469.007999</ele>
        <time>2017-06-03T12:36:33.000Z</time>
      </trkpt>
      <trkpt lat="45.374630" lon="5.696848">
        <ele>468.685362</ele>
        <time>2017-06-03T12:36:36.000Z</time>
      </trkpt>
      <trkpt lat="45.374523" lon="5.696854">
        <ele>468.328704</ele>
        <time>2017-06-03T12:36:39.000Z</time>
      </trkpt>
      <trkpt lat="45.374428" lon="5.696837">
        <ele>468.009801</ele>
        <time>2017-06-03T12:36:42.000Z</time>
      </trkpt>
      <trkpt lat="45.374320" lon="5.696786">
        <ele>467.630814</ele>
        <time>2017-06-03T12:36:45.000Z</time>
      </trkpt>
      <trkpt lat="45.374203" lon="5.696725">
        <ele>467.215812</ele>
        <time>2017-06-03T12:36:48.000Z</time>
      </trkpt>
      <trkpt lat="45.374092" lon="5.696650">
        <ele>466.806576</ele>
        <time>2017-06-03T12:36:51.000Z</time>
      </trkpt>
      <trkpt lat="45.373978" lon="5.696574">
        <ele>466.387305</ele>
        <time>2017-06-03T12:36:54.000Z</time>
      </trkpt>
      <trkpt lat="45.373867" lon="5.696482">
        <ele>465.859789</ele>
        <time>2017-06-03T12:36:57.000Z</time>
      </trkpt>
      <trkpt lat="45.373790" lon="5.696398">
        <ele>465.461149</ele>
        <time>2017-06-03T12:37:00.000Z</time>
      </trkpt>
      <trkpt lat="45.373700" lon="5.696301">
        <ele>464.997273</ele>
        <time>2017-06-03T12:37:03.000Z</time>
      </trkpt>
      <trkpt lat="45.373620" lon="5.696188">
        <ele>464.534160</ele>
        <time>2017-06-03T12:37:06.000Z</time>
      </trkpt>
      <trkpt lat="45.373535" lon="5.696078">
        <ele>464.062111</ele>
        <time>2017-06-03T12:37:09.000Z</time>
      </trkpt>
      <trkpt lat="45.373460" lon="5.695966">
        <ele>463.615443</ele>
        <time>2017-06-03T12:37:12.000Z</time>
      </trkpt>
      <trkpt lat="45.373405" lon="5.695861">
        <ele>463.237354</ele>
        <time>2017-06-03T12:37:17.000Z</time>
      </trkpt>
      <trkpt lat="45.373340" lon="5.695728">
        <ele>462.769651</ele>
        <time>2017-06-03T12:37:31.000Z</time>
      </trkpt>
      <trkpt lat="45.373276" lon="5.695594">
        <ele>462.301898</ele>
        <time>2017-06-03T12:37:35.000Z</time>
      </trkpt>
      <trkpt lat="45.373203" lon="5.695457">
        <ele>461.805523</ele>
        <time>2017-06-03T12:37:38.000Z</time>
      </trkpt>
      <trkpt lat="45.373146" lon="5.695355">
        <ele>461.429279</ele>
        <time>2017-06-03T12:37:40.000Z</time>
      </trkpt>
      <trkpt lat="45.373070" lon="5.695256">
        <ele>461.005952</ele>
        <time>2017-06-03T12:37:42.000Z</time>
      </trkpt>
      <trkpt lat="45.373005" lon="5.695142">
        <ele>460.582112</ele>
        <time>2017-06-03T12:37:44.000Z</time>
      </trkpt>
      <trkpt lat="45.372932" lon="5.695018">
        <ele>460.115083</ele>
        <time>2017-06-03T12:37:46.000Z</time>
      </trkpt>
      <trkpt lat="45.372864" lon="5.694895">
        <ele>459.663250</ele>
        <time>2017-06-03T12:37:48.000Z</time>
      </trkpt>
      <trkpt lat="45.372790" lon="5.694778">
        <ele>459.208783</ele>
        <time>2017-06-03T12:37:50.000Z</time>
      </trkpt>
      <trkpt lat="45.372710" lon="5.694651">
        <ele>458.931317</ele>
        <time>2017-06-03T12:37:52.000Z</time>
      </trkpt>
      <trkpt lat="45.372640" lon="5.694522">
        <ele>458.823833</ele>
        <time>2017-06-03T12:37:54.000Z</time>
      </trkpt>
      <trkpt lat="45.372562" lon="5.694390">
        <ele>458.710095</ele>
        <time>2017-06-03T12:37:56.000Z</time>
      </trkpt>
      <trkpt lat="45.372486" lon="5.694259">
        <ele>458.598065</ele>
        <time>2017-06-03T12:37:58.000Z</time>
      </trkpt>
      <trkpt lat="45.372420" lon="5.694128">
        <ele>458.491766</ele>
        <time>2017-06-03T12:38:00.000Z</time>
      </trkpt>
      <trkpt lat="45.372356" lon="5.693983">
        <ele>458.378847</ele>
        <time>2017-06-03T12:38:02.000Z</time>
      </trkpt>
      <trkpt lat="45.372295" lon="5.693835">
        <ele>458.265699</ele>
        <time>2017-06-03T12:38:04.000Z</time>
      </trkpt>
      <trkpt lat="45.372234" lon="5.693685">
        <ele>458.151411</ele>
        <time>2017-06-03T12:38:06.000Z</time>
      </trkpt>
      <trkpt lat="45.372173" lon="5.693531">
        <ele>458.034834</ele>
        <time>2017-06-03T12:38:08.000Z</time>
      </trkpt>
      <trkpt lat="45.372120" lon="5.693371">
        <ele>457.918189</ele>
        <time>2017-06-03T12:38:10.000Z</time>
      </trkpt>
      <trkpt lat="45.372060" lon="5.693216">
        <ele>457.801492</ele>
        <time>2017-06-03T12:38:12.000Z</time>
      </trkpt>
      <trkpt lat="45.372010" lon="5.693059">
        <ele>457.687824</ele>
        <time>2017-06-03T12:38:14.000Z</time>
      </trkpt>
      <trkpt lat="45.371956" lon="5.692894">
        <ele>457.567795</ele>
        <time>2017-06-03T12:38:16.000Z</time>
      </trkpt>
      <trkpt lat="45.371910" lon="5.692740">
        <ele>457.457448</ele>
        <time>2017-06-03T12:38:18.000Z</time>
      </trkpt>
      <trkpt lat="45.371870" lon="5.692580">
        <ele>457.345462</ele>
        <time>2017-06-03T12:38:20.000Z</time>
      </trkpt>
      <trkpt lat="45.371838" lon="5.692420">
        <ele>457.316733</ele>
        <time>2017-06-03T12:38:22.000Z</time>
      </trkpt>
      <trkpt lat="45.371815" lon="5.692260">
        <ele>457.332040</ele>
        <time>2017-06-03T12:38:24.000Z</time>
      </trkpt>
      <trkpt lat="45.371803" lon="5.692096">
        <ele>457.347496</ele>
        <time>2017-06-03T12:38:26.000Z</time>
      </trkpt>
      <trkpt lat="45.371800" lon="5.691937">
        <ele>457.362404</ele>
        <time>2017-06-03T12:38:28.000Z</time>
      </trkpt>
      <trkpt lat="45.371796" lon="5.691780">
        <ele>457.377130</ele>
        <time>2017-06-03T12:38:30.000Z</time>
      </trkpt>
      <trkpt lat="45.371807" lon="5.691626">
        <ele>457.391639</ele>
        <time>2017-06-03T12:38:32.000Z</time>
      </trkpt>
      <trkpt lat="45.371803" lon="5.691464">
        <ele>457.406833</ele>
        <time>2017-06-03T12:38:34.000Z</time>
      </trkpt>
      <trkpt lat="45.371796" lon="5.691311">
        <ele>457.421205</ele>
        <time>2017-06-03T12:38:36.000Z</time>
      </trkpt>
      <trkpt lat="45.371790" lon="5.691160">
        <ele>457.435381</ele>
        <time>2017-06-03T12:38:38.000Z</time>
      </trkpt>
      <trkpt lat="45.371796" lon="5.691011">
        <ele>457.449370</ele>
        <time>2017-06-03T12:38:40.000Z</time>
      </trkpt>
      <trkpt lat="45.371803" lon="5.690867">
        <ele>457.462899</ele>
        <time>2017-06-03T12:38:42.000Z</time>
      </trkpt>
      <trkpt lat="45.371796" lon="5.690718">
        <ele>457.476897</ele>
        <time>2017-06-03T12:38:44.000Z</time>
      </trkpt>
      <trkpt lat="45.371770" lon="5.690569">
        <ele>457.491287</ele>
        <time>2017-06-03T12:38:46.000Z</time>
      </trkpt>
      <trkpt lat="45.371750" lon="5.690427">
        <ele>457.504862</ele>
        <time>2017-06-03T12:38:48.000Z</time>
      </trkpt>
      <trkpt lat="45.371727" lon="5.690292">
        <ele>457.517883</ele>
        <time>2017-06-03T12:38:50.000Z</time>
      </trkpt>
      <trkpt lat="45.371690" lon="5.690160">
        <ele>457.531204</ele>
        <time>2017-06-03T12:38:52.000Z</time>
      </trkpt>
      <trkpt lat="45.371635" lon="5.690029">
        <ele>457.545509</ele>
        <time>2017-06-03T12:38:54.000Z</time>
      </trkpt>
      <trkpt lat="45.371580" lon="5.689906">
        <ele>457.847173</ele>
        <time>2017-06-03T12:38:56.000Z</time>
      </trkpt>
      <trkpt lat="45.371530" lon="5.689751">
        <ele>458.230500</ele>
        <time>2017-06-03T12:38:59.000Z</time>
      </trkpt>
      <trkpt lat="45.371468" lon="5.689599">
        <ele>458.625524</ele>
        <time>2017-06-03T12:39:02.000Z</time>
      </trkpt>
      <trkpt lat="45.371414" lon="5.689452">
        <ele>458.998344</ele>
        <time>2017-06-03T12:39:05.000Z</time>
      </trkpt>
      <trkpt lat="45.371350" lon="5.689321">
        <ele>459.356959</ele>
        <time>2017-06-03T12:39:08.000Z</time>
      </trkpt>
      <trkpt lat="45.371280" lon="5.689177">
        <ele>459.750522</ele>
        <time>2017-06-03T12:39:11.000Z</time>
      </trkpt>
      <trkpt lat="45.371212" lon="5.689045">
        <ele>460.118405</ele>
        <time>2017-06-03T12:39:14.000Z</time>
      </trkpt>
      <trkpt lat="45.371147" lon="5.688912">
        <ele>460.482538</ele>
        <time>2017-06-03T12:39:17.000Z</time>
      </trkpt>
      <trkpt lat="45.371056" lon="5.688777">
        <ele>460.903029</ele>
        <time>2017-06-03T12:39:20.000Z</time>
      </trkpt>
      <trkpt lat="45.370995" lon="5.688682">
        <ele>461.192289</ele>
        <time>2017-06-03T12:39:22.000Z</time>
      </trkpt>
      <trkpt lat="45.370920" lon="5.688558">
        <ele>461.560038</ele>
        <time>2017-06-03T12:39:25.000Z</time>
      </trkpt>
      <trkpt lat="45.370842" lon="5.688441">
        <ele>461.922550</ele>
        <time>2017-06-03T12:39:28.000Z</time>
      </trkpt>
      <trkpt lat="45.370758" lon="5.688326">
        <ele>462.295405</ele>
        <time>2017-06-03T12:39:31.000Z</time>
      </trkpt>
      <trkpt lat="45.370680" lon="5.688224">
        <ele>462.634259</ele>
        <time>2017-06-03T12:39:34.000Z</time>
      </trkpt>
      <trkpt lat="45.370610" lon="5.688129">
        <ele>462.943676</ele>
        <time>2017-06-03T12:39:37.000Z</time>
      </trkpt>
      <trkpt lat="45.370533" lon="5.688029">
        <ele>463.277137</ele>
        <time>2017-06-03T12:39:40.000Z</time>
      </trkpt>
      <trkpt lat="45.370453" lon="5.687939">
        <ele>463.674205</ele>
        <time>2017-06-03T12:39:43.000Z</time>
      </trkpt>
      <trkpt lat="45.370370" lon="5.687847">
        <ele>464.089578</ele>
        <time>2017-06-03T12:39:46.000Z</time>
      </trkpt>
      <trkpt lat="45.370296" lon="5.687757">
        <ele>464.473901</ele>
        <time>2017-06-03T12:39:49.000Z</time>
      </trkpt>
      <trkpt lat="45.370213" lon="5.687673">
        <ele>464.876022</ele>
        <time>2017-06-03T12:39:52.000Z</time>
      </trkpt>
      <trkpt lat="45.370130" lon="5.687586">
        <ele>465.283021</ele>
        <time>2017-06-03T12:39:55.000Z</time>
      </trkpt>
      <trkpt lat="45.370050" lon="5.687500">
        <ele>465.678867</ele>
        <time>2017-06-03T12:39:58.000Z</time>
      </trkpt>
      <trkpt lat="45.369970" lon="5.687422">
        <ele>466.061748</ele>
        <time>2017-06-03T12:40:01.000Z</time>
      </trkpt>
      <trkpt lat="45.369880" lon="5.687351">
        <ele>466.468045</ele>
        <time>2017-06-03T12:40:04.000Z</time>
      </trkpt>
      <trkpt lat="45.369793" lon="5.687277">
        <ele>466.868227</ele>
        <time>2017-06-03T12:40:07.000Z</time>
      </trkpt>
      <trkpt lat="45.369698" lon="5.687199">
        <ele>467.301269</ele>
        <time>2017-06-03T12:40:10.000Z</time>
      </trkpt>
      <trkpt lat="45.369610" lon="5.687134">
        <ele>467.692738</ele>
        <time>2017-06-03T12:40:13.000Z</time>
      </trkpt>
      <trkpt lat="45.369520" lon="5.687058">
        <ele>468.105938</ele>
        <time>2017-06-03T12:40:16.000Z</time>
      </trkpt>
      <trkpt lat="45.369427" lon="5.686992">
        <ele>468.516262</ele>
        <time>2017-06-03T12:40:19.000Z</time>
      </trkpt>
      <trkpt lat="45.369335" lon="5.686926">
        <ele>468.923057</ele>
        <time>2017-06-03T12:40:22.000Z</time>
      </trkpt>
      <trkpt lat="45.369244" lon="5.686848">
        <ele>469.342493</ele>
        <time>2017-06-03T12:40:25.000Z</time>
      </trkpt>
      <trkpt lat="45.369160" lon="5.686777">
        <ele>469.728240</ele>
        <time>2017-06-03T12:40:28.000Z</time>
      </trkpt>
      <trkpt lat="45.369072" lon="5.686706">
        <ele>470.127650</ele>
        <time>2017-06-03T12:40:31.000Z</time>
      </trkpt>
      <trkpt lat="45.368980" lon="5.686633">
        <ele>470.525463</ele>
        <time>2017-06-03T12:40:34.000Z</time>
      </trkpt>
      <trkpt lat="45.368896" lon="5.686566">
        <ele>470.856778</ele>
        <time>2017-06-03T12:40:37.000Z</time>
      </trkpt>
      <trkpt lat="45.368805" lon="5.686503">
        <ele>471.204965</ele>
        <time>2017-06-03T12:40:40.000Z</time>
      </trkpt>
      <trkpt lat="45.368713" lon="5.686431">
        <ele>471.566214</ele>
        <time>2017-06-03T12:40:43.000Z</time>
      </trkpt>
      <trkpt lat="45.368618" lon="5.686356">
        <ele>471.940005</ele>
        <time>2017-06-03T12:40:46.000Z</time>
      </trkpt>
      <trkpt lat="45.368530" lon="5.686282">
        <ele>472.291691</ele>
        <time>2017-06-03T12:40:49.000Z</time>
      </trkpt>
      <trkpt lat="45.368440" lon="5.686212">
        <ele>472.644582</ele>
        <time>2017-06-03T12:40:52.000Z</time>
      </trkpt>
      <trkpt lat="45.368347" lon="5.686150">
        <ele>472.997939</ele>
        <time>2017-06-03T12:40:55.000Z</time>
      </trkpt>
      <trkpt lat="45.368260" lon="5.686076">
        <ele>473.346667</ele>
        <time>2017-06-03T12:40:58.000Z</time>
      </trkpt>
      <trkpt lat="45.368170" lon="5.686009">
        <ele>473.696139</ele>
        <time>2017-06-03T12:41:01.000Z</time>
      </trkpt>
      <trkpt lat="45.368084" lon="5.685942">
        <ele>474.033475</ele>
        <time>2017-06-03T12:41:04.000Z</time>
      </trkpt>
      <trkpt lat="45.367992" lon="5.685876">
        <ele>474.387965</ele>
        <time>2017-06-03T12:41:07.000Z</time>
      </trkpt>
      <trkpt lat="45.367900" lon="5.685817">
        <ele>474.735168</ele>
        <time>2017-06-03T12:41:10.000Z</time>
      </trkpt>
      <trkpt lat="45.367813" lon="5.685764">
        <ele>475.060786</ele>
        <time>2017-06-03T12:41:13.000Z</time>
      </trkpt>
      <trkpt lat="45.367718" lon="5.685722">
        <ele>475.403070</ele>
        <time>2017-06-03T12:41:16.000Z</time>
      </trkpt>
      <trkpt lat="45.367626" lon="5.685685">
        <ele>475.732020</ele>
        <time>2017-06-03T12:41:19.000Z</time>
      </trkpt>
      <trkpt lat="45.367527" lon="5.685646">
        <ele>476.085469</ele>
        <time>2017-06-03T12:41:22.000Z</time>
      </trkpt>
      <trkpt lat="45.367430" lon="5.685607">
        <ele>476.432289</ele>
        <time>2017-06-03T12:41:25.000Z</time>
      </trkpt>
      <trkpt lat="45.367332" lon="5.685562">
        <ele>476.770117</ele>
        <time>2017-06-03T12:41:28.000Z</time>
      </trkpt>
      <trkpt lat="45.367237" lon="5.685534">
        <ele>477.075687</ele>
        <time>2017-06-03T12:41:31.000Z</time>
      </trkpt>
      <trkpt lat="45.367153" lon="5.685464">
        <ele>477.382272</ele>
        <time>2017-06-03T12:41:34.000Z</time>
      </trkpt>
      <trkpt lat="45.367070" lon="5.685387">
        <ele>477.694324</ele>
        <time>2017-06-03T12:41:37.000Z</time>
      </trkpt>
      <trkpt lat="45.366985" lon="5.685313">
        <ele>478.008158</ele>
        <time>2017-06-03T12:41:40.000Z</time>
      </trkpt>
      <trkpt lat="45.366913" lon="5.685230">
        <ele>478.299985</ele>
        <time>2017-06-03T12:41:43.000Z</time>
      </trkpt>
      <trkpt lat="45.366833" lon="5.685156">
        <ele>478.600497</ele>
        <time>2017-06-03T12:41:46.000Z</time>
      </trkpt>
      <trkpt lat="45.366753" lon="5.685067">
        <ele>478.920309</ele>
        <time>2017-06-03T12:41:49.000Z</time>
      </trkpt>
      <trkpt lat="45.366676" lon="5.684983">
        <ele>479.225877</ele>
        <time>2017-06-03T12:41:52.000Z</time>
      </trkpt>
      <trkpt lat="45.366604" lon="5.684898">
        <ele>479.520510</ele>
        <time>2017-06-03T12:41:55.000Z</time>
      </trkpt>
      <trkpt lat="45.366524" lon="5.684816">
        <ele>479.831024</ele>
        <time>2017-06-03T12:41:58.000Z</time>
      </trkpt>
      <trkpt lat="45.366450" lon="5.684738">
        <ele>480.121056</ele>
        <time>2017-06-03T12:42:01.000Z</time>
      </trkpt>
      <trkpt lat="45.366364" lon="5.684634">
        <ele>480.476497</ele>
        <time>2017-06-03T12:42:05.000Z</time>
      </trkpt>
      <trkpt lat="45.366272" lon="5.684531">
        <ele>480.845170</ele>
        <time>2017-06-03T12:42:09.000Z</time>
      </trkpt>
      <trkpt lat="45.366196" lon="5.684435">
        <ele>481.165220</ele>
        <time>2017-06-03T12:42:12.000Z</time>
      </trkpt>
      <trkpt lat="45.366116" lon="5.684355">
        <ele>481.473169</ele>
        <time>2017-06-03T12:42:15.000Z</time>
      </trkpt>
      <trkpt lat="45.366040" lon="5.684278">
        <ele>481.766998</ele>
        <time>2017-06-03T12:42:18.000Z</time>
      </trkpt>
      <trkpt lat="45.365970" lon="5.684180">
        <ele>482.076259</ele>
        <time>2017-06-03T12:42:21.000Z</time>
      </trkpt>
      <trkpt lat="45.365890" lon="5.684097">
        <ele>482.389009</ele>
        <time>2017-06-03T12:42:24.000Z</time>
      </trkpt>
      <trkpt lat="45.365807" lon="5.684028">
        <ele>482.693923</ele>
        <time>2017-06-03T12:42:27.000Z</time>
      </trkpt>
      <trkpt lat="45.365730" lon="5.683948">
        <ele>482.996336</ele>
        <time>2017-06-03T12:42:30.000Z</time>
      </trkpt>
      <trkpt lat="45.365650" lon="5.683862">
        <ele>483.314362</ele>
        <time>2017-06-03T12:42:33.000Z</time>
      </trkpt>
      <trkpt lat="45.365566" lon="5.683779">
        <ele>483.638745</ele>
        <time>2017-06-03T12:42:36.000Z</time>
      </trkpt>
      <trkpt lat="45.365486" lon="5.683694">
        <ele>483.955433</ele>
        <time>2017-06-03T12:42:39.000Z</time>
      </trkpt>
      <trkpt lat="45.365406" lon="5.683611">
        <ele>484.269475</ele>
        <time>2017-06-03T12:42:42.000Z</time>
      </trkpt>
      <trkpt lat="45.365326" lon="5.683531">
        <ele>484.579627</ele>
        <time>2017-06-03T12:42:45.000Z</time>
      </trkpt>
      <trkpt lat="45.365246" lon="5.683446">
        <ele>484.896315</ele>
        <time>2017-06-03T12:42:48.000Z</time>
      </trkpt>
      <trkpt lat="45.365158" lon="5.683368">
        <ele>485.225175</ele>
        <time>2017-06-03T12:42:51.000Z</time>
      </trkpt>
      <trkpt lat="45.365080" lon="5.683280">
        <ele>485.540913</ele>
        <time>2017-06-03T12:42:54.000Z</time>
      </trkpt>
      <trkpt lat="45.364998" lon="5.683188">
        <ele>485.872134</ele>
        <time>2017-06-03T12:42:57.000Z</time>
      </trkpt>
      <trkpt lat="45.364910" lon="5.683100">
        <ele>486.213301</ele>
        <time>2017-06-03T12:43:00.000Z</time>
      </trkpt>
      <trkpt lat="45.364834" lon="5.683011">
        <ele>486.525503</ele>
        <time>2017-06-03T12:43:03.000Z</time>
      </trkpt>
      <trkpt lat="45.364750" lon="5.682921">
        <ele>486.859030</ele>
        <time>2017-06-03T12:43:06.000Z</time>
      </trkpt>
      <trkpt lat="45.364666" lon="5.682830">
        <ele>487.193903</ele>
        <time>2017-06-03T12:43:09.000Z</time>
      </trkpt>
      <trkpt lat="45.364582" lon="5.682732">
        <ele>487.538448</ele>
        <time>2017-06-03T12:43:12.000Z</time>
      </trkpt>
      <trkpt lat="45.364510" lon="5.682642">
        <ele>487.842426</ele>
        <time>2017-06-03T12:43:15.000Z</time>
      </trkpt>
      <trkpt lat="45.364430" lon="5.682552">
        <ele>488.111307</ele>
        <time>2017-06-03T12:43:18.000Z</time>
      </trkpt>
      <trkpt lat="45.364338" lon="5.682462">
        <ele>488.370318</ele>
        <time>2017-06-03T12:43:21.000Z</time>
      </trkpt>
      <trkpt lat="45.364258" lon="5.682373">
        <ele>488.605904</ele>
        <time>2017-06-03T12:43:24.000Z</time>
      </trkpt>
      <trkpt lat="45.364180" lon="5.682266">
        <ele>488.857249</ele>
        <time>2017-06-03T12:43:27.000Z</time>
      </trkpt>
      <trkpt lat="45.364098" lon="5.682179">
        <ele>489.094545</ele>
        <time>2017-06-03T12:43:30.000Z</time>
      </trkpt>
      <trkpt lat="45.364000" lon="5.682100">
        <ele>489.355856</ele>
        <time>2017-06-03T12:43:33.000Z</time>
      </trkpt>
      <trkpt lat="45.363907" lon="5.682023">
        <ele>489.605483</ele>
        <time>2017-06-03T12:43:36.000Z</time>
      </trkpt>
      <trkpt lat="45.363815" lon="5.681928">
        <ele>489.869198</ele>
        <time>2017-06-03T12:43:39.000Z</time>
      </trkpt>
      <trkpt lat="45.363728" lon="5.681824">
        <ele>490.132801</ele>
        <time>2017-06-03T12:43:42.000Z</time>
      </trkpt>
      <trkpt lat="45.363647" lon="5.681731">
        <ele>490.374259</ele>
        <time>2017-06-03T12:43:45.000Z</time>
      </trkpt>
      <trkpt lat="45.363564" lon="5.681628">
        <ele>490.629752</ele>
        <time>2017-06-03T12:43:48.000Z</time>
      </trkpt>
      <trkpt lat="45.363480" lon="5.681524">
        <ele>490.888064</ele>
        <time>2017-06-03T12:43:51.000Z</time>
      </trkpt>
      <trkpt lat="45.363396" lon="5.681412">
        <ele>491.155118</ele>
        <time>2017-06-03T12:43:54.000Z</time>
      </trkpt>
      <trkpt lat="45.363340" lon="5.681289">
        <ele>491.394043</ele>
        <time>2017-06-03T12:43:57.000Z</time>
      </trkpt>
      <trkpt lat="45.363285" lon="5.681163">
        <ele>491.635855</ele>
        <time>2017-06-03T12:44:00.000Z</time>
      </trkpt>
      <trkpt lat="45.363230" lon="5.681047">
        <ele>491.863982</ele>
        <time>2017-06-03T12:44:03.000Z</time>
      </trkpt>
      <trkpt lat="45.363186" lon="5.680909">
        <ele>492.111024</ele>
        <time>2017-06-03T12:44:06.000Z</time>
      </trkpt>
      <trkpt lat="45.363150" lon="5.680774">
        <ele>492.222899</ele>
        <time>2017-06-03T12:44:10.000Z</time>
      </trkpt>
      <trkpt lat="45.363106" lon="5.680636">
        <ele>492.325094</ele>
        <time>2017-06-03T12:44:12.000Z</time>
      </trkpt>
      <trkpt lat="45.363064" lon="5.680501">
        <ele>492.424657</ele>
        <time>2017-06-03T12:44:15.000Z</time>
      </trkpt>
      <trkpt lat="45.363020" lon="5.680376">
        <ele>492.518939</ele>
        <time>2017-06-03T12:44:18.000Z</time>
      </trkpt>
      <trkpt lat="45.362953" lon="5.680232">
        <ele>492.635408</ele>
        <time>2017-06-03T12:44:21.000Z</time>
      </trkpt>
      <trkpt lat="45.362904" lon="5.680069">
        <ele>492.754966</ele>
        <time>2017-06-03T12:44:24.000Z</time>
      </trkpt>
      <trkpt lat="45.362860" lon="5.679920">
        <ele>492.863960</ele>
        <time>2017-06-03T12:44:27.000Z</time>
      </trkpt>
      <trkpt lat="45.362850" lon="5.679770">
        <ele>492.965568</ele>
        <time>2017-06-03T12:44:30.000Z</time>
      </trkpt>
      <trkpt lat="45.362835" lon="5.679622">
        <ele>493.066406</ele>
        <time>2017-06-03T12:44:33.000Z</time>
      </trkpt>
      <trkpt lat="45.362827" lon="5.679473">
        <ele>493.167178</ele>
        <time>2017-06-03T12:44:36.000Z</time>
      </trkpt>
      <trkpt lat="45.362820" lon="5.679309">
        <ele>493.277977</ele>
        <time>2017-06-03T12:44:39.000Z</time>
      </trkpt>
      <trkpt lat="45.362820" lon="5.679122">
        <ele>493.404082</ele>
        <time>2017-06-03T12:44:42.000Z</time>
      </trkpt>
      <trkpt lat="45.362778" lon="5.678952">
        <ele>493.525604</ele>
        <time>2017-06-03T12:44:45.000Z</time>
      </trkpt>
      <trkpt lat="45.362720" lon="5.678811">
        <ele>493.635785</ele>
        <time>2017-06-03T12:44:48.000Z</time>
      </trkpt>
      <trkpt lat="45.362644" lon="5.678705">
        <ele>493.737915</ele>
        <time>2017-06-03T12:44:51.000Z</time>
      </trkpt>
      <trkpt lat="45.362556" lon="5.678613">
        <ele>493.842714</ele>
        <time>2017-06-03T12:44:54.000Z</time>
      </trkpt>
      <trkpt lat="45.362457" lon="5.678555">
        <ele>494.022251</ele>
        <time>2017-06-03T12:44:57.000Z</time>
      </trkpt>
      <trkpt lat="45.362354" lon="5.678498">
        <ele>494.225969</ele>
        <time>2017-06-03T12:45:00.000Z</time>
      </trkpt>
      <trkpt lat="45.362236" lon="5.678440">
        <ele>494.456096</ele>
        <time>2017-06-03T12:45:03.000Z</time>
      </trkpt>
      <trkpt lat="45.362120" lon="5.678380">
        <ele>494.683614</ele>
        <time>2017-06-03T12:45:06.000Z</time>
      </trkpt>
      <trkpt lat="45.362038" lon="5.678333">
        <ele>494.846570</ele>
        <time>2017-06-03T12:45:08.000Z</time>
      </trkpt>
      <trkpt lat="45.361930" lon="5.678270">
        <ele>495.061730</ele>
        <time>2017-06-03T12:45:11.000Z</time>
      </trkpt>
      <trkpt lat="45.361820" lon="5.678191">
        <ele>495.288858</ele>
        <time>2017-06-03T12:45:14.000Z</time>
      </trkpt>
      <trkpt lat="45.361730" lon="5.678105">
        <ele>495.488688</ele>
        <time>2017-06-03T12:45:17.000Z</time>
      </trkpt>
      <trkpt lat="45.361633" lon="5.677996">
        <ele>495.716514</ele>
        <time>2017-06-03T12:45:20.000Z</time>
      </trkpt>
      <trkpt lat="45.361538" lon="5.677884">
        <ele>495.943917</ele>
        <time>2017-06-03T12:45:23.000Z</time>
      </trkpt>
      <trkpt lat="45.361450" lon="5.677771">
        <ele>496.162403</ele>
        <time>2017-06-03T12:45:26.000Z</time>
      </trkpt>
      <trkpt lat="45.361374" lon="5.677659">
        <ele>496.364075</ele>
        <time>2017-06-03T12:45:29.000Z</time>
      </trkpt>
      <trkpt lat="45.361300" lon="5.677531">
        <ele>496.578771</ele>
        <time>2017-06-03T12:45:32.000Z</time>
      </trkpt>
      <trkpt lat="45.361225" lon="5.677419">
        <ele>496.779167</ele>
        <time>2017-06-03T12:45:35.000Z</time>
      </trkpt>
      <trkpt lat="45.361150" lon="5.677300">
        <ele>496.986221</ele>
        <time>2017-06-03T12:45:38.000Z</time>
      </trkpt>
      <trkpt lat="45.361065" lon="5.677192">
        <ele>497.207560</ele>
        <time>2017-06-03T12:45:41.000Z</time>
      </trkpt>
      <trkpt lat="45.360977" lon="5.677094">
        <ele>497.538675</ele>
        <time>2017-06-03T12:45:44.000Z</time>
      </trkpt>
      <trkpt lat="45.360880" lon="5.677006">
        <ele>497.879548</ele>
        <time>2017-06-03T12:45:47.000Z</time>
      </trkpt>
      <trkpt lat="45.360790" lon="5.676933">
        <ele>498.186517</ele>
        <time>2017-06-03T12:45:50.000Z</time>
      </trkpt>
      <trkpt lat="45.360695" lon="5.676860">
        <ele>498.506444</ele>
        <time>2017-06-03T12:45:53.000Z</time>
      </trkpt>
      <trkpt lat="45.360596" lon="5.676797">
        <ele>498.827802</ele>
        <time>2017-06-03T12:45:56.000Z</time>
      </trkpt>
      <trkpt lat="45.360490" lon="5.676734">
        <ele>499.168202</ele>
        <time>2017-06-03T12:45:59.000Z</time>
      </trkpt>
      <trkpt lat="45.360397" lon="5.676669">
        <ele>499.475228</ele>
        <time>2017-06-03T12:46:04.000Z</time>
      </trkpt>
      <trkpt lat="45.360306" lon="5.676605">
        <ele>499.776018</ele>
        <time>2017-06-03T12:46:06.000Z</time>
      </trkpt>
      <trkpt lat="45.360190" lon="5.676540">
        <ele>500.145445</ele>
        <time>2017-06-03T12:46:09.000Z</time>
      </trkpt>
      <trkpt lat="45.360077" lon="5.676464">
        <ele>500.515806</ele>
        <time>2017-06-03T12:46:12.000Z</time>
      </trkpt>
      <trkpt lat="45.359960" lon="5.676398">
        <ele>500.888755</ele>
        <time>2017-06-03T12:46:15.000Z</time>
      </trkpt>
      <trkpt lat="45.359837" lon="5.676339">
        <ele>501.273387</ele>
        <time>2017-06-03T12:46:18.000Z</time>
      </trkpt>
      <trkpt lat="45.359726" lon="5.676282">
        <ele>501.623070</ele>
        <time>2017-06-03T12:46:21.000Z</time>
      </trkpt>
      <trkpt lat="45.359623" lon="5.676217">
        <ele>501.956952</ele>
        <time>2017-06-03T12:46:24.000Z</time>
      </trkpt>
      <trkpt lat="45.359520" lon="5.676145">
        <ele>502.297002</ele>
        <time>2017-06-03T12:46:27.000Z</time>
      </trkpt>
      <trkpt lat="45.359430" lon="5.676089">
        <ele>502.620600</ele>
        <time>2017-06-03T12:46:30.000Z</time>
      </trkpt>
      <trkpt lat="45.359340" lon="5.676027">
        <ele>503.036656</ele>
        <time>2017-06-03T12:46:34.000Z</time>
      </trkpt>
      <trkpt lat="45.359250" lon="5.675931">
        <ele>503.504656</ele>
        <time>2017-06-03T12:46:38.000Z</time>
      </trkpt>
      <trkpt lat="45.359146" lon="5.675854">
        <ele>503.992458</ele>
        <time>2017-06-03T12:46:42.000Z</time>
      </trkpt>
      <trkpt lat="45.359043" lon="5.675767">
        <ele>504.490842</ele>
        <time>2017-06-03T12:46:46.000Z</time>
      </trkpt>
      <trkpt lat="45.358936" lon="5.675699">
        <ele>504.978443</ele>
        <time>2017-06-03T12:46:50.000Z</time>
      </trkpt>
      <trkpt lat="45.358850" lon="5.675661">
        <ele>505.353139</ele>
        <time>2017-06-03T12:46:53.000Z</time>
      </trkpt>
      <trkpt lat="45.358746" lon="5.675600">
        <ele>505.821195</ele>
        <time>2017-06-03T12:46:57.000Z</time>
      </trkpt>
      <trkpt lat="45.358654" lon="5.675557">
        <ele>506.224123</ele>
        <time>2017-06-03T12:47:00.000Z</time>
      </trkpt>
      <trkpt lat="45.358560" lon="5.675510">
        <ele>506.638695</ele>
        <time>2017-06-03T12:47:05.000Z</time>
      </trkpt>
      <trkpt lat="45.358467" lon="5.675476">
        <ele>507.038232</ele>
        <time>2017-06-03T12:47:08.000Z</time>
      </trkpt>
      <trkpt lat="45.358376" lon="5.675445">
        <ele>507.427580</ele>
        <time>2017-06-03T12:47:11.000Z</time>
      </trkpt>
      <trkpt lat="45.358288" lon="5.675402">
        <ele>507.814730</ele>
        <time>2017-06-03T12:47:14.000Z</time>
      </trkpt>
      <trkpt lat="45.358190" lon="5.675349">
        <ele>508.250959</ele>
        <time>2017-06-03T12:47:18.000Z</time>
      </trkpt>
      <trkpt lat="45.358086" lon="5.675302">
        <ele>508.704998</ele>
        <time>2017-06-03T12:47:22.000Z</time>
      </trkpt>
      <trkpt lat="45.357990" lon="5.675234">
        <ele>509.151198</ele>
        <time>2017-06-03T12:47:26.000Z</time>
      </trkpt>
      <trkpt lat="45.357890" lon="5.675158">
        <ele>509.622914</ele>
        <time>2017-06-03T12:47:30.000Z</time>
      </trkpt>
      <trkpt lat="45.357803" lon="5.675071">
        <ele>510.077810</ele>
        <time>2017-06-03T12:47:34.000Z</time>
      </trkpt>
      <trkpt lat="45.357704" lon="5.674984">
        <ele>510.643873</ele>
        <time>2017-06-03T12:47:38.000Z</time>
      </trkpt>
      <trkpt lat="45.357610" lon="5.674908">
        <ele>511.169833</ele>
        <time>2017-06-03T12:47:42.000Z</time>
      </trkpt>
      <trkpt lat="45.357513" lon="5.674820">
        <ele>511.729471</ele>
        <time>2017-06-03T12:47:46.000Z</time>
      </trkpt>
      <trkpt lat="45.357426" lon="5.674735">
        <ele>512.242872</ele>
        <time>2017-06-03T12:47:50.000Z</time>
      </trkpt>
      <trkpt lat="45.357338" lon="5.674650">
        <ele>512.760291</ele>
        <time>2017-06-03T12:47:54.000Z</time>
      </trkpt>
      <trkpt lat="45.357254" lon="5.674555">
        <ele>513.282282</ele>
        <time>2017-06-03T12:47:58.000Z</time>
      </trkpt>
      <trkpt lat="45.357162" lon="5.674460">
        <ele>513.835274</ele>
        <time>2017-06-03T12:48:02.000Z</time>
      </trkpt>
      <trkpt lat="45.357070" lon="5.674377">
        <ele>514.365216</ele>
        <time>2017-06-03T12:48:06.000Z</time>
      </trkpt>
      <trkpt lat="45.356976" lon="5.674282">
        <ele>514.926113</ele>
        <time>2017-06-03T12:48:10.000Z</time>
      </trkpt>
      <trkpt lat="45.356880" lon="5.674193">
        <ele>515.483516</ele>
        <time>2017-06-03T12:48:14.000Z</time>
      </trkpt>
      <trkpt lat="45.356796" lon="5.674109">
        <ele>515.982981</ele>
        <time>2017-06-03T12:48:18.000Z</time>
      </trkpt>
      <trkpt lat="45.356710" lon="5.674019">
        <ele>516.502321</ele>
        <time>2017-06-03T12:48:22.000Z</time>
      </trkpt>
      <trkpt lat="45.356617" lon="5.673946">
        <ele>517.019028</ele>
        <time>2017-06-03T12:48:26.000Z</time>
      </trkpt>
      <trkpt lat="45.356520" lon="5.673914">
        <ele>517.503448</ele>
        <time>2017-06-03T12:48:30.000Z</time>
      </trkpt>
      <trkpt lat="45.356445" lon="5.673810">
        <ele>518.012898</ele>
        <time>2017-06-03T12:48:34.000Z</time>
      </trkpt>
      <trkpt lat="45.356346" lon="5.673719">
        <ele>518.586268</ele>
        <time>2017-06-03T12:48:38.000Z</time>
      </trkpt>
      <trkpt lat="45.356247" lon="5.673630">
        <ele>519.082849</ele>
        <time>2017-06-03T12:48:42.000Z</time>
      </trkpt>
      <trkpt lat="45.356140" lon="5.673571">
        <ele>519.542480</ele>
        <time>2017-06-03T12:48:46.000Z</time>
      </trkpt>
      <trkpt lat="45.356040" lon="5.673517">
        <ele>519.970894</ele>
        <time>2017-06-03T12:48:50.000Z</time>
      </trkpt>
      <trkpt lat="45.355940" lon="5.673455">
        <ele>520.407803</ele>
        <time>2017-06-03T12:48:54.000Z</time>
      </trkpt>
      <trkpt lat="45.355850" lon="5.673400">
        <ele>520.800128</ele>
        <time>2017-06-03T12:48:58.000Z</time>
      </trkpt>
      <trkpt lat="45.355750" lon="5.673350">
        <ele>521.224677</ele>
        <time>2017-06-03T12:49:02.000Z</time>
      </trkpt>
      <trkpt lat="45.355663" lon="5.673290">
        <ele>521.611917</ele>
        <time>2017-06-03T12:49:06.000Z</time>
      </trkpt>
      <trkpt lat="45.355564" lon="5.673204">
        <ele>522.076501</ele>
        <time>2017-06-03T12:49:10.000Z</time>
      </trkpt>
      <trkpt lat="45.355473" lon="5.673130">
        <ele>522.496310</ele>
        <time>2017-06-03T12:49:14.000Z</time>
      </trkpt>
      <trkpt lat="45.355377" lon="5.673045">
        <ele>522.949187</ele>
        <time>2017-06-03T12:49:18.000Z</time>
      </trkpt>
      <trkpt lat="45.355286" lon="5.672963">
        <ele>523.380613</ele>
        <time>2017-06-03T12:49:22.000Z</time>
      </trkpt>
      <trkpt lat="45.355194" lon="5.672875">
        <ele>523.824623</ele>
        <time>2017-06-03T12:49:26.000Z</time>
      </trkpt>
      <trkpt lat="45.355095" lon="5.672805">
        <ele>524.267414</ele>
        <time>2017-06-03T12:49:30.000Z</time>
      </trkpt>
      <trkpt lat="45.354996" lon="5.672734">
        <ele>524.711465</ele>
        <time>2017-06-03T12:49:34.000Z</time>
      </trkpt>
      <trkpt lat="45.354890" lon="5.672691">
        <ele>525.152957</ele>
        <time>2017-06-03T12:49:38.000Z</time>
      </trkpt>
      <trkpt lat="45.354805" lon="5.672611">
        <ele>525.561148</ele>
        <time>2017-06-03T12:49:42.000Z</time>
      </trkpt>
      <trkpt lat="45.354713" lon="5.672536">
        <ele>525.969770</ele>
        <time>2017-06-03T12:49:46.000Z</time>
      </trkpt>
      <trkpt lat="45.354607" lon="5.672478">
        <ele>526.238599</ele>
        <time>2017-06-03T12:49:50.000Z</time>
      </trkpt>
      <trkpt lat="45.354520" lon="5.672440">
        <ele>526.454025</ele>
        <time>2017-06-03T12:49:53.000Z</time>
      </trkpt>
      <trkpt lat="45.354430" lon="5.672404">
        <ele>526.675326</ele>
        <time>2017-06-03T12:49:56.000Z</time>
      </trkpt>
      <trkpt lat="45.354330" lon="5.672349">
        <ele>526.929107</ele>
        <time>2017-06-03T12:50:00.000Z</time>
      </trkpt>
      <trkpt lat="45.354230" lon="5.672298">
        <ele>527.180567</ele>
        <time>2017-06-03T12:50:04.000Z</time>
      </trkpt>
      <trkpt lat="45.354130" lon="5.672275">
        <ele>527.420355</ele>
        <time>2017-06-03T12:50:08.000Z</time>
      </trkpt>
      <trkpt lat="45.354030" lon="5.672240">
        <ele>527.664126</ele>
        <time>2017-06-03T12:50:12.000Z</time>
      </trkpt>
      <trkpt lat="45.353930" lon="5.672209">
        <ele>527.906395</ele>
        <time>2017-06-03T12:50:16.000Z</time>
      </trkpt>
      <trkpt lat="45.353825" lon="5.672176">
        <ele>528.160937</ele>
        <time>2017-06-03T12:50:20.000Z</time>
      </trkpt>
      <trkpt lat="45.353725" lon="5.672165">
        <ele>528.398359</ele>
        <time>2017-06-03T12:50:24.000Z</time>
      </trkpt>
      <trkpt lat="45.353634" lon="5.672159">
        <ele>528.614002</ele>
        <time>2017-06-03T12:50:28.000Z</time>
      </trkpt>
      <trkpt lat="45.353530" lon="5.672151">
        <ele>528.860547</ele>
        <time>2017-06-03T12:50:32.000Z</time>
      </trkpt>
      <trkpt lat="45.353420" lon="5.672144">
        <ele>529.121195</ele>
        <time>2017-06-03T12:50:36.000Z</time>
      </trkpt>
      <trkpt lat="45.353302" lon="5.672130">
        <ele>529.401490</ele>
        <time>2017-06-03T12:50:40.000Z</time>
      </trkpt>
      <trkpt lat="45.353195" lon="5.672119">
        <ele>529.655436</ele>
        <time>2017-06-03T12:50:44.000Z</time>
      </trkpt>
      <trkpt lat="45.353077" lon="5.672098">
        <ele>529.936938</ele>
        <time>2017-06-03T12:50:48.000Z</time>
      </trkpt>
      <trkpt lat="45.352962" lon="5.672069">
        <ele>530.222235</ele>
        <time>2017-06-03T12:50:52.000Z</time>
      </trkpt>
      <trkpt lat="45.352844" lon="5.672050">
        <ele>530.774410</ele>
        <time>2017-06-03T12:50:56.000Z</time>
      </trkpt>
      <trkpt lat="45.352757" lon="5.672025">
        <ele>531.187106</ele>
        <time>2017-06-03T12:50:59.000Z</time>
      </trkpt>
      <trkpt lat="45.352660" lon="5.671993">
        <ele>531.650096</ele>
        <time>2017-06-03T12:51:02.000Z</time>
      </trkpt>
      <trkpt lat="45.352573" lon="5.671959">
        <ele>532.069605</ele>
        <time>2017-06-03T12:51:05.000Z</time>
      </trkpt>
      <trkpt lat="45.352486" lon="5.671920">
        <ele>532.493734</ele>
        <time>2017-06-03T12:51:08.000Z</time>
      </trkpt>
      <trkpt lat="45.352398" lon="5.671873">
        <ele>532.930786</ele>
        <time>2017-06-03T12:51:11.000Z</time>
      </trkpt>
      <trkpt lat="45.352290" lon="5.671811">
        <ele>533.472288</ele>
        <time>2017-06-03T12:51:15.000Z</time>
      </trkpt>
      <trkpt lat="45.352180" lon="5.671746">
        <ele>534.026110</ele>
        <time>2017-06-03T12:51:19.000Z</time>
      </trkpt>
      <trkpt lat="45.352097" lon="5.671691">
        <ele>534.451835</ele>
        <time>2017-06-03T12:51:22.000Z</time>
      </trkpt>
      <trkpt lat="45.351997" lon="5.671612">
        <ele>534.983664</ele>
        <time>2017-06-03T12:51:26.000Z</time>
      </trkpt>
      <trkpt lat="45.351910" lon="5.671527">
        <ele>535.474367</ele>
        <time>2017-06-03T12:51:30.000Z</time>
      </trkpt>
      <trkpt lat="45.351837" lon="5.671434">
        <ele>535.929960</ele>
        <time>2017-06-03T12:51:33.000Z</time>
      </trkpt>
      <trkpt lat="45.351757" lon="5.671368">
        <ele>536.359939</ele>
        <time>2017-06-03T12:51:36.000Z</time>
      </trkpt>
      <trkpt lat="45.351677" lon="5.671298">
        <ele>536.796620</ele>
        <time>2017-06-03T12:51:39.000Z</time>
      </trkpt>
      <trkpt lat="45.351604" lon="5.671224">
        <ele>537.213376</ele>
        <time>2017-06-03T12:51:42.000Z</time>
      </trkpt>
      <trkpt lat="45.351520" lon="5.671159">
        <ele>537.657973</ele>
        <time>2017-06-03T12:51:45.000Z</time>
      </trkpt>
      <trkpt lat="45.351418" lon="5.671073">
        <ele>538.209253</ele>
        <time>2017-06-03T12:51:49.000Z</time>
      </trkpt>
      <trkpt lat="45.351320" lon="5.670979">
        <ele>538.746763</ele>
        <time>2017-06-03T12:51:53.000Z</time>
      </trkpt>
      <trkpt lat="45.351215" lon="5.670892">
        <ele>539.276200</ele>
        <time>2017-06-03T12:51:57.000Z</time>
      </trkpt>
      <trkpt lat="45.351120" lon="5.670804">
        <ele>539.770135</ele>
        <time>2017-06-03T12:52:01.000Z</time>
      </trkpt>
      <trkpt lat="45.351032" lon="5.670721">
        <ele>540.230170</ele>
        <time>2017-06-03T12:52:05.000Z</time>
      </trkpt>
      <trkpt lat="45.350933" lon="5.670636">
        <ele>540.733994</ele>
        <time>2017-06-03T12:52:09.000Z</time>
      </trkpt>
      <trkpt lat="45.350838" lon="5.670549">
        <ele>541.226265</ele>
        <time>2017-06-03T12:52:13.000Z</time>
      </trkpt>
      <trkpt lat="45.350765" lon="5.670434">
        <ele>541.700811</ele>
        <time>2017-06-03T12:52:17.000Z</time>
      </trkpt>
      <trkpt lat="45.350693" lon="5.670313">
        <ele>542.186319</ele>
        <time>2017-06-03T12:52:21.000Z</time>
      </trkpt>
      <trkpt lat="45.350630" lon="5.670192">
        <ele>542.647459</ele>
        <time>2017-06-03T12:52:25.000Z</time>
      </trkpt>
      <trkpt lat="45.350570" lon="5.670071">
        <ele>543.100940</ele>
        <time>2017-06-03T12:52:29.000Z</time>
      </trkpt>
      <trkpt lat="45.350517" lon="5.669929">
        <ele>543.593297</ele>
        <time>2017-06-03T12:52:33.000Z</time>
      </trkpt>
      <trkpt lat="45.350470" lon="5.669783">
        <ele>544.085057</ele>
        <time>2017-06-03T12:52:37.000Z</time>
      </trkpt>
      <trkpt lat="45.350407" lon="5.669650">
        <ele>544.576212</ele>
        <time>2017-06-03T12:52:41.000Z</time>
      </trkpt>
      <trkpt lat="45.350330" lon="5.669540">
        <ele>545.051646</ele>
        <time>2017-06-03T12:52:45.000Z</time>
      </trkpt>
      <trkpt lat="45.350270" lon="5.669433">
        <ele>545.470828</ele>
        <time>2017-06-03T12:52:49.000Z</time>
      </trkpt>
      <trkpt lat="45.350204" lon="5.669325">
        <ele>545.909101</ele>
        <time>2017-06-03T12:52:53.000Z</time>
      </trkpt>
      <trkpt lat="45.350136" lon="5.669229">
        <ele>546.326494</ele>
        <time>2017-06-03T12:52:57.000Z</time>
      </trkpt>
      <trkpt lat="45.350067" lon="5.669123">
        <ele>546.710193</ele>
        <time>2017-06-03T12:53:02.000Z</time>
      </trkpt>
      <trkpt lat="45.349987" lon="5.669052">
        <ele>547.054727</ele>
        <time>2017-06-03T12:53:07.000Z</time>
      </trkpt>
      <trkpt lat="45.349920" lon="5.668966">
        <ele>547.384450</ele>
        <time>2017-06-03T12:53:11.000Z</time>
      </trkpt>
      <trkpt lat="45.349827" lon="5.668891">
        <ele>547.775073</ele>
        <time>2017-06-03T12:53:15.000Z</time>
      </trkpt>
      <trkpt lat="45.349735" lon="5.668829">
        <ele>548.147055</ele>
        <time>2017-06-03T12:53:19.000Z</time>
      </trkpt>
      <trkpt lat="45.349650" lon="5.668759">
        <ele>548.505928</ele>
        <time>2017-06-03T12:53:23.000Z</time>
      </trkpt>
      <trkpt lat="45.349545" lon="5.668712">
        <ele>548.908153</ele>
        <time>2017-06-03T12:53:27.000Z</time>
      </trkpt>
      <trkpt lat="45.349438" lon="5.668641">
        <ele>549.339573</ele>
        <time>2017-06-03T12:53:31.000Z</time>
      </trkpt>
      <trkpt lat="45.349323" lon="5.668608">
        <ele>549.768263</ele>
        <time>2017-06-03T12:53:35.000Z</time>
      </trkpt>
      <trkpt lat="45.349224" lon="5.668545">
        <ele>550.164556</ele>
        <time>2017-06-03T12:53:39.000Z</time>
      </trkpt>
      <trkpt lat="45.349130" lon="5.668500">
        <ele>550.526966</ele>
        <time>2017-06-03T12:53:43.000Z</time>
      </trkpt>
      <trkpt lat="45.349030" lon="5.668461">
        <ele>550.905860</ele>
        <time>2017-06-03T12:53:47.000Z</time>
      </trkpt>
      <trkpt lat="45.348940" lon="5.668418">
        <ele>551.252780</ele>
        <time>2017-06-03T12:53:51.000Z</time>
      </trkpt>
      <trkpt lat="45.348858" lon="5.668340">
        <ele>551.613211</ele>
        <time>2017-06-03T12:53:57.000Z</time>
      </trkpt>
      <trkpt lat="45.348686" lon="5.668412">
        <ele>552.268362</ele>
        <time>2017-06-03T13:04:40.000Z</time>
      </trkpt>
      <trkpt lat="45.348595" lon="5.668373">
        <ele>552.615647</ele>
        <time>2017-06-03T13:04:44.000Z</time>
      </trkpt>
      <trkpt lat="45.348495" lon="5.668345">
        <ele>552.974970</ele>
        <time>2017-06-03T13:04:48.000Z</time>
      </trkpt>
      <trkpt lat="45.348390" lon="5.668338">
        <ele>552.884967</ele>
        <time>2017-06-03T13:04:52.000Z</time>
      </trkpt>
      <trkpt lat="45.348293" lon="5.668345">
        <ele>552.801805</ele>
        <time>2017-06-03T13:04:56.000Z</time>
      </trkpt>
      <trkpt lat="45.348183" lon="5.668313">
        <ele>552.705671</ele>
        <time>2017-06-03T13:05:00.000Z</time>
      </trkpt>
      <trkpt lat="45.348087" lon="5.668307">
        <ele>552.623394</ele>
        <time>2017-06-03T13:05:03.000Z</time>
      </trkpt>
      <trkpt lat="45.347996" lon="5.668290">
        <ele>552.544808</ele>
        <time>2017-06-03T13:05:06.000Z</time>
      </trkpt>
      <trkpt lat="45.347904" lon="5.668280">
        <ele>552.465805</ele>
        <time>2017-06-03T13:05:09.000Z</time>
      </trkpt>
      <trkpt lat="45.347810" lon="5.668269">
        <ele>552.385047</ele>
        <time>2017-06-03T13:05:12.000Z</time>
      </trkpt>
      <trkpt lat="45.347720" lon="5.668244">
        <ele>552.306531</ele>
        <time>2017-06-03T13:05:15.000Z</time>
      </trkpt>
      <trkpt lat="45.347630" lon="5.668223">
        <ele>552.228441</ele>
        <time>2017-06-03T13:05:18.000Z</time>
      </trkpt>
      <trkpt lat="45.347534" lon="5.668182">
        <ele>552.142620</ele>
        <time>2017-06-03T13:05:21.000Z</time>
      </trkpt>
      <trkpt lat="45.347440" lon="5.668148">
        <ele>552.059574</ele>
        <time>2017-06-03T13:05:24.000Z</time>
      </trkpt>
      <trkpt lat="45.347340" lon="5.668115">
        <ele>551.971678</ele>
        <time>2017-06-03T13:05:27.000Z</time>
      </trkpt>
      <trkpt lat="45.347240" lon="5.668069">
        <ele>551.881691</ele>
        <time>2017-06-03T13:05:30.000Z</time>
      </trkpt>
      <trkpt lat="45.347137" lon="5.668017">
        <ele>551.788112</ele>
        <time>2017-06-03T13:05:33.000Z</time>
      </trkpt>
      <trkpt lat="45.347030" lon="5.667962">
        <ele>551.690700</ele>
        <time>2017-06-03T13:05:36.000Z</time>
      </trkpt>
      <trkpt lat="45.346912" lon="5.667917">
        <ele>551.586099</ele>
        <time>2017-06-03T13:05:39.000Z</time>
      </trkpt>
      <trkpt lat="45.346817" lon="5.667859">
        <ele>551.497585</ele>
        <time>2017-06-03T13:05:42.000Z</time>
      </trkpt>
      <trkpt lat="45.346718" lon="5.667808">
        <ele>551.398933</ele>
        <time>2017-06-03T13:05:45.000Z</time>
      </trkpt>
      <trkpt lat="45.346620" lon="5.667769">
        <ele>551.287086</ele>
        <time>2017-06-03T13:05:48.000Z</time>
      </trkpt>
      <trkpt lat="45.346510" lon="5.667739">
        <ele>551.163983</ele>
        <time>2017-06-03T13:05:51.000Z</time>
      </trkpt>
      <trkpt lat="45.346405" lon="5.667721">
        <ele>551.047741</ele>
        <time>2017-06-03T13:05:54.000Z</time>
      </trkpt>
      <trkpt lat="45.346300" lon="5.667709">
        <ele>550.931963</ele>
        <time>2017-06-03T13:05:57.000Z</time>
      </trkpt>
      <trkpt lat="45.346200" lon="5.667697">
        <ele>550.821662</ele>
        <time>2017-06-03T13:06:00.000Z</time>
      </trkpt>
      <trkpt lat="45.346100" lon="5.667688">
        <ele>550.711531</ele>
        <time>2017-06-03T13:06:03.000Z</time>
      </trkpt>
      <trkpt lat="45.345980" lon="5.667679">
        <ele>550.579454</ele>
        <time>2017-06-03T13:06:07.000Z</time>
      </trkpt>
      <trkpt lat="45.345867" lon="5.667670">
        <ele>550.455060</ele>
        <time>2017-06-03T13:06:11.000Z</time>
      </trkpt>
      <trkpt lat="45.345753" lon="5.667657">
        <ele>550.329359</ele>
        <time>2017-06-03T13:06:15.000Z</time>
      </trkpt>
      <trkpt lat="45.345650" lon="5.667633">
        <ele>550.214643</ele>
        <time>2017-06-03T13:06:19.000Z</time>
      </trkpt>
      <trkpt lat="45.345550" lon="5.667596">
        <ele>550.101076</ele>
        <time>2017-06-03T13:06:23.000Z</time>
      </trkpt>
      <trkpt lat="45.345444" lon="5.667534">
        <ele>549.975110</ele>
        <time>2017-06-03T13:06:27.000Z</time>
      </trkpt>
      <trkpt lat="45.345345" lon="5.667482">
        <ele>549.859120</ele>
        <time>2017-06-03T13:06:31.000Z</time>
      </trkpt>
      <trkpt lat="45.345245" lon="5.667415">
        <ele>549.737632</ele>
        <time>2017-06-03T13:06:35.000Z</time>
      </trkpt>
      <trkpt lat="45.345142" lon="5.667360">
        <ele>549.616714</ele>
        <time>2017-06-03T13:06:39.000Z</time>
      </trkpt>
      <trkpt lat="45.345050" lon="5.667310">
        <ele>549.508470</ele>
        <time>2017-06-03T13:06:43.000Z</time>
      </trkpt>
      <trkpt lat="45.344955" lon="5.667250">
        <ele>549.793218</ele>
        <time>2017-06-03T13:06:47.000Z</time>
      </trkpt>
      <trkpt lat="45.344875" lon="5.667192">
        <ele>550.288780</ele>
        <time>2017-06-03T13:06:51.000Z</time>
      </trkpt>
      <trkpt lat="45.344784" lon="5.667133">
        <ele>550.840725</ele>
        <time>2017-06-03T13:06:55.000Z</time>
      </trkpt>
      <trkpt lat="45.344680" lon="5.667065">
        <ele>551.472441</ele>
        <time>2017-06-03T13:06:59.000Z</time>
      </trkpt>
      <trkpt lat="45.344593" lon="5.667010">
        <ele>551.997886</ele>
        <time>2017-06-03T13:07:03.000Z</time>
      </trkpt>
      <trkpt lat="45.344505" lon="5.666967">
        <ele>552.511429</ele>
        <time>2017-06-03T13:07:07.000Z</time>
      </trkpt>
      <trkpt lat="45.344420" lon="5.666907">
        <ele>553.035133</ele>
        <time>2017-06-03T13:07:11.000Z</time>
      </trkpt>
      <trkpt lat="45.344337" lon="5.666849">
        <ele>553.545504</ele>
        <time>2017-06-03T13:07:15.000Z</time>
      </trkpt>
      <trkpt lat="45.344250" lon="5.666804">
        <ele>554.056429</ele>
        <time>2017-06-03T13:07:19.000Z</time>
      </trkpt>
      <trkpt lat="45.344154" lon="5.666750">
        <ele>554.626187</ele>
        <time>2017-06-03T13:07:23.000Z</time>
      </trkpt>
      <trkpt lat="45.344063" lon="5.666683">
        <ele>555.191707</ele>
        <time>2017-06-03T13:07:27.000Z</time>
      </trkpt>
      <trkpt lat="45.343964" lon="5.666630">
        <ele>555.775518</ele>
        <time>2017-06-03T13:07:31.000Z</time>
      </trkpt>
      <trkpt lat="45.343872" lon="5.666573">
        <ele>556.329349</ele>
        <time>2017-06-03T13:07:35.000Z</time>
      </trkpt>
      <trkpt lat="45.343780" lon="5.666517">
        <ele>556.881642</ele>
        <time>2017-06-03T13:07:39.000Z</time>
      </trkpt>
      <trkpt lat="45.343693" lon="5.666469">
        <ele>557.396660</ele>
        <time>2017-06-03T13:07:43.000Z</time>
      </trkpt>
      <trkpt lat="45.343605" lon="5.666434">
        <ele>557.900978</ele>
        <time>2017-06-03T13:07:47.000Z</time>
      </trkpt>
      <trkpt lat="45.343520" lon="5.666377">
        <ele>558.419616</ele>
        <time>2017-06-03T13:07:51.000Z</time>
      </trkpt>
      <trkpt lat="45.343433" lon="5.666326">
        <ele>558.938955</ele>
        <time>2017-06-03T13:07:55.000Z</time>
      </trkpt>
      <trkpt lat="45.343346" lon="5.666267">
        <ele>559.519041</ele>
        <time>2017-06-03T13:07:59.000Z</time>
      </trkpt>
      <trkpt lat="45.343270" lon="5.666200">
        <ele>560.298219</ele>
        <time>2017-06-03T13:08:03.000Z</time>
      </trkpt>
      <trkpt lat="45.343190" lon="5.666115">
        <ele>561.168372</ele>
        <time>2017-06-03T13:08:07.000Z</time>
      </trkpt>
      <trkpt lat="45.343113" lon="5.666022">
        <ele>562.048613</ele>
        <time>2017-06-03T13:08:11.000Z</time>
      </trkpt>
      <trkpt lat="45.343044" lon="5.665904">
        <ele>562.988844</ele>
        <time>2017-06-03T13:08:15.000Z</time>
      </trkpt>
      <trkpt lat="45.342980" lon="5.665788">
        <ele>563.892154</ele>
        <time>2017-06-03T13:08:19.000Z</time>
      </trkpt>
      <trkpt lat="45.342900" lon="5.665702">
        <ele>564.765988</ele>
        <time>2017-06-03T13:08:23.000Z</time>
      </trkpt>
      <trkpt lat="45.342810" lon="5.665621">
        <ele>565.694090</ele>
        <time>2017-06-03T13:08:27.000Z</time>
      </trkpt>
      <trkpt lat="45.342720" lon="5.665555">
        <ele>566.576495</ele>
        <time>2017-06-03T13:08:31.000Z</time>
      </trkpt>
      <trkpt lat="45.342636" lon="5.665486">
        <ele>567.421802</ele>
        <time>2017-06-03T13:08:35.000Z</time>
      </trkpt>
      <trkpt lat="45.342550" lon="5.665418">
        <ele>568.279256</ele>
        <time>2017-06-03T13:08:39.000Z</time>
      </trkpt>
      <trkpt lat="45.342460" lon="5.665339">
        <ele>569.200868</ele>
        <time>2017-06-03T13:08:43.000Z</time>
      </trkpt>
      <trkpt lat="45.342373" lon="5.665265">
        <ele>570.084234</ele>
        <time>2017-06-03T13:08:47.000Z</time>
      </trkpt>
      <trkpt lat="45.342285" lon="5.665195">
        <ele>570.962878</ele>
        <time>2017-06-03T13:08:51.000Z</time>
      </trkpt>
      <trkpt lat="45.342194" lon="5.665125">
        <ele>571.864433</ele>
        <time>2017-06-03T13:08:55.000Z</time>
      </trkpt>
      <trkpt lat="45.342106" lon="5.665049">
        <ele>572.761587</ele>
        <time>2017-06-03T13:08:59.000Z</time>
      </trkpt>
      <trkpt lat="45.342010" lon="5.664987">
        <ele>573.680387</ele>
        <time>2017-06-03T13:09:03.000Z</time>
      </trkpt>
      <trkpt lat="45.341915" lon="5.664919">
        <ele>574.607184</ele>
        <time>2017-06-03T13:09:07.000Z</time>
      </trkpt>
      <trkpt lat="45.341824" lon="5.664850">
        <ele>575.361885</ele>
        <time>2017-06-03T13:09:11.000Z</time>
      </trkpt>
      <trkpt lat="45.341732" lon="5.664800">
        <ele>575.941270</ele>
        <time>2017-06-03T13:09:15.000Z</time>
      </trkpt>
      <trkpt lat="45.341650" lon="5.664736">
        <ele>576.491501</ele>
        <time>2017-06-03T13:09:19.000Z</time>
      </trkpt>
      <trkpt lat="45.341560" lon="5.664671">
        <ele>577.085289</ele>
        <time>2017-06-03T13:09:23.000Z</time>
      </trkpt>
      <trkpt lat="45.341473" lon="5.664605">
        <ele>577.665329</ele>
        <time>2017-06-03T13:09:27.000Z</time>
      </trkpt>
      <trkpt lat="45.341380" lon="5.664521">
        <ele>578.313397</ele>
        <time>2017-06-03T13:09:31.000Z</time>
      </trkpt>
      <trkpt lat="45.341300" lon="5.664434">
        <ele>578.905787</ele>
        <time>2017-06-03T13:09:35.000Z</time>
      </trkpt>
      <trkpt lat="45.341217" lon="5.664341">
        <ele>579.527332</ele>
        <time>2017-06-03T13:09:39.000Z</time>
      </trkpt>
      <trkpt lat="45.341137" lon="5.664245">
        <ele>580.143034</ele>
        <time>2017-06-03T13:09:43.000Z</time>
      </trkpt>
      <trkpt lat="45.341053" lon="5.664161">
        <ele>580.747070</ele>
        <time>2017-06-03T13:09:47.000Z</time>
      </trkpt>
      <trkpt lat="45.340973" lon="5.664082">
        <ele>581.319975</ele>
        <time>2017-06-03T13:09:51.000Z</time>
      </trkpt>
      <trkpt lat="45.340885" lon="5.664006">
        <ele>581.925603</ele>
        <time>2017-06-03T13:09:55.000Z</time>
      </trkpt>
      <trkpt lat="45.340790" lon="5.663939">
        <ele>582.549394</ele>
        <time>2017-06-03T13:09:59.000Z</time>
      </trkpt>
      <trkpt lat="45.340683" lon="5.663900">
        <ele>583.199208</ele>
        <time>2017-06-03T13:10:03.000Z</time>
      </trkpt>
      <trkpt lat="45.340576" lon="5.663864">
        <ele>583.846056</ele>
        <time>2017-06-03T13:10:07.000Z</time>
      </trkpt>
      <trkpt lat="45.340485" lon="5.663817">
        <ele>584.415599</ele>
        <time>2017-06-03T13:10:11.000Z</time>
      </trkpt>
      <trkpt lat="45.340390" lon="5.663746">
        <ele>585.046911</ele>
        <time>2017-06-03T13:10:15.000Z</time>
      </trkpt>
      <trkpt lat="45.340300" lon="5.663667">
        <ele>585.675039</ele>
        <time>2017-06-03T13:10:19.000Z</time>
      </trkpt>
      <trkpt lat="45.340210" lon="5.663586">
        <ele>586.453170</ele>
        <time>2017-06-03T13:10:23.000Z</time>
      </trkpt>
      <trkpt lat="45.340126" lon="5.663529">
        <ele>587.133166</ele>
        <time>2017-06-03T13:10:27.000Z</time>
      </trkpt>
      <trkpt lat="45.340046" lon="5.663444">
        <ele>587.862718</ele>
        <time>2017-06-03T13:10:31.000Z</time>
      </trkpt>
      <trkpt lat="45.339977" lon="5.663359">
        <ele>588.529610</ele>
        <time>2017-06-03T13:10:35.000Z</time>
      </trkpt>
      <trkpt lat="45.339912" lon="5.663257">
        <ele>589.236704</ele>
        <time>2017-06-03T13:10:39.000Z</time>
      </trkpt>
      <trkpt lat="45.339836" lon="5.663166">
        <ele>589.962505</ele>
        <time>2017-06-03T13:10:43.000Z</time>
      </trkpt>
      <trkpt lat="45.339767" lon="5.663070">
        <ele>590.667674</ele>
        <time>2017-06-03T13:10:47.000Z</time>
      </trkpt>
      <trkpt lat="45.339687" lon="5.662986">
        <ele>591.394166</ele>
        <time>2017-06-03T13:10:51.000Z</time>
      </trkpt>
      <trkpt lat="45.339603" lon="5.662904">
        <ele>592.138515</ele>
        <time>2017-06-03T13:10:55.000Z</time>
      </trkpt>
      <trkpt lat="45.339516" lon="5.662822">
        <ele>592.901039</ele>
        <time>2017-06-03T13:10:59.000Z</time>
      </trkpt>
      <trkpt lat="45.339424" lon="5.662743">
        <ele>593.686205</ele>
        <time>2017-06-03T13:11:03.000Z</time>
      </trkpt>
      <trkpt lat="45.339336" lon="5.662661">
        <ele>594.454832</ele>
        <time>2017-06-03T13:11:07.000Z</time>
      </trkpt>
      <trkpt lat="45.339252" lon="5.662579">
        <ele>595.199183</ele>
        <time>2017-06-03T13:11:11.000Z</time>
      </trkpt>
      <trkpt lat="45.339160" lon="5.662502">
        <ele>595.979091</ele>
        <time>2017-06-03T13:11:15.000Z</time>
      </trkpt>
      <trkpt lat="45.339070" lon="5.662417">
        <ele>596.768401</ele>
        <time>2017-06-03T13:11:19.000Z</time>
      </trkpt>
      <trkpt lat="45.338985" lon="5.662335">
        <ele>597.518788</ele>
        <time>2017-06-03T13:11:23.000Z</time>
      </trkpt>
      <trkpt lat="45.338898" lon="5.662262">
        <ele>598.256793</ele>
        <time>2017-06-03T13:11:27.000Z</time>
      </trkpt>
      <trkpt lat="45.338814" lon="5.662198">
        <ele>598.945850</ele>
        <time>2017-06-03T13:11:31.000Z</time>
      </trkpt>
      <trkpt lat="45.338730" lon="5.662122">
        <ele>599.641901</ele>
        <time>2017-06-03T13:11:35.000Z</time>
      </trkpt>
      <trkpt lat="45.338642" lon="5.662054">
        <ele>600.342112</ele>
        <time>2017-06-03T13:11:39.000Z</time>
      </trkpt>
      <trkpt lat="45.338560" lon="5.661985">
        <ele>601.008249</ele>
        <time>2017-06-03T13:11:43.000Z</time>
      </trkpt>
      <trkpt lat="45.338467" lon="5.661931">
        <ele>601.710591</ele>
        <time>2017-06-03T13:11:47.000Z</time>
      </trkpt>
      <trkpt lat="45.338364" lon="5.661887">
        <ele>602.462544</ele>
        <time>2017-06-03T13:11:51.000Z</time>
      </trkpt>
      <trkpt lat="45.338264" lon="5.661853">
        <ele>603.181446</ele>
        <time>2017-06-03T13:11:55.000Z</time>
      </trkpt>
      <trkpt lat="45.338170" lon="5.661816">
        <ele>603.863397</ele>
        <time>2017-06-03T13:11:59.000Z</time>
      </trkpt>
      <trkpt lat="45.338066" lon="5.661792">
        <ele>604.600080</ele>
        <time>2017-06-03T13:12:03.000Z</time>
      </trkpt>
      <trkpt lat="45.337955" lon="5.661768">
        <ele>605.385116</ele>
        <time>2017-06-03T13:12:07.000Z</time>
      </trkpt>
      <trkpt lat="45.337852" lon="5.661750">
        <ele>606.110715</ele>
        <time>2017-06-03T13:12:11.000Z</time>
      </trkpt>
      <trkpt lat="45.337753" lon="5.661720">
        <ele>606.818463</ele>
        <time>2017-06-03T13:12:15.000Z</time>
      </trkpt>
      <trkpt lat="45.337670" lon="5.661662">
        <ele>607.465040</ele>
        <time>2017-06-03T13:12:19.000Z</time>
      </trkpt>
      <trkpt lat="45.337593" lon="5.661577">
        <ele>608.146507</ele>
        <time>2017-06-03T13:12:23.000Z</time>
      </trkpt>
      <trkpt lat="45.337513" lon="5.661477">
        <ele>608.891128</ele>
        <time>2017-06-03T13:12:27.000Z</time>
      </trkpt>
      <trkpt lat="45.337460" lon="5.661364">
        <ele>609.558801</ele>
        <time>2017-06-03T13:12:31.000Z</time>
      </trkpt>
      <trkpt lat="45.337400" lon="5.661243">
        <ele>610.286594</ele>
        <time>2017-06-03T13:12:35.000Z</time>
      </trkpt>
      <trkpt lat="45.337334" lon="5.661123">
        <ele>611.035474</ele>
        <time>2017-06-03T13:12:39.000Z</time>
      </trkpt>
      <trkpt lat="45.337270" lon="5.661007">
        <ele>611.625620</ele>
        <time>2017-06-03T13:12:43.000Z</time>
      </trkpt>
      <trkpt lat="45.337196" lon="5.660890">
        <ele>612.137267</ele>
        <time>2017-06-03T13:12:47.000Z</time>
      </trkpt>
      <trkpt lat="45.337140" lon="5.660772">
        <ele>612.600105</ele>
        <time>2017-06-03T13:12:51.000Z</time>
      </trkpt>
      <trkpt lat="45.337074" lon="5.660667">
        <ele>613.058009</ele>
        <time>2017-06-03T13:12:55.000Z</time>
      </trkpt>
      <trkpt lat="45.337006" lon="5.660552">
        <ele>613.546535</ele>
        <time>2017-06-03T13:12:59.000Z</time>
      </trkpt>
      <trkpt lat="45.336933" lon="5.660441">
        <ele>614.040684</ele>
        <time>2017-06-03T13:13:03.000Z</time>
      </trkpt>
      <trkpt lat="45.336860" lon="5.660332">
        <ele>614.530105</ele>
        <time>2017-06-03T13:13:07.000Z</time>
      </trkpt>
      <trkpt lat="45.336800" lon="5.660222">
        <ele>614.982730</ele>
        <time>2017-06-03T13:13:11.000Z</time>
      </trkpt>
      <trkpt lat="45.336735" lon="5.660112">
        <ele>615.449887</ele>
        <time>2017-06-03T13:13:15.000Z</time>
      </trkpt>
      <trkpt lat="45.336660" lon="5.660014">
        <ele>615.920845</ele>
        <time>2017-06-03T13:13:19.000Z</time>
      </trkpt>
      <trkpt lat="45.336580" lon="5.659926">
        <ele>616.388521</ele>
        <time>2017-06-03T13:13:23.000Z</time>
      </trkpt>
      <trkpt lat="45.336487" lon="5.659854">
        <ele>616.878180</ele>
        <time>2017-06-03T13:13:27.000Z</time>
      </trkpt>
      <trkpt lat="45.336384" lon="5.659780">
        <ele>617.411821</ele>
        <time>2017-06-03T13:13:31.000Z</time>
      </trkpt>
      <trkpt lat="45.336273" lon="5.659720">
        <ele>617.960968</ele>
        <time>2017-06-03T13:13:35.000Z</time>
      </trkpt>
      <trkpt lat="45.336166" lon="5.659667">
        <ele>618.484946</ele>
        <time>2017-06-03T13:13:39.000Z</time>
      </trkpt>
      <trkpt lat="45.336060" lon="5.659624">
        <ele>618.994702</ele>
        <time>2017-06-03T13:13:43.000Z</time>
      </trkpt>
      <trkpt lat="45.335945" lon="5.659582">
        <ele>619.543786</ele>
        <time>2017-06-03T13:13:47.000Z</time>
      </trkpt>
      <trkpt lat="45.335857" lon="5.659559">
        <ele>619.807760</ele>
        <time>2017-06-03T13:13:50.000Z</time>
      </trkpt>
      <trkpt lat="45.335747" lon="5.659534">
        <ele>620.044129</ele>
        <time>2017-06-03T13:13:54.000Z</time>
      </trkpt>
      <trkpt lat="45.335648" lon="5.659498">
        <ele>620.260951</ele>
        <time>2017-06-03T13:13:58.000Z</time>
      </trkpt>
      <trkpt lat="45.335537" lon="5.659478">
        <ele>620.498363</ele>
        <time>2017-06-03T13:14:02.000Z</time>
      </trkpt>
      <trkpt lat="45.335426" lon="5.659451">
        <ele>620.737311</ele>
        <time>2017-06-03T13:14:06.000Z</time>
      </trkpt>
      <trkpt lat="45.335316" lon="5.659423">
        <ele>620.974427</ele>
        <time>2017-06-03T13:14:10.000Z</time>
      </trkpt>
      <trkpt lat="45.335217" lon="5.659390">
        <ele>621.190184</ele>
        <time>2017-06-03T13:14:14.000Z</time>
      </trkpt>
      <trkpt lat="45.335117" lon="5.659350">
        <ele>621.410603</ele>
        <time>2017-06-03T13:14:18.000Z</time>
      </trkpt>
      <trkpt lat="45.335003" lon="5.659319">
        <ele>621.656878</ele>
        <time>2017-06-03T13:14:22.000Z</time>
      </trkpt>
      <trkpt lat="45.334892" lon="5.659293">
        <ele>621.895580</ele>
        <time>2017-06-03T13:14:26.000Z</time>
      </trkpt>
      <trkpt lat="45.334780" lon="5.659273">
        <ele>622.135098</ele>
        <time>2017-06-03T13:14:30.000Z</time>
      </trkpt>
      <trkpt lat="45.334667" lon="5.659257">
        <ele>622.376056</ele>
        <time>2017-06-03T13:14:34.000Z</time>
      </trkpt>
      <trkpt lat="45.334557" lon="5.659245">
        <ele>622.610150</ele>
        <time>2017-06-03T13:14:38.000Z</time>
      </trkpt>
      <trkpt lat="45.334454" lon="5.659237">
        <ele>622.829031</ele>
        <time>2017-06-03T13:14:42.000Z</time>
      </trkpt>
      <trkpt lat="45.334347" lon="5.659216">
        <ele>623.058224</ele>
        <time>2017-06-03T13:14:46.000Z</time>
      </trkpt>
      <trkpt lat="45.334240" lon="5.659211">
        <ele>623.285389</ele>
        <time>2017-06-03T13:14:50.000Z</time>
      </trkpt>
      <trkpt lat="45.334137" lon="5.659201">
        <ele>623.513640</ele>
        <time>2017-06-03T13:14:54.000Z</time>
      </trkpt>
      <trkpt lat="45.334023" lon="5.659198">
        <ele>624.065506</ele>
        <time>2017-06-03T13:14:58.000Z</time>
      </trkpt>
      <trkpt lat="45.333910" lon="5.659187">
        <ele>624.613717</ele>
        <time>2017-06-03T13:15:02.000Z</time>
      </trkpt>
      <trkpt lat="45.333805" lon="5.659189">
        <ele>625.121974</ele>
        <time>2017-06-03T13:15:06.000Z</time>
      </trkpt>
      <trkpt lat="45.333700" lon="5.659171">
        <ele>625.633862</ele>
        <time>2017-06-03T13:15:10.000Z</time>
      </trkpt>
      <trkpt lat="45.333595" lon="5.659164">
        <ele>626.142631</ele>
        <time>2017-06-03T13:15:14.000Z</time>
      </trkpt>
      <trkpt lat="45.333490" lon="5.659150">
        <ele>626.653070</ele>
        <time>2017-06-03T13:15:18.000Z</time>
      </trkpt>
      <trkpt lat="45.333378" lon="5.659129">
        <ele>627.199850</ele>
        <time>2017-06-03T13:15:22.000Z</time>
      </trkpt>
      <trkpt lat="45.333267" lon="5.659101">
        <ele>627.745484</ele>
        <time>2017-06-03T13:15:26.000Z</time>
      </trkpt>
      <trkpt lat="45.333150" lon="5.659066">
        <ele>628.324162</ele>
        <time>2017-06-03T13:15:30.000Z</time>
      </trkpt>
      <trkpt lat="45.333035" lon="5.659025">
        <ele>628.897990</ele>
        <time>2017-06-03T13:15:34.000Z</time>
      </trkpt>
      <trkpt lat="45.332947" lon="5.658989">
        <ele>629.341183</ele>
        <time>2017-06-03T13:15:37.000Z</time>
      </trkpt>
      <trkpt lat="45.332832" lon="5.658935">
        <ele>629.927336</ele>
        <time>2017-06-03T13:15:41.000Z</time>
      </trkpt>
      <trkpt lat="45.332720" lon="5.658895">
        <ele>630.486252</ele>
        <time>2017-06-03T13:15:45.000Z</time>
      </trkpt>
      <trkpt lat="45.332610" lon="5.658835">
        <ele>631.056463</ele>
        <time>2017-06-03T13:15:49.000Z</time>
      </trkpt>
      <trkpt lat="45.332527" lon="5.658794">
        <ele>631.481725</ele>
        <time>2017-06-03T13:15:52.000Z</time>
      </trkpt>
      <trkpt lat="45.332440" lon="5.658752">
        <ele>631.926403</ele>
        <time>2017-06-03T13:15:55.000Z</time>
      </trkpt>
      <trkpt lat="45.332348" lon="5.658713">
        <ele>632.303969</ele>
        <time>2017-06-03T13:15:58.000Z</time>
      </trkpt>
      <trkpt lat="45.332237" lon="5.658674">
        <ele>632.601240</ele>
        <time>2017-06-03T13:16:02.000Z</time>
      </trkpt>
      <trkpt lat="45.332123" lon="5.658619">
        <ele>632.914222</ele>
        <time>2017-06-03T13:16:06.000Z</time>
      </trkpt>
      <trkpt lat="45.332035" lon="5.658578">
        <ele>633.154980</ele>
        <time>2017-06-03T13:16:09.000Z</time>
      </trkpt>
      <trkpt lat="45.331924" lon="5.658525">
        <ele>633.459402</ele>
        <time>2017-06-03T13:16:13.000Z</time>
      </trkpt>
      <trkpt lat="45.331837" lon="5.658479">
        <ele>633.700721</ele>
        <time>2017-06-03T13:16:16.000Z</time>
      </trkpt>
      <trkpt lat="45.331745" lon="5.658457">
        <ele>633.943276</ele>
        <time>2017-06-03T13:16:19.000Z</time>
      </trkpt>
      <trkpt lat="45.331650" lon="5.658448">
        <ele>634.190822</ele>
        <time>2017-06-03T13:16:22.000Z</time>
      </trkpt>
      <trkpt lat="45.331560" lon="5.658439">
        <ele>634.425397</ele>
        <time>2017-06-03T13:16:25.000Z</time>
      </trkpt>
      <trkpt lat="45.331467" lon="5.658446">
        <ele>634.667534</ele>
        <time>2017-06-03T13:16:28.000Z</time>
      </trkpt>
      <trkpt lat="45.331375" lon="5.658444">
        <ele>634.906760</ele>
        <time>2017-06-03T13:16:31.000Z</time>
      </trkpt>
      <trkpt lat="45.331257" lon="5.658444">
        <ele>635.213558</ele>
        <time>2017-06-03T13:16:35.000Z</time>
      </trkpt>
      <trkpt lat="45.331160" lon="5.658447">
        <ele>635.465816</ele>
        <time>2017-06-03T13:16:38.000Z</time>
      </trkpt>
      <trkpt lat="45.331070" lon="5.658442">
        <ele>635.699993</ele>
        <time>2017-06-03T13:16:41.000Z</time>
      </trkpt>
      <trkpt lat="45.330956" lon="5.658386">
        <ele>636.013567</ele>
        <time>2017-06-03T13:16:44.000Z</time>
      </trkpt>
      <trkpt lat="45.330830" lon="5.658366">
        <ele>636.343198</ele>
        <time>2017-06-03T13:16:47.000Z</time>
      </trkpt>
      <trkpt lat="45.330720" lon="5.658320">
        <ele>636.641299</ele>
        <time>2017-06-03T13:16:50.000Z</time>
      </trkpt>
      <trkpt lat="45.330616" lon="5.658260">
        <ele>636.848172</ele>
        <time>2017-06-03T13:16:53.000Z</time>
      </trkpt>
      <trkpt lat="45.330517" lon="5.658210">
        <ele>636.689751</ele>
        <time>2017-06-03T13:16:56.000Z</time>
      </trkpt>
      <trkpt lat="45.330430" lon="5.658175">
        <ele>636.553411</ele>
        <time>2017-06-03T13:16:59.000Z</time>
      </trkpt>
      <trkpt lat="45.330290" lon="5.658148">
        <ele>636.340363</ele>
        <time>2017-06-03T13:18:22.000Z</time>
      </trkpt>
      <trkpt lat="45.330190" lon="5.658154">
        <ele>636.189432</ele>
        <time>2017-06-03T13:18:27.000Z</time>
      </trkpt>
      <trkpt lat="45.330074" lon="5.658164">
        <ele>636.014186</ele>
        <time>2017-06-03T13:18:31.000Z</time>
      </trkpt>
      <trkpt lat="45.329983" lon="5.658183">
        <ele>635.875490</ele>
        <time>2017-06-03T13:18:34.000Z</time>
      </trkpt>
      <trkpt lat="45.329872" lon="5.658208">
        <ele>635.706020</ele>
        <time>2017-06-03T13:18:38.000Z</time>
      </trkpt>
      <trkpt lat="45.329770" lon="5.658248">
        <ele>635.546468</ele>
        <time>2017-06-03T13:18:42.000Z</time>
      </trkpt>
      <trkpt lat="45.329660" lon="5.658279">
        <ele>635.377366</ele>
        <time>2017-06-03T13:18:46.000Z</time>
      </trkpt>
      <trkpt lat="45.329548" lon="5.658299">
        <ele>635.207147</ele>
        <time>2017-06-03T13:18:50.000Z</time>
      </trkpt>
      <trkpt lat="45.329433" lon="5.658290">
        <ele>635.033468</ele>
        <time>2017-06-03T13:18:54.000Z</time>
      </trkpt>
      <trkpt lat="45.329327" lon="5.658214">
        <ele>634.854465</ele>
        <time>2017-06-03T13:18:58.000Z</time>
      </trkpt>
      <trkpt lat="45.329254" lon="5.658123">
        <ele>634.708091</ele>
        <time>2017-06-03T13:19:01.000Z</time>
      </trkpt>
      <trkpt lat="45.329180" lon="5.658005">
        <ele>634.540455</ele>
        <time>2017-06-03T13:19:04.000Z</time>
      </trkpt>
      <trkpt lat="45.329120" lon="5.657895">
        <ele>634.392854</ele>
        <time>2017-06-03T13:19:07.000Z</time>
      </trkpt>
      <trkpt lat="45.329063" lon="5.657794">
        <ele>634.255546</ele>
        <time>2017-06-03T13:19:10.000Z</time>
      </trkpt>
      <trkpt lat="45.328990" lon="5.657697">
        <ele>633.941673</ele>
        <time>2017-06-03T13:19:13.000Z</time>
      </trkpt>
      <trkpt lat="45.328896" lon="5.657607">
        <ele>633.321907</ele>
        <time>2017-06-03T13:19:16.000Z</time>
      </trkpt>
      <trkpt lat="45.328780" lon="5.657539">
        <ele>632.635665</ele>
        <time>2017-06-03T13:19:19.000Z</time>
      </trkpt>
      <trkpt lat="45.328674" lon="5.657482">
        <ele>632.015842</ele>
        <time>2017-06-03T13:19:22.000Z</time>
      </trkpt>
      <trkpt lat="45.328560" lon="5.657412">
        <ele>631.336690</ele>
        <time>2017-06-03T13:19:25.000Z</time>
      </trkpt>
      <trkpt lat="45.328450" lon="5.657344">
        <ele>630.680671</ele>
        <time>2017-06-03T13:19:28.000Z</time>
      </trkpt>
      <trkpt lat="45.328340" lon="5.657266">
        <ele>630.008399</ele>
        <time>2017-06-03T13:19:31.000Z</time>
      </trkpt>
      <trkpt lat="45.328228" lon="5.657188">
        <ele>629.326319</ele>
        <time>2017-06-03T13:19:34.000Z</time>
      </trkpt>
      <trkpt lat="45.328117" lon="5.657095">
        <ele>628.621698</ele>
        <time>2017-06-03T13:19:37.000Z</time>
      </trkpt>
      <trkpt lat="45.328000" lon="5.656994">
        <ele>627.873122</ele>
        <time>2017-06-03T13:19:40.000Z</time>
      </trkpt>
      <trkpt lat="45.327908" lon="5.656926">
        <ele>627.306036</ele>
        <time>2017-06-03T13:19:42.000Z</time>
      </trkpt>
      <trkpt lat="45.327812" lon="5.656878">
        <ele>626.749459</ele>
        <time>2017-06-03T13:19:44.000Z</time>
      </trkpt>
      <trkpt lat="45.327717" lon="5.656860">
        <ele>626.225259</ele>
        <time>2017-06-03T13:19:46.000Z</time>
      </trkpt>
      <trkpt lat="45.327625" lon="5.656841">
        <ele>625.716780</ele>
        <time>2017-06-03T13:19:48.000Z</time>
      </trkpt>
      <trkpt lat="45.327503" lon="5.656819">
        <ele>625.044150</ele>
        <time>2017-06-03T13:19:51.000Z</time>
      </trkpt>
      <trkpt lat="45.327410" lon="5.656811">
        <ele>624.534549</ele>
        <time>2017-06-03T13:19:53.000Z</time>
      </trkpt>
      <trkpt lat="45.327316" lon="5.656799">
        <ele>623.843088</ele>
        <time>2017-06-03T13:19:55.000Z</time>
      </trkpt>
      <trkpt lat="45.327183" lon="5.656792">
        <ele>622.704747</ele>
        <time>2017-06-03T13:19:58.000Z</time>
      </trkpt>
      <trkpt lat="45.327050" lon="5.656783">
        <ele>621.565898</ele>
        <time>2017-06-03T13:20:01.000Z</time>
      </trkpt>
      <trkpt lat="45.326958" lon="5.656776">
        <ele>620.777888</ele>
        <time>2017-06-03T13:20:03.000Z</time>
      </trkpt>
      <trkpt lat="45.326824" lon="5.656761">
        <ele>619.628229</ele>
        <time>2017-06-03T13:20:06.000Z</time>
      </trkpt>
      <trkpt lat="45.326725" lon="5.656753">
        <ele>618.780106</ele>
        <time>2017-06-03T13:20:08.000Z</time>
      </trkpt>
      <trkpt lat="45.326590" lon="5.656728">
        <ele>617.615692</ele>
        <time>2017-06-03T13:20:11.000Z</time>
      </trkpt>
      <trkpt lat="45.326500" lon="5.656699">
        <ele>616.826407</ele>
        <time>2017-06-03T13:20:13.000Z</time>
      </trkpt>
      <trkpt lat="45.326410" lon="5.656675">
        <ele>616.043216</ele>
        <time>2017-06-03T13:20:15.000Z</time>
      </trkpt>
      <trkpt lat="45.326320" lon="5.656635">
        <ele>615.236731</ele>
        <time>2017-06-03T13:20:17.000Z</time>
      </trkpt>
      <trkpt lat="45.326233" lon="5.656595">
        <ele>614.454701</ele>
        <time>2017-06-03T13:20:19.000Z</time>
      </trkpt>
      <trkpt lat="45.326140" lon="5.656552">
        <ele>613.618289</ele>
        <time>2017-06-03T13:20:21.000Z</time>
      </trkpt>
      <trkpt lat="45.326027" lon="5.656491">
        <ele>612.584519</ele>
        <time>2017-06-03T13:20:24.000Z</time>
      </trkpt>
      <trkpt lat="45.325912" lon="5.656436">
        <ele>611.546796</ele>
        <time>2017-06-03T13:20:27.000Z</time>
      </trkpt>
      <trkpt lat="45.325825" lon="5.656390">
        <ele>610.752924</ele>
        <time>2017-06-03T13:20:29.000Z</time>
      </trkpt>
      <trkpt lat="45.325737" lon="5.656347">
        <ele>609.957072</ele>
        <time>2017-06-03T13:20:31.000Z</time>
      </trkpt>
      <trkpt lat="45.325615" lon="5.656282">
        <ele>608.836359</ele>
        <time>2017-06-03T13:20:34.000Z</time>
      </trkpt>
      <trkpt lat="45.325523" lon="5.656232">
        <ele>607.941127</ele>
        <time>2017-06-03T13:20:36.000Z</time>
      </trkpt>
      <trkpt lat="45.325436" lon="5.656174">
        <ele>607.067755</ele>
        <time>2017-06-03T13:20:38.000Z</time>
      </trkpt>
      <trkpt lat="45.325320" lon="5.656109">
        <ele>605.934460</ele>
        <time>2017-06-03T13:20:41.000Z</time>
      </trkpt>
      <trkpt lat="45.325200" lon="5.656054">
        <ele>604.788449</ele>
        <time>2017-06-03T13:20:44.000Z</time>
      </trkpt>
      <trkpt lat="45.325070" lon="5.656018">
        <ele>603.584586</ele>
        <time>2017-06-03T13:20:47.000Z</time>
      </trkpt>
      <trkpt lat="45.324980" lon="5.655987">
        <ele>602.742857</ele>
        <time>2017-06-03T13:20:49.000Z</time>
      </trkpt>
      <trkpt lat="45.324860" lon="5.655926">
        <ele>601.584508</ele>
        <time>2017-06-03T13:20:52.000Z</time>
      </trkpt>
      <trkpt lat="45.324745" lon="5.655867">
        <ele>600.473254</ele>
        <time>2017-06-03T13:20:55.000Z</time>
      </trkpt>
      <trkpt lat="45.324646" lon="5.655778">
        <ele>599.408676</ele>
        <time>2017-06-03T13:20:58.000Z</time>
      </trkpt>
      <trkpt lat="45.324550" lon="5.655671">
        <ele>598.300032</ele>
        <time>2017-06-03T13:21:01.000Z</time>
      </trkpt>
      <trkpt lat="45.324448" lon="5.655571">
        <ele>597.173947</ele>
        <time>2017-06-03T13:21:04.000Z</time>
      </trkpt>
      <trkpt lat="45.324333" lon="5.655479">
        <ele>595.974608</ele>
        <time>2017-06-03T13:21:07.000Z</time>
      </trkpt>
      <trkpt lat="45.324234" lon="5.655395">
        <ele>594.926752</ele>
        <time>2017-06-03T13:21:10.000Z</time>
      </trkpt>
      <trkpt lat="45.324130" lon="5.655330">
        <ele>593.894165</ele>
        <time>2017-06-03T13:21:13.000Z</time>
      </trkpt>
      <trkpt lat="45.324020" lon="5.655311">
        <ele>592.886941</ele>
        <time>2017-06-03T13:21:16.000Z</time>
      </trkpt>
      <trkpt lat="45.323902" lon="5.655268">
        <ele>592.100615</ele>
        <time>2017-06-03T13:21:19.000Z</time>
      </trkpt>
      <trkpt lat="45.323790" lon="5.655225">
        <ele>591.460713</ele>
        <time>2017-06-03T13:21:22.000Z</time>
      </trkpt>
      <trkpt lat="45.323690" lon="5.655152">
        <ele>590.840702</ele>
        <time>2017-06-03T13:21:25.000Z</time>
      </trkpt>
      <trkpt lat="45.323586" lon="5.655057">
        <ele>590.158915</ele>
        <time>2017-06-03T13:21:28.000Z</time>
      </trkpt>
      <trkpt lat="45.323520" lon="5.654950">
        <ele>589.606880</ele>
        <time>2017-06-03T13:21:31.000Z</time>
      </trkpt>
      <trkpt lat="45.323467" lon="5.654828">
        <ele>589.050697</ele>
        <time>2017-06-03T13:21:34.000Z</time>
      </trkpt>
      <trkpt lat="45.323402" lon="5.654716">
        <ele>588.487468</ele>
        <time>2017-06-03T13:21:37.000Z</time>
      </trkpt>
      <trkpt lat="45.323315" lon="5.654632">
        <ele>587.907445</ele>
        <time>2017-06-03T13:21:40.000Z</time>
      </trkpt>
      <trkpt lat="45.323215" lon="5.654553">
        <ele>587.276468</ele>
        <time>2017-06-03T13:21:43.000Z</time>
      </trkpt>
      <trkpt lat="45.323120" lon="5.654493">
        <ele>586.703106</ele>
        <time>2017-06-03T13:21:46.000Z</time>
      </trkpt>
      <trkpt lat="45.323010" lon="5.654436">
        <ele>586.057332</ele>
        <time>2017-06-03T13:21:49.000Z</time>
      </trkpt>
      <trkpt lat="45.322900" lon="5.654377">
        <ele>585.408861</ele>
        <time>2017-06-03T13:21:52.000Z</time>
      </trkpt>
      <trkpt lat="45.322803" lon="5.654319">
        <ele>584.828449</ele>
        <time>2017-06-03T13:21:55.000Z</time>
      </trkpt>
      <trkpt lat="45.322690" lon="5.654237">
        <ele>584.128700</ele>
        <time>2017-06-03T13:21:58.000Z</time>
      </trkpt>
      <trkpt lat="45.322575" lon="5.654158">
        <ele>583.424243</ele>
        <time>2017-06-03T13:22:01.000Z</time>
      </trkpt>
      <trkpt lat="45.322464" lon="5.654088">
        <ele>582.754480</ele>
        <time>2017-06-03T13:22:04.000Z</time>
      </trkpt>
      <trkpt lat="45.322360" lon="5.654029">
        <ele>582.236429</ele>
        <time>2017-06-03T13:22:07.000Z</time>
      </trkpt>
      <trkpt lat="45.322243" lon="5.654000">
        <ele>581.702613</ele>
        <time>2017-06-03T13:22:10.000Z</time>
      </trkpt>
      <trkpt lat="45.322117" lon="5.653977">
        <ele>581.131625</ele>
        <time>2017-06-03T13:22:13.000Z</time>
      </trkpt>
      <trkpt lat="45.321995" lon="5.653949">
        <ele>580.576168</ele>
        <time>2017-06-03T13:22:16.000Z</time>
      </trkpt>
      <trkpt lat="45.321870" lon="5.653918">
        <ele>580.005843</ele>
        <time>2017-06-03T13:22:19.000Z</time>
      </trkpt>
      <trkpt lat="45.321743" lon="5.653880">
        <ele>579.422510</ele>
        <time>2017-06-03T13:22:22.000Z</time>
      </trkpt>
      <trkpt lat="45.321625" lon="5.653845">
        <ele>578.880714</ele>
        <time>2017-06-03T13:22:25.000Z</time>
      </trkpt>
      <trkpt lat="45.321514" lon="5.653813">
        <ele>578.371647</ele>
        <time>2017-06-03T13:22:28.000Z</time>
      </trkpt>
      <trkpt lat="45.321404" lon="5.653771">
        <ele>577.859713</ele>
        <time>2017-06-03T13:22:31.000Z</time>
      </trkpt>
      <trkpt lat="45.321316" lon="5.653761">
        <ele>577.462912</ele>
        <time>2017-06-03T13:22:33.000Z</time>
      </trkpt>
      <trkpt lat="45.321224" lon="5.653738">
        <ele>577.043052</ele>
        <time>2017-06-03T13:22:35.000Z</time>
      </trkpt>
      <trkpt lat="45.321120" lon="5.653729">
        <ele>576.574730</ele>
        <time>2017-06-03T13:22:37.000Z</time>
      </trkpt>
      <trkpt lat="45.321014" lon="5.653725">
        <ele>576.098116</ele>
        <time>2017-06-03T13:22:39.000Z</time>
      </trkpt>
      <trkpt lat="45.320910" lon="5.653720">
        <ele>575.630392</ele>
        <time>2017-06-03T13:22:41.000Z</time>
      </trkpt>
      <trkpt lat="45.320800" lon="5.653693">
        <ele>575.128657</ele>
        <time>2017-06-03T13:22:43.000Z</time>
      </trkpt>
      <trkpt lat="45.320690" lon="5.653656">
        <ele>574.620591</ele>
        <time>2017-06-03T13:22:45.000Z</time>
      </trkpt>
      <trkpt lat="45.320587" lon="5.653625">
        <ele>574.318649</ele>
        <time>2017-06-03T13:22:47.000Z</time>
      </trkpt>
      <trkpt lat="45.320484" lon="5.653589">
        <ele>574.026320</ele>
        <time>2017-06-03T13:22:49.000Z</time>
      </trkpt>
      <trkpt lat="45.320380" lon="5.653556">
        <ele>573.732636</ele>
        <time>2017-06-03T13:22:51.000Z</time>
      </trkpt>
      <trkpt lat="45.320280" lon="5.653534">
        <ele>573.453745</ele>
        <time>2017-06-03T13:22:53.000Z</time>
      </trkpt>
      <trkpt lat="45.320170" lon="5.653498">
        <ele>573.142647</ele>
        <time>2017-06-03T13:22:55.000Z</time>
      </trkpt>
      <trkpt lat="45.320050" lon="5.653453">
        <ele>572.800608</ele>
        <time>2017-06-03T13:22:57.000Z</time>
      </trkpt>
      <trkpt lat="45.319927" lon="5.653397">
        <ele>572.444657</ele>
        <time>2017-06-03T13:22:59.000Z</time>
      </trkpt>
      <trkpt lat="45.319805" lon="5.653348">
        <ele>572.095257</ele>
        <time>2017-06-03T13:23:01.000Z</time>
      </trkpt>
      <trkpt lat="45.319683" lon="5.653290">
        <ele>571.740720</ele>
        <time>2017-06-03T13:23:03.000Z</time>
      </trkpt>
      <trkpt lat="45.319572" lon="5.653230">
        <ele>571.413438</ele>
        <time>2017-06-03T13:23:05.000Z</time>
      </trkpt>
      <trkpt lat="45.319473" lon="5.653184">
        <ele>571.126387</ele>
        <time>2017-06-03T13:23:07.000Z</time>
      </trkpt>
      <trkpt lat="45.319374" lon="5.653143">
        <ele>570.842197</ele>
        <time>2017-06-03T13:23:09.000Z</time>
      </trkpt>
      <trkpt lat="45.319275" lon="5.653103">
        <ele>570.558542</ele>
        <time>2017-06-03T13:23:11.000Z</time>
      </trkpt>
      <trkpt lat="45.319180" lon="5.653073">
        <ele>570.290333</ele>
        <time>2017-06-03T13:23:13.000Z</time>
      </trkpt>
      <trkpt lat="45.319077" lon="5.653045">
        <ele>570.001312</ele>
        <time>2017-06-03T13:23:15.000Z</time>
      </trkpt>
      <trkpt lat="45.318970" lon="5.653023">
        <ele>569.703341</ele>
        <time>2017-06-03T13:23:17.000Z</time>
      </trkpt>
      <trkpt lat="45.318870" lon="5.652997">
        <ele>569.193613</ele>
        <time>2017-06-03T13:23:19.000Z</time>
      </trkpt>
      <trkpt lat="45.318770" lon="5.652970">
        <ele>568.605996</ele>
        <time>2017-06-03T13:23:21.000Z</time>
      </trkpt>
      <trkpt lat="45.318665" lon="5.652940">
        <ele>567.987714</ele>
        <time>2017-06-03T13:23:23.000Z</time>
      </trkpt>
      <trkpt lat="45.318565" lon="5.652926">
        <ele>567.407619</ele>
        <time>2017-06-03T13:23:25.000Z</time>
      </trkpt>
      <trkpt lat="45.318462" lon="5.652923">
        <ele>566.812870</ele>
        <time>2017-06-03T13:23:27.000Z</time>
      </trkpt>
      <trkpt lat="45.318348" lon="5.652896">
        <ele>566.145679</ele>
        <time>2017-06-03T13:23:29.000Z</time>
      </trkpt>
      <trkpt lat="45.318245" lon="5.652862">
        <ele>565.535247</ele>
        <time>2017-06-03T13:23:31.000Z</time>
      </trkpt>
      <trkpt lat="45.318140" lon="5.652798">
        <ele>564.875747</ele>
        <time>2017-06-03T13:23:33.000Z</time>
      </trkpt>
      <trkpt lat="45.318020" lon="5.652729">
        <ele>564.128498</ele>
        <time>2017-06-03T13:23:35.000Z</time>
      </trkpt>
      <trkpt lat="45.317917" lon="5.652666">
        <ele>563.481209</ele>
        <time>2017-06-03T13:23:37.000Z</time>
      </trkpt>
      <trkpt lat="45.317814" lon="5.652606">
        <ele>562.838634</ele>
        <time>2017-06-03T13:23:39.000Z</time>
      </trkpt>
      <trkpt lat="45.317720" lon="5.652542">
        <ele>562.236982</ele>
        <time>2017-06-03T13:23:41.000Z</time>
      </trkpt>
      <trkpt lat="45.317610" lon="5.652473">
        <ele>561.542916</ele>
        <time>2017-06-03T13:23:43.000Z</time>
      </trkpt>
      <trkpt lat="45.317505" lon="5.652413">
        <ele>560.889641</ele>
        <time>2017-06-03T13:23:45.000Z</time>
      </trkpt>
      <trkpt lat="45.317394" lon="5.652355">
        <ele>560.206947</ele>
        <time>2017-06-03T13:23:47.000Z</time>
      </trkpt>
      <trkpt lat="45.317287" lon="5.652288">
        <ele>559.532003</ele>
        <time>2017-06-03T13:23:49.000Z</time>
      </trkpt>
      <trkpt lat="45.317180" lon="5.652217">
        <ele>558.567163</ele>
        <time>2017-06-03T13:23:51.000Z</time>
      </trkpt>
      <trkpt lat="45.317090" lon="5.652151">
        <ele>557.567517</ele>
        <time>2017-06-03T13:23:53.000Z</time>
      </trkpt>
      <trkpt lat="45.316990" lon="5.652083">
        <ele>556.473273</ele>
        <time>2017-06-03T13:23:55.000Z</time>
      </trkpt>
      <trkpt lat="45.316902" lon="5.652023">
        <ele>555.509859</ele>
        <time>2017-06-03T13:23:57.000Z</time>
      </trkpt>
      <trkpt lat="45.316814" lon="5.651951">
        <ele>554.507612</ele>
        <time>2017-06-03T13:23:59.000Z</time>
      </trkpt>
      <trkpt lat="45.316727" lon="5.651874">
        <ele>553.496006</ele>
        <time>2017-06-03T13:24:01.000Z</time>
      </trkpt>
      <trkpt lat="45.316635" lon="5.651794">
        <ele>552.431456</ele>
        <time>2017-06-03T13:24:03.000Z</time>
      </trkpt>
      <trkpt lat="45.316536" lon="5.651721">
        <ele>551.330569</ele>
        <time>2017-06-03T13:24:05.000Z</time>
      </trkpt>
      <trkpt lat="45.316430" lon="5.651665">
        <ele>550.214270</ele>
        <time>2017-06-03T13:24:07.000Z</time>
      </trkpt>
      <trkpt lat="45.316326" lon="5.651607">
        <ele>549.111464</ele>
        <time>2017-06-03T13:24:09.000Z</time>
      </trkpt>
      <trkpt lat="45.316216" lon="5.651557">
        <ele>547.971431</ele>
        <time>2017-06-03T13:24:11.000Z</time>
      </trkpt>
      <trkpt lat="45.316110" lon="5.651503">
        <ele>546.859890</ele>
        <time>2017-06-03T13:24:13.000Z</time>
      </trkpt>
      <trkpt lat="45.316013" lon="5.651444">
        <ele>545.818400</ele>
        <time>2017-06-03T13:24:15.000Z</time>
      </trkpt>
      <trkpt lat="45.315914" lon="5.651370">
        <ele>544.714297</ele>
        <time>2017-06-03T13:24:17.000Z</time>
      </trkpt>
      <trkpt lat="45.315810" lon="5.651284">
        <ele>543.526658</ele>
        <time>2017-06-03T13:24:19.000Z</time>
      </trkpt>
      <trkpt lat="45.315704" lon="5.651191">
        <ele>542.297105</ele>
        <time>2017-06-03T13:24:21.000Z</time>
      </trkpt>
      <trkpt lat="45.315600" lon="5.651105">
        <ele>541.275086</ele>
        <time>2017-06-03T13:24:23.000Z</time>
      </trkpt>
      <trkpt lat="45.315506" lon="5.651021">
        <ele>540.652204</ele>
        <time>2017-06-03T13:24:25.000Z</time>
      </trkpt>
      <trkpt lat="45.315414" lon="5.650948">
        <ele>540.061113</ele>
        <time>2017-06-03T13:24:27.000Z</time>
      </trkpt>
      <trkpt lat="45.315330" lon="5.650885">
        <ele>539.528292</ele>
        <time>2017-06-03T13:24:29.000Z</time>
      </trkpt>
      <trkpt lat="45.315212" lon="5.650823">
        <ele>538.822496</ele>
        <time>2017-06-03T13:24:32.000Z</time>
      </trkpt>
      <trkpt lat="45.315120" lon="5.650750">
        <ele>538.231403</ele>
        <time>2017-06-03T13:24:35.000Z</time>
      </trkpt>
      <trkpt lat="45.315030" lon="5.650682">
        <ele>537.659601</ele>
        <time>2017-06-03T13:24:38.000Z</time>
      </trkpt>
      <trkpt lat="45.314934" lon="5.650604">
        <ele>537.039266</ele>
        <time>2017-06-03T13:24:41.000Z</time>
      </trkpt>
      <trkpt lat="45.314846" lon="5.650534">
        <ele>536.473538</ele>
        <time>2017-06-03T13:24:44.000Z</time>
      </trkpt>
      <trkpt lat="45.314760" lon="5.650471">
        <ele>535.930766</ele>
        <time>2017-06-03T13:24:48.000Z</time>
      </trkpt>
      <trkpt lat="45.314674" lon="5.650412">
        <ele>535.395037</ele>
        <time>2017-06-03T13:24:52.000Z</time>
      </trkpt>
      <trkpt lat="45.314580" lon="5.650347">
        <ele>534.808593</ele>
        <time>2017-06-03T13:24:56.000Z</time>
      </trkpt>
      <trkpt lat="45.314484" lon="5.650284">
        <ele>534.215387</ele>
        <time>2017-06-03T13:24:59.000Z</time>
      </trkpt>
      <trkpt lat="45.314380" lon="5.650215">
        <ele>533.571501</ele>
        <time>2017-06-03T13:25:02.000Z</time>
      </trkpt>
      <trkpt lat="45.314270" lon="5.650119">
        <ele>532.847375</ele>
        <time>2017-06-03T13:25:05.000Z</time>
      </trkpt>
      <trkpt lat="45.314170" lon="5.649987">
        <ele>532.081852</ele>
        <time>2017-06-03T13:25:08.000Z</time>
      </trkpt>
      <trkpt lat="45.314102" lon="5.649870">
        <ele>531.482976</ele>
        <time>2017-06-03T13:25:10.000Z</time>
      </trkpt>
      <trkpt lat="45.314034" lon="5.649736">
        <ele>531.169995</ele>
        <time>2017-06-03T13:25:12.000Z</time>
      </trkpt>
      <trkpt lat="45.313972" lon="5.649599">
        <ele>530.909044</ele>
        <time>2017-06-03T13:25:14.000Z</time>
      </trkpt>
      <trkpt lat="45.313910" lon="5.649469">
        <ele>530.657448</ele>
        <time>2017-06-03T13:25:16.000Z</time>
      </trkpt>
      <trkpt lat="45.313847" lon="5.649345">
        <ele>530.412419</ele>
        <time>2017-06-03T13:25:18.000Z</time>
      </trkpt>
      <trkpt lat="45.313774" lon="5.649225">
        <ele>530.158271</ele>
        <time>2017-06-03T13:25:20.000Z</time>
      </trkpt>
      <trkpt lat="45.313705" lon="5.649098">
        <ele>529.901210</ele>
        <time>2017-06-03T13:25:22.000Z</time>
      </trkpt>
      <trkpt lat="45.313640" lon="5.648978">
        <ele>529.658592</ele>
        <time>2017-06-03T13:25:24.000Z</time>
      </trkpt>
      <trkpt lat="45.313572" lon="5.648858">
        <ele>529.411744</ele>
        <time>2017-06-03T13:25:26.000Z</time>
      </trkpt>
      <trkpt lat="45.313510" lon="5.648745">
        <ele>529.182173</ele>
        <time>2017-06-03T13:25:28.000Z</time>
      </trkpt>
      <trkpt lat="45.313454" lon="5.648637">
        <ele>528.967243</ele>
        <time>2017-06-03T13:25:30.000Z</time>
      </trkpt>
      <trkpt lat="45.313360" lon="5.648507">
        <ele>528.668580</ele>
        <time>2017-06-03T13:25:33.000Z</time>
      </trkpt>
      <trkpt lat="45.313250" lon="5.648416">
        <ele>528.378717</ele>
        <time>2017-06-03T13:25:36.000Z</time>
      </trkpt>
      <trkpt lat="45.313160" lon="5.648382">
        <ele>528.166612</ele>
        <time>2017-06-03T13:25:38.000Z</time>
      </trkpt>
      <trkpt lat="45.313030" lon="5.648341">
        <ele>527.863314</ele>
        <time>2017-06-03T13:25:41.000Z</time>
      </trkpt>
      <trkpt lat="45.312900" lon="5.648305">
        <ele>527.561649</ele>
        <time>2017-06-03T13:25:44.000Z</time>
      </trkpt>
      <trkpt lat="45.312800" lon="5.648277">
        <ele>527.329504</ele>
        <time>2017-06-03T13:25:46.000Z</time>
      </trkpt>
      <trkpt lat="45.312706" lon="5.648235">
        <ele>527.095218</ele>
        <time>2017-06-03T13:25:48.000Z</time>
      </trkpt>
      <trkpt lat="45.312607" lon="5.648190">
        <ele>526.846802</ele>
        <time>2017-06-03T13:25:50.000Z</time>
      </trkpt>
      <trkpt lat="45.312508" lon="5.648135">
        <ele>526.592763</ele>
        <time>2017-06-03T13:25:52.000Z</time>
      </trkpt>
      <trkpt lat="45.312410" lon="5.648077">
        <ele>526.339054</ele>
        <time>2017-06-03T13:25:54.000Z</time>
      </trkpt>
      <trkpt lat="45.312320" lon="5.648022">
        <ele>526.104921</ele>
        <time>2017-06-03T13:25:56.000Z</time>
      </trkpt>
      <trkpt lat="45.312237" lon="5.647973">
        <ele>525.890124</ele>
        <time>2017-06-03T13:25:58.000Z</time>
      </trkpt>
      <trkpt lat="45.312153" lon="5.647913">
        <ele>525.665448</ele>
        <time>2017-06-03T13:26:00.000Z</time>
      </trkpt>
      <trkpt lat="45.312065" lon="5.647848">
        <ele>525.428435</ele>
        <time>2017-06-03T13:26:02.000Z</time>
      </trkpt>
      <trkpt lat="45.311985" lon="5.647779">
        <ele>525.204801</ele>
        <time>2017-06-03T13:26:04.000Z</time>
      </trkpt>
      <trkpt lat="45.311900" lon="5.647710">
        <ele>524.970868</ele>
        <time>2017-06-03T13:26:06.000Z</time>
      </trkpt>
      <trkpt lat="45.311817" lon="5.647641">
        <ele>524.741074</ele>
        <time>2017-06-03T13:26:08.000Z</time>
      </trkpt>
      <trkpt lat="45.311737" lon="5.647565">
        <ele>524.511118</ele>
        <time>2017-06-03T13:26:10.000Z</time>
      </trkpt>
      <trkpt lat="45.311657" lon="5.647473">
        <ele>524.265204</ele>
        <time>2017-06-03T13:26:12.000Z</time>
      </trkpt>
      <trkpt lat="45.311580" lon="5.647389">
        <ele>524.033244</ele>
        <time>2017-06-03T13:26:14.000Z</time>
      </trkpt>
      <trkpt lat="45.311504" lon="5.647283">
        <ele>523.778802</ele>
        <time>2017-06-03T13:26:16.000Z</time>
      </trkpt>
      <trkpt lat="45.311428" lon="5.647168">
        <ele>523.513546</ele>
        <time>2017-06-03T13:26:18.000Z</time>
      </trkpt>
      <trkpt lat="45.311356" lon="5.647042">
        <ele>523.240657</ele>
        <time>2017-06-03T13:26:20.000Z</time>
      </trkpt>
      <trkpt lat="45.311295" lon="5.646922">
        <ele>522.967486</ele>
        <time>2017-06-03T13:26:22.000Z</time>
      </trkpt>
      <trkpt lat="45.311245" lon="5.646799">
        <ele>522.318199</ele>
        <time>2017-06-03T13:26:24.000Z</time>
      </trkpt>
      <trkpt lat="45.311195" lon="5.646682">
        <ele>521.692501</ele>
        <time>2017-06-03T13:26:26.000Z</time>
      </trkpt>
      <trkpt lat="45.311142" lon="5.646577">
        <ele>521.101818</ele>
        <time>2017-06-03T13:26:28.000Z</time>
      </trkpt>
      <trkpt lat="45.311066" lon="5.646426">
        <ele>520.253189</ele>
        <time>2017-06-03T13:26:31.000Z</time>
      </trkpt>
      <trkpt lat="45.310990" lon="5.646268">
        <ele>519.378345</ele>
        <time>2017-06-03T13:26:34.000Z</time>
      </trkpt>
      <trkpt lat="45.310932" lon="5.646164">
        <ele>518.771731</ele>
        <time>2017-06-03T13:26:36.000Z</time>
      </trkpt>
      <trkpt lat="45.310870" lon="5.646057">
        <ele>518.138110</ele>
        <time>2017-06-03T13:26:38.000Z</time>
      </trkpt>
      <trkpt lat="45.310814" lon="5.645950">
        <ele>517.528541</ele>
        <time>2017-06-03T13:26:40.000Z</time>
      </trkpt>
      <trkpt lat="45.310757" lon="5.645832">
        <ele>516.874291</ele>
        <time>2017-06-03T13:26:42.000Z</time>
      </trkpt>
      <trkpt lat="45.310696" lon="5.645725">
        <ele>516.244782</ele>
        <time>2017-06-03T13:26:44.000Z</time>
      </trkpt>
      <trkpt lat="45.310642" lon="5.645612">
        <ele>515.620398</ele>
        <time>2017-06-03T13:26:46.000Z</time>
      </trkpt>
      <trkpt lat="45.310580" lon="5.645459">
        <ele>514.813374</ele>
        <time>2017-06-03T13:26:49.000Z</time>
      </trkpt>
      <trkpt lat="45.310550" lon="5.645326">
        <ele>514.175031</ele>
        <time>2017-06-03T13:26:52.000Z</time>
      </trkpt>
      <trkpt lat="45.310470" lon="5.645093">
        <ele>512.990029</ele>
        <time>2017-06-03T13:27:52.000Z</time>
      </trkpt>
      <trkpt lat="45.310432" lon="5.644943">
        <ele>512.261368</ele>
        <time>2017-06-03T13:27:56.000Z</time>
      </trkpt>
      <trkpt lat="45.310375" lon="5.644740">
        <ele>511.261309</ele>
        <time>2017-06-03T13:28:00.000Z</time>
      </trkpt>
      <trkpt lat="45.310340" lon="5.644599">
        <ele>510.564448</ele>
        <time>2017-06-03T13:28:03.000Z</time>
      </trkpt>
      <trkpt lat="45.310307" lon="5.644452">
        <ele>509.845300</ele>
        <time>2017-06-03T13:28:06.000Z</time>
      </trkpt>
      <trkpt lat="45.310284" lon="5.644322">
        <ele>509.220558</ele>
        <time>2017-06-03T13:28:08.000Z</time>
      </trkpt>
      <trkpt lat="45.310238" lon="5.644160">
        <ele>508.406340</ele>
        <time>2017-06-03T13:28:11.000Z</time>
      </trkpt>
      <trkpt lat="45.310190" lon="5.644015">
        <ele>507.659446</ele>
        <time>2017-06-03T13:28:14.000Z</time>
      </trkpt>
      <trkpt lat="45.310130" lon="5.643894">
        <ele>506.969443</ele>
        <time>2017-06-03T13:28:17.000Z</time>
      </trkpt>
      <trkpt lat="45.310040" lon="5.643784">
        <ele>506.182973</ele>
        <time>2017-06-03T13:28:20.000Z</time>
      </trkpt>
      <trkpt lat="45.309933" lon="5.643686">
        <ele>505.339530</ele>
        <time>2017-06-03T13:28:23.000Z</time>
      </trkpt>
      <trkpt lat="45.309814" lon="5.643614">
        <ele>504.482504</ele>
        <time>2017-06-03T13:28:26.000Z</time>
      </trkpt>
      <trkpt lat="45.309720" lon="5.643555">
        <ele>503.801585</ele>
        <time>2017-06-03T13:28:28.000Z</time>
      </trkpt>
      <trkpt lat="45.309616" lon="5.643491">
        <ele>503.050610</ele>
        <time>2017-06-03T13:28:30.000Z</time>
      </trkpt>
      <trkpt lat="45.309517" lon="5.643405">
        <ele>502.281801</ele>
        <time>2017-06-03T13:28:32.000Z</time>
      </trkpt>
      <trkpt lat="45.309425" lon="5.643317">
        <ele>501.547015</ele>
        <time>2017-06-03T13:28:34.000Z</time>
      </trkpt>
      <trkpt lat="45.309345" lon="5.643232">
        <ele>500.885203</ele>
        <time>2017-06-03T13:28:36.000Z</time>
      </trkpt>
      <trkpt lat="45.309258" lon="5.643095">
        <ele>500.024924</ele>
        <time>2017-06-03T13:28:39.000Z</time>
      </trkpt>
      <trkpt lat="45.309210" lon="5.642982">
        <ele>499.409670</ele>
        <time>2017-06-03T13:28:41.000Z</time>
      </trkpt>
      <trkpt lat="45.309174" lon="5.642838">
        <ele>498.204201</ele>
        <time>2017-06-03T13:28:43.000Z</time>
      </trkpt>
      <trkpt lat="45.309162" lon="5.642692">
        <ele>497.036673</ele>
        <time>2017-06-03T13:28:45.000Z</time>
      </trkpt>
      <trkpt lat="45.309180" lon="5.642544">
        <ele>495.843705</ele>
        <time>2017-06-03T13:28:47.000Z</time>
      </trkpt>
      <trkpt lat="45.309220" lon="5.642425">
        <ele>494.796113</ele>
        <time>2017-06-03T13:28:49.000Z</time>
      </trkpt>
      <trkpt lat="45.309270" lon="5.642289">
        <ele>493.577212</ele>
        <time>2017-06-03T13:28:51.000Z</time>
      </trkpt>
      <trkpt lat="45.309330" lon="5.642153">
        <ele>492.302056</ele>
        <time>2017-06-03T13:28:53.000Z</time>
      </trkpt>
      <trkpt lat="45.309395" lon="5.642035">
        <ele>491.111548</ele>
        <time>2017-06-03T13:28:55.000Z</time>
      </trkpt>
      <trkpt lat="45.309460" lon="5.641926">
        <ele>489.976462</ele>
        <time>2017-06-03T13:28:57.000Z</time>
      </trkpt>
      <trkpt lat="45.309525" lon="5.641780">
        <ele>488.604006</ele>
        <time>2017-06-03T13:29:00.000Z</time>
      </trkpt>
      <trkpt lat="45.309593" lon="5.641670">
        <ele>487.440766</ele>
        <time>2017-06-03T13:29:02.000Z</time>
      </trkpt>
      <trkpt lat="45.309660" lon="5.641560">
        <ele>486.284952</ele>
        <time>2017-06-03T13:29:04.000Z</time>
      </trkpt>
      <trkpt lat="45.309740" lon="5.641482">
        <ele>485.189448</ele>
        <time>2017-06-03T13:29:06.000Z</time>
      </trkpt>
      <trkpt lat="45.309826" lon="5.641389">
        <ele>483.969210</ele>
        <time>2017-06-03T13:29:08.000Z</time>
      </trkpt>
      <trkpt lat="45.309910" lon="5.641229">
        <ele>482.383345</ele>
        <time>2017-06-03T13:29:11.000Z</time>
      </trkpt>
      <trkpt lat="45.309937" lon="5.641099">
        <ele>481.306721</ele>
        <time>2017-06-03T13:29:13.000Z</time>
      </trkpt>
      <trkpt lat="45.309933" lon="5.640959">
        <ele>480.193840</ele>
        <time>2017-06-03T13:29:15.000Z</time>
      </trkpt>
      <trkpt lat="45.309902" lon="5.640822">
        <ele>479.052757</ele>
        <time>2017-06-03T13:29:17.000Z</time>
      </trkpt>
      <trkpt lat="45.309868" lon="5.640703">
        <ele>478.093195</ele>
        <time>2017-06-03T13:29:19.000Z</time>
      </trkpt>
      <trkpt lat="45.309822" lon="5.640536">
        <ele>476.753328</ele>
        <time>2017-06-03T13:29:22.000Z</time>
      </trkpt>
      <trkpt lat="45.309760" lon="5.640375">
        <ele>475.382053</ele>
        <time>2017-06-03T13:29:25.000Z</time>
      </trkpt>
      <trkpt lat="45.309670" lon="5.640252">
        <ele>474.056026</ele>
        <time>2017-06-03T13:29:28.000Z</time>
      </trkpt>
      <trkpt lat="45.309560" lon="5.640149">
        <ele>472.656938</ele>
        <time>2017-06-03T13:29:31.000Z</time>
      </trkpt>
      <trkpt lat="45.309480" lon="5.640080">
        <ele>471.663014</ele>
        <time>2017-06-03T13:29:33.000Z</time>
      </trkpt>
      <trkpt lat="45.309402" lon="5.640008">
        <ele>470.675169</ele>
        <time>2017-06-03T13:29:35.000Z</time>
      </trkpt>
      <trkpt lat="45.309310" lon="5.639903">
        <ele>469.422019</ele>
        <time>2017-06-03T13:29:38.000Z</time>
      </trkpt>
      <trkpt lat="45.309210" lon="5.639793">
        <ele>468.078998</ele>
        <time>2017-06-03T13:29:41.000Z</time>
      </trkpt>
      <trkpt lat="45.309120" lon="5.639668">
        <ele>466.742568</ele>
        <time>2017-06-03T13:29:44.000Z</time>
      </trkpt>
      <trkpt lat="45.309036" lon="5.639565">
        <ele>465.564308</ele>
        <time>2017-06-03T13:29:46.000Z</time>
      </trkpt>
      <trkpt lat="45.308960" lon="5.639445">
        <ele>464.357891</ele>
        <time>2017-06-03T13:29:48.000Z</time>
      </trkpt>
      <trkpt lat="45.308890" lon="5.639328">
        <ele>463.210322</ele>
        <time>2017-06-03T13:29:50.000Z</time>
      </trkpt>
      <trkpt lat="45.308826" lon="5.639210">
        <ele>462.097078</ele>
        <time>2017-06-03T13:29:52.000Z</time>
      </trkpt>
      <trkpt lat="45.308760" lon="5.639107">
        <ele>461.056101</ele>
        <time>2017-06-03T13:29:54.000Z</time>
      </trkpt>
      <trkpt lat="45.308704" lon="5.639006">
        <ele>460.095267</ele>
        <time>2017-06-03T13:29:56.000Z</time>
      </trkpt>
      <trkpt lat="45.308643" lon="5.638907">
        <ele>459.267570</ele>
        <time>2017-06-03T13:29:58.000Z</time>
      </trkpt>
      <trkpt lat="45.308560" lon="5.638766">
        <ele>458.140726</ele>
        <time>2017-06-03T13:30:01.000Z</time>
      </trkpt>
      <trkpt lat="45.308490" lon="5.638677">
        <ele>457.322458</ele>
        <time>2017-06-03T13:30:03.000Z</time>
      </trkpt>
      <trkpt lat="45.308426" lon="5.638588">
        <ele>456.542385</ele>
        <time>2017-06-03T13:30:05.000Z</time>
      </trkpt>
      <trkpt lat="45.308342" lon="5.638476">
        <ele>455.538939</ele>
        <time>2017-06-03T13:30:07.000Z</time>
      </trkpt>
      <trkpt lat="45.308258" lon="5.638352">
        <ele>454.483824</ele>
        <time>2017-06-03T13:30:09.000Z</time>
      </trkpt>
      <trkpt lat="45.308180" lon="5.638231">
        <ele>453.477912</ele>
        <time>2017-06-03T13:30:11.000Z</time>
      </trkpt>
      <trkpt lat="45.308110" lon="5.638103">
        <ele>452.484222</ele>
        <time>2017-06-03T13:30:13.000Z</time>
      </trkpt>
      <trkpt lat="45.308050" lon="5.637978">
        <ele>451.556751</ele>
        <time>2017-06-03T13:30:15.000Z</time>
      </trkpt>
      <trkpt lat="45.307990" lon="5.637853">
        <ele>450.629279</ele>
        <time>2017-06-03T13:30:17.000Z</time>
      </trkpt>
      <trkpt lat="45.307926" lon="5.637732">
        <ele>449.701427</ele>
        <time>2017-06-03T13:30:19.000Z</time>
      </trkpt>
      <trkpt lat="45.307850" lon="5.637638">
        <ele>448.823673</ele>
        <time>2017-06-03T13:30:21.000Z</time>
      </trkpt>
      <trkpt lat="45.307755" lon="5.637550">
        <ele>447.835673</ele>
        <time>2017-06-03T13:30:23.000Z</time>
      </trkpt>
      <trkpt lat="45.307663" lon="5.637469">
        <ele>446.892743</ele>
        <time>2017-06-03T13:30:25.000Z</time>
      </trkpt>
      <trkpt lat="45.307568" lon="5.637405">
        <ele>445.976701</ele>
        <time>2017-06-03T13:30:27.000Z</time>
      </trkpt>
      <trkpt lat="45.307470" lon="5.637347">
        <ele>445.051712</ele>
        <time>2017-06-03T13:30:29.000Z</time>
      </trkpt>
      <trkpt lat="45.307377" lon="5.637299">
        <ele>444.207254</ele>
        <time>2017-06-03T13:30:31.000Z</time>
      </trkpt>
      <trkpt lat="45.307290" lon="5.637260">
        <ele>443.534378</ele>
        <time>2017-06-03T13:30:33.000Z</time>
      </trkpt>
      <trkpt lat="45.307163" lon="5.637200">
        <ele>442.547229</ele>
        <time>2017-06-03T13:30:36.000Z</time>
      </trkpt>
      <trkpt lat="45.307080" lon="5.637161">
        <ele>441.902432</ele>
        <time>2017-06-03T13:30:38.000Z</time>
      </trkpt>
      <trkpt lat="45.306990" lon="5.637125">
        <ele>441.212795</ele>
        <time>2017-06-03T13:30:40.000Z</time>
      </trkpt>
      <trkpt lat="45.306900" lon="5.637088">
        <ele>440.521735</ele>
        <time>2017-06-03T13:30:42.000Z</time>
      </trkpt>
      <trkpt lat="45.306812" lon="5.637047">
        <ele>439.838661</ele>
        <time>2017-06-03T13:30:44.000Z</time>
      </trkpt>
      <trkpt lat="45.306686" lon="5.636988">
        <ele>438.860144</ele>
        <time>2017-06-03T13:30:47.000Z</time>
      </trkpt>
      <trkpt lat="45.306600" lon="5.636928">
        <ele>438.153529</ele>
        <time>2017-06-03T13:30:49.000Z</time>
      </trkpt>
      <trkpt lat="45.306507" lon="5.636838">
        <ele>437.323715</ele>
        <time>2017-06-03T13:30:51.000Z</time>
      </trkpt>
      <trkpt lat="45.306446" lon="5.636704">
        <ele>436.495631</ele>
        <time>2017-06-03T13:30:53.000Z</time>
      </trkpt>
      <trkpt lat="45.306408" lon="5.636568">
        <ele>435.736442</ele>
        <time>2017-06-03T13:30:55.000Z</time>
      </trkpt>
      <trkpt lat="45.306320" lon="5.636416">
        <ele>434.715086</ele>
        <time>2017-06-03T13:30:58.000Z</time>
      </trkpt>
      <trkpt lat="45.306220" lon="5.636343">
        <ele>433.885916</ele>
        <time>2017-06-03T13:31:00.000Z</time>
      </trkpt>
      <trkpt lat="45.306120" lon="5.636287">
        <ele>433.093136</ele>
        <time>2017-06-03T13:31:02.000Z</time>
      </trkpt>
      <trkpt lat="45.306015" lon="5.636272">
        <ele>432.314725</ele>
        <time>2017-06-03T13:31:04.000Z</time>
      </trkpt>
      <trkpt lat="45.305920" lon="5.636275">
        <ele>431.613804</ele>
        <time>2017-06-03T13:31:06.000Z</time>
      </trkpt>
      <trkpt lat="45.305817" lon="5.636299">
        <ele>430.876708</ele>
        <time>2017-06-03T13:31:08.000Z</time>
      </trkpt>
      <trkpt lat="45.305725" lon="5.636311">
        <ele>430.310746</ele>
        <time>2017-06-03T13:31:10.000Z</time>
      </trkpt>
      <trkpt lat="45.305634" lon="5.636326">
        <ele>429.749543</ele>
        <time>2017-06-03T13:31:12.000Z</time>
      </trkpt>
      <trkpt lat="45.305534" lon="5.636308">
        <ele>429.132049</ele>
        <time>2017-06-03T13:31:14.000Z</time>
      </trkpt>
      <trkpt lat="45.305440" lon="5.636263">
        <ele>428.524437</ele>
        <time>2017-06-03T13:31:16.000Z</time>
      </trkpt>
      <trkpt lat="45.305340" lon="5.636207">
        <ele>427.866030</ele>
        <time>2017-06-03T13:31:18.000Z</time>
      </trkpt>
      <trkpt lat="45.305244" lon="5.636133">
        <ele>427.197062</ele>
        <time>2017-06-03T13:31:20.000Z</time>
      </trkpt>
      <trkpt lat="45.305153" lon="5.636078">
        <ele>426.591315</ele>
        <time>2017-06-03T13:31:22.000Z</time>
      </trkpt>
      <trkpt lat="45.305058" lon="5.636041">
        <ele>425.987902</ele>
        <time>2017-06-03T13:31:24.000Z</time>
      </trkpt>
      <trkpt lat="45.304955" lon="5.636031">
        <ele>425.355451</ele>
        <time>2017-06-03T13:31:26.000Z</time>
      </trkpt>
      <trkpt lat="45.304848" lon="5.636026">
        <ele>424.699611</ele>
        <time>2017-06-03T13:31:28.000Z</time>
      </trkpt>
      <trkpt lat="45.304756" lon="5.636035">
        <ele>424.134683</ele>
        <time>2017-06-03T13:31:30.000Z</time>
      </trkpt>
      <trkpt lat="45.304660" lon="5.636027">
        <ele>423.545575</ele>
        <time>2017-06-03T13:31:32.000Z</time>
      </trkpt>
      <trkpt lat="45.304560" lon="5.636035">
        <ele>422.932002</ele>
        <time>2017-06-03T13:31:34.000Z</time>
      </trkpt>
      <trkpt lat="45.304455" lon="5.636023">
        <ele>422.286693</ele>
        <time>2017-06-03T13:31:36.000Z</time>
      </trkpt>
      <trkpt lat="45.304356" lon="5.636004">
        <ele>421.674716</ele>
        <time>2017-06-03T13:31:38.000Z</time>
      </trkpt>
      <trkpt lat="45.304256" lon="5.635946">
        <ele>421.013100</ele>
        <time>2017-06-03T13:31:40.000Z</time>
      </trkpt>
      <trkpt lat="45.304165" lon="5.635862">
        <ele>420.348445</ele>
        <time>2017-06-03T13:31:42.000Z</time>
      </trkpt>
      <trkpt lat="45.304080" lon="5.635777">
        <ele>419.564009</ele>
        <time>2017-06-03T13:31:44.000Z</time>
      </trkpt>
      <trkpt lat="45.304005" lon="5.635681">
        <ele>418.648130</ele>
        <time>2017-06-03T13:31:46.000Z</time>
      </trkpt>
      <trkpt lat="45.303940" lon="5.635585">
        <ele>417.797530</ele>
        <time>2017-06-03T13:31:48.000Z</time>
      </trkpt>
      <trkpt lat="45.303870" lon="5.635487">
        <ele>416.905942</ele>
        <time>2017-06-03T13:31:50.000Z</time>
      </trkpt>
      <trkpt lat="45.303770" lon="5.635395">
        <ele>415.824947</ele>
        <time>2017-06-03T13:31:52.000Z</time>
      </trkpt>
      <trkpt lat="45.303654" lon="5.635347">
        <ele>414.728493</ele>
        <time>2017-06-03T13:31:54.000Z</time>
      </trkpt>
      <trkpt lat="45.303543" lon="5.635329">
        <ele>413.714567</ele>
        <time>2017-06-03T13:31:56.000Z</time>
      </trkpt>
      <trkpt lat="45.303436" lon="5.635302">
        <ele>412.728299</ele>
        <time>2017-06-03T13:31:58.000Z</time>
      </trkpt>
      <trkpt lat="45.303330" lon="5.635278">
        <ele>411.754160</ele>
        <time>2017-06-03T13:32:00.000Z</time>
      </trkpt>
      <trkpt lat="45.303215" lon="5.635285">
        <ele>410.709507</ele>
        <time>2017-06-03T13:32:02.000Z</time>
      </trkpt>
      <trkpt lat="45.303110" lon="5.635311">
        <ele>409.742221</ele>
        <time>2017-06-03T13:32:04.000Z</time>
      </trkpt>
      <trkpt lat="45.303010" lon="5.635331">
        <ele>408.825722</ele>
        <time>2017-06-03T13:32:06.000Z</time>
      </trkpt>
      <trkpt lat="45.302902" lon="5.635355">
        <ele>407.833654</ele>
        <time>2017-06-03T13:32:08.000Z</time>
      </trkpt>
      <trkpt lat="45.302800" lon="5.635377">
        <ele>406.897348</ele>
        <time>2017-06-03T13:32:10.000Z</time>
      </trkpt>
      <trkpt lat="45.302685" lon="5.635404">
        <ele>405.839516</ele>
        <time>2017-06-03T13:32:12.000Z</time>
      </trkpt>
      <trkpt lat="45.302550" lon="5.635411">
        <ele>404.613491</ele>
        <time>2017-06-03T13:32:14.000Z</time>
      </trkpt>
      <trkpt lat="45.302425" lon="5.635387">
        <ele>403.447358</ele>
        <time>2017-06-03T13:32:16.000Z</time>
      </trkpt>
      <trkpt lat="45.302296" lon="5.635330">
        <ele>402.105521</ele>
        <time>2017-06-03T13:32:18.000Z</time>
      </trkpt>
      <trkpt lat="45.302174" lon="5.635274">
        <ele>400.832081</ele>
        <time>2017-06-03T13:32:20.000Z</time>
      </trkpt>
      <trkpt lat="45.302050" lon="5.635223">
        <ele>399.549864</ele>
        <time>2017-06-03T13:32:22.000Z</time>
      </trkpt>
      <trkpt lat="45.301940" lon="5.635186">
        <ele>398.427053</ele>
        <time>2017-06-03T13:32:24.000Z</time>
      </trkpt>
      <trkpt lat="45.301826" lon="5.635154">
        <ele>397.272812</ele>
        <time>2017-06-03T13:32:26.000Z</time>
      </trkpt>
      <trkpt lat="45.301704" lon="5.635130">
        <ele>396.049420</ele>
        <time>2017-06-03T13:32:28.000Z</time>
      </trkpt>
      <trkpt lat="45.301590" lon="5.635111">
        <ele>394.909284</ele>
        <time>2017-06-03T13:32:30.000Z</time>
      </trkpt>
      <trkpt lat="45.301480" lon="5.635099">
        <ele>393.813424</ele>
        <time>2017-06-03T13:32:32.000Z</time>
      </trkpt>
      <trkpt lat="45.301376" lon="5.635072">
        <ele>392.763293</ele>
        <time>2017-06-03T13:32:34.000Z</time>
      </trkpt>
      <trkpt lat="45.301273" lon="5.635031">
        <ele>391.700831</ele>
        <time>2017-06-03T13:32:36.000Z</time>
      </trkpt>
      <trkpt lat="45.301167" lon="5.634976">
        <ele>390.579985</ele>
        <time>2017-06-03T13:32:38.000Z</time>
      </trkpt>
      <trkpt lat="45.301075" lon="5.634907">
        <ele>389.546769</ele>
        <time>2017-06-03T13:32:40.000Z</time>
      </trkpt>
      <trkpt lat="45.300980" lon="5.634830">
        <ele>388.460536</ele>
        <time>2017-06-03T13:32:42.000Z</time>
      </trkpt>
      <trkpt lat="45.300900" lon="5.634761">
        <ele>387.531081</ele>
        <time>2017-06-03T13:32:44.000Z</time>
      </trkpt>
      <trkpt lat="45.300790" lon="5.634714">
        <ele>386.390154</ele>
        <time>2017-06-03T13:32:47.000Z</time>
      </trkpt>
      <trkpt lat="45.300686" lon="5.634777">
        <ele>385.626770</ele>
        <time>2017-06-03T13:32:50.000Z</time>
      </trkpt>
      <trkpt lat="45.300644" lon="5.634924">
        <ele>385.227927</ele>
        <time>2017-06-03T13:32:54.000Z</time>
      </trkpt>
      <trkpt lat="45.300697" lon="5.635037">
        <ele>384.886513</ele>
        <time>2017-06-03T13:32:57.000Z</time>
      </trkpt>
      <trkpt lat="45.300823" lon="5.635112">
        <ele>384.398342</ele>
        <time>2017-06-03T13:33:00.000Z</time>
      </trkpt>
      <trkpt lat="45.300920" lon="5.635156">
        <ele>384.034468</ele>
        <time>2017-06-03T13:33:02.000Z</time>
      </trkpt>
      <trkpt lat="45.301020" lon="5.635193">
        <ele>383.665185</ele>
        <time>2017-06-03T13:33:04.000Z</time>
      </trkpt>
      <trkpt lat="45.301113" lon="5.635243">
        <ele>383.309851</ele>
        <time>2017-06-03T13:33:06.000Z</time>
      </trkpt>
      <trkpt lat="45.301216" lon="5.635290">
        <ele>382.923256</ele>
        <time>2017-06-03T13:33:08.000Z</time>
      </trkpt>
      <trkpt lat="45.301310" lon="5.635348">
        <ele>382.557047</ele>
        <time>2017-06-03T13:33:10.000Z</time>
      </trkpt>
      <trkpt lat="45.301388" lon="5.635421">
        <ele>382.223314</ele>
        <time>2017-06-03T13:33:12.000Z</time>
      </trkpt>
      <trkpt lat="45.301468" lon="5.635486">
        <ele>381.894016</ele>
        <time>2017-06-03T13:33:14.000Z</time>
      </trkpt>
      <trkpt lat="45.301548" lon="5.635593">
        <ele>381.501481</ele>
        <time>2017-06-03T13:33:17.000Z</time>
      </trkpt>
      <trkpt lat="45.301643" lon="5.635708">
        <ele>381.055575</ele>
        <time>2017-06-03T13:33:20.000Z</time>
      </trkpt>
      <trkpt lat="45.301743" lon="5.635822">
        <ele>380.597495</ele>
        <time>2017-06-03T13:33:23.000Z</time>
      </trkpt>
      <trkpt lat="45.301838" lon="5.635942">
        <ele>380.143341</ele>
        <time>2017-06-03T13:33:26.000Z</time>
      </trkpt>
      <trkpt lat="45.301940" lon="5.636057">
        <ele>379.678105</ele>
        <time>2017-06-03T13:33:29.000Z</time>
      </trkpt>
      <trkpt lat="45.302025" lon="5.636110">
        <ele>379.304170</ele>
        <time>2017-06-03T13:33:31.000Z</time>
      </trkpt>
      <trkpt lat="45.302150" lon="5.636171">
        <ele>378.465520</ele>
        <time>2017-06-03T13:33:34.000Z</time>
      </trkpt>
      <trkpt lat="45.302242" lon="5.636200">
        <ele>377.867531</ele>
        <time>2017-06-03T13:33:36.000Z</time>
      </trkpt>
      <trkpt lat="45.302357" lon="5.636214">
        <ele>377.135095</ele>
        <time>2017-06-03T13:33:38.000Z</time>
      </trkpt>
      <trkpt lat="45.302464" lon="5.636221">
        <ele>376.455377</ele>
        <time>2017-06-03T13:33:40.000Z</time>
      </trkpt>
      <trkpt lat="45.302567" lon="5.636241">
        <ele>375.795694</ele>
        <time>2017-06-03T13:33:42.000Z</time>
      </trkpt>
      <trkpt lat="45.302673" lon="5.636305">
        <ele>375.064898</ele>
        <time>2017-06-03T13:33:45.000Z</time>
      </trkpt>
      <trkpt lat="45.302750" lon="5.636474">
        <ele>374.166154</ele>
        <time>2017-06-03T13:33:48.000Z</time>
      </trkpt>
      <trkpt lat="45.302780" lon="5.636654">
        <ele>373.340500</ele>
        <time>2017-06-03T13:33:50.000Z</time>
      </trkpt>
      <trkpt lat="45.302807" lon="5.636829">
        <ele>372.540839</ele>
        <time>2017-06-03T13:33:52.000Z</time>
      </trkpt>
      <trkpt lat="45.302868" lon="5.636986">
        <ele>371.740283</ele>
        <time>2017-06-03T13:33:54.000Z</time>
      </trkpt>
      <trkpt lat="45.302950" lon="5.637122">
        <ele>370.940758</ele>
        <time>2017-06-03T13:33:56.000Z</time>
      </trkpt>
      <trkpt lat="45.303030" lon="5.637245">
        <ele>370.193018</ele>
        <time>2017-06-03T13:33:58.000Z</time>
      </trkpt>
      <trkpt lat="45.303097" lon="5.637376">
        <ele>369.470080</ele>
        <time>2017-06-03T13:34:00.000Z</time>
      </trkpt>
      <trkpt lat="45.303140" lon="5.637538">
        <ele>368.697243</ele>
        <time>2017-06-03T13:34:02.000Z</time>
      </trkpt>
      <trkpt lat="45.303170" lon="5.637703">
        <ele>367.923108</ele>
        <time>2017-06-03T13:34:04.000Z</time>
      </trkpt>
      <trkpt lat="45.303185" lon="5.637862">
        <ele>367.015878</ele>
        <time>2017-06-03T13:34:06.000Z</time>
      </trkpt>
      <trkpt lat="45.303204" lon="5.638012">
        <ele>366.153952</ele>
        <time>2017-06-03T13:34:08.000Z</time>
      </trkpt>
      <trkpt lat="45.303210" lon="5.638160">
        <ele>365.315592</ele>
        <time>2017-06-03T13:34:10.000Z</time>
      </trkpt>
      <trkpt lat="45.303207" lon="5.638310">
        <ele>364.466969</ele>
        <time>2017-06-03T13:34:12.000Z</time>
      </trkpt>
      <trkpt lat="45.303207" lon="5.638450">
        <ele>363.675241</ele>
        <time>2017-06-03T13:34:14.000Z</time>
      </trkpt>
      <trkpt lat="45.303234" lon="5.638605">
        <ele>362.772203</ele>
        <time>2017-06-03T13:34:17.000Z</time>
      </trkpt>
      <trkpt lat="45.303326" lon="5.638741">
        <ele>361.705106</ele>
        <time>2017-06-03T13:34:20.000Z</time>
      </trkpt>
      <trkpt lat="45.303413" lon="5.638788">
        <ele>360.956802</ele>
        <time>2017-06-03T13:34:22.000Z</time>
      </trkpt>
      <trkpt lat="45.303505" lon="5.638825">
        <ele>360.188068</ele>
        <time>2017-06-03T13:34:24.000Z</time>
      </trkpt>
      <trkpt lat="45.303600" lon="5.638841">
        <ele>359.418896</ele>
        <time>2017-06-03T13:34:26.000Z</time>
      </trkpt>
      <trkpt lat="45.303677" lon="5.638960">
        <ele>358.504472</ele>
        <time>2017-06-03T13:34:29.000Z</time>
      </trkpt>
      <trkpt lat="45.303630" lon="5.639134">
        <ele>357.450406</ele>
        <time>2017-06-03T13:34:32.000Z</time>
      </trkpt>
      <trkpt lat="45.303547" lon="5.639192">
        <ele>356.706809</ele>
        <time>2017-06-03T13:34:34.000Z</time>
      </trkpt>
      <trkpt lat="45.303440" lon="5.639171">
        <ele>355.838336</ele>
        <time>2017-06-03T13:34:36.000Z</time>
      </trkpt>
      <trkpt lat="45.303340" lon="5.639087">
        <ele>354.904459</ele>
        <time>2017-06-03T13:34:38.000Z</time>
      </trkpt>
      <trkpt lat="45.303250" lon="5.638991">
        <ele>353.999816</ele>
        <time>2017-06-03T13:34:40.000Z</time>
      </trkpt>
      <trkpt lat="45.303165" lon="5.638898">
        <ele>353.147805</ele>
        <time>2017-06-03T13:34:42.000Z</time>
      </trkpt>
      <trkpt lat="45.303090" lon="5.638802">
        <ele>352.358064</ele>
        <time>2017-06-03T13:34:44.000Z</time>
      </trkpt>
      <trkpt lat="45.302986" lon="5.638757">
        <ele>351.507340</ele>
        <time>2017-06-03T13:34:46.000Z</time>
      </trkpt>
      <trkpt lat="45.302880" lon="5.638722">
        <ele>350.655745</ele>
        <time>2017-06-03T13:34:48.000Z</time>
      </trkpt>
      <trkpt lat="45.302770" lon="5.638674">
        <ele>349.755291</ele>
        <time>2017-06-03T13:34:50.000Z</time>
      </trkpt>
      <trkpt lat="45.302670" lon="5.638624">
        <ele>348.925743</ele>
        <time>2017-06-03T13:34:52.000Z</time>
      </trkpt>
      <trkpt lat="45.302560" lon="5.638586">
        <ele>348.039875</ele>
        <time>2017-06-03T13:34:54.000Z</time>
      </trkpt>
      <trkpt lat="45.302444" lon="5.638553">
        <ele>347.114105</ele>
        <time>2017-06-03T13:34:56.000Z</time>
      </trkpt>
      <trkpt lat="45.302338" lon="5.638507">
        <ele>346.246805</ele>
        <time>2017-06-03T13:34:58.000Z</time>
      </trkpt>
      <trkpt lat="45.302220" lon="5.638461">
        <ele>345.289295</ele>
        <time>2017-06-03T13:35:00.000Z</time>
      </trkpt>
      <trkpt lat="45.302094" lon="5.638414">
        <ele>344.269890</ele>
        <time>2017-06-03T13:35:02.000Z</time>
      </trkpt>
      <trkpt lat="45.301970" lon="5.638364">
        <ele>343.261237</ele>
        <time>2017-06-03T13:35:04.000Z</time>
      </trkpt>
      <trkpt lat="45.301853" lon="5.638322">
        <ele>342.316901</ele>
        <time>2017-06-03T13:35:06.000Z</time>
      </trkpt>
      <trkpt lat="45.301730" lon="5.638293">
        <ele>341.341200</ele>
        <time>2017-06-03T13:35:08.000Z</time>
      </trkpt>
      <trkpt lat="45.301617" lon="5.638269">
        <ele>340.447089</ele>
        <time>2017-06-03T13:35:10.000Z</time>
      </trkpt>
      <trkpt lat="45.301514" lon="5.638237">
        <ele>339.622026</ele>
        <time>2017-06-03T13:35:12.000Z</time>
      </trkpt>
      <trkpt lat="45.301407" lon="5.638206">
        <ele>338.718235</ele>
        <time>2017-06-03T13:35:14.000Z</time>
      </trkpt>
      <trkpt lat="45.301304" lon="5.638186">
        <ele>337.846008</ele>
        <time>2017-06-03T13:35:16.000Z</time>
      </trkpt>
      <trkpt lat="45.301205" lon="5.638170">
        <ele>337.010015</ele>
        <time>2017-06-03T13:35:18.000Z</time>
      </trkpt>
      <trkpt lat="45.301110" lon="5.638156">
        <ele>336.208662</ele>
        <time>2017-06-03T13:35:20.000Z</time>
      </trkpt>
      <trkpt lat="45.301006" lon="5.638149">
        <ele>335.335090</ele>
        <time>2017-06-03T13:35:22.000Z</time>
      </trkpt>
      <trkpt lat="45.300890" lon="5.638137">
        <ele>334.359238</ele>
        <time>2017-06-03T13:35:24.000Z</time>
      </trkpt>
      <trkpt lat="45.300774" lon="5.638122">
        <ele>333.381942</ele>
        <time>2017-06-03T13:35:26.000Z</time>
      </trkpt>
      <trkpt lat="45.300663" lon="5.638111">
        <ele>332.448355</ele>
        <time>2017-06-03T13:35:28.000Z</time>
      </trkpt>
      <trkpt lat="45.300560" lon="5.638087">
        <ele>331.572620</ele>
        <time>2017-06-03T13:35:30.000Z</time>
      </trkpt>
      <trkpt lat="45.300465" lon="5.638060">
        <ele>330.759767</ele>
        <time>2017-06-03T13:35:32.000Z</time>
      </trkpt>
      <trkpt lat="45.300365" lon="5.638032">
        <ele>329.904616</ele>
        <time>2017-06-03T13:35:34.000Z</time>
      </trkpt>
      <trkpt lat="45.300262" lon="5.638031">
        <ele>329.040391</ele>
        <time>2017-06-03T13:35:36.000Z</time>
      </trkpt>
      <trkpt lat="45.300170" lon="5.638020">
        <ele>328.265755</ele>
        <time>2017-06-03T13:35:38.000Z</time>
      </trkpt>
      <trkpt lat="45.300068" lon="5.638021">
        <ele>327.409921</ele>
        <time>2017-06-03T13:35:40.000Z</time>
      </trkpt>
      <trkpt lat="45.299960" lon="5.638036">
        <ele>326.499451</ele>
        <time>2017-06-03T13:35:42.000Z</time>
      </trkpt>
      <trkpt lat="45.299854" lon="5.638060">
        <ele>325.598867</ele>
        <time>2017-06-03T13:35:44.000Z</time>
      </trkpt>
      <trkpt lat="45.299744" lon="5.638091">
        <ele>324.657971</ele>
        <time>2017-06-03T13:35:46.000Z</time>
      </trkpt>
      <trkpt lat="45.299637" lon="5.638103">
        <ele>323.549948</ele>
        <time>2017-06-03T13:35:48.000Z</time>
      </trkpt>
      <trkpt lat="45.299534" lon="5.638120">
        <ele>322.379701</ele>
        <time>2017-06-03T13:35:50.000Z</time>
      </trkpt>
      <trkpt lat="45.299423" lon="5.638126">
        <ele>321.126069</ele>
        <time>2017-06-03T13:35:52.000Z</time>
      </trkpt>
      <trkpt lat="45.299310" lon="5.638110">
        <ele>319.844460</ele>
        <time>2017-06-03T13:35:54.000Z</time>
      </trkpt>
      <trkpt lat="45.299194" lon="5.638094">
        <ele>318.529157</ele>
        <time>2017-06-03T13:35:56.000Z</time>
      </trkpt>
      <trkpt lat="45.299088" lon="5.638084">
        <ele>317.330228</ele>
        <time>2017-06-03T13:35:58.000Z</time>
      </trkpt>
      <trkpt lat="45.298990" lon="5.638074">
        <ele>316.221372</ele>
        <time>2017-06-03T13:36:00.000Z</time>
      </trkpt>
      <trkpt lat="45.298890" lon="5.638050">
        <ele>315.076820</ele>
        <time>2017-06-03T13:36:02.000Z</time>
      </trkpt>
      <trkpt lat="45.298794" lon="5.637991">
        <ele>313.896474</ele>
        <time>2017-06-03T13:36:04.000Z</time>
      </trkpt>
      <trkpt lat="45.298720" lon="5.637906">
        <ele>312.822788</ele>
        <time>2017-06-03T13:36:06.000Z</time>
      </trkpt>
      <trkpt lat="45.298650" lon="5.637777">
        <ele>311.529403</ele>
        <time>2017-06-03T13:36:09.000Z</time>
      </trkpt>
      <trkpt lat="45.298584" lon="5.637647">
        <ele>310.256657</ele>
        <time>2017-06-03T13:36:12.000Z</time>
      </trkpt>
      <trkpt lat="45.298534" lon="5.637538">
        <ele>309.223613</ele>
        <time>2017-06-03T13:36:14.000Z</time>
      </trkpt>
      <trkpt lat="45.298443" lon="5.637341">
        <ele>307.352638</ele>
        <time>2017-06-03T13:36:17.000Z</time>
      </trkpt>
      <trkpt lat="45.298363" lon="5.637194">
        <ele>305.877171</ele>
        <time>2017-06-03T13:36:19.000Z</time>
      </trkpt>
      <trkpt lat="45.298300" lon="5.637040">
        <ele>304.462903</ele>
        <time>2017-06-03T13:36:21.000Z</time>
      </trkpt>
      <trkpt lat="45.298256" lon="5.636912">
        <ele>303.759443</ele>
        <time>2017-06-03T13:36:23.000Z</time>
      </trkpt>
      <trkpt lat="45.298203" lon="5.636807">
        <ele>303.336399</ele>
        <time>2017-06-03T13:36:25.000Z</time>
      </trkpt>
      <trkpt lat="45.298150" lon="5.636654">
        <ele>302.778131</ele>
        <time>2017-06-03T13:36:28.000Z</time>
      </trkpt>
      <trkpt lat="45.298122" lon="5.636519">
        <ele>302.317411</ele>
        <time>2017-06-03T13:36:35.000Z</time>
      </trkpt>
      <trkpt lat="45.298084" lon="5.636386">
        <ele>301.847505</ele>
        <time>2017-06-03T13:36:38.000Z</time>
      </trkpt>
      <trkpt lat="45.298004" lon="5.636300">
        <ele>301.380764</ele>
        <time>2017-06-03T13:36:41.000Z</time>
      </trkpt>
      <trkpt lat="45.297905" lon="5.636328">
        <ele>300.911031</ele>
        <time>2017-06-03T13:36:45.000Z</time>
      </trkpt>
      <trkpt lat="45.297764" lon="5.636384">
        <ele>300.229751</ele>
        <time>2017-06-03T13:38:32.000Z</time>
      </trkpt>
      <trkpt lat="45.297817" lon="5.636493">
        <ele>299.796000</ele>
        <time>2017-06-03T13:38:39.000Z</time>
      </trkpt>
      <trkpt lat="45.297740" lon="5.636587">
        <ele>299.323689</ele>
        <time>2017-06-03T13:38:44.000Z</time>
      </trkpt>
      <trkpt lat="45.297657" lon="5.636696">
        <ele>298.797860</ele>
        <time>2017-06-03T13:38:49.000Z</time>
      </trkpt>
      <trkpt lat="45.297585" lon="5.636796">
        <ele>298.329440</ele>
        <time>2017-06-03T13:38:53.000Z</time>
      </trkpt>
      <trkpt lat="45.297510" lon="5.636915">
        <ele>297.806415</ele>
        <time>2017-06-03T13:38:58.000Z</time>
      </trkpt>
      <trkpt lat="45.297447" lon="5.637017">
        <ele>297.362078</ele>
        <time>2017-06-03T13:39:02.000Z</time>
      </trkpt>
      <trkpt lat="45.297350" lon="5.637100">
        <ele>296.835221</ele>
        <time>2017-06-03T13:39:07.000Z</time>
      </trkpt>
      <trkpt lat="45.297253" lon="5.637140">
        <ele>296.365217</ele>
        <time>2017-06-03T13:39:11.000Z</time>
      </trkpt>
      <trkpt lat="45.297165" lon="5.637172">
        <ele>295.942517</ele>
        <time>2017-06-03T13:39:15.000Z</time>
      </trkpt>
      <trkpt lat="45.297066" lon="5.637200">
        <ele>295.476551</ele>
        <time>2017-06-03T13:39:20.000Z</time>
      </trkpt>
      <trkpt lat="45.296970" lon="5.637254">
        <ele>295.004466</ele>
        <time>2017-06-03T13:39:25.000Z</time>
      </trkpt>
      <trkpt lat="45.296870" lon="5.637305">
        <ele>294.518670</ele>
        <time>2017-06-03T13:39:31.000Z</time>
      </trkpt>
      <trkpt lat="45.296783" lon="5.637333">
        <ele>294.110786</ele>
        <time>2017-06-03T13:39:37.000Z</time>
      </trkpt>
      <trkpt lat="45.296696" lon="5.637381">
        <ele>293.684059</ele>
        <time>2017-06-03T13:39:44.000Z</time>
      </trkpt>
      <trkpt lat="45.296560" lon="5.637399">
        <ele>293.059495</ele>
        <time>2017-06-03T13:40:12.000Z</time>
      </trkpt>
      <trkpt lat="45.296450" lon="5.637458">
        <ele>292.521898</ele>
        <time>2017-06-03T13:40:16.000Z</time>
      </trkpt>
      <trkpt lat="45.296360" lon="5.637512">
        <ele>292.075209</ele>
        <time>2017-06-03T13:40:19.000Z</time>
      </trkpt>
      <trkpt lat="45.296276" lon="5.637561">
        <ele>291.660031</ele>
        <time>2017-06-03T13:40:22.000Z</time>
      </trkpt>
      <trkpt lat="45.296180" lon="5.637608">
        <ele>291.195757</ele>
        <time>2017-06-03T13:40:26.000Z</time>
      </trkpt>
      <trkpt lat="45.296074" lon="5.637666">
        <ele>290.676396</ele>
        <time>2017-06-03T13:40:30.000Z</time>
      </trkpt>
      <trkpt lat="45.295982" lon="5.637678">
        <ele>290.253949</ele>
        <time>2017-06-03T13:40:34.000Z</time>
      </trkpt>
      <trkpt lat="45.295876" lon="5.637719">
        <ele>289.751631</ele>
        <time>2017-06-03T13:40:39.000Z</time>
      </trkpt>
      <trkpt lat="45.295773" lon="5.637755">
        <ele>289.266626</ele>
        <time>2017-06-03T13:40:42.000Z</time>
      </trkpt>
      <trkpt lat="45.295650" lon="5.637802">
        <ele>288.684231</ele>
        <time>2017-06-03T13:40:45.000Z</time>
      </trkpt>
      <trkpt lat="45.295520" lon="5.637845">
        <ele>288.073913</ele>
        <time>2017-06-03T13:40:48.000Z</time>
      </trkpt>
      <trkpt lat="45.295400" lon="5.637881">
        <ele>287.513114</ele>
        <time>2017-06-03T13:40:51.000Z</time>
      </trkpt>
      <trkpt lat="45.295284" lon="5.637920">
        <ele>286.751537</ele>
        <time>2017-06-03T13:40:54.000Z</time>
      </trkpt>
      <trkpt lat="45.295174" lon="5.637967">
        <ele>285.997391</ele>
        <time>2017-06-03T13:40:57.000Z</time>
      </trkpt>
      <trkpt lat="45.295055" lon="5.638034">
        <ele>285.157021</ele>
        <time>2017-06-03T13:41:00.000Z</time>
      </trkpt>
      <trkpt lat="45.294970" lon="5.638087">
        <ele>284.547610</ele>
        <time>2017-06-03T13:41:02.000Z</time>
      </trkpt>
      <trkpt lat="45.294884" lon="5.638148">
        <ele>283.916572</ele>
        <time>2017-06-03T13:41:04.000Z</time>
      </trkpt>
      <trkpt lat="45.294790" lon="5.638197">
        <ele>283.259209</ele>
        <time>2017-06-03T13:41:06.000Z</time>
      </trkpt>
      <trkpt lat="45.294697" lon="5.638252">
        <ele>282.597864</ele>
        <time>2017-06-03T13:41:08.000Z</time>
      </trkpt>
      <trkpt lat="45.294600" lon="5.638301">
        <ele>281.921973</ele>
        <time>2017-06-03T13:41:10.000Z</time>
      </trkpt>
      <trkpt lat="45.294510" lon="5.638351">
        <ele>281.287535</ele>
        <time>2017-06-03T13:41:12.000Z</time>
      </trkpt>
      <trkpt lat="45.294420" lon="5.638404">
        <ele>280.647924</ele>
        <time>2017-06-03T13:41:14.000Z</time>
      </trkpt>
      <trkpt lat="45.294330" lon="5.638461">
        <ele>280.001016</ele>
        <time>2017-06-03T13:41:16.000Z</time>
      </trkpt>
      <trkpt lat="45.294228" lon="5.638519">
        <ele>279.279721</ele>
        <time>2017-06-03T13:41:18.000Z</time>
      </trkpt>
      <trkpt lat="45.294120" lon="5.638573">
        <ele>278.528040</ele>
        <time>2017-06-03T13:41:20.000Z</time>
      </trkpt>
      <trkpt lat="45.294020" lon="5.638631">
        <ele>277.818920</ele>
        <time>2017-06-03T13:41:22.000Z</time>
      </trkpt>
      <trkpt lat="45.293915" lon="5.638698">
        <ele>277.063251</ele>
        <time>2017-06-03T13:41:24.000Z</time>
      </trkpt>
      <trkpt lat="45.293810" lon="5.638754">
        <ele>276.326927</ele>
        <time>2017-06-03T13:41:26.000Z</time>
      </trkpt>
      <trkpt lat="45.293710" lon="5.638812">
        <ele>275.626361</ele>
        <time>2017-06-03T13:41:28.000Z</time>
      </trkpt>
      <trkpt lat="45.293606" lon="5.638869">
        <ele>275.060903</ele>
        <time>2017-06-03T13:41:30.000Z</time>
      </trkpt>
      <trkpt lat="45.293503" lon="5.638924">
        <ele>274.502725</ele>
        <time>2017-06-03T13:41:32.000Z</time>
      </trkpt>
      <trkpt lat="45.293396" lon="5.638991">
        <ele>273.909576</ele>
        <time>2017-06-03T13:41:34.000Z</time>
      </trkpt>
      <trkpt lat="45.293280" lon="5.639051">
        <ele>273.283351</ele>
        <time>2017-06-03T13:41:36.000Z</time>
      </trkpt>
      <trkpt lat="45.293170" lon="5.639116">
        <ele>272.679018</ele>
        <time>2017-06-03T13:41:38.000Z</time>
      </trkpt>
      <trkpt lat="45.293070" lon="5.639185">
        <ele>272.115103</ele>
        <time>2017-06-03T13:41:40.000Z</time>
      </trkpt>
      <trkpt lat="45.292970" lon="5.639247">
        <ele>271.561640</ele>
        <time>2017-06-03T13:41:42.000Z</time>
      </trkpt>
      <trkpt lat="45.292866" lon="5.639305">
        <ele>270.994888</ele>
        <time>2017-06-03T13:41:44.000Z</time>
      </trkpt>
      <trkpt lat="45.292763" lon="5.639365">
        <ele>270.430187</ele>
        <time>2017-06-03T13:41:46.000Z</time>
      </trkpt>
      <trkpt lat="45.292664" lon="5.639417">
        <ele>269.894762</ele>
        <time>2017-06-03T13:41:48.000Z</time>
      </trkpt>
      <trkpt lat="45.292553" lon="5.639480">
        <ele>269.288423</ele>
        <time>2017-06-03T13:41:50.000Z</time>
      </trkpt>
      <trkpt lat="45.292440" lon="5.639544">
        <ele>268.671337</ele>
        <time>2017-06-03T13:41:52.000Z</time>
      </trkpt>
      <trkpt lat="45.292320" lon="5.639614">
        <ele>268.013301</ele>
        <time>2017-06-03T13:41:54.000Z</time>
      </trkpt>
      <trkpt lat="45.292190" lon="5.639706">
        <ele>267.276589</ele>
        <time>2017-06-03T13:41:56.000Z</time>
      </trkpt>
      <trkpt lat="45.292053" lon="5.639792">
        <ele>266.520748</ele>
        <time>2017-06-03T13:41:58.000Z</time>
      </trkpt>
      <trkpt lat="45.291910" lon="5.639873">
        <ele>265.959672</ele>
        <time>2017-06-03T13:42:00.000Z</time>
      </trkpt>
      <trkpt lat="45.291767" lon="5.639955">
        <ele>265.397642</ele>
        <time>2017-06-03T13:42:02.000Z</time>
      </trkpt>
      <trkpt lat="45.291626" lon="5.640035">
        <ele>264.844287</ele>
        <time>2017-06-03T13:42:04.000Z</time>
      </trkpt>
      <trkpt lat="45.291490" lon="5.640115">
        <ele>264.307815</ele>
        <time>2017-06-03T13:42:06.000Z</time>
      </trkpt>
      <trkpt lat="45.291350" lon="5.640202">
        <ele>263.750900</ele>
        <time>2017-06-03T13:42:08.000Z</time>
      </trkpt>
      <trkpt lat="45.291210" lon="5.640284">
        <ele>263.198994</ele>
        <time>2017-06-03T13:42:10.000Z</time>
      </trkpt>
      <trkpt lat="45.291070" lon="5.640357">
        <ele>262.655462</ele>
        <time>2017-06-03T13:42:12.000Z</time>
      </trkpt>
      <trkpt lat="45.290940" lon="5.640439">
        <ele>262.137070</ele>
        <time>2017-06-03T13:42:14.000Z</time>
      </trkpt>
      <trkpt lat="45.290802" lon="5.640507">
        <ele>261.604712</ele>
        <time>2017-06-03T13:42:16.000Z</time>
      </trkpt>
      <trkpt lat="45.290657" lon="5.640588">
        <ele>261.036856</ele>
        <time>2017-06-03T13:42:18.000Z</time>
      </trkpt>
      <trkpt lat="45.290520" lon="5.640670">
        <ele>260.495044</ele>
        <time>2017-06-03T13:42:20.000Z</time>
      </trkpt>
      <trkpt lat="45.290380" lon="5.640759">
        <ele>259.923663</ele>
        <time>2017-06-03T13:42:22.000Z</time>
      </trkpt>
      <trkpt lat="45.290237" lon="5.640846">
        <ele>259.176013</ele>
        <time>2017-06-03T13:42:24.000Z</time>
      </trkpt>
      <trkpt lat="45.290100" lon="5.640922">
        <ele>258.469142</ele>
        <time>2017-06-03T13:42:26.000Z</time>
      </trkpt>
      <trkpt lat="45.289970" lon="5.640995">
        <ele>257.797297</ele>
        <time>2017-06-03T13:42:28.000Z</time>
      </trkpt>
      <trkpt lat="45.289840" lon="5.641068">
        <ele>257.125452</ele>
        <time>2017-06-03T13:42:30.000Z</time>
      </trkpt>
      <trkpt lat="45.289715" lon="5.641134">
        <ele>256.484520</ele>
        <time>2017-06-03T13:42:32.000Z</time>
      </trkpt>
      <trkpt lat="45.289593" lon="5.641203">
        <ele>255.853405</ele>
        <time>2017-06-03T13:42:34.000Z</time>
      </trkpt>
      <trkpt lat="45.289482" lon="5.641276">
        <ele>255.265537</ele>
        <time>2017-06-03T13:42:36.000Z</time>
      </trkpt>
      <trkpt lat="45.289383" lon="5.641338">
        <ele>254.745549</ele>
        <time>2017-06-03T13:42:38.000Z</time>
      </trkpt>
      <trkpt lat="45.289300" lon="5.641394">
        <ele>254.303942</ele>
        <time>2017-06-03T13:42:40.000Z</time>
      </trkpt>
      <trkpt lat="45.289180" lon="5.641478">
        <ele>253.661005</ele>
        <time>2017-06-03T13:42:43.000Z</time>
      </trkpt>
      <trkpt lat="45.289060" lon="5.641554">
        <ele>253.029553</ele>
        <time>2017-06-03T13:42:46.000Z</time>
      </trkpt>
      <trkpt lat="45.288956" lon="5.641617">
        <ele>252.486168</ele>
        <time>2017-06-03T13:42:49.000Z</time>
      </trkpt>
      <trkpt lat="45.288868" lon="5.641658">
        <ele>252.041048</ele>
        <time>2017-06-03T13:42:52.000Z</time>
      </trkpt>
      <trkpt lat="45.288773" lon="5.641712">
        <ele>251.549266</ele>
        <time>2017-06-03T13:42:55.000Z</time>
      </trkpt>
      <trkpt lat="45.288670" lon="5.641766">
        <ele>251.048394</ele>
        <time>2017-06-03T13:42:58.000Z</time>
      </trkpt>
      <trkpt lat="45.288563" lon="5.641826">
        <ele>250.543627</ele>
        <time>2017-06-03T13:43:01.000Z</time>
      </trkpt>
      <trkpt lat="45.288437" lon="5.641909">
        <ele>249.934209</ele>
        <time>2017-06-03T13:43:04.000Z</time>
      </trkpt>
      <trkpt lat="45.288334" lon="5.641961">
        <ele>249.454550</ele>
        <time>2017-06-03T13:43:06.000Z</time>
      </trkpt>
      <trkpt lat="45.288230" lon="5.642023">
        <ele>248.959650</ele>
        <time>2017-06-03T13:43:08.000Z</time>
      </trkpt>
      <trkpt lat="45.288116" lon="5.642095">
        <ele>248.412221</ele>
        <time>2017-06-03T13:43:10.000Z</time>
      </trkpt>
      <trkpt lat="45.288002" lon="5.642168">
        <ele>247.863530</ele>
        <time>2017-06-03T13:43:12.000Z</time>
      </trkpt>
      <trkpt lat="45.287880" lon="5.642244">
        <ele>247.278996</ele>
        <time>2017-06-03T13:43:14.000Z</time>
      </trkpt>
      <trkpt lat="45.287770" lon="5.642300">
        <ele>246.766255</ele>
        <time>2017-06-03T13:43:16.000Z</time>
      </trkpt>
      <trkpt lat="45.287663" lon="5.642361">
        <ele>246.260346</ele>
        <time>2017-06-03T13:43:18.000Z</time>
      </trkpt>
      <trkpt lat="45.287560" lon="5.642418">
        <ele>245.775301</ele>
        <time>2017-06-03T13:43:20.000Z</time>
      </trkpt>
      <trkpt lat="45.287457" lon="5.642469">
        <ele>245.296665</ele>
        <time>2017-06-03T13:43:22.000Z</time>
      </trkpt>
      <trkpt lat="45.287357" lon="5.642548">
        <ele>244.794608</ele>
        <time>2017-06-03T13:43:25.000Z</time>
      </trkpt>
      <trkpt lat="45.287260" lon="5.642590">
        <ele>244.349630</ele>
        <time>2017-06-03T13:43:30.000Z</time>
      </trkpt>
      <trkpt lat="45.287178" lon="5.642489">
        <ele>243.873477</ele>
        <time>2017-06-03T13:43:38.000Z</time>
      </trkpt>
      <trkpt lat="45.287106" lon="5.642404">
        <ele>243.462748</ele>
        <time>2017-06-03T13:43:41.000Z</time>
      </trkpt>
      <trkpt lat="45.287020" lon="5.642300">
        <ele>243.160594</ele>
        <time>2017-06-03T13:43:44.000Z</time>
      </trkpt>
      <trkpt lat="45.286945" lon="5.642150">
        <ele>242.826467</ele>
        <time>2017-06-03T13:43:47.000Z</time>
      </trkpt>
      <trkpt lat="45.286884" lon="5.641982">
        <ele>242.483202</ele>
        <time>2017-06-03T13:43:50.000Z</time>
      </trkpt>
      <trkpt lat="45.286835" lon="5.641875">
        <ele>242.251392</ele>
        <time>2017-06-03T13:43:52.000Z</time>
      </trkpt>
      <trkpt lat="45.286766" lon="5.641783">
        <ele>242.007233</ele>
        <time>2017-06-03T13:43:54.000Z</time>
      </trkpt>
      <trkpt lat="45.286663" lon="5.641666">
        <ele>241.666956</ele>
        <time>2017-06-03T13:43:57.000Z</time>
      </trkpt>
      <trkpt lat="45.286552" lon="5.641565">
        <ele>241.326822</ele>
        <time>2017-06-03T13:44:00.000Z</time>
      </trkpt>
      <trkpt lat="45.286446" lon="5.641483">
        <ele>241.015370</ele>
        <time>2017-06-03T13:44:03.000Z</time>
      </trkpt>
      <trkpt lat="45.286340" lon="5.641394">
        <ele>240.697646</ele>
        <time>2017-06-03T13:44:06.000Z</time>
      </trkpt>
      <trkpt lat="45.286232" lon="5.641316">
        <ele>240.385007</ele>
        <time>2017-06-03T13:44:09.000Z</time>
      </trkpt>
      <trkpt lat="45.286118" lon="5.641232">
        <ele>240.053617</ele>
        <time>2017-06-03T13:44:12.000Z</time>
      </trkpt>
      <trkpt lat="45.286015" lon="5.641144">
        <ele>239.743473</ele>
        <time>2017-06-03T13:44:15.000Z</time>
      </trkpt>
      <trkpt lat="45.285923" lon="5.641067">
        <ele>239.467938</ele>
        <time>2017-06-03T13:44:18.000Z</time>
      </trkpt>
      <trkpt lat="45.285820" lon="5.640993">
        <ele>239.170092</ele>
        <time>2017-06-03T13:44:21.000Z</time>
      </trkpt>
      <trkpt lat="45.285713" lon="5.640907">
        <ele>238.852859</ele>
        <time>2017-06-03T13:44:24.000Z</time>
      </trkpt>
      <trkpt lat="45.285600" lon="5.640812">
        <ele>238.828466</ele>
        <time>2017-06-03T13:44:27.000Z</time>
      </trkpt>
      <trkpt lat="45.285507" lon="5.640674">
        <ele>238.870052</ele>
        <time>2017-06-03T13:44:30.000Z</time>
      </trkpt>
      <trkpt lat="45.285477" lon="5.640548">
        <ele>238.899000</ele>
        <time>2017-06-03T13:44:32.000Z</time>
      </trkpt>
      <trkpt lat="45.285435" lon="5.640374">
        <ele>238.939033</ele>
        <time>2017-06-03T13:44:35.000Z</time>
      </trkpt>
      <trkpt lat="45.285380" lon="5.640264">
        <ele>238.968400</ele>
        <time>2017-06-03T13:44:37.000Z</time>
      </trkpt>
      <trkpt lat="45.285310" lon="5.640173">
        <ele>238.997743</ele>
        <time>2017-06-03T13:44:39.000Z</time>
      </trkpt>
      <trkpt lat="45.285200" lon="5.640068">
        <ele>239.038728</ele>
        <time>2017-06-03T13:44:42.000Z</time>
      </trkpt>
      <trkpt lat="45.285084" lon="5.639968">
        <ele>239.080692</ele>
        <time>2017-06-03T13:44:45.000Z</time>
      </trkpt>
      <trkpt lat="45.284973" lon="5.639871">
        <ele>239.120996</ele>
        <time>2017-06-03T13:44:48.000Z</time>
      </trkpt>
      <trkpt lat="45.284866" lon="5.639773">
        <ele>239.160368</ele>
        <time>2017-06-03T13:44:51.000Z</time>
      </trkpt>
      <trkpt lat="45.284740" lon="5.639679">
        <ele>239.204384</ele>
        <time>2017-06-03T13:44:54.000Z</time>
      </trkpt>
      <trkpt lat="45.284626" lon="5.639586">
        <ele>239.245041</ele>
        <time>2017-06-03T13:44:57.000Z</time>
      </trkpt>
      <trkpt lat="45.284515" lon="5.639503">
        <ele>239.283836</ele>
        <time>2017-06-03T13:45:00.000Z</time>
      </trkpt>
      <trkpt lat="45.284405" lon="5.639401">
        <ele>239.324461</ele>
        <time>2017-06-03T13:45:03.000Z</time>
      </trkpt>
      <trkpt lat="45.284294" lon="5.639316">
        <ele>239.324280</ele>
        <time>2017-06-03T13:45:06.000Z</time>
      </trkpt>
      <trkpt lat="45.284172" lon="5.639272">
        <ele>239.239281</ele>
        <time>2017-06-03T13:45:09.000Z</time>
      </trkpt>
      <trkpt lat="45.284080" lon="5.639247">
        <ele>239.176028</ele>
        <time>2017-06-03T13:45:11.000Z</time>
      </trkpt>
      <trkpt lat="45.283947" lon="5.639221">
        <ele>239.085366</ele>
        <time>2017-06-03T13:45:14.000Z</time>
      </trkpt>
      <trkpt lat="45.283813" lon="5.639203">
        <ele>238.994471</ele>
        <time>2017-06-03T13:45:17.000Z</time>
      </trkpt>
      <trkpt lat="45.283726" lon="5.639181">
        <ele>238.934797</ele>
        <time>2017-06-03T13:45:19.000Z</time>
      </trkpt>
      <trkpt lat="45.283600" lon="5.639161">
        <ele>238.849179</ele>
        <time>2017-06-03T13:45:22.000Z</time>
      </trkpt>
      <trkpt lat="45.283478" lon="5.639136">
        <ele>238.765940</ele>
        <time>2017-06-03T13:45:25.000Z</time>
      </trkpt>
      <trkpt lat="45.283350" lon="5.639117">
        <ele>238.679030</ele>
        <time>2017-06-03T13:45:28.000Z</time>
      </trkpt>
      <trkpt lat="45.283222" lon="5.639089">
        <ele>238.591573</ele>
        <time>2017-06-03T13:45:31.000Z</time>
      </trkpt>
      <trkpt lat="45.283104" lon="5.639069">
        <ele>238.511322</ele>
        <time>2017-06-03T13:45:34.000Z</time>
      </trkpt>
      <trkpt lat="45.282997" lon="5.639160">
        <ele>238.427115</ele>
        <time>2017-06-03T13:45:37.000Z</time>
      </trkpt>
      <trkpt lat="45.282906" lon="5.639296">
        <ele>238.337939</ele>
        <time>2017-06-03T13:45:40.000Z</time>
      </trkpt>
      <trkpt lat="45.282830" lon="5.639420">
        <ele>238.259802</ele>
        <time>2017-06-03T13:45:43.000Z</time>
      </trkpt>
      <trkpt lat="45.282753" lon="5.639523">
        <ele>238.188394</ele>
        <time>2017-06-03T13:45:46.000Z</time>
      </trkpt>
      <trkpt lat="45.282670" lon="5.639628">
        <ele>238.083055</ele>
        <time>2017-06-03T13:45:50.000Z</time>
      </trkpt>
      <trkpt lat="45.282590" lon="5.639715">
        <ele>237.926027</ele>
        <time>2017-06-03T13:45:53.000Z</time>
      </trkpt>
      <trkpt lat="45.282524" lon="5.639808">
        <ele>237.781146</ele>
        <time>2017-06-03T13:45:55.000Z</time>
      </trkpt>
      <trkpt lat="45.282463" lon="5.639907">
        <ele>237.636810</ele>
        <time>2017-06-03T13:45:57.000Z</time>
      </trkpt>
      <trkpt lat="45.282400" lon="5.640003">
        <ele>237.492823</ele>
        <time>2017-06-03T13:45:59.000Z</time>
      </trkpt>
      <trkpt lat="45.282314" lon="5.640123">
        <ele>237.304950</ele>
        <time>2017-06-03T13:46:02.000Z</time>
      </trkpt>
      <trkpt lat="45.282227" lon="5.640249">
        <ele>237.111320</ele>
        <time>2017-06-03T13:46:05.000Z</time>
      </trkpt>
      <trkpt lat="45.282160" lon="5.640341">
        <ele>236.966093</ele>
        <time>2017-06-03T13:46:07.000Z</time>
      </trkpt>
      <trkpt lat="45.282100" lon="5.640438">
        <ele>236.824433</ele>
        <time>2017-06-03T13:46:09.000Z</time>
      </trkpt>
      <trkpt lat="45.282024" lon="5.640561">
        <ele>236.644886</ele>
        <time>2017-06-03T13:46:12.000Z</time>
      </trkpt>
      <trkpt lat="45.281940" lon="5.640686">
        <ele>236.455297</ele>
        <time>2017-06-03T13:46:15.000Z</time>
      </trkpt>
      <trkpt lat="45.281876" lon="5.640780">
        <ele>236.311827</ele>
        <time>2017-06-03T13:46:17.000Z</time>
      </trkpt>
      <trkpt lat="45.281788" lon="5.640910">
        <ele>236.113963</ele>
        <time>2017-06-03T13:46:20.000Z</time>
      </trkpt>
      <trkpt lat="45.281710" lon="5.641027">
        <ele>235.937178</ele>
        <time>2017-06-03T13:46:23.000Z</time>
      </trkpt>
      <trkpt lat="45.281643" lon="5.641148">
        <ele>235.768291</ele>
        <time>2017-06-03T13:46:26.000Z</time>
      </trkpt>
      <trkpt lat="45.281624" lon="5.641280">
        <ele>235.620509</ele>
        <time>2017-06-03T13:46:29.000Z</time>
      </trkpt>
      <trkpt lat="45.281662" lon="5.641431">
        <ele>235.444611</ele>
        <time>2017-06-03T13:46:32.000Z</time>
      </trkpt>
      <trkpt lat="45.281708" lon="5.641580">
        <ele>235.350977</ele>
        <time>2017-06-03T13:46:35.000Z</time>
      </trkpt>
      <trkpt lat="45.281746" lon="5.641736">
        <ele>235.400743</ele>
        <time>2017-06-03T13:46:38.000Z</time>
      </trkpt>
      <trkpt lat="45.281796" lon="5.641892">
        <ele>235.452421</ele>
        <time>2017-06-03T13:46:41.000Z</time>
      </trkpt>
      <trkpt lat="45.281840" lon="5.642054">
        <ele>235.504770</ele>
        <time>2017-06-03T13:46:44.000Z</time>
      </trkpt>
      <trkpt lat="45.281876" lon="5.642195">
        <ele>235.549989</ele>
        <time>2017-06-03T13:46:47.000Z</time>
      </trkpt>
      <trkpt lat="45.281840" lon="5.642352">
        <ele>235.599768</ele>
        <time>2017-06-03T13:46:50.000Z</time>
      </trkpt>
      <trkpt lat="45.281742" lon="5.642446">
        <ele>235.650424</ele>
        <time>2017-06-03T13:46:53.000Z</time>
      </trkpt>
      <trkpt lat="45.281662" lon="5.642510">
        <ele>235.689757</ele>
        <time>2017-06-03T13:46:55.000Z</time>
      </trkpt>
      <trkpt lat="45.281578" lon="5.642576">
        <ele>235.730880</ele>
        <time>2017-06-03T13:46:57.000Z</time>
      </trkpt>
      <trkpt lat="45.281490" lon="5.642663">
        <ele>235.776809</ele>
        <time>2017-06-03T13:47:00.000Z</time>
      </trkpt>
      <trkpt lat="45.281403" lon="5.642726">
        <ele>235.818643</ele>
        <time>2017-06-03T13:47:03.000Z</time>
      </trkpt>
      <trkpt lat="45.281296" lon="5.642798">
        <ele>235.869366</ele>
        <time>2017-06-03T13:47:06.000Z</time>
      </trkpt>
      <trkpt lat="45.281204" lon="5.642870">
        <ele>235.914364</ele>
        <time>2017-06-03T13:47:09.000Z</time>
      </trkpt>
      <trkpt lat="45.281110" lon="5.642952">
        <ele>235.961619</ele>
        <time>2017-06-03T13:47:12.000Z</time>
      </trkpt>
      <trkpt lat="45.281017" lon="5.643024">
        <ele>236.006994</ele>
        <time>2017-06-03T13:47:15.000Z</time>
      </trkpt>
      <trkpt lat="45.280926" lon="5.643053">
        <ele>236.046950</ele>
        <time>2017-06-03T13:47:19.000Z</time>
      </trkpt>
      <trkpt lat="45.280880" lon="5.642890">
        <ele>236.099895</ele>
        <time>2017-06-03T13:47:23.000Z</time>
      </trkpt>
      <trkpt lat="45.280853" lon="5.642753">
        <ele>236.071339</ele>
        <time>2017-06-03T13:47:26.000Z</time>
      </trkpt>
      <trkpt lat="45.280807" lon="5.642561">
        <ele>236.021820</ele>
        <time>2017-06-03T13:47:29.000Z</time>
      </trkpt>
      <trkpt lat="45.280760" lon="5.642437">
        <ele>235.987432</ele>
        <time>2017-06-03T13:47:31.000Z</time>
      </trkpt>
      <trkpt lat="45.280724" lon="5.642285">
        <ele>235.948275</ele>
        <time>2017-06-03T13:47:34.000Z</time>
      </trkpt>
      <trkpt lat="45.280678" lon="5.642137">
        <ele>235.908773</ele>
        <time>2017-06-03T13:47:37.000Z</time>
      </trkpt>
      <trkpt lat="45.280636" lon="5.642012">
        <ele>235.874953</ele>
        <time>2017-06-03T13:47:41.000Z</time>
      </trkpt>
      <trkpt lat="45.280594" lon="5.641879">
        <ele>235.839361</ele>
        <time>2017-06-03T13:47:46.000Z</time>
      </trkpt>
      <trkpt lat="45.280636" lon="5.642050">
        <ele>235.795140</ele>
        <time>2017-06-03T13:48:23.000Z</time>
      </trkpt>
      <trkpt lat="45.280680" lon="5.642182">
        <ele>235.759479</ele>
        <time>2017-06-03T13:48:26.000Z</time>
      </trkpt>
      <trkpt lat="45.280724" lon="5.642330">
        <ele>235.720252</ele>
        <time>2017-06-03T13:48:29.000Z</time>
      </trkpt>
      <trkpt lat="45.280766" lon="5.642461">
        <ele>235.685104</ele>
        <time>2017-06-03T13:48:32.000Z</time>
      </trkpt>
      <trkpt lat="45.280810" lon="5.642592">
        <ele>235.649664</ele>
        <time>2017-06-03T13:48:35.000Z</time>
      </trkpt>
      <trkpt lat="45.280850" lon="5.642736">
        <ele>235.611865</ele>
        <time>2017-06-03T13:48:38.000Z</time>
      </trkpt>
      <trkpt lat="45.280888" lon="5.642879">
        <ele>235.574545</ele>
        <time>2017-06-03T13:48:41.000Z</time>
      </trkpt>
      <trkpt lat="45.280922" lon="5.643032">
        <ele>235.535372</ele>
        <time>2017-06-03T13:48:44.000Z</time>
      </trkpt>
      <trkpt lat="45.280980" lon="5.643174">
        <ele>235.495285</ele>
        <time>2017-06-03T13:48:47.000Z</time>
      </trkpt>
      <trkpt lat="45.281030" lon="5.643296">
        <ele>235.624471</ele>
        <time>2017-06-03T13:48:50.000Z</time>
      </trkpt>
      <trkpt lat="45.281075" lon="5.643470">
        <ele>235.981924</ele>
        <time>2017-06-03T13:48:53.000Z</time>
      </trkpt>
      <trkpt lat="45.281120" lon="5.643620">
        <ele>236.296347</ele>
        <time>2017-06-03T13:48:56.000Z</time>
      </trkpt>
      <trkpt lat="45.281143" lon="5.643767">
        <ele>236.586717</ele>
        <time>2017-06-03T13:48:59.000Z</time>
      </trkpt>
      <trkpt lat="45.281162" lon="5.643928">
        <ele>236.901494</ele>
        <time>2017-06-03T13:49:02.000Z</time>
      </trkpt>
      <trkpt lat="45.281147" lon="5.644086">
        <ele>237.208911</ele>
        <time>2017-06-03T13:49:05.000Z</time>
      </trkpt>
      <trkpt lat="45.281150" lon="5.644228">
        <ele>237.482840</ele>
        <time>2017-06-03T13:49:08.000Z</time>
      </trkpt>
      <trkpt lat="45.281150" lon="5.644362">
        <ele>237.741219</ele>
        <time>2017-06-03T13:49:11.000Z</time>
      </trkpt>
      <trkpt lat="45.281140" lon="5.644492">
        <ele>237.993380</ele>
        <time>2017-06-03T13:49:14.000Z</time>
      </trkpt>
      <trkpt lat="45.281140" lon="5.644655">
        <ele>238.307677</ele>
        <time>2017-06-03T13:49:18.000Z</time>
      </trkpt>
      <trkpt lat="45.281128" lon="5.644808">
        <ele>238.604520</ele>
        <time>2017-06-03T13:49:22.000Z</time>
      </trkpt>
      <trkpt lat="45.281036" lon="5.644840">
        <ele>238.864075</ele>
        <time>2017-06-03T13:49:26.000Z</time>
      </trkpt>
      <trkpt lat="45.280926" lon="5.644785">
        <ele>239.183628</ele>
        <time>2017-06-03T13:49:29.000Z</time>
      </trkpt>
      <trkpt lat="45.280804" lon="5.644697">
        <ele>239.558549</ele>
        <time>2017-06-03T13:49:32.000Z</time>
      </trkpt>
      <trkpt lat="45.280693" lon="5.644624">
        <ele>239.893720</ele>
        <time>2017-06-03T13:49:35.000Z</time>
      </trkpt>
      <trkpt lat="45.280610" lon="5.644570">
        <ele>240.143872</ele>
        <time>2017-06-03T13:49:37.000Z</time>
      </trkpt>
      <trkpt lat="45.280518" lon="5.644517">
        <ele>240.414110</ele>
        <time>2017-06-03T13:49:39.000Z</time>
      </trkpt>
      <trkpt lat="45.280434" lon="5.644453">
        <ele>240.614539</ele>
        <time>2017-06-03T13:49:41.000Z</time>
      </trkpt>
      <trkpt lat="45.280354" lon="5.644363">
        <ele>240.829102</ele>
        <time>2017-06-03T13:49:43.000Z</time>
      </trkpt>
      <trkpt lat="45.280280" lon="5.644259">
        <ele>241.047958</ele>
        <time>2017-06-03T13:49:45.000Z</time>
      </trkpt>
      <trkpt lat="45.280193" lon="5.644182">
        <ele>241.263490</ele>
        <time>2017-06-03T13:49:47.000Z</time>
      </trkpt>
      <trkpt lat="45.280106" lon="5.644145">
        <ele>241.454460</ele>
        <time>2017-06-03T13:49:49.000Z</time>
      </trkpt>
      <trkpt lat="45.279972" lon="5.644172">
        <ele>241.739069</ele>
        <time>2017-06-03T13:49:52.000Z</time>
      </trkpt>
      <trkpt lat="45.279850" lon="5.644238">
        <ele>242.013585</ele>
        <time>2017-06-03T13:49:55.000Z</time>
      </trkpt>
      <trkpt lat="45.279724" lon="5.644280">
        <ele>242.285744</ele>
        <time>2017-06-03T13:49:58.000Z</time>
      </trkpt>
      <trkpt lat="45.279636" lon="5.644306">
        <ele>242.474757</ele>
        <time>2017-06-03T13:50:00.000Z</time>
      </trkpt>
      <trkpt lat="45.279545" lon="5.644335">
        <ele>242.670875</ele>
        <time>2017-06-03T13:50:02.000Z</time>
      </trkpt>
      <trkpt lat="45.279450" lon="5.644357">
        <ele>242.873288</ele>
        <time>2017-06-03T13:50:04.000Z</time>
      </trkpt>
      <trkpt lat="45.279324" lon="5.644385">
        <ele>243.141476</ele>
        <time>2017-06-03T13:50:07.000Z</time>
      </trkpt>
      <trkpt lat="45.279213" lon="5.644408">
        <ele>243.377368</ele>
        <time>2017-06-03T13:50:10.000Z</time>
      </trkpt>
      <trkpt lat="45.279102" lon="5.644429">
        <ele>243.612851</ele>
        <time>2017-06-03T13:50:13.000Z</time>
      </trkpt>
      <trkpt lat="45.278990" lon="5.644448">
        <ele>243.850051</ele>
        <time>2017-06-03T13:50:16.000Z</time>
      </trkpt>
      <trkpt lat="45.278904" lon="5.644483">
        <ele>244.038171</ele>
        <time>2017-06-03T13:50:19.000Z</time>
      </trkpt>
      <trkpt lat="45.278797" lon="5.644501">
        <ele>244.156806</ele>
        <time>2017-06-03T13:50:22.000Z</time>
      </trkpt>
      <trkpt lat="45.278680" lon="5.644510">
        <ele>244.044667</ele>
        <time>2017-06-03T13:50:25.000Z</time>
      </trkpt>
      <trkpt lat="45.278570" lon="5.644545">
        <ele>243.936786</ele>
        <time>2017-06-03T13:50:28.000Z</time>
      </trkpt>
      <trkpt lat="45.278477" lon="5.644514">
        <ele>243.845365</ele>
        <time>2017-06-03T13:50:31.000Z</time>
      </trkpt>
      <trkpt lat="45.278380" lon="5.644361">
        <ele>243.706676</ele>
        <time>2017-06-03T13:50:34.000Z</time>
      </trkpt>
      <trkpt lat="45.278343" lon="5.644228">
        <ele>243.610363</ele>
        <time>2017-06-03T13:50:36.000Z</time>
      </trkpt>
      <trkpt lat="45.278282" lon="5.644096">
        <ele>243.504013</ele>
        <time>2017-06-03T13:50:38.000Z</time>
      </trkpt>
      <trkpt lat="45.278170" lon="5.643936">
        <ele>243.352027</ele>
        <time>2017-06-03T13:50:41.000Z</time>
      </trkpt>
      <trkpt lat="45.278084" lon="5.643851">
        <ele>243.251772</ele>
        <time>2017-06-03T13:50:43.000Z</time>
      </trkpt>
      <trkpt lat="45.277992" lon="5.643794">
        <ele>243.155720</ele>
        <time>2017-06-03T13:50:45.000Z</time>
      </trkpt>
      <trkpt lat="45.277897" lon="5.643756">
        <ele>243.061268</ele>
        <time>2017-06-03T13:50:47.000Z</time>
      </trkpt>
      <trkpt lat="45.277790" lon="5.643730">
        <ele>242.957377</ele>
        <time>2017-06-03T13:50:49.000Z</time>
      </trkpt>
      <trkpt lat="45.277676" lon="5.643704">
        <ele>242.846878</ele>
        <time>2017-06-03T13:50:51.000Z</time>
      </trkpt>
      <trkpt lat="45.277565" lon="5.643670">
        <ele>242.738206</ele>
        <time>2017-06-03T13:50:53.000Z</time>
      </trkpt>
      <trkpt lat="45.277450" lon="5.643623">
        <ele>242.623685</ele>
        <time>2017-06-03T13:50:55.000Z</time>
      </trkpt>
      <trkpt lat="45.277340" lon="5.643585">
        <ele>242.515344</ele>
        <time>2017-06-03T13:50:57.000Z</time>
      </trkpt>
      <trkpt lat="45.277230" lon="5.643560">
        <ele>242.433308</ele>
        <time>2017-06-03T13:50:59.000Z</time>
      </trkpt>
      <trkpt lat="45.277126" lon="5.643544">
        <ele>242.373898</ele>
        <time>2017-06-03T13:51:01.000Z</time>
      </trkpt>
      <trkpt lat="45.277023" lon="5.643543">
        <ele>242.315400</ele>
        <time>2017-06-03T13:51:03.000Z</time>
      </trkpt>
      <trkpt lat="45.276917" lon="5.643547">
        <ele>242.255177</ele>
        <time>2017-06-03T13:51:05.000Z</time>
      </trkpt>
      <trkpt lat="45.276806" lon="5.643549">
        <ele>242.192132</ele>
        <time>2017-06-03T13:51:07.000Z</time>
      </trkpt>
      <trkpt lat="45.276695" lon="5.643552">
        <ele>242.129080</ele>
        <time>2017-06-03T13:51:09.000Z</time>
      </trkpt>
      <trkpt lat="45.276590" lon="5.643559">
        <ele>242.069381</ele>
        <time>2017-06-03T13:51:11.000Z</time>
      </trkpt>
      <trkpt lat="45.276490" lon="5.643566">
        <ele>242.012519</ele>
        <time>2017-06-03T13:51:13.000Z</time>
      </trkpt>
      <trkpt lat="45.276394" lon="5.643569">
        <ele>241.957984</ele>
        <time>2017-06-03T13:51:15.000Z</time>
      </trkpt>
      <trkpt lat="45.276302" lon="5.643577">
        <ele>241.905636</ele>
        <time>2017-06-03T13:51:17.000Z</time>
      </trkpt>
      <trkpt lat="45.276203" lon="5.643588">
        <ele>241.849239</ele>
        <time>2017-06-03T13:51:19.000Z</time>
      </trkpt>
      <trkpt lat="45.276100" lon="5.643609">
        <ele>241.790143</ele>
        <time>2017-06-03T13:51:21.000Z</time>
      </trkpt>
      <trkpt lat="45.276000" lon="5.643623">
        <ele>241.733075</ele>
        <time>2017-06-03T13:51:23.000Z</time>
      </trkpt>
      <trkpt lat="45.275910" lon="5.643640">
        <ele>241.681511</ele>
        <time>2017-06-03T13:51:25.000Z</time>
      </trkpt>
      <trkpt lat="45.275818" lon="5.643653">
        <ele>241.629003</ele>
        <time>2017-06-03T13:51:27.000Z</time>
      </trkpt>
      <trkpt lat="45.275692" lon="5.643672">
        <ele>241.557042</ele>
        <time>2017-06-03T13:51:30.000Z</time>
      </trkpt>
      <trkpt lat="45.275574" lon="5.643674">
        <ele>241.490021</ele>
        <time>2017-06-03T13:51:33.000Z</time>
      </trkpt>
      <trkpt lat="45.275460" lon="5.643624">
        <ele>241.431940</ele>
        <time>2017-06-03T13:51:36.000Z</time>
      </trkpt>
      <trkpt lat="45.275390" lon="5.643540">
        <ele>241.399725</ele>
        <time>2017-06-03T13:51:38.000Z</time>
      </trkpt>
      <trkpt lat="45.275350" lon="5.643354">
        <ele>241.351600</ele>
        <time>2017-06-03T13:51:41.000Z</time>
      </trkpt>
      <trkpt lat="45.275326" lon="5.643220">
        <ele>241.317387</ele>
        <time>2017-06-03T13:51:43.000Z</time>
      </trkpt>
      <trkpt lat="45.275295" lon="5.643079">
        <ele>241.280835</ele>
        <time>2017-06-03T13:51:45.000Z</time>
      </trkpt>
      <trkpt lat="45.275265" lon="5.642947">
        <ele>241.246512</ele>
        <time>2017-06-03T13:51:47.000Z</time>
      </trkpt>
      <trkpt lat="45.275227" lon="5.642817">
        <ele>241.211680</ele>
        <time>2017-06-03T13:51:49.000Z</time>
      </trkpt>
      <trkpt lat="45.275196" lon="5.642694">
        <ele>241.179352</ele>
        <time>2017-06-03T13:51:51.000Z</time>
      </trkpt>
      <trkpt lat="45.275160" lon="5.642528">
        <ele>241.136372</ele>
        <time>2017-06-03T13:51:54.000Z</time>
      </trkpt>
      <trkpt lat="45.275130" lon="5.642370">
        <ele>241.095878</ele>
        <time>2017-06-03T13:51:57.000Z</time>
      </trkpt>
      <trkpt lat="45.275093" lon="5.642214">
        <ele>241.055144</ele>
        <time>2017-06-03T13:52:00.000Z</time>
      </trkpt>
      <trkpt lat="45.275070" lon="5.642081">
        <ele>241.021256</ele>
        <time>2017-06-03T13:52:02.000Z</time>
      </trkpt>
      <trkpt lat="45.275043" lon="5.641934">
        <ele>240.983664</ele>
        <time>2017-06-03T13:52:04.000Z</time>
      </trkpt>
      <trkpt lat="45.275017" lon="5.641782">
        <ele>240.944958</ele>
        <time>2017-06-03T13:52:06.000Z</time>
      </trkpt>
      <trkpt lat="45.274986" lon="5.641637">
        <ele>240.907460</ele>
        <time>2017-06-03T13:52:08.000Z</time>
      </trkpt>
      <trkpt lat="45.274960" lon="5.641489">
        <ele>240.869716</ele>
        <time>2017-06-03T13:52:10.000Z</time>
      </trkpt>
      <trkpt lat="45.274930" lon="5.641346">
        <ele>240.832793</ele>
        <time>2017-06-03T13:52:12.000Z</time>
      </trkpt>
      <trkpt lat="45.274902" lon="5.641208">
        <ele>240.792632</ele>
        <time>2017-06-03T13:52:14.000Z</time>
      </trkpt>
      <trkpt lat="45.274870" lon="5.641063">
        <ele>240.745358</ele>
        <time>2017-06-03T13:52:16.000Z</time>
      </trkpt>
      <trkpt lat="45.274840" lon="5.640917">
        <ele>240.698042</ele>
        <time>2017-06-03T13:52:18.000Z</time>
      </trkpt>
      <trkpt lat="45.274815" lon="5.640772">
        <ele>240.651600</ele>
        <time>2017-06-03T13:52:20.000Z</time>
      </trkpt>
      <trkpt lat="45.274788" lon="5.640622">
        <ele>240.603434</ele>
        <time>2017-06-03T13:52:22.000Z</time>
      </trkpt>
      <trkpt lat="45.274765" lon="5.640471">
        <ele>240.555372</ele>
        <time>2017-06-03T13:52:24.000Z</time>
      </trkpt>
      <trkpt lat="45.274740" lon="5.640320">
        <ele>240.507114</ele>
        <time>2017-06-03T13:52:26.000Z</time>
      </trkpt>
      <trkpt lat="45.274704" lon="5.640169">
        <ele>240.457517</ele>
        <time>2017-06-03T13:52:28.000Z</time>
      </trkpt>
      <trkpt lat="45.274677" lon="5.640017">
        <ele>240.408748</ele>
        <time>2017-06-03T13:52:30.000Z</time>
      </trkpt>
      <trkpt lat="45.274647" lon="5.639858">
        <ele>240.357537</ele>
        <time>2017-06-03T13:52:32.000Z</time>
      </trkpt>
      <trkpt lat="45.274620" lon="5.639699">
        <ele>240.306654</ele>
        <time>2017-06-03T13:52:34.000Z</time>
      </trkpt>
      <trkpt lat="45.274586" lon="5.639536">
        <ele>240.253765</ele>
        <time>2017-06-03T13:52:36.000Z</time>
      </trkpt>
      <trkpt lat="45.274550" lon="5.639378">
        <ele>240.202101</ele>
        <time>2017-06-03T13:52:38.000Z</time>
      </trkpt>
      <trkpt lat="45.274517" lon="5.639215">
        <ele>240.149336</ele>
        <time>2017-06-03T13:52:40.000Z</time>
      </trkpt>
      <trkpt lat="45.274487" lon="5.639062">
        <ele>240.099926</ele>
        <time>2017-06-03T13:52:42.000Z</time>
      </trkpt>
      <trkpt lat="45.274460" lon="5.638903">
        <ele>240.049042</ele>
        <time>2017-06-03T13:52:44.000Z</time>
      </trkpt>
      <trkpt lat="45.274430" lon="5.638749">
        <ele>240.108281</ele>
        <time>2017-06-03T13:52:46.000Z</time>
      </trkpt>
      <trkpt lat="45.274400" lon="5.638592">
        <ele>240.323242</ele>
        <time>2017-06-03T13:52:48.000Z</time>
      </trkpt>
      <trkpt lat="45.274370" lon="5.638432">
        <ele>240.542031</ele>
        <time>2017-06-03T13:52:50.000Z</time>
      </trkpt>
      <trkpt lat="45.274330" lon="5.638279">
        <ele>240.757696</ele>
        <time>2017-06-03T13:52:52.000Z</time>
      </trkpt>
      <trkpt lat="45.274296" lon="5.638126">
        <ele>240.969701</ele>
        <time>2017-06-03T13:52:54.000Z</time>
      </trkpt>
      <trkpt lat="45.274260" lon="5.637977">
        <ele>241.177861</ele>
        <time>2017-06-03T13:52:56.000Z</time>
      </trkpt>
      <trkpt lat="45.274240" lon="5.637825">
        <ele>241.382185</ele>
        <time>2017-06-03T13:52:58.000Z</time>
      </trkpt>
      <trkpt lat="45.274210" lon="5.637669">
        <ele>241.595872</ele>
        <time>2017-06-03T13:53:00.000Z</time>
      </trkpt>
      <trkpt lat="45.274170" lon="5.637521">
        <ele>241.805357</ele>
        <time>2017-06-03T13:53:02.000Z</time>
      </trkpt>
      <trkpt lat="45.274143" lon="5.637370">
        <ele>242.011219</ele>
        <time>2017-06-03T13:53:04.000Z</time>
      </trkpt>
      <trkpt lat="45.274120" lon="5.637220">
        <ele>242.214071</ele>
        <time>2017-06-03T13:53:06.000Z</time>
      </trkpt>
      <trkpt lat="45.274090" lon="5.637085">
        <ele>242.401134</ele>
        <time>2017-06-03T13:53:08.000Z</time>
      </trkpt>
      <trkpt lat="45.274067" lon="5.636936">
        <ele>242.602695</ele>
        <time>2017-06-03T13:53:10.000Z</time>
      </trkpt>
      <trkpt lat="45.274044" lon="5.636787">
        <ele>242.804256</ele>
        <time>2017-06-03T13:53:12.000Z</time>
      </trkpt>
      <trkpt lat="45.274014" lon="5.636641">
        <ele>243.005228</ele>
        <time>2017-06-03T13:53:14.000Z</time>
      </trkpt>
      <trkpt lat="45.273987" lon="5.636483">
        <ele>243.220067</ele>
        <time>2017-06-03T13:53:16.000Z</time>
      </trkpt>
      <trkpt lat="45.273952" lon="5.636329">
        <ele>243.396265</ele>
        <time>2017-06-03T13:53:18.000Z</time>
      </trkpt>
      <trkpt lat="45.273926" lon="5.636174">
        <ele>243.390081</ele>
        <time>2017-06-03T13:53:20.000Z</time>
      </trkpt>
      <trkpt lat="45.273895" lon="5.636021">
        <ele>243.383902</ele>
        <time>2017-06-03T13:53:22.000Z</time>
      </trkpt>
      <trkpt lat="45.273865" lon="5.635868">
        <ele>243.377738</ele>
        <time>2017-06-03T13:53:24.000Z</time>
      </trkpt>
      <trkpt lat="45.273838" lon="5.635712">
        <ele>243.371503</ele>
        <time>2017-06-03T13:53:26.000Z</time>
      </trkpt>
      <trkpt lat="45.273810" lon="5.635559">
        <ele>243.365368</ele>
        <time>2017-06-03T13:53:28.000Z</time>
      </trkpt>
      <trkpt lat="45.273792" lon="5.635401">
        <ele>243.359156</ele>
        <time>2017-06-03T13:53:30.000Z</time>
      </trkpt>
      <trkpt lat="45.273770" lon="5.635244">
        <ele>243.352943</ele>
        <time>2017-06-03T13:53:32.000Z</time>
      </trkpt>
      <trkpt lat="45.273727" lon="5.635081">
        <ele>243.346187</ele>
        <time>2017-06-03T13:53:34.000Z</time>
      </trkpt>
      <trkpt lat="45.273693" lon="5.634919">
        <ele>243.339627</ele>
        <time>2017-06-03T13:53:36.000Z</time>
      </trkpt>
      <trkpt lat="45.273666" lon="5.634757">
        <ele>243.333165</ele>
        <time>2017-06-03T13:53:38.000Z</time>
      </trkpt>
      <trkpt lat="45.273640" lon="5.634590">
        <ele>243.326527</ele>
        <time>2017-06-03T13:53:40.000Z</time>
      </trkpt>
      <trkpt lat="45.273617" lon="5.634423">
        <ele>243.319923</ele>
        <time>2017-06-03T13:53:42.000Z</time>
      </trkpt>
      <trkpt lat="45.273605" lon="5.634270">
        <ele>243.313949</ele>
        <time>2017-06-03T13:53:44.000Z</time>
      </trkpt>
      <trkpt lat="45.273567" lon="5.634134">
        <ele>243.308270</ele>
        <time>2017-06-03T13:53:46.000Z</time>
      </trkpt>
      <trkpt lat="45.273550" lon="5.633994">
        <ele>243.302756</ele>
        <time>2017-06-03T13:53:48.000Z</time>
      </trkpt>
      <trkpt lat="45.273525" lon="5.633844">
        <ele>243.294325</ele>
        <time>2017-06-03T13:53:50.000Z</time>
      </trkpt>
      <trkpt lat="45.273510" lon="5.633706">
        <ele>243.279233</ele>
        <time>2017-06-03T13:53:52.000Z</time>
      </trkpt>
      <trkpt lat="45.273502" lon="5.633538">
        <ele>243.261033</ele>
        <time>2017-06-03T13:53:54.000Z</time>
      </trkpt>
      <trkpt lat="45.273487" lon="5.633378">
        <ele>243.243586</ele>
        <time>2017-06-03T13:53:56.000Z</time>
      </trkpt>
      <trkpt lat="45.273470" lon="5.633225">
        <ele>243.226844</ele>
        <time>2017-06-03T13:53:58.000Z</time>
      </trkpt>
      <trkpt lat="45.273453" lon="5.633067">
        <ele>243.209568</ele>
        <time>2017-06-03T13:54:00.000Z</time>
      </trkpt>
      <trkpt lat="45.273434" lon="5.632907">
        <ele>243.192030</ele>
        <time>2017-06-03T13:54:02.000Z</time>
      </trkpt>
      <trkpt lat="45.273415" lon="5.632754">
        <ele>243.175237</ele>
        <time>2017-06-03T13:54:04.000Z</time>
      </trkpt>
      <trkpt lat="45.273396" lon="5.632598">
        <ele>243.158125</ele>
        <time>2017-06-03T13:54:06.000Z</time>
      </trkpt>
      <trkpt lat="45.273373" lon="5.632442">
        <ele>243.140898</ele>
        <time>2017-06-03T13:54:08.000Z</time>
      </trkpt>
      <trkpt lat="45.273354" lon="5.632278">
        <ele>243.122933</ele>
        <time>2017-06-03T13:54:10.000Z</time>
      </trkpt>
      <trkpt lat="45.273335" lon="5.632120">
        <ele>243.105608</ele>
        <time>2017-06-03T13:54:12.000Z</time>
      </trkpt>
      <trkpt lat="45.273320" lon="5.631967">
        <ele>243.088911</ele>
        <time>2017-06-03T13:54:14.000Z</time>
      </trkpt>
      <trkpt lat="45.273308" lon="5.631804">
        <ele>243.071197</ele>
        <time>2017-06-03T13:54:16.000Z</time>
      </trkpt>
      <trkpt lat="45.273290" lon="5.631646">
        <ele>243.053897</ele>
        <time>2017-06-03T13:54:18.000Z</time>
      </trkpt>
      <trkpt lat="45.273273" lon="5.631490">
        <ele>243.036834</ele>
        <time>2017-06-03T13:54:20.000Z</time>
      </trkpt>
      <trkpt lat="45.273254" lon="5.631332">
        <ele>243.021889</ele>
        <time>2017-06-03T13:54:22.000Z</time>
      </trkpt>
      <trkpt lat="45.273235" lon="5.631173">
        <ele>243.021889</ele>
        <time>2017-06-03T13:54:24.000Z</time>
      </trkpt>
      <trkpt lat="45.273224" lon="5.631017">
        <ele>243.021889</ele>
        <time>2017-06-03T13:54:26.000Z</time>
      </trkpt>
      <trkpt lat="45.273210" lon="5.630858">
        <ele>243.021889</ele>
        <time>2017-06-03T13:54:28.000Z</time>
      </trkpt>
      <trkpt lat="45.273190" lon="5.630709">
        <ele>243.021889</ele>
        <time>2017-06-03T13:54:30.000Z</time>
      </trkpt>
      <trkpt lat="45.273163" lon="5.630561">
        <ele>243.021889</ele>
        <time>2017-06-03T13:54:32.000Z</time>
      </trkpt>
      <trkpt lat="45.273144" lon="5.630414">
        <ele>243.021889</ele>
        <time>2017-06-03T13:54:34.000Z</time>
      </trkpt>
      <trkpt lat="45.273132" lon="5.630263">
        <ele>243.021889</ele>
        <time>2017-06-03T13:54:36.000Z</time>
      </trkpt>
      <trkpt lat="45.273120" lon="5.630113">
        <ele>243.021889</ele>
        <time>2017-06-03T13:54:38.000Z</time>
      </trkpt>
      <trkpt lat="45.273113" lon="5.629972">
        <ele>243.021889</ele>
        <time>2017-06-03T13:54:40.000Z</time>
      </trkpt>
      <trkpt lat="45.273100" lon="5.629845">
        <ele>243.021889</ele>
        <time>2017-06-03T13:54:42.000Z</time>
      </trkpt>
      <trkpt lat="45.273090" lon="5.629693">
        <ele>243.021889</ele>
        <time>2017-06-03T13:54:45.000Z</time>
      </trkpt>
      <trkpt lat="45.273083" lon="5.629566">
        <ele>243.021889</ele>
        <time>2017-06-03T13:54:49.000Z</time>
      </trkpt>
      <trkpt lat="45.272995" lon="5.629534">
        <ele>243.021889</ele>
        <time>2017-06-03T13:54:54.000Z</time>
      </trkpt>
      <trkpt lat="45.272907" lon="5.629587">
        <ele>243.021889</ele>
        <time>2017-06-03T13:54:57.000Z</time>
      </trkpt>
      <trkpt lat="45.272810" lon="5.629672">
        <ele>243.021889</ele>
        <time>2017-06-03T13:55:01.000Z</time>
      </trkpt>
      <trkpt lat="45.272720" lon="5.629683">
        <ele>243.021889</ele>
        <time>2017-06-03T13:55:08.000Z</time>
      </trkpt>
    </trkseg>
  </trk>
</gpx>